<?xml version='1.0' encoding='UTF-8'?><gpx version="1.1" creator="JPX - https://github.com/jenetics/jpx" xmlns="http://www.topografix.com/GPX/1/1"><trk><trkseg><trkpt lat="42.3874271" lon="14.1299347"><ele>32.25</ele><time>2026-05-02T07:35:22.67Z</time></trkpt><trkpt lat="42.3873378" lon="14.129857"><ele>32.5</ele><time>2026-05-02T07:35:23.67Z</time></trkpt><trkpt lat="42.3872216" lon="14.1297499"><ele>32.75</ele><time>2026-05-02T07:35:24.67Z</time></trkpt><trkpt lat="42.3870955" lon="14.1296291"><ele>33.0</ele><time>2026-05-02T07:35:25.671Z</time></trkpt><trkpt lat="42.3869594" lon="14.1294823"><ele>33.0</ele><time>2026-05-02T07:35:26.67Z</time></trkpt><trkpt lat="42.3868301" lon="14.1293159"><ele>33.0</ele><time>2026-05-02T07:35:27.67Z</time></trkpt><trkpt lat="42.3867019" lon="14.1291261"><ele>33.0</ele><time>2026-05-02T07:35:28.67Z</time></trkpt><trkpt lat="42.3865844" lon="14.128928"><ele>33.666666666666664</ele><time>2026-05-02T07:35:29.671Z</time></trkpt><trkpt lat="42.3864759" lon="14.1287452"><ele>34.33333333333333</ele><time>2026-05-02T07:35:30.67Z</time></trkpt><trkpt lat="42.3863682" lon="14.1285795"><ele>35.0</ele><time>2026-05-02T07:35:31.67Z</time></trkpt><trkpt lat="42.3862517" lon="14.1284236"><ele>35.0</ele><time>2026-05-02T07:35:32.67Z</time></trkpt><trkpt lat="42.3861266" lon="14.1282817"><ele>35.0</ele><time>2026-05-02T07:35:33.671Z</time></trkpt><trkpt lat="42.3859951" lon="14.1281521"><ele>35.0</ele><time>2026-05-02T07:35:34.67Z</time></trkpt><trkpt lat="42.3858606" lon="14.1280261"><ele>35.33333333333333</ele><time>2026-05-02T07:35:35.67Z</time></trkpt><trkpt lat="42.3857261" lon="14.127899"><ele>35.666666666666664</ele><time>2026-05-02T07:35:36.67Z</time></trkpt><trkpt lat="42.3855929" lon="14.127765"><ele>36.0</ele><time>2026-05-02T07:35:37.671Z</time></trkpt><trkpt lat="42.385464" lon="14.1276276"><ele>36.0</ele><time>2026-05-02T07:35:38.67Z</time></trkpt><trkpt lat="42.3853464" lon="14.1274983"><ele>36.0</ele><time>2026-05-02T07:35:39.67Z</time></trkpt><trkpt lat="42.3852363" lon="14.1273819"><ele>36.0</ele><time>2026-05-02T07:35:40.671Z</time></trkpt><trkpt lat="42.3851306" lon="14.1272778"><ele>36.0</ele><time>2026-05-02T07:35:41.67Z</time></trkpt><trkpt lat="42.3850056" lon="14.127181"><ele>38.0</ele><time>2026-05-02T07:35:42.67Z</time></trkpt><trkpt lat="42.3848549" lon="14.1270956"><ele>40.0</ele><time>2026-05-02T07:35:43.67Z</time></trkpt><trkpt lat="42.3846864" lon="14.1270244"><ele>42.0</ele><time>2026-05-02T07:35:44.669Z</time></trkpt><trkpt lat="42.3845065" lon="14.1269637"><ele>42.0</ele><time>2026-05-02T07:35:45.67Z</time></trkpt><trkpt lat="42.384325" lon="14.1268949"><ele>42.0</ele><time>2026-05-02T07:35:46.668Z</time></trkpt><trkpt lat="42.3841221" lon="14.1268012"><ele>42.0</ele><time>2026-05-02T07:35:47.669Z</time></trkpt><trkpt lat="42.3839175" lon="14.1266966"><ele>41.666666666666664</ele><time>2026-05-02T07:35:48.67Z</time></trkpt><trkpt lat="42.3837373" lon="14.1265889"><ele>41.33333333333333</ele><time>2026-05-02T07:35:49.671Z</time></trkpt><trkpt lat="42.3835709" lon="14.1264884"><ele>41.0</ele><time>2026-05-02T07:35:50.671Z</time></trkpt><trkpt lat="42.3834335" lon="14.1264303"><ele>44.0</ele><time>2026-05-02T07:35:51.67Z</time></trkpt><trkpt lat="42.3833018" lon="14.1263997"><ele>47.0</ele><time>2026-05-02T07:35:52.671Z</time></trkpt><trkpt lat="42.3831765" lon="14.1263929"><ele>50.0</ele><time>2026-05-02T07:35:53.669Z</time></trkpt><trkpt lat="42.3830489" lon="14.1263937"><ele>53.0</ele><time>2026-05-02T07:35:54.669Z</time></trkpt><trkpt lat="42.3829219" lon="14.1263814"><ele>53.0</ele><time>2026-05-02T07:35:55.67Z</time></trkpt><trkpt lat="42.3827952" lon="14.1263529"><ele>53.0</ele><time>2026-05-02T07:35:56.67Z</time></trkpt><trkpt lat="42.3826698" lon="14.1263085"><ele>53.0</ele><time>2026-05-02T07:35:57.671Z</time></trkpt><trkpt lat="42.38254" lon="14.1262443"><ele>53.0</ele><time>2026-05-02T07:35:58.67Z</time></trkpt><trkpt lat="42.3824051" lon="14.1261568"><ele>53.0</ele><time>2026-05-02T07:35:59.67Z</time></trkpt><trkpt lat="42.3822566" lon="14.1260378"><ele>53.0</ele><time>2026-05-02T07:36:00.67Z</time></trkpt><trkpt lat="42.3820997" lon="14.1258894"><ele>53.0</ele><time>2026-05-02T07:36:01.67Z</time></trkpt><trkpt lat="42.381928" lon="14.1257278"><ele>53.0</ele><time>2026-05-02T07:36:02.67Z</time></trkpt><trkpt lat="42.3817408" lon="14.1255744"><ele>53.0</ele><time>2026-05-02T07:36:03.671Z</time></trkpt><trkpt lat="42.3815467" lon="14.1254326"><ele>53.0</ele><time>2026-05-02T07:36:04.67Z</time></trkpt><trkpt lat="42.3813514" lon="14.1253013"><ele>51.333333333333336</ele><time>2026-05-02T07:36:05.668Z</time></trkpt><trkpt lat="42.3811692" lon="14.1251793"><ele>49.66666666666667</ele><time>2026-05-02T07:36:06.67Z</time></trkpt><trkpt lat="42.3810006" lon="14.1250581"><ele>48.0</ele><time>2026-05-02T07:36:07.67Z</time></trkpt><trkpt lat="42.3808455" lon="14.1249412"><ele>49.33333333333333</ele><time>2026-05-02T07:36:08.671Z</time></trkpt><trkpt lat="42.380699" lon="14.1248251"><ele>50.666666666666664</ele><time>2026-05-02T07:36:09.668Z</time></trkpt><trkpt lat="42.3805496" lon="14.1247142"><ele>52.0</ele><time>2026-05-02T07:36:10.67Z</time></trkpt><trkpt lat="42.3804043" lon="14.1246067"><ele>52.0</ele><time>2026-05-02T07:36:11.67Z</time></trkpt><trkpt lat="42.3802651" lon="14.1245034"><ele>52.0</ele><time>2026-05-02T07:36:12.671Z</time></trkpt><trkpt lat="42.3801351" lon="14.1244054"><ele>52.0</ele><time>2026-05-02T07:36:13.67Z</time></trkpt><trkpt lat="42.3800132" lon="14.1243144"><ele>52.0</ele><time>2026-05-02T07:36:14.67Z</time></trkpt><trkpt lat="42.3799286" lon="14.1242398"><ele>52.0</ele><time>2026-05-02T07:36:15.67Z</time></trkpt><trkpt lat="42.3798746" lon="14.124173"><ele>52.0</ele><time>2026-05-02T07:36:16.671Z</time></trkpt><trkpt lat="42.3798425" lon="14.1240976"><ele>52.0</ele><time>2026-05-02T07:36:17.67Z</time></trkpt><trkpt lat="42.379806" lon="14.1239222"><ele>52.0</ele><time>2026-05-02T07:36:19.67Z</time></trkpt><trkpt lat="42.3797271" lon="14.1237919"><ele>52.0</ele><time>2026-05-02T07:36:21.67Z</time></trkpt><trkpt lat="42.3796655" lon="14.1237608"><ele>53.75</ele><time>2026-05-02T07:36:22.671Z</time></trkpt><trkpt lat="42.3795802" lon="14.1237496"><ele>55.5</ele><time>2026-05-02T07:36:23.67Z</time></trkpt><trkpt lat="42.3794588" lon="14.1237313"><ele>57.25</ele><time>2026-05-02T07:36:24.67Z</time></trkpt><trkpt lat="42.3793063" lon="14.1236918"><ele>59.0</ele><time>2026-05-02T07:36:25.67Z</time></trkpt><trkpt lat="42.3791415" lon="14.1236448"><ele>59.0</ele><time>2026-05-02T07:36:26.67Z</time></trkpt><trkpt lat="42.3789396" lon="14.1236018"><ele>59.0</ele><time>2026-05-02T07:36:27.67Z</time></trkpt><trkpt lat="42.3787368" lon="14.1235678"><ele>59.0</ele><time>2026-05-02T07:36:28.67Z</time></trkpt><trkpt lat="42.3785425" lon="14.123538"><ele>57.66666666666667</ele><time>2026-05-02T07:36:29.67Z</time></trkpt><trkpt lat="42.3783577" lon="14.1235094"><ele>56.33333333333333</ele><time>2026-05-02T07:36:30.67Z</time></trkpt><trkpt lat="42.3781836" lon="14.1234805"><ele>55.0</ele><time>2026-05-02T07:36:31.67Z</time></trkpt><trkpt lat="42.378019" lon="14.1234503"><ele>52.75</ele><time>2026-05-02T07:36:32.67Z</time></trkpt><trkpt lat="42.3778618" lon="14.1234223"><ele>50.5</ele><time>2026-05-02T07:36:33.671Z</time></trkpt><trkpt lat="42.3777118" lon="14.1233989"><ele>48.25</ele><time>2026-05-02T07:36:34.67Z</time></trkpt><trkpt lat="42.3775759" lon="14.1233757"><ele>46.0</ele><time>2026-05-02T07:36:35.671Z</time></trkpt><trkpt lat="42.3774603" lon="14.1233678"><ele>46.0</ele><time>2026-05-02T07:36:36.67Z</time></trkpt><trkpt lat="42.3773531" lon="14.1233894"><ele>46.0</ele><time>2026-05-02T07:36:37.67Z</time></trkpt><trkpt lat="42.3772556" lon="14.1234506"><ele>46.0</ele><time>2026-05-02T07:36:38.67Z</time></trkpt><trkpt lat="42.3771646" lon="14.1235471"><ele>46.0</ele><time>2026-05-02T07:36:39.67Z</time></trkpt><trkpt lat="42.3770824" lon="14.1236745"><ele>45.599999999999994</ele><time>2026-05-02T07:36:40.671Z</time></trkpt><trkpt lat="42.377007" lon="14.1238089"><ele>45.2</ele><time>2026-05-02T07:36:41.67Z</time></trkpt><trkpt lat="42.3769287" lon="14.1239317"><ele>44.8</ele><time>2026-05-02T07:36:42.67Z</time></trkpt><trkpt lat="42.3768438" lon="14.1240411"><ele>44.400000000000006</ele><time>2026-05-02T07:36:43.671Z</time></trkpt><trkpt lat="42.3767744" lon="14.1241085"><ele>44.0</ele><time>2026-05-02T07:36:44.67Z</time></trkpt><trkpt lat="42.3767019" lon="14.1241527"><ele>43.800000000000004</ele><time>2026-05-02T07:36:46.671Z</time></trkpt><trkpt lat="42.3766041" lon="14.1241691"><ele>43.6</ele><time>2026-05-02T07:36:52.67Z</time></trkpt><trkpt lat="42.3764993" lon="14.1241714"><ele>43.4</ele><time>2026-05-02T07:36:53.67Z</time></trkpt><trkpt lat="42.3763814" lon="14.1241619"><ele>43.2</ele><time>2026-05-02T07:36:54.671Z</time></trkpt><trkpt lat="42.3762632" lon="14.1241072"><ele>43.0</ele><time>2026-05-02T07:36:55.671Z</time></trkpt><trkpt lat="42.3761463" lon="14.1240547"><ele>43.0</ele><time>2026-05-02T07:36:56.671Z</time></trkpt><trkpt lat="42.3760088" lon="14.1240186"><ele>43.0</ele><time>2026-05-02T07:36:57.669Z</time></trkpt><trkpt lat="42.3758506" lon="14.1239678"><ele>43.0</ele><time>2026-05-02T07:36:58.668Z</time></trkpt><trkpt lat="42.3756896" lon="14.1238919"><ele>43.0</ele><time>2026-05-02T07:36:59.67Z</time></trkpt><trkpt lat="42.3755275" lon="14.1237918"><ele>43.0</ele><time>2026-05-02T07:37:00.671Z</time></trkpt><trkpt lat="42.3753598" lon="14.1236696"><ele>43.0</ele><time>2026-05-02T07:37:01.671Z</time></trkpt><trkpt lat="42.3751956" lon="14.1235456"><ele>41.66666666666667</ele><time>2026-05-02T07:37:02.67Z</time></trkpt><trkpt lat="42.3750466" lon="14.123426"><ele>40.333333333333336</ele><time>2026-05-02T07:37:03.669Z</time></trkpt><trkpt lat="42.3749079" lon="14.1233053"><ele>39.0</ele><time>2026-05-02T07:37:04.67Z</time></trkpt><trkpt lat="42.374793" lon="14.1231988"><ele>39.333333333333336</ele><time>2026-05-02T07:37:05.671Z</time></trkpt><trkpt lat="42.3746992" lon="14.1231207"><ele>39.666666666666664</ele><time>2026-05-02T07:37:06.669Z</time></trkpt><trkpt lat="42.3746223" lon="14.1230621"><ele>40.0</ele><time>2026-05-02T07:37:07.671Z</time></trkpt><trkpt lat="42.3745668" lon="14.1230191"><ele>40.33333333333333</ele><time>2026-05-02T07:37:08.67Z</time></trkpt><trkpt lat="42.3745083" lon="14.1229733"><ele>40.666666666666664</ele><time>2026-05-02T07:37:10.671Z</time></trkpt><trkpt lat="42.3744309" lon="14.1228983"><ele>41.0</ele><time>2026-05-02T07:37:27.671Z</time></trkpt><trkpt lat="42.3743717" lon="14.1228415"><ele>41.0</ele><time>2026-05-02T07:37:29.671Z</time></trkpt><trkpt lat="42.3742912" lon="14.1227354"><ele>41.0</ele><time>2026-05-02T07:37:31.671Z</time></trkpt><trkpt lat="42.3742409" lon="14.1226541"><ele>41.0</ele><time>2026-05-02T07:37:32.67Z</time></trkpt><trkpt lat="42.3741929" lon="14.1225644"><ele>41.0</ele><time>2026-05-02T07:37:33.668Z</time></trkpt><trkpt lat="42.3741424" lon="14.1224707"><ele>41.0</ele><time>2026-05-02T07:37:34.671Z</time></trkpt><trkpt lat="42.3740895" lon="14.1223719"><ele>41.0</ele><time>2026-05-02T07:37:35.67Z</time></trkpt><trkpt lat="42.374034" lon="14.1222696"><ele>41.0</ele><time>2026-05-02T07:37:36.669Z</time></trkpt><trkpt lat="42.3739763" lon="14.1221657"><ele>41.0</ele><time>2026-05-02T07:37:37.67Z</time></trkpt><trkpt lat="42.3739171" lon="14.122057"><ele>41.0</ele><time>2026-05-02T07:37:38.668Z</time></trkpt><trkpt lat="42.373858" lon="14.1219423"><ele>41.0</ele><time>2026-05-02T07:37:39.67Z</time></trkpt><trkpt lat="42.3737984" lon="14.1218214"><ele>41.0</ele><time>2026-05-02T07:37:40.67Z</time></trkpt><trkpt lat="42.3737368" lon="14.1217004"><ele>41.0</ele><time>2026-05-02T07:37:41.669Z</time></trkpt><trkpt lat="42.3736811" lon="14.1215876"><ele>41.0</ele><time>2026-05-02T07:37:42.669Z</time></trkpt><trkpt lat="42.3736321" lon="14.1214868"><ele>41.0</ele><time>2026-05-02T07:37:43.671Z</time></trkpt><trkpt lat="42.3735941" lon="14.1213871"><ele>41.0</ele><time>2026-05-02T07:37:45.671Z</time></trkpt><trkpt lat="42.3735573" lon="14.1214683"><ele>41.0</ele><time>2026-05-02T07:37:59.67Z</time></trkpt><trkpt lat="42.3736031" lon="14.1215398"><ele>41.0</ele><time>2026-05-02T07:38:00.67Z</time></trkpt><trkpt lat="42.3736543" lon="14.1216353"><ele>41.0</ele><time>2026-05-02T07:38:01.671Z</time></trkpt><trkpt lat="42.3737162" lon="14.1217613"><ele>41.0</ele><time>2026-05-02T07:38:02.671Z</time></trkpt><trkpt lat="42.3737785" lon="14.121891"><ele>41.0</ele><time>2026-05-02T07:38:03.671Z</time></trkpt><trkpt lat="42.3738386" lon="14.1220055"><ele>41.0</ele><time>2026-05-02T07:38:04.671Z</time></trkpt><trkpt lat="42.3738954" lon="14.1221094"><ele>41.0</ele><time>2026-05-02T07:38:05.67Z</time></trkpt><trkpt lat="42.3739423" lon="14.1222091"><ele>41.0</ele><time>2026-05-02T07:38:06.67Z</time></trkpt><trkpt lat="42.3739785" lon="14.1223006"><ele>41.0</ele><time>2026-05-02T07:38:07.671Z</time></trkpt><trkpt lat="42.3740274" lon="14.1223953"><ele>41.0</ele><time>2026-05-02T07:38:09.671Z</time></trkpt><trkpt lat="42.3740654" lon="14.1224861"><ele>41.0</ele><time>2026-05-02T07:38:33.67Z</time></trkpt><trkpt lat="42.3739738" lon="14.122528"><ele>41.0</ele><time>2026-05-02T07:38:36.67Z</time></trkpt><trkpt lat="42.3739038" lon="14.1224916"><ele>41.0</ele><time>2026-05-02T07:38:37.67Z</time></trkpt><trkpt lat="42.3738032" lon="14.1224208"><ele>41.0</ele><time>2026-05-02T07:38:38.67Z</time></trkpt><trkpt lat="42.3736671" lon="14.1223202"><ele>41.0</ele><time>2026-05-02T07:38:39.67Z</time></trkpt><trkpt lat="42.3735011" lon="14.1221929"><ele>41.0</ele><time>2026-05-02T07:38:40.671Z</time></trkpt><trkpt lat="42.3733331" lon="14.1220613"><ele>41.0</ele><time>2026-05-02T07:38:41.67Z</time></trkpt><trkpt lat="42.3731607" lon="14.1219241"><ele>41.0</ele><time>2026-05-02T07:38:42.67Z</time></trkpt><trkpt lat="42.3729873" lon="14.1217863"><ele>41.0</ele><time>2026-05-02T07:38:43.67Z</time></trkpt><trkpt lat="42.3728148" lon="14.1216491"><ele>41.666666666666664</ele><time>2026-05-02T07:38:44.67Z</time></trkpt><trkpt lat="42.3726451" lon="14.1215154"><ele>42.333333333333336</ele><time>2026-05-02T07:38:45.67Z</time></trkpt><trkpt lat="42.3724892" lon="14.1213898"><ele>43.0</ele><time>2026-05-02T07:38:46.671Z</time></trkpt><trkpt lat="42.3723268" lon="14.121262"><ele>39.66666666666667</ele><time>2026-05-02T07:38:47.671Z</time></trkpt><trkpt lat="42.372155" lon="14.1211392"><ele>36.333333333333336</ele><time>2026-05-02T07:38:48.67Z</time></trkpt><trkpt lat="42.3719647" lon="14.1210268"><ele>33.0</ele><time>2026-05-02T07:38:49.67Z</time></trkpt><trkpt lat="42.3717575" lon="14.1209217"><ele>33.0</ele><time>2026-05-02T07:38:50.671Z</time></trkpt><trkpt lat="42.3715387" lon="14.120824"><ele>33.0</ele><time>2026-05-02T07:38:51.671Z</time></trkpt><trkpt lat="42.3713149" lon="14.1207182"><ele>35.5</ele><time>2026-05-02T07:38:52.67Z</time></trkpt><trkpt lat="42.3710819" lon="14.1206211"><ele>38.0</ele><time>2026-05-02T07:38:53.67Z</time></trkpt><trkpt lat="42.3708318" lon="14.1205473"><ele>38.0</ele><time>2026-05-02T07:38:54.671Z</time></trkpt><trkpt lat="42.3705632" lon="14.1204933"><ele>38.0</ele><time>2026-05-02T07:38:55.67Z</time></trkpt><trkpt lat="42.3702872" lon="14.120455"><ele>37.5</ele><time>2026-05-02T07:38:56.671Z</time></trkpt><trkpt lat="42.3700128" lon="14.1204217"><ele>37.0</ele><time>2026-05-02T07:38:57.669Z</time></trkpt><trkpt lat="42.3697413" lon="14.1203897"><ele>37.0</ele><time>2026-05-02T07:38:58.67Z</time></trkpt><trkpt lat="42.3694756" lon="14.1203546"><ele>37.0</ele><time>2026-05-02T07:38:59.669Z</time></trkpt><trkpt lat="42.3692184" lon="14.1203214"><ele>37.0</ele><time>2026-05-02T07:39:00.67Z</time></trkpt><trkpt lat="42.3689763" lon="14.1202933"><ele>37.0</ele><time>2026-05-02T07:39:01.669Z</time></trkpt><trkpt lat="42.3687473" lon="14.1202621"><ele>34.333333333333336</ele><time>2026-05-02T07:39:02.669Z</time></trkpt><trkpt lat="42.3685347" lon="14.1202118"><ele>31.666666666666664</ele><time>2026-05-02T07:39:03.668Z</time></trkpt><trkpt lat="42.3683478" lon="14.1201363"><ele>29.0</ele><time>2026-05-02T07:39:04.67Z</time></trkpt><trkpt lat="42.3681566" lon="14.1200359"><ele>28.666666666666664</ele><time>2026-05-02T07:39:05.67Z</time></trkpt><trkpt lat="42.3679596" lon="14.1199149"><ele>28.333333333333336</ele><time>2026-05-02T07:39:06.668Z</time></trkpt><trkpt lat="42.3677605" lon="14.1197807"><ele>28.0</ele><time>2026-05-02T07:39:07.671Z</time></trkpt><trkpt lat="42.3675559" lon="14.1196396"><ele>28.0</ele><time>2026-05-02T07:39:08.671Z</time></trkpt><trkpt lat="42.3673467" lon="14.1194934"><ele>28.0</ele><time>2026-05-02T07:39:09.67Z</time></trkpt><trkpt lat="42.3671338" lon="14.1193491"><ele>28.0</ele><time>2026-05-02T07:39:10.671Z</time></trkpt><trkpt lat="42.3669207" lon="14.1192038"><ele>28.0</ele><time>2026-05-02T07:39:11.67Z</time></trkpt><trkpt lat="42.3667099" lon="14.1190556"><ele>28.0</ele><time>2026-05-02T07:39:12.67Z</time></trkpt><trkpt lat="42.3665011" lon="14.1189075"><ele>28.0</ele><time>2026-05-02T07:39:13.671Z</time></trkpt><trkpt lat="42.3662929" lon="14.1187634"><ele>28.0</ele><time>2026-05-02T07:39:14.67Z</time></trkpt><trkpt lat="42.3660866" lon="14.1186216"><ele>28.0</ele><time>2026-05-02T07:39:15.671Z</time></trkpt><trkpt lat="42.365877" lon="14.1184824"><ele>28.0</ele><time>2026-05-02T07:39:16.67Z</time></trkpt><trkpt lat="42.3656693" lon="14.1183377"><ele>28.0</ele><time>2026-05-02T07:39:17.67Z</time></trkpt><trkpt lat="42.3654624" lon="14.1181913"><ele>30.0</ele><time>2026-05-02T07:39:18.67Z</time></trkpt><trkpt lat="42.3652569" lon="14.1180488"><ele>32.0</ele><time>2026-05-02T07:39:19.671Z</time></trkpt><trkpt lat="42.3650595" lon="14.1179161"><ele>32.0</ele><time>2026-05-02T07:39:20.67Z</time></trkpt><trkpt lat="42.3648738" lon="14.1177891"><ele>32.0</ele><time>2026-05-02T07:39:21.669Z</time></trkpt><trkpt lat="42.3646955" lon="14.1176729"><ele>32.0</ele><time>2026-05-02T07:39:22.67Z</time></trkpt><trkpt lat="42.3645208" lon="14.1175753"><ele>32.33333333333333</ele><time>2026-05-02T07:39:23.67Z</time></trkpt><trkpt lat="42.3643369" lon="14.1175012"><ele>32.666666666666664</ele><time>2026-05-02T07:39:24.671Z</time></trkpt><trkpt lat="42.3641453" lon="14.1174583"><ele>33.0</ele><time>2026-05-02T07:39:25.67Z</time></trkpt><trkpt lat="42.363948" lon="14.117439"><ele>32.333333333333336</ele><time>2026-05-02T07:39:26.671Z</time></trkpt><trkpt lat="42.3637449" lon="14.1174376"><ele>31.666666666666668</ele><time>2026-05-02T07:39:27.67Z</time></trkpt><trkpt lat="42.3635375" lon="14.117441"><ele>31.0</ele><time>2026-05-02T07:39:28.67Z</time></trkpt><trkpt lat="42.3633278" lon="14.1174366"><ele>31.0</ele><time>2026-05-02T07:39:29.67Z</time></trkpt><trkpt lat="42.3631201" lon="14.1174264"><ele>31.0</ele><time>2026-05-02T07:39:30.671Z</time></trkpt><trkpt lat="42.3629245" lon="14.1174042"><ele>31.0</ele><time>2026-05-02T07:39:31.67Z</time></trkpt><trkpt lat="42.3627289" lon="14.1173635"><ele>32.66666666666667</ele><time>2026-05-02T07:39:32.671Z</time></trkpt><trkpt lat="42.3625313" lon="14.1172972"><ele>34.333333333333336</ele><time>2026-05-02T07:39:33.669Z</time></trkpt><trkpt lat="42.3623258" lon="14.1172072"><ele>36.0</ele><time>2026-05-02T07:39:34.671Z</time></trkpt><trkpt lat="42.3621051" lon="14.1171065"><ele>36.0</ele><time>2026-05-02T07:39:35.671Z</time></trkpt><trkpt lat="42.3618762" lon="14.1170021"><ele>36.0</ele><time>2026-05-02T07:39:36.67Z</time></trkpt><trkpt lat="42.3616394" lon="14.1168985"><ele>36.0</ele><time>2026-05-02T07:39:37.67Z</time></trkpt><trkpt lat="42.3613959" lon="14.1167914"><ele>36.0</ele><time>2026-05-02T07:39:38.67Z</time></trkpt><trkpt lat="42.3611514" lon="14.1166829"><ele>33.0</ele><time>2026-05-02T07:39:39.671Z</time></trkpt><trkpt lat="42.3609068" lon="14.1165747"><ele>30.0</ele><time>2026-05-02T07:39:40.671Z</time></trkpt><trkpt lat="42.3606633" lon="14.1164649"><ele>33.5</ele><time>2026-05-02T07:39:41.67Z</time></trkpt><trkpt lat="42.3604177" lon="14.1163552"><ele>37.0</ele><time>2026-05-02T07:39:42.67Z</time></trkpt><trkpt lat="42.3601691" lon="14.1162445"><ele>37.0</ele><time>2026-05-02T07:39:43.67Z</time></trkpt><trkpt lat="42.3599197" lon="14.1161319"><ele>37.0</ele><time>2026-05-02T07:39:44.67Z</time></trkpt><trkpt lat="42.3596687" lon="14.1160176"><ele>36.5</ele><time>2026-05-02T07:39:45.671Z</time></trkpt><trkpt lat="42.3594169" lon="14.1159074"><ele>36.0</ele><time>2026-05-02T07:39:46.67Z</time></trkpt><trkpt lat="42.3591662" lon="14.1158012"><ele>38.5</ele><time>2026-05-02T07:39:47.669Z</time></trkpt><trkpt lat="42.3589158" lon="14.1156977"><ele>41.0</ele><time>2026-05-02T07:39:48.669Z</time></trkpt><trkpt lat="42.3586684" lon="14.1155998"><ele>41.0</ele><time>2026-05-02T07:39:49.67Z</time></trkpt><trkpt lat="42.3584218" lon="14.115507"><ele>41.0</ele><time>2026-05-02T07:39:50.67Z</time></trkpt><trkpt lat="42.3581759" lon="14.1154182"><ele>41.0</ele><time>2026-05-02T07:39:51.669Z</time></trkpt><trkpt lat="42.3579327" lon="14.1153291"><ele>41.0</ele><time>2026-05-02T07:39:52.67Z</time></trkpt><trkpt lat="42.3576871" lon="14.1152319"><ele>41.0</ele><time>2026-05-02T07:39:53.669Z</time></trkpt><trkpt lat="42.3574392" lon="14.1151195"><ele>41.0</ele><time>2026-05-02T07:39:54.669Z</time></trkpt><trkpt lat="42.3571859" lon="14.1150087"><ele>45.0</ele><time>2026-05-02T07:39:55.67Z</time></trkpt><trkpt lat="42.3569277" lon="14.1149029"><ele>49.0</ele><time>2026-05-02T07:39:56.67Z</time></trkpt><trkpt lat="42.3566674" lon="14.1148005"><ele>49.0</ele><time>2026-05-02T07:39:57.671Z</time></trkpt><trkpt lat="42.3564047" lon="14.1146987"><ele>49.0</ele><time>2026-05-02T07:39:58.67Z</time></trkpt><trkpt lat="42.3561436" lon="14.114595"><ele>48.0</ele><time>2026-05-02T07:39:59.671Z</time></trkpt><trkpt lat="42.355883" lon="14.1144908"><ele>47.0</ele><time>2026-05-02T07:40:00.671Z</time></trkpt><trkpt lat="42.3556239" lon="14.1143867"><ele>42.0</ele><time>2026-05-02T07:40:01.671Z</time></trkpt><trkpt lat="42.3553637" lon="14.1142826"><ele>37.0</ele><time>2026-05-02T07:40:02.668Z</time></trkpt><trkpt lat="42.3551041" lon="14.1141776"><ele>37.0</ele><time>2026-05-02T07:40:03.67Z</time></trkpt><trkpt lat="42.3548444" lon="14.1140717"><ele>37.0</ele><time>2026-05-02T07:40:04.671Z</time></trkpt><trkpt lat="42.3545843" lon="14.1139679"><ele>36.5</ele><time>2026-05-02T07:40:05.668Z</time></trkpt><trkpt lat="42.3543252" lon="14.1138688"><ele>36.0</ele><time>2026-05-02T07:40:06.67Z</time></trkpt><trkpt lat="42.3540686" lon="14.1137755"><ele>35.5</ele><time>2026-05-02T07:40:07.67Z</time></trkpt><trkpt lat="42.3538155" lon="14.1136812"><ele>35.0</ele><time>2026-05-02T07:40:08.671Z</time></trkpt><trkpt lat="42.3535652" lon="14.1135787"><ele>35.0</ele><time>2026-05-02T07:40:09.67Z</time></trkpt><trkpt lat="42.3533148" lon="14.1134688"><ele>35.0</ele><time>2026-05-02T07:40:10.67Z</time></trkpt><trkpt lat="42.3530656" lon="14.1133625"><ele>35.0</ele><time>2026-05-02T07:40:11.671Z</time></trkpt><trkpt lat="42.3528189" lon="14.1132591"><ele>35.0</ele><time>2026-05-02T07:40:12.671Z</time></trkpt><trkpt lat="42.3525728" lon="14.113162"><ele>35.0</ele><time>2026-05-02T07:40:13.67Z</time></trkpt><trkpt lat="42.352337" lon="14.1130696"><ele>35.0</ele><time>2026-05-02T07:40:14.67Z</time></trkpt><trkpt lat="42.3521145" lon="14.1129806"><ele>36.666666666666664</ele><time>2026-05-02T07:40:15.669Z</time></trkpt><trkpt lat="42.351904" lon="14.1128881"><ele>38.333333333333336</ele><time>2026-05-02T07:40:16.67Z</time></trkpt><trkpt lat="42.3517008" lon="14.1128007"><ele>40.0</ele><time>2026-05-02T07:40:17.67Z</time></trkpt><trkpt lat="42.351496" lon="14.1127129"><ele>41.333333333333336</ele><time>2026-05-02T07:40:18.671Z</time></trkpt><trkpt lat="42.351294" lon="14.1126315"><ele>42.666666666666664</ele><time>2026-05-02T07:40:19.669Z</time></trkpt><trkpt lat="42.3510992" lon="14.1125661"><ele>44.0</ele><time>2026-05-02T07:40:20.669Z</time></trkpt><trkpt lat="42.3509141" lon="14.1125203"><ele>44.0</ele><time>2026-05-02T07:40:21.671Z</time></trkpt><trkpt lat="42.3507398" lon="14.1124817"><ele>44.0</ele><time>2026-05-02T07:40:22.671Z</time></trkpt><trkpt lat="42.3505811" lon="14.1124501"><ele>44.0</ele><time>2026-05-02T07:40:23.671Z</time></trkpt><trkpt lat="42.3504371" lon="14.1124247"><ele>45.0</ele><time>2026-05-02T07:40:24.671Z</time></trkpt><trkpt lat="42.3503167" lon="14.1124059"><ele>46.0</ele><time>2026-05-02T07:40:25.67Z</time></trkpt><trkpt lat="42.3502112" lon="14.1123829"><ele>47.0</ele><time>2026-05-02T07:40:26.67Z</time></trkpt><trkpt lat="42.3501179" lon="14.1123575"><ele>48.0</ele><time>2026-05-02T07:40:27.671Z</time></trkpt><trkpt lat="42.3500314" lon="14.1123476"><ele>49.0</ele><time>2026-05-02T07:40:28.67Z</time></trkpt><trkpt lat="42.3499549" lon="14.1123781"><ele>48.0</ele><time>2026-05-02T07:40:29.671Z</time></trkpt><trkpt lat="42.3498878" lon="14.1124438"><ele>47.0</ele><time>2026-05-02T07:40:30.668Z</time></trkpt><trkpt lat="42.3498316" lon="14.1125438"><ele>46.0</ele><time>2026-05-02T07:40:31.67Z</time></trkpt><trkpt lat="42.349768" lon="14.1126602"><ele>45.0</ele><time>2026-05-02T07:40:32.67Z</time></trkpt><trkpt lat="42.3496846" lon="14.1127744"><ele>44.0</ele><time>2026-05-02T07:40:33.67Z</time></trkpt><trkpt lat="42.3495792" lon="14.1128826"><ele>43.25</ele><time>2026-05-02T07:40:34.67Z</time></trkpt><trkpt lat="42.3494566" lon="14.1129795"><ele>42.5</ele><time>2026-05-02T07:40:35.671Z</time></trkpt><trkpt lat="42.3493208" lon="14.1130654"><ele>41.75</ele><time>2026-05-02T07:40:36.67Z</time></trkpt><trkpt lat="42.3491855" lon="14.1131522"><ele>41.0</ele><time>2026-05-02T07:40:37.67Z</time></trkpt><trkpt lat="42.349059" lon="14.1132354"><ele>41.25</ele><time>2026-05-02T07:40:38.67Z</time></trkpt><trkpt lat="42.3489375" lon="14.1133151"><ele>41.5</ele><time>2026-05-02T07:40:39.67Z</time></trkpt><trkpt lat="42.3488217" lon="14.1133908"><ele>41.75</ele><time>2026-05-02T07:40:40.67Z</time></trkpt><trkpt lat="42.3487138" lon="14.1134591"><ele>42.0</ele><time>2026-05-02T07:40:41.67Z</time></trkpt><trkpt lat="42.3486243" lon="14.1135092"><ele>42.5</ele><time>2026-05-02T07:40:42.669Z</time></trkpt><trkpt lat="42.3485362" lon="14.1135569"><ele>43.0</ele><time>2026-05-02T07:40:43.67Z</time></trkpt><trkpt lat="42.3484585" lon="14.113594"><ele>43.5</ele><time>2026-05-02T07:40:44.67Z</time></trkpt><trkpt lat="42.3483909" lon="14.1136187"><ele>44.0</ele><time>2026-05-02T07:40:45.668Z</time></trkpt><trkpt lat="42.3483511" lon="14.1136891"><ele>44.5</ele><time>2026-05-02T07:40:47.671Z</time></trkpt><trkpt lat="42.3484209" lon="14.1136984"><ele>45.0</ele><time>2026-05-02T07:40:50.671Z</time></trkpt><trkpt lat="42.3485638" lon="14.1136068"><ele>45.0</ele><time>2026-05-02T07:40:52.668Z</time></trkpt><trkpt lat="42.3486722" lon="14.1135428"><ele>45.0</ele><time>2026-05-02T07:40:53.668Z</time></trkpt><trkpt lat="42.3488176" lon="14.1134507"><ele>45.0</ele><time>2026-05-02T07:40:54.671Z</time></trkpt><trkpt lat="42.348967" lon="14.113357"><ele>45.0</ele><time>2026-05-02T07:40:55.67Z</time></trkpt><trkpt lat="42.3491283" lon="14.1132533"><ele>43.666666666666664</ele><time>2026-05-02T07:40:56.67Z</time></trkpt><trkpt lat="42.3492837" lon="14.1131478"><ele>42.33333333333333</ele><time>2026-05-02T07:40:57.67Z</time></trkpt><trkpt lat="42.349426" lon="14.1130467"><ele>41.0</ele><time>2026-05-02T07:40:58.67Z</time></trkpt><trkpt lat="42.3495583" lon="14.1129495"><ele>41.0</ele><time>2026-05-02T07:40:59.671Z</time></trkpt><trkpt lat="42.349682" lon="14.1128602"><ele>41.0</ele><time>2026-05-02T07:41:00.67Z</time></trkpt><trkpt lat="42.3497962" lon="14.1127786"><ele>41.0</ele><time>2026-05-02T07:41:01.67Z</time></trkpt><trkpt lat="42.3499025" lon="14.1127054"><ele>41.0</ele><time>2026-05-02T07:41:02.67Z</time></trkpt><trkpt lat="42.349987" lon="14.1126358"><ele>41.5</ele><time>2026-05-02T07:41:03.67Z</time></trkpt><trkpt lat="42.3500399" lon="14.11256"><ele>42.0</ele><time>2026-05-02T07:41:04.67Z</time></trkpt><trkpt lat="42.3500645" lon="14.1124284"><ele>42.5</ele><time>2026-05-02T07:41:06.67Z</time></trkpt><trkpt lat="42.3500553" lon="14.1123131"><ele>43.0</ele><time>2026-05-02T07:41:08.67Z</time></trkpt><trkpt lat="42.3500467" lon="14.1122058"><ele>43.5</ele><time>2026-05-02T07:41:10.671Z</time></trkpt><trkpt lat="42.3500184" lon="14.1121067"><ele>44.0</ele><time>2026-05-02T07:41:13.67Z</time></trkpt><trkpt lat="42.3499512" lon="14.11217"><ele>44.0</ele><time>2026-05-02T07:41:16.67Z</time></trkpt><trkpt lat="42.3498915" lon="14.1123353"><ele>44.0</ele><time>2026-05-02T07:41:18.671Z</time></trkpt><trkpt lat="42.3498539" lon="14.1124357"><ele>44.0</ele><time>2026-05-02T07:41:19.671Z</time></trkpt><trkpt lat="42.3498131" lon="14.1125232"><ele>44.0</ele><time>2026-05-02T07:41:20.669Z</time></trkpt><trkpt lat="42.3497732" lon="14.1125913"><ele>44.0</ele><time>2026-05-02T07:41:21.67Z</time></trkpt><trkpt lat="42.3497053" lon="14.1126282"><ele>44.0</ele><time>2026-05-02T07:41:23.67Z</time></trkpt><trkpt lat="42.3496276" lon="14.1127071"><ele>43.83333333333333</ele><time>2026-05-02T07:41:25.67Z</time></trkpt><trkpt lat="42.3495451" lon="14.1127347"><ele>43.666666666666664</ele><time>2026-05-02T07:41:27.669Z</time></trkpt><trkpt lat="42.3494792" lon="14.1126723"><ele>43.5</ele><time>2026-05-02T07:41:29.67Z</time></trkpt><trkpt lat="42.3494389" lon="14.1125388"><ele>43.333333333333336</ele><time>2026-05-02T07:41:31.67Z</time></trkpt><trkpt lat="42.349398" lon="14.1124703"><ele>43.16666666666667</ele><time>2026-05-02T07:41:32.671Z</time></trkpt><trkpt lat="42.3493458" lon="14.1124103"><ele>43.0</ele><time>2026-05-02T07:41:33.67Z</time></trkpt><trkpt lat="42.3492909" lon="14.1123609"><ele>43.0</ele><time>2026-05-02T07:41:34.67Z</time></trkpt><trkpt lat="42.3492256" lon="14.112314"><ele>43.0</ele><time>2026-05-02T07:41:35.669Z</time></trkpt><trkpt lat="42.3491684" lon="14.1122763"><ele>43.0</ele><time>2026-05-02T07:41:36.671Z</time></trkpt><trkpt lat="42.3490711" lon="14.1121953"><ele>43.0</ele><time>2026-05-02T07:41:38.67Z</time></trkpt><trkpt lat="42.3490152" lon="14.1120961"><ele>43.0</ele><time>2026-05-02T07:41:40.67Z</time></trkpt><trkpt lat="42.3489962" lon="14.1119621"><ele>43.0</ele><time>2026-05-02T07:41:42.668Z</time></trkpt><trkpt lat="42.3489882" lon="14.1118369"><ele>43.0</ele><time>2026-05-02T07:41:44.67Z</time></trkpt><trkpt lat="42.3489782" lon="14.1117218"><ele>43.0</ele><time>2026-05-02T07:41:46.666Z</time></trkpt><trkpt lat="42.348966" lon="14.1116091"><ele>43.0</ele><time>2026-05-02T07:41:48.668Z</time></trkpt><trkpt lat="42.3489569" lon="14.1114891"><ele>43.0</ele><time>2026-05-02T07:41:50.67Z</time></trkpt><trkpt lat="42.3489396" lon="14.1113605"><ele>43.0</ele><time>2026-05-02T07:41:52.671Z</time></trkpt><trkpt lat="42.3489183" lon="14.1112005"><ele>43.0</ele><time>2026-05-02T07:41:54.67Z</time></trkpt><trkpt lat="42.3489017" lon="14.111047"><ele>43.0</ele><time>2026-05-02T07:41:56.67Z</time></trkpt><trkpt lat="42.3488895" lon="14.110918"><ele>43.0</ele><time>2026-05-02T07:41:58.669Z</time></trkpt><trkpt lat="42.348901" lon="14.110792"><ele>43.0</ele><time>2026-05-02T07:42:00.67Z</time></trkpt><trkpt lat="42.3489128" lon="14.1106577"><ele>43.0</ele><time>2026-05-02T07:42:02.67Z</time></trkpt><trkpt lat="42.3489045" lon="14.1105576"><ele>43.4</ele><time>2026-05-02T07:42:05.67Z</time></trkpt><trkpt lat="42.3488825" lon="14.1104199"><ele>43.8</ele><time>2026-05-02T07:42:08.67Z</time></trkpt><trkpt lat="42.3488595" lon="14.1102674"><ele>44.2</ele><time>2026-05-02T07:42:10.67Z</time></trkpt><trkpt lat="42.3488439" lon="14.1101409"><ele>44.6</ele><time>2026-05-02T07:42:12.67Z</time></trkpt><trkpt lat="42.3487997" lon="14.110033"><ele>45.0</ele><time>2026-05-02T07:42:14.67Z</time></trkpt><trkpt lat="42.3487161" lon="14.1099553"><ele>45.333333333333336</ele><time>2026-05-02T07:42:16.669Z</time></trkpt><trkpt lat="42.3486345" lon="14.1098793"><ele>45.666666666666664</ele><time>2026-05-02T07:42:18.67Z</time></trkpt><trkpt lat="42.3485664" lon="14.1098288"><ele>46.0</ele><time>2026-05-02T07:42:20.667Z</time></trkpt><trkpt lat="42.3485113" lon="14.1097766"><ele>46.33333333333333</ele><time>2026-05-02T07:42:23.668Z</time></trkpt><trkpt lat="42.3484426" lon="14.1097167"><ele>46.666666666666664</ele><time>2026-05-02T07:42:35.671Z</time></trkpt><trkpt lat="42.3483701" lon="14.1096604"><ele>47.0</ele><time>2026-05-02T07:42:38.67Z</time></trkpt><trkpt lat="42.3483143" lon="14.1096093"><ele>47.0</ele><time>2026-05-02T07:42:40.67Z</time></trkpt><trkpt lat="42.3482529" lon="14.109526"><ele>47.0</ele><time>2026-05-02T07:42:43.669Z</time></trkpt><trkpt lat="42.3482094" lon="14.1094531"><ele>47.0</ele><time>2026-05-02T07:42:46.671Z</time></trkpt><trkpt lat="42.3481475" lon="14.109337"><ele>47.0</ele><time>2026-05-02T07:42:49.67Z</time></trkpt><trkpt lat="42.3481047" lon="14.1092492"><ele>47.0</ele><time>2026-05-02T07:42:50.67Z</time></trkpt><trkpt lat="42.3480121" lon="14.1091299"><ele>46.400000000000006</ele><time>2026-05-02T07:42:52.67Z</time></trkpt><trkpt lat="42.3479486" lon="14.1090216"><ele>45.800000000000004</ele><time>2026-05-02T07:42:54.67Z</time></trkpt><trkpt lat="42.3478967" lon="14.1088817"><ele>45.2</ele><time>2026-05-02T07:42:56.67Z</time></trkpt><trkpt lat="42.3478614" lon="14.108783"><ele>44.6</ele><time>2026-05-02T07:42:57.67Z</time></trkpt><trkpt lat="42.3478214" lon="14.1086831"><ele>44.0</ele><time>2026-05-02T07:42:58.67Z</time></trkpt><trkpt lat="42.3477757" lon="14.1085848"><ele>44.0</ele><time>2026-05-02T07:42:59.669Z</time></trkpt><trkpt lat="42.3477217" lon="14.1084826"><ele>44.0</ele><time>2026-05-02T07:43:00.671Z</time></trkpt><trkpt lat="42.3476643" lon="14.1083732"><ele>44.0</ele><time>2026-05-02T07:43:01.669Z</time></trkpt><trkpt lat="42.347611" lon="14.1082677"><ele>44.0</ele><time>2026-05-02T07:43:02.67Z</time></trkpt><trkpt lat="42.3475635" lon="14.1081766"><ele>44.0</ele><time>2026-05-02T07:43:03.67Z</time></trkpt><trkpt lat="42.3475206" lon="14.1080895"><ele>44.0</ele><time>2026-05-02T07:43:04.669Z</time></trkpt><trkpt lat="42.3474814" lon="14.1080124"><ele>44.33333333333333</ele><time>2026-05-02T07:43:05.67Z</time></trkpt><trkpt lat="42.3474528" lon="14.1079341"><ele>44.666666666666664</ele><time>2026-05-02T07:43:06.67Z</time></trkpt><trkpt lat="42.3474333" lon="14.1078259"><ele>45.0</ele><time>2026-05-02T07:43:07.67Z</time></trkpt><trkpt lat="42.3474121" lon="14.1076894"><ele>45.333333333333336</ele><time>2026-05-02T07:43:08.671Z</time></trkpt><trkpt lat="42.3473826" lon="14.1075702"><ele>45.66666666666667</ele><time>2026-05-02T07:43:09.669Z</time></trkpt><trkpt lat="42.3473505" lon="14.1074669"><ele>46.0</ele><time>2026-05-02T07:43:10.671Z</time></trkpt><trkpt lat="42.3473104" lon="14.1073628"><ele>46.0</ele><time>2026-05-02T07:43:11.67Z</time></trkpt><trkpt lat="42.347268" lon="14.1072527"><ele>46.0</ele><time>2026-05-02T07:43:12.67Z</time></trkpt><trkpt lat="42.3472312" lon="14.1071482"><ele>46.0</ele><time>2026-05-02T07:43:13.67Z</time></trkpt><trkpt lat="42.347202" lon="14.1070662"><ele>46.0</ele><time>2026-05-02T07:43:14.67Z</time></trkpt><trkpt lat="42.3471809" lon="14.1069335"><ele>46.0</ele><time>2026-05-02T07:43:16.67Z</time></trkpt><trkpt lat="42.3471923" lon="14.1068478"><ele>46.0</ele><time>2026-05-02T07:43:17.67Z</time></trkpt><trkpt lat="42.3472182" lon="14.106744"><ele>46.0</ele><time>2026-05-02T07:43:18.67Z</time></trkpt><trkpt lat="42.3472545" lon="14.1066339"><ele>46.0</ele><time>2026-05-02T07:43:19.671Z</time></trkpt><trkpt lat="42.3472954" lon="14.1065341"><ele>46.0</ele><time>2026-05-02T07:43:20.668Z</time></trkpt><trkpt lat="42.347325" lon="14.1064278"><ele>46.0</ele><time>2026-05-02T07:43:21.669Z</time></trkpt><trkpt lat="42.3473475" lon="14.1063207"><ele>46.0</ele><time>2026-05-02T07:43:22.67Z</time></trkpt><trkpt lat="42.3473793" lon="14.1062249"><ele>46.0</ele><time>2026-05-02T07:43:23.67Z</time></trkpt><trkpt lat="42.3474154" lon="14.1061276"><ele>46.0</ele><time>2026-05-02T07:43:24.671Z</time></trkpt><trkpt lat="42.3474407" lon="14.1060181"><ele>46.0</ele><time>2026-05-02T07:43:25.67Z</time></trkpt><trkpt lat="42.3474549" lon="14.1059153"><ele>46.0</ele><time>2026-05-02T07:43:26.671Z</time></trkpt><trkpt lat="42.3474839" lon="14.1058359"><ele>46.0</ele><time>2026-05-02T07:43:27.668Z</time></trkpt><trkpt lat="42.347535" lon="14.1057638"><ele>46.0</ele><time>2026-05-02T07:43:28.669Z</time></trkpt><trkpt lat="42.3476027" lon="14.1056765"><ele>46.0</ele><time>2026-05-02T07:43:29.67Z</time></trkpt><trkpt lat="42.3476663" lon="14.1055587"><ele>45.833333333333336</ele><time>2026-05-02T07:43:30.67Z</time></trkpt><trkpt lat="42.3477246" lon="14.1054316"><ele>45.66666666666667</ele><time>2026-05-02T07:43:31.671Z</time></trkpt><trkpt lat="42.3477756" lon="14.1053356"><ele>45.5</ele><time>2026-05-02T07:43:32.67Z</time></trkpt><trkpt lat="42.3478219" lon="14.1052555"><ele>45.333333333333336</ele><time>2026-05-02T07:43:33.67Z</time></trkpt><trkpt lat="42.3478711" lon="14.1051731"><ele>45.166666666666664</ele><time>2026-05-02T07:43:34.669Z</time></trkpt><trkpt lat="42.3479257" lon="14.1050844"><ele>45.0</ele><time>2026-05-02T07:43:35.671Z</time></trkpt><trkpt lat="42.3479774" lon="14.1049902"><ele>45.5</ele><time>2026-05-02T07:43:36.67Z</time></trkpt><trkpt lat="42.3480286" lon="14.1048954"><ele>46.0</ele><time>2026-05-02T07:43:37.67Z</time></trkpt><trkpt lat="42.3480877" lon="14.1048122"><ele>46.5</ele><time>2026-05-02T07:43:38.67Z</time></trkpt><trkpt lat="42.3481515" lon="14.1047322"><ele>47.0</ele><time>2026-05-02T07:43:39.67Z</time></trkpt><trkpt lat="42.3482059" lon="14.1046328"><ele>47.5</ele><time>2026-05-02T07:43:40.67Z</time></trkpt><trkpt lat="42.3482519" lon="14.1045159"><ele>48.0</ele><time>2026-05-02T07:43:41.671Z</time></trkpt><trkpt lat="42.3482907" lon="14.1043986"><ele>47.833333333333336</ele><time>2026-05-02T07:43:42.671Z</time></trkpt><trkpt lat="42.3483176" lon="14.1042787"><ele>47.666666666666664</ele><time>2026-05-02T07:43:43.67Z</time></trkpt><trkpt lat="42.3483449" lon="14.1041581"><ele>47.5</ele><time>2026-05-02T07:43:44.67Z</time></trkpt><trkpt lat="42.3483796" lon="14.1040497"><ele>47.33333333333333</ele><time>2026-05-02T07:43:45.67Z</time></trkpt><trkpt lat="42.3484122" lon="14.1039449"><ele>47.166666666666664</ele><time>2026-05-02T07:43:46.67Z</time></trkpt><trkpt lat="42.34844" lon="14.1038313"><ele>47.0</ele><time>2026-05-02T07:43:47.67Z</time></trkpt><trkpt lat="42.3484623" lon="14.1036995"><ele>47.0</ele><time>2026-05-02T07:43:48.671Z</time></trkpt><trkpt lat="42.3484803" lon="14.1035521"><ele>47.0</ele><time>2026-05-02T07:43:49.67Z</time></trkpt><trkpt lat="42.3484954" lon="14.1034046"><ele>47.0</ele><time>2026-05-02T07:43:50.671Z</time></trkpt><trkpt lat="42.348506" lon="14.1032761"><ele>47.0</ele><time>2026-05-02T07:43:51.671Z</time></trkpt><trkpt lat="42.3485129" lon="14.1031656"><ele>47.0</ele><time>2026-05-02T07:43:52.67Z</time></trkpt><trkpt lat="42.348518" lon="14.103062"><ele>47.2</ele><time>2026-05-02T07:43:53.669Z</time></trkpt><trkpt lat="42.348526" lon="14.1029615"><ele>47.400000000000006</ele><time>2026-05-02T07:43:54.671Z</time></trkpt><trkpt lat="42.3485384" lon="14.1028348"><ele>47.599999999999994</ele><time>2026-05-02T07:43:55.67Z</time></trkpt><trkpt lat="42.3485535" lon="14.1026809"><ele>47.8</ele><time>2026-05-02T07:43:56.67Z</time></trkpt><trkpt lat="42.3485751" lon="14.1025161"><ele>48.0</ele><time>2026-05-02T07:43:57.67Z</time></trkpt><trkpt lat="42.3486041" lon="14.1023393"><ele>48.0</ele><time>2026-05-02T07:43:58.669Z</time></trkpt><trkpt lat="42.3486353" lon="14.1021637"><ele>48.0</ele><time>2026-05-02T07:43:59.67Z</time></trkpt><trkpt lat="42.3486657" lon="14.1019949"><ele>48.0</ele><time>2026-05-02T07:44:00.669Z</time></trkpt><trkpt lat="42.3486975" lon="14.1018312"><ele>48.0</ele><time>2026-05-02T07:44:01.67Z</time></trkpt><trkpt lat="42.3487365" lon="14.1016617"><ele>48.4</ele><time>2026-05-02T07:44:02.67Z</time></trkpt><trkpt lat="42.348781" lon="14.1014895"><ele>48.8</ele><time>2026-05-02T07:44:03.666Z</time></trkpt><trkpt lat="42.3488155" lon="14.1013649"><ele>49.2</ele><time>2026-05-02T07:44:04.669Z</time></trkpt><trkpt lat="42.3488435" lon="14.1012743"><ele>49.6</ele><time>2026-05-02T07:44:05.668Z</time></trkpt><trkpt lat="42.3488876" lon="14.1011444"><ele>50.0</ele><time>2026-05-02T07:44:07.67Z</time></trkpt><trkpt lat="42.3489748" lon="14.1010632"><ele>50.333333333333336</ele><time>2026-05-02T07:44:09.67Z</time></trkpt><trkpt lat="42.3490428" lon="14.1010115"><ele>50.66666666666667</ele><time>2026-05-02T07:44:10.671Z</time></trkpt><trkpt lat="42.34909" lon="14.1009392"><ele>51.0</ele><time>2026-05-02T07:44:11.669Z</time></trkpt><trkpt lat="42.3491224" lon="14.1008534"><ele>51.33333333333333</ele><time>2026-05-02T07:44:12.671Z</time></trkpt><trkpt lat="42.3491867" lon="14.1007078"><ele>51.666666666666664</ele><time>2026-05-02T07:44:14.67Z</time></trkpt><trkpt lat="42.3492599" lon="14.1006115"><ele>52.0</ele><time>2026-05-02T07:44:16.671Z</time></trkpt><trkpt lat="42.3493232" lon="14.1004968"><ele>51.99999999999999</ele><time>2026-05-02T07:44:18.671Z</time></trkpt><trkpt lat="42.3493667" lon="14.1003938"><ele>52.0</ele><time>2026-05-02T07:44:19.67Z</time></trkpt><trkpt lat="42.3494163" lon="14.10027"><ele>52.0</ele><time>2026-05-02T07:44:20.67Z</time></trkpt><trkpt lat="42.3494467" lon="14.1001799"><ele>52.0</ele><time>2026-05-02T07:44:21.67Z</time></trkpt><trkpt lat="42.349479" lon="14.1000981"><ele>51.99999999999999</ele><time>2026-05-02T07:44:22.669Z</time></trkpt><trkpt lat="42.3495236" lon="14.0999597"><ele>52.0</ele><time>2026-05-02T07:44:24.67Z</time></trkpt><trkpt lat="42.3495442" lon="14.0998413"><ele>51.2</ele><time>2026-05-02T07:44:26.671Z</time></trkpt><trkpt lat="42.3495418" lon="14.0997403"><ele>50.400000000000006</ele><time>2026-05-02T07:44:28.67Z</time></trkpt><trkpt lat="42.3495391" lon="14.0996046"><ele>49.599999999999994</ele><time>2026-05-02T07:44:30.67Z</time></trkpt><trkpt lat="42.3494995" lon="14.0994767"><ele>48.8</ele><time>2026-05-02T07:44:32.669Z</time></trkpt><trkpt lat="42.3494512" lon="14.0993391"><ele>48.0</ele><time>2026-05-02T07:44:34.67Z</time></trkpt><trkpt lat="42.3494272" lon="14.0991963"><ele>48.4</ele><time>2026-05-02T07:44:36.67Z</time></trkpt><trkpt lat="42.3494202" lon="14.0990811"><ele>48.8</ele><time>2026-05-02T07:44:38.67Z</time></trkpt><trkpt lat="42.3494361" lon="14.0989565"><ele>49.2</ele><time>2026-05-02T07:44:40.67Z</time></trkpt><trkpt lat="42.349486" lon="14.0987988"><ele>49.6</ele><time>2026-05-02T07:44:42.67Z</time></trkpt><trkpt lat="42.3495105" lon="14.0987078"><ele>50.0</ele><time>2026-05-02T07:44:43.67Z</time></trkpt><trkpt lat="42.3495352" lon="14.0986122"><ele>50.00000000000001</ele><time>2026-05-02T07:44:44.67Z</time></trkpt><trkpt lat="42.3495608" lon="14.0985062"><ele>50.0</ele><time>2026-05-02T07:44:45.67Z</time></trkpt><trkpt lat="42.3495874" lon="14.0983938"><ele>50.0</ele><time>2026-05-02T07:44:46.67Z</time></trkpt><trkpt lat="42.3496115" lon="14.0982801"><ele>50.0</ele><time>2026-05-02T07:44:47.67Z</time></trkpt><trkpt lat="42.3496288" lon="14.098169"><ele>50.00000000000001</ele><time>2026-05-02T07:44:48.669Z</time></trkpt><trkpt lat="42.3496448" lon="14.0980686"><ele>50.0</ele><time>2026-05-02T07:44:49.671Z</time></trkpt><trkpt lat="42.3496702" lon="14.0979703"><ele>50.2</ele><time>2026-05-02T07:44:50.67Z</time></trkpt><trkpt lat="42.349699" lon="14.0978427"><ele>50.4</ele><time>2026-05-02T07:44:51.671Z</time></trkpt><trkpt lat="42.3497372" lon="14.0976939"><ele>50.599999999999994</ele><time>2026-05-02T07:44:52.669Z</time></trkpt><trkpt lat="42.3497777" lon="14.0975648"><ele>50.8</ele><time>2026-05-02T07:44:53.67Z</time></trkpt><trkpt lat="42.3498159" lon="14.0974184"><ele>51.0</ele><time>2026-05-02T07:44:54.669Z</time></trkpt><trkpt lat="42.3498431" lon="14.0972708"><ele>51.0</ele><time>2026-05-02T07:44:55.67Z</time></trkpt><trkpt lat="42.3498664" lon="14.0971445"><ele>51.0</ele><time>2026-05-02T07:44:56.67Z</time></trkpt><trkpt lat="42.3498804" lon="14.0970522"><ele>51.0</ele><time>2026-05-02T07:44:57.67Z</time></trkpt><trkpt lat="42.3498937" lon="14.0969004"><ele>51.0</ele><time>2026-05-02T07:44:59.67Z</time></trkpt><trkpt lat="42.3499081" lon="14.0967769"><ele>51.0</ele><time>2026-05-02T07:45:01.67Z</time></trkpt><trkpt lat="42.3499252" lon="14.0966542"><ele>51.199999999999996</ele><time>2026-05-02T07:45:03.67Z</time></trkpt><trkpt lat="42.3499237" lon="14.0965253"><ele>51.4</ele><time>2026-05-02T07:45:05.67Z</time></trkpt><trkpt lat="42.3499369" lon="14.0963885"><ele>51.6</ele><time>2026-05-02T07:45:07.67Z</time></trkpt><trkpt lat="42.3499429" lon="14.0962443"><ele>51.8</ele><time>2026-05-02T07:45:09.669Z</time></trkpt><trkpt lat="42.3499572" lon="14.0960875"><ele>52.0</ele><time>2026-05-02T07:45:11.669Z</time></trkpt><trkpt lat="42.3499645" lon="14.0959984"><ele>51.99999999999999</ele><time>2026-05-02T07:45:12.67Z</time></trkpt><trkpt lat="42.3499697" lon="14.0959039"><ele>52.0</ele><time>2026-05-02T07:45:13.67Z</time></trkpt><trkpt lat="42.349977" lon="14.0958049"><ele>52.0</ele><time>2026-05-02T07:45:14.67Z</time></trkpt><trkpt lat="42.3499863" lon="14.0957014"><ele>52.0</ele><time>2026-05-02T07:45:15.67Z</time></trkpt><trkpt lat="42.3499974" lon="14.0955853"><ele>51.99999999999999</ele><time>2026-05-02T07:45:16.67Z</time></trkpt><trkpt lat="42.3500136" lon="14.095463"><ele>52.0</ele><time>2026-05-02T07:45:17.67Z</time></trkpt><trkpt lat="42.3500275" lon="14.0953271"><ele>52.0</ele><time>2026-05-02T07:45:18.67Z</time></trkpt><trkpt lat="42.3500293" lon="14.0951789"><ele>52.0</ele><time>2026-05-02T07:45:19.67Z</time></trkpt><trkpt lat="42.350022" lon="14.0950151"><ele>52.0</ele><time>2026-05-02T07:45:20.67Z</time></trkpt><trkpt lat="42.3500064" lon="14.0948587"><ele>52.0</ele><time>2026-05-02T07:45:21.67Z</time></trkpt><trkpt lat="42.3499844" lon="14.0947028"><ele>52.0</ele><time>2026-05-02T07:45:22.671Z</time></trkpt><trkpt lat="42.3499579" lon="14.094552"><ele>52.0</ele><time>2026-05-02T07:45:23.67Z</time></trkpt><trkpt lat="42.3499308" lon="14.0944027"><ele>52.0</ele><time>2026-05-02T07:45:24.671Z</time></trkpt><trkpt lat="42.3498952" lon="14.0942521"><ele>52.0</ele><time>2026-05-02T07:45:25.67Z</time></trkpt><trkpt lat="42.3498636" lon="14.0941049"><ele>51.8</ele><time>2026-05-02T07:45:26.67Z</time></trkpt><trkpt lat="42.3498392" lon="14.0939638"><ele>51.6</ele><time>2026-05-02T07:45:27.67Z</time></trkpt><trkpt lat="42.3498126" lon="14.0938267"><ele>51.4</ele><time>2026-05-02T07:45:28.67Z</time></trkpt><trkpt lat="42.3497873" lon="14.0937037"><ele>51.199999999999996</ele><time>2026-05-02T07:45:29.67Z</time></trkpt><trkpt lat="42.3497554" lon="14.0936061"><ele>51.0</ele><time>2026-05-02T07:45:30.671Z</time></trkpt><trkpt lat="42.3497206" lon="14.0935235"><ele>52.0</ele><time>2026-05-02T07:45:31.67Z</time></trkpt><trkpt lat="42.3496454" lon="14.0934132"><ele>53.0</ele><time>2026-05-02T07:45:33.669Z</time></trkpt><trkpt lat="42.3496214" lon="14.0932922"><ele>53.99999999999999</ele><time>2026-05-02T07:45:35.67Z</time></trkpt><trkpt lat="42.3496374" lon="14.0931312"><ele>55.0</ele><time>2026-05-02T07:45:37.671Z</time></trkpt><trkpt lat="42.3496321" lon="14.0930382"><ele>56.0</ele><time>2026-05-02T07:45:38.671Z</time></trkpt><trkpt lat="42.34962" lon="14.0929462"><ele>56.0</ele><time>2026-05-02T07:45:39.669Z</time></trkpt><trkpt lat="42.34959" lon="14.0928515"><ele>56.0</ele><time>2026-05-02T07:45:40.671Z</time></trkpt><trkpt lat="42.3495563" lon="14.0927615"><ele>56.0</ele><time>2026-05-02T07:45:41.671Z</time></trkpt><trkpt lat="42.3495104" lon="14.0926776"><ele>56.0</ele><time>2026-05-02T07:45:42.669Z</time></trkpt><trkpt lat="42.3494576" lon="14.0926119"><ele>56.0</ele><time>2026-05-02T07:45:43.671Z</time></trkpt><trkpt lat="42.3494074" lon="14.0925428"><ele>56.0</ele><time>2026-05-02T07:45:44.67Z</time></trkpt><trkpt lat="42.3493718" lon="14.0924637"><ele>56.0</ele><time>2026-05-02T07:45:45.671Z</time></trkpt><trkpt lat="42.3493415" lon="14.0923631"><ele>56.199999999999996</ele><time>2026-05-02T07:45:46.669Z</time></trkpt><trkpt lat="42.3493174" lon="14.0922383"><ele>56.39999999999999</ele><time>2026-05-02T07:45:47.671Z</time></trkpt><trkpt lat="42.3492863" lon="14.0921084"><ele>56.6</ele><time>2026-05-02T07:45:48.668Z</time></trkpt><trkpt lat="42.3492494" lon="14.0919788"><ele>56.8</ele><time>2026-05-02T07:45:49.671Z</time></trkpt><trkpt lat="42.3492224" lon="14.0918516"><ele>57.0</ele><time>2026-05-02T07:45:50.67Z</time></trkpt><trkpt lat="42.3491945" lon="14.0917252"><ele>57.0</ele><time>2026-05-02T07:45:51.67Z</time></trkpt><trkpt lat="42.349172" lon="14.0916026"><ele>57.0</ele><time>2026-05-02T07:45:52.67Z</time></trkpt><trkpt lat="42.3491514" lon="14.0914851"><ele>57.0</ele><time>2026-05-02T07:45:53.67Z</time></trkpt><trkpt lat="42.3491381" lon="14.0913678"><ele>57.0</ele><time>2026-05-02T07:45:54.67Z</time></trkpt><trkpt lat="42.3491297" lon="14.0912512"><ele>57.0</ele><time>2026-05-02T07:45:55.671Z</time></trkpt><trkpt lat="42.3491216" lon="14.0911335"><ele>57.0</ele><time>2026-05-02T07:45:56.669Z</time></trkpt><trkpt lat="42.3491192" lon="14.091024"><ele>57.0</ele><time>2026-05-02T07:45:57.67Z</time></trkpt><trkpt lat="42.349112" lon="14.0909054"><ele>57.0</ele><time>2026-05-02T07:45:58.667Z</time></trkpt><trkpt lat="42.3490918" lon="14.0907885"><ele>57.0</ele><time>2026-05-02T07:45:59.668Z</time></trkpt><trkpt lat="42.3490616" lon="14.0906702"><ele>57.0</ele><time>2026-05-02T07:46:00.67Z</time></trkpt><trkpt lat="42.3490362" lon="14.0905545"><ele>57.0</ele><time>2026-05-02T07:46:01.67Z</time></trkpt><trkpt lat="42.349014" lon="14.0904361"><ele>57.0</ele><time>2026-05-02T07:46:02.67Z</time></trkpt><trkpt lat="42.3489949" lon="14.0903191"><ele>57.0</ele><time>2026-05-02T07:46:03.671Z</time></trkpt><trkpt lat="42.348975" lon="14.0902046"><ele>57.0</ele><time>2026-05-02T07:46:04.671Z</time></trkpt><trkpt lat="42.3489558" lon="14.0900921"><ele>57.0</ele><time>2026-05-02T07:46:05.671Z</time></trkpt><trkpt lat="42.3489391" lon="14.0899823"><ele>57.0</ele><time>2026-05-02T07:46:06.67Z</time></trkpt><trkpt lat="42.3489264" lon="14.0898827"><ele>57.0</ele><time>2026-05-02T07:46:07.671Z</time></trkpt><trkpt lat="42.348913" lon="14.0897915"><ele>57.0</ele><time>2026-05-02T07:46:08.671Z</time></trkpt><trkpt lat="42.3488996" lon="14.089661"><ele>57.0</ele><time>2026-05-02T07:46:10.67Z</time></trkpt><trkpt lat="42.3488955" lon="14.0895629"><ele>57.0</ele><time>2026-05-02T07:46:12.67Z</time></trkpt><trkpt lat="42.3488705" lon="14.0894734"><ele>57.0</ele><time>2026-05-02T07:46:14.671Z</time></trkpt><trkpt lat="42.3488534" lon="14.0893902"><ele>57.0</ele><time>2026-05-02T07:46:16.67Z</time></trkpt><trkpt lat="42.3488279" lon="14.089293"><ele>57.0</ele><time>2026-05-02T07:46:18.67Z</time></trkpt><trkpt lat="42.3488094" lon="14.0891504"><ele>57.0</ele><time>2026-05-02T07:46:20.67Z</time></trkpt><trkpt lat="42.3487951" lon="14.0890666"><ele>58.333333333333336</ele><time>2026-05-02T07:46:21.67Z</time></trkpt><trkpt lat="42.3487861" lon="14.0889735"><ele>59.66666666666667</ele><time>2026-05-02T07:46:22.67Z</time></trkpt><trkpt lat="42.3487841" lon="14.0888703"><ele>61.0</ele><time>2026-05-02T07:46:23.67Z</time></trkpt><trkpt lat="42.3487813" lon="14.088755"><ele>62.333333333333336</ele><time>2026-05-02T07:46:24.67Z</time></trkpt><trkpt lat="42.3487808" lon="14.0886244"><ele>63.66666666666667</ele><time>2026-05-02T07:46:25.67Z</time></trkpt><trkpt lat="42.3487837" lon="14.0884843"><ele>65.0</ele><time>2026-05-02T07:46:26.669Z</time></trkpt><trkpt lat="42.3487796" lon="14.0883483"><ele>64.57142857142858</ele><time>2026-05-02T07:46:27.669Z</time></trkpt><trkpt lat="42.3487683" lon="14.0882272"><ele>64.14285714285714</ele><time>2026-05-02T07:46:28.67Z</time></trkpt><trkpt lat="42.3487616" lon="14.0881186"><ele>63.71428571428572</ele><time>2026-05-02T07:46:29.671Z</time></trkpt><trkpt lat="42.3487513" lon="14.0880194"><ele>63.28571428571429</ele><time>2026-05-02T07:46:30.669Z</time></trkpt><trkpt lat="42.3487282" lon="14.0879281"><ele>62.85714285714286</ele><time>2026-05-02T07:46:31.668Z</time></trkpt><trkpt lat="42.3487003" lon="14.087848"><ele>62.42857142857143</ele><time>2026-05-02T07:46:32.671Z</time></trkpt><trkpt lat="42.3486793" lon="14.0877675"><ele>62.0</ele><time>2026-05-02T07:46:33.67Z</time></trkpt><trkpt lat="42.3486687" lon="14.0876757"><ele>62.0</ele><time>2026-05-02T07:46:34.67Z</time></trkpt><trkpt lat="42.3486644" lon="14.0875772"><ele>62.00000000000001</ele><time>2026-05-02T07:46:35.67Z</time></trkpt><trkpt lat="42.3486608" lon="14.087479"><ele>62.0</ele><time>2026-05-02T07:46:36.669Z</time></trkpt><trkpt lat="42.3486608" lon="14.0873877"><ele>62.0</ele><time>2026-05-02T07:46:37.666Z</time></trkpt><trkpt lat="42.348651" lon="14.0872969"><ele>62.00000000000001</ele><time>2026-05-02T07:46:38.668Z</time></trkpt><trkpt lat="42.3486283" lon="14.0872076"><ele>62.0</ele><time>2026-05-02T07:46:39.667Z</time></trkpt><trkpt lat="42.3485884" lon="14.0871306"><ele>62.0</ele><time>2026-05-02T07:46:40.67Z</time></trkpt><trkpt lat="42.3485345" lon="14.0870684"><ele>62.16666666666667</ele><time>2026-05-02T07:46:41.671Z</time></trkpt><trkpt lat="42.3484826" lon="14.0870174"><ele>62.333333333333336</ele><time>2026-05-02T07:46:42.669Z</time></trkpt><trkpt lat="42.3484026" lon="14.0869095"><ele>62.5</ele><time>2026-05-02T07:46:44.669Z</time></trkpt><trkpt lat="42.3483293" lon="14.0868512"><ele>62.66666666666667</ele><time>2026-05-02T07:46:46.669Z</time></trkpt><trkpt lat="42.3482647" lon="14.0868069"><ele>62.833333333333336</ele><time>2026-05-02T07:46:48.67Z</time></trkpt><trkpt lat="42.3482045" lon="14.086744"><ele>63.0</ele><time>2026-05-02T07:46:51.671Z</time></trkpt><trkpt lat="42.3481606" lon="14.0866311"><ele>63.0</ele><time>2026-05-02T07:46:54.665Z</time></trkpt><trkpt lat="42.3481365" lon="14.0865218"><ele>63.0</ele><time>2026-05-02T07:46:56.671Z</time></trkpt><trkpt lat="42.3481101" lon="14.086427"><ele>63.0</ele><time>2026-05-02T07:46:58.67Z</time></trkpt><trkpt lat="42.3480906" lon="14.0863078"><ele>63.0</ele><time>2026-05-02T07:47:01.671Z</time></trkpt><trkpt lat="42.3480744" lon="14.0862025"><ele>63.0</ele><time>2026-05-02T07:47:03.668Z</time></trkpt><trkpt lat="42.3480742" lon="14.0860933"><ele>63.0</ele><time>2026-05-02T07:47:05.666Z</time></trkpt><trkpt lat="42.3480693" lon="14.0859836"><ele>63.0</ele><time>2026-05-02T07:47:07.667Z</time></trkpt><trkpt lat="42.348048" lon="14.0858858"><ele>63.0</ele><time>2026-05-02T07:47:09.65Z</time></trkpt><trkpt lat="42.3480245" lon="14.0857686"><ele>63.0</ele><time>2026-05-02T07:47:12.668Z</time></trkpt><trkpt lat="42.3479921" lon="14.0856432"><ele>63.0</ele><time>2026-05-02T07:47:15.67Z</time></trkpt><trkpt lat="42.3479837" lon="14.0855238"><ele>63.0</ele><time>2026-05-02T07:47:17.668Z</time></trkpt><trkpt lat="42.3479766" lon="14.0853913"><ele>63.833333333333336</ele><time>2026-05-02T07:47:19.668Z</time></trkpt><trkpt lat="42.3479356" lon="14.085282"><ele>64.66666666666667</ele><time>2026-05-02T07:47:21.67Z</time></trkpt><trkpt lat="42.3478898" lon="14.0851978"><ele>65.5</ele><time>2026-05-02T07:47:23.67Z</time></trkpt><trkpt lat="42.3478259" lon="14.0850984"><ele>66.33333333333334</ele><time>2026-05-02T07:47:25.67Z</time></trkpt><trkpt lat="42.3478108" lon="14.0850005"><ele>67.16666666666667</ele><time>2026-05-02T07:47:26.67Z</time></trkpt><trkpt lat="42.3478036" lon="14.0848871"><ele>68.0</ele><time>2026-05-02T07:47:27.67Z</time></trkpt><trkpt lat="42.347798" lon="14.0847697"><ele>68.0</ele><time>2026-05-02T07:47:28.67Z</time></trkpt><trkpt lat="42.3477912" lon="14.0846735"><ele>68.0</ele><time>2026-05-02T07:47:29.671Z</time></trkpt><trkpt lat="42.3477656" lon="14.0845804"><ele>68.0</ele><time>2026-05-02T07:47:30.67Z</time></trkpt><trkpt lat="42.3477284" lon="14.084479"><ele>68.0</ele><time>2026-05-02T07:47:31.668Z</time></trkpt><trkpt lat="42.3476984" lon="14.0843794"><ele>68.0</ele><time>2026-05-02T07:47:32.67Z</time></trkpt><trkpt lat="42.3476663" lon="14.0842829"><ele>68.0</ele><time>2026-05-02T07:47:33.67Z</time></trkpt><trkpt lat="42.3476403" lon="14.0841961"><ele>67.8</ele><time>2026-05-02T07:47:34.671Z</time></trkpt><trkpt lat="42.3476168" lon="14.0840432"><ele>67.6</ele><time>2026-05-02T07:47:36.67Z</time></trkpt><trkpt lat="42.3476031" lon="14.0838759"><ele>67.4</ele><time>2026-05-02T07:47:38.67Z</time></trkpt><trkpt lat="42.3475931" lon="14.0837902"><ele>67.2</ele><time>2026-05-02T07:47:39.669Z</time></trkpt><trkpt lat="42.3475836" lon="14.0836234"><ele>67.0</ele><time>2026-05-02T07:47:41.668Z</time></trkpt><trkpt lat="42.3475784" lon="14.0835352"><ele>67.0</ele><time>2026-05-02T07:47:42.671Z</time></trkpt><trkpt lat="42.3475872" lon="14.0833819"><ele>67.0</ele><time>2026-05-02T07:47:44.667Z</time></trkpt><trkpt lat="42.347597" lon="14.0832884"><ele>67.0</ele><time>2026-05-02T07:47:45.668Z</time></trkpt><trkpt lat="42.347613" lon="14.0831865"><ele>67.0</ele><time>2026-05-02T07:47:46.67Z</time></trkpt><trkpt lat="42.3476423" lon="14.0830964"><ele>67.0</ele><time>2026-05-02T07:47:47.67Z</time></trkpt><trkpt lat="42.3476767" lon="14.0830231"><ele>67.0</ele><time>2026-05-02T07:47:48.67Z</time></trkpt><trkpt lat="42.3477737" lon="14.0829044"><ele>67.2</ele><time>2026-05-02T07:47:50.667Z</time></trkpt><trkpt lat="42.3478465" lon="14.0828407"><ele>67.4</ele><time>2026-05-02T07:47:51.669Z</time></trkpt><trkpt lat="42.3479167" lon="14.0827581"><ele>67.6</ele><time>2026-05-02T07:47:52.669Z</time></trkpt><trkpt lat="42.3479826" lon="14.0826431"><ele>67.8</ele><time>2026-05-02T07:47:53.669Z</time></trkpt><trkpt lat="42.3480445" lon="14.0825035"><ele>68.0</ele><time>2026-05-02T07:47:54.669Z</time></trkpt><trkpt lat="42.3480968" lon="14.0823705"><ele>67.5</ele><time>2026-05-02T07:47:55.669Z</time></trkpt><trkpt lat="42.3481418" lon="14.0822576"><ele>67.0</ele><time>2026-05-02T07:47:56.669Z</time></trkpt><trkpt lat="42.3481865" lon="14.0821654"><ele>66.5</ele><time>2026-05-02T07:47:57.67Z</time></trkpt><trkpt lat="42.3482306" lon="14.0820929"><ele>66.0</ele><time>2026-05-02T07:47:58.67Z</time></trkpt><trkpt lat="42.3482689" lon="14.0820184"><ele>65.5</ele><time>2026-05-02T07:47:59.671Z</time></trkpt><trkpt lat="42.3482959" lon="14.0819225"><ele>65.0</ele><time>2026-05-02T07:48:00.669Z</time></trkpt><trkpt lat="42.3483181" lon="14.0818286"><ele>65.0</ele><time>2026-05-02T07:48:01.668Z</time></trkpt><trkpt lat="42.3483331" lon="14.081745"><ele>65.0</ele><time>2026-05-02T07:48:02.671Z</time></trkpt><trkpt lat="42.3483548" lon="14.0816014"><ele>65.0</ele><time>2026-05-02T07:48:04.667Z</time></trkpt><trkpt lat="42.3483692" lon="14.081496"><ele>65.0</ele><time>2026-05-02T07:48:06.668Z</time></trkpt><trkpt lat="42.3483499" lon="14.0814147"><ele>65.0</ele><time>2026-05-02T07:48:34.668Z</time></trkpt><trkpt lat="42.3483635" lon="14.081522"><ele>65.0</ele><time>2026-05-02T07:48:55.668Z</time></trkpt><trkpt lat="42.3484192" lon="14.0814696"><ele>65.0</ele><time>2026-05-02T07:49:00.67Z</time></trkpt><trkpt lat="42.3484288" lon="14.0813712"><ele>65.0</ele><time>2026-05-02T07:49:03.67Z</time></trkpt><trkpt lat="42.348427" lon="14.0814722"><ele>65.0</ele><time>2026-05-02T07:49:22.668Z</time></trkpt><trkpt lat="42.3483842" lon="14.0815586"><ele>65.0</ele><time>2026-05-02T07:49:24.667Z</time></trkpt><trkpt lat="42.3483379" lon="14.0816913"><ele>65.0</ele><time>2026-05-02T07:49:26.667Z</time></trkpt><trkpt lat="42.3483283" lon="14.0818097"><ele>65.0</ele><time>2026-05-02T07:49:28.666Z</time></trkpt><trkpt lat="42.3483181" lon="14.0818968"><ele>65.0</ele><time>2026-05-02T07:49:30.667Z</time></trkpt><trkpt lat="42.3483939" lon="14.0819594"><ele>65.0</ele><time>2026-05-02T07:49:33.67Z</time></trkpt><trkpt lat="42.3484556" lon="14.0820115"><ele>65.0</ele><time>2026-05-02T07:49:35.67Z</time></trkpt><trkpt lat="42.3485157" lon="14.0819756"><ele>65.0</ele><time>2026-05-02T07:49:38.67Z</time></trkpt><trkpt lat="42.3485707" lon="14.0818212"><ele>65.0</ele><time>2026-05-02T07:49:40.67Z</time></trkpt><trkpt lat="42.3485857" lon="14.0817148"><ele>65.0</ele><time>2026-05-02T07:49:42.671Z</time></trkpt><trkpt lat="42.3486086" lon="14.0815817"><ele>65.33333333333334</ele><time>2026-05-02T07:49:44.671Z</time></trkpt><trkpt lat="42.3487119" lon="14.0814909"><ele>65.66666666666667</ele><time>2026-05-02T07:49:46.67Z</time></trkpt><trkpt lat="42.3487739" lon="14.0814425"><ele>66.0</ele><time>2026-05-02T07:49:47.67Z</time></trkpt><trkpt lat="42.348831" lon="14.0813949"><ele>66.33333333333333</ele><time>2026-05-02T07:49:48.671Z</time></trkpt><trkpt lat="42.3488878" lon="14.0813527"><ele>66.66666666666666</ele><time>2026-05-02T07:49:49.67Z</time></trkpt><trkpt lat="42.3489452" lon="14.0813144"><ele>67.0</ele><time>2026-05-02T07:49:50.671Z</time></trkpt><trkpt lat="42.3490525" lon="14.0812482"><ele>67.0</ele><time>2026-05-02T07:49:52.67Z</time></trkpt><trkpt lat="42.3491529" lon="14.0812221"><ele>67.0</ele><time>2026-05-02T07:49:54.67Z</time></trkpt><trkpt lat="42.3492467" lon="14.081234"><ele>67.0</ele><time>2026-05-02T07:49:56.67Z</time></trkpt><trkpt lat="42.349338" lon="14.081257"><ele>67.0</ele><time>2026-05-02T07:50:16.67Z</time></trkpt><trkpt lat="42.3494107" lon="14.0812819"><ele>67.0</ele><time>2026-05-02T07:50:17.671Z</time></trkpt><trkpt lat="42.3494752" lon="14.0812998"><ele>67.0</ele><time>2026-05-02T07:50:18.67Z</time></trkpt><trkpt lat="42.3495661" lon="14.0812867"><ele>67.0</ele><time>2026-05-02T07:50:20.67Z</time></trkpt><trkpt lat="42.3496365" lon="14.0812141"><ele>67.0</ele><time>2026-05-02T07:50:22.67Z</time></trkpt><trkpt lat="42.3496698" lon="14.0811383"><ele>67.0</ele><time>2026-05-02T07:50:24.669Z</time></trkpt><trkpt lat="42.3496782" lon="14.0810392"><ele>67.0</ele><time>2026-05-02T07:50:26.67Z</time></trkpt><trkpt lat="42.3496497" lon="14.0809163"><ele>67.0</ele><time>2026-05-02T07:50:28.671Z</time></trkpt><trkpt lat="42.3495943" lon="14.0807999"><ele>67.0</ele><time>2026-05-02T07:50:30.668Z</time></trkpt><trkpt lat="42.3495592" lon="14.0807118"><ele>66.83333333333333</ele><time>2026-05-02T07:50:32.671Z</time></trkpt><trkpt lat="42.3495488" lon="14.0806098"><ele>66.66666666666666</ele><time>2026-05-02T07:50:34.67Z</time></trkpt><trkpt lat="42.3496035" lon="14.0805302"><ele>66.5</ele><time>2026-05-02T07:50:36.671Z</time></trkpt><trkpt lat="42.3496673" lon="14.0804731"><ele>66.33333333333333</ele><time>2026-05-02T07:50:37.67Z</time></trkpt><trkpt lat="42.3497395" lon="14.0803824"><ele>66.16666666666667</ele><time>2026-05-02T07:50:38.67Z</time></trkpt><trkpt lat="42.3497987" lon="14.0803138"><ele>66.0</ele><time>2026-05-02T07:50:39.67Z</time></trkpt><trkpt lat="42.3498742" lon="14.0802397"><ele>66.0</ele><time>2026-05-02T07:50:40.669Z</time></trkpt><trkpt lat="42.3499557" lon="14.0801648"><ele>66.0</ele><time>2026-05-02T07:50:41.67Z</time></trkpt><trkpt lat="42.3500362" lon="14.0801078"><ele>66.0</ele><time>2026-05-02T07:50:42.669Z</time></trkpt><trkpt lat="42.3501075" lon="14.0800454"><ele>66.0</ele><time>2026-05-02T07:50:43.671Z</time></trkpt><trkpt lat="42.3501738" lon="14.0799669"><ele>66.0</ele><time>2026-05-02T07:50:44.67Z</time></trkpt><trkpt lat="42.3502341" lon="14.0798689"><ele>66.0</ele><time>2026-05-02T07:50:45.67Z</time></trkpt><trkpt lat="42.3502858" lon="14.0797516"><ele>66.0</ele><time>2026-05-02T07:50:46.668Z</time></trkpt><trkpt lat="42.3503287" lon="14.0796278"><ele>66.0</ele><time>2026-05-02T07:50:47.67Z</time></trkpt><trkpt lat="42.3503588" lon="14.0795032"><ele>66.0</ele><time>2026-05-02T07:50:48.671Z</time></trkpt><trkpt lat="42.3503798" lon="14.0793841"><ele>66.0</ele><time>2026-05-02T07:50:49.67Z</time></trkpt><trkpt lat="42.350398" lon="14.079274"><ele>66.0</ele><time>2026-05-02T07:50:50.669Z</time></trkpt><trkpt lat="42.350415" lon="14.0791732"><ele>66.0</ele><time>2026-05-02T07:50:51.67Z</time></trkpt><trkpt lat="42.3504367" lon="14.0790588"><ele>66.0</ele><time>2026-05-02T07:50:52.671Z</time></trkpt><trkpt lat="42.3504678" lon="14.0789493"><ele>66.0</ele><time>2026-05-02T07:50:53.671Z</time></trkpt><trkpt lat="42.3505072" lon="14.0788322"><ele>66.0</ele><time>2026-05-02T07:50:54.67Z</time></trkpt><trkpt lat="42.3505414" lon="14.0787333"><ele>66.0</ele><time>2026-05-02T07:50:55.67Z</time></trkpt><trkpt lat="42.3505668" lon="14.0786395"><ele>66.16666666666667</ele><time>2026-05-02T07:50:56.669Z</time></trkpt><trkpt lat="42.350577" lon="14.0785435"><ele>66.33333333333333</ele><time>2026-05-02T07:50:57.67Z</time></trkpt><trkpt lat="42.3505754" lon="14.0784383"><ele>66.5</ele><time>2026-05-02T07:50:58.67Z</time></trkpt><trkpt lat="42.350564" lon="14.0783261"><ele>66.66666666666666</ele><time>2026-05-02T07:50:59.67Z</time></trkpt><trkpt lat="42.3505461" lon="14.0782149"><ele>66.83333333333333</ele><time>2026-05-02T07:51:00.67Z</time></trkpt><trkpt lat="42.3505228" lon="14.0781153"><ele>67.0</ele><time>2026-05-02T07:51:01.67Z</time></trkpt><trkpt lat="42.3505046" lon="14.0780139"><ele>67.0</ele><time>2026-05-02T07:51:02.67Z</time></trkpt><trkpt lat="42.3504945" lon="14.077924"><ele>67.0</ele><time>2026-05-02T07:51:03.671Z</time></trkpt><trkpt lat="42.3504783" lon="14.0777834"><ele>67.0</ele><time>2026-05-02T07:51:05.67Z</time></trkpt><trkpt lat="42.3504655" lon="14.0776963"><ele>67.0</ele><time>2026-05-02T07:51:06.67Z</time></trkpt><trkpt lat="42.3504605" lon="14.0776017"><ele>67.0</ele><time>2026-05-02T07:51:07.67Z</time></trkpt><trkpt lat="42.3504591" lon="14.077488"><ele>67.0</ele><time>2026-05-02T07:51:08.671Z</time></trkpt><trkpt lat="42.3504575" lon="14.0773656"><ele>67.2</ele><time>2026-05-02T07:51:09.671Z</time></trkpt><trkpt lat="42.3504647" lon="14.0772357"><ele>67.4</ele><time>2026-05-02T07:51:10.669Z</time></trkpt><trkpt lat="42.3504634" lon="14.0770956"><ele>67.6</ele><time>2026-05-02T07:51:11.669Z</time></trkpt><trkpt lat="42.3504524" lon="14.0769576"><ele>67.8</ele><time>2026-05-02T07:51:12.667Z</time></trkpt><trkpt lat="42.3504435" lon="14.0768385"><ele>68.0</ele><time>2026-05-02T07:51:13.671Z</time></trkpt><trkpt lat="42.3504415" lon="14.0767259"><ele>68.0</ele><time>2026-05-02T07:51:14.671Z</time></trkpt><trkpt lat="42.3504569" lon="14.0766136"><ele>68.0</ele><time>2026-05-02T07:51:15.669Z</time></trkpt><trkpt lat="42.3504829" lon="14.0765052"><ele>68.0</ele><time>2026-05-02T07:51:16.67Z</time></trkpt><trkpt lat="42.3504958" lon="14.0763949"><ele>68.0</ele><time>2026-05-02T07:51:17.667Z</time></trkpt><trkpt lat="42.3505023" lon="14.0762862"><ele>68.0</ele><time>2026-05-02T07:51:18.668Z</time></trkpt><trkpt lat="42.3505014" lon="14.0761688"><ele>68.0</ele><time>2026-05-02T07:51:19.668Z</time></trkpt><trkpt lat="42.3504542" lon="14.0760358"><ele>68.33333333333334</ele><time>2026-05-02T07:51:20.667Z</time></trkpt><trkpt lat="42.350435" lon="14.0759085"><ele>68.66666666666667</ele><time>2026-05-02T07:51:21.668Z</time></trkpt><trkpt lat="42.3504232" lon="14.0757902"><ele>69.0</ele><time>2026-05-02T07:51:22.67Z</time></trkpt><trkpt lat="42.3504151" lon="14.0756845"><ele>69.33333333333333</ele><time>2026-05-02T07:51:23.67Z</time></trkpt><trkpt lat="42.3504071" lon="14.0755936"><ele>69.66666666666666</ele><time>2026-05-02T07:51:24.67Z</time></trkpt><trkpt lat="42.3504267" lon="14.0754723"><ele>70.0</ele><time>2026-05-02T07:51:26.668Z</time></trkpt><trkpt lat="42.3504933" lon="14.0754032"><ele>70.2</ele><time>2026-05-02T07:51:28.671Z</time></trkpt><trkpt lat="42.3505543" lon="14.07537"><ele>70.4</ele><time>2026-05-02T07:51:29.67Z</time></trkpt><trkpt lat="42.3506377" lon="14.0753488"><ele>70.6</ele><time>2026-05-02T07:51:30.666Z</time></trkpt><trkpt lat="42.3507343" lon="14.07533"><ele>70.8</ele><time>2026-05-02T07:51:31.671Z</time></trkpt><trkpt lat="42.350834" lon="14.0752979"><ele>71.0</ele><time>2026-05-02T07:51:32.666Z</time></trkpt><trkpt lat="42.3509326" lon="14.075259"><ele>71.0</ele><time>2026-05-02T07:51:33.671Z</time></trkpt><trkpt lat="42.3510311" lon="14.0752269"><ele>71.0</ele><time>2026-05-02T07:51:34.671Z</time></trkpt><trkpt lat="42.3511326" lon="14.0751966"><ele>71.0</ele><time>2026-05-02T07:51:35.671Z</time></trkpt><trkpt lat="42.3512305" lon="14.0751594"><ele>71.0</ele><time>2026-05-02T07:51:36.67Z</time></trkpt><trkpt lat="42.3513229" lon="14.0751253"><ele>71.0</ele><time>2026-05-02T07:51:37.669Z</time></trkpt><trkpt lat="42.3514123" lon="14.0751009"><ele>71.5</ele><time>2026-05-02T07:51:38.668Z</time></trkpt><trkpt lat="42.3515002" lon="14.0750799"><ele>72.0</ele><time>2026-05-02T07:51:39.67Z</time></trkpt><trkpt lat="42.3516034" lon="14.0750706"><ele>72.5</ele><time>2026-05-02T07:51:40.67Z</time></trkpt><trkpt lat="42.3517384" lon="14.075074"><ele>73.0</ele><time>2026-05-02T07:51:41.669Z</time></trkpt><trkpt lat="42.3518869" lon="14.0750955"><ele>73.0</ele><time>2026-05-02T07:51:42.67Z</time></trkpt><trkpt lat="42.3520471" lon="14.0751279"><ele>73.0</ele><time>2026-05-02T07:51:43.67Z</time></trkpt><trkpt lat="42.352233" lon="14.0751639"><ele>73.0</ele><time>2026-05-02T07:51:44.668Z</time></trkpt><trkpt lat="42.3524238" lon="14.0751967"><ele>74.33333333333333</ele><time>2026-05-02T07:51:45.67Z</time></trkpt><trkpt lat="42.3526107" lon="14.0752174"><ele>75.66666666666667</ele><time>2026-05-02T07:51:46.668Z</time></trkpt><trkpt lat="42.3527836" lon="14.0752369"><ele>77.0</ele><time>2026-05-02T07:51:47.668Z</time></trkpt><trkpt lat="42.3529306" lon="14.0752737"><ele>80.5</ele><time>2026-05-02T07:51:48.67Z</time></trkpt><trkpt lat="42.3530581" lon="14.075325"><ele>84.0</ele><time>2026-05-02T07:51:49.669Z</time></trkpt><trkpt lat="42.353178" lon="14.0753706"><ele>87.5</ele><time>2026-05-02T07:51:50.67Z</time></trkpt><trkpt lat="42.3532934" lon="14.0753925"><ele>91.0</ele><time>2026-05-02T07:51:51.667Z</time></trkpt><trkpt lat="42.3534171" lon="14.0753868"><ele>91.0</ele><time>2026-05-02T07:51:52.671Z</time></trkpt><trkpt lat="42.3535573" lon="14.0753584"><ele>91.0</ele><time>2026-05-02T07:51:53.671Z</time></trkpt><trkpt lat="42.3537013" lon="14.0753208"><ele>91.0</ele><time>2026-05-02T07:51:54.671Z</time></trkpt><trkpt lat="42.3538418" lon="14.0752832"><ele>91.0</ele><time>2026-05-02T07:51:55.671Z</time></trkpt><trkpt lat="42.353981" lon="14.0752465"><ele>92.5</ele><time>2026-05-02T07:51:56.668Z</time></trkpt><trkpt lat="42.3541182" lon="14.0752072"><ele>94.0</ele><time>2026-05-02T07:51:57.67Z</time></trkpt><trkpt lat="42.3542491" lon="14.0751699"><ele>95.5</ele><time>2026-05-02T07:51:58.667Z</time></trkpt><trkpt lat="42.3543754" lon="14.0751385"><ele>97.0</ele><time>2026-05-02T07:51:59.671Z</time></trkpt><trkpt lat="42.3544985" lon="14.0751121"><ele>97.0</ele><time>2026-05-02T07:52:00.67Z</time></trkpt><trkpt lat="42.3546178" lon="14.075083"><ele>97.0</ele><time>2026-05-02T07:52:01.67Z</time></trkpt><trkpt lat="42.3547314" lon="14.0750524"><ele>97.0</ele><time>2026-05-02T07:52:02.67Z</time></trkpt><trkpt lat="42.3548407" lon="14.0750236"><ele>97.0</ele><time>2026-05-02T07:52:03.671Z</time></trkpt><trkpt lat="42.3549489" lon="14.0749993"><ele>100.25</ele><time>2026-05-02T07:52:04.671Z</time></trkpt><trkpt lat="42.3550671" lon="14.0749747"><ele>103.5</ele><time>2026-05-02T07:52:05.668Z</time></trkpt><trkpt lat="42.3552029" lon="14.0749567"><ele>106.75</ele><time>2026-05-02T07:52:06.67Z</time></trkpt><trkpt lat="42.355345" lon="14.074941"><ele>110.0</ele><time>2026-05-02T07:52:07.67Z</time></trkpt><trkpt lat="42.3554901" lon="14.0749178"><ele>112.5</ele><time>2026-05-02T07:52:08.67Z</time></trkpt><trkpt lat="42.3556323" lon="14.0748925"><ele>115.0</ele><time>2026-05-02T07:52:09.67Z</time></trkpt><trkpt lat="42.3557738" lon="14.0748727"><ele>117.5</ele><time>2026-05-02T07:52:10.67Z</time></trkpt><trkpt lat="42.355925" lon="14.074866"><ele>120.0</ele><time>2026-05-02T07:52:11.671Z</time></trkpt><trkpt lat="42.3560858" lon="14.0748695"><ele>120.0</ele><time>2026-05-02T07:52:12.67Z</time></trkpt><trkpt lat="42.3562588" lon="14.0748901"><ele>120.0</ele><time>2026-05-02T07:52:13.668Z</time></trkpt><trkpt lat="42.3564317" lon="14.0749232"><ele>120.0</ele><time>2026-05-02T07:52:14.67Z</time></trkpt><trkpt lat="42.3565965" lon="14.0749521"><ele>121.0</ele><time>2026-05-02T07:52:15.67Z</time></trkpt><trkpt lat="42.3567487" lon="14.0749746"><ele>122.0</ele><time>2026-05-02T07:52:16.668Z</time></trkpt><trkpt lat="42.3569008" lon="14.0749985"><ele>123.0</ele><time>2026-05-02T07:52:17.668Z</time></trkpt><trkpt lat="42.3570571" lon="14.0750316"><ele>122.75</ele><time>2026-05-02T07:52:18.67Z</time></trkpt><trkpt lat="42.3572037" lon="14.0750664"><ele>122.5</ele><time>2026-05-02T07:52:19.667Z</time></trkpt><trkpt lat="42.3573419" lon="14.0750941"><ele>122.25</ele><time>2026-05-02T07:52:20.67Z</time></trkpt><trkpt lat="42.3574757" lon="14.075119"><ele>122.0</ele><time>2026-05-02T07:52:21.671Z</time></trkpt><trkpt lat="42.3576123" lon="14.0751486"><ele>122.0</ele><time>2026-05-02T07:52:22.671Z</time></trkpt><trkpt lat="42.3577544" lon="14.075191"><ele>122.0</ele><time>2026-05-02T07:52:23.671Z</time></trkpt><trkpt lat="42.3578998" lon="14.0752421"><ele>122.0</ele><time>2026-05-02T07:52:24.668Z</time></trkpt><trkpt lat="42.35804" lon="14.0752937"><ele>122.0</ele><time>2026-05-02T07:52:25.67Z</time></trkpt><trkpt lat="42.3581752" lon="14.0753409"><ele>121.75</ele><time>2026-05-02T07:52:26.67Z</time></trkpt><trkpt lat="42.3583031" lon="14.075382"><ele>121.5</ele><time>2026-05-02T07:52:27.671Z</time></trkpt><trkpt lat="42.3584259" lon="14.0754248"><ele>121.25</ele><time>2026-05-02T07:52:28.671Z</time></trkpt><trkpt lat="42.3585323" lon="14.0754749"><ele>121.0</ele><time>2026-05-02T07:52:29.668Z</time></trkpt><trkpt lat="42.3586144" lon="14.0755186"><ele>121.0</ele><time>2026-05-02T07:52:30.667Z</time></trkpt><trkpt lat="42.3586914" lon="14.0755597"><ele>121.0</ele><time>2026-05-02T07:52:32.671Z</time></trkpt><trkpt lat="42.3587984" lon="14.0755335"><ele>121.0</ele><time>2026-05-02T07:52:34.67Z</time></trkpt><trkpt lat="42.358882" lon="14.075474"><ele>121.0</ele><time>2026-05-02T07:52:35.671Z</time></trkpt><trkpt lat="42.358991" lon="14.0754095"><ele>121.0</ele><time>2026-05-02T07:52:36.668Z</time></trkpt><trkpt lat="42.3591012" lon="14.0753519"><ele>122.0</ele><time>2026-05-02T07:52:37.668Z</time></trkpt><trkpt lat="42.3592136" lon="14.0752755"><ele>123.0</ele><time>2026-05-02T07:52:38.67Z</time></trkpt><trkpt lat="42.3593227" lon="14.0751926"><ele>124.0</ele><time>2026-05-02T07:52:39.67Z</time></trkpt><trkpt lat="42.359453" lon="14.0750953"><ele>125.0</ele><time>2026-05-02T07:52:40.671Z</time></trkpt><trkpt lat="42.3595873" lon="14.0749979"><ele>126.0</ele><time>2026-05-02T07:52:41.67Z</time></trkpt><trkpt lat="42.3597211" lon="14.0749023"><ele>127.0</ele><time>2026-05-02T07:52:42.67Z</time></trkpt><trkpt lat="42.3598586" lon="14.0748033"><ele>128.0</ele><time>2026-05-02T07:52:43.67Z</time></trkpt><trkpt lat="42.3599877" lon="14.0747074"><ele>128.0</ele><time>2026-05-02T07:52:44.667Z</time></trkpt><trkpt lat="42.3601063" lon="14.0746259"><ele>128.0</ele><time>2026-05-02T07:52:45.667Z</time></trkpt><trkpt lat="42.3602193" lon="14.0745539"><ele>128.0</ele><time>2026-05-02T07:52:46.668Z</time></trkpt><trkpt lat="42.3603234" lon="14.0744899"><ele>128.0</ele><time>2026-05-02T07:52:47.668Z</time></trkpt><trkpt lat="42.3604161" lon="14.0744214"><ele>128.0</ele><time>2026-05-02T07:52:48.669Z</time></trkpt><trkpt lat="42.3605098" lon="14.0743561"><ele>128.0</ele><time>2026-05-02T07:52:49.671Z</time></trkpt><trkpt lat="42.3606048" lon="14.0742983"><ele>128.0</ele><time>2026-05-02T07:52:50.668Z</time></trkpt><trkpt lat="42.3606997" lon="14.0742392"><ele>128.0</ele><time>2026-05-02T07:52:51.671Z</time></trkpt><trkpt lat="42.3608037" lon="14.074159"><ele>128.0</ele><time>2026-05-02T07:52:52.67Z</time></trkpt><trkpt lat="42.3609108" lon="14.0740865"><ele>129.20000000000002</ele><time>2026-05-02T07:52:53.671Z</time></trkpt><trkpt lat="42.3610099" lon="14.0740282"><ele>130.4</ele><time>2026-05-02T07:52:54.67Z</time></trkpt><trkpt lat="42.3611011" lon="14.0739766"><ele>131.60000000000002</ele><time>2026-05-02T07:52:55.671Z</time></trkpt><trkpt lat="42.3611879" lon="14.0739124"><ele>132.8</ele><time>2026-05-02T07:52:56.67Z</time></trkpt><trkpt lat="42.3612788" lon="14.073833"><ele>134.0</ele><time>2026-05-02T07:52:57.67Z</time></trkpt><trkpt lat="42.3613744" lon="14.073754"><ele>134.6</ele><time>2026-05-02T07:52:58.67Z</time></trkpt><trkpt lat="42.3614765" lon="14.0736792"><ele>135.2</ele><time>2026-05-02T07:52:59.67Z</time></trkpt><trkpt lat="42.3615739" lon="14.0736123"><ele>135.79999999999998</ele><time>2026-05-02T07:53:00.67Z</time></trkpt><trkpt lat="42.3616625" lon="14.0735558"><ele>136.4</ele><time>2026-05-02T07:53:01.67Z</time></trkpt><trkpt lat="42.3617253" lon="14.073521"><ele>137.0</ele><time>2026-05-02T07:53:02.667Z</time></trkpt><trkpt lat="42.361771" lon="14.0734198"><ele>137.0</ele><time>2026-05-02T07:53:05.671Z</time></trkpt><trkpt lat="42.3616986" lon="14.0732823"><ele>137.0</ele><time>2026-05-02T07:53:07.67Z</time></trkpt><trkpt lat="42.3616199" lon="14.0731735"><ele>137.0</ele><time>2026-05-02T07:53:08.67Z</time></trkpt><trkpt lat="42.3615247" lon="14.0730394"><ele>137.0</ele><time>2026-05-02T07:53:09.667Z</time></trkpt><trkpt lat="42.3614271" lon="14.0728957"><ele>135.66666666666666</ele><time>2026-05-02T07:53:10.669Z</time></trkpt><trkpt lat="42.3613268" lon="14.0727465"><ele>134.33333333333334</ele><time>2026-05-02T07:53:11.67Z</time></trkpt><trkpt lat="42.3612144" lon="14.0725775"><ele>133.0</ele><time>2026-05-02T07:53:12.671Z</time></trkpt><trkpt lat="42.3610963" lon="14.0723986"><ele>133.0</ele><time>2026-05-02T07:53:13.668Z</time></trkpt><trkpt lat="42.3609699" lon="14.0722018"><ele>133.0</ele><time>2026-05-02T07:53:14.671Z</time></trkpt><trkpt lat="42.3608485" lon="14.0720014"><ele>133.0</ele><time>2026-05-02T07:53:15.669Z</time></trkpt><trkpt lat="42.3607401" lon="14.0717892"><ele>133.0</ele><time>2026-05-02T07:53:16.668Z</time></trkpt><trkpt lat="42.3606555" lon="14.0715605"><ele>133.0</ele><time>2026-05-02T07:53:17.667Z</time></trkpt><trkpt lat="42.3605895" lon="14.071323"><ele>133.0</ele><time>2026-05-02T07:53:18.67Z</time></trkpt><trkpt lat="42.3605324" lon="14.0710831"><ele>133.0</ele><time>2026-05-02T07:53:19.669Z</time></trkpt><trkpt lat="42.3604809" lon="14.0708408"><ele>133.0</ele><time>2026-05-02T07:53:20.67Z</time></trkpt><trkpt lat="42.3604311" lon="14.0705992"><ele>133.0</ele><time>2026-05-02T07:53:21.669Z</time></trkpt><trkpt lat="42.360381" lon="14.0703589"><ele>133.66666666666669</ele><time>2026-05-02T07:53:22.67Z</time></trkpt><trkpt lat="42.3603327" lon="14.0701169"><ele>134.33333333333334</ele><time>2026-05-02T07:53:23.669Z</time></trkpt><trkpt lat="42.3602866" lon="14.0698722"><ele>135.0</ele><time>2026-05-02T07:53:24.668Z</time></trkpt><trkpt lat="42.3602472" lon="14.0696255"><ele>136.0</ele><time>2026-05-02T07:53:25.667Z</time></trkpt><trkpt lat="42.3602286" lon="14.06938"><ele>137.0</ele><time>2026-05-02T07:53:26.667Z</time></trkpt><trkpt lat="42.3602365" lon="14.0691559"><ele>138.0</ele><time>2026-05-02T07:53:27.67Z</time></trkpt><trkpt lat="42.3602654" lon="14.0689479"><ele>138.5</ele><time>2026-05-02T07:53:28.669Z</time></trkpt><trkpt lat="42.3603176" lon="14.0687532"><ele>139.0</ele><time>2026-05-02T07:53:29.668Z</time></trkpt><trkpt lat="42.3603922" lon="14.0685791"><ele>139.5</ele><time>2026-05-02T07:53:30.667Z</time></trkpt><trkpt lat="42.3604785" lon="14.0684297"><ele>140.0</ele><time>2026-05-02T07:53:31.669Z</time></trkpt><trkpt lat="42.3605604" lon="14.0682957"><ele>140.0</ele><time>2026-05-02T07:53:32.67Z</time></trkpt><trkpt lat="42.3606269" lon="14.0681608"><ele>140.0</ele><time>2026-05-02T07:53:33.666Z</time></trkpt><trkpt lat="42.3606784" lon="14.06802"><ele>140.0</ele><time>2026-05-02T07:53:34.67Z</time></trkpt><trkpt lat="42.36071" lon="14.0678747"><ele>140.0</ele><time>2026-05-02T07:53:35.671Z</time></trkpt><trkpt lat="42.360718" lon="14.0677253"><ele>140.0</ele><time>2026-05-02T07:53:36.67Z</time></trkpt><trkpt lat="42.3607011" lon="14.0675964"><ele>140.0</ele><time>2026-05-02T07:53:37.669Z</time></trkpt><trkpt lat="42.360664" lon="14.0674748"><ele>140.0</ele><time>2026-05-02T07:53:38.67Z</time></trkpt><trkpt lat="42.3606014" lon="14.0673517"><ele>140.0</ele><time>2026-05-02T07:53:39.666Z</time></trkpt><trkpt lat="42.3605303" lon="14.0672313"><ele>140.0</ele><time>2026-05-02T07:53:40.669Z</time></trkpt><trkpt lat="42.360467" lon="14.0671102"><ele>138.2</ele><time>2026-05-02T07:53:41.671Z</time></trkpt><trkpt lat="42.3604211" lon="14.06699"><ele>136.4</ele><time>2026-05-02T07:53:42.67Z</time></trkpt><trkpt lat="42.3603925" lon="14.0668637"><ele>134.6</ele><time>2026-05-02T07:53:43.67Z</time></trkpt><trkpt lat="42.3603728" lon="14.0667479"><ele>132.8</ele><time>2026-05-02T07:53:44.667Z</time></trkpt><trkpt lat="42.3603429" lon="14.0666588"><ele>131.0</ele><time>2026-05-02T07:53:47.668Z</time></trkpt><trkpt lat="42.360232" lon="14.066582"><ele>131.0</ele><time>2026-05-02T07:53:50.671Z</time></trkpt><trkpt lat="42.360119" lon="14.0665354"><ele>131.0</ele><time>2026-05-02T07:53:51.67Z</time></trkpt><trkpt lat="42.3600263" lon="14.0664727"><ele>131.0</ele><time>2026-05-02T07:53:52.671Z</time></trkpt><trkpt lat="42.3599384" lon="14.0663665"><ele>131.0</ele><time>2026-05-02T07:53:53.669Z</time></trkpt><trkpt lat="42.3598538" lon="14.0662345"><ele>131.0</ele><time>2026-05-02T07:53:54.67Z</time></trkpt><trkpt lat="42.3597724" lon="14.0660811"><ele>131.0</ele><time>2026-05-02T07:53:55.67Z</time></trkpt><trkpt lat="42.3596844" lon="14.0659324"><ele>131.0</ele><time>2026-05-02T07:53:56.67Z</time></trkpt><trkpt lat="42.3596066" lon="14.0657789"><ele>131.0</ele><time>2026-05-02T07:53:57.667Z</time></trkpt><trkpt lat="42.3595349" lon="14.065633"><ele>129.25</ele><time>2026-05-02T07:53:58.669Z</time></trkpt><trkpt lat="42.3594637" lon="14.0654945"><ele>127.5</ele><time>2026-05-02T07:53:59.67Z</time></trkpt><trkpt lat="42.3593853" lon="14.0653712"><ele>125.75</ele><time>2026-05-02T07:54:00.67Z</time></trkpt><trkpt lat="42.3593006" lon="14.0652629"><ele>124.0</ele><time>2026-05-02T07:54:01.669Z</time></trkpt><trkpt lat="42.3592098" lon="14.0651684"><ele>124.0</ele><time>2026-05-02T07:54:02.671Z</time></trkpt><trkpt lat="42.3591174" lon="14.0650814"><ele>124.0</ele><time>2026-05-02T07:54:03.67Z</time></trkpt><trkpt lat="42.3590331" lon="14.0649858"><ele>124.0</ele><time>2026-05-02T07:54:04.67Z</time></trkpt><trkpt lat="42.358961" lon="14.0648764"><ele>124.0</ele><time>2026-05-02T07:54:05.671Z</time></trkpt><trkpt lat="42.3588948" lon="14.0647629"><ele>124.0</ele><time>2026-05-02T07:54:06.671Z</time></trkpt><trkpt lat="42.3588285" lon="14.0646512"><ele>123.2</ele><time>2026-05-02T07:54:07.671Z</time></trkpt><trkpt lat="42.3587629" lon="14.0645391"><ele>122.4</ele><time>2026-05-02T07:54:08.67Z</time></trkpt><trkpt lat="42.3587016" lon="14.0644265"><ele>121.6</ele><time>2026-05-02T07:54:09.667Z</time></trkpt><trkpt lat="42.358638" lon="14.0643199"><ele>120.8</ele><time>2026-05-02T07:54:10.67Z</time></trkpt><trkpt lat="42.3585751" lon="14.0642144"><ele>120.0</ele><time>2026-05-02T07:54:11.67Z</time></trkpt><trkpt lat="42.358506" lon="14.064121"><ele>117.8</ele><time>2026-05-02T07:54:12.67Z</time></trkpt><trkpt lat="42.3584281" lon="14.0640457"><ele>115.6</ele><time>2026-05-02T07:54:13.67Z</time></trkpt><trkpt lat="42.3583284" lon="14.0639948"><ele>113.4</ele><time>2026-05-02T07:54:14.67Z</time></trkpt><trkpt lat="42.358217" lon="14.0639753"><ele>111.2</ele><time>2026-05-02T07:54:15.668Z</time></trkpt><trkpt lat="42.3581036" lon="14.0639825"><ele>109.0</ele><time>2026-05-02T07:54:16.671Z</time></trkpt><trkpt lat="42.3579935" lon="14.064003"><ele>108.0</ele><time>2026-05-02T07:54:17.67Z</time></trkpt><trkpt lat="42.3578885" lon="14.0640183"><ele>107.0</ele><time>2026-05-02T07:54:18.671Z</time></trkpt><trkpt lat="42.3577813" lon="14.0640074"><ele>106.0</ele><time>2026-05-02T07:54:19.665Z</time></trkpt><trkpt lat="42.3576737" lon="14.0639599"><ele>105.0</ele><time>2026-05-02T07:54:20.671Z</time></trkpt><trkpt lat="42.3575574" lon="14.0638784"><ele>105.0</ele><time>2026-05-02T07:54:21.667Z</time></trkpt><trkpt lat="42.357444" lon="14.0637979"><ele>105.0</ele><time>2026-05-02T07:54:22.67Z</time></trkpt><trkpt lat="42.3573254" lon="14.0637265"><ele>105.0</ele><time>2026-05-02T07:54:23.666Z</time></trkpt><trkpt lat="42.3572006" lon="14.0636723"><ele>105.0</ele><time>2026-05-02T07:54:24.671Z</time></trkpt><trkpt lat="42.3570761" lon="14.0636266"><ele>103.75</ele><time>2026-05-02T07:54:25.671Z</time></trkpt><trkpt lat="42.3569525" lon="14.0635864"><ele>102.5</ele><time>2026-05-02T07:54:26.667Z</time></trkpt><trkpt lat="42.3568278" lon="14.0635736"><ele>101.25</ele><time>2026-05-02T07:54:27.667Z</time></trkpt><trkpt lat="42.3567029" lon="14.0635789"><ele>100.0</ele><time>2026-05-02T07:54:28.668Z</time></trkpt><trkpt lat="42.3565807" lon="14.0636107"><ele>100.0</ele><time>2026-05-02T07:54:29.667Z</time></trkpt><trkpt lat="42.3564598" lon="14.0636553"><ele>100.0</ele><time>2026-05-02T07:54:30.666Z</time></trkpt><trkpt lat="42.3563428" lon="14.0637146"><ele>100.0</ele><time>2026-05-02T07:54:31.67Z</time></trkpt><trkpt lat="42.3562291" lon="14.0637828"><ele>100.0</ele><time>2026-05-02T07:54:32.671Z</time></trkpt><trkpt lat="42.356113" lon="14.0638437"><ele>98.4</ele><time>2026-05-02T07:54:33.67Z</time></trkpt><trkpt lat="42.3560178" lon="14.0638785"><ele>96.8</ele><time>2026-05-02T07:54:34.67Z</time></trkpt><trkpt lat="42.355933" lon="14.0638847"><ele>95.19999999999999</ele><time>2026-05-02T07:54:35.669Z</time></trkpt><trkpt lat="42.3558411" lon="14.0638548"><ele>93.6</ele><time>2026-05-02T07:54:36.667Z</time></trkpt><trkpt lat="42.3557589" lon="14.0637872"><ele>92.0</ele><time>2026-05-02T07:54:37.669Z</time></trkpt><trkpt lat="42.3556898" lon="14.0636887"><ele>92.0</ele><time>2026-05-02T07:54:38.668Z</time></trkpt><trkpt lat="42.3556341" lon="14.0635663"><ele>92.0</ele><time>2026-05-02T07:54:39.671Z</time></trkpt><trkpt lat="42.355591" lon="14.0634319"><ele>92.0</ele><time>2026-05-02T07:54:40.669Z</time></trkpt><trkpt lat="42.3555526" lon="14.0632906"><ele>92.0</ele><time>2026-05-02T07:54:41.671Z</time></trkpt><trkpt lat="42.355517" lon="14.0631492"><ele>92.0</ele><time>2026-05-02T07:54:42.668Z</time></trkpt><trkpt lat="42.3554791" lon="14.0630135"><ele>90.6</ele><time>2026-05-02T07:54:43.67Z</time></trkpt><trkpt lat="42.3554342" lon="14.0628858"><ele>89.19999999999999</ele><time>2026-05-02T07:54:44.669Z</time></trkpt><trkpt lat="42.3553817" lon="14.0627687"><ele>87.8</ele><time>2026-05-02T07:54:45.671Z</time></trkpt><trkpt lat="42.3553255" lon="14.0626606"><ele>86.4</ele><time>2026-05-02T07:54:46.67Z</time></trkpt><trkpt lat="42.3552598" lon="14.0625546"><ele>85.0</ele><time>2026-05-02T07:54:47.668Z</time></trkpt><trkpt lat="42.3551884" lon="14.062448"><ele>86.0</ele><time>2026-05-02T07:54:48.667Z</time></trkpt><trkpt lat="42.3551198" lon="14.0623393"><ele>87.0</ele><time>2026-05-02T07:54:49.668Z</time></trkpt><trkpt lat="42.3550507" lon="14.0622298"><ele>88.0</ele><time>2026-05-02T07:54:50.67Z</time></trkpt><trkpt lat="42.3549825" lon="14.0621207"><ele>89.0</ele><time>2026-05-02T07:54:51.67Z</time></trkpt><trkpt lat="42.3549127" lon="14.0620137"><ele>90.0</ele><time>2026-05-02T07:54:52.669Z</time></trkpt><trkpt lat="42.3548373" lon="14.0619028"><ele>90.0</ele><time>2026-05-02T07:54:53.67Z</time></trkpt><trkpt lat="42.3547631" lon="14.0617884"><ele>90.0</ele><time>2026-05-02T07:54:54.669Z</time></trkpt><trkpt lat="42.35469" lon="14.0616735"><ele>90.0</ele><time>2026-05-02T07:54:55.67Z</time></trkpt><trkpt lat="42.354621" lon="14.0615522"><ele>90.0</ele><time>2026-05-02T07:54:56.67Z</time></trkpt><trkpt lat="42.3545513" lon="14.061427"><ele>91.0</ele><time>2026-05-02T07:54:57.671Z</time></trkpt><trkpt lat="42.3544771" lon="14.0613006"><ele>92.0</ele><time>2026-05-02T07:54:58.671Z</time></trkpt><trkpt lat="42.3544021" lon="14.0611789"><ele>93.0</ele><time>2026-05-02T07:54:59.668Z</time></trkpt><trkpt lat="42.3543301" lon="14.0610556"><ele>94.0</ele><time>2026-05-02T07:55:00.668Z</time></trkpt><trkpt lat="42.3542567" lon="14.0609244"><ele>94.0</ele><time>2026-05-02T07:55:01.671Z</time></trkpt><trkpt lat="42.3541791" lon="14.0607923"><ele>94.0</ele><time>2026-05-02T07:55:02.67Z</time></trkpt><trkpt lat="42.3540994" lon="14.0606592"><ele>94.0</ele><time>2026-05-02T07:55:03.667Z</time></trkpt><trkpt lat="42.3540194" lon="14.0605266"><ele>94.0</ele><time>2026-05-02T07:55:04.671Z</time></trkpt><trkpt lat="42.3539405" lon="14.060392"><ele>94.0</ele><time>2026-05-02T07:55:05.668Z</time></trkpt><trkpt lat="42.3538607" lon="14.0602583"><ele>94.0</ele><time>2026-05-02T07:55:06.669Z</time></trkpt><trkpt lat="42.3537846" lon="14.0601229"><ele>94.0</ele><time>2026-05-02T07:55:07.666Z</time></trkpt><trkpt lat="42.3537063" lon="14.0599826"><ele>94.0</ele><time>2026-05-02T07:55:08.671Z</time></trkpt><trkpt lat="42.3536259" lon="14.0598377"><ele>94.0</ele><time>2026-05-02T07:55:09.669Z</time></trkpt><trkpt lat="42.3535615" lon="14.059683"><ele>94.0</ele><time>2026-05-02T07:55:10.67Z</time></trkpt><trkpt lat="42.3535143" lon="14.0595243"><ele>94.0</ele><time>2026-05-02T07:55:11.669Z</time></trkpt><trkpt lat="42.3534826" lon="14.0593554"><ele>94.0</ele><time>2026-05-02T07:55:12.67Z</time></trkpt><trkpt lat="42.3534552" lon="14.0591534"><ele>93.66666666666666</ele><time>2026-05-02T07:55:13.669Z</time></trkpt><trkpt lat="42.3534311" lon="14.0589284"><ele>93.33333333333333</ele><time>2026-05-02T07:55:14.668Z</time></trkpt><trkpt lat="42.3534086" lon="14.058684"><ele>93.0</ele><time>2026-05-02T07:55:15.67Z</time></trkpt><trkpt lat="42.3533843" lon="14.0584268"><ele>92.66666666666667</ele><time>2026-05-02T07:55:16.667Z</time></trkpt><trkpt lat="42.3533573" lon="14.0581665"><ele>92.33333333333334</ele><time>2026-05-02T07:55:17.671Z</time></trkpt><trkpt lat="42.3533287" lon="14.0578896"><ele>92.0</ele><time>2026-05-02T07:55:18.67Z</time></trkpt><trkpt lat="42.3532986" lon="14.0576052"><ele>91.33333333333334</ele><time>2026-05-02T07:55:19.668Z</time></trkpt><trkpt lat="42.3532703" lon="14.0573218"><ele>90.66666666666667</ele><time>2026-05-02T07:55:20.668Z</time></trkpt><trkpt lat="42.3532409" lon="14.0570453"><ele>90.0</ele><time>2026-05-02T07:55:21.67Z</time></trkpt><trkpt lat="42.3532113" lon="14.0567883"><ele>89.66666666666667</ele><time>2026-05-02T07:55:22.67Z</time></trkpt><trkpt lat="42.353184" lon="14.0565452"><ele>89.33333333333334</ele><time>2026-05-02T07:55:23.67Z</time></trkpt><trkpt lat="42.3531578" lon="14.056316"><ele>89.0</ele><time>2026-05-02T07:55:24.67Z</time></trkpt><trkpt lat="42.3531324" lon="14.0560987"><ele>89.0</ele><time>2026-05-02T07:55:25.67Z</time></trkpt><trkpt lat="42.3531108" lon="14.0558864"><ele>89.0</ele><time>2026-05-02T07:55:26.67Z</time></trkpt><trkpt lat="42.3530877" lon="14.0556603"><ele>89.0</ele><time>2026-05-02T07:55:27.669Z</time></trkpt><trkpt lat="42.3530668" lon="14.0554289"><ele>89.66666666666667</ele><time>2026-05-02T07:55:28.67Z</time></trkpt><trkpt lat="42.3530489" lon="14.0552082"><ele>90.33333333333333</ele><time>2026-05-02T07:55:29.67Z</time></trkpt><trkpt lat="42.353037" lon="14.0549962"><ele>91.0</ele><time>2026-05-02T07:55:30.67Z</time></trkpt><trkpt lat="42.3530383" lon="14.05478"><ele>92.0</ele><time>2026-05-02T07:55:31.671Z</time></trkpt><trkpt lat="42.3530556" lon="14.0545655"><ele>93.0</ele><time>2026-05-02T07:55:32.67Z</time></trkpt><trkpt lat="42.3530832" lon="14.0543535"><ele>94.0</ele><time>2026-05-02T07:55:33.67Z</time></trkpt><trkpt lat="42.3531166" lon="14.0541472"><ele>96.0</ele><time>2026-05-02T07:55:34.669Z</time></trkpt><trkpt lat="42.3531502" lon="14.0539456"><ele>98.0</ele><time>2026-05-02T07:55:35.669Z</time></trkpt><trkpt lat="42.3531783" lon="14.0537507"><ele>100.0</ele><time>2026-05-02T07:55:36.67Z</time></trkpt><trkpt lat="42.3531834" lon="14.0535666"><ele>102.0</ele><time>2026-05-02T07:55:37.67Z</time></trkpt><trkpt lat="42.3531571" lon="14.0533941"><ele>102.0</ele><time>2026-05-02T07:55:38.669Z</time></trkpt><trkpt lat="42.3531052" lon="14.0532296"><ele>102.0</ele><time>2026-05-02T07:55:39.67Z</time></trkpt><trkpt lat="42.3530335" lon="14.0530769"><ele>102.0</ele><time>2026-05-02T07:55:40.669Z</time></trkpt><trkpt lat="42.3529653" lon="14.0529257"><ele>102.0</ele><time>2026-05-02T07:55:41.67Z</time></trkpt><trkpt lat="42.3529187" lon="14.0527628"><ele>102.0</ele><time>2026-05-02T07:55:42.671Z</time></trkpt><trkpt lat="42.3528926" lon="14.0525849"><ele>102.0</ele><time>2026-05-02T07:55:43.671Z</time></trkpt><trkpt lat="42.3528897" lon="14.0524047"><ele>102.0</ele><time>2026-05-02T07:55:44.67Z</time></trkpt><trkpt lat="42.3529044" lon="14.0522201"><ele>102.0</ele><time>2026-05-02T07:55:45.67Z</time></trkpt><trkpt lat="42.3529449" lon="14.0520315"><ele>103.66666666666666</ele><time>2026-05-02T07:55:46.67Z</time></trkpt><trkpt lat="42.352998" lon="14.0518368"><ele>105.33333333333333</ele><time>2026-05-02T07:55:47.67Z</time></trkpt><trkpt lat="42.353046" lon="14.0516199"><ele>107.0</ele><time>2026-05-02T07:55:48.669Z</time></trkpt><trkpt lat="42.3530807" lon="14.0513641"><ele>108.33333333333333</ele><time>2026-05-02T07:55:49.67Z</time></trkpt><trkpt lat="42.3531055" lon="14.0510813"><ele>109.66666666666666</ele><time>2026-05-02T07:55:50.668Z</time></trkpt><trkpt lat="42.3531375" lon="14.0507999"><ele>111.0</ele><time>2026-05-02T07:55:51.67Z</time></trkpt><trkpt lat="42.3531824" lon="14.0505432"><ele>111.66666666666666</ele><time>2026-05-02T07:55:52.671Z</time></trkpt><trkpt lat="42.3532172" lon="14.050301"><ele>112.33333333333333</ele><time>2026-05-02T07:55:53.67Z</time></trkpt><trkpt lat="42.3532199" lon="14.0500613"><ele>113.0</ele><time>2026-05-02T07:55:54.671Z</time></trkpt><trkpt lat="42.3531979" lon="14.0498135"><ele>114.66666666666666</ele><time>2026-05-02T07:55:55.671Z</time></trkpt><trkpt lat="42.3531571" lon="14.0495699"><ele>116.33333333333334</ele><time>2026-05-02T07:55:56.669Z</time></trkpt><trkpt lat="42.3531231" lon="14.0493385"><ele>118.0</ele><time>2026-05-02T07:55:57.671Z</time></trkpt><trkpt lat="42.3531094" lon="14.0491058"><ele>118.33333333333334</ele><time>2026-05-02T07:55:58.669Z</time></trkpt><trkpt lat="42.3531049" lon="14.0488677"><ele>118.66666666666666</ele><time>2026-05-02T07:55:59.669Z</time></trkpt><trkpt lat="42.3530939" lon="14.0486475"><ele>119.0</ele><time>2026-05-02T07:56:00.669Z</time></trkpt><trkpt lat="42.3530577" lon="14.0484463"><ele>115.5</ele><time>2026-05-02T07:56:01.67Z</time></trkpt><trkpt lat="42.353009" lon="14.0482591"><ele>112.0</ele><time>2026-05-02T07:56:02.67Z</time></trkpt><trkpt lat="42.3529797" lon="14.0480821"><ele>108.5</ele><time>2026-05-02T07:56:03.669Z</time></trkpt><trkpt lat="42.3529835" lon="14.0479161"><ele>105.0</ele><time>2026-05-02T07:56:04.671Z</time></trkpt><trkpt lat="42.3530142" lon="14.0477625"><ele>108.5</ele><time>2026-05-02T07:56:05.669Z</time></trkpt><trkpt lat="42.3530756" lon="14.0476103"><ele>112.0</ele><time>2026-05-02T07:56:06.671Z</time></trkpt><trkpt lat="42.3531607" lon="14.0474518"><ele>115.5</ele><time>2026-05-02T07:56:07.671Z</time></trkpt><trkpt lat="42.3532496" lon="14.0472714"><ele>119.0</ele><time>2026-05-02T07:56:08.669Z</time></trkpt><trkpt lat="42.3533325" lon="14.0470613"><ele>119.0</ele><time>2026-05-02T07:56:09.671Z</time></trkpt><trkpt lat="42.3534082" lon="14.0468404"><ele>119.0</ele><time>2026-05-02T07:56:10.667Z</time></trkpt><trkpt lat="42.353477" lon="14.0466223"><ele>119.0</ele><time>2026-05-02T07:56:11.67Z</time></trkpt><trkpt lat="42.3535344" lon="14.0463928"><ele>119.33333333333333</ele><time>2026-05-02T07:56:12.669Z</time></trkpt><trkpt lat="42.3535779" lon="14.0461495"><ele>119.66666666666666</ele><time>2026-05-02T07:56:13.671Z</time></trkpt><trkpt lat="42.3536075" lon="14.0459088"><ele>120.0</ele><time>2026-05-02T07:56:14.67Z</time></trkpt><trkpt lat="42.3536289" lon="14.0456696"><ele>120.0</ele><time>2026-05-02T07:56:15.67Z</time></trkpt><trkpt lat="42.3536389" lon="14.0454444"><ele>120.0</ele><time>2026-05-02T07:56:16.667Z</time></trkpt><trkpt lat="42.3536408" lon="14.0452178"><ele>120.0</ele><time>2026-05-02T07:56:17.67Z</time></trkpt><trkpt lat="42.3536305" lon="14.0449932"><ele>121.66666666666666</ele><time>2026-05-02T07:56:18.671Z</time></trkpt><trkpt lat="42.3536166" lon="14.0447696"><ele>123.33333333333333</ele><time>2026-05-02T07:56:19.67Z</time></trkpt><trkpt lat="42.3536109" lon="14.0445494"><ele>125.0</ele><time>2026-05-02T07:56:20.668Z</time></trkpt><trkpt lat="42.3536262" lon="14.0443242"><ele>126.33333333333333</ele><time>2026-05-02T07:56:21.668Z</time></trkpt><trkpt lat="42.3536585" lon="14.044101"><ele>127.66666666666666</ele><time>2026-05-02T07:56:22.67Z</time></trkpt><trkpt lat="42.3537057" lon="14.0438762"><ele>129.0</ele><time>2026-05-02T07:56:23.67Z</time></trkpt><trkpt lat="42.3537651" lon="14.0436497"><ele>129.0</ele><time>2026-05-02T07:56:24.671Z</time></trkpt><trkpt lat="42.3538267" lon="14.043419"><ele>129.0</ele><time>2026-05-02T07:56:25.671Z</time></trkpt><trkpt lat="42.3538865" lon="14.0431802"><ele>129.0</ele><time>2026-05-02T07:56:26.67Z</time></trkpt><trkpt lat="42.3539367" lon="14.0429338"><ele>130.0</ele><time>2026-05-02T07:56:27.669Z</time></trkpt><trkpt lat="42.3539808" lon="14.04268"><ele>131.0</ele><time>2026-05-02T07:56:28.67Z</time></trkpt><trkpt lat="42.3540256" lon="14.0424159"><ele>132.0</ele><time>2026-05-02T07:56:29.67Z</time></trkpt><trkpt lat="42.3540729" lon="14.0421491"><ele>132.0</ele><time>2026-05-02T07:56:30.671Z</time></trkpt><trkpt lat="42.3541178" lon="14.0418903"><ele>132.0</ele><time>2026-05-02T07:56:31.671Z</time></trkpt><trkpt lat="42.3541616" lon="14.0416363"><ele>132.0</ele><time>2026-05-02T07:56:32.669Z</time></trkpt><trkpt lat="42.3542017" lon="14.0413862"><ele>133.0</ele><time>2026-05-02T07:56:33.669Z</time></trkpt><trkpt lat="42.3542393" lon="14.0411492"><ele>134.0</ele><time>2026-05-02T07:56:34.67Z</time></trkpt><trkpt lat="42.3542741" lon="14.0409244"><ele>135.0</ele><time>2026-05-02T07:56:35.669Z</time></trkpt><trkpt lat="42.3543069" lon="14.0407094"><ele>136.66666666666666</ele><time>2026-05-02T07:56:36.671Z</time></trkpt><trkpt lat="42.354339" lon="14.0405023"><ele>138.33333333333331</ele><time>2026-05-02T07:56:37.67Z</time></trkpt><trkpt lat="42.3543771" lon="14.0402891"><ele>140.0</ele><time>2026-05-02T07:56:38.671Z</time></trkpt><trkpt lat="42.3544158" lon="14.0400731"><ele>140.33333333333331</ele><time>2026-05-02T07:56:39.671Z</time></trkpt><trkpt lat="42.3544531" lon="14.0398516"><ele>140.66666666666666</ele><time>2026-05-02T07:56:40.67Z</time></trkpt><trkpt lat="42.3544903" lon="14.0396285"><ele>141.0</ele><time>2026-05-02T07:56:41.668Z</time></trkpt><trkpt lat="42.3545284" lon="14.0394007"><ele>141.0</ele><time>2026-05-02T07:56:42.671Z</time></trkpt><trkpt lat="42.3545658" lon="14.0391662"><ele>141.0</ele><time>2026-05-02T07:56:43.671Z</time></trkpt><trkpt lat="42.3546023" lon="14.0389245"><ele>141.0</ele><time>2026-05-02T07:56:44.67Z</time></trkpt><trkpt lat="42.354639" lon="14.0386783"><ele>140.0</ele><time>2026-05-02T07:56:45.668Z</time></trkpt><trkpt lat="42.3546785" lon="14.0384316"><ele>139.0</ele><time>2026-05-02T07:56:46.67Z</time></trkpt><trkpt lat="42.3547193" lon="14.0381847"><ele>138.0</ele><time>2026-05-02T07:56:47.67Z</time></trkpt><trkpt lat="42.3547605" lon="14.037938"><ele>136.33333333333334</ele><time>2026-05-02T07:56:48.67Z</time></trkpt><trkpt lat="42.3547979" lon="14.0376964"><ele>134.66666666666669</ele><time>2026-05-02T07:56:49.67Z</time></trkpt><trkpt lat="42.3548308" lon="14.0374645"><ele>133.0</ele><time>2026-05-02T07:56:50.669Z</time></trkpt><trkpt lat="42.3548599" lon="14.0372283"><ele>133.0</ele><time>2026-05-02T07:56:51.67Z</time></trkpt><trkpt lat="42.3548819" lon="14.0369861"><ele>133.0</ele><time>2026-05-02T07:56:52.671Z</time></trkpt><trkpt lat="42.3548906" lon="14.0367314"><ele>133.0</ele><time>2026-05-02T07:56:53.67Z</time></trkpt><trkpt lat="42.3548891" lon="14.0364586"><ele>133.5</ele><time>2026-05-02T07:56:54.67Z</time></trkpt><trkpt lat="42.3548811" lon="14.0361634"><ele>134.0</ele><time>2026-05-02T07:56:55.668Z</time></trkpt><trkpt lat="42.3548759" lon="14.0358489"><ele>135.5</ele><time>2026-05-02T07:56:56.667Z</time></trkpt><trkpt lat="42.3548839" lon="14.0355251"><ele>137.0</ele><time>2026-05-02T07:56:57.67Z</time></trkpt><trkpt lat="42.3548869" lon="14.0351957"><ele>137.5</ele><time>2026-05-02T07:56:58.669Z</time></trkpt><trkpt lat="42.3548829" lon="14.0348529"><ele>138.0</ele><time>2026-05-02T07:56:59.67Z</time></trkpt><trkpt lat="42.35488" lon="14.0345042"><ele>138.0</ele><time>2026-05-02T07:57:00.67Z</time></trkpt><trkpt lat="42.3548758" lon="14.0341537"><ele>138.0</ele><time>2026-05-02T07:57:01.67Z</time></trkpt><trkpt lat="42.3548717" lon="14.0338078"><ele>138.0</ele><time>2026-05-02T07:57:02.668Z</time></trkpt><trkpt lat="42.3548688" lon="14.0334686"><ele>138.0</ele><time>2026-05-02T07:57:03.671Z</time></trkpt><trkpt lat="42.3548656" lon="14.0331376"><ele>138.5</ele><time>2026-05-02T07:57:04.671Z</time></trkpt><trkpt lat="42.3548618" lon="14.0328104"><ele>139.0</ele><time>2026-05-02T07:57:05.67Z</time></trkpt><trkpt lat="42.3548572" lon="14.0324851"><ele>139.0</ele><time>2026-05-02T07:57:06.67Z</time></trkpt><trkpt lat="42.3548522" lon="14.032163"><ele>139.0</ele><time>2026-05-02T07:57:07.67Z</time></trkpt><trkpt lat="42.3548492" lon="14.0318415"><ele>139.0</ele><time>2026-05-02T07:57:08.668Z</time></trkpt><trkpt lat="42.3548475" lon="14.0315216"><ele>139.0</ele><time>2026-05-02T07:57:09.668Z</time></trkpt><trkpt lat="42.3548448" lon="14.0312025"><ele>139.0</ele><time>2026-05-02T07:57:10.668Z</time></trkpt><trkpt lat="42.3548408" lon="14.030886"><ele>139.0</ele><time>2026-05-02T07:57:11.67Z</time></trkpt><trkpt lat="42.3548356" lon="14.0305711"><ele>140.0</ele><time>2026-05-02T07:57:12.671Z</time></trkpt><trkpt lat="42.3548333" lon="14.0302594"><ele>141.0</ele><time>2026-05-02T07:57:13.67Z</time></trkpt><trkpt lat="42.3548321" lon="14.0299521"><ele>142.0</ele><time>2026-05-02T07:57:14.666Z</time></trkpt><trkpt lat="42.3548297" lon="14.02965"><ele>143.0</ele><time>2026-05-02T07:57:15.668Z</time></trkpt><trkpt lat="42.3548264" lon="14.0293558"><ele>144.0</ele><time>2026-05-02T07:57:16.671Z</time></trkpt><trkpt lat="42.3548213" lon="14.0290849"><ele>144.0</ele><time>2026-05-02T07:57:17.667Z</time></trkpt><trkpt lat="42.3548183" lon="14.0288302"><ele>144.0</ele><time>2026-05-02T07:57:18.671Z</time></trkpt><trkpt lat="42.3548159" lon="14.0285925"><ele>144.0</ele><time>2026-05-02T07:57:19.669Z</time></trkpt><trkpt lat="42.354813" lon="14.0283889"><ele>144.25</ele><time>2026-05-02T07:57:20.671Z</time></trkpt><trkpt lat="42.3548105" lon="14.0282083"><ele>144.5</ele><time>2026-05-02T07:57:21.668Z</time></trkpt><trkpt lat="42.3548081" lon="14.0280467"><ele>144.75</ele><time>2026-05-02T07:57:22.668Z</time></trkpt><trkpt lat="42.3548073" lon="14.0278964"><ele>145.0</ele><time>2026-05-02T07:57:23.67Z</time></trkpt><trkpt lat="42.354808" lon="14.0277774"><ele>145.0</ele><time>2026-05-02T07:57:24.666Z</time></trkpt><trkpt lat="42.3548093" lon="14.0276582"><ele>145.0</ele><time>2026-05-02T07:57:25.669Z</time></trkpt><trkpt lat="42.3548099" lon="14.0275551"><ele>145.0</ele><time>2026-05-02T07:57:26.67Z</time></trkpt><trkpt lat="42.3548099" lon="14.0274595"><ele>145.0</ele><time>2026-05-02T07:57:27.671Z</time></trkpt><trkpt lat="42.3548112" lon="14.0273117"><ele>145.0</ele><time>2026-05-02T07:57:29.667Z</time></trkpt><trkpt lat="42.3548116" lon="14.0271854"><ele>145.0</ele><time>2026-05-02T07:57:32.669Z</time></trkpt><trkpt lat="42.3548065" lon="14.0269945"><ele>145.5</ele><time>2026-05-02T07:57:34.67Z</time></trkpt><trkpt lat="42.3548007" lon="14.0268242"><ele>146.0</ele><time>2026-05-02T07:57:35.666Z</time></trkpt><trkpt lat="42.3547981" lon="14.0266233"><ele>146.5</ele><time>2026-05-02T07:57:36.671Z</time></trkpt><trkpt lat="42.3547964" lon="14.0264026"><ele>147.0</ele><time>2026-05-02T07:57:37.67Z</time></trkpt><trkpt lat="42.3547947" lon="14.0261511"><ele>147.0</ele><time>2026-05-02T07:57:38.67Z</time></trkpt><trkpt lat="42.3547935" lon="14.0258789"><ele>147.0</ele><time>2026-05-02T07:57:39.668Z</time></trkpt><trkpt lat="42.3547919" lon="14.0255905"><ele>147.0</ele><time>2026-05-02T07:57:40.668Z</time></trkpt><trkpt lat="42.3547942" lon="14.0252996"><ele>147.66666666666666</ele><time>2026-05-02T07:57:41.669Z</time></trkpt><trkpt lat="42.3547997" lon="14.0250099"><ele>148.33333333333331</ele><time>2026-05-02T07:57:42.671Z</time></trkpt><trkpt lat="42.354811" lon="14.0247327"><ele>149.0</ele><time>2026-05-02T07:57:43.669Z</time></trkpt><trkpt lat="42.3548284" lon="14.0244771"><ele>149.25</ele><time>2026-05-02T07:57:44.67Z</time></trkpt><trkpt lat="42.3548483" lon="14.0242441"><ele>149.5</ele><time>2026-05-02T07:57:45.668Z</time></trkpt><trkpt lat="42.3548635" lon="14.0240442"><ele>149.75</ele><time>2026-05-02T07:57:46.669Z</time></trkpt><trkpt lat="42.354875" lon="14.0238937"><ele>150.0</ele><time>2026-05-02T07:57:47.669Z</time></trkpt><trkpt lat="42.3548857" lon="14.0237888"><ele>150.33333333333334</ele><time>2026-05-02T07:57:48.671Z</time></trkpt><trkpt lat="42.3548941" lon="14.0236843"><ele>150.66666666666666</ele><time>2026-05-02T07:57:50.671Z</time></trkpt><trkpt lat="42.354828" lon="14.0236264"><ele>151.0</ele><time>2026-05-02T07:57:55.668Z</time></trkpt><trkpt lat="42.3547355" lon="14.0236727"><ele>151.33333333333331</ele><time>2026-05-02T07:57:57.67Z</time></trkpt><trkpt lat="42.3546835" lon="14.0237288"><ele>151.66666666666666</ele><time>2026-05-02T07:57:58.671Z</time></trkpt><trkpt lat="42.354624" lon="14.0237978"><ele>152.0</ele><time>2026-05-02T07:57:59.67Z</time></trkpt><trkpt lat="42.3545558" lon="14.0238809"><ele>152.4</ele><time>2026-05-02T07:58:00.669Z</time></trkpt><trkpt lat="42.3544813" lon="14.0239708"><ele>152.79999999999998</ele><time>2026-05-02T07:58:01.67Z</time></trkpt><trkpt lat="42.3544089" lon="14.0240562"><ele>153.2</ele><time>2026-05-02T07:58:02.669Z</time></trkpt><trkpt lat="42.3543424" lon="14.0241341"><ele>153.6</ele><time>2026-05-02T07:58:03.67Z</time></trkpt><trkpt lat="42.3542761" lon="14.0242116"><ele>154.0</ele><time>2026-05-02T07:58:04.667Z</time></trkpt><trkpt lat="42.3542127" lon="14.0242818"><ele>154.0</ele><time>2026-05-02T07:58:05.671Z</time></trkpt><trkpt lat="42.3541568" lon="14.0243483"><ele>154.0</ele><time>2026-05-02T07:58:06.671Z</time></trkpt><trkpt lat="42.3541092" lon="14.024408"><ele>154.0</ele><time>2026-05-02T07:58:07.669Z</time></trkpt><trkpt lat="42.3540346" lon="14.0245082"><ele>154.0</ele><time>2026-05-02T07:58:09.668Z</time></trkpt><trkpt lat="42.353941" lon="14.024592"><ele>154.0</ele><time>2026-05-02T07:58:11.671Z</time></trkpt><trkpt lat="42.3538782" lon="14.0246285"><ele>154.0</ele><time>2026-05-02T07:58:13.67Z</time></trkpt><trkpt lat="42.3539475" lon="14.0245819"><ele>154.0</ele><time>2026-05-02T07:58:22.671Z</time></trkpt><trkpt lat="42.3540503" lon="14.0244818"><ele>154.0</ele><time>2026-05-02T07:58:24.667Z</time></trkpt><trkpt lat="42.3541077" lon="14.024409"><ele>154.0</ele><time>2026-05-02T07:58:26.669Z</time></trkpt><trkpt lat="42.3540504" lon="14.0243139"><ele>154.0</ele><time>2026-05-02T07:58:30.671Z</time></trkpt><trkpt lat="42.3539286" lon="14.0242305"><ele>154.0</ele><time>2026-05-02T07:58:32.67Z</time></trkpt><trkpt lat="42.3538588" lon="14.0241792"><ele>154.66666666666669</ele><time>2026-05-02T07:58:33.67Z</time></trkpt><trkpt lat="42.3537886" lon="14.0241382"><ele>155.33333333333334</ele><time>2026-05-02T07:58:34.67Z</time></trkpt><trkpt lat="42.3537193" lon="14.0241096"><ele>156.0</ele><time>2026-05-02T07:58:35.667Z</time></trkpt><trkpt lat="42.3536423" lon="14.0240901"><ele>156.66666666666666</ele><time>2026-05-02T07:58:36.665Z</time></trkpt><trkpt lat="42.3535608" lon="14.024074"><ele>157.33333333333331</ele><time>2026-05-02T07:58:37.67Z</time></trkpt><trkpt lat="42.3534684" lon="14.02407"><ele>158.0</ele><time>2026-05-02T07:58:38.667Z</time></trkpt><trkpt lat="42.3533727" lon="14.0240564"><ele>158.0</ele><time>2026-05-02T07:58:39.668Z</time></trkpt><trkpt lat="42.353272" lon="14.0240413"><ele>158.0</ele><time>2026-05-02T07:58:40.669Z</time></trkpt><trkpt lat="42.3531677" lon="14.0240211"><ele>158.0</ele><time>2026-05-02T07:58:41.667Z</time></trkpt><trkpt lat="42.3530629" lon="14.024"><ele>158.0</ele><time>2026-05-02T07:58:42.667Z</time></trkpt><trkpt lat="42.3529554" lon="14.0239809"><ele>158.0</ele><time>2026-05-02T07:58:43.67Z</time></trkpt><trkpt lat="42.3528463" lon="14.0239631"><ele>159.60000000000002</ele><time>2026-05-02T07:58:44.669Z</time></trkpt><trkpt lat="42.352739" lon="14.0239434"><ele>161.20000000000002</ele><time>2026-05-02T07:58:45.671Z</time></trkpt><trkpt lat="42.3526407" lon="14.0239233"><ele>162.8</ele><time>2026-05-02T07:58:46.669Z</time></trkpt><trkpt lat="42.3525574" lon="14.0239062"><ele>164.4</ele><time>2026-05-02T07:58:47.669Z</time></trkpt><trkpt lat="42.3524696" lon="14.0238958"><ele>166.0</ele><time>2026-05-02T07:58:48.67Z</time></trkpt><trkpt lat="42.352392" lon="14.0238844"><ele>166.0</ele><time>2026-05-02T07:58:49.666Z</time></trkpt><trkpt lat="42.3523133" lon="14.0238692"><ele>166.0</ele><time>2026-05-02T07:58:50.671Z</time></trkpt><trkpt lat="42.3522331" lon="14.0238658"><ele>166.0</ele><time>2026-05-02T07:58:51.666Z</time></trkpt><trkpt lat="42.3521456" lon="14.0238704"><ele>166.0</ele><time>2026-05-02T07:58:52.668Z</time></trkpt><trkpt lat="42.3520531" lon="14.0238941"><ele>166.0</ele><time>2026-05-02T07:58:53.666Z</time></trkpt><trkpt lat="42.3519534" lon="14.023924"><ele>166.0</ele><time>2026-05-02T07:58:54.671Z</time></trkpt><trkpt lat="42.3518487" lon="14.0239629"><ele>167.16666666666669</ele><time>2026-05-02T07:58:55.667Z</time></trkpt><trkpt lat="42.351753" lon="14.0239976"><ele>168.33333333333334</ele><time>2026-05-02T07:58:56.67Z</time></trkpt><trkpt lat="42.3516688" lon="14.0240306"><ele>169.5</ele><time>2026-05-02T07:58:57.67Z</time></trkpt><trkpt lat="42.3515957" lon="14.0240562"><ele>170.66666666666666</ele><time>2026-05-02T07:58:58.671Z</time></trkpt><trkpt lat="42.3515251" lon="14.0240621"><ele>171.83333333333331</ele><time>2026-05-02T07:58:59.67Z</time></trkpt><trkpt lat="42.3514585" lon="14.0240486"><ele>173.0</ele><time>2026-05-02T07:59:00.67Z</time></trkpt><trkpt lat="42.351395" lon="14.024033"><ele>174.60000000000002</ele><time>2026-05-02T07:59:01.668Z</time></trkpt><trkpt lat="42.3512968" lon="14.0239596"><ele>176.20000000000002</ele><time>2026-05-02T07:59:03.67Z</time></trkpt><trkpt lat="42.3512318" lon="14.0238014"><ele>177.8</ele><time>2026-05-02T07:59:05.671Z</time></trkpt><trkpt lat="42.3511984" lon="14.0237066"><ele>179.4</ele><time>2026-05-02T07:59:06.667Z</time></trkpt><trkpt lat="42.3511656" lon="14.023596"><ele>181.0</ele><time>2026-05-02T07:59:07.669Z</time></trkpt><trkpt lat="42.3511258" lon="14.0234829"><ele>181.0</ele><time>2026-05-02T07:59:08.666Z</time></trkpt><trkpt lat="42.3510843" lon="14.0233761"><ele>181.0</ele><time>2026-05-02T07:59:09.669Z</time></trkpt><trkpt lat="42.3510335" lon="14.0232781"><ele>181.0</ele><time>2026-05-02T07:59:10.67Z</time></trkpt><trkpt lat="42.3509788" lon="14.0231983"><ele>181.0</ele><time>2026-05-02T07:59:11.669Z</time></trkpt><trkpt lat="42.3509163" lon="14.0231191"><ele>181.0</ele><time>2026-05-02T07:59:12.669Z</time></trkpt><trkpt lat="42.3508468" lon="14.0230488"><ele>181.0</ele><time>2026-05-02T07:59:13.666Z</time></trkpt><trkpt lat="42.3507821" lon="14.0229604"><ele>181.83333333333334</ele><time>2026-05-02T07:59:14.671Z</time></trkpt><trkpt lat="42.3507307" lon="14.0228661"><ele>182.66666666666669</ele><time>2026-05-02T07:59:15.67Z</time></trkpt><trkpt lat="42.3506709" lon="14.0227741"><ele>183.5</ele><time>2026-05-02T07:59:16.668Z</time></trkpt><trkpt lat="42.3506097" lon="14.022686"><ele>184.33333333333334</ele><time>2026-05-02T07:59:17.669Z</time></trkpt><trkpt lat="42.3505511" lon="14.0225966"><ele>185.16666666666666</ele><time>2026-05-02T07:59:18.669Z</time></trkpt><trkpt lat="42.3504903" lon="14.0225075"><ele>186.0</ele><time>2026-05-02T07:59:19.67Z</time></trkpt><trkpt lat="42.3504325" lon="14.022421"><ele>186.8</ele><time>2026-05-02T07:59:20.671Z</time></trkpt><trkpt lat="42.3503777" lon="14.0223488"><ele>187.60000000000002</ele><time>2026-05-02T07:59:21.668Z</time></trkpt><trkpt lat="42.350324" lon="14.0222921"><ele>188.4</ele><time>2026-05-02T07:59:22.67Z</time></trkpt><trkpt lat="42.3502094" lon="14.0222432"><ele>189.2</ele><time>2026-05-02T07:59:24.67Z</time></trkpt><trkpt lat="42.350091" lon="14.0222946"><ele>190.0</ele><time>2026-05-02T07:59:26.67Z</time></trkpt><trkpt lat="42.3500204" lon="14.0223598"><ele>190.0</ele><time>2026-05-02T07:59:27.668Z</time></trkpt><trkpt lat="42.3499371" lon="14.0224358"><ele>190.0</ele><time>2026-05-02T07:59:28.67Z</time></trkpt><trkpt lat="42.3498484" lon="14.0225158"><ele>190.0</ele><time>2026-05-02T07:59:29.666Z</time></trkpt><trkpt lat="42.3497517" lon="14.0226056"><ele>190.0</ele><time>2026-05-02T07:59:30.67Z</time></trkpt><trkpt lat="42.3496447" lon="14.0227013"><ele>190.0</ele><time>2026-05-02T07:59:31.669Z</time></trkpt><trkpt lat="42.3495392" lon="14.0227979"><ele>190.0</ele><time>2026-05-02T07:59:32.668Z</time></trkpt><trkpt lat="42.3494361" lon="14.0228933"><ele>190.0</ele><time>2026-05-02T07:59:33.671Z</time></trkpt><trkpt lat="42.3493325" lon="14.0229906"><ele>190.0</ele><time>2026-05-02T07:59:34.667Z</time></trkpt><trkpt lat="42.3492366" lon="14.0230865"><ele>190.0</ele><time>2026-05-02T07:59:35.67Z</time></trkpt><trkpt lat="42.3491505" lon="14.0231703"><ele>190.0</ele><time>2026-05-02T07:59:36.666Z</time></trkpt><trkpt lat="42.349073" lon="14.0232434"><ele>190.0</ele><time>2026-05-02T07:59:37.67Z</time></trkpt><trkpt lat="42.3490081" lon="14.0233003"><ele>190.0</ele><time>2026-05-02T07:59:38.67Z</time></trkpt><trkpt lat="42.3489129" lon="14.0233313"><ele>190.0</ele><time>2026-05-02T07:59:40.667Z</time></trkpt><trkpt lat="42.3488113" lon="14.0232482"><ele>190.83333333333334</ele><time>2026-05-02T07:59:42.67Z</time></trkpt><trkpt lat="42.348751" lon="14.0231559"><ele>191.66666666666669</ele><time>2026-05-02T07:59:43.671Z</time></trkpt><trkpt lat="42.3487064" lon="14.0230481"><ele>192.5</ele><time>2026-05-02T07:59:44.669Z</time></trkpt><trkpt lat="42.3486623" lon="14.0229533"><ele>193.33333333333334</ele><time>2026-05-02T07:59:45.669Z</time></trkpt><trkpt lat="42.3486202" lon="14.0228626"><ele>194.16666666666666</ele><time>2026-05-02T07:59:46.67Z</time></trkpt><trkpt lat="42.3485722" lon="14.0227528"><ele>195.0</ele><time>2026-05-02T07:59:47.667Z</time></trkpt><trkpt lat="42.348511" lon="14.0226133"><ele>195.0</ele><time>2026-05-02T07:59:48.669Z</time></trkpt><trkpt lat="42.3484234" lon="14.0224503"><ele>195.0</ele><time>2026-05-02T07:59:49.67Z</time></trkpt><trkpt lat="42.348311" lon="14.0222759"><ele>195.0</ele><time>2026-05-02T07:59:50.67Z</time></trkpt><trkpt lat="42.3481789" lon="14.022086"><ele>195.33333333333331</ele><time>2026-05-02T07:59:51.667Z</time></trkpt><trkpt lat="42.348041" lon="14.0218892"><ele>195.66666666666666</ele><time>2026-05-02T07:59:52.67Z</time></trkpt><trkpt lat="42.3478973" lon="14.021687"><ele>196.0</ele><time>2026-05-02T07:59:53.669Z</time></trkpt><trkpt lat="42.347752" lon="14.0214891"><ele>196.0</ele><time>2026-05-02T07:59:54.67Z</time></trkpt><trkpt lat="42.3476126" lon="14.0212985"><ele>196.0</ele><time>2026-05-02T07:59:55.669Z</time></trkpt><trkpt lat="42.347483" lon="14.0211196"><ele>196.0</ele><time>2026-05-02T07:59:56.668Z</time></trkpt><trkpt lat="42.34736" lon="14.0209398"><ele>196.66666666666666</ele><time>2026-05-02T07:59:57.67Z</time></trkpt><trkpt lat="42.3472431" lon="14.0207446"><ele>197.33333333333331</ele><time>2026-05-02T07:59:58.67Z</time></trkpt><trkpt lat="42.3471392" lon="14.0205466"><ele>198.0</ele><time>2026-05-02T07:59:59.667Z</time></trkpt><trkpt lat="42.3470413" lon="14.0203603"><ele>198.0</ele><time>2026-05-02T08:00:00.67Z</time></trkpt><trkpt lat="42.3469418" lon="14.0201776"><ele>198.0</ele><time>2026-05-02T08:00:01.671Z</time></trkpt><trkpt lat="42.3468415" lon="14.0199936"><ele>198.0</ele><time>2026-05-02T08:00:02.671Z</time></trkpt><trkpt lat="42.3467472" lon="14.0198032"><ele>197.66666666666669</ele><time>2026-05-02T08:00:03.67Z</time></trkpt><trkpt lat="42.3466599" lon="14.0196093"><ele>197.33333333333334</ele><time>2026-05-02T08:00:04.669Z</time></trkpt><trkpt lat="42.3465736" lon="14.0194125"><ele>197.0</ele><time>2026-05-02T08:00:05.67Z</time></trkpt><trkpt lat="42.3464897" lon="14.0192237"><ele>197.5</ele><time>2026-05-02T08:00:06.67Z</time></trkpt><trkpt lat="42.3464129" lon="14.0190544"><ele>198.0</ele><time>2026-05-02T08:00:07.668Z</time></trkpt><trkpt lat="42.3463371" lon="14.0188861"><ele>198.5</ele><time>2026-05-02T08:00:08.668Z</time></trkpt><trkpt lat="42.3462583" lon="14.0187038"><ele>199.0</ele><time>2026-05-02T08:00:09.669Z</time></trkpt><trkpt lat="42.3461753" lon="14.0185221"><ele>199.66666666666666</ele><time>2026-05-02T08:00:10.67Z</time></trkpt><trkpt lat="42.3460898" lon="14.0183458"><ele>200.33333333333331</ele><time>2026-05-02T08:00:11.668Z</time></trkpt><trkpt lat="42.3459988" lon="14.0181703"><ele>201.0</ele><time>2026-05-02T08:00:12.667Z</time></trkpt><trkpt lat="42.3459044" lon="14.0179945"><ele>201.66666666666669</ele><time>2026-05-02T08:00:13.67Z</time></trkpt><trkpt lat="42.3458117" lon="14.0178175"><ele>202.33333333333334</ele><time>2026-05-02T08:00:14.668Z</time></trkpt><trkpt lat="42.3457191" lon="14.0176396"><ele>203.0</ele><time>2026-05-02T08:00:15.668Z</time></trkpt><trkpt lat="42.3456209" lon="14.0174676"><ele>203.66666666666669</ele><time>2026-05-02T08:00:16.669Z</time></trkpt><trkpt lat="42.3455246" lon="14.0173018"><ele>204.33333333333331</ele><time>2026-05-02T08:00:17.67Z</time></trkpt><trkpt lat="42.3454296" lon="14.0171341"><ele>205.0</ele><time>2026-05-02T08:00:18.667Z</time></trkpt><trkpt lat="42.3453402" lon="14.0169665"><ele>205.0</ele><time>2026-05-02T08:00:19.668Z</time></trkpt><trkpt lat="42.3452731" lon="14.0168053"><ele>205.0</ele><time>2026-05-02T08:00:20.668Z</time></trkpt><trkpt lat="42.3452039" lon="14.0166491"><ele>205.0</ele><time>2026-05-02T08:00:21.668Z</time></trkpt><trkpt lat="42.345141" lon="14.0164978"><ele>205.0</ele><time>2026-05-02T08:00:22.671Z</time></trkpt><trkpt lat="42.3450857" lon="14.0163409"><ele>205.33333333333331</ele><time>2026-05-02T08:00:23.67Z</time></trkpt><trkpt lat="42.3450706" lon="14.0162309"><ele>205.66666666666666</ele><time>2026-05-02T08:00:24.671Z</time></trkpt><trkpt lat="42.3450161" lon="14.0161337"><ele>206.0</ele><time>2026-05-02T08:00:26.669Z</time></trkpt><trkpt lat="42.3449239" lon="14.0161552"><ele>206.33333333333331</ele><time>2026-05-02T08:00:28.67Z</time></trkpt><trkpt lat="42.3448482" lon="14.0161752"><ele>206.66666666666666</ele><time>2026-05-02T08:00:29.671Z</time></trkpt><trkpt lat="42.3447483" lon="14.0161916"><ele>207.0</ele><time>2026-05-02T08:00:30.67Z</time></trkpt><trkpt lat="42.3446356" lon="14.0162165"><ele>207.0</ele><time>2026-05-02T08:00:31.669Z</time></trkpt><trkpt lat="42.344517" lon="14.0162441"><ele>207.0</ele><time>2026-05-02T08:00:32.668Z</time></trkpt><trkpt lat="42.3444008" lon="14.0162739"><ele>207.0</ele><time>2026-05-02T08:00:33.667Z</time></trkpt><trkpt lat="42.3442901" lon="14.0162938"><ele>207.0</ele><time>2026-05-02T08:00:34.668Z</time></trkpt><trkpt lat="42.3441839" lon="14.0163128"><ele>207.0</ele><time>2026-05-02T08:00:35.67Z</time></trkpt><trkpt lat="42.3440827" lon="14.0163341"><ele>207.0</ele><time>2026-05-02T08:00:36.669Z</time></trkpt><trkpt lat="42.3439863" lon="14.0163563"><ele>207.0</ele><time>2026-05-02T08:00:37.67Z</time></trkpt><trkpt lat="42.3438946" lon="14.0163672"><ele>207.0</ele><time>2026-05-02T08:00:38.67Z</time></trkpt><trkpt lat="42.3438003" lon="14.016356"><ele>207.0</ele><time>2026-05-02T08:00:39.666Z</time></trkpt><trkpt lat="42.3437068" lon="14.0163409"><ele>206.39999999999998</ele><time>2026-05-02T08:00:40.67Z</time></trkpt><trkpt lat="42.343612" lon="14.0163252"><ele>205.79999999999998</ele><time>2026-05-02T08:00:41.67Z</time></trkpt><trkpt lat="42.3435188" lon="14.0163001"><ele>205.2</ele><time>2026-05-02T08:00:42.668Z</time></trkpt><trkpt lat="42.3434234" lon="14.01627"><ele>204.6</ele><time>2026-05-02T08:00:43.671Z</time></trkpt><trkpt lat="42.3433225" lon="14.0162403"><ele>204.0</ele><time>2026-05-02T08:00:44.668Z</time></trkpt><trkpt lat="42.3432174" lon="14.0162069"><ele>204.0</ele><time>2026-05-02T08:00:45.666Z</time></trkpt><trkpt lat="42.3431114" lon="14.0161694"><ele>204.0</ele><time>2026-05-02T08:00:46.67Z</time></trkpt><trkpt lat="42.3430086" lon="14.0161341"><ele>204.0</ele><time>2026-05-02T08:00:47.666Z</time></trkpt><trkpt lat="42.3429194" lon="14.0161009"><ele>204.0</ele><time>2026-05-02T08:00:48.668Z</time></trkpt><trkpt lat="42.342848" lon="14.0160858"><ele>204.0</ele><time>2026-05-02T08:00:49.669Z</time></trkpt><trkpt lat="42.3427819" lon="14.0161068"><ele>204.0</ele><time>2026-05-02T08:00:50.668Z</time></trkpt><trkpt lat="42.3427272" lon="14.0161738"><ele>201.79999999999998</ele><time>2026-05-02T08:00:51.67Z</time></trkpt><trkpt lat="42.3426823" lon="14.016283"><ele>199.6</ele><time>2026-05-02T08:00:52.668Z</time></trkpt><trkpt lat="42.3426405" lon="14.0164182"><ele>197.4</ele><time>2026-05-02T08:00:53.667Z</time></trkpt><trkpt lat="42.3425994" lon="14.0165434"><ele>195.2</ele><time>2026-05-02T08:00:54.67Z</time></trkpt><trkpt lat="42.3425628" lon="14.0166599"><ele>193.0</ele><time>2026-05-02T08:00:55.669Z</time></trkpt><trkpt lat="42.3425372" lon="14.0167637"><ele>192.66666666666666</ele><time>2026-05-02T08:00:56.671Z</time></trkpt><trkpt lat="42.3425211" lon="14.016854"><ele>192.33333333333331</ele><time>2026-05-02T08:00:57.669Z</time></trkpt><trkpt lat="42.3424994" lon="14.0169523"><ele>192.0</ele><time>2026-05-02T08:00:59.665Z</time></trkpt><trkpt lat="42.342428" lon="14.0170052"><ele>191.66666666666666</ele><time>2026-05-02T08:01:01.665Z</time></trkpt><trkpt lat="42.342353" lon="14.0170456"><ele>191.33333333333331</ele><time>2026-05-02T08:01:03.667Z</time></trkpt><trkpt lat="42.3422857" lon="14.017081"><ele>191.0</ele><time>2026-05-02T08:01:06.668Z</time></trkpt><trkpt lat="42.3422213" lon="14.0170373"><ele>189.16666666666666</ele><time>2026-05-02T08:01:09.67Z</time></trkpt><trkpt lat="42.3421646" lon="14.0169954"><ele>187.33333333333331</ele><time>2026-05-02T08:01:10.67Z</time></trkpt><trkpt lat="42.3420955" lon="14.0169405"><ele>185.5</ele><time>2026-05-02T08:01:11.668Z</time></trkpt><trkpt lat="42.3420157" lon="14.0168758"><ele>183.66666666666666</ele><time>2026-05-02T08:01:12.667Z</time></trkpt><trkpt lat="42.3419318" lon="14.0168097"><ele>181.83333333333334</ele><time>2026-05-02T08:01:13.67Z</time></trkpt><trkpt lat="42.3418441" lon="14.0167439"><ele>180.0</ele><time>2026-05-02T08:01:14.671Z</time></trkpt><trkpt lat="42.3417532" lon="14.0166753"><ele>179.6</ele><time>2026-05-02T08:01:15.667Z</time></trkpt><trkpt lat="42.3416638" lon="14.0166062"><ele>179.2</ele><time>2026-05-02T08:01:16.669Z</time></trkpt><trkpt lat="42.3415724" lon="14.0165345"><ele>178.8</ele><time>2026-05-02T08:01:17.666Z</time></trkpt><trkpt lat="42.3414787" lon="14.0164614"><ele>178.4</ele><time>2026-05-02T08:01:18.668Z</time></trkpt><trkpt lat="42.3413865" lon="14.0163884"><ele>178.0</ele><time>2026-05-02T08:01:19.671Z</time></trkpt><trkpt lat="42.3412993" lon="14.0163217"><ele>177.5</ele><time>2026-05-02T08:01:20.669Z</time></trkpt><trkpt lat="42.3412166" lon="14.0162588"><ele>177.0</ele><time>2026-05-02T08:01:21.671Z</time></trkpt><trkpt lat="42.3411384" lon="14.0161949"><ele>176.5</ele><time>2026-05-02T08:01:22.67Z</time></trkpt><trkpt lat="42.3410732" lon="14.0161263"><ele>176.0</ele><time>2026-05-02T08:01:23.669Z</time></trkpt><trkpt lat="42.3410113" lon="14.0160468"><ele>175.5</ele><time>2026-05-02T08:01:24.667Z</time></trkpt><trkpt lat="42.3409531" lon="14.0159728"><ele>175.0</ele><time>2026-05-02T08:01:25.669Z</time></trkpt><trkpt lat="42.3409013" lon="14.0158991"><ele>175.0</ele><time>2026-05-02T08:01:26.669Z</time></trkpt><trkpt lat="42.340854" lon="14.0158293"><ele>175.0</ele><time>2026-05-02T08:01:27.667Z</time></trkpt><trkpt lat="42.3408103" lon="14.0157537"><ele>175.0</ele><time>2026-05-02T08:01:28.669Z</time></trkpt><trkpt lat="42.3407666" lon="14.0156733"><ele>175.0</ele><time>2026-05-02T08:01:29.67Z</time></trkpt><trkpt lat="42.3407289" lon="14.0155883"><ele>175.0</ele><time>2026-05-02T08:01:30.665Z</time></trkpt><trkpt lat="42.3406953" lon="14.0155007"><ele>175.0</ele><time>2026-05-02T08:01:31.668Z</time></trkpt><trkpt lat="42.3406661" lon="14.0154194"><ele>175.0</ele><time>2026-05-02T08:01:32.668Z</time></trkpt><trkpt lat="42.340609" lon="14.0152807"><ele>176.8</ele><time>2026-05-02T08:01:34.668Z</time></trkpt><trkpt lat="42.3405282" lon="14.015199"><ele>178.6</ele><time>2026-05-02T08:01:36.67Z</time></trkpt><trkpt lat="42.3404072" lon="14.0151927"><ele>180.39999999999998</ele><time>2026-05-02T08:01:38.668Z</time></trkpt><trkpt lat="42.3403257" lon="14.0152355"><ele>182.2</ele><time>2026-05-02T08:01:39.671Z</time></trkpt><trkpt lat="42.3402511" lon="14.0152861"><ele>184.0</ele><time>2026-05-02T08:01:40.667Z</time></trkpt><trkpt lat="42.3401751" lon="14.0153441"><ele>184.0</ele><time>2026-05-02T08:01:41.667Z</time></trkpt><trkpt lat="42.3401058" lon="14.0153903"><ele>184.0</ele><time>2026-05-02T08:01:42.67Z</time></trkpt><trkpt lat="42.3400364" lon="14.0154295"><ele>184.0</ele><time>2026-05-02T08:01:43.67Z</time></trkpt><trkpt lat="42.3399764" lon="14.0154825"><ele>184.0</ele><time>2026-05-02T08:01:44.665Z</time></trkpt><trkpt lat="42.3399214" lon="14.0155325"><ele>184.0</ele><time>2026-05-02T08:01:45.665Z</time></trkpt><trkpt lat="42.3398214" lon="14.0156175"><ele>184.0</ele><time>2026-05-02T08:01:47.669Z</time></trkpt><trkpt lat="42.3397071" lon="14.0156471"><ele>183.0</ele><time>2026-05-02T08:01:49.671Z</time></trkpt><trkpt lat="42.3396431" lon="14.0156309"><ele>182.0</ele><time>2026-05-02T08:01:50.67Z</time></trkpt><trkpt lat="42.3395776" lon="14.0156039"><ele>181.0</ele><time>2026-05-02T08:01:51.665Z</time></trkpt><trkpt lat="42.3395135" lon="14.0155569"><ele>180.0</ele><time>2026-05-02T08:01:52.669Z</time></trkpt><trkpt lat="42.3393929" lon="14.0154841"><ele>179.0</ele><time>2026-05-02T08:01:54.665Z</time></trkpt><trkpt lat="42.3393059" lon="14.0153865"><ele>179.0</ele><time>2026-05-02T08:01:56.665Z</time></trkpt><trkpt lat="42.3392468" lon="14.0152144"><ele>179.0</ele><time>2026-05-02T08:01:58.666Z</time></trkpt><trkpt lat="42.339218" lon="14.0151166"><ele>179.0</ele><time>2026-05-02T08:01:59.666Z</time></trkpt><trkpt lat="42.3391827" lon="14.0150185"><ele>179.0</ele><time>2026-05-02T08:02:00.669Z</time></trkpt><trkpt lat="42.3391411" lon="14.0149207"><ele>179.0</ele><time>2026-05-02T08:02:01.67Z</time></trkpt><trkpt lat="42.3390967" lon="14.0148169"><ele>178.39999999999998</ele><time>2026-05-02T08:02:02.671Z</time></trkpt><trkpt lat="42.3390561" lon="14.0147103"><ele>177.8</ele><time>2026-05-02T08:02:03.67Z</time></trkpt><trkpt lat="42.3390137" lon="14.0146029"><ele>177.2</ele><time>2026-05-02T08:02:04.668Z</time></trkpt><trkpt lat="42.3389694" lon="14.014495"><ele>176.60000000000002</ele><time>2026-05-02T08:02:05.67Z</time></trkpt><trkpt lat="42.3389205" lon="14.0143686"><ele>176.0</ele><time>2026-05-02T08:02:06.67Z</time></trkpt><trkpt lat="42.3388739" lon="14.0142493"><ele>177.60000000000002</ele><time>2026-05-02T08:02:07.671Z</time></trkpt><trkpt lat="42.3388212" lon="14.0141258"><ele>179.2</ele><time>2026-05-02T08:02:08.67Z</time></trkpt><trkpt lat="42.3387694" lon="14.0140041"><ele>180.8</ele><time>2026-05-02T08:02:09.67Z</time></trkpt><trkpt lat="42.3387259" lon="14.0138762"><ele>182.39999999999998</ele><time>2026-05-02T08:02:10.67Z</time></trkpt><trkpt lat="42.3386785" lon="14.0137435"><ele>184.0</ele><time>2026-05-02T08:02:11.667Z</time></trkpt><trkpt lat="42.3386286" lon="14.0136068"><ele>184.0</ele><time>2026-05-02T08:02:12.666Z</time></trkpt><trkpt lat="42.3385883" lon="14.0134906"><ele>184.0</ele><time>2026-05-02T08:02:13.671Z</time></trkpt><trkpt lat="42.3385485" lon="14.0133735"><ele>184.0</ele><time>2026-05-02T08:02:14.666Z</time></trkpt><trkpt lat="42.3385032" lon="14.0132359"><ele>184.0</ele><time>2026-05-02T08:02:15.665Z</time></trkpt><trkpt lat="42.3384539" lon="14.0130867"><ele>184.0</ele><time>2026-05-02T08:02:16.67Z</time></trkpt><trkpt lat="42.3384164" lon="14.0129734"><ele>185.16666666666669</ele><time>2026-05-02T08:02:17.667Z</time></trkpt><trkpt lat="42.3383866" lon="14.0128872"><ele>186.33333333333334</ele><time>2026-05-02T08:02:18.671Z</time></trkpt><trkpt lat="42.3383666" lon="14.0127851"><ele>187.5</ele><time>2026-05-02T08:02:20.669Z</time></trkpt><trkpt lat="42.3384075" lon="14.0127152"><ele>188.66666666666666</ele><time>2026-05-02T08:02:23.671Z</time></trkpt><trkpt lat="42.3384909" lon="14.0126479"><ele>189.83333333333331</ele><time>2026-05-02T08:02:25.671Z</time></trkpt><trkpt lat="42.3385524" lon="14.0126076"><ele>191.0</ele><time>2026-05-02T08:02:26.666Z</time></trkpt><trkpt lat="42.3386696" lon="14.0125418"><ele>191.0</ele><time>2026-05-02T08:02:28.671Z</time></trkpt><trkpt lat="42.3387282" lon="14.0125046"><ele>191.0</ele><time>2026-05-02T08:02:29.67Z</time></trkpt><trkpt lat="42.3387893" lon="14.0124603"><ele>191.0</ele><time>2026-05-02T08:02:30.666Z</time></trkpt><trkpt lat="42.3388762" lon="14.0123902"><ele>191.0</ele><time>2026-05-02T08:02:32.669Z</time></trkpt><trkpt lat="42.3388244" lon="14.0123285"><ele>191.0</ele><time>2026-05-02T08:02:36.668Z</time></trkpt><trkpt lat="42.3387566" lon="14.0123292"><ele>191.0</ele><time>2026-05-02T08:02:37.671Z</time></trkpt><trkpt lat="42.3386714" lon="14.0123013"><ele>192.4</ele><time>2026-05-02T08:02:38.668Z</time></trkpt><trkpt lat="42.3385772" lon="14.0122457"><ele>193.8</ele><time>2026-05-02T08:02:39.67Z</time></trkpt><trkpt lat="42.3384781" lon="14.0121831"><ele>195.20000000000002</ele><time>2026-05-02T08:02:40.669Z</time></trkpt><trkpt lat="42.3383702" lon="14.0121345"><ele>196.60000000000002</ele><time>2026-05-02T08:02:41.669Z</time></trkpt><trkpt lat="42.3382659" lon="14.012097"><ele>198.0</ele><time>2026-05-02T08:02:42.67Z</time></trkpt><trkpt lat="42.3381703" lon="14.0120635"><ele>198.0</ele><time>2026-05-02T08:02:43.669Z</time></trkpt><trkpt lat="42.3380687" lon="14.0120222"><ele>198.0</ele><time>2026-05-02T08:02:44.67Z</time></trkpt><trkpt lat="42.3379504" lon="14.0119617"><ele>198.0</ele><time>2026-05-02T08:02:45.666Z</time></trkpt><trkpt lat="42.3378246" lon="14.0118905"><ele>198.0</ele><time>2026-05-02T08:02:46.668Z</time></trkpt><trkpt lat="42.3377062" lon="14.0118103"><ele>197.25</ele><time>2026-05-02T08:02:47.67Z</time></trkpt><trkpt lat="42.3375964" lon="14.0117185"><ele>196.5</ele><time>2026-05-02T08:02:48.669Z</time></trkpt><trkpt lat="42.3374977" lon="14.0116178"><ele>195.75</ele><time>2026-05-02T08:02:49.668Z</time></trkpt><trkpt lat="42.3374026" lon="14.0115013"><ele>195.0</ele><time>2026-05-02T08:02:50.669Z</time></trkpt><trkpt lat="42.3373152" lon="14.0113607"><ele>195.0</ele><time>2026-05-02T08:02:51.671Z</time></trkpt><trkpt lat="42.3372383" lon="14.0112146"><ele>195.0</ele><time>2026-05-02T08:02:52.671Z</time></trkpt><trkpt lat="42.3371712" lon="14.0110853"><ele>195.0</ele><time>2026-05-02T08:02:53.67Z</time></trkpt><trkpt lat="42.3371261" lon="14.0110029"><ele>195.0</ele><time>2026-05-02T08:02:54.671Z</time></trkpt><trkpt lat="42.3370674" lon="14.0109342"><ele>195.0</ele><time>2026-05-02T08:02:56.669Z</time></trkpt><trkpt lat="42.3369513" lon="14.0109332"><ele>191.5</ele><time>2026-05-02T08:02:58.671Z</time></trkpt><trkpt lat="42.3368432" lon="14.0109503"><ele>188.0</ele><time>2026-05-02T08:02:59.671Z</time></trkpt><trkpt lat="42.3367139" lon="14.0110045"><ele>184.5</ele><time>2026-05-02T08:03:00.669Z</time></trkpt><trkpt lat="42.3365948" lon="14.0110717"><ele>181.0</ele><time>2026-05-02T08:03:01.67Z</time></trkpt><trkpt lat="42.3365029" lon="14.011135"><ele>181.0</ele><time>2026-05-02T08:03:02.67Z</time></trkpt><trkpt lat="42.3364218" lon="14.0112158"><ele>181.0</ele><time>2026-05-02T08:03:03.668Z</time></trkpt><trkpt lat="42.336343" lon="14.0113364"><ele>181.0</ele><time>2026-05-02T08:03:04.666Z</time></trkpt><trkpt lat="42.3362769" lon="14.0114944"><ele>181.0</ele><time>2026-05-02T08:03:05.668Z</time></trkpt><trkpt lat="42.3362121" lon="14.0116833"><ele>184.25</ele><time>2026-05-02T08:03:06.665Z</time></trkpt><trkpt lat="42.3361418" lon="14.0118738"><ele>187.5</ele><time>2026-05-02T08:03:07.671Z</time></trkpt><trkpt lat="42.3360756" lon="14.0120522"><ele>190.75</ele><time>2026-05-02T08:03:08.67Z</time></trkpt><trkpt lat="42.3360326" lon="14.0122352"><ele>194.0</ele><time>2026-05-02T08:03:09.67Z</time></trkpt><trkpt lat="42.3360171" lon="14.0124275"><ele>195.66666666666669</ele><time>2026-05-02T08:03:10.671Z</time></trkpt><trkpt lat="42.3360219" lon="14.0126242"><ele>197.33333333333331</ele><time>2026-05-02T08:03:11.667Z</time></trkpt><trkpt lat="42.3360344" lon="14.0128293"><ele>199.0</ele><time>2026-05-02T08:03:12.666Z</time></trkpt><trkpt lat="42.3360394" lon="14.01304"><ele>199.0</ele><time>2026-05-02T08:03:13.665Z</time></trkpt><trkpt lat="42.3360459" lon="14.0132527"><ele>199.0</ele><time>2026-05-02T08:03:14.664Z</time></trkpt><trkpt lat="42.3360549" lon="14.0134637"><ele>199.0</ele><time>2026-05-02T08:03:15.667Z</time></trkpt><trkpt lat="42.3360604" lon="14.0136747"><ele>200.0</ele><time>2026-05-02T08:03:16.669Z</time></trkpt><trkpt lat="42.3360634" lon="14.0138726"><ele>201.0</ele><time>2026-05-02T08:03:17.666Z</time></trkpt><trkpt lat="42.3360696" lon="14.0140438"><ele>202.0</ele><time>2026-05-02T08:03:18.67Z</time></trkpt><trkpt lat="42.3360732" lon="14.0141982"><ele>203.0</ele><time>2026-05-02T08:03:19.67Z</time></trkpt><trkpt lat="42.3360677" lon="14.0143535"><ele>203.2</ele><time>2026-05-02T08:03:20.67Z</time></trkpt><trkpt lat="42.3360642" lon="14.0145083"><ele>203.4</ele><time>2026-05-02T08:03:21.67Z</time></trkpt><trkpt lat="42.3360802" lon="14.0146524"><ele>203.6</ele><time>2026-05-02T08:03:22.668Z</time></trkpt><trkpt lat="42.3361197" lon="14.0147867"><ele>203.79999999999998</ele><time>2026-05-02T08:03:23.667Z</time></trkpt><trkpt lat="42.3361683" lon="14.0149"><ele>204.0</ele><time>2026-05-02T08:03:24.667Z</time></trkpt><trkpt lat="42.3361948" lon="14.0149998"><ele>204.0</ele><time>2026-05-02T08:03:25.671Z</time></trkpt><trkpt lat="42.3361836" lon="14.0150877"><ele>204.0</ele><time>2026-05-02T08:03:26.67Z</time></trkpt><trkpt lat="42.3361029" lon="14.015146"><ele>204.0</ele><time>2026-05-02T08:03:28.67Z</time></trkpt><trkpt lat="42.3359842" lon="14.0150892"><ele>204.0</ele><time>2026-05-02T08:03:30.666Z</time></trkpt><trkpt lat="42.3359054" lon="14.0150179"><ele>204.0</ele><time>2026-05-02T08:03:31.665Z</time></trkpt><trkpt lat="42.3358318" lon="14.0149512"><ele>204.0</ele><time>2026-05-02T08:03:32.671Z</time></trkpt><trkpt lat="42.3357819" lon="14.0148932"><ele>204.0</ele><time>2026-05-02T08:03:33.669Z</time></trkpt><trkpt lat="42.3357361" lon="14.0148057"><ele>204.0</ele><time>2026-05-02T08:03:34.668Z</time></trkpt><trkpt lat="42.3356908" lon="14.0146805"><ele>204.0</ele><time>2026-05-02T08:03:35.667Z</time></trkpt><trkpt lat="42.3356685" lon="14.0145797"><ele>204.0</ele><time>2026-05-02T08:03:36.667Z</time></trkpt><trkpt lat="42.3356403" lon="14.0144763"><ele>204.0</ele><time>2026-05-02T08:03:39.666Z</time></trkpt><trkpt lat="42.3355725" lon="14.0144802"><ele>204.75</ele><time>2026-05-02T08:03:41.668Z</time></trkpt><trkpt lat="42.335452" lon="14.014559"><ele>205.5</ele><time>2026-05-02T08:03:43.668Z</time></trkpt><trkpt lat="42.3353444" lon="14.0145814"><ele>206.25</ele><time>2026-05-02T08:03:44.67Z</time></trkpt><trkpt lat="42.3351892" lon="14.0145741"><ele>207.0</ele><time>2026-05-02T08:03:45.669Z</time></trkpt><trkpt lat="42.3350095" lon="14.0145447"><ele>207.0</ele><time>2026-05-02T08:03:46.67Z</time></trkpt><trkpt lat="42.3348288" lon="14.0145127"><ele>207.0</ele><time>2026-05-02T08:03:47.668Z</time></trkpt><trkpt lat="42.3346548" lon="14.0144898"><ele>207.0</ele><time>2026-05-02T08:03:48.671Z</time></trkpt><trkpt lat="42.3344761" lon="14.0144666"><ele>204.66666666666669</ele><time>2026-05-02T08:03:49.668Z</time></trkpt><trkpt lat="42.3342958" lon="14.0144475"><ele>202.33333333333334</ele><time>2026-05-02T08:03:50.666Z</time></trkpt><trkpt lat="42.3341274" lon="14.0144271"><ele>200.0</ele><time>2026-05-02T08:03:51.67Z</time></trkpt><trkpt lat="42.3339616" lon="14.0144058"><ele>198.66666666666669</ele><time>2026-05-02T08:03:52.67Z</time></trkpt><trkpt lat="42.3338039" lon="14.0143856"><ele>197.33333333333331</ele><time>2026-05-02T08:03:53.669Z</time></trkpt><trkpt lat="42.3336531" lon="14.0143633"><ele>196.0</ele><time>2026-05-02T08:03:54.667Z</time></trkpt><trkpt lat="42.3335069" lon="14.0143364"><ele>196.0</ele><time>2026-05-02T08:03:55.668Z</time></trkpt><trkpt lat="42.3333656" lon="14.0143111"><ele>196.0</ele><time>2026-05-02T08:03:56.669Z</time></trkpt><trkpt lat="42.3332297" lon="14.0142938"><ele>196.0</ele><time>2026-05-02T08:03:57.666Z</time></trkpt><trkpt lat="42.3331053" lon="14.0142852"><ele>196.0</ele><time>2026-05-02T08:03:58.667Z</time></trkpt><trkpt lat="42.3329889" lon="14.0142845"><ele>195.25</ele><time>2026-05-02T08:03:59.669Z</time></trkpt><trkpt lat="42.3328739" lon="14.014282"><ele>194.5</ele><time>2026-05-02T08:04:00.668Z</time></trkpt><trkpt lat="42.3327601" lon="14.0142568"><ele>193.75</ele><time>2026-05-02T08:04:01.666Z</time></trkpt><trkpt lat="42.3326361" lon="14.0142228"><ele>193.0</ele><time>2026-05-02T08:04:02.671Z</time></trkpt><trkpt lat="42.3324996" lon="14.0141992"><ele>193.0</ele><time>2026-05-02T08:04:03.668Z</time></trkpt><trkpt lat="42.3323617" lon="14.0141875"><ele>193.0</ele><time>2026-05-02T08:04:04.669Z</time></trkpt><trkpt lat="42.332221" lon="14.0141916"><ele>193.0</ele><time>2026-05-02T08:04:05.668Z</time></trkpt><trkpt lat="42.3320732" lon="14.0142222"><ele>193.0</ele><time>2026-05-02T08:04:06.67Z</time></trkpt><trkpt lat="42.3319163" lon="14.0142869"><ele>190.0</ele><time>2026-05-02T08:04:07.668Z</time></trkpt><trkpt lat="42.3317481" lon="14.0143865"><ele>187.0</ele><time>2026-05-02T08:04:08.67Z</time></trkpt><trkpt lat="42.3315818" lon="14.014506"><ele>184.0</ele><time>2026-05-02T08:04:09.666Z</time></trkpt><trkpt lat="42.3314226" lon="14.0146262"><ele>180.66666666666669</ele><time>2026-05-02T08:04:10.671Z</time></trkpt><trkpt lat="42.3312678" lon="14.0147436"><ele>177.33333333333334</ele><time>2026-05-02T08:04:11.669Z</time></trkpt><trkpt lat="42.3311238" lon="14.0148462"><ele>174.0</ele><time>2026-05-02T08:04:12.669Z</time></trkpt><trkpt lat="42.3309976" lon="14.0149269"><ele>174.0</ele><time>2026-05-02T08:04:13.67Z</time></trkpt><trkpt lat="42.330868" lon="14.0149865"><ele>174.0</ele><time>2026-05-02T08:04:14.669Z</time></trkpt><trkpt lat="42.3307346" lon="14.0150084"><ele>174.0</ele><time>2026-05-02T08:04:15.668Z</time></trkpt><trkpt lat="42.3306024" lon="14.0149986"><ele>174.0</ele><time>2026-05-02T08:04:16.665Z</time></trkpt><trkpt lat="42.3304728" lon="14.0149601"><ele>173.0</ele><time>2026-05-02T08:04:17.671Z</time></trkpt><trkpt lat="42.3303522" lon="14.014885"><ele>172.0</ele><time>2026-05-02T08:04:18.671Z</time></trkpt><trkpt lat="42.330234" lon="14.0147686"><ele>171.0</ele><time>2026-05-02T08:04:19.666Z</time></trkpt><trkpt lat="42.330114" lon="14.0146096"><ele>170.0</ele><time>2026-05-02T08:04:20.671Z</time></trkpt><trkpt lat="42.3299906" lon="14.0144302"><ele>170.0</ele><time>2026-05-02T08:04:21.668Z</time></trkpt><trkpt lat="42.3298605" lon="14.0142491"><ele>170.0</ele><time>2026-05-02T08:04:22.671Z</time></trkpt><trkpt lat="42.329727" lon="14.0140585"><ele>170.0</ele><time>2026-05-02T08:04:23.667Z</time></trkpt><trkpt lat="42.3295987" lon="14.0138676"><ele>167.66666666666666</ele><time>2026-05-02T08:04:24.667Z</time></trkpt><trkpt lat="42.3294771" lon="14.0136805"><ele>165.33333333333334</ele><time>2026-05-02T08:04:25.667Z</time></trkpt><trkpt lat="42.329361" lon="14.013496"><ele>163.0</ele><time>2026-05-02T08:04:26.669Z</time></trkpt><trkpt lat="42.3292538" lon="14.0133129"><ele>161.33333333333334</ele><time>2026-05-02T08:04:27.671Z</time></trkpt><trkpt lat="42.3291545" lon="14.0131288"><ele>159.66666666666666</ele><time>2026-05-02T08:04:28.666Z</time></trkpt><trkpt lat="42.3290579" lon="14.0129493"><ele>158.0</ele><time>2026-05-02T08:04:29.667Z</time></trkpt><trkpt lat="42.3289632" lon="14.0127827"><ele>158.0</ele><time>2026-05-02T08:04:30.671Z</time></trkpt><trkpt lat="42.3288655" lon="14.0126348"><ele>158.0</ele><time>2026-05-02T08:04:31.668Z</time></trkpt><trkpt lat="42.3287558" lon="14.012504"><ele>158.0</ele><time>2026-05-02T08:04:32.669Z</time></trkpt><trkpt lat="42.328631" lon="14.0123977"><ele>158.0</ele><time>2026-05-02T08:04:33.668Z</time></trkpt><trkpt lat="42.3284834" lon="14.0123082"><ele>158.0</ele><time>2026-05-02T08:04:34.668Z</time></trkpt><trkpt lat="42.3283209" lon="14.0122345"><ele>158.0</ele><time>2026-05-02T08:04:35.667Z</time></trkpt><trkpt lat="42.3281466" lon="14.0121654"><ele>158.0</ele><time>2026-05-02T08:04:36.667Z</time></trkpt><trkpt lat="42.3279715" lon="14.0120914"><ele>156.66666666666666</ele><time>2026-05-02T08:04:37.671Z</time></trkpt><trkpt lat="42.3278026" lon="14.0120193"><ele>155.33333333333334</ele><time>2026-05-02T08:04:38.669Z</time></trkpt><trkpt lat="42.3276358" lon="14.0119517"><ele>154.0</ele><time>2026-05-02T08:04:39.669Z</time></trkpt><trkpt lat="42.3274738" lon="14.0118852"><ele>154.0</ele><time>2026-05-02T08:04:40.669Z</time></trkpt><trkpt lat="42.3273124" lon="14.0118271"><ele>154.0</ele><time>2026-05-02T08:04:41.667Z</time></trkpt><trkpt lat="42.3271548" lon="14.0117812"><ele>154.0</ele><time>2026-05-02T08:04:42.669Z</time></trkpt><trkpt lat="42.3270223" lon="14.0117398"><ele>153.0</ele><time>2026-05-02T08:04:43.67Z</time></trkpt><trkpt lat="42.3269125" lon="14.0116806"><ele>152.0</ele><time>2026-05-02T08:04:44.665Z</time></trkpt><trkpt lat="42.3268211" lon="14.0115948"><ele>151.0</ele><time>2026-05-02T08:04:45.67Z</time></trkpt><trkpt lat="42.3267497" lon="14.0114859"><ele>150.0</ele><time>2026-05-02T08:04:46.67Z</time></trkpt><trkpt lat="42.3266826" lon="14.0113422"><ele>150.0</ele><time>2026-05-02T08:04:47.669Z</time></trkpt><trkpt lat="42.3266162" lon="14.0111635"><ele>150.0</ele><time>2026-05-02T08:04:48.668Z</time></trkpt><trkpt lat="42.326549" lon="14.0109597"><ele>150.0</ele><time>2026-05-02T08:04:49.67Z</time></trkpt><trkpt lat="42.3264752" lon="14.0107362"><ele>149.66666666666666</ele><time>2026-05-02T08:04:50.666Z</time></trkpt><trkpt lat="42.3263972" lon="14.0105046"><ele>149.33333333333331</ele><time>2026-05-02T08:04:51.669Z</time></trkpt><trkpt lat="42.3263182" lon="14.0102661"><ele>149.0</ele><time>2026-05-02T08:04:52.669Z</time></trkpt><trkpt lat="42.3262366" lon="14.0100203"><ele>147.66666666666666</ele><time>2026-05-02T08:04:53.67Z</time></trkpt><trkpt lat="42.3261545" lon="14.0097688"><ele>146.33333333333334</ele><time>2026-05-02T08:04:54.671Z</time></trkpt><trkpt lat="42.3260695" lon="14.0095154"><ele>145.0</ele><time>2026-05-02T08:04:55.666Z</time></trkpt><trkpt lat="42.3259845" lon="14.009259"><ele>144.33333333333334</ele><time>2026-05-02T08:04:56.67Z</time></trkpt><trkpt lat="42.3258995" lon="14.0090057"><ele>143.66666666666666</ele><time>2026-05-02T08:04:57.668Z</time></trkpt><trkpt lat="42.3258175" lon="14.0087552"><ele>143.0</ele><time>2026-05-02T08:04:58.664Z</time></trkpt><trkpt lat="42.3257347" lon="14.0085041"><ele>141.66666666666666</ele><time>2026-05-02T08:04:59.669Z</time></trkpt><trkpt lat="42.3256444" lon="14.0082571"><ele>140.33333333333334</ele><time>2026-05-02T08:05:00.67Z</time></trkpt><trkpt lat="42.325543" lon="14.0080143"><ele>139.0</ele><time>2026-05-02T08:05:01.667Z</time></trkpt><trkpt lat="42.325433" lon="14.0077748"><ele>139.0</ele><time>2026-05-02T08:05:02.67Z</time></trkpt><trkpt lat="42.3253203" lon="14.0075332"><ele>139.0</ele><time>2026-05-02T08:05:03.67Z</time></trkpt><trkpt lat="42.3252145" lon="14.0072818"><ele>139.0</ele><time>2026-05-02T08:05:04.67Z</time></trkpt><trkpt lat="42.3251253" lon="14.0070158"><ele>137.5</ele><time>2026-05-02T08:05:05.669Z</time></trkpt><trkpt lat="42.325044" lon="14.0067303"><ele>136.0</ele><time>2026-05-02T08:05:06.67Z</time></trkpt><trkpt lat="42.3249691" lon="14.006436"><ele>135.5</ele><time>2026-05-02T08:05:07.67Z</time></trkpt><trkpt lat="42.3248979" lon="14.0061348"><ele>135.0</ele><time>2026-05-02T08:05:08.667Z</time></trkpt><trkpt lat="42.3248269" lon="14.005832"><ele>132.5</ele><time>2026-05-02T08:05:09.671Z</time></trkpt><trkpt lat="42.3247554" lon="14.0055319"><ele>130.0</ele><time>2026-05-02T08:05:10.671Z</time></trkpt><trkpt lat="42.3246771" lon="14.005239"><ele>132.5</ele><time>2026-05-02T08:05:11.669Z</time></trkpt><trkpt lat="42.3245898" lon="14.0049498"><ele>135.0</ele><time>2026-05-02T08:05:12.667Z</time></trkpt><trkpt lat="42.3244937" lon="14.0046645"><ele>135.0</ele><time>2026-05-02T08:05:13.669Z</time></trkpt><trkpt lat="42.3243917" lon="14.0043826"><ele>135.0</ele><time>2026-05-02T08:05:14.671Z</time></trkpt><trkpt lat="42.3242855" lon="14.0041022"><ele>137.0</ele><time>2026-05-02T08:05:15.667Z</time></trkpt><trkpt lat="42.3241768" lon="14.0038191"><ele>139.0</ele><time>2026-05-02T08:05:16.669Z</time></trkpt><trkpt lat="42.3240685" lon="14.0035341"><ele>137.5</ele><time>2026-05-02T08:05:17.671Z</time></trkpt><trkpt lat="42.3239623" lon="14.0032455"><ele>136.0</ele><time>2026-05-02T08:05:18.67Z</time></trkpt><trkpt lat="42.3238574" lon="14.0029547"><ele>136.0</ele><time>2026-05-02T08:05:19.67Z</time></trkpt><trkpt lat="42.3237519" lon="14.0026644"><ele>136.0</ele><time>2026-05-02T08:05:20.668Z</time></trkpt><trkpt lat="42.3236485" lon="14.0023732"><ele>137.0</ele><time>2026-05-02T08:05:21.668Z</time></trkpt><trkpt lat="42.3235485" lon="14.0020808"><ele>138.0</ele><time>2026-05-02T08:05:22.67Z</time></trkpt><trkpt lat="42.3234507" lon="14.0017944"><ele>138.66666666666666</ele><time>2026-05-02T08:05:23.67Z</time></trkpt><trkpt lat="42.3233594" lon="14.0015254"><ele>139.33333333333331</ele><time>2026-05-02T08:05:24.67Z</time></trkpt><trkpt lat="42.3232714" lon="14.0012681"><ele>140.0</ele><time>2026-05-02T08:05:25.667Z</time></trkpt><trkpt lat="42.3231829" lon="14.00101"><ele>141.66666666666666</ele><time>2026-05-02T08:05:26.671Z</time></trkpt><trkpt lat="42.3230964" lon="14.0007529"><ele>143.33333333333334</ele><time>2026-05-02T08:05:27.666Z</time></trkpt><trkpt lat="42.3230129" lon="14.0004959"><ele>145.0</ele><time>2026-05-02T08:05:28.67Z</time></trkpt><trkpt lat="42.3229295" lon="14.0002404"><ele>141.66666666666669</ele><time>2026-05-02T08:05:29.67Z</time></trkpt><trkpt lat="42.3228449" lon="13.999985"><ele>138.33333333333334</ele><time>2026-05-02T08:05:30.667Z</time></trkpt><trkpt lat="42.3227576" lon="13.9997289"><ele>135.0</ele><time>2026-05-02T08:05:31.668Z</time></trkpt><trkpt lat="42.3226723" lon="13.9994701"><ele>135.0</ele><time>2026-05-02T08:05:32.668Z</time></trkpt><trkpt lat="42.3225892" lon="13.9992054"><ele>135.0</ele><time>2026-05-02T08:05:33.668Z</time></trkpt><trkpt lat="42.3225056" lon="13.9989372"><ele>135.0</ele><time>2026-05-02T08:05:34.668Z</time></trkpt><trkpt lat="42.3224182" lon="13.9986666"><ele>136.33333333333334</ele><time>2026-05-02T08:05:35.668Z</time></trkpt><trkpt lat="42.3223291" lon="13.9983922"><ele>137.66666666666669</ele><time>2026-05-02T08:05:36.668Z</time></trkpt><trkpt lat="42.3222426" lon="13.9981127"><ele>139.0</ele><time>2026-05-02T08:05:37.671Z</time></trkpt><trkpt lat="42.3221575" lon="13.9978296"><ele>136.5</ele><time>2026-05-02T08:05:38.67Z</time></trkpt><trkpt lat="42.3220707" lon="13.9975418"><ele>134.0</ele><time>2026-05-02T08:05:39.669Z</time></trkpt><trkpt lat="42.3219812" lon="13.9972501"><ele>134.0</ele><time>2026-05-02T08:05:40.669Z</time></trkpt><trkpt lat="42.321888" lon="13.996952"><ele>134.0</ele><time>2026-05-02T08:05:41.669Z</time></trkpt><trkpt lat="42.3217937" lon="13.996648"><ele>133.5</ele><time>2026-05-02T08:05:42.667Z</time></trkpt><trkpt lat="42.3216958" lon="13.9963386"><ele>133.0</ele><time>2026-05-02T08:05:43.669Z</time></trkpt><trkpt lat="42.3215919" lon="13.9960278"><ele>133.5</ele><time>2026-05-02T08:05:44.67Z</time></trkpt><trkpt lat="42.3214839" lon="13.9957112"><ele>134.0</ele><time>2026-05-02T08:05:45.667Z</time></trkpt><trkpt lat="42.3213751" lon="13.9953954"><ele>133.5</ele><time>2026-05-02T08:05:46.67Z</time></trkpt><trkpt lat="42.3212703" lon="13.9950969"><ele>133.0</ele><time>2026-05-02T08:05:47.668Z</time></trkpt><trkpt lat="42.3211707" lon="13.9948196"><ele>133.0</ele><time>2026-05-02T08:05:48.67Z</time></trkpt><trkpt lat="42.3210819" lon="13.9945772"><ele>133.0</ele><time>2026-05-02T08:05:49.671Z</time></trkpt><trkpt lat="42.3210049" lon="13.9943743"><ele>133.0</ele><time>2026-05-02T08:05:50.67Z</time></trkpt><trkpt lat="42.3209344" lon="13.9942031"><ele>133.20000000000002</ele><time>2026-05-02T08:05:51.67Z</time></trkpt><trkpt lat="42.320869" lon="13.9940535"><ele>133.4</ele><time>2026-05-02T08:05:52.67Z</time></trkpt><trkpt lat="42.3208078" lon="13.9939216"><ele>133.60000000000002</ele><time>2026-05-02T08:05:53.668Z</time></trkpt><trkpt lat="42.3207557" lon="13.9938122"><ele>133.8</ele><time>2026-05-02T08:05:54.67Z</time></trkpt><trkpt lat="42.3207121" lon="13.9937302"><ele>134.0</ele><time>2026-05-02T08:05:55.666Z</time></trkpt><trkpt lat="42.320625" lon="13.9936417"><ele>135.0</ele><time>2026-05-02T08:05:57.669Z</time></trkpt><trkpt lat="42.3205377" lon="13.9936553"><ele>136.0</ele><time>2026-05-02T08:05:59.669Z</time></trkpt><trkpt lat="42.3204207" lon="13.9937369"><ele>137.0</ele><time>2026-05-02T08:06:01.671Z</time></trkpt><trkpt lat="42.3203505" lon="13.9937893"><ele>138.0</ele><time>2026-05-02T08:06:02.67Z</time></trkpt><trkpt lat="42.3202792" lon="13.9938441"><ele>139.0</ele><time>2026-05-02T08:06:03.666Z</time></trkpt><trkpt lat="42.3202072" lon="13.9939069"><ele>139.0</ele><time>2026-05-02T08:06:04.67Z</time></trkpt><trkpt lat="42.3201449" lon="13.9939817"><ele>139.0</ele><time>2026-05-02T08:06:05.667Z</time></trkpt><trkpt lat="42.3200914" lon="13.9940618"><ele>139.0</ele><time>2026-05-02T08:06:06.67Z</time></trkpt><trkpt lat="42.3200404" lon="13.9941605"><ele>139.0</ele><time>2026-05-02T08:06:07.669Z</time></trkpt><trkpt lat="42.3199843" lon="13.9942694"><ele>139.0</ele><time>2026-05-02T08:06:08.671Z</time></trkpt><trkpt lat="42.3199208" lon="13.9943792"><ele>138.8</ele><time>2026-05-02T08:06:09.669Z</time></trkpt><trkpt lat="42.319849" lon="13.9944879"><ele>138.60000000000002</ele><time>2026-05-02T08:06:10.67Z</time></trkpt><trkpt lat="42.3197782" lon="13.9945961"><ele>138.4</ele><time>2026-05-02T08:06:11.671Z</time></trkpt><trkpt lat="42.3197051" lon="13.9947093"><ele>138.20000000000002</ele><time>2026-05-02T08:06:12.67Z</time></trkpt><trkpt lat="42.3196267" lon="13.9948252"><ele>138.0</ele><time>2026-05-02T08:06:13.666Z</time></trkpt><trkpt lat="42.3195575" lon="13.9949495"><ele>138.75</ele><time>2026-05-02T08:06:14.671Z</time></trkpt><trkpt lat="42.3194905" lon="13.9950804"><ele>139.5</ele><time>2026-05-02T08:06:15.668Z</time></trkpt><trkpt lat="42.3194274" lon="13.9952142"><ele>140.25</ele><time>2026-05-02T08:06:16.668Z</time></trkpt><trkpt lat="42.3193647" lon="13.9953547"><ele>141.0</ele><time>2026-05-02T08:06:17.666Z</time></trkpt><trkpt lat="42.3192966" lon="13.9954959"><ele>141.0</ele><time>2026-05-02T08:06:18.669Z</time></trkpt><trkpt lat="42.3192245" lon="13.9956396"><ele>141.0</ele><time>2026-05-02T08:06:19.67Z</time></trkpt><trkpt lat="42.3191557" lon="13.9957885"><ele>141.0</ele><time>2026-05-02T08:06:20.668Z</time></trkpt><trkpt lat="42.3190892" lon="13.9959426"><ele>141.0</ele><time>2026-05-02T08:06:21.669Z</time></trkpt><trkpt lat="42.3190216" lon="13.9960948"><ele>140.75</ele><time>2026-05-02T08:06:22.667Z</time></trkpt><trkpt lat="42.3189524" lon="13.9962442"><ele>140.5</ele><time>2026-05-02T08:06:23.665Z</time></trkpt><trkpt lat="42.318884" lon="13.9963898"><ele>140.25</ele><time>2026-05-02T08:06:24.669Z</time></trkpt><trkpt lat="42.3188185" lon="13.9965327"><ele>140.0</ele><time>2026-05-02T08:06:25.67Z</time></trkpt><trkpt lat="42.3187551" lon="13.9966719"><ele>142.0</ele><time>2026-05-02T08:06:26.667Z</time></trkpt><trkpt lat="42.3186998" lon="13.9968134"><ele>144.0</ele><time>2026-05-02T08:06:27.669Z</time></trkpt><trkpt lat="42.3186583" lon="13.9969656"><ele>146.0</ele><time>2026-05-02T08:06:28.666Z</time></trkpt><trkpt lat="42.31863" lon="13.997124"><ele>148.0</ele><time>2026-05-02T08:06:29.665Z</time></trkpt><trkpt lat="42.3186081" lon="13.9972866"><ele>148.0</ele><time>2026-05-02T08:06:30.67Z</time></trkpt><trkpt lat="42.3185865" lon="13.9974534"><ele>148.0</ele><time>2026-05-02T08:06:31.67Z</time></trkpt><trkpt lat="42.318563" lon="13.9976211"><ele>148.0</ele><time>2026-05-02T08:06:32.669Z</time></trkpt><trkpt lat="42.318541" lon="13.9977899"><ele>148.0</ele><time>2026-05-02T08:06:33.668Z</time></trkpt><trkpt lat="42.3185221" lon="13.9979487"><ele>147.8</ele><time>2026-05-02T08:06:34.668Z</time></trkpt><trkpt lat="42.3185056" lon="13.9980972"><ele>147.60000000000002</ele><time>2026-05-02T08:06:35.669Z</time></trkpt><trkpt lat="42.3184911" lon="13.9982372"><ele>147.39999999999998</ele><time>2026-05-02T08:06:36.665Z</time></trkpt><trkpt lat="42.318477" lon="13.9983675"><ele>147.2</ele><time>2026-05-02T08:06:37.666Z</time></trkpt><trkpt lat="42.3184651" lon="13.9984959"><ele>147.0</ele><time>2026-05-02T08:06:38.665Z</time></trkpt><trkpt lat="42.3184535" lon="13.9986187"><ele>146.66666666666666</ele><time>2026-05-02T08:06:39.666Z</time></trkpt><trkpt lat="42.3184479" lon="13.9987353"><ele>146.33333333333334</ele><time>2026-05-02T08:06:40.665Z</time></trkpt><trkpt lat="42.31844" lon="13.9988341"><ele>146.0</ele><time>2026-05-02T08:06:41.666Z</time></trkpt><trkpt lat="42.3184308" lon="13.9990033"><ele>145.66666666666669</ele><time>2026-05-02T08:06:43.666Z</time></trkpt><trkpt lat="42.3184213" lon="13.9991058"><ele>145.33333333333334</ele><time>2026-05-02T08:06:45.665Z</time></trkpt><trkpt lat="42.3184203" lon="13.9991937"><ele>145.0</ele><time>2026-05-02T08:07:39.666Z</time></trkpt><trkpt lat="42.3184133" lon="13.9992817"><ele>143.8</ele><time>2026-05-02T08:07:41.664Z</time></trkpt><trkpt lat="42.3184057" lon="13.999375"><ele>142.6</ele><time>2026-05-02T08:07:42.67Z</time></trkpt><trkpt lat="42.3183962" lon="13.9995224"><ele>141.4</ele><time>2026-05-02T08:07:43.671Z</time></trkpt><trkpt lat="42.3183874" lon="13.9996922"><ele>140.2</ele><time>2026-05-02T08:07:44.669Z</time></trkpt><trkpt lat="42.3183801" lon="13.9998537"><ele>139.0</ele><time>2026-05-02T08:07:45.667Z</time></trkpt><trkpt lat="42.3183718" lon="14.000009"><ele>139.0</ele><time>2026-05-02T08:07:46.67Z</time></trkpt><trkpt lat="42.3183674" lon="14.000158"><ele>139.0</ele><time>2026-05-02T08:07:47.67Z</time></trkpt><trkpt lat="42.3183572" lon="14.0003048"><ele>139.0</ele><time>2026-05-02T08:07:48.67Z</time></trkpt><trkpt lat="42.3183488" lon="14.0004471"><ele>139.0</ele><time>2026-05-02T08:07:49.669Z</time></trkpt><trkpt lat="42.3183404" lon="14.0005856"><ele>139.0</ele><time>2026-05-02T08:07:50.67Z</time></trkpt><trkpt lat="42.3183324" lon="14.000727"><ele>138.2</ele><time>2026-05-02T08:07:51.67Z</time></trkpt><trkpt lat="42.3183237" lon="14.0008593"><ele>137.4</ele><time>2026-05-02T08:07:52.668Z</time></trkpt><trkpt lat="42.3183141" lon="14.0009876"><ele>136.6</ele><time>2026-05-02T08:07:53.667Z</time></trkpt><trkpt lat="42.318304" lon="14.0011098"><ele>135.8</ele><time>2026-05-02T08:07:54.67Z</time></trkpt><trkpt lat="42.3182907" lon="14.0012277"><ele>135.0</ele><time>2026-05-02T08:07:55.67Z</time></trkpt><trkpt lat="42.3182664" lon="14.0013364"><ele>135.0</ele><time>2026-05-02T08:07:56.671Z</time></trkpt><trkpt lat="42.3182368" lon="14.0014399"><ele>135.0</ele><time>2026-05-02T08:07:57.67Z</time></trkpt><trkpt lat="42.3182092" lon="14.0015392"><ele>135.0</ele><time>2026-05-02T08:07:58.67Z</time></trkpt><trkpt lat="42.3181981" lon="14.0016401"><ele>135.0</ele><time>2026-05-02T08:07:59.664Z</time></trkpt><trkpt lat="42.3182006" lon="14.0017466"><ele>135.0</ele><time>2026-05-02T08:08:00.664Z</time></trkpt><trkpt lat="42.318214" lon="14.0018611"><ele>135.0</ele><time>2026-05-02T08:08:01.668Z</time></trkpt><trkpt lat="42.3182328" lon="14.0019764"><ele>134.2</ele><time>2026-05-02T08:08:02.669Z</time></trkpt><trkpt lat="42.3182575" lon="14.0020847"><ele>133.4</ele><time>2026-05-02T08:08:03.67Z</time></trkpt><trkpt lat="42.318289" lon="14.0021931"><ele>132.6</ele><time>2026-05-02T08:08:04.667Z</time></trkpt><trkpt lat="42.3183204" lon="14.0023199"><ele>131.8</ele><time>2026-05-02T08:08:05.668Z</time></trkpt><trkpt lat="42.3183438" lon="14.0024656"><ele>131.0</ele><time>2026-05-02T08:08:06.666Z</time></trkpt><trkpt lat="42.318367" lon="14.0026206"><ele>129.25</ele><time>2026-05-02T08:08:07.666Z</time></trkpt><trkpt lat="42.3183853" lon="14.0027829"><ele>127.5</ele><time>2026-05-02T08:08:08.664Z</time></trkpt><trkpt lat="42.318397" lon="14.0029392"><ele>125.75</ele><time>2026-05-02T08:08:09.664Z</time></trkpt><trkpt lat="42.318406" lon="14.0030939"><ele>124.0</ele><time>2026-05-02T08:08:10.665Z</time></trkpt><trkpt lat="42.3184144" lon="14.0032479"><ele>123.2</ele><time>2026-05-02T08:08:11.669Z</time></trkpt><trkpt lat="42.3184179" lon="14.0033926"><ele>122.4</ele><time>2026-05-02T08:08:12.671Z</time></trkpt><trkpt lat="42.3184104" lon="14.0035244"><ele>121.6</ele><time>2026-05-02T08:08:13.666Z</time></trkpt><trkpt lat="42.3183928" lon="14.0036538"><ele>120.8</ele><time>2026-05-02T08:08:14.668Z</time></trkpt><trkpt lat="42.318361" lon="14.0037928"><ele>120.0</ele><time>2026-05-02T08:08:15.666Z</time></trkpt><trkpt lat="42.3183157" lon="14.0039459"><ele>120.0</ele><time>2026-05-02T08:08:16.668Z</time></trkpt><trkpt lat="42.3182614" lon="14.0040958"><ele>120.0</ele><time>2026-05-02T08:08:17.666Z</time></trkpt><trkpt lat="42.3182064" lon="14.004252"><ele>120.0</ele><time>2026-05-02T08:08:18.671Z</time></trkpt><trkpt lat="42.3181548" lon="14.0044072"><ele>120.0</ele><time>2026-05-02T08:08:19.669Z</time></trkpt><trkpt lat="42.3180998" lon="14.0045558"><ele>119.25</ele><time>2026-05-02T08:08:20.667Z</time></trkpt><trkpt lat="42.3180402" lon="14.0047131"><ele>118.5</ele><time>2026-05-02T08:08:21.668Z</time></trkpt><trkpt lat="42.3179792" lon="14.0048748"><ele>117.75</ele><time>2026-05-02T08:08:22.67Z</time></trkpt><trkpt lat="42.3179215" lon="14.0050449"><ele>117.0</ele><time>2026-05-02T08:08:23.667Z</time></trkpt><trkpt lat="42.3178618" lon="14.0052231"><ele>117.0</ele><time>2026-05-02T08:08:24.67Z</time></trkpt><trkpt lat="42.3178036" lon="14.0053865"><ele>117.0</ele><time>2026-05-02T08:08:25.664Z</time></trkpt><trkpt lat="42.3177448" lon="14.0055509"><ele>117.0</ele><time>2026-05-02T08:08:26.666Z</time></trkpt><trkpt lat="42.3176896" lon="14.0057108"><ele>117.0</ele><time>2026-05-02T08:08:27.664Z</time></trkpt><trkpt lat="42.3176331" lon="14.0058639"><ele>117.75</ele><time>2026-05-02T08:08:28.664Z</time></trkpt><trkpt lat="42.3175745" lon="14.0060061"><ele>118.5</ele><time>2026-05-02T08:08:29.664Z</time></trkpt><trkpt lat="42.3175256" lon="14.0061558"><ele>119.25</ele><time>2026-05-02T08:08:30.664Z</time></trkpt><trkpt lat="42.3174862" lon="14.006309"><ele>120.0</ele><time>2026-05-02T08:08:31.667Z</time></trkpt><trkpt lat="42.3174462" lon="14.0064603"><ele>120.0</ele><time>2026-05-02T08:08:32.665Z</time></trkpt><trkpt lat="42.3173996" lon="14.0066123"><ele>120.0</ele><time>2026-05-02T08:08:33.664Z</time></trkpt><trkpt lat="42.3173488" lon="14.006758"><ele>120.0</ele><time>2026-05-02T08:08:34.664Z</time></trkpt><trkpt lat="42.3173006" lon="14.0069045"><ele>120.0</ele><time>2026-05-02T08:08:35.663Z</time></trkpt><trkpt lat="42.3172531" lon="14.0070479"><ele>120.0</ele><time>2026-05-02T08:08:36.664Z</time></trkpt><trkpt lat="42.3172115" lon="14.007161"><ele>120.0</ele><time>2026-05-02T08:08:37.668Z</time></trkpt><trkpt lat="42.3171859" lon="14.007246"><ele>120.0</ele><time>2026-05-02T08:08:38.669Z</time></trkpt><trkpt lat="42.3171653" lon="14.0073277"><ele>120.0</ele><time>2026-05-02T08:08:39.665Z</time></trkpt><trkpt lat="42.317142" lon="14.0074202"><ele>120.0</ele><time>2026-05-02T08:08:40.669Z</time></trkpt><trkpt lat="42.3171217" lon="14.0075202"><ele>120.0</ele><time>2026-05-02T08:08:41.67Z</time></trkpt><trkpt lat="42.3170971" lon="14.0076207"><ele>120.0</ele><time>2026-05-02T08:08:42.669Z</time></trkpt><trkpt lat="42.3170574" lon="14.0077219"><ele>120.0</ele><time>2026-05-02T08:08:43.67Z</time></trkpt><trkpt lat="42.3170082" lon="14.0078197"><ele>120.0</ele><time>2026-05-02T08:08:44.664Z</time></trkpt><trkpt lat="42.3169487" lon="14.0079184"><ele>120.0</ele><time>2026-05-02T08:08:45.668Z</time></trkpt><trkpt lat="42.3168767" lon="14.0080082"><ele>120.0</ele><time>2026-05-02T08:08:46.669Z</time></trkpt><trkpt lat="42.3167972" lon="14.0080927"><ele>120.0</ele><time>2026-05-02T08:08:47.668Z</time></trkpt><trkpt lat="42.316714" lon="14.0081764"><ele>120.0</ele><time>2026-05-02T08:08:48.671Z</time></trkpt><trkpt lat="42.3166291" lon="14.0082613"><ele>120.0</ele><time>2026-05-02T08:08:49.669Z</time></trkpt><trkpt lat="42.3165436" lon="14.00835"><ele>120.0</ele><time>2026-05-02T08:08:50.671Z</time></trkpt><trkpt lat="42.3164567" lon="14.0084385"><ele>120.0</ele><time>2026-05-02T08:08:51.67Z</time></trkpt><trkpt lat="42.3163773" lon="14.0085168"><ele>118.5</ele><time>2026-05-02T08:08:52.665Z</time></trkpt><trkpt lat="42.3163141" lon="14.0085847"><ele>117.0</ele><time>2026-05-02T08:08:53.667Z</time></trkpt><trkpt lat="42.3162686" lon="14.0086447"><ele>115.5</ele><time>2026-05-02T08:08:54.663Z</time></trkpt><trkpt lat="42.3161975" lon="14.0087656"><ele>114.0</ele><time>2026-05-02T08:08:56.668Z</time></trkpt><trkpt lat="42.3161415" lon="14.0088252"><ele>112.5</ele><time>2026-05-02T08:08:57.669Z</time></trkpt><trkpt lat="42.3160487" lon="14.0088932"><ele>111.0</ele><time>2026-05-02T08:08:58.668Z</time></trkpt><trkpt lat="42.3159122" lon="14.008973"><ele>111.0</ele><time>2026-05-02T08:08:59.668Z</time></trkpt><trkpt lat="42.3157568" lon="14.0090717"><ele>111.0</ele><time>2026-05-02T08:09:00.67Z</time></trkpt><trkpt lat="42.3155767" lon="14.0092097"><ele>111.0</ele><time>2026-05-02T08:09:01.666Z</time></trkpt><trkpt lat="42.315373" lon="14.009373"><ele>109.0</ele><time>2026-05-02T08:09:02.668Z</time></trkpt><trkpt lat="42.3151549" lon="14.0095473"><ele>107.0</ele><time>2026-05-02T08:09:03.669Z</time></trkpt><trkpt lat="42.3149234" lon="14.0097403"><ele>106.0</ele><time>2026-05-02T08:09:04.67Z</time></trkpt><trkpt lat="42.3147022" lon="14.009928"><ele>105.0</ele><time>2026-05-02T08:09:05.667Z</time></trkpt><trkpt lat="42.3144913" lon="14.0101029"><ele>104.5</ele><time>2026-05-02T08:09:06.667Z</time></trkpt><trkpt lat="42.31429" lon="14.0102684"><ele>104.0</ele><time>2026-05-02T08:09:07.669Z</time></trkpt><trkpt lat="42.3140979" lon="14.0104267"><ele>104.0</ele><time>2026-05-02T08:09:08.67Z</time></trkpt><trkpt lat="42.3139154" lon="14.0105762"><ele>104.0</ele><time>2026-05-02T08:09:09.666Z</time></trkpt><trkpt lat="42.3137416" lon="14.0107171"><ele>104.0</ele><time>2026-05-02T08:09:10.667Z</time></trkpt><trkpt lat="42.3135726" lon="14.0108439"><ele>103.33333333333333</ele><time>2026-05-02T08:09:11.667Z</time></trkpt><trkpt lat="42.3133965" lon="14.0109432"><ele>102.66666666666666</ele><time>2026-05-02T08:09:12.668Z</time></trkpt><trkpt lat="42.3132105" lon="14.0110109"><ele>102.0</ele><time>2026-05-02T08:09:13.667Z</time></trkpt><trkpt lat="42.31302" lon="14.0110566"><ele>102.0</ele><time>2026-05-02T08:09:14.67Z</time></trkpt><trkpt lat="42.3128269" lon="14.0110928"><ele>102.0</ele><time>2026-05-02T08:09:15.666Z</time></trkpt><trkpt lat="42.312628" lon="14.0111255"><ele>102.0</ele><time>2026-05-02T08:09:16.67Z</time></trkpt><trkpt lat="42.3124245" lon="14.0111456"><ele>102.33333333333334</ele><time>2026-05-02T08:09:17.67Z</time></trkpt><trkpt lat="42.3122211" lon="14.0111486"><ele>102.66666666666667</ele><time>2026-05-02T08:09:18.666Z</time></trkpt><trkpt lat="42.3120147" lon="14.0111305"><ele>103.0</ele><time>2026-05-02T08:09:19.671Z</time></trkpt><trkpt lat="42.3118102" lon="14.011097"><ele>103.0</ele><time>2026-05-02T08:09:20.666Z</time></trkpt><trkpt lat="42.3116064" lon="14.0110609"><ele>103.0</ele><time>2026-05-02T08:09:21.668Z</time></trkpt><trkpt lat="42.3113931" lon="14.0110306"><ele>103.0</ele><time>2026-05-02T08:09:22.67Z</time></trkpt><trkpt lat="42.3111586" lon="14.0110022"><ele>102.0</ele><time>2026-05-02T08:09:23.667Z</time></trkpt><trkpt lat="42.3109222" lon="14.0109639"><ele>101.0</ele><time>2026-05-02T08:09:24.668Z</time></trkpt><trkpt lat="42.3106958" lon="14.0109039"><ele>101.0</ele><time>2026-05-02T08:09:25.666Z</time></trkpt><trkpt lat="42.3104688" lon="14.0108439"><ele>101.0</ele><time>2026-05-02T08:09:26.67Z</time></trkpt><trkpt lat="42.3102451" lon="14.0107994"><ele>101.33333333333333</ele><time>2026-05-02T08:09:27.671Z</time></trkpt><trkpt lat="42.3100212" lon="14.0107645"><ele>101.66666666666666</ele><time>2026-05-02T08:09:28.67Z</time></trkpt><trkpt lat="42.3098002" lon="14.0107362"><ele>102.0</ele><time>2026-05-02T08:09:29.668Z</time></trkpt><trkpt lat="42.3095752" lon="14.0107028"><ele>102.5</ele><time>2026-05-02T08:09:30.666Z</time></trkpt><trkpt lat="42.3093538" lon="14.0106522"><ele>103.0</ele><time>2026-05-02T08:09:31.669Z</time></trkpt><trkpt lat="42.3091327" lon="14.0105951"><ele>103.0</ele><time>2026-05-02T08:09:32.67Z</time></trkpt><trkpt lat="42.3089177" lon="14.0105482"><ele>103.0</ele><time>2026-05-02T08:09:33.671Z</time></trkpt><trkpt lat="42.3087196" lon="14.010513"><ele>103.0</ele><time>2026-05-02T08:09:34.667Z</time></trkpt><trkpt lat="42.3085617" lon="14.0104927"><ele>104.75</ele><time>2026-05-02T08:09:35.67Z</time></trkpt><trkpt lat="42.3084379" lon="14.0104972"><ele>106.5</ele><time>2026-05-02T08:09:36.667Z</time></trkpt><trkpt lat="42.3083203" lon="14.0105305"><ele>108.25</ele><time>2026-05-02T08:09:37.667Z</time></trkpt><trkpt lat="42.3082134" lon="14.0105937"><ele>110.0</ele><time>2026-05-02T08:09:38.667Z</time></trkpt><trkpt lat="42.3081111" lon="14.010684"><ele>111.0</ele><time>2026-05-02T08:09:39.668Z</time></trkpt><trkpt lat="42.3080031" lon="14.0107847"><ele>112.0</ele><time>2026-05-02T08:09:40.665Z</time></trkpt><trkpt lat="42.3078964" lon="14.0108625"><ele>113.0</ele><time>2026-05-02T08:09:41.665Z</time></trkpt><trkpt lat="42.3077853" lon="14.0109153"><ele>114.0</ele><time>2026-05-02T08:09:42.668Z</time></trkpt><trkpt lat="42.3076707" lon="14.0109321"><ele>114.0</ele><time>2026-05-02T08:09:43.665Z</time></trkpt><trkpt lat="42.3075608" lon="14.0109121"><ele>114.0</ele><time>2026-05-02T08:09:44.667Z</time></trkpt><trkpt lat="42.307456" lon="14.0108761"><ele>114.0</ele><time>2026-05-02T08:09:45.671Z</time></trkpt><trkpt lat="42.3073437" lon="14.0108271"><ele>114.0</ele><time>2026-05-02T08:09:46.663Z</time></trkpt><trkpt lat="42.3072306" lon="14.0107682"><ele>116.75</ele><time>2026-05-02T08:09:47.669Z</time></trkpt><trkpt lat="42.3071136" lon="14.0106974"><ele>119.5</ele><time>2026-05-02T08:09:48.67Z</time></trkpt><trkpt lat="42.3070129" lon="14.0106073"><ele>122.25</ele><time>2026-05-02T08:09:49.666Z</time></trkpt><trkpt lat="42.3069354" lon="14.0104938"><ele>125.0</ele><time>2026-05-02T08:09:50.67Z</time></trkpt><trkpt lat="42.3068727" lon="14.0103504"><ele>125.0</ele><time>2026-05-02T08:09:51.67Z</time></trkpt><trkpt lat="42.3068198" lon="14.0101768"><ele>125.0</ele><time>2026-05-02T08:09:52.669Z</time></trkpt><trkpt lat="42.3067694" lon="14.0099821"><ele>125.0</ele><time>2026-05-02T08:09:53.669Z</time></trkpt><trkpt lat="42.3067124" lon="14.0097777"><ele>126.0</ele><time>2026-05-02T08:09:54.664Z</time></trkpt><trkpt lat="42.3066521" lon="14.0095666"><ele>127.0</ele><time>2026-05-02T08:09:55.667Z</time></trkpt><trkpt lat="42.3065909" lon="14.0093487"><ele>128.0</ele><time>2026-05-02T08:09:56.67Z</time></trkpt><trkpt lat="42.3065277" lon="14.0091179"><ele>129.66666666666666</ele><time>2026-05-02T08:09:57.67Z</time></trkpt><trkpt lat="42.3064594" lon="14.0088658"><ele>131.33333333333334</ele><time>2026-05-02T08:09:58.671Z</time></trkpt><trkpt lat="42.3063891" lon="14.0086033"><ele>133.0</ele><time>2026-05-02T08:09:59.67Z</time></trkpt><trkpt lat="42.3063185" lon="14.0083347"><ele>137.33333333333334</ele><time>2026-05-02T08:10:00.67Z</time></trkpt><trkpt lat="42.3062527" lon="14.0080658"><ele>141.66666666666666</ele><time>2026-05-02T08:10:01.67Z</time></trkpt><trkpt lat="42.3061885" lon="14.0078058"><ele>146.0</ele><time>2026-05-02T08:10:02.67Z</time></trkpt><trkpt lat="42.3061216" lon="14.0075551"><ele>147.0</ele><time>2026-05-02T08:10:03.668Z</time></trkpt><trkpt lat="42.3060505" lon="14.0073198"><ele>148.0</ele><time>2026-05-02T08:10:04.666Z</time></trkpt><trkpt lat="42.3059764" lon="14.0070981"><ele>149.0</ele><time>2026-05-02T08:10:05.671Z</time></trkpt><trkpt lat="42.3059001" lon="14.00689"><ele>149.0</ele><time>2026-05-02T08:10:06.666Z</time></trkpt><trkpt lat="42.3058166" lon="14.0066868"><ele>149.0</ele><time>2026-05-02T08:10:07.668Z</time></trkpt><trkpt lat="42.3057146" lon="14.0064822"><ele>149.0</ele><time>2026-05-02T08:10:08.669Z</time></trkpt><trkpt lat="42.3056019" lon="14.0062872"><ele>153.66666666666666</ele><time>2026-05-02T08:10:09.67Z</time></trkpt><trkpt lat="42.3054911" lon="14.0061031"><ele>158.33333333333334</ele><time>2026-05-02T08:10:10.669Z</time></trkpt><trkpt lat="42.3053853" lon="14.0059205"><ele>163.0</ele><time>2026-05-02T08:10:11.668Z</time></trkpt><trkpt lat="42.3052852" lon="14.0057403"><ele>163.0</ele><time>2026-05-02T08:10:12.666Z</time></trkpt><trkpt lat="42.3051887" lon="14.0055586"><ele>163.0</ele><time>2026-05-02T08:10:13.669Z</time></trkpt><trkpt lat="42.3050989" lon="14.0053768"><ele>163.0</ele><time>2026-05-02T08:10:14.667Z</time></trkpt><trkpt lat="42.3050177" lon="14.0051944"><ele>163.0</ele><time>2026-05-02T08:10:15.67Z</time></trkpt><trkpt lat="42.3049406" lon="14.0050102"><ele>163.0</ele><time>2026-05-02T08:10:16.67Z</time></trkpt><trkpt lat="42.3048619" lon="14.0048219"><ele>163.0</ele><time>2026-05-02T08:10:17.671Z</time></trkpt><trkpt lat="42.3047736" lon="14.0046245"><ele>164.75</ele><time>2026-05-02T08:10:18.668Z</time></trkpt><trkpt lat="42.3046929" lon="14.0044422"><ele>166.5</ele><time>2026-05-02T08:10:19.668Z</time></trkpt><trkpt lat="42.3046187" lon="14.0042781"><ele>168.25</ele><time>2026-05-02T08:10:20.67Z</time></trkpt><trkpt lat="42.3045418" lon="14.0041324"><ele>170.0</ele><time>2026-05-02T08:10:21.669Z</time></trkpt><trkpt lat="42.3044628" lon="14.0040105"><ele>170.0</ele><time>2026-05-02T08:10:22.67Z</time></trkpt><trkpt lat="42.3043802" lon="14.0039238"><ele>170.0</ele><time>2026-05-02T08:10:23.67Z</time></trkpt><trkpt lat="42.3042901" lon="14.0038674"><ele>170.0</ele><time>2026-05-02T08:10:24.667Z</time></trkpt><trkpt lat="42.3041824" lon="14.0038241"><ele>170.0</ele><time>2026-05-02T08:10:25.667Z</time></trkpt><trkpt lat="42.3040528" lon="14.0037789"><ele>168.66666666666666</ele><time>2026-05-02T08:10:26.668Z</time></trkpt><trkpt lat="42.3039087" lon="14.0037193"><ele>167.33333333333334</ele><time>2026-05-02T08:10:27.666Z</time></trkpt><trkpt lat="42.3037618" lon="14.0036446"><ele>166.0</ele><time>2026-05-02T08:10:28.669Z</time></trkpt><trkpt lat="42.3036043" lon="14.0035439"><ele>166.0</ele><time>2026-05-02T08:10:29.671Z</time></trkpt><trkpt lat="42.3034497" lon="14.0034259"><ele>166.0</ele><time>2026-05-02T08:10:30.665Z</time></trkpt><trkpt lat="42.3032943" lon="14.0033202"><ele>166.0</ele><time>2026-05-02T08:10:31.667Z</time></trkpt><trkpt lat="42.3031366" lon="14.0032351"><ele>167.0</ele><time>2026-05-02T08:10:32.666Z</time></trkpt><trkpt lat="42.3029664" lon="14.0031662"><ele>168.0</ele><time>2026-05-02T08:10:33.67Z</time></trkpt><trkpt lat="42.3027897" lon="14.0031165"><ele>169.0</ele><time>2026-05-02T08:10:34.671Z</time></trkpt><trkpt lat="42.3026151" lon="14.0030891"><ele>169.0</ele><time>2026-05-02T08:10:35.669Z</time></trkpt><trkpt lat="42.3024434" lon="14.0030783"><ele>169.0</ele><time>2026-05-02T08:10:36.671Z</time></trkpt><trkpt lat="42.3022772" lon="14.0030758"><ele>169.0</ele><time>2026-05-02T08:10:37.668Z</time></trkpt><trkpt lat="42.3021168" lon="14.0030698"><ele>166.5</ele><time>2026-05-02T08:10:38.67Z</time></trkpt><trkpt lat="42.301963" lon="14.0030398"><ele>164.0</ele><time>2026-05-02T08:10:39.67Z</time></trkpt><trkpt lat="42.3018259" lon="14.0029839"><ele>161.5</ele><time>2026-05-02T08:10:40.67Z</time></trkpt><trkpt lat="42.3017067" lon="14.0029037"><ele>159.0</ele><time>2026-05-02T08:10:41.669Z</time></trkpt><trkpt lat="42.3015985" lon="14.0028068"><ele>159.0</ele><time>2026-05-02T08:10:42.668Z</time></trkpt><trkpt lat="42.301504" lon="14.002738"><ele>159.0</ele><time>2026-05-02T08:10:43.67Z</time></trkpt><trkpt lat="42.3014249" lon="14.0026973"><ele>159.0</ele><time>2026-05-02T08:10:44.671Z</time></trkpt><trkpt lat="42.3013567" lon="14.0026796"><ele>159.0</ele><time>2026-05-02T08:10:45.671Z</time></trkpt><trkpt lat="42.3012715" lon="14.0026898"><ele>159.0</ele><time>2026-05-02T08:10:46.668Z</time></trkpt><trkpt lat="42.3011697" lon="14.0027201"><ele>156.75</ele><time>2026-05-02T08:10:47.669Z</time></trkpt><trkpt lat="42.301051" lon="14.0027582"><ele>154.5</ele><time>2026-05-02T08:10:48.669Z</time></trkpt><trkpt lat="42.3009147" lon="14.0028044"><ele>152.25</ele><time>2026-05-02T08:10:49.668Z</time></trkpt><trkpt lat="42.3007694" lon="14.0028559"><ele>150.0</ele><time>2026-05-02T08:10:50.668Z</time></trkpt><trkpt lat="42.3006389" lon="14.0029044"><ele>150.0</ele><time>2026-05-02T08:10:51.67Z</time></trkpt><trkpt lat="42.3005516" lon="14.0029318"><ele>150.0</ele><time>2026-05-02T08:10:52.67Z</time></trkpt><trkpt lat="42.3004671" lon="14.0029454"><ele>150.0</ele><time>2026-05-02T08:10:54.667Z</time></trkpt><trkpt lat="42.3005521" lon="14.0029825"><ele>150.0</ele><time>2026-05-02T08:11:00.671Z</time></trkpt><trkpt lat="42.3006411" lon="14.0029462"><ele>150.0</ele><time>2026-05-02T08:11:01.669Z</time></trkpt><trkpt lat="42.3007748" lon="14.002893"><ele>150.0</ele><time>2026-05-02T08:11:02.671Z</time></trkpt><trkpt lat="42.3009191" lon="14.0028383"><ele>150.0</ele><time>2026-05-02T08:11:03.666Z</time></trkpt><trkpt lat="42.3010762" lon="14.0027731"><ele>150.0</ele><time>2026-05-02T08:11:04.666Z</time></trkpt><trkpt lat="42.301205" lon="14.00273"><ele>150.0</ele><time>2026-05-02T08:11:05.668Z</time></trkpt><trkpt lat="42.3013077" lon="14.0027059"><ele>150.0</ele><time>2026-05-02T08:11:06.667Z</time></trkpt><trkpt lat="42.3013774" lon="14.0026941"><ele>150.0</ele><time>2026-05-02T08:11:07.669Z</time></trkpt><trkpt lat="42.3014506" lon="14.0026386"><ele>150.0</ele><time>2026-05-02T08:11:09.671Z</time></trkpt><trkpt lat="42.3014434" lon="14.0025226"><ele>150.0</ele><time>2026-05-02T08:11:11.67Z</time></trkpt><trkpt lat="42.3014168" lon="14.0024155"><ele>150.0</ele><time>2026-05-02T08:11:12.67Z</time></trkpt><trkpt lat="42.301374" lon="14.0022145"><ele>151.66666666666666</ele><time>2026-05-02T08:11:13.669Z</time></trkpt><trkpt lat="42.3013371" lon="14.0020009"><ele>153.33333333333331</ele><time>2026-05-02T08:11:14.669Z</time></trkpt><trkpt lat="42.3012791" lon="14.001758"><ele>155.0</ele><time>2026-05-02T08:11:15.668Z</time></trkpt><trkpt lat="42.3012055" lon="14.0015174"><ele>157.0</ele><time>2026-05-02T08:11:16.67Z</time></trkpt><trkpt lat="42.3011209" lon="14.0012851"><ele>159.0</ele><time>2026-05-02T08:11:17.666Z</time></trkpt><trkpt lat="42.3010392" lon="14.0010804"><ele>161.0</ele><time>2026-05-02T08:11:18.667Z</time></trkpt><trkpt lat="42.3009609" lon="14.0008906"><ele>164.66666666666666</ele><time>2026-05-02T08:11:19.667Z</time></trkpt><trkpt lat="42.3008813" lon="14.0007187"><ele>168.33333333333334</ele><time>2026-05-02T08:11:20.668Z</time></trkpt><trkpt lat="42.3007853" lon="14.0005503"><ele>172.0</ele><time>2026-05-02T08:11:21.671Z</time></trkpt><trkpt lat="42.3006836" lon="14.0004088"><ele>168.5</ele><time>2026-05-02T08:11:22.669Z</time></trkpt><trkpt lat="42.3005756" lon="14.0002722"><ele>165.0</ele><time>2026-05-02T08:11:23.668Z</time></trkpt><trkpt lat="42.3004735" lon="14.0001368"><ele>161.5</ele><time>2026-05-02T08:11:24.667Z</time></trkpt><trkpt lat="42.3003776" lon="13.9999917"><ele>158.0</ele><time>2026-05-02T08:11:25.666Z</time></trkpt><trkpt lat="42.3002911" lon="13.9998371"><ele>158.0</ele><time>2026-05-02T08:11:26.668Z</time></trkpt><trkpt lat="42.3002143" lon="13.9996721"><ele>158.0</ele><time>2026-05-02T08:11:27.671Z</time></trkpt><trkpt lat="42.3001447" lon="13.9995071"><ele>158.0</ele><time>2026-05-02T08:11:28.67Z</time></trkpt><trkpt lat="42.3000685" lon="13.9993399"><ele>158.0</ele><time>2026-05-02T08:11:29.667Z</time></trkpt><trkpt lat="42.2999818" lon="13.9991736"><ele>158.66666666666666</ele><time>2026-05-02T08:11:30.669Z</time></trkpt><trkpt lat="42.2998895" lon="13.9989992"><ele>159.33333333333334</ele><time>2026-05-02T08:11:31.67Z</time></trkpt><trkpt lat="42.299794" lon="13.9988145"><ele>160.0</ele><time>2026-05-02T08:11:32.667Z</time></trkpt><trkpt lat="42.2997019" lon="13.99863"><ele>160.0</ele><time>2026-05-02T08:11:33.668Z</time></trkpt><trkpt lat="42.2996088" lon="13.9984549"><ele>160.0</ele><time>2026-05-02T08:11:34.666Z</time></trkpt><trkpt lat="42.2995149" lon="13.9982874"><ele>160.0</ele><time>2026-05-02T08:11:35.667Z</time></trkpt><trkpt lat="42.2994258" lon="13.9981244"><ele>159.5</ele><time>2026-05-02T08:11:36.667Z</time></trkpt><trkpt lat="42.2993439" lon="13.997968"><ele>159.0</ele><time>2026-05-02T08:11:37.668Z</time></trkpt><trkpt lat="42.2992841" lon="13.9978243"><ele>158.5</ele><time>2026-05-02T08:11:38.667Z</time></trkpt><trkpt lat="42.2992389" lon="13.9976658"><ele>158.0</ele><time>2026-05-02T08:11:39.667Z</time></trkpt><trkpt lat="42.2992041" lon="13.9974894"><ele>158.0</ele><time>2026-05-02T08:11:40.671Z</time></trkpt><trkpt lat="42.299184" lon="13.9973244"><ele>158.0</ele><time>2026-05-02T08:11:41.667Z</time></trkpt><trkpt lat="42.2991739" lon="13.9971659"><ele>158.0</ele><time>2026-05-02T08:11:42.671Z</time></trkpt><trkpt lat="42.2991742" lon="13.9970083"><ele>158.0</ele><time>2026-05-02T08:11:43.666Z</time></trkpt><trkpt lat="42.2991704" lon="13.9968549"><ele>158.0</ele><time>2026-05-02T08:11:44.665Z</time></trkpt><trkpt lat="42.2991469" lon="13.9966964"><ele>158.0</ele><time>2026-05-02T08:11:45.668Z</time></trkpt><trkpt lat="42.2991003" lon="13.9965539"><ele>158.0</ele><time>2026-05-02T08:11:46.67Z</time></trkpt><trkpt lat="42.2990289" lon="13.9964194"><ele>158.0</ele><time>2026-05-02T08:11:47.665Z</time></trkpt><trkpt lat="42.2989376" lon="13.9962947"><ele>156.4</ele><time>2026-05-02T08:11:48.67Z</time></trkpt><trkpt lat="42.2988434" lon="13.9961842"><ele>154.8</ele><time>2026-05-02T08:11:49.669Z</time></trkpt><trkpt lat="42.2987637" lon="13.9960717"><ele>153.2</ele><time>2026-05-02T08:11:50.671Z</time></trkpt><trkpt lat="42.2986994" lon="13.9959541"><ele>151.6</ele><time>2026-05-02T08:11:51.67Z</time></trkpt><trkpt lat="42.2986505" lon="13.9958439"><ele>150.0</ele><time>2026-05-02T08:11:52.671Z</time></trkpt><trkpt lat="42.2986171" lon="13.9957475"><ele>150.0</ele><time>2026-05-02T08:11:53.67Z</time></trkpt><trkpt lat="42.29856" lon="13.9956065"><ele>150.0</ele><time>2026-05-02T08:11:55.668Z</time></trkpt><trkpt lat="42.2985188" lon="13.9955244"><ele>150.0</ele><time>2026-05-02T08:11:56.67Z</time></trkpt><trkpt lat="42.2984632" lon="13.9954226"><ele>150.0</ele><time>2026-05-02T08:11:57.666Z</time></trkpt><trkpt lat="42.2983921" lon="13.9952921"><ele>150.0</ele><time>2026-05-02T08:11:58.67Z</time></trkpt><trkpt lat="42.2983151" lon="13.9951342"><ele>151.25</ele><time>2026-05-02T08:11:59.668Z</time></trkpt><trkpt lat="42.2982314" lon="13.994972"><ele>152.5</ele><time>2026-05-02T08:12:00.67Z</time></trkpt><trkpt lat="42.2981397" lon="13.9948154"><ele>153.75</ele><time>2026-05-02T08:12:01.667Z</time></trkpt><trkpt lat="42.2980488" lon="13.9946762"><ele>155.0</ele><time>2026-05-02T08:12:02.667Z</time></trkpt><trkpt lat="42.2979663" lon="13.9945348"><ele>150.33333333333331</ele><time>2026-05-02T08:12:03.67Z</time></trkpt><trkpt lat="42.2978884" lon="13.9943778"><ele>145.66666666666666</ele><time>2026-05-02T08:12:04.67Z</time></trkpt><trkpt lat="42.2978093" lon="13.9941964"><ele>141.0</ele><time>2026-05-02T08:12:05.669Z</time></trkpt><trkpt lat="42.2977364" lon="13.994005"><ele>141.0</ele><time>2026-05-02T08:12:06.669Z</time></trkpt><trkpt lat="42.2976563" lon="13.9938131"><ele>141.0</ele><time>2026-05-02T08:12:07.67Z</time></trkpt><trkpt lat="42.2975615" lon="13.9936233"><ele>141.0</ele><time>2026-05-02T08:12:08.67Z</time></trkpt><trkpt lat="42.2974632" lon="13.9934399"><ele>143.33333333333334</ele><time>2026-05-02T08:12:09.664Z</time></trkpt><trkpt lat="42.2973716" lon="13.9932667"><ele>145.66666666666669</ele><time>2026-05-02T08:12:10.671Z</time></trkpt><trkpt lat="42.2972791" lon="13.9930813"><ele>148.0</ele><time>2026-05-02T08:12:11.665Z</time></trkpt><trkpt lat="42.2971922" lon="13.9929031"><ele>145.25</ele><time>2026-05-02T08:12:12.665Z</time></trkpt><trkpt lat="42.2971054" lon="13.9927292"><ele>142.5</ele><time>2026-05-02T08:12:13.671Z</time></trkpt><trkpt lat="42.2970234" lon="13.992559"><ele>139.75</ele><time>2026-05-02T08:12:14.664Z</time></trkpt><trkpt lat="42.2969535" lon="13.9923903"><ele>137.0</ele><time>2026-05-02T08:12:15.667Z</time></trkpt><trkpt lat="42.2968951" lon="13.9921994"><ele>137.0</ele><time>2026-05-02T08:12:16.666Z</time></trkpt><trkpt lat="42.2968341" lon="13.9920057"><ele>137.0</ele><time>2026-05-02T08:12:17.67Z</time></trkpt><trkpt lat="42.2967802" lon="13.9918226"><ele>137.0</ele><time>2026-05-02T08:12:18.668Z</time></trkpt><trkpt lat="42.2967368" lon="13.9916344"><ele>137.0</ele><time>2026-05-02T08:12:19.665Z</time></trkpt><trkpt lat="42.2967043" lon="13.9914373"><ele>137.25</ele><time>2026-05-02T08:12:20.665Z</time></trkpt><trkpt lat="42.2966811" lon="13.991239"><ele>137.5</ele><time>2026-05-02T08:12:21.668Z</time></trkpt><trkpt lat="42.2966627" lon="13.9910377"><ele>137.75</ele><time>2026-05-02T08:12:22.671Z</time></trkpt><trkpt lat="42.296651" lon="13.9908445"><ele>138.0</ele><time>2026-05-02T08:12:23.667Z</time></trkpt><trkpt lat="42.2966455" lon="13.9906637"><ele>138.0</ele><time>2026-05-02T08:12:24.664Z</time></trkpt><trkpt lat="42.2966275" lon="13.9904919"><ele>138.0</ele><time>2026-05-02T08:12:25.667Z</time></trkpt><trkpt lat="42.2965888" lon="13.990332"><ele>138.0</ele><time>2026-05-02T08:12:26.67Z</time></trkpt><trkpt lat="42.2965295" lon="13.9901921"><ele>138.0</ele><time>2026-05-02T08:12:27.667Z</time></trkpt><trkpt lat="42.2964578" lon="13.9900697"><ele>136.0</ele><time>2026-05-02T08:12:28.667Z</time></trkpt><trkpt lat="42.2963753" lon="13.9899745"><ele>134.0</ele><time>2026-05-02T08:12:29.666Z</time></trkpt><trkpt lat="42.2962914" lon="13.9899217"><ele>132.0</ele><time>2026-05-02T08:12:30.666Z</time></trkpt><trkpt lat="42.2961959" lon="13.9898867"><ele>130.0</ele><time>2026-05-02T08:12:31.67Z</time></trkpt><trkpt lat="42.296099" lon="13.9898537"><ele>128.0</ele><time>2026-05-02T08:12:32.669Z</time></trkpt><trkpt lat="42.2960005" lon="13.9898123"><ele>128.0</ele><time>2026-05-02T08:12:33.668Z</time></trkpt><trkpt lat="42.2959073" lon="13.9897564"><ele>128.0</ele><time>2026-05-02T08:12:34.667Z</time></trkpt><trkpt lat="42.2958097" lon="13.9896816"><ele>128.0</ele><time>2026-05-02T08:12:35.667Z</time></trkpt><trkpt lat="42.295701" lon="13.9895918"><ele>128.0</ele><time>2026-05-02T08:12:36.667Z</time></trkpt><trkpt lat="42.2955826" lon="13.9894985"><ele>127.60000000000001</ele><time>2026-05-02T08:12:37.665Z</time></trkpt><trkpt lat="42.2954663" lon="13.9894181"><ele>127.20000000000002</ele><time>2026-05-02T08:12:38.671Z</time></trkpt><trkpt lat="42.2953659" lon="13.9893524"><ele>126.8</ele><time>2026-05-02T08:12:39.669Z</time></trkpt><trkpt lat="42.2952931" lon="13.9892997"><ele>126.4</ele><time>2026-05-02T08:12:40.668Z</time></trkpt><trkpt lat="42.2952388" lon="13.9892226"><ele>126.0</ele><time>2026-05-02T08:12:42.669Z</time></trkpt><trkpt lat="42.2952579" lon="13.9891047"><ele>126.8</ele><time>2026-05-02T08:12:44.671Z</time></trkpt><trkpt lat="42.2953006" lon="13.9890161"><ele>127.6</ele><time>2026-05-02T08:12:45.666Z</time></trkpt><trkpt lat="42.2953556" lon="13.9889076"><ele>128.4</ele><time>2026-05-02T08:12:46.664Z</time></trkpt><trkpt lat="42.2954115" lon="13.9887899"><ele>129.2</ele><time>2026-05-02T08:12:47.667Z</time></trkpt><trkpt lat="42.2954704" lon="13.9886561"><ele>130.0</ele><time>2026-05-02T08:12:48.666Z</time></trkpt><trkpt lat="42.2955259" lon="13.988538"><ele>130.0</ele><time>2026-05-02T08:12:49.67Z</time></trkpt><trkpt lat="42.2955717" lon="13.9884439"><ele>130.0</ele><time>2026-05-02T08:12:50.67Z</time></trkpt><trkpt lat="42.2955901" lon="13.9883339"><ele>130.0</ele><time>2026-05-02T08:12:52.67Z</time></trkpt><trkpt lat="42.2955293" lon="13.9883745"><ele>130.0</ele><time>2026-05-02T08:12:55.671Z</time></trkpt><trkpt lat="42.2954532" lon="13.9885572"><ele>130.0</ele><time>2026-05-02T08:12:57.667Z</time></trkpt><trkpt lat="42.2954039" lon="13.9886787"><ele>130.0</ele><time>2026-05-02T08:12:58.667Z</time></trkpt><trkpt lat="42.2953487" lon="13.9888174"><ele>130.0</ele><time>2026-05-02T08:12:59.67Z</time></trkpt><trkpt lat="42.2952869" lon="13.9889623"><ele>130.0</ele><time>2026-05-02T08:13:00.67Z</time></trkpt><trkpt lat="42.2952302" lon="13.9890972"><ele>130.0</ele><time>2026-05-02T08:13:01.669Z</time></trkpt><trkpt lat="42.2951783" lon="13.9892157"><ele>130.0</ele><time>2026-05-02T08:13:02.668Z</time></trkpt><trkpt lat="42.2951258" lon="13.9892901"><ele>130.0</ele><time>2026-05-02T08:13:03.669Z</time></trkpt><trkpt lat="42.2950686" lon="13.9893313"><ele>130.0</ele><time>2026-05-02T08:13:04.669Z</time></trkpt><trkpt lat="42.2950044" lon="13.98931"><ele>130.0</ele><time>2026-05-02T08:13:06.668Z</time></trkpt><trkpt lat="42.2949637" lon="13.9892102"><ele>130.0</ele><time>2026-05-02T08:13:08.671Z</time></trkpt><trkpt lat="42.2949583" lon="13.9891086"><ele>130.0</ele><time>2026-05-02T08:13:09.67Z</time></trkpt><trkpt lat="42.2949439" lon="13.988974"><ele>130.0</ele><time>2026-05-02T08:13:10.67Z</time></trkpt><trkpt lat="42.2949088" lon="13.9888316"><ele>130.0</ele><time>2026-05-02T08:13:11.665Z</time></trkpt><trkpt lat="42.2948628" lon="13.9886603"><ele>130.0</ele><time>2026-05-02T08:13:12.668Z</time></trkpt><trkpt lat="42.2948178" lon="13.9884779"><ele>130.0</ele><time>2026-05-02T08:13:13.667Z</time></trkpt><trkpt lat="42.2947707" lon="13.9882853"><ele>131.0</ele><time>2026-05-02T08:13:14.665Z</time></trkpt><trkpt lat="42.2947093" lon="13.9880669"><ele>132.0</ele><time>2026-05-02T08:13:15.667Z</time></trkpt><trkpt lat="42.2946451" lon="13.9878396"><ele>133.0</ele><time>2026-05-02T08:13:16.668Z</time></trkpt><trkpt lat="42.2945907" lon="13.9876397"><ele>133.5</ele><time>2026-05-02T08:13:17.669Z</time></trkpt><trkpt lat="42.2945381" lon="13.9874573"><ele>134.0</ele><time>2026-05-02T08:13:18.671Z</time></trkpt><trkpt lat="42.2944911" lon="13.9872934"><ele>134.5</ele><time>2026-05-02T08:13:19.668Z</time></trkpt><trkpt lat="42.2944492" lon="13.9871462"><ele>135.0</ele><time>2026-05-02T08:13:20.666Z</time></trkpt><trkpt lat="42.2944133" lon="13.9870105"><ele>135.0</ele><time>2026-05-02T08:13:21.667Z</time></trkpt><trkpt lat="42.2943924" lon="13.9869029"><ele>135.0</ele><time>2026-05-02T08:13:22.67Z</time></trkpt><trkpt lat="42.2944062" lon="13.986763"><ele>135.0</ele><time>2026-05-02T08:13:24.667Z</time></trkpt><trkpt lat="42.2944027" lon="13.9866712"><ele>135.0</ele><time>2026-05-02T08:13:26.665Z</time></trkpt><trkpt lat="42.2943697" lon="13.9865748"><ele>135.0</ele><time>2026-05-02T08:13:28.67Z</time></trkpt><trkpt lat="42.2943393" lon="13.986492"><ele>135.0</ele><time>2026-05-02T08:13:29.665Z</time></trkpt><trkpt lat="42.2943101" lon="13.9864056"><ele>135.6</ele><time>2026-05-02T08:13:30.67Z</time></trkpt><trkpt lat="42.2942783" lon="13.9863096"><ele>136.2</ele><time>2026-05-02T08:13:31.67Z</time></trkpt><trkpt lat="42.2942407" lon="13.9861938"><ele>136.8</ele><time>2026-05-02T08:13:32.667Z</time></trkpt><trkpt lat="42.2942027" lon="13.9860651"><ele>137.4</ele><time>2026-05-02T08:13:33.667Z</time></trkpt><trkpt lat="42.2941657" lon="13.9859272"><ele>138.0</ele><time>2026-05-02T08:13:34.666Z</time></trkpt><trkpt lat="42.29413" lon="13.9857881"><ele>138.6</ele><time>2026-05-02T08:13:35.671Z</time></trkpt><trkpt lat="42.2940936" lon="13.9856506"><ele>139.20000000000002</ele><time>2026-05-02T08:13:36.667Z</time></trkpt><trkpt lat="42.2940558" lon="13.9855179"><ele>139.8</ele><time>2026-05-02T08:13:37.668Z</time></trkpt><trkpt lat="42.2940164" lon="13.985386"><ele>140.4</ele><time>2026-05-02T08:13:38.666Z</time></trkpt><trkpt lat="42.2939768" lon="13.9852557"><ele>141.0</ele><time>2026-05-02T08:13:39.667Z</time></trkpt><trkpt lat="42.2939367" lon="13.9851297"><ele>142.16666666666666</ele><time>2026-05-02T08:13:40.669Z</time></trkpt><trkpt lat="42.2939006" lon="13.9850113"><ele>143.33333333333334</ele><time>2026-05-02T08:13:41.668Z</time></trkpt><trkpt lat="42.2938619" lon="13.9849091"><ele>144.5</ele><time>2026-05-02T08:13:42.671Z</time></trkpt><trkpt lat="42.2938324" lon="13.9848158"><ele>145.66666666666669</ele><time>2026-05-02T08:13:43.668Z</time></trkpt><trkpt lat="42.2938052" lon="13.9847259"><ele>146.83333333333334</ele><time>2026-05-02T08:13:44.669Z</time></trkpt><trkpt lat="42.2937661" lon="13.9846427"><ele>148.0</ele><time>2026-05-02T08:13:45.669Z</time></trkpt><trkpt lat="42.2937224" lon="13.9845632"><ele>148.0</ele><time>2026-05-02T08:13:46.67Z</time></trkpt><trkpt lat="42.2936777" lon="13.9844794"><ele>148.0</ele><time>2026-05-02T08:13:47.665Z</time></trkpt><trkpt lat="42.2936279" lon="13.9844062"><ele>148.0</ele><time>2026-05-02T08:13:48.67Z</time></trkpt><trkpt lat="42.2935811" lon="13.9843323"><ele>148.0</ele><time>2026-05-02T08:13:49.666Z</time></trkpt><trkpt lat="42.2935385" lon="13.9842556"><ele>148.0</ele><time>2026-05-02T08:13:50.67Z</time></trkpt><trkpt lat="42.2934961" lon="13.984179"><ele>148.0</ele><time>2026-05-02T08:13:51.667Z</time></trkpt><trkpt lat="42.293448" lon="13.9841087"><ele>148.0</ele><time>2026-05-02T08:13:52.67Z</time></trkpt><trkpt lat="42.2933947" lon="13.9840474"><ele>148.33333333333334</ele><time>2026-05-02T08:13:53.667Z</time></trkpt><trkpt lat="42.2933394" lon="13.983986"><ele>148.66666666666669</ele><time>2026-05-02T08:13:54.67Z</time></trkpt><trkpt lat="42.2932783" lon="13.9839271"><ele>149.0</ele><time>2026-05-02T08:13:55.668Z</time></trkpt><trkpt lat="42.2932061" lon="13.9838683"><ele>149.33333333333334</ele><time>2026-05-02T08:13:56.668Z</time></trkpt><trkpt lat="42.2931289" lon="13.9838066"><ele>149.66666666666666</ele><time>2026-05-02T08:13:57.67Z</time></trkpt><trkpt lat="42.2930586" lon="13.9837432"><ele>150.0</ele><time>2026-05-02T08:13:58.667Z</time></trkpt><trkpt lat="42.2929989" lon="13.9836731"><ele>151.66666666666666</ele><time>2026-05-02T08:13:59.666Z</time></trkpt><trkpt lat="42.2929441" lon="13.9835891"><ele>153.33333333333334</ele><time>2026-05-02T08:14:00.669Z</time></trkpt><trkpt lat="42.2928913" lon="13.9834925"><ele>155.0</ele><time>2026-05-02T08:14:01.67Z</time></trkpt><trkpt lat="42.2928431" lon="13.9833939"><ele>156.66666666666669</ele><time>2026-05-02T08:14:02.67Z</time></trkpt><trkpt lat="42.2927972" lon="13.9832975"><ele>158.33333333333334</ele><time>2026-05-02T08:14:03.667Z</time></trkpt><trkpt lat="42.2927519" lon="13.9832012"><ele>160.0</ele><time>2026-05-02T08:14:04.667Z</time></trkpt><trkpt lat="42.2927067" lon="13.9831093"><ele>160.0</ele><time>2026-05-02T08:14:05.669Z</time></trkpt><trkpt lat="42.2926662" lon="13.9830238"><ele>160.0</ele><time>2026-05-02T08:14:06.668Z</time></trkpt><trkpt lat="42.292624" lon="13.982936"><ele>160.0</ele><time>2026-05-02T08:14:07.666Z</time></trkpt><trkpt lat="42.2925703" lon="13.9828361"><ele>160.0</ele><time>2026-05-02T08:14:08.669Z</time></trkpt><trkpt lat="42.2925099" lon="13.9827302"><ele>160.0</ele><time>2026-05-02T08:14:09.664Z</time></trkpt><trkpt lat="42.2924501" lon="13.9826259"><ele>160.0</ele><time>2026-05-02T08:14:10.67Z</time></trkpt><trkpt lat="42.2923912" lon="13.9825249"><ele>159.2</ele><time>2026-05-02T08:14:11.67Z</time></trkpt><trkpt lat="42.2923296" lon="13.9824213"><ele>158.4</ele><time>2026-05-02T08:14:12.67Z</time></trkpt><trkpt lat="42.2922652" lon="13.9823135"><ele>157.6</ele><time>2026-05-02T08:14:13.669Z</time></trkpt><trkpt lat="42.2922068" lon="13.9822168"><ele>156.8</ele><time>2026-05-02T08:14:14.671Z</time></trkpt><trkpt lat="42.2921607" lon="13.9821386"><ele>156.0</ele><time>2026-05-02T08:14:15.667Z</time></trkpt><trkpt lat="42.2920907" lon="13.982028"><ele>157.83333333333334</ele><time>2026-05-02T08:14:17.67Z</time></trkpt><trkpt lat="42.2920099" lon="13.9819128"><ele>159.66666666666666</ele><time>2026-05-02T08:14:19.667Z</time></trkpt><trkpt lat="42.2919578" lon="13.9818332"><ele>161.5</ele><time>2026-05-02T08:14:20.67Z</time></trkpt><trkpt lat="42.291908" lon="13.981756"><ele>163.33333333333331</ele><time>2026-05-02T08:14:21.669Z</time></trkpt><trkpt lat="42.2918555" lon="13.9816815"><ele>165.16666666666666</ele><time>2026-05-02T08:14:22.669Z</time></trkpt><trkpt lat="42.2918007" lon="13.9816061"><ele>167.0</ele><time>2026-05-02T08:14:23.668Z</time></trkpt><trkpt lat="42.291749" lon="13.9815277"><ele>167.0</ele><time>2026-05-02T08:14:24.67Z</time></trkpt><trkpt lat="42.2917007" lon="13.9814459"><ele>167.0</ele><time>2026-05-02T08:14:25.669Z</time></trkpt><trkpt lat="42.2916497" lon="13.98137"><ele>167.0</ele><time>2026-05-02T08:14:26.668Z</time></trkpt><trkpt lat="42.2916043" lon="13.9813047"><ele>167.0</ele><time>2026-05-02T08:14:27.671Z</time></trkpt><trkpt lat="42.2915214" lon="13.9811921"><ele>167.0</ele><time>2026-05-02T08:14:29.667Z</time></trkpt><trkpt lat="42.2914376" lon="13.9811214"><ele>167.0</ele><time>2026-05-02T08:14:31.666Z</time></trkpt><trkpt lat="42.2913353" lon="13.9810992"><ele>167.39999999999998</ele><time>2026-05-02T08:14:33.669Z</time></trkpt><trkpt lat="42.291232" lon="13.9811099"><ele>167.79999999999998</ele><time>2026-05-02T08:14:35.67Z</time></trkpt><trkpt lat="42.2911369" lon="13.9810951"><ele>168.2</ele><time>2026-05-02T08:14:37.67Z</time></trkpt><trkpt lat="42.2910414" lon="13.9810507"><ele>168.6</ele><time>2026-05-02T08:14:39.67Z</time></trkpt><trkpt lat="42.2909405" lon="13.9809347"><ele>169.0</ele><time>2026-05-02T08:14:41.669Z</time></trkpt><trkpt lat="42.2909036" lon="13.9808312"><ele>169.0</ele><time>2026-05-02T08:14:42.668Z</time></trkpt><trkpt lat="42.2908837" lon="13.9807005"><ele>169.0</ele><time>2026-05-02T08:14:43.666Z</time></trkpt><trkpt lat="42.2908811" lon="13.9805587"><ele>169.0</ele><time>2026-05-02T08:14:44.67Z</time></trkpt><trkpt lat="42.2908844" lon="13.9804175"><ele>169.0</ele><time>2026-05-02T08:14:45.667Z</time></trkpt><trkpt lat="42.2908745" lon="13.9802712"><ele>169.0</ele><time>2026-05-02T08:14:46.67Z</time></trkpt><trkpt lat="42.2908419" lon="13.9801252"><ele>169.5</ele><time>2026-05-02T08:14:47.669Z</time></trkpt><trkpt lat="42.2907895" lon="13.9799836"><ele>170.0</ele><time>2026-05-02T08:14:48.67Z</time></trkpt><trkpt lat="42.2907193" lon="13.9798566"><ele>170.5</ele><time>2026-05-02T08:14:49.67Z</time></trkpt><trkpt lat="42.2906387" lon="13.9797485"><ele>171.0</ele><time>2026-05-02T08:14:50.666Z</time></trkpt><trkpt lat="42.2905496" lon="13.9796608"><ele>173.33333333333334</ele><time>2026-05-02T08:14:51.667Z</time></trkpt><trkpt lat="42.2904651" lon="13.9796"><ele>175.66666666666666</ele><time>2026-05-02T08:14:52.669Z</time></trkpt><trkpt lat="42.2903938" lon="13.9795423"><ele>178.0</ele><time>2026-05-02T08:14:53.669Z</time></trkpt><trkpt lat="42.2903417" lon="13.9794762"><ele>180.33333333333331</ele><time>2026-05-02T08:14:54.669Z</time></trkpt><trkpt lat="42.2903102" lon="13.9794015"><ele>182.66666666666666</ele><time>2026-05-02T08:14:55.67Z</time></trkpt><trkpt lat="42.290298" lon="13.9793104"><ele>185.0</ele><time>2026-05-02T08:14:56.669Z</time></trkpt><trkpt lat="42.2903082" lon="13.9792072"><ele>185.0</ele><time>2026-05-02T08:14:57.668Z</time></trkpt><trkpt lat="42.2903444" lon="13.9790916"><ele>185.0</ele><time>2026-05-02T08:14:58.665Z</time></trkpt><trkpt lat="42.2903835" lon="13.9789783"><ele>185.0</ele><time>2026-05-02T08:14:59.667Z</time></trkpt><trkpt lat="42.2904114" lon="13.9788766"><ele>185.0</ele><time>2026-05-02T08:15:00.669Z</time></trkpt><trkpt lat="42.2904224" lon="13.9787897"><ele>185.0</ele><time>2026-05-02T08:15:01.67Z</time></trkpt><trkpt lat="42.2903842" lon="13.978641"><ele>185.0</ele><time>2026-05-02T08:15:03.67Z</time></trkpt><trkpt lat="42.290278" lon="13.9786059"><ele>185.0</ele><time>2026-05-02T08:15:05.67Z</time></trkpt><trkpt lat="42.2901565" lon="13.9786828"><ele>185.0</ele><time>2026-05-02T08:15:07.664Z</time></trkpt><trkpt lat="42.2900839" lon="13.978738"><ele>185.0</ele><time>2026-05-02T08:15:08.67Z</time></trkpt><trkpt lat="42.2900105" lon="13.9787794"><ele>185.0</ele><time>2026-05-02T08:15:09.667Z</time></trkpt><trkpt lat="42.2899448" lon="13.9788182"><ele>185.0</ele><time>2026-05-02T08:15:10.67Z</time></trkpt><trkpt lat="42.2898759" lon="13.9788569"><ele>185.0</ele><time>2026-05-02T08:15:11.664Z</time></trkpt><trkpt lat="42.2898062" lon="13.9788937"><ele>187.6</ele><time>2026-05-02T08:15:12.667Z</time></trkpt><trkpt lat="42.2896939" lon="13.9789076"><ele>190.2</ele><time>2026-05-02T08:15:14.67Z</time></trkpt><trkpt lat="42.2895993" lon="13.9788151"><ele>192.8</ele><time>2026-05-02T08:15:16.671Z</time></trkpt><trkpt lat="42.2895632" lon="13.9787325"><ele>195.4</ele><time>2026-05-02T08:15:17.667Z</time></trkpt><trkpt lat="42.2895379" lon="13.9786365"><ele>198.0</ele><time>2026-05-02T08:15:18.665Z</time></trkpt><trkpt lat="42.2895165" lon="13.9785282"><ele>198.0</ele><time>2026-05-02T08:15:19.666Z</time></trkpt><trkpt lat="42.2895021" lon="13.978422"><ele>198.0</ele><time>2026-05-02T08:15:20.667Z</time></trkpt><trkpt lat="42.289492" lon="13.9783216"><ele>198.0</ele><time>2026-05-02T08:15:21.67Z</time></trkpt><trkpt lat="42.289483" lon="13.9782335"><ele>198.0</ele><time>2026-05-02T08:15:22.664Z</time></trkpt><trkpt lat="42.2894561" lon="13.9780893"><ele>198.0</ele><time>2026-05-02T08:15:24.671Z</time></trkpt><trkpt lat="42.2894143" lon="13.9779756"><ele>198.0</ele><time>2026-05-02T08:15:26.67Z</time></trkpt><trkpt lat="42.289357" lon="13.9779014"><ele>198.60000000000002</ele><time>2026-05-02T08:15:28.669Z</time></trkpt><trkpt lat="42.2892856" lon="13.9778675"><ele>199.20000000000002</ele><time>2026-05-02T08:15:30.67Z</time></trkpt><trkpt lat="42.2892108" lon="13.9778696"><ele>199.8</ele><time>2026-05-02T08:15:32.666Z</time></trkpt><trkpt lat="42.2891191" lon="13.9779118"><ele>200.4</ele><time>2026-05-02T08:15:34.67Z</time></trkpt><trkpt lat="42.2890214" lon="13.9779765"><ele>201.0</ele><time>2026-05-02T08:15:36.663Z</time></trkpt><trkpt lat="42.288916" lon="13.9780561"><ele>203.60000000000002</ele><time>2026-05-02T08:15:38.663Z</time></trkpt><trkpt lat="42.288829" lon="13.9781709"><ele>206.2</ele><time>2026-05-02T08:15:40.669Z</time></trkpt><trkpt lat="42.2887578" lon="13.9783006"><ele>208.79999999999998</ele><time>2026-05-02T08:15:42.67Z</time></trkpt><trkpt lat="42.2887249" lon="13.9784326"><ele>211.39999999999998</ele><time>2026-05-02T08:15:44.67Z</time></trkpt><trkpt lat="42.288673" lon="13.9785419"><ele>214.0</ele><time>2026-05-02T08:15:46.667Z</time></trkpt><trkpt lat="42.2886067" lon="13.9786727"><ele>214.0</ele><time>2026-05-02T08:15:48.67Z</time></trkpt><trkpt lat="42.2885664" lon="13.978743"><ele>213.99999999999997</ele><time>2026-05-02T08:15:49.664Z</time></trkpt><trkpt lat="42.2884971" lon="13.9788694"><ele>213.99999999999997</ele><time>2026-05-02T08:15:51.67Z</time></trkpt><trkpt lat="42.2884399" lon="13.9789787"><ele>214.0</ele><time>2026-05-02T08:15:53.666Z</time></trkpt><trkpt lat="42.2884107" lon="13.9791063"><ele>214.0</ele><time>2026-05-02T08:15:55.671Z</time></trkpt><trkpt lat="42.2883982" lon="13.9792476"><ele>214.79999999999998</ele><time>2026-05-02T08:15:57.666Z</time></trkpt><trkpt lat="42.2883848" lon="13.9793897"><ele>215.59999999999997</ele><time>2026-05-02T08:15:59.665Z</time></trkpt><trkpt lat="42.288374" lon="13.9795479"><ele>216.4</ele><time>2026-05-02T08:16:01.664Z</time></trkpt><trkpt lat="42.2883643" lon="13.9797081"><ele>217.2</ele><time>2026-05-02T08:16:03.664Z</time></trkpt><trkpt lat="42.288355" lon="13.9798468"><ele>218.0</ele><time>2026-05-02T08:16:05.667Z</time></trkpt><trkpt lat="42.2883457" lon="13.9799836"><ele>218.60000000000002</ele><time>2026-05-02T08:16:07.665Z</time></trkpt><trkpt lat="42.2883499" lon="13.9801334"><ele>219.20000000000002</ele><time>2026-05-02T08:16:09.664Z</time></trkpt><trkpt lat="42.2883941" lon="13.9802747"><ele>219.8</ele><time>2026-05-02T08:16:11.671Z</time></trkpt><trkpt lat="42.2884483" lon="13.9804073"><ele>220.4</ele><time>2026-05-02T08:16:13.664Z</time></trkpt><trkpt lat="42.2884917" lon="13.9805467"><ele>221.0</ele><time>2026-05-02T08:16:15.663Z</time></trkpt><trkpt lat="42.2884786" lon="13.9806981"><ele>221.0</ele><time>2026-05-02T08:16:17.671Z</time></trkpt><trkpt lat="42.2884039" lon="13.9808075"><ele>221.00000000000003</ele><time>2026-05-02T08:16:19.667Z</time></trkpt><trkpt lat="42.2883054" lon="13.980828"><ele>221.00000000000003</ele><time>2026-05-02T08:16:21.669Z</time></trkpt><trkpt lat="42.2882063" lon="13.9807547"><ele>221.0</ele><time>2026-05-02T08:16:23.671Z</time></trkpt><trkpt lat="42.2881514" lon="13.9806134"><ele>221.0</ele><time>2026-05-02T08:16:25.667Z</time></trkpt><trkpt lat="42.2880856" lon="13.98053"><ele>225.00000000000003</ele><time>2026-05-02T08:16:27.666Z</time></trkpt><trkpt lat="42.2880114" lon="13.9805183"><ele>229.0</ele><time>2026-05-02T08:16:29.671Z</time></trkpt><trkpt lat="42.2879424" lon="13.9805727"><ele>233.0</ele><time>2026-05-02T08:16:31.668Z</time></trkpt><trkpt lat="42.2879205" lon="13.980664"><ele>237.0</ele><time>2026-05-02T08:16:33.664Z</time></trkpt><trkpt lat="42.2879347" lon="13.980764"><ele>241.00000000000003</ele><time>2026-05-02T08:16:35.667Z</time></trkpt><trkpt lat="42.2879439" lon="13.9808899"><ele>245.0</ele><time>2026-05-02T08:16:37.671Z</time></trkpt><trkpt lat="42.287963" lon="13.9810294"><ele>246.33333333333334</ele><time>2026-05-02T08:16:39.663Z</time></trkpt><trkpt lat="42.2879767" lon="13.9811247"><ele>247.66666666666669</ele><time>2026-05-02T08:16:41.67Z</time></trkpt><trkpt lat="42.2880041" lon="13.9812479"><ele>249.0</ele><time>2026-05-02T08:16:44.663Z</time></trkpt><trkpt lat="42.2880104" lon="13.9813465"><ele>250.33333333333331</ele><time>2026-05-02T08:16:46.665Z</time></trkpt><trkpt lat="42.2879775" lon="13.9814563"><ele>251.66666666666666</ele><time>2026-05-02T08:16:49.664Z</time></trkpt><trkpt lat="42.2879064" lon="13.9814937"><ele>253.0</ele><time>2026-05-02T08:16:51.667Z</time></trkpt><trkpt lat="42.2878277" lon="13.9814365"><ele>252.99999999999997</ele><time>2026-05-02T08:16:53.665Z</time></trkpt><trkpt lat="42.287803" lon="13.981315"><ele>253.0</ele><time>2026-05-02T08:16:55.642Z</time></trkpt><trkpt lat="42.2877642" lon="13.9811892"><ele>253.0</ele><time>2026-05-02T08:16:57.669Z</time></trkpt><trkpt lat="42.2877034" lon="13.9811186"><ele>253.0</ele><time>2026-05-02T08:16:59.666Z</time></trkpt><trkpt lat="42.2876328" lon="13.9810882"><ele>252.99999999999997</ele><time>2026-05-02T08:17:01.669Z</time></trkpt><trkpt lat="42.2875431" lon="13.9810541"><ele>253.0</ele><time>2026-05-02T08:17:03.671Z</time></trkpt><trkpt lat="42.2874785" lon="13.9810396"><ele>252.99999999999997</ele><time>2026-05-02T08:17:04.67Z</time></trkpt><trkpt lat="42.2873995" lon="13.9810188"><ele>253.0</ele><time>2026-05-02T08:17:05.665Z</time></trkpt><trkpt lat="42.2873202" lon="13.9809883"><ele>253.0</ele><time>2026-05-02T08:17:06.663Z</time></trkpt><trkpt lat="42.2872506" lon="13.9809588"><ele>253.0</ele><time>2026-05-02T08:17:07.663Z</time></trkpt><trkpt lat="42.2871399" lon="13.9809187"><ele>252.99999999999997</ele><time>2026-05-02T08:17:09.669Z</time></trkpt><trkpt lat="42.2870494" lon="13.980882"><ele>253.0</ele><time>2026-05-02T08:17:11.664Z</time></trkpt><trkpt lat="42.2869854" lon="13.9807988"><ele>253.66666666666666</ele><time>2026-05-02T08:17:13.67Z</time></trkpt><trkpt lat="42.2869532" lon="13.9806651"><ele>254.33333333333331</ele><time>2026-05-02T08:17:15.664Z</time></trkpt><trkpt lat="42.2869562" lon="13.9805772"><ele>255.0</ele><time>2026-05-02T08:17:16.666Z</time></trkpt><trkpt lat="42.2869648" lon="13.9804865"><ele>255.66666666666669</ele><time>2026-05-02T08:17:17.667Z</time></trkpt><trkpt lat="42.2869811" lon="13.9803206"><ele>256.33333333333337</ele><time>2026-05-02T08:17:19.67Z</time></trkpt><trkpt lat="42.286991" lon="13.9802324"><ele>257.0</ele><time>2026-05-02T08:17:20.666Z</time></trkpt><trkpt lat="42.2869948" lon="13.9801355"><ele>257.0</ele><time>2026-05-02T08:17:21.669Z</time></trkpt><trkpt lat="42.2869893" lon="13.9800377"><ele>257.0</ele><time>2026-05-02T08:17:22.668Z</time></trkpt><trkpt lat="42.2869634" lon="13.9798679"><ele>257.0</ele><time>2026-05-02T08:17:24.667Z</time></trkpt><trkpt lat="42.2869374" lon="13.9797784"><ele>257.0</ele><time>2026-05-02T08:17:25.67Z</time></trkpt><trkpt lat="42.2869042" lon="13.9796955"><ele>257.0</ele><time>2026-05-02T08:17:26.666Z</time></trkpt><trkpt lat="42.2868746" lon="13.9796129"><ele>257.0</ele><time>2026-05-02T08:17:27.667Z</time></trkpt><trkpt lat="42.2868572" lon="13.9795281"><ele>257.1428571428571</ele><time>2026-05-02T08:17:28.67Z</time></trkpt><trkpt lat="42.2868492" lon="13.9794314"><ele>257.2857142857143</ele><time>2026-05-02T08:17:29.668Z</time></trkpt><trkpt lat="42.2868468" lon="13.979331"><ele>257.42857142857144</ele><time>2026-05-02T08:17:30.667Z</time></trkpt><trkpt lat="42.286844" lon="13.9792376"><ele>257.57142857142856</ele><time>2026-05-02T08:17:31.664Z</time></trkpt><trkpt lat="42.2868346" lon="13.9791416"><ele>257.7142857142857</ele><time>2026-05-02T08:17:32.662Z</time></trkpt><trkpt lat="42.2868222" lon="13.9790422"><ele>257.85714285714283</ele><time>2026-05-02T08:17:33.664Z</time></trkpt><trkpt lat="42.2868077" lon="13.9789435"><ele>258.0</ele><time>2026-05-02T08:17:34.665Z</time></trkpt><trkpt lat="42.2867897" lon="13.9788449"><ele>257.8333333333333</ele><time>2026-05-02T08:17:35.661Z</time></trkpt><trkpt lat="42.2867692" lon="13.9787482"><ele>257.6666666666667</ele><time>2026-05-02T08:17:36.664Z</time></trkpt><trkpt lat="42.2867451" lon="13.978649"><ele>257.5</ele><time>2026-05-02T08:17:37.67Z</time></trkpt><trkpt lat="42.2867147" lon="13.9785485"><ele>257.33333333333337</ele><time>2026-05-02T08:17:38.665Z</time></trkpt><trkpt lat="42.2866768" lon="13.9784474"><ele>257.1666666666667</ele><time>2026-05-02T08:17:39.667Z</time></trkpt><trkpt lat="42.2866354" lon="13.9783534"><ele>257.0</ele><time>2026-05-02T08:17:40.668Z</time></trkpt><trkpt lat="42.2865909" lon="13.9782761"><ele>257.0</ele><time>2026-05-02T08:17:41.671Z</time></trkpt><trkpt lat="42.2865389" lon="13.9782048"><ele>257.0</ele><time>2026-05-02T08:17:42.67Z</time></trkpt><trkpt lat="42.2864789" lon="13.978138"><ele>257.0</ele><time>2026-05-02T08:17:43.667Z</time></trkpt><trkpt lat="42.2864166" lon="13.9780728"><ele>257.0</ele><time>2026-05-02T08:17:44.668Z</time></trkpt><trkpt lat="42.2863536" lon="13.9780035"><ele>257.0</ele><time>2026-05-02T08:17:45.666Z</time></trkpt><trkpt lat="42.2862867" lon="13.9779285"><ele>257.0</ele><time>2026-05-02T08:17:46.67Z</time></trkpt><trkpt lat="42.2862231" lon="13.9778497"><ele>258.1666666666667</ele><time>2026-05-02T08:17:47.665Z</time></trkpt><trkpt lat="42.2861645" lon="13.9777638"><ele>259.33333333333337</ele><time>2026-05-02T08:17:48.664Z</time></trkpt><trkpt lat="42.2861124" lon="13.9776691"><ele>260.5</ele><time>2026-05-02T08:17:49.668Z</time></trkpt><trkpt lat="42.2860681" lon="13.977564"><ele>261.6666666666667</ele><time>2026-05-02T08:17:50.671Z</time></trkpt><trkpt lat="42.2860252" lon="13.977465"><ele>262.8333333333333</ele><time>2026-05-02T08:17:51.665Z</time></trkpt><trkpt lat="42.2859711" lon="13.9773715"><ele>264.0</ele><time>2026-05-02T08:17:52.665Z</time></trkpt><trkpt lat="42.2859081" lon="13.977284"><ele>264.0</ele><time>2026-05-02T08:17:53.665Z</time></trkpt><trkpt lat="42.2858373" lon="13.9772058"><ele>264.0</ele><time>2026-05-02T08:17:54.671Z</time></trkpt><trkpt lat="42.2857645" lon="13.9771329"><ele>264.0</ele><time>2026-05-02T08:17:55.67Z</time></trkpt><trkpt lat="42.2856875" lon="13.9770723"><ele>264.0</ele><time>2026-05-02T08:17:56.664Z</time></trkpt><trkpt lat="42.2856113" lon="13.9770165"><ele>264.0</ele><time>2026-05-02T08:17:57.665Z</time></trkpt><trkpt lat="42.2855397" lon="13.9769627"><ele>264.0</ele><time>2026-05-02T08:17:58.665Z</time></trkpt><trkpt lat="42.2854758" lon="13.9769002"><ele>264.8333333333333</ele><time>2026-05-02T08:17:59.665Z</time></trkpt><trkpt lat="42.2854212" lon="13.9768335"><ele>265.6666666666667</ele><time>2026-05-02T08:18:00.669Z</time></trkpt><trkpt lat="42.2853747" lon="13.9767723"><ele>266.5</ele><time>2026-05-02T08:18:01.665Z</time></trkpt><trkpt lat="42.2853473" lon="13.9766136"><ele>267.33333333333337</ele><time>2026-05-02T08:18:03.667Z</time></trkpt><trkpt lat="42.2853568" lon="13.9765051"><ele>268.1666666666667</ele><time>2026-05-02T08:18:04.668Z</time></trkpt><trkpt lat="42.2853767" lon="13.9763714"><ele>269.0</ele><time>2026-05-02T08:18:05.665Z</time></trkpt><trkpt lat="42.2853977" lon="13.9762285"><ele>269.0</ele><time>2026-05-02T08:18:06.668Z</time></trkpt><trkpt lat="42.2854137" lon="13.9760772"><ele>269.0</ele><time>2026-05-02T08:18:07.669Z</time></trkpt><trkpt lat="42.2854242" lon="13.9759231"><ele>269.0</ele><time>2026-05-02T08:18:08.668Z</time></trkpt><trkpt lat="42.28542" lon="13.9757692"><ele>269.0</ele><time>2026-05-02T08:18:09.67Z</time></trkpt><trkpt lat="42.2854006" lon="13.9756188"><ele>270.25</ele><time>2026-05-02T08:18:10.666Z</time></trkpt><trkpt lat="42.2853784" lon="13.9754731"><ele>271.5</ele><time>2026-05-02T08:18:11.665Z</time></trkpt><trkpt lat="42.2853546" lon="13.975315"><ele>272.75</ele><time>2026-05-02T08:18:12.666Z</time></trkpt><trkpt lat="42.2853272" lon="13.9751495"><ele>274.0</ele><time>2026-05-02T08:18:13.669Z</time></trkpt><trkpt lat="42.2852892" lon="13.974994"><ele>274.5</ele><time>2026-05-02T08:18:14.665Z</time></trkpt><trkpt lat="42.2852321" lon="13.9748393"><ele>275.0</ele><time>2026-05-02T08:18:15.67Z</time></trkpt><trkpt lat="42.2851608" lon="13.9746805"><ele>275.5</ele><time>2026-05-02T08:18:16.667Z</time></trkpt><trkpt lat="42.2850832" lon="13.9745183"><ele>276.0</ele><time>2026-05-02T08:18:17.671Z</time></trkpt><trkpt lat="42.2850058" lon="13.9743546"><ele>276.3333333333333</ele><time>2026-05-02T08:18:18.667Z</time></trkpt><trkpt lat="42.284928" lon="13.9741844"><ele>276.66666666666663</ele><time>2026-05-02T08:18:19.664Z</time></trkpt><trkpt lat="42.2848481" lon="13.9740047"><ele>277.0</ele><time>2026-05-02T08:18:20.664Z</time></trkpt><trkpt lat="42.2847697" lon="13.973823"><ele>279.75</ele><time>2026-05-02T08:18:21.666Z</time></trkpt><trkpt lat="42.2846988" lon="13.973647"><ele>282.5</ele><time>2026-05-02T08:18:22.67Z</time></trkpt><trkpt lat="42.2846377" lon="13.973484"><ele>285.25</ele><time>2026-05-02T08:18:23.666Z</time></trkpt><trkpt lat="42.284583" lon="13.9733445"><ele>288.0</ele><time>2026-05-02T08:18:24.67Z</time></trkpt><trkpt lat="42.2845212" lon="13.9732247"><ele>288.75</ele><time>2026-05-02T08:18:25.665Z</time></trkpt><trkpt lat="42.2844364" lon="13.9731145"><ele>289.5</ele><time>2026-05-02T08:18:26.668Z</time></trkpt><trkpt lat="42.2843267" lon="13.9730203"><ele>290.25</ele><time>2026-05-02T08:18:27.664Z</time></trkpt><trkpt lat="42.2841958" lon="13.9729308"><ele>291.0</ele><time>2026-05-02T08:18:28.665Z</time></trkpt><trkpt lat="42.2840612" lon="13.9728438"><ele>291.0</ele><time>2026-05-02T08:18:29.666Z</time></trkpt><trkpt lat="42.2839385" lon="13.9727685"><ele>291.0</ele><time>2026-05-02T08:18:30.665Z</time></trkpt><trkpt lat="42.2838288" lon="13.972709"><ele>291.0</ele><time>2026-05-02T08:18:31.67Z</time></trkpt><trkpt lat="42.2837286" lon="13.9726582"><ele>291.0</ele><time>2026-05-02T08:18:32.67Z</time></trkpt><trkpt lat="42.2836294" lon="13.9726074"><ele>291.40000000000003</ele><time>2026-05-02T08:18:33.669Z</time></trkpt><trkpt lat="42.2835239" lon="13.9725549"><ele>291.8</ele><time>2026-05-02T08:18:34.667Z</time></trkpt><trkpt lat="42.2834094" lon="13.9725244"><ele>292.20000000000005</ele><time>2026-05-02T08:18:35.671Z</time></trkpt><trkpt lat="42.2833" lon="13.9725178"><ele>292.6</ele><time>2026-05-02T08:18:36.664Z</time></trkpt><trkpt lat="42.2832089" lon="13.9725057"><ele>293.0</ele><time>2026-05-02T08:18:37.668Z</time></trkpt><trkpt lat="42.2831398" lon="13.9724584"><ele>294.33333333333337</ele><time>2026-05-02T08:18:38.669Z</time></trkpt><trkpt lat="42.283086" lon="13.9723803"><ele>295.6666666666667</ele><time>2026-05-02T08:18:39.664Z</time></trkpt><trkpt lat="42.2830316" lon="13.9722799"><ele>297.0</ele><time>2026-05-02T08:18:40.669Z</time></trkpt><trkpt lat="42.2829793" lon="13.9721815"><ele>298.3333333333333</ele><time>2026-05-02T08:18:41.671Z</time></trkpt><trkpt lat="42.2829288" lon="13.9721037"><ele>299.66666666666663</ele><time>2026-05-02T08:18:42.667Z</time></trkpt><trkpt lat="42.2828975" lon="13.9720187"><ele>301.0</ele><time>2026-05-02T08:18:45.664Z</time></trkpt><trkpt lat="42.2828374" lon="13.971967"><ele>301.0</ele><time>2026-05-02T08:18:51.67Z</time></trkpt><trkpt lat="42.2828412" lon="13.9718314"><ele>301.0</ele><time>2026-05-02T08:18:53.67Z</time></trkpt><trkpt lat="42.282855" lon="13.9717025"><ele>301.0</ele><time>2026-05-02T08:18:54.662Z</time></trkpt><trkpt lat="42.2828689" lon="13.971566"><ele>301.0</ele><time>2026-05-02T08:18:55.662Z</time></trkpt><trkpt lat="42.2828849" lon="13.9713888"><ele>301.0</ele><time>2026-05-02T08:18:56.665Z</time></trkpt><trkpt lat="42.2829018" lon="13.9712077"><ele>301.0</ele><time>2026-05-02T08:18:57.666Z</time></trkpt><trkpt lat="42.2829122" lon="13.9710491"><ele>301.0</ele><time>2026-05-02T08:18:58.671Z</time></trkpt><trkpt lat="42.2829155" lon="13.9709129"><ele>301.0</ele><time>2026-05-02T08:18:59.669Z</time></trkpt><trkpt lat="42.2829174" lon="13.9708253"><ele>301.0</ele><time>2026-05-02T08:19:00.665Z</time></trkpt><trkpt lat="42.2828811" lon="13.970905"><ele>301.0</ele><time>2026-05-02T08:19:06.67Z</time></trkpt><trkpt lat="42.2828872" lon="13.9710518"><ele>301.0</ele><time>2026-05-02T08:19:07.671Z</time></trkpt><trkpt lat="42.2828731" lon="13.9712094"><ele>301.0</ele><time>2026-05-02T08:19:08.668Z</time></trkpt><trkpt lat="42.282854" lon="13.9713941"><ele>301.0</ele><time>2026-05-02T08:19:09.665Z</time></trkpt><trkpt lat="42.282839" lon="13.9715568"><ele>301.0</ele><time>2026-05-02T08:19:10.669Z</time></trkpt><trkpt lat="42.2828275" lon="13.9717111"><ele>301.0</ele><time>2026-05-02T08:19:11.666Z</time></trkpt><trkpt lat="42.2828157" lon="13.9718513"><ele>301.0</ele><time>2026-05-02T08:19:12.67Z</time></trkpt><trkpt lat="42.2828096" lon="13.9719551"><ele>301.0</ele><time>2026-05-02T08:19:13.663Z</time></trkpt><trkpt lat="42.2828442" lon="13.9720306"><ele>301.0</ele><time>2026-05-02T08:19:15.67Z</time></trkpt><trkpt lat="42.2829021" lon="13.971981"><ele>301.0</ele><time>2026-05-02T08:19:17.667Z</time></trkpt><trkpt lat="42.2829666" lon="13.9718449"><ele>301.0</ele><time>2026-05-02T08:19:19.67Z</time></trkpt><trkpt lat="42.283005" lon="13.9717734"><ele>301.0</ele><time>2026-05-02T08:19:20.67Z</time></trkpt><trkpt lat="42.2830429" lon="13.9716953"><ele>301.0</ele><time>2026-05-02T08:19:21.671Z</time></trkpt><trkpt lat="42.2830775" lon="13.9716157"><ele>301.0</ele><time>2026-05-02T08:19:22.669Z</time></trkpt><trkpt lat="42.2831043" lon="13.9715367"><ele>301.0</ele><time>2026-05-02T08:19:23.665Z</time></trkpt><trkpt lat="42.2831293" lon="13.9714341"><ele>301.0</ele><time>2026-05-02T08:19:24.666Z</time></trkpt><trkpt lat="42.2831589" lon="13.971322"><ele>301.0</ele><time>2026-05-02T08:19:25.669Z</time></trkpt><trkpt lat="42.2832058" lon="13.9712173"><ele>299.0</ele><time>2026-05-02T08:19:26.669Z</time></trkpt><trkpt lat="42.2832658" lon="13.9711222"><ele>297.0</ele><time>2026-05-02T08:19:27.669Z</time></trkpt><trkpt lat="42.283342" lon="13.9710217"><ele>295.0</ele><time>2026-05-02T08:19:28.668Z</time></trkpt><trkpt lat="42.283428" lon="13.9709215"><ele>293.0</ele><time>2026-05-02T08:19:29.671Z</time></trkpt><trkpt lat="42.2835105" lon="13.9708231"><ele>291.0</ele><time>2026-05-02T08:19:30.664Z</time></trkpt><trkpt lat="42.2835918" lon="13.9707201"><ele>290.8</ele><time>2026-05-02T08:19:31.666Z</time></trkpt><trkpt lat="42.2836689" lon="13.9706351"><ele>290.6</ele><time>2026-05-02T08:19:32.67Z</time></trkpt><trkpt lat="42.2837477" lon="13.9705837"><ele>290.4</ele><time>2026-05-02T08:19:33.666Z</time></trkpt><trkpt lat="42.2838366" lon="13.9705542"><ele>290.2</ele><time>2026-05-02T08:19:34.67Z</time></trkpt><trkpt lat="42.2839322" lon="13.9705397"><ele>290.0</ele><time>2026-05-02T08:19:35.667Z</time></trkpt><trkpt lat="42.2840438" lon="13.9705325"><ele>289.25</ele><time>2026-05-02T08:19:36.666Z</time></trkpt><trkpt lat="42.2841604" lon="13.9705339"><ele>288.5</ele><time>2026-05-02T08:19:37.668Z</time></trkpt><trkpt lat="42.2842764" lon="13.9705209"><ele>287.75</ele><time>2026-05-02T08:19:38.664Z</time></trkpt><trkpt lat="42.2844022" lon="13.9704936"><ele>287.0</ele><time>2026-05-02T08:19:39.671Z</time></trkpt><trkpt lat="42.2845313" lon="13.9704616"><ele>287.0</ele><time>2026-05-02T08:19:40.666Z</time></trkpt><trkpt lat="42.2846662" lon="13.9704242"><ele>287.0</ele><time>2026-05-02T08:19:41.667Z</time></trkpt><trkpt lat="42.2848045" lon="13.9703799"><ele>287.0</ele><time>2026-05-02T08:19:42.666Z</time></trkpt><trkpt lat="42.2849347" lon="13.9703355"><ele>287.0</ele><time>2026-05-02T08:19:43.667Z</time></trkpt><trkpt lat="42.285053" lon="13.9702936"><ele>287.1666666666667</ele><time>2026-05-02T08:19:44.666Z</time></trkpt><trkpt lat="42.2851472" lon="13.9702576"><ele>287.33333333333337</ele><time>2026-05-02T08:19:45.662Z</time></trkpt><trkpt lat="42.2852121" lon="13.9702316"><ele>287.5</ele><time>2026-05-02T08:19:46.67Z</time></trkpt><trkpt lat="42.2852981" lon="13.9701629"><ele>287.6666666666667</ele><time>2026-05-02T08:19:48.664Z</time></trkpt><trkpt lat="42.2853651" lon="13.9700627"><ele>287.8333333333333</ele><time>2026-05-02T08:19:50.671Z</time></trkpt><trkpt lat="42.2854056" lon="13.9699822"><ele>288.0</ele><time>2026-05-02T08:19:51.67Z</time></trkpt><trkpt lat="42.2854532" lon="13.9698649"><ele>288.0</ele><time>2026-05-02T08:19:52.67Z</time></trkpt><trkpt lat="42.2854984" lon="13.9697534"><ele>288.0</ele><time>2026-05-02T08:19:53.669Z</time></trkpt><trkpt lat="42.2855455" lon="13.969637"><ele>288.0</ele><time>2026-05-02T08:19:54.669Z</time></trkpt><trkpt lat="42.285592" lon="13.9695176"><ele>288.0</ele><time>2026-05-02T08:19:55.665Z</time></trkpt><trkpt lat="42.2856365" lon="13.969401"><ele>288.0</ele><time>2026-05-02T08:19:56.668Z</time></trkpt><trkpt lat="42.2856814" lon="13.969286"><ele>289.3333333333333</ele><time>2026-05-02T08:19:57.666Z</time></trkpt><trkpt lat="42.2857218" lon="13.969179"><ele>290.6666666666667</ele><time>2026-05-02T08:19:58.665Z</time></trkpt><trkpt lat="42.2857566" lon="13.9690752"><ele>292.0</ele><time>2026-05-02T08:19:59.668Z</time></trkpt><trkpt lat="42.2857887" lon="13.9689659"><ele>293.33333333333337</ele><time>2026-05-02T08:20:00.669Z</time></trkpt><trkpt lat="42.2858204" lon="13.9688692"><ele>294.6666666666667</ele><time>2026-05-02T08:20:01.667Z</time></trkpt><trkpt lat="42.2858608" lon="13.9687765"><ele>296.0</ele><time>2026-05-02T08:20:02.663Z</time></trkpt><trkpt lat="42.2859105" lon="13.9686885"><ele>296.0</ele><time>2026-05-02T08:20:03.663Z</time></trkpt><trkpt lat="42.2859723" lon="13.9686149"><ele>296.0</ele><time>2026-05-02T08:20:04.663Z</time></trkpt><trkpt lat="42.2860481" lon="13.968536"><ele>296.0</ele><time>2026-05-02T08:20:05.671Z</time></trkpt><trkpt lat="42.2861235" lon="13.9684326"><ele>296.0</ele><time>2026-05-02T08:20:06.664Z</time></trkpt><trkpt lat="42.2861879" lon="13.96833"><ele>296.0</ele><time>2026-05-02T08:20:07.668Z</time></trkpt><trkpt lat="42.2862479" lon="13.9682313"><ele>297.2</ele><time>2026-05-02T08:20:08.667Z</time></trkpt><trkpt lat="42.2863107" lon="13.9681243"><ele>298.40000000000003</ele><time>2026-05-02T08:20:09.67Z</time></trkpt><trkpt lat="42.2863755" lon="13.9680096"><ele>299.6</ele><time>2026-05-02T08:20:10.668Z</time></trkpt><trkpt lat="42.2864352" lon="13.9678889"><ele>300.8</ele><time>2026-05-02T08:20:11.67Z</time></trkpt><trkpt lat="42.2864898" lon="13.96778"><ele>302.0</ele><time>2026-05-02T08:20:12.67Z</time></trkpt><trkpt lat="42.2865445" lon="13.9676671"><ele>300.8</ele><time>2026-05-02T08:20:13.667Z</time></trkpt><trkpt lat="42.2865957" lon="13.9675638"><ele>299.6</ele><time>2026-05-02T08:20:14.668Z</time></trkpt><trkpt lat="42.2866525" lon="13.9674627"><ele>298.40000000000003</ele><time>2026-05-02T08:20:15.67Z</time></trkpt><trkpt lat="42.2867167" lon="13.9673647"><ele>297.2</ele><time>2026-05-02T08:20:16.667Z</time></trkpt><trkpt lat="42.2867813" lon="13.967277"><ele>296.0</ele><time>2026-05-02T08:20:17.667Z</time></trkpt><trkpt lat="42.2868422" lon="13.96719"><ele>296.0</ele><time>2026-05-02T08:20:18.663Z</time></trkpt><trkpt lat="42.286891" lon="13.9671013"><ele>296.0</ele><time>2026-05-02T08:20:19.67Z</time></trkpt><trkpt lat="42.2869316" lon="13.9670171"><ele>296.0</ele><time>2026-05-02T08:20:20.667Z</time></trkpt><trkpt lat="42.2869641" lon="13.9669317"><ele>296.0</ele><time>2026-05-02T08:20:21.67Z</time></trkpt><trkpt lat="42.2869844" lon="13.9668389"><ele>296.0</ele><time>2026-05-02T08:20:22.669Z</time></trkpt><trkpt lat="42.2869914" lon="13.9667356"><ele>296.0</ele><time>2026-05-02T08:20:23.665Z</time></trkpt><trkpt lat="42.2869777" lon="13.9666336"><ele>298.75</ele><time>2026-05-02T08:20:24.669Z</time></trkpt><trkpt lat="42.2869484" lon="13.966515"><ele>301.5</ele><time>2026-05-02T08:20:25.669Z</time></trkpt><trkpt lat="42.28691" lon="13.9663734"><ele>304.25</ele><time>2026-05-02T08:20:26.667Z</time></trkpt><trkpt lat="42.2868629" lon="13.9662053"><ele>307.0</ele><time>2026-05-02T08:20:27.67Z</time></trkpt><trkpt lat="42.286814" lon="13.9660353"><ele>307.0</ele><time>2026-05-02T08:20:28.666Z</time></trkpt><trkpt lat="42.2867657" lon="13.9658648"><ele>307.0</ele><time>2026-05-02T08:20:29.669Z</time></trkpt><trkpt lat="42.2867217" lon="13.9657044"><ele>307.0</ele><time>2026-05-02T08:20:30.67Z</time></trkpt><trkpt lat="42.2866825" lon="13.9655624"><ele>307.0</ele><time>2026-05-02T08:20:31.667Z</time></trkpt><trkpt lat="42.2866411" lon="13.9654229"><ele>308.0</ele><time>2026-05-02T08:20:32.67Z</time></trkpt><trkpt lat="42.2866032" lon="13.9652921"><ele>309.0</ele><time>2026-05-02T08:20:33.665Z</time></trkpt><trkpt lat="42.2865796" lon="13.9651751"><ele>310.0</ele><time>2026-05-02T08:20:34.669Z</time></trkpt><trkpt lat="42.2865608" lon="13.9650514"><ele>311.0</ele><time>2026-05-02T08:20:35.671Z</time></trkpt><trkpt lat="42.2865525" lon="13.9649161"><ele>312.0</ele><time>2026-05-02T08:20:36.665Z</time></trkpt><trkpt lat="42.2865526" lon="13.9647724"><ele>312.2</ele><time>2026-05-02T08:20:37.666Z</time></trkpt><trkpt lat="42.2865591" lon="13.9646354"><ele>312.4</ele><time>2026-05-02T08:20:38.668Z</time></trkpt><trkpt lat="42.2865695" lon="13.9645097"><ele>312.6</ele><time>2026-05-02T08:20:39.668Z</time></trkpt><trkpt lat="42.2865871" lon="13.964395"><ele>312.8</ele><time>2026-05-02T08:20:40.667Z</time></trkpt><trkpt lat="42.2866157" lon="13.96429"><ele>313.0</ele><time>2026-05-02T08:20:41.667Z</time></trkpt><trkpt lat="42.2866552" lon="13.9641843"><ele>313.3333333333333</ele><time>2026-05-02T08:20:42.67Z</time></trkpt><trkpt lat="42.2867082" lon="13.9640785"><ele>313.66666666666663</ele><time>2026-05-02T08:20:43.664Z</time></trkpt><trkpt lat="42.2867684" lon="13.9639935"><ele>314.0</ele><time>2026-05-02T08:20:44.67Z</time></trkpt><trkpt lat="42.286826" lon="13.9639105"><ele>314.3333333333333</ele><time>2026-05-02T08:20:45.666Z</time></trkpt><trkpt lat="42.2868731" lon="13.963831"><ele>314.6666666666667</ele><time>2026-05-02T08:20:46.671Z</time></trkpt><trkpt lat="42.2869049" lon="13.9637327"><ele>315.0</ele><time>2026-05-02T08:20:47.664Z</time></trkpt><trkpt lat="42.2869173" lon="13.9636207"><ele>315.0</ele><time>2026-05-02T08:20:48.667Z</time></trkpt><trkpt lat="42.2869089" lon="13.9635087"><ele>315.0</ele><time>2026-05-02T08:20:49.665Z</time></trkpt><trkpt lat="42.2868774" lon="13.9633947"><ele>315.0</ele><time>2026-05-02T08:20:50.666Z</time></trkpt><trkpt lat="42.2868301" lon="13.9632832"><ele>315.0</ele><time>2026-05-02T08:20:51.663Z</time></trkpt><trkpt lat="42.2867724" lon="13.9631588"><ele>315.0</ele><time>2026-05-02T08:20:52.671Z</time></trkpt><trkpt lat="42.2867123" lon="13.9630086"><ele>313.3333333333333</ele><time>2026-05-02T08:20:53.671Z</time></trkpt><trkpt lat="42.2866475" lon="13.9628143"><ele>311.66666666666663</ele><time>2026-05-02T08:20:54.669Z</time></trkpt><trkpt lat="42.2865701" lon="13.9625942"><ele>310.0</ele><time>2026-05-02T08:20:55.671Z</time></trkpt><trkpt lat="42.2864969" lon="13.9623706"><ele>310.0</ele><time>2026-05-02T08:20:56.667Z</time></trkpt><trkpt lat="42.2864241" lon="13.9621511"><ele>310.0</ele><time>2026-05-02T08:20:57.67Z</time></trkpt><trkpt lat="42.2863578" lon="13.9619449"><ele>310.0</ele><time>2026-05-02T08:20:58.671Z</time></trkpt><trkpt lat="42.286293" lon="13.9617517"><ele>309.0</ele><time>2026-05-02T08:20:59.668Z</time></trkpt><trkpt lat="42.2862366" lon="13.9615877"><ele>308.0</ele><time>2026-05-02T08:21:00.67Z</time></trkpt><trkpt lat="42.2861888" lon="13.9614381"><ele>307.0</ele><time>2026-05-02T08:21:01.666Z</time></trkpt><trkpt lat="42.2861575" lon="13.9612912"><ele>306.0</ele><time>2026-05-02T08:21:02.67Z</time></trkpt><trkpt lat="42.2861383" lon="13.9611428"><ele>306.0</ele><time>2026-05-02T08:21:03.664Z</time></trkpt><trkpt lat="42.2861266" lon="13.9609829"><ele>306.0</ele><time>2026-05-02T08:21:04.669Z</time></trkpt><trkpt lat="42.2861246" lon="13.9608243"><ele>306.0</ele><time>2026-05-02T08:21:05.664Z</time></trkpt><trkpt lat="42.2861364" lon="13.960663"><ele>306.0</ele><time>2026-05-02T08:21:06.663Z</time></trkpt><trkpt lat="42.2861602" lon="13.9605002"><ele>305.5</ele><time>2026-05-02T08:21:07.67Z</time></trkpt><trkpt lat="42.2861926" lon="13.9603256"><ele>305.0</ele><time>2026-05-02T08:21:08.67Z</time></trkpt><trkpt lat="42.286224" lon="13.9601483"><ele>304.5</ele><time>2026-05-02T08:21:09.667Z</time></trkpt><trkpt lat="42.2862449" lon="13.9599971"><ele>304.0</ele><time>2026-05-02T08:21:10.664Z</time></trkpt><trkpt lat="42.2862525" lon="13.9599052"><ele>304.0</ele><time>2026-05-02T08:21:11.671Z</time></trkpt><trkpt lat="42.2862476" lon="13.9598093"><ele>304.0</ele><time>2026-05-02T08:21:13.665Z</time></trkpt><trkpt lat="42.2862624" lon="13.9596833"><ele>304.0</ele><time>2026-05-02T08:21:20.669Z</time></trkpt><trkpt lat="42.286277" lon="13.9595925"><ele>304.0</ele><time>2026-05-02T08:21:21.669Z</time></trkpt><trkpt lat="42.2862733" lon="13.9594931"><ele>304.0</ele><time>2026-05-02T08:21:22.668Z</time></trkpt><trkpt lat="42.2862577" lon="13.9593976"><ele>304.0</ele><time>2026-05-02T08:21:23.666Z</time></trkpt><trkpt lat="42.2862382" lon="13.9593026"><ele>304.0</ele><time>2026-05-02T08:21:24.667Z</time></trkpt><trkpt lat="42.2862058" lon="13.9592092"><ele>304.0</ele><time>2026-05-02T08:21:25.665Z</time></trkpt><trkpt lat="42.2861566" lon="13.9591129"><ele>304.0</ele><time>2026-05-02T08:21:26.668Z</time></trkpt><trkpt lat="42.2860953" lon="13.9590176"><ele>304.0</ele><time>2026-05-02T08:21:27.668Z</time></trkpt><trkpt lat="42.2860275" lon="13.9589292"><ele>304.0</ele><time>2026-05-02T08:21:28.67Z</time></trkpt><trkpt lat="42.285961" lon="13.9588467"><ele>304.0</ele><time>2026-05-02T08:21:29.67Z</time></trkpt><trkpt lat="42.2858954" lon="13.958769"><ele>302.66666666666663</ele><time>2026-05-02T08:21:30.665Z</time></trkpt><trkpt lat="42.2858334" lon="13.958693"><ele>301.3333333333333</ele><time>2026-05-02T08:21:31.669Z</time></trkpt><trkpt lat="42.2857748" lon="13.9586163"><ele>300.0</ele><time>2026-05-02T08:21:32.668Z</time></trkpt><trkpt lat="42.2857187" lon="13.9585381"><ele>298.6666666666667</ele><time>2026-05-02T08:21:33.664Z</time></trkpt><trkpt lat="42.2856698" lon="13.958459"><ele>297.33333333333337</ele><time>2026-05-02T08:21:34.666Z</time></trkpt><trkpt lat="42.2856373" lon="13.958362"><ele>296.0</ele><time>2026-05-02T08:21:36.664Z</time></trkpt><trkpt lat="42.2856187" lon="13.9582804"><ele>295.40000000000003</ele><time>2026-05-02T08:21:38.668Z</time></trkpt><trkpt lat="42.2855267" lon="13.9581774"><ele>294.8</ele><time>2026-05-02T08:21:40.67Z</time></trkpt><trkpt lat="42.2854579" lon="13.9581419"><ele>294.20000000000005</ele><time>2026-05-02T08:21:41.67Z</time></trkpt><trkpt lat="42.2853814" lon="13.9581103"><ele>293.6</ele><time>2026-05-02T08:21:42.667Z</time></trkpt><trkpt lat="42.2852936" lon="13.9580909"><ele>293.0</ele><time>2026-05-02T08:21:43.668Z</time></trkpt><trkpt lat="42.2851937" lon="13.9580801"><ele>293.0</ele><time>2026-05-02T08:21:44.663Z</time></trkpt><trkpt lat="42.2850833" lon="13.9580706"><ele>293.0</ele><time>2026-05-02T08:21:45.668Z</time></trkpt><trkpt lat="42.2849672" lon="13.9580596"><ele>293.0</ele><time>2026-05-02T08:21:46.666Z</time></trkpt><trkpt lat="42.2848409" lon="13.958051"><ele>293.0</ele><time>2026-05-02T08:21:47.663Z</time></trkpt><trkpt lat="42.2847039" lon="13.9580446"><ele>291.75</ele><time>2026-05-02T08:21:48.669Z</time></trkpt><trkpt lat="42.2845672" lon="13.9580362"><ele>290.5</ele><time>2026-05-02T08:21:49.664Z</time></trkpt><trkpt lat="42.2844413" lon="13.9580261"><ele>289.25</ele><time>2026-05-02T08:21:50.663Z</time></trkpt><trkpt lat="42.2843272" lon="13.958015"><ele>288.0</ele><time>2026-05-02T08:21:51.668Z</time></trkpt><trkpt lat="42.2842399" lon="13.9580072"><ele>288.0</ele><time>2026-05-02T08:21:52.67Z</time></trkpt><trkpt lat="42.2841547" lon="13.9579964"><ele>288.0</ele><time>2026-05-02T08:21:54.664Z</time></trkpt><trkpt lat="42.2842062" lon="13.9580629"><ele>288.0</ele><time>2026-05-02T08:22:00.663Z</time></trkpt><trkpt lat="42.2842899" lon="13.9580624"><ele>288.0</ele><time>2026-05-02T08:22:01.67Z</time></trkpt><trkpt lat="42.2843964" lon="13.9580646"><ele>288.0</ele><time>2026-05-02T08:22:02.662Z</time></trkpt><trkpt lat="42.2845393" lon="13.9580685"><ele>288.0</ele><time>2026-05-02T08:22:03.668Z</time></trkpt><trkpt lat="42.2846882" lon="13.9580773"><ele>288.0</ele><time>2026-05-02T08:22:04.667Z</time></trkpt><trkpt lat="42.2848136" lon="13.9580897"><ele>288.0</ele><time>2026-05-02T08:22:05.67Z</time></trkpt><trkpt lat="42.2849279" lon="13.9581013"><ele>288.0</ele><time>2026-05-02T08:22:06.67Z</time></trkpt><trkpt lat="42.2850205" lon="13.9581081"><ele>288.8333333333333</ele><time>2026-05-02T08:22:07.667Z</time></trkpt><trkpt lat="42.2850883" lon="13.9581085"><ele>289.6666666666667</ele><time>2026-05-02T08:22:08.668Z</time></trkpt><trkpt lat="42.2851693" lon="13.9580824"><ele>290.5</ele><time>2026-05-02T08:22:10.665Z</time></trkpt><trkpt lat="42.2851728" lon="13.9579785"><ele>291.33333333333337</ele><time>2026-05-02T08:22:13.665Z</time></trkpt><trkpt lat="42.2850743" lon="13.9579299"><ele>292.1666666666667</ele><time>2026-05-02T08:22:16.671Z</time></trkpt><trkpt lat="42.2849961" lon="13.9578913"><ele>293.0</ele><time>2026-05-02T08:22:17.665Z</time></trkpt><trkpt lat="42.2849113" lon="13.9578416"><ele>293.0</ele><time>2026-05-02T08:22:18.663Z</time></trkpt><trkpt lat="42.2847937" lon="13.9577763"><ele>293.0</ele><time>2026-05-02T08:22:19.665Z</time></trkpt><trkpt lat="42.2846644" lon="13.9576951"><ele>293.0</ele><time>2026-05-02T08:22:20.665Z</time></trkpt><trkpt lat="42.2845262" lon="13.9576004"><ele>293.0</ele><time>2026-05-02T08:22:21.669Z</time></trkpt><trkpt lat="42.284393" lon="13.9575035"><ele>290.33333333333337</ele><time>2026-05-02T08:22:22.67Z</time></trkpt><trkpt lat="42.2842694" lon="13.9574016"><ele>287.6666666666667</ele><time>2026-05-02T08:22:23.67Z</time></trkpt><trkpt lat="42.2841551" lon="13.9572774"><ele>285.0</ele><time>2026-05-02T08:22:24.662Z</time></trkpt><trkpt lat="42.2840359" lon="13.9571291"><ele>285.0</ele><time>2026-05-02T08:22:25.666Z</time></trkpt><trkpt lat="42.2839067" lon="13.9569624"><ele>285.0</ele><time>2026-05-02T08:22:26.666Z</time></trkpt><trkpt lat="42.2837768" lon="13.9567914"><ele>285.0</ele><time>2026-05-02T08:22:27.671Z</time></trkpt><trkpt lat="42.2836537" lon="13.9566212"><ele>282.3333333333333</ele><time>2026-05-02T08:22:28.663Z</time></trkpt><trkpt lat="42.2835308" lon="13.9564361"><ele>279.66666666666663</ele><time>2026-05-02T08:22:29.664Z</time></trkpt><trkpt lat="42.2834083" lon="13.956246"><ele>277.0</ele><time>2026-05-02T08:22:30.671Z</time></trkpt><trkpt lat="42.2832783" lon="13.9560614"><ele>277.0</ele><time>2026-05-02T08:22:31.669Z</time></trkpt><trkpt lat="42.2831383" lon="13.9558893"><ele>277.0</ele><time>2026-05-02T08:22:32.668Z</time></trkpt><trkpt lat="42.2829994" lon="13.9557328"><ele>277.0</ele><time>2026-05-02T08:22:33.667Z</time></trkpt><trkpt lat="42.2828654" lon="13.9555812"><ele>274.3333333333333</ele><time>2026-05-02T08:22:34.666Z</time></trkpt><trkpt lat="42.2827413" lon="13.9554256"><ele>271.6666666666667</ele><time>2026-05-02T08:22:35.664Z</time></trkpt><trkpt lat="42.2826244" lon="13.9552708"><ele>269.0</ele><time>2026-05-02T08:22:36.665Z</time></trkpt><trkpt lat="42.282509" lon="13.9551329"><ele>269.25</ele><time>2026-05-02T08:22:37.664Z</time></trkpt><trkpt lat="42.2823978" lon="13.9550337"><ele>269.5</ele><time>2026-05-02T08:22:38.669Z</time></trkpt><trkpt lat="42.2822667" lon="13.9549605"><ele>269.75</ele><time>2026-05-02T08:22:39.667Z</time></trkpt><trkpt lat="42.2821195" lon="13.9549237"><ele>270.0</ele><time>2026-05-02T08:22:40.667Z</time></trkpt><trkpt lat="42.2819696" lon="13.9549302"><ele>267.75</ele><time>2026-05-02T08:22:41.668Z</time></trkpt><trkpt lat="42.2818267" lon="13.9549442"><ele>265.5</ele><time>2026-05-02T08:22:42.665Z</time></trkpt><trkpt lat="42.281684" lon="13.9549377"><ele>263.25</ele><time>2026-05-02T08:22:43.666Z</time></trkpt><trkpt lat="42.2815468" lon="13.9549057"><ele>261.0</ele><time>2026-05-02T08:22:44.663Z</time></trkpt><trkpt lat="42.2814336" lon="13.9548478"><ele>260.25</ele><time>2026-05-02T08:22:45.665Z</time></trkpt><trkpt lat="42.2813288" lon="13.9547557"><ele>259.5</ele><time>2026-05-02T08:22:46.666Z</time></trkpt><trkpt lat="42.281222" lon="13.9546355"><ele>258.75</ele><time>2026-05-02T08:22:47.665Z</time></trkpt><trkpt lat="42.2811036" lon="13.9545254"><ele>258.0</ele><time>2026-05-02T08:22:48.667Z</time></trkpt><trkpt lat="42.2809723" lon="13.9544405"><ele>258.0</ele><time>2026-05-02T08:22:49.671Z</time></trkpt><trkpt lat="42.2808278" lon="13.9543579"><ele>258.0</ele><time>2026-05-02T08:22:50.668Z</time></trkpt><trkpt lat="42.2806891" lon="13.954272"><ele>258.0</ele><time>2026-05-02T08:22:51.668Z</time></trkpt><trkpt lat="42.2805528" lon="13.9541772"><ele>254.5</ele><time>2026-05-02T08:22:52.664Z</time></trkpt><trkpt lat="42.2804227" lon="13.9540795"><ele>251.0</ele><time>2026-05-02T08:22:53.667Z</time></trkpt><trkpt lat="42.2803021" lon="13.9540119"><ele>247.5</ele><time>2026-05-02T08:22:54.668Z</time></trkpt><trkpt lat="42.2801932" lon="13.9539663"><ele>244.0</ele><time>2026-05-02T08:22:55.666Z</time></trkpt><trkpt lat="42.2800776" lon="13.9539339"><ele>244.0</ele><time>2026-05-02T08:22:56.663Z</time></trkpt><trkpt lat="42.2799705" lon="13.9539281"><ele>243.99999999999997</ele><time>2026-05-02T08:22:57.67Z</time></trkpt><trkpt lat="42.2798781" lon="13.9539244"><ele>243.99999999999997</ele><time>2026-05-02T08:22:58.668Z</time></trkpt><trkpt lat="42.2797845" lon="13.953911"><ele>244.0</ele><time>2026-05-02T08:22:59.666Z</time></trkpt><trkpt lat="42.2796869" lon="13.95388"><ele>244.0</ele><time>2026-05-02T08:23:00.666Z</time></trkpt><trkpt lat="42.2795811" lon="13.9538304"><ele>243.75</ele><time>2026-05-02T08:23:01.665Z</time></trkpt><trkpt lat="42.2794619" lon="13.9537735"><ele>243.5</ele><time>2026-05-02T08:23:02.668Z</time></trkpt><trkpt lat="42.2793302" lon="13.9537256"><ele>243.25</ele><time>2026-05-02T08:23:03.665Z</time></trkpt><trkpt lat="42.2791937" lon="13.9536825"><ele>243.0</ele><time>2026-05-02T08:23:04.665Z</time></trkpt><trkpt lat="42.2790599" lon="13.9536365"><ele>244.25</ele><time>2026-05-02T08:23:05.665Z</time></trkpt><trkpt lat="42.2789225" lon="13.9535911"><ele>245.5</ele><time>2026-05-02T08:23:06.661Z</time></trkpt><trkpt lat="42.2787689" lon="13.953545"><ele>246.75</ele><time>2026-05-02T08:23:07.663Z</time></trkpt><trkpt lat="42.2786271" lon="13.9534825"><ele>248.0</ele><time>2026-05-02T08:23:08.663Z</time></trkpt><trkpt lat="42.2785007" lon="13.9534353"><ele>248.0</ele><time>2026-05-02T08:23:09.67Z</time></trkpt><trkpt lat="42.2783711" lon="13.9533899"><ele>248.0</ele><time>2026-05-02T08:23:10.663Z</time></trkpt><trkpt lat="42.2782365" lon="13.953354"><ele>248.0</ele><time>2026-05-02T08:23:11.66Z</time></trkpt><trkpt lat="42.2781" lon="13.9533207"><ele>248.0</ele><time>2026-05-02T08:23:12.663Z</time></trkpt><trkpt lat="42.2779633" lon="13.9532832"><ele>245.25</ele><time>2026-05-02T08:23:13.663Z</time></trkpt><trkpt lat="42.2778301" lon="13.9532461"><ele>242.5</ele><time>2026-05-02T08:23:14.661Z</time></trkpt><trkpt lat="42.2777007" lon="13.953209"><ele>239.75</ele><time>2026-05-02T08:23:15.663Z</time></trkpt><trkpt lat="42.2775795" lon="13.9531798"><ele>237.0</ele><time>2026-05-02T08:23:16.664Z</time></trkpt><trkpt lat="42.2774693" lon="13.9531469"><ele>237.0</ele><time>2026-05-02T08:23:17.668Z</time></trkpt><trkpt lat="42.2773712" lon="13.9531075"><ele>237.0</ele><time>2026-05-02T08:23:18.666Z</time></trkpt><trkpt lat="42.2772954" lon="13.9530803"><ele>237.0</ele><time>2026-05-02T08:23:19.665Z</time></trkpt><trkpt lat="42.2772107" lon="13.9530427"><ele>237.0</ele><time>2026-05-02T08:23:21.667Z</time></trkpt><trkpt lat="42.2771142" lon="13.9530843"><ele>237.0</ele><time>2026-05-02T08:23:29.663Z</time></trkpt><trkpt lat="42.2770069" lon="13.9531729"><ele>237.0</ele><time>2026-05-02T08:23:31.662Z</time></trkpt><trkpt lat="42.2769431" lon="13.9532927"><ele>237.0</ele><time>2026-05-02T08:23:33.667Z</time></trkpt><trkpt lat="42.2769181" lon="13.9534327"><ele>237.0</ele><time>2026-05-02T08:23:35.664Z</time></trkpt><trkpt lat="42.2768767" lon="13.9535335"><ele>237.0</ele><time>2026-05-02T08:23:37.667Z</time></trkpt><trkpt lat="42.2769238" lon="13.9533938"><ele>237.0</ele><time>2026-05-02T08:23:49.662Z</time></trkpt><trkpt lat="42.2769751" lon="13.9532429"><ele>237.0</ele><time>2026-05-02T08:23:51.666Z</time></trkpt><trkpt lat="42.2770727" lon="13.9531376"><ele>237.0</ele><time>2026-05-02T08:23:53.664Z</time></trkpt><trkpt lat="42.2771463" lon="13.953071"><ele>237.0</ele><time>2026-05-02T08:23:55.666Z</time></trkpt><trkpt lat="42.2771901" lon="13.9529923"><ele>237.0</ele><time>2026-05-02T08:23:58.666Z</time></trkpt><trkpt lat="42.2772482" lon="13.9529522"><ele>237.0</ele><time>2026-05-02T08:24:00.667Z</time></trkpt><trkpt lat="42.2773292" lon="13.952973"><ele>237.0</ele><time>2026-05-02T08:24:02.67Z</time></trkpt><trkpt lat="42.2773963" lon="13.9529934"><ele>237.0</ele><time>2026-05-02T08:24:03.669Z</time></trkpt><trkpt lat="42.2774605" lon="13.9530154"><ele>237.0</ele><time>2026-05-02T08:24:04.666Z</time></trkpt><trkpt lat="42.2775678" lon="13.9530295"><ele>237.0</ele><time>2026-05-02T08:24:06.669Z</time></trkpt><trkpt lat="42.2776783" lon="13.9529851"><ele>237.0</ele><time>2026-05-02T08:24:08.667Z</time></trkpt><trkpt lat="42.2777657" lon="13.9529035"><ele>237.0</ele><time>2026-05-02T08:24:10.664Z</time></trkpt><trkpt lat="42.2778209" lon="13.9527919"><ele>237.0</ele><time>2026-05-02T08:24:12.667Z</time></trkpt><trkpt lat="42.2778325" lon="13.9526416"><ele>237.0</ele><time>2026-05-02T08:24:14.661Z</time></trkpt><trkpt lat="42.2778031" lon="13.9524902"><ele>237.0</ele><time>2026-05-02T08:24:16.665Z</time></trkpt><trkpt lat="42.2777395" lon="13.9523907"><ele>237.0</ele><time>2026-05-02T08:24:18.669Z</time></trkpt><trkpt lat="42.2776671" lon="13.9523161"><ele>237.0</ele><time>2026-05-02T08:24:20.663Z</time></trkpt><trkpt lat="42.2776016" lon="13.9522747"><ele>234.6</ele><time>2026-05-02T08:24:22.664Z</time></trkpt><trkpt lat="42.2775074" lon="13.9522203"><ele>232.2</ele><time>2026-05-02T08:24:25.667Z</time></trkpt><trkpt lat="42.2774191" lon="13.9521602"><ele>229.8</ele><time>2026-05-02T08:24:27.67Z</time></trkpt><trkpt lat="42.2773551" lon="13.952087"><ele>227.4</ele><time>2026-05-02T08:24:29.66Z</time></trkpt><trkpt lat="42.2773387" lon="13.9519694"><ele>225.0</ele><time>2026-05-02T08:24:31.668Z</time></trkpt><trkpt lat="42.2773452" lon="13.9518367"><ele>225.0</ele><time>2026-05-02T08:24:33.666Z</time></trkpt><trkpt lat="42.2773595" lon="13.9517413"><ele>225.0</ele><time>2026-05-02T08:24:35.668Z</time></trkpt><trkpt lat="42.2773767" lon="13.9516547"><ele>225.0</ele><time>2026-05-02T08:24:37.667Z</time></trkpt><trkpt lat="42.2774026" lon="13.9515583"><ele>225.0</ele><time>2026-05-02T08:24:40.664Z</time></trkpt><trkpt lat="42.2774697" lon="13.9514759"><ele>225.0</ele><time>2026-05-02T08:24:43.664Z</time></trkpt><trkpt lat="42.2775704" lon="13.9514907"><ele>225.0</ele><time>2026-05-02T08:24:45.67Z</time></trkpt><trkpt lat="42.2776708" lon="13.9515339"><ele>223.0</ele><time>2026-05-02T08:24:47.666Z</time></trkpt><trkpt lat="42.2777465" lon="13.9515219"><ele>221.0</ele><time>2026-05-02T08:24:49.669Z</time></trkpt><trkpt lat="42.2777691" lon="13.9514385"><ele>219.0</ele><time>2026-05-02T08:24:51.667Z</time></trkpt><trkpt lat="42.2777223" lon="13.9513381"><ele>217.0</ele><time>2026-05-02T08:24:53.665Z</time></trkpt><trkpt lat="42.2776589" lon="13.9512085"><ele>215.0</ele><time>2026-05-02T08:24:55.67Z</time></trkpt><trkpt lat="42.277611" lon="13.9511087"><ele>213.0</ele><time>2026-05-02T08:24:56.663Z</time></trkpt><trkpt lat="42.2775611" lon="13.951001"><ele>213.0</ele><time>2026-05-02T08:24:57.667Z</time></trkpt><trkpt lat="42.277517" lon="13.9508995"><ele>213.0</ele><time>2026-05-02T08:24:58.667Z</time></trkpt><trkpt lat="42.2774702" lon="13.9508038"><ele>213.0</ele><time>2026-05-02T08:24:59.665Z</time></trkpt><trkpt lat="42.2774251" lon="13.9507073"><ele>213.0</ele><time>2026-05-02T08:25:00.67Z</time></trkpt><trkpt lat="42.2773803" lon="13.9506074"><ele>213.0</ele><time>2026-05-02T08:25:01.67Z</time></trkpt><trkpt lat="42.2773351" lon="13.950509"><ele>213.0</ele><time>2026-05-02T08:25:02.666Z</time></trkpt><trkpt lat="42.2772883" lon="13.9504126"><ele>211.0</ele><time>2026-05-02T08:25:03.666Z</time></trkpt><trkpt lat="42.2772379" lon="13.9503238"><ele>209.0</ele><time>2026-05-02T08:25:04.666Z</time></trkpt><trkpt lat="42.2771831" lon="13.9502406"><ele>207.0</ele><time>2026-05-02T08:25:05.664Z</time></trkpt><trkpt lat="42.2771258" lon="13.9501662"><ele>205.0</ele><time>2026-05-02T08:25:06.666Z</time></trkpt><trkpt lat="42.277068" lon="13.9501066"><ele>203.0</ele><time>2026-05-02T08:25:07.662Z</time></trkpt><trkpt lat="42.2769666" lon="13.9500323"><ele>201.0</ele><time>2026-05-02T08:25:09.662Z</time></trkpt><trkpt lat="42.2769145" lon="13.9499706"><ele>199.66666666666666</ele><time>2026-05-02T08:25:11.665Z</time></trkpt><trkpt lat="42.2769431" lon="13.9498722"><ele>198.33333333333331</ele><time>2026-05-02T08:25:14.662Z</time></trkpt><trkpt lat="42.2770447" lon="13.9498583"><ele>197.0</ele><time>2026-05-02T08:25:16.67Z</time></trkpt><trkpt lat="42.2771143" lon="13.9498629"><ele>195.66666666666666</ele><time>2026-05-02T08:25:17.66Z</time></trkpt><trkpt lat="42.277188" lon="13.9498673"><ele>194.33333333333331</ele><time>2026-05-02T08:25:18.665Z</time></trkpt><trkpt lat="42.2773008" lon="13.9498414"><ele>193.0</ele><time>2026-05-02T08:25:20.667Z</time></trkpt><trkpt lat="42.2773759" lon="13.9497478"><ele>192.99999999999997</ele><time>2026-05-02T08:25:22.665Z</time></trkpt><trkpt lat="42.2774001" lon="13.9496609"><ele>193.0</ele><time>2026-05-02T08:25:23.666Z</time></trkpt><trkpt lat="42.2774084" lon="13.9495574"><ele>193.0</ele><time>2026-05-02T08:25:24.663Z</time></trkpt><trkpt lat="42.2773973" lon="13.9494692"><ele>193.0</ele><time>2026-05-02T08:25:25.663Z</time></trkpt><trkpt lat="42.2773237" lon="13.9493752"><ele>192.99999999999997</ele><time>2026-05-02T08:25:27.666Z</time></trkpt><trkpt lat="42.277258" lon="13.9493361"><ele>193.0</ele><time>2026-05-02T08:25:28.663Z</time></trkpt><trkpt lat="42.2771808" lon="13.9493089"><ele>193.0</ele><time>2026-05-02T08:25:29.664Z</time></trkpt><trkpt lat="42.2771169" lon="13.9493008"><ele>193.0</ele><time>2026-05-02T08:25:30.66Z</time></trkpt><trkpt lat="42.2770169" lon="13.9492375"><ele>193.0</ele><time>2026-05-02T08:25:32.671Z</time></trkpt><trkpt lat="42.276948" lon="13.9491637"><ele>193.0</ele><time>2026-05-02T08:25:33.669Z</time></trkpt><trkpt lat="42.2768708" lon="13.9490768"><ele>193.0</ele><time>2026-05-02T08:25:34.664Z</time></trkpt><trkpt lat="42.2767995" lon="13.9489979"><ele>192.66666666666666</ele><time>2026-05-02T08:25:35.668Z</time></trkpt><trkpt lat="42.2767386" lon="13.9489254"><ele>192.33333333333331</ele><time>2026-05-02T08:25:36.662Z</time></trkpt><trkpt lat="42.2766896" lon="13.9488416"><ele>192.0</ele><time>2026-05-02T08:25:37.669Z</time></trkpt><trkpt lat="42.2766502" lon="13.9487366"><ele>191.66666666666666</ele><time>2026-05-02T08:25:38.671Z</time></trkpt><trkpt lat="42.2766179" lon="13.9486171"><ele>191.33333333333331</ele><time>2026-05-02T08:25:39.67Z</time></trkpt><trkpt lat="42.276589" lon="13.9484917"><ele>191.0</ele><time>2026-05-02T08:25:40.669Z</time></trkpt><trkpt lat="42.2765604" lon="13.9483578"><ele>191.0</ele><time>2026-05-02T08:25:41.665Z</time></trkpt><trkpt lat="42.2765366" lon="13.9482082"><ele>191.0</ele><time>2026-05-02T08:25:42.663Z</time></trkpt><trkpt lat="42.2765175" lon="13.9480526"><ele>191.0</ele><time>2026-05-02T08:25:43.668Z</time></trkpt><trkpt lat="42.2764928" lon="13.947901"><ele>191.0</ele><time>2026-05-02T08:25:44.668Z</time></trkpt><trkpt lat="42.2764699" lon="13.947745"><ele>191.0</ele><time>2026-05-02T08:25:45.67Z</time></trkpt><trkpt lat="42.2764482" lon="13.9475818"><ele>191.0</ele><time>2026-05-02T08:25:46.664Z</time></trkpt><trkpt lat="42.2764217" lon="13.9474194"><ele>191.0</ele><time>2026-05-02T08:25:47.664Z</time></trkpt><trkpt lat="42.276396" lon="13.9472545"><ele>191.0</ele><time>2026-05-02T08:25:48.668Z</time></trkpt><trkpt lat="42.2763759" lon="13.9470898"><ele>191.60000000000002</ele><time>2026-05-02T08:25:49.67Z</time></trkpt><trkpt lat="42.2763554" lon="13.9469316"><ele>192.2</ele><time>2026-05-02T08:25:50.668Z</time></trkpt><trkpt lat="42.2763286" lon="13.9467829"><ele>192.8</ele><time>2026-05-02T08:25:51.668Z</time></trkpt><trkpt lat="42.2762975" lon="13.9466466"><ele>193.39999999999998</ele><time>2026-05-02T08:25:52.67Z</time></trkpt><trkpt lat="42.2762719" lon="13.9465274"><ele>194.0</ele><time>2026-05-02T08:25:53.665Z</time></trkpt><trkpt lat="42.2762525" lon="13.9464256"><ele>194.00000000000003</ele><time>2026-05-02T08:25:54.663Z</time></trkpt><trkpt lat="42.2762276" lon="13.9463355"><ele>194.0</ele><time>2026-05-02T08:25:55.671Z</time></trkpt><trkpt lat="42.2761901" lon="13.9462547"><ele>194.0</ele><time>2026-05-02T08:25:56.67Z</time></trkpt><trkpt lat="42.2761382" lon="13.9461867"><ele>194.0</ele><time>2026-05-02T08:25:57.666Z</time></trkpt><trkpt lat="42.2760694" lon="13.9461282"><ele>194.00000000000003</ele><time>2026-05-02T08:25:58.667Z</time></trkpt><trkpt lat="42.2759816" lon="13.9460716"><ele>194.0</ele><time>2026-05-02T08:25:59.67Z</time></trkpt><trkpt lat="42.275887" lon="13.9460084"><ele>194.0</ele><time>2026-05-02T08:26:00.67Z</time></trkpt><trkpt lat="42.2757945" lon="13.9459438"><ele>194.0</ele><time>2026-05-02T08:26:01.666Z</time></trkpt><trkpt lat="42.2757116" lon="13.9458857"><ele>194.0</ele><time>2026-05-02T08:26:02.67Z</time></trkpt><trkpt lat="42.2756382" lon="13.9458303"><ele>194.0</ele><time>2026-05-02T08:26:03.665Z</time></trkpt><trkpt lat="42.2755777" lon="13.945779"><ele>194.0</ele><time>2026-05-02T08:26:04.671Z</time></trkpt><trkpt lat="42.2754973" lon="13.9456702"><ele>193.83333333333334</ele><time>2026-05-02T08:26:06.664Z</time></trkpt><trkpt lat="42.2754668" lon="13.9455295"><ele>193.66666666666669</ele><time>2026-05-02T08:26:08.662Z</time></trkpt><trkpt lat="42.2755085" lon="13.9454006"><ele>193.5</ele><time>2026-05-02T08:26:10.667Z</time></trkpt><trkpt lat="42.2756029" lon="13.9453607"><ele>193.33333333333331</ele><time>2026-05-02T08:26:12.667Z</time></trkpt><trkpt lat="42.275666" lon="13.9453546"><ele>193.16666666666666</ele><time>2026-05-02T08:26:13.67Z</time></trkpt><trkpt lat="42.27574" lon="13.9453432"><ele>193.0</ele><time>2026-05-02T08:26:14.664Z</time></trkpt><trkpt lat="42.27583" lon="13.9453253"><ele>196.2</ele><time>2026-05-02T08:26:15.67Z</time></trkpt><trkpt lat="42.2759291" lon="13.9452993"><ele>199.4</ele><time>2026-05-02T08:26:16.664Z</time></trkpt><trkpt lat="42.2760289" lon="13.9452712"><ele>202.6</ele><time>2026-05-02T08:26:17.668Z</time></trkpt><trkpt lat="42.2761408" lon="13.945241"><ele>205.79999999999998</ele><time>2026-05-02T08:26:18.667Z</time></trkpt><trkpt lat="42.2762576" lon="13.9452158"><ele>209.0</ele><time>2026-05-02T08:26:19.667Z</time></trkpt><trkpt lat="42.2763691" lon="13.945195"><ele>210.6</ele><time>2026-05-02T08:26:20.665Z</time></trkpt><trkpt lat="42.2764779" lon="13.9451681"><ele>212.2</ele><time>2026-05-02T08:26:21.664Z</time></trkpt><trkpt lat="42.2765809" lon="13.9451479"><ele>213.79999999999998</ele><time>2026-05-02T08:26:22.668Z</time></trkpt><trkpt lat="42.2766754" lon="13.9451324"><ele>215.39999999999998</ele><time>2026-05-02T08:26:23.666Z</time></trkpt><trkpt lat="42.2767666" lon="13.9451094"><ele>217.0</ele><time>2026-05-02T08:26:24.662Z</time></trkpt><trkpt lat="42.2768487" lon="13.9450757"><ele>217.83333333333331</ele><time>2026-05-02T08:26:25.665Z</time></trkpt><trkpt lat="42.2769147" lon="13.9450337"><ele>218.66666666666666</ele><time>2026-05-02T08:26:26.667Z</time></trkpt><trkpt lat="42.2769949" lon="13.9449097"><ele>219.5</ele><time>2026-05-02T08:26:28.664Z</time></trkpt><trkpt lat="42.2770267" lon="13.944825"><ele>220.33333333333331</ele><time>2026-05-02T08:26:29.671Z</time></trkpt><trkpt lat="42.2770524" lon="13.9447151"><ele>221.16666666666666</ele><time>2026-05-02T08:26:30.669Z</time></trkpt><trkpt lat="42.2770719" lon="13.9445985"><ele>222.0</ele><time>2026-05-02T08:26:31.668Z</time></trkpt><trkpt lat="42.2770912" lon="13.9445056"><ele>222.0</ele><time>2026-05-02T08:26:32.668Z</time></trkpt><trkpt lat="42.2771091" lon="13.9444022"><ele>222.0</ele><time>2026-05-02T08:26:34.663Z</time></trkpt><trkpt lat="42.2771206" lon="13.9442918"><ele>222.0</ele><time>2026-05-02T08:26:37.667Z</time></trkpt><trkpt lat="42.2771557" lon="13.9441488"><ele>222.0</ele><time>2026-05-02T08:26:48.668Z</time></trkpt><trkpt lat="42.2771735" lon="13.9440294"><ele>222.0</ele><time>2026-05-02T08:26:49.667Z</time></trkpt><trkpt lat="42.2771873" lon="13.9439022"><ele>222.16666666666666</ele><time>2026-05-02T08:26:50.664Z</time></trkpt><trkpt lat="42.277193" lon="13.9437818"><ele>222.33333333333331</ele><time>2026-05-02T08:26:51.667Z</time></trkpt><trkpt lat="42.2771873" lon="13.9436712"><ele>222.5</ele><time>2026-05-02T08:26:52.665Z</time></trkpt><trkpt lat="42.277173" lon="13.9435728"><ele>222.66666666666666</ele><time>2026-05-02T08:26:53.665Z</time></trkpt><trkpt lat="42.2771598" lon="13.9434857"><ele>222.83333333333331</ele><time>2026-05-02T08:26:54.664Z</time></trkpt><trkpt lat="42.2771335" lon="13.9433503"><ele>223.0</ele><time>2026-05-02T08:26:56.667Z</time></trkpt><trkpt lat="42.2770773" lon="13.9432356"><ele>224.2</ele><time>2026-05-02T08:26:58.668Z</time></trkpt><trkpt lat="42.277011" lon="13.9431429"><ele>225.4</ele><time>2026-05-02T08:27:00.663Z</time></trkpt><trkpt lat="42.2769191" lon="13.9430712"><ele>226.59999999999997</ele><time>2026-05-02T08:27:02.665Z</time></trkpt><trkpt lat="42.2768224" lon="13.943013"><ele>227.79999999999998</ele><time>2026-05-02T08:27:04.67Z</time></trkpt><trkpt lat="42.2767481" lon="13.9429868"><ele>229.0</ele><time>2026-05-02T08:27:06.663Z</time></trkpt><trkpt lat="42.2766671" lon="13.9429642"><ele>229.0</ele><time>2026-05-02T08:27:08.663Z</time></trkpt><trkpt lat="42.2765634" lon="13.9429391"><ele>228.99999999999997</ele><time>2026-05-02T08:27:10.67Z</time></trkpt><trkpt lat="42.2764424" lon="13.9429151"><ele>228.99999999999997</ele><time>2026-05-02T08:27:12.67Z</time></trkpt><trkpt lat="42.276378" lon="13.9429048"><ele>229.0</ele><time>2026-05-02T08:27:13.667Z</time></trkpt><trkpt lat="42.276315" lon="13.9428924"><ele>229.0</ele><time>2026-05-02T08:27:14.668Z</time></trkpt><trkpt lat="42.2762007" lon="13.9428415"><ele>229.49999999999997</ele><time>2026-05-02T08:27:16.668Z</time></trkpt><trkpt lat="42.2761221" lon="13.9427339"><ele>230.0</ele><time>2026-05-02T08:27:18.666Z</time></trkpt><trkpt lat="42.2760917" lon="13.9426567"><ele>230.5</ele><time>2026-05-02T08:27:19.667Z</time></trkpt><trkpt lat="42.2760624" lon="13.9425689"><ele>231.0</ele><time>2026-05-02T08:27:20.668Z</time></trkpt><trkpt lat="42.2760334" lon="13.9424755"><ele>231.49999999999997</ele><time>2026-05-02T08:27:21.67Z</time></trkpt><trkpt lat="42.2760019" lon="13.9423769"><ele>232.0</ele><time>2026-05-02T08:27:22.664Z</time></trkpt><trkpt lat="42.2759667" lon="13.9422774"><ele>231.99999999999997</ele><time>2026-05-02T08:27:23.666Z</time></trkpt><trkpt lat="42.2759293" lon="13.9421762"><ele>232.0</ele><time>2026-05-02T08:27:24.669Z</time></trkpt><trkpt lat="42.2758921" lon="13.9420721"><ele>232.0</ele><time>2026-05-02T08:27:25.665Z</time></trkpt><trkpt lat="42.2758602" lon="13.9419682"><ele>232.0</ele><time>2026-05-02T08:27:26.664Z</time></trkpt><trkpt lat="42.2758297" lon="13.9418652"><ele>231.99999999999997</ele><time>2026-05-02T08:27:27.667Z</time></trkpt><trkpt lat="42.2758001" lon="13.9417726"><ele>232.0</ele><time>2026-05-02T08:27:28.668Z</time></trkpt><trkpt lat="42.2757486" lon="13.9416377"><ele>233.8571428571429</ele><time>2026-05-02T08:27:30.67Z</time></trkpt><trkpt lat="42.275724" lon="13.9415508"><ele>235.71428571428572</ele><time>2026-05-02T08:27:32.67Z</time></trkpt><trkpt lat="42.2757069" lon="13.941419"><ele>237.57142857142858</ele><time>2026-05-02T08:27:34.67Z</time></trkpt><trkpt lat="42.2756887" lon="13.941323"><ele>239.42857142857144</ele><time>2026-05-02T08:27:35.664Z</time></trkpt><trkpt lat="42.275665" lon="13.9412285"><ele>241.28571428571428</ele><time>2026-05-02T08:27:36.666Z</time></trkpt><trkpt lat="42.2756453" lon="13.9411422"><ele>243.14285714285714</ele><time>2026-05-02T08:27:37.667Z</time></trkpt><trkpt lat="42.2756308" lon="13.9410569"><ele>245.0</ele><time>2026-05-02T08:27:38.669Z</time></trkpt><trkpt lat="42.2756185" lon="13.9409732"><ele>245.50000000000003</ele><time>2026-05-02T08:27:39.666Z</time></trkpt><trkpt lat="42.2756037" lon="13.9408056"><ele>246.0</ele><time>2026-05-02T08:27:41.664Z</time></trkpt><trkpt lat="42.2755982" lon="13.9407165"><ele>246.5</ele><time>2026-05-02T08:27:42.667Z</time></trkpt><trkpt lat="42.2755984" lon="13.9406243"><ele>247.0</ele><time>2026-05-02T08:27:43.667Z</time></trkpt><trkpt lat="42.2756049" lon="13.9405325"><ele>247.50000000000003</ele><time>2026-05-02T08:27:44.67Z</time></trkpt><trkpt lat="42.2756159" lon="13.9404391"><ele>248.0</ele><time>2026-05-02T08:27:45.665Z</time></trkpt><trkpt lat="42.2756272" lon="13.9403415"><ele>248.00000000000003</ele><time>2026-05-02T08:27:46.666Z</time></trkpt><trkpt lat="42.2756387" lon="13.9402522"><ele>248.0</ele><time>2026-05-02T08:27:47.668Z</time></trkpt><trkpt lat="42.2756477" lon="13.9401288"><ele>248.0</ele><time>2026-05-02T08:27:49.667Z</time></trkpt><trkpt lat="42.2755669" lon="13.940087"><ele>248.0</ele><time>2026-05-02T08:27:53.666Z</time></trkpt><trkpt lat="42.2754582" lon="13.9401356"><ele>248.00000000000003</ele><time>2026-05-02T08:27:55.666Z</time></trkpt><trkpt lat="42.2753921" lon="13.9401652"><ele>248.0</ele><time>2026-05-02T08:27:56.67Z</time></trkpt><trkpt lat="42.2753243" lon="13.9401946"><ele>245.33333333333334</ele><time>2026-05-02T08:27:57.667Z</time></trkpt><trkpt lat="42.2752562" lon="13.9402386"><ele>242.66666666666669</ele><time>2026-05-02T08:27:58.67Z</time></trkpt><trkpt lat="42.2751867" lon="13.9402911"><ele>240.0</ele><time>2026-05-02T08:27:59.665Z</time></trkpt><trkpt lat="42.2751147" lon="13.940338"><ele>237.33333333333331</ele><time>2026-05-02T08:28:00.664Z</time></trkpt><trkpt lat="42.2750416" lon="13.9403899"><ele>234.66666666666666</ele><time>2026-05-02T08:28:01.667Z</time></trkpt><trkpt lat="42.2749679" lon="13.9404467"><ele>232.0</ele><time>2026-05-02T08:28:02.671Z</time></trkpt><trkpt lat="42.2748932" lon="13.9405001"><ele>231.99999999999997</ele><time>2026-05-02T08:28:03.666Z</time></trkpt><trkpt lat="42.2748163" lon="13.9405487"><ele>232.0</ele><time>2026-05-02T08:28:04.664Z</time></trkpt><trkpt lat="42.2747397" lon="13.9405905"><ele>232.0</ele><time>2026-05-02T08:28:05.665Z</time></trkpt><trkpt lat="42.2746669" lon="13.9406345"><ele>232.0</ele><time>2026-05-02T08:28:06.671Z</time></trkpt><trkpt lat="42.2745958" lon="13.9406736"><ele>231.99999999999997</ele><time>2026-05-02T08:28:07.669Z</time></trkpt><trkpt lat="42.2745237" lon="13.9407027"><ele>232.0</ele><time>2026-05-02T08:28:08.667Z</time></trkpt><trkpt lat="42.2744521" lon="13.9407316"><ele>230.33333333333331</ele><time>2026-05-02T08:28:09.666Z</time></trkpt><trkpt lat="42.2743813" lon="13.9407578"><ele>228.66666666666666</ele><time>2026-05-02T08:28:10.664Z</time></trkpt><trkpt lat="42.2743111" lon="13.9407819"><ele>227.0</ele><time>2026-05-02T08:28:11.666Z</time></trkpt><trkpt lat="42.2742374" lon="13.940802"><ele>225.33333333333331</ele><time>2026-05-02T08:28:12.665Z</time></trkpt><trkpt lat="42.274159" lon="13.9408128"><ele>223.66666666666666</ele><time>2026-05-02T08:28:13.665Z</time></trkpt><trkpt lat="42.2740796" lon="13.9408147"><ele>222.0</ele><time>2026-05-02T08:28:14.665Z</time></trkpt><trkpt lat="42.2739961" lon="13.9408058"><ele>219.2</ele><time>2026-05-02T08:28:15.668Z</time></trkpt><trkpt lat="42.2739034" lon="13.9407844"><ele>216.39999999999998</ele><time>2026-05-02T08:28:16.662Z</time></trkpt><trkpt lat="42.2738048" lon="13.9407563"><ele>213.60000000000002</ele><time>2026-05-02T08:28:17.669Z</time></trkpt><trkpt lat="42.2737072" lon="13.940727"><ele>210.8</ele><time>2026-05-02T08:28:18.67Z</time></trkpt><trkpt lat="42.2736115" lon="13.9406978"><ele>208.0</ele><time>2026-05-02T08:28:19.667Z</time></trkpt><trkpt lat="42.2735133" lon="13.9406715"><ele>208.0</ele><time>2026-05-02T08:28:20.666Z</time></trkpt><trkpt lat="42.2734104" lon="13.9406479"><ele>208.0</ele><time>2026-05-02T08:28:21.669Z</time></trkpt><trkpt lat="42.2732971" lon="13.9406262"><ele>208.0</ele><time>2026-05-02T08:28:22.664Z</time></trkpt><trkpt lat="42.2731792" lon="13.9406038"><ele>208.0</ele><time>2026-05-02T08:28:23.67Z</time></trkpt><trkpt lat="42.2730711" lon="13.9405821"><ele>208.0</ele><time>2026-05-02T08:28:24.663Z</time></trkpt><trkpt lat="42.2729659" lon="13.940559"><ele>205.8</ele><time>2026-05-02T08:28:25.663Z</time></trkpt><trkpt lat="42.2728631" lon="13.940535"><ele>203.60000000000002</ele><time>2026-05-02T08:28:26.662Z</time></trkpt><trkpt lat="42.2727553" lon="13.9405161"><ele>201.39999999999998</ele><time>2026-05-02T08:28:27.666Z</time></trkpt><trkpt lat="42.2726569" lon="13.9405014"><ele>199.2</ele><time>2026-05-02T08:28:28.667Z</time></trkpt><trkpt lat="42.2725688" lon="13.9404895"><ele>197.0</ele><time>2026-05-02T08:28:29.67Z</time></trkpt><trkpt lat="42.2724987" lon="13.9404777"><ele>197.0</ele><time>2026-05-02T08:28:30.668Z</time></trkpt><trkpt lat="42.2724184" lon="13.9404289"><ele>197.0</ele><time>2026-05-02T08:28:32.67Z</time></trkpt><trkpt lat="42.2724014" lon="13.9403299"><ele>197.0</ele><time>2026-05-02T08:28:34.667Z</time></trkpt><trkpt lat="42.272468" lon="13.9401855"><ele>197.0</ele><time>2026-05-02T08:28:36.667Z</time></trkpt><trkpt lat="42.2725367" lon="13.9400918"><ele>197.0</ele><time>2026-05-02T08:28:37.667Z</time></trkpt><trkpt lat="42.2726079" lon="13.9400026"><ele>196.83333333333334</ele><time>2026-05-02T08:28:38.67Z</time></trkpt><trkpt lat="42.2726759" lon="13.9399217"><ele>196.66666666666669</ele><time>2026-05-02T08:28:39.666Z</time></trkpt><trkpt lat="42.2727426" lon="13.9398417"><ele>196.5</ele><time>2026-05-02T08:28:40.669Z</time></trkpt><trkpt lat="42.2728081" lon="13.9397631"><ele>196.33333333333331</ele><time>2026-05-02T08:28:41.665Z</time></trkpt><trkpt lat="42.2728688" lon="13.9396872"><ele>196.16666666666666</ele><time>2026-05-02T08:28:42.667Z</time></trkpt><trkpt lat="42.2729162" lon="13.9396164"><ele>196.0</ele><time>2026-05-02T08:28:43.667Z</time></trkpt><trkpt lat="42.2729557" lon="13.9394672"><ele>196.0</ele><time>2026-05-02T08:28:45.666Z</time></trkpt><trkpt lat="42.272947" lon="13.9393196"><ele>196.0</ele><time>2026-05-02T08:28:47.662Z</time></trkpt><trkpt lat="42.2728981" lon="13.9391632"><ele>196.0</ele><time>2026-05-02T08:28:49.663Z</time></trkpt><trkpt lat="42.2728582" lon="13.9390811"><ele>196.0</ele><time>2026-05-02T08:28:50.667Z</time></trkpt><trkpt lat="42.2728084" lon="13.9390028"><ele>196.0</ele><time>2026-05-02T08:28:51.67Z</time></trkpt><trkpt lat="42.2727512" lon="13.9389248"><ele>194.83333333333331</ele><time>2026-05-02T08:28:52.669Z</time></trkpt><trkpt lat="42.2726949" lon="13.9388424"><ele>193.66666666666666</ele><time>2026-05-02T08:28:53.666Z</time></trkpt><trkpt lat="42.2726418" lon="13.9387602"><ele>192.5</ele><time>2026-05-02T08:28:54.665Z</time></trkpt><trkpt lat="42.2725884" lon="13.9386879"><ele>191.33333333333331</ele><time>2026-05-02T08:28:55.666Z</time></trkpt><trkpt lat="42.2725306" lon="13.938628"><ele>190.16666666666666</ele><time>2026-05-02T08:28:56.667Z</time></trkpt><trkpt lat="42.2724659" lon="13.9385783"><ele>189.0</ele><time>2026-05-02T08:28:57.663Z</time></trkpt><trkpt lat="42.2723938" lon="13.938536"><ele>189.0</ele><time>2026-05-02T08:28:58.663Z</time></trkpt><trkpt lat="42.2723164" lon="13.9384975"><ele>189.0</ele><time>2026-05-02T08:28:59.666Z</time></trkpt><trkpt lat="42.2722341" lon="13.9384614"><ele>189.0</ele><time>2026-05-02T08:29:00.666Z</time></trkpt><trkpt lat="42.272154" lon="13.9384264"><ele>189.0</ele><time>2026-05-02T08:29:01.664Z</time></trkpt><trkpt lat="42.2720783" lon="13.9383991"><ele>189.0</ele><time>2026-05-02T08:29:02.662Z</time></trkpt><trkpt lat="42.2720078" lon="13.9383838"><ele>189.0</ele><time>2026-05-02T08:29:03.663Z</time></trkpt><trkpt lat="42.2718898" lon="13.9383802"><ele>186.5</ele><time>2026-05-02T08:29:05.66Z</time></trkpt><trkpt lat="42.2718108" lon="13.9383517"><ele>184.0</ele><time>2026-05-02T08:29:07.667Z</time></trkpt><trkpt lat="42.2717488" lon="13.938227"><ele>181.5</ele><time>2026-05-02T08:29:09.67Z</time></trkpt><trkpt lat="42.2717345" lon="13.9381207"><ele>179.0</ele><time>2026-05-02T08:29:10.664Z</time></trkpt><trkpt lat="42.2717133" lon="13.9380123"><ele>176.5</ele><time>2026-05-02T08:29:11.665Z</time></trkpt><trkpt lat="42.2716717" lon="13.9379289"><ele>174.0</ele><time>2026-05-02T08:29:12.663Z</time></trkpt><trkpt lat="42.2716128" lon="13.9378713"><ele>174.0</ele><time>2026-05-02T08:29:13.664Z</time></trkpt><trkpt lat="42.2715397" lon="13.9378425"><ele>174.0</ele><time>2026-05-02T08:29:14.666Z</time></trkpt><trkpt lat="42.2714444" lon="13.9378354"><ele>174.0</ele><time>2026-05-02T08:29:15.668Z</time></trkpt><trkpt lat="42.2713478" lon="13.9378372"><ele>174.0</ele><time>2026-05-02T08:29:16.67Z</time></trkpt><trkpt lat="42.2712667" lon="13.9378481"><ele>174.0</ele><time>2026-05-02T08:29:17.669Z</time></trkpt><trkpt lat="42.2711988" lon="13.9378737"><ele>174.0</ele><time>2026-05-02T08:29:18.664Z</time></trkpt><trkpt lat="42.2711384" lon="13.9379147"><ele>173.5</ele><time>2026-05-02T08:29:19.663Z</time></trkpt><trkpt lat="42.2710817" lon="13.9379815"><ele>173.0</ele><time>2026-05-02T08:29:20.663Z</time></trkpt><trkpt lat="42.2710294" lon="13.9380691"><ele>172.5</ele><time>2026-05-02T08:29:21.664Z</time></trkpt><trkpt lat="42.2709851" lon="13.938159"><ele>172.0</ele><time>2026-05-02T08:29:22.659Z</time></trkpt><trkpt lat="42.2709459" lon="13.9382596"><ele>171.5</ele><time>2026-05-02T08:29:23.663Z</time></trkpt><trkpt lat="42.2709063" lon="13.9383787"><ele>171.0</ele><time>2026-05-02T08:29:24.66Z</time></trkpt><trkpt lat="42.2708684" lon="13.9385068"><ele>171.0</ele><time>2026-05-02T08:29:25.662Z</time></trkpt><trkpt lat="42.2708395" lon="13.9386345"><ele>171.0</ele><time>2026-05-02T08:29:26.668Z</time></trkpt><trkpt lat="42.2708166" lon="13.9387534"><ele>171.0</ele><time>2026-05-02T08:29:27.667Z</time></trkpt><trkpt lat="42.2707836" lon="13.9388741"><ele>171.0</ele><time>2026-05-02T08:29:28.663Z</time></trkpt><trkpt lat="42.2707414" lon="13.9390015"><ele>171.0</ele><time>2026-05-02T08:29:29.663Z</time></trkpt><trkpt lat="42.2707075" lon="13.9391323"><ele>171.20000000000002</ele><time>2026-05-02T08:29:30.664Z</time></trkpt><trkpt lat="42.2706859" lon="13.9392693"><ele>171.4</ele><time>2026-05-02T08:29:31.663Z</time></trkpt><trkpt lat="42.2706676" lon="13.9394096"><ele>171.6</ele><time>2026-05-02T08:29:32.667Z</time></trkpt><trkpt lat="42.2706449" lon="13.9395525"><ele>171.8</ele><time>2026-05-02T08:29:33.661Z</time></trkpt><trkpt lat="42.2706124" lon="13.9396939"><ele>172.0</ele><time>2026-05-02T08:29:34.665Z</time></trkpt><trkpt lat="42.2705693" lon="13.9398323"><ele>169.0</ele><time>2026-05-02T08:29:35.667Z</time></trkpt><trkpt lat="42.270517" lon="13.939965"><ele>166.0</ele><time>2026-05-02T08:29:36.668Z</time></trkpt><trkpt lat="42.2704663" lon="13.9400913"><ele>163.0</ele><time>2026-05-02T08:29:37.666Z</time></trkpt><trkpt lat="42.2704221" lon="13.9402072"><ele>160.0</ele><time>2026-05-02T08:29:38.664Z</time></trkpt><trkpt lat="42.2703757" lon="13.9403299"><ele>157.0</ele><time>2026-05-02T08:29:39.663Z</time></trkpt><trkpt lat="42.270332" lon="13.9404537"><ele>157.0</ele><time>2026-05-02T08:29:40.661Z</time></trkpt><trkpt lat="42.2702941" lon="13.9405729"><ele>157.0</ele><time>2026-05-02T08:29:41.661Z</time></trkpt><trkpt lat="42.2702553" lon="13.9406898"><ele>157.0</ele><time>2026-05-02T08:29:42.659Z</time></trkpt><trkpt lat="42.2702189" lon="13.9407983"><ele>157.0</ele><time>2026-05-02T08:29:43.666Z</time></trkpt><trkpt lat="42.2701866" lon="13.9408987"><ele>157.0</ele><time>2026-05-02T08:29:44.661Z</time></trkpt><trkpt lat="42.2701558" lon="13.9409926"><ele>157.0</ele><time>2026-05-02T08:29:45.661Z</time></trkpt><trkpt lat="42.2701285" lon="13.9410827"><ele>157.0</ele><time>2026-05-02T08:29:46.661Z</time></trkpt><trkpt lat="42.2701031" lon="13.941162"><ele>157.0</ele><time>2026-05-02T08:29:47.67Z</time></trkpt><trkpt lat="42.2700318" lon="13.9412735"><ele>157.0</ele><time>2026-05-02T08:29:49.662Z</time></trkpt><trkpt lat="42.2699413" lon="13.9413788"><ele>157.0</ele><time>2026-05-02T08:29:51.663Z</time></trkpt><trkpt lat="42.2698973" lon="13.9415431"><ele>157.0</ele><time>2026-05-02T08:29:53.661Z</time></trkpt><trkpt lat="42.2699017" lon="13.9416495"><ele>156.33333333333334</ele><time>2026-05-02T08:29:54.66Z</time></trkpt><trkpt lat="42.2699129" lon="13.941769"><ele>155.66666666666669</ele><time>2026-05-02T08:29:55.66Z</time></trkpt><trkpt lat="42.2699271" lon="13.9418791"><ele>155.0</ele><time>2026-05-02T08:29:56.66Z</time></trkpt><trkpt lat="42.2699353" lon="13.9419862"><ele>154.33333333333334</ele><time>2026-05-02T08:29:57.662Z</time></trkpt><trkpt lat="42.2699325" lon="13.9420775"><ele>153.66666666666666</ele><time>2026-05-02T08:29:58.665Z</time></trkpt><trkpt lat="42.2698666" lon="13.9422261"><ele>153.0</ele><time>2026-05-02T08:30:00.661Z</time></trkpt><trkpt lat="42.2697993" lon="13.942296"><ele>152.0</ele><time>2026-05-02T08:30:01.661Z</time></trkpt><trkpt lat="42.2697368" lon="13.9423354"><ele>151.0</ele><time>2026-05-02T08:30:02.66Z</time></trkpt><trkpt lat="42.2696136" lon="13.942383"><ele>150.0</ele><time>2026-05-02T08:30:04.671Z</time></trkpt><trkpt lat="42.2695115" lon="13.9424215"><ele>149.0</ele><time>2026-05-02T08:30:05.666Z</time></trkpt><trkpt lat="42.2693746" lon="13.9424709"><ele>148.0</ele><time>2026-05-02T08:30:06.669Z</time></trkpt><trkpt lat="42.2692326" lon="13.9425122"><ele>148.0</ele><time>2026-05-02T08:30:07.665Z</time></trkpt><trkpt lat="42.2691111" lon="13.9425477"><ele>148.0</ele><time>2026-05-02T08:30:08.666Z</time></trkpt><trkpt lat="42.2690059" lon="13.9425835"><ele>148.0</ele><time>2026-05-02T08:30:09.666Z</time></trkpt><trkpt lat="42.2689097" lon="13.942617"><ele>148.0</ele><time>2026-05-02T08:30:10.663Z</time></trkpt><trkpt lat="42.268826" lon="13.9426436"><ele>148.0</ele><time>2026-05-02T08:30:11.669Z</time></trkpt><trkpt lat="42.2687615" lon="13.9426669"><ele>147.6</ele><time>2026-05-02T08:30:12.661Z</time></trkpt><trkpt lat="42.268626" lon="13.9426807"><ele>147.20000000000002</ele><time>2026-05-02T08:30:14.662Z</time></trkpt><trkpt lat="42.268533" lon="13.9426617"><ele>146.8</ele><time>2026-05-02T08:30:15.668Z</time></trkpt><trkpt lat="42.2684512" lon="13.9426304"><ele>146.4</ele><time>2026-05-02T08:30:16.67Z</time></trkpt><trkpt lat="42.2683852" lon="13.9425945"><ele>146.0</ele><time>2026-05-02T08:30:17.664Z</time></trkpt><trkpt lat="42.2683264" lon="13.9425533"><ele>146.33333333333331</ele><time>2026-05-02T08:30:18.662Z</time></trkpt><trkpt lat="42.2682677" lon="13.942497"><ele>146.66666666666666</ele><time>2026-05-02T08:30:19.668Z</time></trkpt><trkpt lat="42.2682079" lon="13.9424264"><ele>147.0</ele><time>2026-05-02T08:30:20.662Z</time></trkpt><trkpt lat="42.2681533" lon="13.9423598"><ele>147.33333333333334</ele><time>2026-05-02T08:30:21.662Z</time></trkpt><trkpt lat="42.2680516" lon="13.9423012"><ele>147.66666666666669</ele><time>2026-05-02T08:30:23.665Z</time></trkpt><trkpt lat="42.2679853" lon="13.9423067"><ele>148.0</ele><time>2026-05-02T08:30:24.665Z</time></trkpt><trkpt lat="42.2679131" lon="13.942315"><ele>150.20000000000002</ele><time>2026-05-02T08:30:25.661Z</time></trkpt><trkpt lat="42.2678047" lon="13.9423145"><ele>152.4</ele><time>2026-05-02T08:30:27.667Z</time></trkpt><trkpt lat="42.2677392" lon="13.9422631"><ele>154.60000000000002</ele><time>2026-05-02T08:30:29.666Z</time></trkpt><trkpt lat="42.2677056" lon="13.9421319"><ele>156.8</ele><time>2026-05-02T08:30:31.663Z</time></trkpt><trkpt lat="42.2676918" lon="13.9419678"><ele>159.0</ele><time>2026-05-02T08:30:33.668Z</time></trkpt><trkpt lat="42.2676496" lon="13.9418099"><ele>159.0</ele><time>2026-05-02T08:30:35.667Z</time></trkpt><trkpt lat="42.2676321" lon="13.9417204"><ele>159.0</ele><time>2026-05-02T08:30:36.671Z</time></trkpt><trkpt lat="42.2676062" lon="13.941634"><ele>159.0</ele><time>2026-05-02T08:30:37.663Z</time></trkpt><trkpt lat="42.2675804" lon="13.9415505"><ele>159.0</ele><time>2026-05-02T08:30:38.661Z</time></trkpt><trkpt lat="42.2675557" lon="13.9414711"><ele>159.0</ele><time>2026-05-02T08:30:39.664Z</time></trkpt><trkpt lat="42.2675205" lon="13.9413992"><ele>159.0</ele><time>2026-05-02T08:30:40.67Z</time></trkpt><trkpt lat="42.2674753" lon="13.9413313"><ele>159.0</ele><time>2026-05-02T08:30:41.662Z</time></trkpt><trkpt lat="42.2674282" lon="13.941267"><ele>158.83333333333334</ele><time>2026-05-02T08:30:42.664Z</time></trkpt><trkpt lat="42.2673466" lon="13.9411399"><ele>158.66666666666666</ele><time>2026-05-02T08:30:44.669Z</time></trkpt><trkpt lat="42.267315" lon="13.9410632"><ele>158.5</ele><time>2026-05-02T08:30:45.664Z</time></trkpt><trkpt lat="42.2672819" lon="13.9409887"><ele>158.33333333333331</ele><time>2026-05-02T08:30:46.666Z</time></trkpt><trkpt lat="42.267238" lon="13.9409205"><ele>158.16666666666666</ele><time>2026-05-02T08:30:47.667Z</time></trkpt><trkpt lat="42.2671951" lon="13.9408501"><ele>158.0</ele><time>2026-05-02T08:30:48.662Z</time></trkpt><trkpt lat="42.2671589" lon="13.9407748"><ele>160.2857142857143</ele><time>2026-05-02T08:30:49.665Z</time></trkpt><trkpt lat="42.2671232" lon="13.9406991"><ele>162.57142857142858</ele><time>2026-05-02T08:30:50.667Z</time></trkpt><trkpt lat="42.2670866" lon="13.9406191"><ele>164.85714285714286</ele><time>2026-05-02T08:30:51.666Z</time></trkpt><trkpt lat="42.2670466" lon="13.9405383"><ele>167.14285714285717</ele><time>2026-05-02T08:30:52.668Z</time></trkpt><trkpt lat="42.2670054" lon="13.9404591"><ele>169.42857142857144</ele><time>2026-05-02T08:30:53.665Z</time></trkpt><trkpt lat="42.2669715" lon="13.9403776"><ele>171.71428571428572</ele><time>2026-05-02T08:30:54.667Z</time></trkpt><trkpt lat="42.266943" lon="13.9402956"><ele>174.0</ele><time>2026-05-02T08:30:55.664Z</time></trkpt><trkpt lat="42.2668883" lon="13.9401674"><ele>174.0</ele><time>2026-05-02T08:30:57.668Z</time></trkpt><trkpt lat="42.2668101" lon="13.9401332"><ele>174.0</ele><time>2026-05-02T08:30:59.664Z</time></trkpt><trkpt lat="42.2667517" lon="13.9401905"><ele>174.0</ele><time>2026-05-02T08:31:01.666Z</time></trkpt><trkpt lat="42.2667212" lon="13.9402924"><ele>174.0</ele><time>2026-05-02T08:31:03.662Z</time></trkpt><trkpt lat="42.2666831" lon="13.9404273"><ele>174.0</ele><time>2026-05-02T08:31:05.662Z</time></trkpt><trkpt lat="42.2666537" lon="13.9405057"><ele>174.0</ele><time>2026-05-02T08:31:06.665Z</time></trkpt><trkpt lat="42.2666214" lon="13.9405815"><ele>174.0</ele><time>2026-05-02T08:31:07.666Z</time></trkpt><trkpt lat="42.2665921" lon="13.9406612"><ele>174.0</ele><time>2026-05-02T08:31:08.669Z</time></trkpt><trkpt lat="42.2665628" lon="13.9407468"><ele>174.0</ele><time>2026-05-02T08:31:09.664Z</time></trkpt><trkpt lat="42.266532" lon="13.9408362"><ele>174.0</ele><time>2026-05-02T08:31:10.661Z</time></trkpt><trkpt lat="42.2665018" lon="13.9409244"><ele>174.0</ele><time>2026-05-02T08:31:11.662Z</time></trkpt><trkpt lat="42.2664749" lon="13.941012"><ele>174.0</ele><time>2026-05-02T08:31:12.661Z</time></trkpt><trkpt lat="42.2664483" lon="13.9410999"><ele>174.0</ele><time>2026-05-02T08:31:13.66Z</time></trkpt><trkpt lat="42.2664211" lon="13.9411879"><ele>176.71428571428572</ele><time>2026-05-02T08:31:14.661Z</time></trkpt><trkpt lat="42.2663911" lon="13.9412768"><ele>179.42857142857144</ele><time>2026-05-02T08:31:15.666Z</time></trkpt><trkpt lat="42.2663622" lon="13.9413641"><ele>182.14285714285717</ele><time>2026-05-02T08:31:16.663Z</time></trkpt><trkpt lat="42.2663392" lon="13.941455"><ele>184.85714285714286</ele><time>2026-05-02T08:31:17.67Z</time></trkpt><trkpt lat="42.2663266" lon="13.9415494"><ele>187.57142857142858</ele><time>2026-05-02T08:31:18.663Z</time></trkpt><trkpt lat="42.2663269" lon="13.941647"><ele>190.2857142857143</ele><time>2026-05-02T08:31:19.665Z</time></trkpt><trkpt lat="42.2663376" lon="13.9417454"><ele>193.0</ele><time>2026-05-02T08:31:20.671Z</time></trkpt><trkpt lat="42.2663559" lon="13.9418448"><ele>193.66666666666666</ele><time>2026-05-02T08:31:21.663Z</time></trkpt><trkpt lat="42.2663714" lon="13.9419556"><ele>194.33333333333331</ele><time>2026-05-02T08:31:22.665Z</time></trkpt><trkpt lat="42.2663866" lon="13.9420703"><ele>195.0</ele><time>2026-05-02T08:31:23.665Z</time></trkpt><trkpt lat="42.2664009" lon="13.9421809"><ele>195.66666666666669</ele><time>2026-05-02T08:31:24.669Z</time></trkpt><trkpt lat="42.2664114" lon="13.9422861"><ele>196.33333333333334</ele><time>2026-05-02T08:31:25.662Z</time></trkpt><trkpt lat="42.2664172" lon="13.9423869"><ele>197.0</ele><time>2026-05-02T08:31:26.666Z</time></trkpt><trkpt lat="42.2664281" lon="13.9424824"><ele>196.85714285714286</ele><time>2026-05-02T08:31:27.671Z</time></trkpt><trkpt lat="42.2664427" lon="13.9425749"><ele>196.71428571428572</ele><time>2026-05-02T08:31:28.666Z</time></trkpt><trkpt lat="42.2664589" lon="13.9426663"><ele>196.57142857142856</ele><time>2026-05-02T08:31:29.666Z</time></trkpt><trkpt lat="42.2664765" lon="13.9427582"><ele>196.42857142857144</ele><time>2026-05-02T08:31:30.664Z</time></trkpt><trkpt lat="42.2664905" lon="13.9428496"><ele>196.28571428571428</ele><time>2026-05-02T08:31:31.662Z</time></trkpt><trkpt lat="42.266499" lon="13.9429397"><ele>196.14285714285714</ele><time>2026-05-02T08:31:32.662Z</time></trkpt><trkpt lat="42.2665071" lon="13.9430259"><ele>196.0</ele><time>2026-05-02T08:31:33.662Z</time></trkpt><trkpt lat="42.2665172" lon="13.9431824"><ele>196.0</ele><time>2026-05-02T08:31:35.667Z</time></trkpt><trkpt lat="42.2664938" lon="13.9432687"><ele>196.0</ele><time>2026-05-02T08:31:38.666Z</time></trkpt><trkpt lat="42.26642" lon="13.9432654"><ele>196.0</ele><time>2026-05-02T08:31:54.663Z</time></trkpt><trkpt lat="42.2662825" lon="13.9432908"><ele>196.0</ele><time>2026-05-02T08:31:56.662Z</time></trkpt><trkpt lat="42.2661853" lon="13.9433043"><ele>196.0</ele><time>2026-05-02T08:31:57.662Z</time></trkpt><trkpt lat="42.2660761" lon="13.9433176"><ele>195.99999999999997</ele><time>2026-05-02T08:31:58.667Z</time></trkpt><trkpt lat="42.2659665" lon="13.9433344"><ele>196.0</ele><time>2026-05-02T08:31:59.663Z</time></trkpt><trkpt lat="42.2658635" lon="13.943341"><ele>196.0</ele><time>2026-05-02T08:32:00.667Z</time></trkpt><trkpt lat="42.2657823" lon="13.9433317"><ele>196.0</ele><time>2026-05-02T08:32:01.665Z</time></trkpt><trkpt lat="42.2657124" lon="13.9433066"><ele>195.99999999999997</ele><time>2026-05-02T08:32:02.665Z</time></trkpt><trkpt lat="42.265648" lon="13.9432597"><ele>196.0</ele><time>2026-05-02T08:32:03.665Z</time></trkpt><trkpt lat="42.2655735" lon="13.943193"><ele>195.20000000000002</ele><time>2026-05-02T08:32:04.663Z</time></trkpt><trkpt lat="42.2654923" lon="13.943107"><ele>194.4</ele><time>2026-05-02T08:32:05.671Z</time></trkpt><trkpt lat="42.2654264" lon="13.9430427"><ele>193.6</ele><time>2026-05-02T08:32:06.663Z</time></trkpt><trkpt lat="42.2653524" lon="13.9429133"><ele>192.8</ele><time>2026-05-02T08:32:08.67Z</time></trkpt><trkpt lat="42.2652965" lon="13.9427729"><ele>192.0</ele><time>2026-05-02T08:32:10.67Z</time></trkpt><trkpt lat="42.2652378" lon="13.9426111"><ele>194.5</ele><time>2026-05-02T08:32:12.663Z</time></trkpt><trkpt lat="42.2652015" lon="13.9425247"><ele>197.0</ele><time>2026-05-02T08:32:13.664Z</time></trkpt><trkpt lat="42.2651683" lon="13.942439"><ele>199.5</ele><time>2026-05-02T08:32:14.664Z</time></trkpt><trkpt lat="42.2651349" lon="13.9423564"><ele>202.0</ele><time>2026-05-02T08:32:15.668Z</time></trkpt><trkpt lat="42.265096" lon="13.9422568"><ele>204.5</ele><time>2026-05-02T08:32:17.664Z</time></trkpt><trkpt lat="42.2650657" lon="13.9421587"><ele>207.0</ele><time>2026-05-02T08:32:29.666Z</time></trkpt><trkpt lat="42.2650282" lon="13.9420607"><ele>207.0</ele><time>2026-05-02T08:32:31.667Z</time></trkpt><trkpt lat="42.2649793" lon="13.9419423"><ele>207.0</ele><time>2026-05-02T08:32:33.67Z</time></trkpt><trkpt lat="42.2649138" lon="13.9417958"><ele>207.0</ele><time>2026-05-02T08:32:35.665Z</time></trkpt><trkpt lat="42.2648497" lon="13.9416597"><ele>207.0</ele><time>2026-05-02T08:32:37.67Z</time></trkpt><trkpt lat="42.26482" lon="13.9415841"><ele>207.0</ele><time>2026-05-02T08:32:38.666Z</time></trkpt><trkpt lat="42.2647942" lon="13.9415055"><ele>207.6</ele><time>2026-05-02T08:32:39.667Z</time></trkpt><trkpt lat="42.264774" lon="13.9414156"><ele>208.2</ele><time>2026-05-02T08:32:40.667Z</time></trkpt><trkpt lat="42.2647503" lon="13.9412633"><ele>208.8</ele><time>2026-05-02T08:32:42.67Z</time></trkpt><trkpt lat="42.2647339" lon="13.9411231"><ele>209.4</ele><time>2026-05-02T08:32:44.662Z</time></trkpt><trkpt lat="42.2647261" lon="13.9409644"><ele>210.0</ele><time>2026-05-02T08:32:46.661Z</time></trkpt><trkpt lat="42.2647187" lon="13.9408777"><ele>212.0</ele><time>2026-05-02T08:32:47.667Z</time></trkpt><trkpt lat="42.2647043" lon="13.9407823"><ele>214.0</ele><time>2026-05-02T08:32:48.67Z</time></trkpt><trkpt lat="42.2646864" lon="13.9406833"><ele>216.0</ele><time>2026-05-02T08:32:49.667Z</time></trkpt><trkpt lat="42.2646694" lon="13.9405865"><ele>218.0</ele><time>2026-05-02T08:32:50.665Z</time></trkpt><trkpt lat="42.2646296" lon="13.9404497"><ele>220.0</ele><time>2026-05-02T08:32:52.668Z</time></trkpt><trkpt lat="42.2646082" lon="13.9403226"><ele>222.0</ele><time>2026-05-02T08:32:54.67Z</time></trkpt><trkpt lat="42.2645857" lon="13.9401468"><ele>222.83333333333334</ele><time>2026-05-02T08:32:56.668Z</time></trkpt><trkpt lat="42.2645677" lon="13.9400226"><ele>223.66666666666669</ele><time>2026-05-02T08:32:57.665Z</time></trkpt><trkpt lat="42.264554" lon="13.9399044"><ele>224.5</ele><time>2026-05-02T08:32:58.667Z</time></trkpt><trkpt lat="42.2645408" lon="13.9397983"><ele>225.33333333333334</ele><time>2026-05-02T08:32:59.667Z</time></trkpt><trkpt lat="42.2645238" lon="13.9396927"><ele>226.16666666666669</ele><time>2026-05-02T08:33:00.666Z</time></trkpt><trkpt lat="42.2645022" lon="13.9395834"><ele>227.0</ele><time>2026-05-02T08:33:01.664Z</time></trkpt><trkpt lat="42.2644753" lon="13.9394732"><ele>227.00000000000003</ele><time>2026-05-02T08:33:02.67Z</time></trkpt><trkpt lat="42.2644426" lon="13.9393745"><ele>227.0</ele><time>2026-05-02T08:33:03.664Z</time></trkpt><trkpt lat="42.26441" lon="13.9392815"><ele>227.0</ele><time>2026-05-02T08:33:04.67Z</time></trkpt><trkpt lat="42.2643823" lon="13.9391961"><ele>227.0</ele><time>2026-05-02T08:33:05.665Z</time></trkpt><trkpt lat="42.2643321" lon="13.9390544"><ele>227.00000000000003</ele><time>2026-05-02T08:33:07.667Z</time></trkpt><trkpt lat="42.2642897" lon="13.9389912"><ele>227.0</ele><time>2026-05-02T08:33:08.671Z</time></trkpt><trkpt lat="42.264247" lon="13.9389284"><ele>225.85714285714286</ele><time>2026-05-02T08:33:09.668Z</time></trkpt><trkpt lat="42.2641968" lon="13.938862"><ele>224.71428571428572</ele><time>2026-05-02T08:33:10.671Z</time></trkpt><trkpt lat="42.2641516" lon="13.9387952"><ele>223.57142857142858</ele><time>2026-05-02T08:33:11.666Z</time></trkpt><trkpt lat="42.2641071" lon="13.9387264"><ele>222.42857142857144</ele><time>2026-05-02T08:33:12.662Z</time></trkpt><trkpt lat="42.2640616" lon="13.9386599"><ele>221.28571428571428</ele><time>2026-05-02T08:33:13.664Z</time></trkpt><trkpt lat="42.2640131" lon="13.938593"><ele>220.14285714285717</ele><time>2026-05-02T08:33:14.67Z</time></trkpt><trkpt lat="42.2639583" lon="13.9385283"><ele>219.0</ele><time>2026-05-02T08:33:15.668Z</time></trkpt><trkpt lat="42.263904" lon="13.9384611"><ele>219.0</ele><time>2026-05-02T08:33:16.664Z</time></trkpt><trkpt lat="42.2638497" lon="13.9383922"><ele>219.0</ele><time>2026-05-02T08:33:17.667Z</time></trkpt><trkpt lat="42.2637993" lon="13.9383212"><ele>219.0</ele><time>2026-05-02T08:33:18.67Z</time></trkpt><trkpt lat="42.2637486" lon="13.9382568"><ele>219.0</ele><time>2026-05-02T08:33:19.668Z</time></trkpt><trkpt lat="42.2637006" lon="13.938194"><ele>219.0</ele><time>2026-05-02T08:33:20.666Z</time></trkpt><trkpt lat="42.2636576" lon="13.9381142"><ele>219.0</ele><time>2026-05-02T08:33:21.666Z</time></trkpt><trkpt lat="42.2636144" lon="13.9380248"><ele>219.0</ele><time>2026-05-02T08:33:22.667Z</time></trkpt><trkpt lat="42.2635723" lon="13.9379396"><ele>222.33333333333334</ele><time>2026-05-02T08:33:23.662Z</time></trkpt><trkpt lat="42.2635272" lon="13.9378444"><ele>225.66666666666669</ele><time>2026-05-02T08:33:24.66Z</time></trkpt><trkpt lat="42.2634885" lon="13.9377448"><ele>229.0</ele><time>2026-05-02T08:33:25.669Z</time></trkpt><trkpt lat="42.2634511" lon="13.9376447"><ele>232.33333333333334</ele><time>2026-05-02T08:33:26.668Z</time></trkpt><trkpt lat="42.2634128" lon="13.937544"><ele>235.66666666666669</ele><time>2026-05-02T08:33:27.667Z</time></trkpt><trkpt lat="42.263381" lon="13.9374377"><ele>239.0</ele><time>2026-05-02T08:33:28.664Z</time></trkpt><trkpt lat="42.2633556" lon="13.9373304"><ele>242.16666666666669</ele><time>2026-05-02T08:33:29.669Z</time></trkpt><trkpt lat="42.2633343" lon="13.9372206"><ele>245.33333333333334</ele><time>2026-05-02T08:33:30.662Z</time></trkpt><trkpt lat="42.2633184" lon="13.9371125"><ele>248.5</ele><time>2026-05-02T08:33:31.667Z</time></trkpt><trkpt lat="42.2633013" lon="13.9369983"><ele>251.66666666666669</ele><time>2026-05-02T08:33:32.667Z</time></trkpt><trkpt lat="42.2632806" lon="13.9368827"><ele>254.83333333333334</ele><time>2026-05-02T08:33:33.666Z</time></trkpt><trkpt lat="42.2632596" lon="13.9367786"><ele>258.0</ele><time>2026-05-02T08:33:34.671Z</time></trkpt><trkpt lat="42.2632324" lon="13.9366938"><ele>259.4</ele><time>2026-05-02T08:33:35.665Z</time></trkpt><trkpt lat="42.2632015" lon="13.9366161"><ele>260.8</ele><time>2026-05-02T08:33:36.671Z</time></trkpt><trkpt lat="42.263118" lon="13.936504"><ele>262.2</ele><time>2026-05-02T08:33:38.661Z</time></trkpt><trkpt lat="42.2630139" lon="13.9364511"><ele>263.6</ele><time>2026-05-02T08:33:40.662Z</time></trkpt><trkpt lat="42.2628888" lon="13.9364347"><ele>265.0</ele><time>2026-05-02T08:33:42.664Z</time></trkpt><trkpt lat="42.2628237" lon="13.9364201"><ele>265.0</ele><time>2026-05-02T08:33:43.666Z</time></trkpt><trkpt lat="42.2627614" lon="13.9363966"><ele>265.0</ele><time>2026-05-02T08:33:44.663Z</time></trkpt><trkpt lat="42.2626673" lon="13.9363377"><ele>265.0</ele><time>2026-05-02T08:33:46.665Z</time></trkpt><trkpt lat="42.2626104" lon="13.936277"><ele>265.0</ele><time>2026-05-02T08:33:48.671Z</time></trkpt><trkpt lat="42.2625665" lon="13.936212"><ele>265.0</ele><time>2026-05-02T08:33:50.667Z</time></trkpt><trkpt lat="42.2625021" lon="13.9360877"><ele>265.0</ele><time>2026-05-02T08:33:52.666Z</time></trkpt><trkpt lat="42.2624595" lon="13.9360219"><ele>264.99999999999994</ele><time>2026-05-02T08:33:53.671Z</time></trkpt><trkpt lat="42.2624103" lon="13.9359598"><ele>265.0</ele><time>2026-05-02T08:33:54.667Z</time></trkpt><trkpt lat="42.2623594" lon="13.9358992"><ele>265.0</ele><time>2026-05-02T08:33:55.662Z</time></trkpt><trkpt lat="42.2623079" lon="13.9358344"><ele>265.0</ele><time>2026-05-02T08:33:56.665Z</time></trkpt><trkpt lat="42.2622514" lon="13.9357721"><ele>265.0</ele><time>2026-05-02T08:33:57.662Z</time></trkpt><trkpt lat="42.262196" lon="13.9357129"><ele>264.99999999999994</ele><time>2026-05-02T08:33:58.662Z</time></trkpt><trkpt lat="42.2621507" lon="13.9356508"><ele>265.0</ele><time>2026-05-02T08:33:59.668Z</time></trkpt><trkpt lat="42.2620994" lon="13.9355302"><ele>267.0</ele><time>2026-05-02T08:34:01.663Z</time></trkpt><trkpt lat="42.262104" lon="13.935385"><ele>269.0</ele><time>2026-05-02T08:34:03.664Z</time></trkpt><trkpt lat="42.2621122" lon="13.9352895"><ele>271.0</ele><time>2026-05-02T08:34:04.664Z</time></trkpt><trkpt lat="42.2621136" lon="13.9351695"><ele>273.0</ele><time>2026-05-02T08:34:05.667Z</time></trkpt><trkpt lat="42.2621108" lon="13.9350122"><ele>275.0</ele><time>2026-05-02T08:34:06.666Z</time></trkpt><trkpt lat="42.2621133" lon="13.9348477"><ele>276.1666666666667</ele><time>2026-05-02T08:34:07.669Z</time></trkpt><trkpt lat="42.2621141" lon="13.9347079"><ele>277.33333333333337</ele><time>2026-05-02T08:34:08.67Z</time></trkpt><trkpt lat="42.2621139" lon="13.9345881"><ele>278.5</ele><time>2026-05-02T08:34:09.666Z</time></trkpt><trkpt lat="42.2621119" lon="13.9344813"><ele>279.6666666666667</ele><time>2026-05-02T08:34:10.662Z</time></trkpt><trkpt lat="42.2621078" lon="13.9343791"><ele>280.8333333333333</ele><time>2026-05-02T08:34:11.661Z</time></trkpt><trkpt lat="42.2621057" lon="13.9342871"><ele>282.0</ele><time>2026-05-02T08:34:12.664Z</time></trkpt><trkpt lat="42.2620819" lon="13.9341474"><ele>283.4</ele><time>2026-05-02T08:34:14.663Z</time></trkpt><trkpt lat="42.262031" lon="13.9340947"><ele>284.79999999999995</ele><time>2026-05-02T08:34:16.67Z</time></trkpt><trkpt lat="42.2619265" lon="13.9340829"><ele>286.2</ele><time>2026-05-02T08:34:18.669Z</time></trkpt><trkpt lat="42.261842" lon="13.9340874"><ele>287.59999999999997</ele><time>2026-05-02T08:34:19.666Z</time></trkpt><trkpt lat="42.2617494" lon="13.9340871"><ele>289.0</ele><time>2026-05-02T08:34:20.662Z</time></trkpt><trkpt lat="42.261645" lon="13.9340654"><ele>289.0</ele><time>2026-05-02T08:34:21.663Z</time></trkpt><trkpt lat="42.2615143" lon="13.9340142"><ele>289.0</ele><time>2026-05-02T08:34:22.664Z</time></trkpt><trkpt lat="42.2613627" lon="13.9339413"><ele>289.0</ele><time>2026-05-02T08:34:23.662Z</time></trkpt><trkpt lat="42.2612051" lon="13.9338693"><ele>287.25</ele><time>2026-05-02T08:34:24.67Z</time></trkpt><trkpt lat="42.261066" lon="13.9338052"><ele>285.5</ele><time>2026-05-02T08:34:25.667Z</time></trkpt><trkpt lat="42.260944" lon="13.9337457"><ele>283.75</ele><time>2026-05-02T08:34:26.663Z</time></trkpt><trkpt lat="42.260829" lon="13.9336896"><ele>282.0</ele><time>2026-05-02T08:34:27.666Z</time></trkpt><trkpt lat="42.2607115" lon="13.9336318"><ele>282.5</ele><time>2026-05-02T08:34:28.663Z</time></trkpt><trkpt lat="42.2605967" lon="13.9335763"><ele>283.0</ele><time>2026-05-02T08:34:29.663Z</time></trkpt><trkpt lat="42.2604806" lon="13.9335349"><ele>283.5</ele><time>2026-05-02T08:34:30.668Z</time></trkpt><trkpt lat="42.2603624" lon="13.9335203"><ele>284.0</ele><time>2026-05-02T08:34:31.668Z</time></trkpt><trkpt lat="42.2602466" lon="13.933524"><ele>284.0</ele><time>2026-05-02T08:34:32.671Z</time></trkpt><trkpt lat="42.2601336" lon="13.9335375"><ele>284.0</ele><time>2026-05-02T08:34:33.667Z</time></trkpt><trkpt lat="42.2600207" lon="13.9335536"><ele>284.0</ele><time>2026-05-02T08:34:34.663Z</time></trkpt><trkpt lat="42.2599083" lon="13.933558"><ele>284.0</ele><time>2026-05-02T08:34:35.663Z</time></trkpt><trkpt lat="42.2597929" lon="13.9335566"><ele>283.0</ele><time>2026-05-02T08:34:36.662Z</time></trkpt><trkpt lat="42.2596863" lon="13.9335601"><ele>282.0</ele><time>2026-05-02T08:34:37.662Z</time></trkpt><trkpt lat="42.2595955" lon="13.9335525"><ele>281.0</ele><time>2026-05-02T08:34:38.667Z</time></trkpt><trkpt lat="42.2595094" lon="13.9335196"><ele>280.0</ele><time>2026-05-02T08:34:39.67Z</time></trkpt><trkpt lat="42.2594202" lon="13.9334661"><ele>279.0</ele><time>2026-05-02T08:34:40.67Z</time></trkpt><trkpt lat="42.2593264" lon="13.9334003"><ele>282.75</ele><time>2026-05-02T08:34:41.664Z</time></trkpt><trkpt lat="42.2592234" lon="13.9333256"><ele>286.5</ele><time>2026-05-02T08:34:42.664Z</time></trkpt><trkpt lat="42.2591132" lon="13.9332468"><ele>290.25</ele><time>2026-05-02T08:34:43.662Z</time></trkpt><trkpt lat="42.2590068" lon="13.9331787"><ele>294.0</ele><time>2026-05-02T08:34:44.663Z</time></trkpt><trkpt lat="42.2589041" lon="13.9331302"><ele>294.0</ele><time>2026-05-02T08:34:45.665Z</time></trkpt><trkpt lat="42.258803" lon="13.9331044"><ele>294.0</ele><time>2026-05-02T08:34:46.666Z</time></trkpt><trkpt lat="42.2587049" lon="13.9330882"><ele>294.0</ele><time>2026-05-02T08:34:47.665Z</time></trkpt><trkpt lat="42.2586066" lon="13.9330806"><ele>294.0</ele><time>2026-05-02T08:34:48.661Z</time></trkpt><trkpt lat="42.2585089" lon="13.93309"><ele>294.0</ele><time>2026-05-02T08:34:49.662Z</time></trkpt><trkpt lat="42.2584161" lon="13.9331068"><ele>294.0</ele><time>2026-05-02T08:34:50.662Z</time></trkpt><trkpt lat="42.2583346" lon="13.9331231"><ele>294.0</ele><time>2026-05-02T08:34:51.663Z</time></trkpt><trkpt lat="42.2582587" lon="13.9331304"><ele>294.0</ele><time>2026-05-02T08:34:52.669Z</time></trkpt><trkpt lat="42.2581832" lon="13.9331332"><ele>294.0</ele><time>2026-05-02T08:34:53.671Z</time></trkpt><trkpt lat="42.2581017" lon="13.9331307"><ele>294.0</ele><time>2026-05-02T08:34:54.665Z</time></trkpt><trkpt lat="42.2580108" lon="13.9331243"><ele>294.0</ele><time>2026-05-02T08:34:55.666Z</time></trkpt><trkpt lat="42.2579128" lon="13.9331174"><ele>295.0</ele><time>2026-05-02T08:34:56.67Z</time></trkpt><trkpt lat="42.2578125" lon="13.9331021"><ele>296.0</ele><time>2026-05-02T08:34:57.666Z</time></trkpt><trkpt lat="42.25771" lon="13.9330951"><ele>297.0</ele><time>2026-05-02T08:34:58.669Z</time></trkpt><trkpt lat="42.2576049" lon="13.9331108"><ele>298.0</ele><time>2026-05-02T08:34:59.666Z</time></trkpt><trkpt lat="42.2574989" lon="13.933141"><ele>299.0</ele><time>2026-05-02T08:35:00.668Z</time></trkpt><trkpt lat="42.2573938" lon="13.9331681"><ele>299.0</ele><time>2026-05-02T08:35:01.666Z</time></trkpt><trkpt lat="42.2572909" lon="13.9331871"><ele>299.0</ele><time>2026-05-02T08:35:02.666Z</time></trkpt><trkpt lat="42.257191" lon="13.9332043"><ele>299.0</ele><time>2026-05-02T08:35:03.661Z</time></trkpt><trkpt lat="42.2570947" lon="13.9332305"><ele>299.0</ele><time>2026-05-02T08:35:04.67Z</time></trkpt><trkpt lat="42.2570048" lon="13.9332704"><ele>299.0</ele><time>2026-05-02T08:35:05.662Z</time></trkpt><trkpt lat="42.2569163" lon="13.9333157"><ele>299.8</ele><time>2026-05-02T08:35:06.67Z</time></trkpt><trkpt lat="42.2568259" lon="13.9333454"><ele>300.59999999999997</ele><time>2026-05-02T08:35:07.67Z</time></trkpt><trkpt lat="42.2567278" lon="13.9333482"><ele>301.4</ele><time>2026-05-02T08:35:08.663Z</time></trkpt><trkpt lat="42.2566267" lon="13.9333372"><ele>302.2</ele><time>2026-05-02T08:35:09.66Z</time></trkpt><trkpt lat="42.2565287" lon="13.9333161"><ele>303.0</ele><time>2026-05-02T08:35:10.668Z</time></trkpt><trkpt lat="42.2564313" lon="13.9332871"><ele>303.0</ele><time>2026-05-02T08:35:11.662Z</time></trkpt><trkpt lat="42.2563297" lon="13.9332485"><ele>303.0</ele><time>2026-05-02T08:35:12.67Z</time></trkpt><trkpt lat="42.2562287" lon="13.9332026"><ele>303.0</ele><time>2026-05-02T08:35:13.667Z</time></trkpt><trkpt lat="42.2561278" lon="13.9331594"><ele>303.0</ele><time>2026-05-02T08:35:14.665Z</time></trkpt><trkpt lat="42.2560277" lon="13.9331241"><ele>303.0</ele><time>2026-05-02T08:35:15.667Z</time></trkpt><trkpt lat="42.2559306" lon="13.9330921"><ele>303.0</ele><time>2026-05-02T08:35:16.662Z</time></trkpt><trkpt lat="42.2558399" lon="13.9330573"><ele>303.0</ele><time>2026-05-02T08:35:17.661Z</time></trkpt><trkpt lat="42.2557624" lon="13.933014"><ele>303.0</ele><time>2026-05-02T08:35:18.665Z</time></trkpt><trkpt lat="42.2557079" lon="13.9329532"><ele>303.0</ele><time>2026-05-02T08:35:19.669Z</time></trkpt><trkpt lat="42.2556727" lon="13.9328638"><ele>303.0</ele><time>2026-05-02T08:35:20.662Z</time></trkpt><trkpt lat="42.2556582" lon="13.9327472"><ele>303.0</ele><time>2026-05-02T08:35:21.665Z</time></trkpt><trkpt lat="42.2556585" lon="13.9326099"><ele>303.4</ele><time>2026-05-02T08:35:22.664Z</time></trkpt><trkpt lat="42.2556528" lon="13.9324695"><ele>303.8</ele><time>2026-05-02T08:35:23.662Z</time></trkpt><trkpt lat="42.2556301" lon="13.9323358"><ele>304.2</ele><time>2026-05-02T08:35:24.665Z</time></trkpt><trkpt lat="42.2555853" lon="13.9322129"><ele>304.6</ele><time>2026-05-02T08:35:25.666Z</time></trkpt><trkpt lat="42.2555253" lon="13.9321028"><ele>305.0</ele><time>2026-05-02T08:35:26.664Z</time></trkpt><trkpt lat="42.2554626" lon="13.9319956"><ele>303.2</ele><time>2026-05-02T08:35:27.671Z</time></trkpt><trkpt lat="42.2553946" lon="13.9318951"><ele>301.4</ele><time>2026-05-02T08:35:28.665Z</time></trkpt><trkpt lat="42.2553132" lon="13.9318111"><ele>299.6</ele><time>2026-05-02T08:35:29.663Z</time></trkpt><trkpt lat="42.2552162" lon="13.9317506"><ele>297.8</ele><time>2026-05-02T08:35:30.667Z</time></trkpt><trkpt lat="42.2551067" lon="13.9317165"><ele>296.0</ele><time>2026-05-02T08:35:31.662Z</time></trkpt><trkpt lat="42.2549905" lon="13.9316932"><ele>296.0</ele><time>2026-05-02T08:35:32.666Z</time></trkpt><trkpt lat="42.2548946" lon="13.9316511"><ele>296.0</ele><time>2026-05-02T08:35:33.662Z</time></trkpt><trkpt lat="42.2548245" lon="13.9315815"><ele>296.0</ele><time>2026-05-02T08:35:34.663Z</time></trkpt><trkpt lat="42.2547654" lon="13.9314968"><ele>296.0</ele><time>2026-05-02T08:35:35.662Z</time></trkpt><trkpt lat="42.2547025" lon="13.9314524"><ele>296.0</ele><time>2026-05-02T08:35:36.667Z</time></trkpt><trkpt lat="42.2545711" lon="13.9314658"><ele>294.75</ele><time>2026-05-02T08:35:38.661Z</time></trkpt><trkpt lat="42.2544714" lon="13.9315053"><ele>293.5</ele><time>2026-05-02T08:35:39.666Z</time></trkpt><trkpt lat="42.2543522" lon="13.9315454"><ele>292.25</ele><time>2026-05-02T08:35:40.662Z</time></trkpt><trkpt lat="42.2542296" lon="13.9315796"><ele>291.0</ele><time>2026-05-02T08:35:41.664Z</time></trkpt><trkpt lat="42.2541067" lon="13.9316052"><ele>291.0</ele><time>2026-05-02T08:35:42.662Z</time></trkpt><trkpt lat="42.2539906" lon="13.9316198"><ele>291.0</ele><time>2026-05-02T08:35:43.663Z</time></trkpt><trkpt lat="42.2538767" lon="13.9316215"><ele>291.0</ele><time>2026-05-02T08:35:44.66Z</time></trkpt><trkpt lat="42.2537616" lon="13.9316127"><ele>291.0</ele><time>2026-05-02T08:35:45.664Z</time></trkpt><trkpt lat="42.253663" lon="13.9315829"><ele>291.0</ele><time>2026-05-02T08:35:46.664Z</time></trkpt><trkpt lat="42.2535754" lon="13.9315394"><ele>290.40000000000003</ele><time>2026-05-02T08:35:47.665Z</time></trkpt><trkpt lat="42.2534865" lon="13.9314739"><ele>289.8</ele><time>2026-05-02T08:35:48.663Z</time></trkpt><trkpt lat="42.2533864" lon="13.931399"><ele>289.20000000000005</ele><time>2026-05-02T08:35:49.661Z</time></trkpt><trkpt lat="42.2532852" lon="13.9313344"><ele>288.6</ele><time>2026-05-02T08:35:50.662Z</time></trkpt><trkpt lat="42.2531859" lon="13.9312831"><ele>288.0</ele><time>2026-05-02T08:35:51.663Z</time></trkpt><trkpt lat="42.253082" lon="13.9312449"><ele>286.8</ele><time>2026-05-02T08:35:52.67Z</time></trkpt><trkpt lat="42.2529792" lon="13.9312141"><ele>285.6</ele><time>2026-05-02T08:35:53.665Z</time></trkpt><trkpt lat="42.2528806" lon="13.9311804"><ele>284.4</ele><time>2026-05-02T08:35:54.661Z</time></trkpt><trkpt lat="42.252782" lon="13.9311538"><ele>283.2</ele><time>2026-05-02T08:35:55.67Z</time></trkpt><trkpt lat="42.2526821" lon="13.931137"><ele>282.0</ele><time>2026-05-02T08:35:56.669Z</time></trkpt><trkpt lat="42.2525882" lon="13.9311189"><ele>282.0</ele><time>2026-05-02T08:35:57.664Z</time></trkpt><trkpt lat="42.2525001" lon="13.9310856"><ele>282.0</ele><time>2026-05-02T08:35:58.668Z</time></trkpt><trkpt lat="42.252423" lon="13.9310363"><ele>282.0</ele><time>2026-05-02T08:35:59.67Z</time></trkpt><trkpt lat="42.2523656" lon="13.930965"><ele>282.0</ele><time>2026-05-02T08:36:00.664Z</time></trkpt><trkpt lat="42.2523359" lon="13.9308765"><ele>282.0</ele><time>2026-05-02T08:36:01.667Z</time></trkpt><trkpt lat="42.2523139" lon="13.9307665"><ele>282.0</ele><time>2026-05-02T08:36:02.661Z</time></trkpt><trkpt lat="42.2522954" lon="13.9306532"><ele>280.8333333333333</ele><time>2026-05-02T08:36:03.663Z</time></trkpt><trkpt lat="42.2522781" lon="13.9305402"><ele>279.6666666666667</ele><time>2026-05-02T08:36:04.663Z</time></trkpt><trkpt lat="42.2522457" lon="13.9304305"><ele>278.5</ele><time>2026-05-02T08:36:05.666Z</time></trkpt><trkpt lat="42.2522031" lon="13.9303265"><ele>277.33333333333337</ele><time>2026-05-02T08:36:06.665Z</time></trkpt><trkpt lat="42.2521565" lon="13.9302231"><ele>276.1666666666667</ele><time>2026-05-02T08:36:07.663Z</time></trkpt><trkpt lat="42.2520934" lon="13.9301333"><ele>275.0</ele><time>2026-05-02T08:36:08.659Z</time></trkpt><trkpt lat="42.2520254" lon="13.9300482"><ele>275.0</ele><time>2026-05-02T08:36:09.662Z</time></trkpt><trkpt lat="42.2519564" lon="13.9299835"><ele>275.0</ele><time>2026-05-02T08:36:10.665Z</time></trkpt><trkpt lat="42.2518668" lon="13.929939"><ele>275.0</ele><time>2026-05-02T08:36:11.669Z</time></trkpt><trkpt lat="42.2517693" lon="13.9299135"><ele>275.0</ele><time>2026-05-02T08:36:12.67Z</time></trkpt><trkpt lat="42.2516662" lon="13.9298863"><ele>275.0</ele><time>2026-05-02T08:36:13.665Z</time></trkpt><trkpt lat="42.2515679" lon="13.9298549"><ele>275.0</ele><time>2026-05-02T08:36:14.664Z</time></trkpt><trkpt lat="42.2514855" lon="13.9298238"><ele>275.0</ele><time>2026-05-02T08:36:15.663Z</time></trkpt><trkpt lat="42.2514072" lon="13.9297725"><ele>275.0</ele><time>2026-05-02T08:36:16.661Z</time></trkpt><trkpt lat="42.2513348" lon="13.929701"><ele>275.0</ele><time>2026-05-02T08:36:17.669Z</time></trkpt><trkpt lat="42.2512666" lon="13.9296672"><ele>275.0</ele><time>2026-05-02T08:36:18.662Z</time></trkpt><trkpt lat="42.2512011" lon="13.9296756"><ele>275.0</ele><time>2026-05-02T08:36:19.664Z</time></trkpt><trkpt lat="42.2511013" lon="13.9297554"><ele>271.2</ele><time>2026-05-02T08:36:21.662Z</time></trkpt><trkpt lat="42.2510578" lon="13.9298192"><ele>267.4</ele><time>2026-05-02T08:36:22.661Z</time></trkpt><trkpt lat="42.2509627" lon="13.9298416"><ele>263.6</ele><time>2026-05-02T08:36:24.663Z</time></trkpt><trkpt lat="42.2509203" lon="13.9297453"><ele>259.8</ele><time>2026-05-02T08:36:26.664Z</time></trkpt><trkpt lat="42.2509583" lon="13.9295983"><ele>256.0</ele><time>2026-05-02T08:36:28.661Z</time></trkpt><trkpt lat="42.2510141" lon="13.9294918"><ele>256.0</ele><time>2026-05-02T08:36:29.665Z</time></trkpt><trkpt lat="42.2510579" lon="13.9293716"><ele>256.0</ele><time>2026-05-02T08:36:30.664Z</time></trkpt><trkpt lat="42.2510924" lon="13.9292532"><ele>256.0</ele><time>2026-05-02T08:36:31.667Z</time></trkpt><trkpt lat="42.2511297" lon="13.9291408"><ele>256.0</ele><time>2026-05-02T08:36:32.665Z</time></trkpt><trkpt lat="42.2511639" lon="13.9290381"><ele>256.0</ele><time>2026-05-02T08:36:33.663Z</time></trkpt><trkpt lat="42.2511602" lon="13.9289197"><ele>256.0</ele><time>2026-05-02T08:36:35.67Z</time></trkpt><trkpt lat="42.2510969" lon="13.928909"><ele>256.0</ele><time>2026-05-02T08:36:37.666Z</time></trkpt><trkpt lat="42.2510284" lon="13.9290224"><ele>256.0</ele><time>2026-05-02T08:36:39.671Z</time></trkpt><trkpt lat="42.2509903" lon="13.9291375"><ele>256.0</ele><time>2026-05-02T08:36:40.663Z</time></trkpt><trkpt lat="42.250934" lon="13.9292343"><ele>256.0</ele><time>2026-05-02T08:36:41.668Z</time></trkpt><trkpt lat="42.250852" lon="13.9293227"><ele>256.0</ele><time>2026-05-02T08:36:42.664Z</time></trkpt><trkpt lat="42.2507581" lon="13.9294"><ele>256.0</ele><time>2026-05-02T08:36:43.665Z</time></trkpt><trkpt lat="42.2506694" lon="13.9295168"><ele>256.0</ele><time>2026-05-02T08:36:44.665Z</time></trkpt><trkpt lat="42.2505935" lon="13.9296752"><ele>256.0</ele><time>2026-05-02T08:36:45.664Z</time></trkpt><trkpt lat="42.2505507" lon="13.9298375"><ele>254.25</ele><time>2026-05-02T08:36:46.662Z</time></trkpt><trkpt lat="42.2505407" lon="13.9299964"><ele>252.5</ele><time>2026-05-02T08:36:47.662Z</time></trkpt><trkpt lat="42.2505601" lon="13.9301549"><ele>250.75</ele><time>2026-05-02T08:36:48.663Z</time></trkpt><trkpt lat="42.2506107" lon="13.9303172"><ele>249.0</ele><time>2026-05-02T08:36:49.665Z</time></trkpt><trkpt lat="42.2506856" lon="13.9304664"><ele>249.0</ele><time>2026-05-02T08:36:50.66Z</time></trkpt><trkpt lat="42.2507475" lon="13.9306123"><ele>249.0</ele><time>2026-05-02T08:36:51.662Z</time></trkpt><trkpt lat="42.2507805" lon="13.9307838"><ele>249.0</ele><time>2026-05-02T08:36:52.664Z</time></trkpt><trkpt lat="42.2507934" lon="13.9309688"><ele>249.0</ele><time>2026-05-02T08:36:53.663Z</time></trkpt><trkpt lat="42.2507787" lon="13.9311567"><ele>249.33333333333331</ele><time>2026-05-02T08:36:54.664Z</time></trkpt><trkpt lat="42.2507401" lon="13.9313518"><ele>249.66666666666666</ele><time>2026-05-02T08:36:55.663Z</time></trkpt><trkpt lat="42.2506794" lon="13.9315446"><ele>250.0</ele><time>2026-05-02T08:36:56.661Z</time></trkpt><trkpt lat="42.2506076" lon="13.9317263"><ele>243.75</ele><time>2026-05-02T08:36:57.659Z</time></trkpt><trkpt lat="42.2505355" lon="13.9318979"><ele>237.5</ele><time>2026-05-02T08:36:58.667Z</time></trkpt><trkpt lat="42.2504691" lon="13.9320706"><ele>231.25</ele><time>2026-05-02T08:36:59.661Z</time></trkpt><trkpt lat="42.2504146" lon="13.9322442"><ele>225.0</ele><time>2026-05-02T08:37:00.663Z</time></trkpt><trkpt lat="42.2503713" lon="13.9324065"><ele>225.0</ele><time>2026-05-02T08:37:01.663Z</time></trkpt><trkpt lat="42.2503437" lon="13.9325333"><ele>225.0</ele><time>2026-05-02T08:37:02.661Z</time></trkpt><trkpt lat="42.2503283" lon="13.9326275"><ele>225.0</ele><time>2026-05-02T08:37:03.665Z</time></trkpt><trkpt lat="42.2503101" lon="13.9327845"><ele>225.0</ele><time>2026-05-02T08:37:05.66Z</time></trkpt><trkpt lat="42.2503169" lon="13.9328838"><ele>225.0</ele><time>2026-05-02T08:37:07.666Z</time></trkpt><trkpt lat="42.2503996" lon="13.9329798"><ele>223.8</ele><time>2026-05-02T08:37:09.665Z</time></trkpt><trkpt lat="42.2504734" lon="13.9330509"><ele>222.6</ele><time>2026-05-02T08:37:10.661Z</time></trkpt><trkpt lat="42.2505535" lon="13.9331228"><ele>221.39999999999998</ele><time>2026-05-02T08:37:11.663Z</time></trkpt><trkpt lat="42.2506433" lon="13.9331999"><ele>220.2</ele><time>2026-05-02T08:37:12.662Z</time></trkpt><trkpt lat="42.2507364" lon="13.9332787"><ele>219.0</ele><time>2026-05-02T08:37:13.663Z</time></trkpt><trkpt lat="42.2508261" lon="13.9333409"><ele>217.75</ele><time>2026-05-02T08:37:14.663Z</time></trkpt><trkpt lat="42.2509279" lon="13.9333899"><ele>216.5</ele><time>2026-05-02T08:37:15.666Z</time></trkpt><trkpt lat="42.2510441" lon="13.9334338"><ele>215.25</ele><time>2026-05-02T08:37:16.661Z</time></trkpt><trkpt lat="42.2511696" lon="13.9334887"><ele>214.0</ele><time>2026-05-02T08:37:17.665Z</time></trkpt><trkpt lat="42.2513033" lon="13.9335662"><ele>214.0</ele><time>2026-05-02T08:37:18.661Z</time></trkpt><trkpt lat="42.2514378" lon="13.9336546"><ele>214.0</ele><time>2026-05-02T08:37:19.668Z</time></trkpt><trkpt lat="42.2515707" lon="13.9337429"><ele>214.0</ele><time>2026-05-02T08:37:20.663Z</time></trkpt><trkpt lat="42.2517051" lon="13.9338201"><ele>214.0</ele><time>2026-05-02T08:37:21.664Z</time></trkpt><trkpt lat="42.2518387" lon="13.9338906"><ele>217.5</ele><time>2026-05-02T08:37:22.663Z</time></trkpt><trkpt lat="42.2519652" lon="13.9339552"><ele>221.0</ele><time>2026-05-02T08:37:23.665Z</time></trkpt><trkpt lat="42.2520789" lon="13.9340186"><ele>224.5</ele><time>2026-05-02T08:37:24.664Z</time></trkpt><trkpt lat="42.2521851" lon="13.9340789"><ele>228.0</ele><time>2026-05-02T08:37:25.662Z</time></trkpt><trkpt lat="42.2522854" lon="13.934135"><ele>231.2</ele><time>2026-05-02T08:37:26.667Z</time></trkpt><trkpt lat="42.2523742" lon="13.9341913"><ele>234.4</ele><time>2026-05-02T08:37:27.665Z</time></trkpt><trkpt lat="42.2524396" lon="13.9342593"><ele>237.59999999999997</ele><time>2026-05-02T08:37:28.664Z</time></trkpt><trkpt lat="42.2524797" lon="13.9343389"><ele>240.79999999999998</ele><time>2026-05-02T08:37:29.664Z</time></trkpt><trkpt lat="42.2524876" lon="13.9344998"><ele>244.0</ele><time>2026-05-02T08:37:31.662Z</time></trkpt><trkpt lat="42.2524654" lon="13.9346497"><ele>244.2</ele><time>2026-05-02T08:37:33.663Z</time></trkpt><trkpt lat="42.2524656" lon="13.9347836"><ele>244.39999999999998</ele><time>2026-05-02T08:37:35.664Z</time></trkpt><trkpt lat="42.2524481" lon="13.9349588"><ele>244.6</ele><time>2026-05-02T08:37:37.669Z</time></trkpt><trkpt lat="42.252416" lon="13.9350631"><ele>244.8</ele><time>2026-05-02T08:37:38.663Z</time></trkpt><trkpt lat="42.2523635" lon="13.9351674"><ele>245.0</ele><time>2026-05-02T08:37:39.669Z</time></trkpt><trkpt lat="42.2522886" lon="13.9352643"><ele>244.25</ele><time>2026-05-02T08:37:40.662Z</time></trkpt><trkpt lat="42.2522004" lon="13.935358"><ele>243.5</ele><time>2026-05-02T08:37:41.666Z</time></trkpt><trkpt lat="42.2521099" lon="13.9354591"><ele>242.75</ele><time>2026-05-02T08:37:42.661Z</time></trkpt><trkpt lat="42.2520161" lon="13.9355512"><ele>242.0</ele><time>2026-05-02T08:37:43.663Z</time></trkpt><trkpt lat="42.2519206" lon="13.9356319"><ele>242.0</ele><time>2026-05-02T08:37:44.667Z</time></trkpt><trkpt lat="42.251825" lon="13.9357183"><ele>242.0</ele><time>2026-05-02T08:37:45.662Z</time></trkpt><trkpt lat="42.2517371" lon="13.9357927"><ele>242.0</ele><time>2026-05-02T08:37:46.665Z</time></trkpt><trkpt lat="42.2516805" lon="13.9358387"><ele>242.0</ele><time>2026-05-02T08:37:47.666Z</time></trkpt><trkpt lat="42.2516441" lon="13.9359215"><ele>242.0</ele><time>2026-05-02T08:37:50.66Z</time></trkpt><trkpt lat="42.2517388" lon="13.9358186"><ele>242.0</ele><time>2026-05-02T08:37:57.67Z</time></trkpt><trkpt lat="42.2518198" lon="13.9357515"><ele>242.0</ele><time>2026-05-02T08:37:58.668Z</time></trkpt><trkpt lat="42.2519147" lon="13.9356662"><ele>242.0</ele><time>2026-05-02T08:37:59.664Z</time></trkpt><trkpt lat="42.2520085" lon="13.9355797"><ele>242.0</ele><time>2026-05-02T08:38:00.663Z</time></trkpt><trkpt lat="42.2520935" lon="13.9354999"><ele>242.0</ele><time>2026-05-02T08:38:01.666Z</time></trkpt><trkpt lat="42.2521704" lon="13.935423"><ele>242.00000000000003</ele><time>2026-05-02T08:38:02.662Z</time></trkpt><trkpt lat="42.2522405" lon="13.9353481"><ele>242.0</ele><time>2026-05-02T08:38:03.666Z</time></trkpt><trkpt lat="42.2523059" lon="13.9352745"><ele>242.0</ele><time>2026-05-02T08:38:04.666Z</time></trkpt><trkpt lat="42.2523637" lon="13.9351966"><ele>242.0</ele><time>2026-05-02T08:38:05.665Z</time></trkpt><trkpt lat="42.2524087" lon="13.9351148"><ele>242.00000000000003</ele><time>2026-05-02T08:38:06.663Z</time></trkpt><trkpt lat="42.2524462" lon="13.9349652"><ele>242.0</ele><time>2026-05-02T08:38:08.668Z</time></trkpt><trkpt lat="42.2524676" lon="13.9348125"><ele>242.42857142857142</ele><time>2026-05-02T08:38:10.667Z</time></trkpt><trkpt lat="42.2524219" lon="13.9347437"><ele>242.85714285714283</ele><time>2026-05-02T08:38:15.662Z</time></trkpt><trkpt lat="42.2523559" lon="13.9347363"><ele>243.28571428571428</ele><time>2026-05-02T08:38:19.664Z</time></trkpt><trkpt lat="42.2522915" lon="13.9347442"><ele>243.71428571428572</ele><time>2026-05-02T08:38:28.667Z</time></trkpt><trkpt lat="42.2522217" lon="13.9347422"><ele>244.14285714285714</ele><time>2026-05-02T08:38:31.666Z</time></trkpt><trkpt lat="42.2521392" lon="13.9347537"><ele>244.57142857142856</ele><time>2026-05-02T08:38:35.661Z</time></trkpt><trkpt lat="42.2520663" lon="13.9347725"><ele>245.0</ele><time>2026-05-02T08:38:38.665Z</time></trkpt><trkpt lat="42.2519869" lon="13.9347886"><ele>241.83333333333334</ele><time>2026-05-02T08:38:41.665Z</time></trkpt><trkpt lat="42.2519051" lon="13.9347946"><ele>238.66666666666669</ele><time>2026-05-02T08:38:44.666Z</time></trkpt><trkpt lat="42.2518399" lon="13.9348004"><ele>235.5</ele><time>2026-05-02T08:38:46.663Z</time></trkpt><trkpt lat="42.251772" lon="13.9348052"><ele>232.33333333333331</ele><time>2026-05-02T08:38:48.667Z</time></trkpt><trkpt lat="42.2516793" lon="13.9348026"><ele>229.16666666666666</ele><time>2026-05-02T08:38:51.591Z</time></trkpt><trkpt lat="42.2515871" lon="13.9348037"><ele>226.0</ele><time>2026-05-02T08:38:53.664Z</time></trkpt><trkpt lat="42.2515071" lon="13.9348152"><ele>222.20000000000002</ele><time>2026-05-02T08:38:55.667Z</time></trkpt><trkpt lat="42.2514258" lon="13.9348253"><ele>218.40000000000003</ele><time>2026-05-02T08:38:57.665Z</time></trkpt><trkpt lat="42.2513291" lon="13.9348198"><ele>214.6</ele><time>2026-05-02T08:39:00.66Z</time></trkpt><trkpt lat="42.2512347" lon="13.9348369"><ele>210.8</ele><time>2026-05-02T08:39:02.67Z</time></trkpt><trkpt lat="42.2511289" lon="13.9348811"><ele>207.0</ele><time>2026-05-02T08:39:04.661Z</time></trkpt><trkpt lat="42.2510319" lon="13.9349143"><ele>207.0</ele><time>2026-05-02T08:39:06.661Z</time></trkpt><trkpt lat="42.2509585" lon="13.9349331"><ele>207.0</ele><time>2026-05-02T08:39:08.663Z</time></trkpt><trkpt lat="42.2508847" lon="13.9349371"><ele>207.0</ele><time>2026-05-02T08:39:10.66Z</time></trkpt><trkpt lat="42.2507855" lon="13.9349344"><ele>207.0</ele><time>2026-05-02T08:39:12.667Z</time></trkpt><trkpt lat="42.2506706" lon="13.9349277"><ele>207.0</ele><time>2026-05-02T08:39:14.669Z</time></trkpt><trkpt lat="42.2505493" lon="13.9349098"><ele>204.2</ele><time>2026-05-02T08:39:16.668Z</time></trkpt><trkpt lat="42.2504387" lon="13.9348962"><ele>201.39999999999998</ele><time>2026-05-02T08:39:18.663Z</time></trkpt><trkpt lat="42.2503276" lon="13.9349164"><ele>198.60000000000002</ele><time>2026-05-02T08:39:20.663Z</time></trkpt><trkpt lat="42.2502191" lon="13.9349592"><ele>195.8</ele><time>2026-05-02T08:39:22.661Z</time></trkpt><trkpt lat="42.2501262" lon="13.9349744"><ele>193.0</ele><time>2026-05-02T08:39:24.661Z</time></trkpt><trkpt lat="42.2500414" lon="13.9349719"><ele>193.0</ele><time>2026-05-02T08:39:26.664Z</time></trkpt><trkpt lat="42.2499538" lon="13.9349573"><ele>193.0</ele><time>2026-05-02T08:39:28.67Z</time></trkpt><trkpt lat="42.2498595" lon="13.9349173"><ele>193.0</ele><time>2026-05-02T08:39:30.665Z</time></trkpt><trkpt lat="42.2497743" lon="13.9348837"><ele>193.0</ele><time>2026-05-02T08:39:32.665Z</time></trkpt><trkpt lat="42.2496749" lon="13.9348806"><ele>193.0</ele><time>2026-05-02T08:39:34.661Z</time></trkpt><trkpt lat="42.2495706" lon="13.9349143"><ele>190.4</ele><time>2026-05-02T08:39:36.662Z</time></trkpt><trkpt lat="42.2494873" lon="13.9349517"><ele>187.8</ele><time>2026-05-02T08:39:38.665Z</time></trkpt><trkpt lat="42.2493883" lon="13.9349904"><ele>185.2</ele><time>2026-05-02T08:39:40.664Z</time></trkpt><trkpt lat="42.2492841" lon="13.9350061"><ele>182.6</ele><time>2026-05-02T08:39:42.665Z</time></trkpt><trkpt lat="42.2491743" lon="13.9350176"><ele>180.0</ele><time>2026-05-02T08:39:44.67Z</time></trkpt><trkpt lat="42.2490944" lon="13.9350185"><ele>180.0</ele><time>2026-05-02T08:39:46.671Z</time></trkpt><trkpt lat="42.2490048" lon="13.9349613"><ele>180.0</ele><time>2026-05-02T08:39:49.664Z</time></trkpt><trkpt lat="42.2489221" lon="13.9349295"><ele>180.0</ele><time>2026-05-02T08:39:52.669Z</time></trkpt><trkpt lat="42.2488266" lon="13.9349686"><ele>180.0</ele><time>2026-05-02T08:39:54.659Z</time></trkpt><trkpt lat="42.2487315" lon="13.9350076"><ele>180.0</ele><time>2026-05-02T08:39:56.661Z</time></trkpt><trkpt lat="42.2486585" lon="13.9350681"><ele>176.0</ele><time>2026-05-02T08:39:58.661Z</time></trkpt><trkpt lat="42.2485978" lon="13.9351697"><ele>172.0</ele><time>2026-05-02T08:40:00.661Z</time></trkpt><trkpt lat="42.2485526" lon="13.9352663"><ele>168.0</ele><time>2026-05-02T08:40:02.66Z</time></trkpt><trkpt lat="42.2484849" lon="13.9353573"><ele>164.0</ele><time>2026-05-02T08:40:04.665Z</time></trkpt><trkpt lat="42.2484076" lon="13.935418"><ele>160.0</ele><time>2026-05-02T08:40:06.661Z</time></trkpt><trkpt lat="42.2483071" lon="13.9354537"><ele>160.0</ele><time>2026-05-02T08:40:08.667Z</time></trkpt><trkpt lat="42.2482201" lon="13.9355022"><ele>160.0</ele><time>2026-05-02T08:40:10.663Z</time></trkpt><trkpt lat="42.2481662" lon="13.9356026"><ele>160.0</ele><time>2026-05-02T08:40:12.667Z</time></trkpt><trkpt lat="42.248171" lon="13.9357411"><ele>160.0</ele><time>2026-05-02T08:40:14.667Z</time></trkpt><trkpt lat="42.2481997" lon="13.9359019"><ele>160.0</ele><time>2026-05-02T08:40:16.66Z</time></trkpt><trkpt lat="42.2482137" lon="13.9359893"><ele>159.5</ele><time>2026-05-02T08:40:17.664Z</time></trkpt><trkpt lat="42.2482218" lon="13.936079"><ele>159.0</ele><time>2026-05-02T08:40:18.662Z</time></trkpt><trkpt lat="42.2482261" lon="13.9361683"><ele>158.5</ele><time>2026-05-02T08:40:19.662Z</time></trkpt><trkpt lat="42.2482278" lon="13.9362584"><ele>158.0</ele><time>2026-05-02T08:40:20.667Z</time></trkpt><trkpt lat="42.2482088" lon="13.9364178"><ele>157.5</ele><time>2026-05-02T08:40:22.664Z</time></trkpt><trkpt lat="42.2481846" lon="13.9365037"><ele>157.0</ele><time>2026-05-02T08:40:23.666Z</time></trkpt><trkpt lat="42.2481585" lon="13.9365891"><ele>157.0</ele><time>2026-05-02T08:40:24.661Z</time></trkpt><trkpt lat="42.2481317" lon="13.9366677"><ele>157.0</ele><time>2026-05-02T08:40:25.661Z</time></trkpt><trkpt lat="42.2480979" lon="13.9367483"><ele>157.0</ele><time>2026-05-02T08:40:26.661Z</time></trkpt><trkpt lat="42.2480622" lon="13.9368215"><ele>157.0</ele><time>2026-05-02T08:40:27.659Z</time></trkpt><trkpt lat="42.2479776" lon="13.9369303"><ele>157.0</ele><time>2026-05-02T08:40:29.663Z</time></trkpt><trkpt lat="42.2478901" lon="13.937016"><ele>157.0</ele><time>2026-05-02T08:40:31.662Z</time></trkpt><trkpt lat="42.2477847" lon="13.9370916"><ele>153.79999999999998</ele><time>2026-05-02T08:40:33.665Z</time></trkpt><trkpt lat="42.2477227" lon="13.9371338"><ele>150.6</ele><time>2026-05-02T08:40:34.665Z</time></trkpt><trkpt lat="42.2476594" lon="13.9371777"><ele>147.39999999999998</ele><time>2026-05-02T08:40:35.668Z</time></trkpt><trkpt lat="42.2476009" lon="13.9372203"><ele>144.2</ele><time>2026-05-02T08:40:36.667Z</time></trkpt><trkpt lat="42.2474939" lon="13.9372939"><ele>141.0</ele><time>2026-05-02T08:40:38.66Z</time></trkpt><trkpt lat="42.2473695" lon="13.9372972"><ele>141.4</ele><time>2026-05-02T08:40:40.662Z</time></trkpt><trkpt lat="42.2472538" lon="13.9372482"><ele>141.8</ele><time>2026-05-02T08:40:42.663Z</time></trkpt><trkpt lat="42.2471664" lon="13.937154"><ele>142.20000000000002</ele><time>2026-05-02T08:40:44.66Z</time></trkpt><trkpt lat="42.2471099" lon="13.9370915"><ele>142.6</ele><time>2026-05-02T08:40:46.663Z</time></trkpt><trkpt lat="42.2470782" lon="13.9369408"><ele>143.0</ele><time>2026-05-02T08:40:58.671Z</time></trkpt><trkpt lat="42.2470443" lon="13.9368382"><ele>143.0</ele><time>2026-05-02T08:40:59.664Z</time></trkpt><trkpt lat="42.2470131" lon="13.9367427"><ele>143.0</ele><time>2026-05-02T08:41:00.666Z</time></trkpt><trkpt lat="42.2469938" lon="13.9366516"><ele>143.0</ele><time>2026-05-02T08:41:01.664Z</time></trkpt><trkpt lat="42.2469827" lon="13.9365604"><ele>143.0</ele><time>2026-05-02T08:41:02.67Z</time></trkpt><trkpt lat="42.2469709" lon="13.9364058"><ele>143.0</ele><time>2026-05-02T08:41:04.668Z</time></trkpt><trkpt lat="42.2469533" lon="13.9362835"><ele>143.0</ele><time>2026-05-02T08:41:06.665Z</time></trkpt><trkpt lat="42.2469319" lon="13.9361804"><ele>142.85714285714283</ele><time>2026-05-02T08:41:08.662Z</time></trkpt><trkpt lat="42.2469073" lon="13.9360657"><ele>142.71428571428572</ele><time>2026-05-02T08:41:10.664Z</time></trkpt><trkpt lat="42.2469099" lon="13.9359746"><ele>142.57142857142856</ele><time>2026-05-02T08:41:12.661Z</time></trkpt><trkpt lat="42.246945" lon="13.9358875"><ele>142.42857142857142</ele><time>2026-05-02T08:41:14.664Z</time></trkpt><trkpt lat="42.2469683" lon="13.9358079"><ele>142.28571428571428</ele><time>2026-05-02T08:41:18.666Z</time></trkpt><trkpt lat="42.2469427" lon="13.9359068"><ele>142.14285714285714</ele><time>2026-05-02T08:41:44.667Z</time></trkpt><trkpt lat="42.2469155" lon="13.9359872"><ele>142.0</ele><time>2026-05-02T08:41:46.661Z</time></trkpt><trkpt lat="42.2469127" lon="13.9361013"><ele>142.0</ele><time>2026-05-02T08:41:49.669Z</time></trkpt><trkpt lat="42.2469376" lon="13.9361962"><ele>142.0</ele><time>2026-05-02T08:41:51.666Z</time></trkpt><trkpt lat="42.2469529" lon="13.9362792"><ele>142.0</ele><time>2026-05-02T08:41:53.668Z</time></trkpt><trkpt lat="42.2469693" lon="13.9363948"><ele>142.0</ele><time>2026-05-02T08:41:55.671Z</time></trkpt><trkpt lat="42.2469829" lon="13.936497"><ele>142.0</ele><time>2026-05-02T08:41:57.665Z</time></trkpt><trkpt lat="42.2469828" lon="13.936594"><ele>142.0</ele><time>2026-05-02T08:41:59.669Z</time></trkpt><trkpt lat="42.2470077" lon="13.9367452"><ele>142.16666666666669</ele><time>2026-05-02T08:42:01.664Z</time></trkpt><trkpt lat="42.2470484" lon="13.936887"><ele>142.33333333333334</ele><time>2026-05-02T08:42:03.67Z</time></trkpt><trkpt lat="42.2470989" lon="13.9370057"><ele>142.5</ele><time>2026-05-02T08:42:05.665Z</time></trkpt><trkpt lat="42.2471242" lon="13.9370879"><ele>142.66666666666666</ele><time>2026-05-02T08:42:08.671Z</time></trkpt><trkpt lat="42.2470386" lon="13.9370672"><ele>142.83333333333331</ele><time>2026-05-02T08:42:21.666Z</time></trkpt><trkpt lat="42.2469747" lon="13.9370545"><ele>143.0</ele><time>2026-05-02T08:42:25.666Z</time></trkpt><trkpt lat="42.2468929" lon="13.9369783"><ele>143.0</ele><time>2026-05-02T08:42:31.665Z</time></trkpt><trkpt lat="42.2468478" lon="13.9369139"><ele>143.0</ele><time>2026-05-02T08:42:35.662Z</time></trkpt><trkpt lat="42.2468352" lon="13.9368119"><ele>143.0</ele><time>2026-05-02T08:42:39.661Z</time></trkpt><trkpt lat="42.2467818" lon="13.9366974"><ele>143.0</ele><time>2026-05-02T08:42:42.658Z</time></trkpt><trkpt lat="42.2467495" lon="13.9366183"><ele>143.0</ele><time>2026-05-02T08:42:44.659Z</time></trkpt><trkpt lat="42.2467317" lon="13.9365232"><ele>143.0</ele><time>2026-05-02T08:42:46.584Z</time></trkpt><trkpt lat="42.2466896" lon="13.9364286"><ele>142.83333333333331</ele><time>2026-05-02T08:42:49.66Z</time></trkpt><trkpt lat="42.2466292" lon="13.9363244"><ele>142.66666666666666</ele><time>2026-05-02T08:42:51.665Z</time></trkpt><trkpt lat="42.2465831" lon="13.9362604"><ele>142.5</ele><time>2026-05-02T08:42:52.66Z</time></trkpt><trkpt lat="42.2465097" lon="13.9362265"><ele>142.33333333333334</ele><time>2026-05-02T08:42:54.659Z</time></trkpt><trkpt lat="42.2464453" lon="13.9362687"><ele>142.16666666666669</ele><time>2026-05-02T08:42:56.668Z</time></trkpt><trkpt lat="42.2463967" lon="13.9363805"><ele>142.0</ele><time>2026-05-02T08:42:58.67Z</time></trkpt><trkpt lat="42.2463335" lon="13.9365263"><ele>143.66666666666669</ele><time>2026-05-02T08:43:00.665Z</time></trkpt><trkpt lat="42.2462791" lon="13.9365967"><ele>145.33333333333334</ele><time>2026-05-02T08:43:02.665Z</time></trkpt><trkpt lat="42.2462103" lon="13.9366622"><ele>147.0</ele><time>2026-05-02T08:43:05.664Z</time></trkpt><trkpt lat="42.2461226" lon="13.9366186"><ele>148.66666666666666</ele><time>2026-05-02T08:43:10.665Z</time></trkpt><trkpt lat="42.2460909" lon="13.9365405"><ele>150.33333333333331</ele><time>2026-05-02T08:43:11.661Z</time></trkpt><trkpt lat="42.246063" lon="13.9364628"><ele>152.0</ele><time>2026-05-02T08:43:12.665Z</time></trkpt><trkpt lat="42.246009" lon="13.9363407"><ele>152.0</ele><time>2026-05-02T08:43:14.661Z</time></trkpt><trkpt lat="42.2459616" lon="13.9362338"><ele>152.0</ele><time>2026-05-02T08:43:16.659Z</time></trkpt><trkpt lat="42.2459812" lon="13.9363463"><ele>152.0</ele><time>2026-05-02T08:43:22.663Z</time></trkpt><trkpt lat="42.2460213" lon="13.9364233"><ele>152.0</ele><time>2026-05-02T08:43:23.662Z</time></trkpt><trkpt lat="42.2460635" lon="13.9365171"><ele>152.0</ele><time>2026-05-02T08:43:24.661Z</time></trkpt><trkpt lat="42.2461072" lon="13.9366205"><ele>152.0</ele><time>2026-05-02T08:43:25.658Z</time></trkpt><trkpt lat="42.2461421" lon="13.936713"><ele>152.28571428571428</ele><time>2026-05-02T08:43:26.671Z</time></trkpt><trkpt lat="42.2461716" lon="13.9368002"><ele>152.57142857142858</ele><time>2026-05-02T08:43:27.661Z</time></trkpt><trkpt lat="42.2462058" lon="13.9369051"><ele>152.85714285714286</ele><time>2026-05-02T08:43:28.661Z</time></trkpt><trkpt lat="42.2462388" lon="13.9370095"><ele>153.14285714285714</ele><time>2026-05-02T08:43:29.663Z</time></trkpt><trkpt lat="42.2462531" lon="13.9371083"><ele>153.42857142857144</ele><time>2026-05-02T08:43:30.663Z</time></trkpt><trkpt lat="42.2462471" lon="13.937197"><ele>153.71428571428572</ele><time>2026-05-02T08:43:31.668Z</time></trkpt><trkpt lat="42.2462242" lon="13.9372829"><ele>154.0</ele><time>2026-05-02T08:43:32.665Z</time></trkpt><trkpt lat="42.2461873" lon="13.9373644"><ele>154.0</ele><time>2026-05-02T08:43:33.659Z</time></trkpt><trkpt lat="42.2461352" lon="13.9374413"><ele>154.0</ele><time>2026-05-02T08:43:34.658Z</time></trkpt><trkpt lat="42.2460776" lon="13.9375308"><ele>154.0</ele><time>2026-05-02T08:43:35.659Z</time></trkpt><trkpt lat="42.2460158" lon="13.9376211"><ele>154.0</ele><time>2026-05-02T08:43:36.668Z</time></trkpt><trkpt lat="42.2459558" lon="13.9376945"><ele>154.0</ele><time>2026-05-02T08:43:37.661Z</time></trkpt><trkpt lat="42.2459082" lon="13.9377533"><ele>154.0</ele><time>2026-05-02T08:43:38.666Z</time></trkpt><trkpt lat="42.2458365" lon="13.9377918"><ele>154.0</ele><time>2026-05-02T08:43:41.663Z</time></trkpt><trkpt lat="42.2458014" lon="13.9377176"><ele>154.0</ele><time>2026-05-02T08:43:43.665Z</time></trkpt><trkpt lat="42.2457759" lon="13.937621"><ele>154.0</ele><time>2026-05-02T08:43:44.67Z</time></trkpt><trkpt lat="42.2457321" lon="13.9374523"><ele>154.0</ele><time>2026-05-02T08:43:45.663Z</time></trkpt><trkpt lat="42.2456766" lon="13.9372872"><ele>154.0</ele><time>2026-05-02T08:43:46.664Z</time></trkpt><trkpt lat="42.2456154" lon="13.9371111"><ele>154.25</ele><time>2026-05-02T08:43:47.664Z</time></trkpt><trkpt lat="42.245553" lon="13.9369305"><ele>154.5</ele><time>2026-05-02T08:43:48.67Z</time></trkpt><trkpt lat="42.2454911" lon="13.9367515"><ele>154.75</ele><time>2026-05-02T08:43:49.66Z</time></trkpt><trkpt lat="42.2454371" lon="13.936588"><ele>155.0</ele><time>2026-05-02T08:43:50.662Z</time></trkpt><trkpt lat="42.2453849" lon="13.9364316"><ele>155.4</ele><time>2026-05-02T08:43:51.661Z</time></trkpt><trkpt lat="42.2453416" lon="13.9362928"><ele>155.8</ele><time>2026-05-02T08:43:52.66Z</time></trkpt><trkpt lat="42.2452943" lon="13.9361459"><ele>156.2</ele><time>2026-05-02T08:43:53.658Z</time></trkpt><trkpt lat="42.2452464" lon="13.9360058"><ele>156.6</ele><time>2026-05-02T08:43:54.665Z</time></trkpt><trkpt lat="42.2452024" lon="13.9358896"><ele>157.0</ele><time>2026-05-02T08:43:55.662Z</time></trkpt><trkpt lat="42.2451642" lon="13.9357784"><ele>157.6</ele><time>2026-05-02T08:43:56.663Z</time></trkpt><trkpt lat="42.2451269" lon="13.9356677"><ele>158.2</ele><time>2026-05-02T08:43:57.663Z</time></trkpt><trkpt lat="42.2450923" lon="13.9355642"><ele>158.8</ele><time>2026-05-02T08:43:58.667Z</time></trkpt><trkpt lat="42.2450608" lon="13.9354727"><ele>159.4</ele><time>2026-05-02T08:43:59.666Z</time></trkpt><trkpt lat="42.245017" lon="13.9353438"><ele>160.0</ele><time>2026-05-02T08:44:01.663Z</time></trkpt><trkpt lat="42.2449735" lon="13.9352018"><ele>160.0</ele><time>2026-05-02T08:44:03.665Z</time></trkpt><trkpt lat="42.2448689" lon="13.9351157"><ele>160.0</ele><time>2026-05-02T08:44:05.658Z</time></trkpt><trkpt lat="42.2447932" lon="13.9350782"><ele>160.0</ele><time>2026-05-02T08:44:07.66Z</time></trkpt><trkpt lat="42.244725" lon="13.9350617"><ele>160.0</ele><time>2026-05-02T08:44:08.67Z</time></trkpt><trkpt lat="42.2446458" lon="13.9350439"><ele>160.0</ele><time>2026-05-02T08:44:09.662Z</time></trkpt><trkpt lat="42.2445376" lon="13.9350741"><ele>163.0</ele><time>2026-05-02T08:44:10.666Z</time></trkpt><trkpt lat="42.2445369" lon="13.9355104"><ele>166.0</ele><time>2026-05-02T08:44:12.66Z</time></trkpt><trkpt lat="42.2445026" lon="13.9357698"><ele>165.0</ele><time>2026-05-02T08:44:13.66Z</time></trkpt><trkpt lat="42.2444554" lon="13.9359361"><ele>164.0</ele><time>2026-05-02T08:44:14.67Z</time></trkpt><trkpt lat="42.2444144" lon="13.9360861"><ele>163.0</ele><time>2026-05-02T08:44:15.666Z</time></trkpt><trkpt lat="42.2443573" lon="13.9362512"><ele>162.0</ele><time>2026-05-02T08:44:16.667Z</time></trkpt><trkpt lat="42.2442837" lon="13.936426"><ele>162.0</ele><time>2026-05-02T08:44:17.66Z</time></trkpt><trkpt lat="42.2442164" lon="13.9365804"><ele>162.0</ele><time>2026-05-02T08:44:18.66Z</time></trkpt><trkpt lat="42.2441553" lon="13.9367227"><ele>162.0</ele><time>2026-05-02T08:44:19.664Z</time></trkpt><trkpt lat="42.2440938" lon="13.9368446"><ele>162.0</ele><time>2026-05-02T08:44:20.664Z</time></trkpt><trkpt lat="42.2440342" lon="13.936915"><ele>162.0</ele><time>2026-05-02T08:44:21.668Z</time></trkpt><trkpt lat="42.2439364" lon="13.936933"><ele>162.75</ele><time>2026-05-02T08:44:23.669Z</time></trkpt><trkpt lat="42.2438612" lon="13.936807"><ele>163.5</ele><time>2026-05-02T08:44:25.664Z</time></trkpt><trkpt lat="42.2438318" lon="13.9366877"><ele>164.25</ele><time>2026-05-02T08:44:26.666Z</time></trkpt><trkpt lat="42.2437951" lon="13.9365255"><ele>165.0</ele><time>2026-05-02T08:44:27.666Z</time></trkpt><trkpt lat="42.2437523" lon="13.9363347"><ele>165.0</ele><time>2026-05-02T08:44:28.67Z</time></trkpt><trkpt lat="42.243704" lon="13.9361332"><ele>165.0</ele><time>2026-05-02T08:44:29.662Z</time></trkpt><trkpt lat="42.2436522" lon="13.9359182"><ele>165.0</ele><time>2026-05-02T08:44:30.662Z</time></trkpt><trkpt lat="42.2435998" lon="13.9357051"><ele>165.66666666666666</ele><time>2026-05-02T08:44:31.659Z</time></trkpt><trkpt lat="42.2435429" lon="13.9354963"><ele>166.33333333333331</ele><time>2026-05-02T08:44:32.665Z</time></trkpt><trkpt lat="42.2434911" lon="13.9352872"><ele>167.0</ele><time>2026-05-02T08:44:33.665Z</time></trkpt><trkpt lat="42.2434372" lon="13.9350775"><ele>167.66666666666666</ele><time>2026-05-02T08:44:34.666Z</time></trkpt><trkpt lat="42.2433852" lon="13.9348697"><ele>168.33333333333334</ele><time>2026-05-02T08:44:35.667Z</time></trkpt><trkpt lat="42.2433299" lon="13.9346484"><ele>169.0</ele><time>2026-05-02T08:44:36.659Z</time></trkpt><trkpt lat="42.2432749" lon="13.9344186"><ele>169.33333333333334</ele><time>2026-05-02T08:44:37.665Z</time></trkpt><trkpt lat="42.2432155" lon="13.9341892"><ele>169.66666666666666</ele><time>2026-05-02T08:44:38.667Z</time></trkpt><trkpt lat="42.2431581" lon="13.9339657"><ele>170.0</ele><time>2026-05-02T08:44:39.66Z</time></trkpt><trkpt lat="42.2431057" lon="13.9337636"><ele>171.25</ele><time>2026-05-02T08:44:40.67Z</time></trkpt><trkpt lat="42.2430554" lon="13.9335763"><ele>172.5</ele><time>2026-05-02T08:44:41.669Z</time></trkpt><trkpt lat="42.2430098" lon="13.9334043"><ele>173.75</ele><time>2026-05-02T08:44:42.661Z</time></trkpt><trkpt lat="42.2429687" lon="13.9332411"><ele>175.0</ele><time>2026-05-02T08:44:43.667Z</time></trkpt><trkpt lat="42.242931" lon="13.9330889"><ele>175.4</ele><time>2026-05-02T08:44:44.664Z</time></trkpt><trkpt lat="42.2428982" lon="13.9329436"><ele>175.8</ele><time>2026-05-02T08:44:45.665Z</time></trkpt><trkpt lat="42.2428686" lon="13.9328087"><ele>176.2</ele><time>2026-05-02T08:44:46.669Z</time></trkpt><trkpt lat="42.2428355" lon="13.9326686"><ele>176.6</ele><time>2026-05-02T08:44:47.668Z</time></trkpt><trkpt lat="42.2427978" lon="13.9325316"><ele>177.0</ele><time>2026-05-02T08:44:48.661Z</time></trkpt><trkpt lat="42.2427596" lon="13.9324003"><ele>177.33333333333334</ele><time>2026-05-02T08:44:49.666Z</time></trkpt><trkpt lat="42.2427275" lon="13.93228"><ele>177.66666666666666</ele><time>2026-05-02T08:44:50.661Z</time></trkpt><trkpt lat="42.2427038" lon="13.93218"><ele>178.0</ele><time>2026-05-02T08:44:51.662Z</time></trkpt><trkpt lat="42.2426833" lon="13.9320912"><ele>178.33333333333331</ele><time>2026-05-02T08:44:52.666Z</time></trkpt><trkpt lat="42.2426449" lon="13.9319543"><ele>178.66666666666666</ele><time>2026-05-02T08:44:54.668Z</time></trkpt><trkpt lat="42.2426152" lon="13.931867"><ele>179.0</ele><time>2026-05-02T08:44:55.663Z</time></trkpt><trkpt lat="42.2425753" lon="13.9317437"><ele>179.5</ele><time>2026-05-02T08:44:56.662Z</time></trkpt><trkpt lat="42.2425418" lon="13.9315885"><ele>180.0</ele><time>2026-05-02T08:44:57.664Z</time></trkpt><trkpt lat="42.2425108" lon="13.9314201"><ele>180.5</ele><time>2026-05-02T08:44:58.663Z</time></trkpt><trkpt lat="42.242472" lon="13.931239"><ele>181.0</ele><time>2026-05-02T08:44:59.663Z</time></trkpt><trkpt lat="42.242422" lon="13.9310536"><ele>181.33333333333334</ele><time>2026-05-02T08:45:00.668Z</time></trkpt><trkpt lat="42.2423723" lon="13.9308587"><ele>181.66666666666666</ele><time>2026-05-02T08:45:01.66Z</time></trkpt><trkpt lat="42.2423254" lon="13.9306626"><ele>182.0</ele><time>2026-05-02T08:45:02.661Z</time></trkpt><trkpt lat="42.2422776" lon="13.9304707"><ele>182.0</ele><time>2026-05-02T08:45:03.663Z</time></trkpt><trkpt lat="42.2422316" lon="13.9302811"><ele>182.0</ele><time>2026-05-02T08:45:04.661Z</time></trkpt><trkpt lat="42.2421815" lon="13.9300919"><ele>182.0</ele><time>2026-05-02T08:45:05.664Z</time></trkpt><trkpt lat="42.242133" lon="13.9298932"><ele>182.0</ele><time>2026-05-02T08:45:06.671Z</time></trkpt><trkpt lat="42.2420843" lon="13.9296926"><ele>182.0</ele><time>2026-05-02T08:45:07.665Z</time></trkpt><trkpt lat="42.2420338" lon="13.9294894"><ele>182.0</ele><time>2026-05-02T08:45:08.661Z</time></trkpt><trkpt lat="42.2419824" lon="13.929282"><ele>182.0</ele><time>2026-05-02T08:45:09.662Z</time></trkpt><trkpt lat="42.2419303" lon="13.9290708"><ele>182.0</ele><time>2026-05-02T08:45:10.664Z</time></trkpt><trkpt lat="42.2418768" lon="13.9288565"><ele>182.0</ele><time>2026-05-02T08:45:11.664Z</time></trkpt><trkpt lat="42.2418235" lon="13.9286443"><ele>182.0</ele><time>2026-05-02T08:45:12.665Z</time></trkpt><trkpt lat="42.2417686" lon="13.9284369"><ele>182.0</ele><time>2026-05-02T08:45:13.664Z</time></trkpt><trkpt lat="42.241717" lon="13.9282302"><ele>182.0</ele><time>2026-05-02T08:45:14.664Z</time></trkpt><trkpt lat="42.2416679" lon="13.9280264"><ele>183.0</ele><time>2026-05-02T08:45:15.669Z</time></trkpt><trkpt lat="42.2416214" lon="13.9278379"><ele>184.0</ele><time>2026-05-02T08:45:16.664Z</time></trkpt><trkpt lat="42.241574" lon="13.9276519"><ele>185.0</ele><time>2026-05-02T08:45:17.663Z</time></trkpt><trkpt lat="42.2415275" lon="13.9274735"><ele>186.0</ele><time>2026-05-02T08:45:18.669Z</time></trkpt><trkpt lat="42.2414856" lon="13.9273041"><ele>186.0</ele><time>2026-05-02T08:45:19.665Z</time></trkpt><trkpt lat="42.2414464" lon="13.9271465"><ele>186.0</ele><time>2026-05-02T08:45:20.662Z</time></trkpt><trkpt lat="42.2414095" lon="13.926999"><ele>186.0</ele><time>2026-05-02T08:45:21.662Z</time></trkpt><trkpt lat="42.2413758" lon="13.926863"><ele>186.0</ele><time>2026-05-02T08:45:22.662Z</time></trkpt><trkpt lat="42.241345" lon="13.9267407"><ele>186.0</ele><time>2026-05-02T08:45:23.663Z</time></trkpt><trkpt lat="42.2413156" lon="13.9266323"><ele>186.16666666666666</ele><time>2026-05-02T08:45:24.659Z</time></trkpt><trkpt lat="42.2412958" lon="13.9265463"><ele>186.33333333333334</ele><time>2026-05-02T08:45:25.664Z</time></trkpt><trkpt lat="42.2412845" lon="13.9264292"><ele>186.5</ele><time>2026-05-02T08:45:27.662Z</time></trkpt><trkpt lat="42.241341" lon="13.9263479"><ele>186.66666666666669</ele><time>2026-05-02T08:45:29.668Z</time></trkpt><trkpt lat="42.2414644" lon="13.9263481"><ele>186.83333333333334</ele><time>2026-05-02T08:45:31.66Z</time></trkpt><trkpt lat="42.2415363" lon="13.9263485"><ele>187.0</ele><time>2026-05-02T08:45:32.665Z</time></trkpt><trkpt lat="42.2416149" lon="13.9263525"><ele>187.0</ele><time>2026-05-02T08:45:33.663Z</time></trkpt><trkpt lat="42.2416994" lon="13.9263689"><ele>187.0</ele><time>2026-05-02T08:45:34.669Z</time></trkpt><trkpt lat="42.2417881" lon="13.9263876"><ele>187.0</ele><time>2026-05-02T08:45:35.66Z</time></trkpt><trkpt lat="42.2418848" lon="13.9264071"><ele>187.0</ele><time>2026-05-02T08:45:36.664Z</time></trkpt><trkpt lat="42.2419886" lon="13.9264406"><ele>187.0</ele><time>2026-05-02T08:45:37.66Z</time></trkpt><trkpt lat="42.2420974" lon="13.9264935"><ele>187.0</ele><time>2026-05-02T08:45:38.665Z</time></trkpt><trkpt lat="42.2422093" lon="13.9265696"><ele>187.0</ele><time>2026-05-02T08:45:39.665Z</time></trkpt><trkpt lat="42.2423158" lon="13.9266732"><ele>187.0</ele><time>2026-05-02T08:45:40.662Z</time></trkpt><trkpt lat="42.2424155" lon="13.9267812"><ele>187.0</ele><time>2026-05-02T08:45:41.664Z</time></trkpt><trkpt lat="42.2425137" lon="13.9268909"><ele>186.5</ele><time>2026-05-02T08:45:42.665Z</time></trkpt><trkpt lat="42.242607" lon="13.927016"><ele>186.0</ele><time>2026-05-02T08:45:43.666Z</time></trkpt><trkpt lat="42.2426966" lon="13.9271497"><ele>185.5</ele><time>2026-05-02T08:45:44.665Z</time></trkpt><trkpt lat="42.2427919" lon="13.9272846"><ele>185.0</ele><time>2026-05-02T08:45:45.67Z</time></trkpt><trkpt lat="42.2428853" lon="13.9274124"><ele>185.0</ele><time>2026-05-02T08:45:46.661Z</time></trkpt><trkpt lat="42.2429759" lon="13.9275403"><ele>185.0</ele><time>2026-05-02T08:45:47.661Z</time></trkpt><trkpt lat="42.2430669" lon="13.9276671"><ele>185.0</ele><time>2026-05-02T08:45:48.663Z</time></trkpt><trkpt lat="42.2431575" lon="13.9277896"><ele>185.0</ele><time>2026-05-02T08:45:49.661Z</time></trkpt><trkpt lat="42.2432361" lon="13.9278924"><ele>184.33333333333331</ele><time>2026-05-02T08:45:50.663Z</time></trkpt><trkpt lat="42.2433094" lon="13.927978"><ele>183.66666666666666</ele><time>2026-05-02T08:45:51.662Z</time></trkpt><trkpt lat="42.2433741" lon="13.928063"><ele>183.0</ele><time>2026-05-02T08:45:52.66Z</time></trkpt><trkpt lat="42.2434346" lon="13.9281486"><ele>182.33333333333334</ele><time>2026-05-02T08:45:53.664Z</time></trkpt><trkpt lat="42.2434922" lon="13.9282181"><ele>181.66666666666669</ele><time>2026-05-02T08:45:54.67Z</time></trkpt><trkpt lat="42.2435495" lon="13.9282751"><ele>181.0</ele><time>2026-05-02T08:45:55.662Z</time></trkpt><trkpt lat="42.2436106" lon="13.9283276"><ele>181.0</ele><time>2026-05-02T08:45:56.662Z</time></trkpt><trkpt lat="42.2436783" lon="13.9283794"><ele>181.0</ele><time>2026-05-02T08:45:57.665Z</time></trkpt><trkpt lat="42.2437574" lon="13.9284106"><ele>181.0</ele><time>2026-05-02T08:45:58.663Z</time></trkpt><trkpt lat="42.2438463" lon="13.9284179"><ele>181.0</ele><time>2026-05-02T08:45:59.663Z</time></trkpt><trkpt lat="42.2439373" lon="13.928395"><ele>181.0</ele><time>2026-05-02T08:46:00.661Z</time></trkpt><trkpt lat="42.2440206" lon="13.9283643"><ele>181.0</ele><time>2026-05-02T08:46:01.666Z</time></trkpt><trkpt lat="42.2440919" lon="13.9283376"><ele>180.4</ele><time>2026-05-02T08:46:02.662Z</time></trkpt><trkpt lat="42.2441541" lon="13.928306"><ele>179.8</ele><time>2026-05-02T08:46:03.663Z</time></trkpt><trkpt lat="42.244256" lon="13.928237"><ele>179.20000000000002</ele><time>2026-05-02T08:46:05.664Z</time></trkpt><trkpt lat="42.244336" lon="13.9281269"><ele>178.60000000000002</ele><time>2026-05-02T08:46:07.661Z</time></trkpt><trkpt lat="42.2444011" lon="13.9279982"><ele>178.0</ele><time>2026-05-02T08:46:09.662Z</time></trkpt><trkpt lat="42.2444484" lon="13.9278571"><ele>178.0</ele><time>2026-05-02T08:46:11.67Z</time></trkpt><trkpt lat="42.2444639" lon="13.9277697"><ele>178.0</ele><time>2026-05-02T08:46:12.666Z</time></trkpt><trkpt lat="42.2444749" lon="13.927683"><ele>178.0</ele><time>2026-05-02T08:46:13.664Z</time></trkpt><trkpt lat="42.2444848" lon="13.9275907"><ele>178.0</ele><time>2026-05-02T08:46:14.662Z</time></trkpt><trkpt lat="42.244498" lon="13.927456"><ele>178.0</ele><time>2026-05-02T08:46:16.66Z</time></trkpt><trkpt lat="42.2444972" lon="13.927356"><ele>178.0</ele><time>2026-05-02T08:46:19.667Z</time></trkpt><trkpt lat="42.2445194" lon="13.9272509"><ele>179.4</ele><time>2026-05-02T08:46:23.66Z</time></trkpt><trkpt lat="42.2445514" lon="13.9271486"><ele>180.8</ele><time>2026-05-02T08:46:25.664Z</time></trkpt><trkpt lat="42.2445721" lon="13.9269984"><ele>182.2</ele><time>2026-05-02T08:46:27.661Z</time></trkpt><trkpt lat="42.2446083" lon="13.9268601"><ele>183.6</ele><time>2026-05-02T08:46:29.663Z</time></trkpt><trkpt lat="42.2446464" lon="13.9267536"><ele>185.0</ele><time>2026-05-02T08:46:31.663Z</time></trkpt><trkpt lat="42.2446784" lon="13.9266773"><ele>186.14285714285714</ele><time>2026-05-02T08:46:33.67Z</time></trkpt><trkpt lat="42.2447179" lon="13.9266021"><ele>187.28571428571428</ele><time>2026-05-02T08:46:38.669Z</time></trkpt><trkpt lat="42.244757" lon="13.9265258"><ele>188.42857142857144</ele><time>2026-05-02T08:46:45.665Z</time></trkpt><trkpt lat="42.2448191" lon="13.9264957"><ele>189.57142857142856</ele><time>2026-05-02T08:46:49.666Z</time></trkpt><trkpt lat="42.2447684" lon="13.926549"><ele>190.71428571428572</ele><time>2026-05-02T08:47:48.66Z</time></trkpt><trkpt lat="42.2448309" lon="13.9265287"><ele>191.85714285714286</ele><time>2026-05-02T08:47:57.661Z</time></trkpt><trkpt lat="42.244842" lon="13.9264425"><ele>193.0</ele><time>2026-05-02T08:50:29.67Z</time></trkpt><trkpt lat="42.2448233" lon="13.9265292"><ele>193.00000000000003</ele><time>2026-05-02T08:51:02.235Z</time></trkpt><trkpt lat="42.2448212" lon="13.9266213"><ele>193.0</ele><time>2026-05-02T08:51:08.67Z</time></trkpt><trkpt lat="42.244756" lon="13.9266195"><ele>193.0</ele><time>2026-05-02T08:51:15.662Z</time></trkpt><trkpt lat="42.2446854" lon="13.9266538"><ele>193.0</ele><time>2026-05-02T08:51:19.666Z</time></trkpt><trkpt lat="42.2446603" lon="13.9267357"><ele>193.0</ele><time>2026-05-02T08:51:26.669Z</time></trkpt><trkpt lat="42.2446201" lon="13.9268259"><ele>193.00000000000003</ele><time>2026-05-02T08:51:32.66Z</time></trkpt><trkpt lat="42.2445895" lon="13.9269167"><ele>193.0</ele><time>2026-05-02T08:51:37.67Z</time></trkpt><trkpt lat="42.2445515" lon="13.9269942"><ele>185.0</ele><time>2026-05-02T08:51:42.666Z</time></trkpt><trkpt lat="42.244573" lon="13.9270879"><ele>185.0</ele><time>2026-05-02T08:51:49.66Z</time></trkpt></trkseg><trkseg><trkpt lat="42.2447594" lon="13.9264009"><ele>192.99999999999997</ele><time>2026-05-02T09:10:42.654Z</time></trkpt><trkpt lat="42.2447149" lon="13.9264734"><ele>193.0</ele><time>2026-05-02T09:10:44.655Z</time></trkpt><trkpt lat="42.2446945" lon="13.9265952"><ele>193.0</ele><time>2026-05-02T09:10:46.654Z</time></trkpt><trkpt lat="42.2446465" lon="13.9267051"><ele>193.0</ele><time>2026-05-02T09:10:48.655Z</time></trkpt><trkpt lat="42.2446086" lon="13.9268085"><ele>192.99999999999997</ele><time>2026-05-02T09:10:50.654Z</time></trkpt><trkpt lat="42.2445823" lon="13.926901"><ele>193.0</ele><time>2026-05-02T09:10:52.654Z</time></trkpt><trkpt lat="42.2446371" lon="13.9269702"><ele>191.4</ele><time>2026-05-02T09:10:55.654Z</time></trkpt><trkpt lat="42.2447103" lon="13.9269652"><ele>189.8</ele><time>2026-05-02T09:10:56.654Z</time></trkpt><trkpt lat="42.2448111" lon="13.9269473"><ele>188.2</ele><time>2026-05-02T09:10:57.655Z</time></trkpt><trkpt lat="42.2449412" lon="13.9269121"><ele>186.6</ele><time>2026-05-02T09:10:58.655Z</time></trkpt><trkpt lat="42.24508" lon="13.9268768"><ele>185.0</ele><time>2026-05-02T09:10:59.654Z</time></trkpt><trkpt lat="42.2452445" lon="13.9268584"><ele>180.5</ele><time>2026-05-02T09:11:00.654Z</time></trkpt><trkpt lat="42.2454068" lon="13.9268497"><ele>176.0</ele><time>2026-05-02T09:11:01.654Z</time></trkpt><trkpt lat="42.2455506" lon="13.9268465"><ele>171.5</ele><time>2026-05-02T09:11:02.654Z</time></trkpt><trkpt lat="42.2456889" lon="13.9268388"><ele>167.0</ele><time>2026-05-02T09:11:03.655Z</time></trkpt><trkpt lat="42.245815" lon="13.9268321"><ele>166.0</ele><time>2026-05-02T09:11:04.655Z</time></trkpt><trkpt lat="42.2459201" lon="13.9268316"><ele>165.0</ele><time>2026-05-02T09:11:05.654Z</time></trkpt><trkpt lat="42.2459991" lon="13.9268313"><ele>164.0</ele><time>2026-05-02T09:11:06.654Z</time></trkpt><trkpt lat="42.2461017" lon="13.9268252"><ele>163.0</ele><time>2026-05-02T09:11:08.654Z</time></trkpt><trkpt lat="42.2461652" lon="13.9267602"><ele>162.0</ele><time>2026-05-02T09:11:10.655Z</time></trkpt><trkpt lat="42.2462012" lon="13.9266673"><ele>161.0</ele><time>2026-05-02T09:11:12.654Z</time></trkpt><trkpt lat="42.2462583" lon="13.9265204"><ele>160.83333333333331</ele><time>2026-05-02T09:11:14.654Z</time></trkpt><trkpt lat="42.2462999" lon="13.9264397"><ele>160.66666666666666</ele><time>2026-05-02T09:11:15.654Z</time></trkpt><trkpt lat="42.2463373" lon="13.9263675"><ele>160.5</ele><time>2026-05-02T09:11:16.654Z</time></trkpt><trkpt lat="42.2463939" lon="13.9262832"><ele>160.33333333333334</ele><time>2026-05-02T09:11:18.655Z</time></trkpt><trkpt lat="42.246321" lon="13.9264032"><ele>160.16666666666669</ele><time>2026-05-02T09:11:27.654Z</time></trkpt><trkpt lat="42.2462882" lon="13.9264843"><ele>160.0</ele><time>2026-05-02T09:11:28.655Z</time></trkpt><trkpt lat="42.2462327" lon="13.9265703"><ele>160.0</ele><time>2026-05-02T09:11:30.654Z</time></trkpt><trkpt lat="42.2461369" lon="13.9265993"><ele>160.0</ele><time>2026-05-02T09:11:35.654Z</time></trkpt><trkpt lat="42.2460602" lon="13.9266011"><ele>160.0</ele><time>2026-05-02T09:11:36.655Z</time></trkpt><trkpt lat="42.2459776" lon="13.9265969"><ele>160.0</ele><time>2026-05-02T09:11:37.654Z</time></trkpt><trkpt lat="42.2458934" lon="13.9265923"><ele>160.0</ele><time>2026-05-02T09:11:38.655Z</time></trkpt><trkpt lat="42.2458277" lon="13.9265832"><ele>160.0</ele><time>2026-05-02T09:11:39.655Z</time></trkpt><trkpt lat="42.2457463" lon="13.9265449"><ele>160.0</ele><time>2026-05-02T09:11:41.654Z</time></trkpt><trkpt lat="42.2456819" lon="13.9264534"><ele>160.0</ele><time>2026-05-02T09:11:43.654Z</time></trkpt><trkpt lat="42.245651" lon="13.9263111"><ele>160.0</ele><time>2026-05-02T09:11:45.654Z</time></trkpt><trkpt lat="42.2456466" lon="13.9262248"><ele>160.0</ele><time>2026-05-02T09:11:46.654Z</time></trkpt><trkpt lat="42.2456451" lon="13.9261345"><ele>160.0</ele><time>2026-05-02T09:11:47.655Z</time></trkpt><trkpt lat="42.24564" lon="13.9260389"><ele>160.0</ele><time>2026-05-02T09:11:48.654Z</time></trkpt><trkpt lat="42.2456335" lon="13.9259317"><ele>162.0</ele><time>2026-05-02T09:11:49.655Z</time></trkpt><trkpt lat="42.2456268" lon="13.9258105"><ele>164.0</ele><time>2026-05-02T09:11:50.654Z</time></trkpt><trkpt lat="42.2456177" lon="13.9256887"><ele>166.0</ele><time>2026-05-02T09:11:51.654Z</time></trkpt><trkpt lat="42.2456116" lon="13.9255726"><ele>168.0</ele><time>2026-05-02T09:11:52.654Z</time></trkpt><trkpt lat="42.2456043" lon="13.9254644"><ele>170.0</ele><time>2026-05-02T09:11:53.655Z</time></trkpt><trkpt lat="42.2456048" lon="13.9253523"><ele>172.0</ele><time>2026-05-02T09:11:54.655Z</time></trkpt><trkpt lat="42.2456121" lon="13.9252403"><ele>172.0</ele><time>2026-05-02T09:11:55.654Z</time></trkpt><trkpt lat="42.2456278" lon="13.9251271"><ele>172.0</ele><time>2026-05-02T09:11:56.655Z</time></trkpt><trkpt lat="42.2456496" lon="13.9250155"><ele>172.0</ele><time>2026-05-02T09:11:57.654Z</time></trkpt><trkpt lat="42.2456717" lon="13.924905"><ele>172.0</ele><time>2026-05-02T09:11:58.654Z</time></trkpt><trkpt lat="42.2456875" lon="13.9247974"><ele>172.0</ele><time>2026-05-02T09:11:59.654Z</time></trkpt><trkpt lat="42.245713" lon="13.9246934"><ele>172.0</ele><time>2026-05-02T09:12:00.654Z</time></trkpt><trkpt lat="42.2457384" lon="13.9245943"><ele>170.66666666666669</ele><time>2026-05-02T09:12:01.654Z</time></trkpt><trkpt lat="42.2457653" lon="13.9245017"><ele>169.33333333333334</ele><time>2026-05-02T09:12:02.654Z</time></trkpt><trkpt lat="42.2457977" lon="13.9244247"><ele>168.0</ele><time>2026-05-02T09:12:03.654Z</time></trkpt><trkpt lat="42.2458842" lon="13.9242884"><ele>166.66666666666666</ele><time>2026-05-02T09:12:05.654Z</time></trkpt><trkpt lat="42.2459413" lon="13.9242215"><ele>165.33333333333331</ele><time>2026-05-02T09:12:06.655Z</time></trkpt><trkpt lat="42.2459896" lon="13.9241523"><ele>164.0</ele><time>2026-05-02T09:12:07.655Z</time></trkpt><trkpt lat="42.2460663" lon="13.9240124"><ele>164.0</ele><time>2026-05-02T09:12:09.655Z</time></trkpt><trkpt lat="42.246102" lon="13.923939"><ele>164.0</ele><time>2026-05-02T09:12:10.654Z</time></trkpt><trkpt lat="42.2461406" lon="13.9238012"><ele>164.0</ele><time>2026-05-02T09:12:12.654Z</time></trkpt><trkpt lat="42.2461589" lon="13.9236329"><ele>164.0</ele><time>2026-05-02T09:12:14.654Z</time></trkpt><trkpt lat="42.2461606" lon="13.9235352"><ele>164.0</ele><time>2026-05-02T09:12:15.654Z</time></trkpt><trkpt lat="42.2461613" lon="13.9234306"><ele>164.33333333333331</ele><time>2026-05-02T09:12:16.654Z</time></trkpt><trkpt lat="42.2461603" lon="13.9233223"><ele>164.66666666666666</ele><time>2026-05-02T09:12:17.655Z</time></trkpt><trkpt lat="42.2461584" lon="13.923209"><ele>165.0</ele><time>2026-05-02T09:12:18.654Z</time></trkpt><trkpt lat="42.2461575" lon="13.9230934"><ele>165.33333333333334</ele><time>2026-05-02T09:12:19.655Z</time></trkpt><trkpt lat="42.2461558" lon="13.9229768"><ele>165.66666666666669</ele><time>2026-05-02T09:12:20.655Z</time></trkpt><trkpt lat="42.2461519" lon="13.9228551"><ele>166.0</ele><time>2026-05-02T09:12:21.654Z</time></trkpt><trkpt lat="42.2461431" lon="13.9227328"><ele>166.0</ele><time>2026-05-02T09:12:22.654Z</time></trkpt><trkpt lat="42.2461327" lon="13.9226165"><ele>166.0</ele><time>2026-05-02T09:12:23.654Z</time></trkpt><trkpt lat="42.2461269" lon="13.9225018"><ele>166.0</ele><time>2026-05-02T09:12:24.654Z</time></trkpt><trkpt lat="42.2461262" lon="13.9223819"><ele>166.0</ele><time>2026-05-02T09:12:25.655Z</time></trkpt><trkpt lat="42.2461266" lon="13.9222604"><ele>166.0</ele><time>2026-05-02T09:12:26.654Z</time></trkpt><trkpt lat="42.246127" lon="13.9221426"><ele>166.0</ele><time>2026-05-02T09:12:27.654Z</time></trkpt><trkpt lat="42.2461202" lon="13.9220311"><ele>166.16666666666669</ele><time>2026-05-02T09:12:28.655Z</time></trkpt><trkpt lat="42.2461065" lon="13.9219254"><ele>166.33333333333334</ele><time>2026-05-02T09:12:29.654Z</time></trkpt><trkpt lat="42.2460858" lon="13.9218222"><ele>166.5</ele><time>2026-05-02T09:12:30.654Z</time></trkpt><trkpt lat="42.2460558" lon="13.9217263"><ele>166.66666666666666</ele><time>2026-05-02T09:12:31.654Z</time></trkpt><trkpt lat="42.2460217" lon="13.9216288"><ele>166.83333333333331</ele><time>2026-05-02T09:12:32.654Z</time></trkpt><trkpt lat="42.2459907" lon="13.9215209"><ele>167.0</ele><time>2026-05-02T09:12:33.654Z</time></trkpt><trkpt lat="42.245963" lon="13.9214047"><ele>167.33333333333331</ele><time>2026-05-02T09:12:34.654Z</time></trkpt><trkpt lat="42.2459377" lon="13.9212889"><ele>167.66666666666666</ele><time>2026-05-02T09:12:35.655Z</time></trkpt><trkpt lat="42.2459149" lon="13.9211808"><ele>168.0</ele><time>2026-05-02T09:12:36.655Z</time></trkpt><trkpt lat="42.2458925" lon="13.9210849"><ele>168.33333333333334</ele><time>2026-05-02T09:12:37.655Z</time></trkpt><trkpt lat="42.2458711" lon="13.9210002"><ele>168.66666666666669</ele><time>2026-05-02T09:12:38.655Z</time></trkpt><trkpt lat="42.2458247" lon="13.9208524"><ele>169.0</ele><time>2026-05-02T09:12:40.654Z</time></trkpt><trkpt lat="42.2457636" lon="13.9207272"><ele>169.14285714285714</ele><time>2026-05-02T09:12:42.654Z</time></trkpt><trkpt lat="42.2457205" lon="13.9206586"><ele>169.28571428571428</ele><time>2026-05-02T09:12:43.654Z</time></trkpt><trkpt lat="42.2456723" lon="13.9205753"><ele>169.42857142857144</ele><time>2026-05-02T09:12:44.654Z</time></trkpt><trkpt lat="42.2456224" lon="13.9204879"><ele>169.57142857142856</ele><time>2026-05-02T09:12:45.654Z</time></trkpt><trkpt lat="42.2455776" lon="13.9204032"><ele>169.7142857142857</ele><time>2026-05-02T09:12:46.654Z</time></trkpt><trkpt lat="42.2455423" lon="13.920321"><ele>169.85714285714286</ele><time>2026-05-02T09:12:47.654Z</time></trkpt><trkpt lat="42.2455187" lon="13.9202348"><ele>170.0</ele><time>2026-05-02T09:12:48.654Z</time></trkpt><trkpt lat="42.245505" lon="13.9201382"><ele>171.0</ele><time>2026-05-02T09:12:49.654Z</time></trkpt><trkpt lat="42.2454976" lon="13.9200376"><ele>172.0</ele><time>2026-05-02T09:12:50.654Z</time></trkpt><trkpt lat="42.2454886" lon="13.9199402"><ele>173.0</ele><time>2026-05-02T09:12:51.654Z</time></trkpt><trkpt lat="42.2454693" lon="13.9198526"><ele>174.0</ele><time>2026-05-02T09:12:52.654Z</time></trkpt><trkpt lat="42.2454345" lon="13.919772"><ele>175.0</ele><time>2026-05-02T09:12:53.655Z</time></trkpt><trkpt lat="42.2453887" lon="13.9196888"><ele>176.0</ele><time>2026-05-02T09:12:54.654Z</time></trkpt><trkpt lat="42.2453428" lon="13.9196009"><ele>177.0</ele><time>2026-05-02T09:12:55.654Z</time></trkpt><trkpt lat="42.2453088" lon="13.9195107"><ele>177.0</ele><time>2026-05-02T09:12:56.655Z</time></trkpt><trkpt lat="42.2452824" lon="13.9194092"><ele>177.0</ele><time>2026-05-02T09:12:57.654Z</time></trkpt><trkpt lat="42.2452623" lon="13.9192993"><ele>177.0</ele><time>2026-05-02T09:12:58.654Z</time></trkpt><trkpt lat="42.2452511" lon="13.9191888"><ele>177.0</ele><time>2026-05-02T09:12:59.654Z</time></trkpt><trkpt lat="42.2452537" lon="13.9190781"><ele>177.0</ele><time>2026-05-02T09:13:00.654Z</time></trkpt><trkpt lat="42.245271" lon="13.9189605"><ele>177.0</ele><time>2026-05-02T09:13:01.654Z</time></trkpt><trkpt lat="42.2452896" lon="13.9188342"><ele>176.66666666666666</ele><time>2026-05-02T09:13:02.655Z</time></trkpt><trkpt lat="42.245307" lon="13.9187018"><ele>176.33333333333334</ele><time>2026-05-02T09:13:03.654Z</time></trkpt><trkpt lat="42.2453241" lon="13.9185802"><ele>176.0</ele><time>2026-05-02T09:13:04.654Z</time></trkpt><trkpt lat="42.245347" lon="13.9184691"><ele>175.66666666666669</ele><time>2026-05-02T09:13:05.654Z</time></trkpt><trkpt lat="42.2453749" lon="13.9183525"><ele>175.33333333333334</ele><time>2026-05-02T09:13:06.655Z</time></trkpt><trkpt lat="42.2453968" lon="13.9182454"><ele>175.0</ele><time>2026-05-02T09:13:07.654Z</time></trkpt><trkpt lat="42.2454147" lon="13.9181483"><ele>174.83333333333334</ele><time>2026-05-02T09:13:08.654Z</time></trkpt><trkpt lat="42.2454311" lon="13.9180547"><ele>174.66666666666669</ele><time>2026-05-02T09:13:09.654Z</time></trkpt><trkpt lat="42.2454425" lon="13.9179656"><ele>174.5</ele><time>2026-05-02T09:13:10.654Z</time></trkpt><trkpt lat="42.2454467" lon="13.9178782"><ele>174.33333333333334</ele><time>2026-05-02T09:13:11.655Z</time></trkpt><trkpt lat="42.2454432" lon="13.9177887"><ele>174.16666666666666</ele><time>2026-05-02T09:13:12.655Z</time></trkpt><trkpt lat="42.2454322" lon="13.9177003"><ele>174.0</ele><time>2026-05-02T09:13:13.654Z</time></trkpt><trkpt lat="42.2454002" lon="13.9175493"><ele>174.0</ele><time>2026-05-02T09:13:15.654Z</time></trkpt><trkpt lat="42.2453389" lon="13.9174257"><ele>174.0</ele><time>2026-05-02T09:13:17.654Z</time></trkpt><trkpt lat="42.2452914" lon="13.9173491"><ele>174.0</ele><time>2026-05-02T09:13:18.655Z</time></trkpt><trkpt lat="42.2452369" lon="13.9172671"><ele>174.0</ele><time>2026-05-02T09:13:19.654Z</time></trkpt><trkpt lat="42.2451791" lon="13.9171875"><ele>174.0</ele><time>2026-05-02T09:13:20.654Z</time></trkpt><trkpt lat="42.245121" lon="13.9171085"><ele>174.0</ele><time>2026-05-02T09:13:21.655Z</time></trkpt><trkpt lat="42.245071" lon="13.9170342"><ele>174.0</ele><time>2026-05-02T09:13:22.654Z</time></trkpt><trkpt lat="42.2450263" lon="13.9169608"><ele>174.0</ele><time>2026-05-02T09:13:23.654Z</time></trkpt><trkpt lat="42.2449816" lon="13.9168786"><ele>174.0</ele><time>2026-05-02T09:13:24.655Z</time></trkpt><trkpt lat="42.2449388" lon="13.9167896"><ele>174.0</ele><time>2026-05-02T09:13:25.654Z</time></trkpt><trkpt lat="42.2448997" lon="13.9166951"><ele>174.0</ele><time>2026-05-02T09:13:26.655Z</time></trkpt><trkpt lat="42.2448666" lon="13.9166025"><ele>174.0</ele><time>2026-05-02T09:13:27.655Z</time></trkpt><trkpt lat="42.2448321" lon="13.9165203"><ele>174.83333333333334</ele><time>2026-05-02T09:13:28.654Z</time></trkpt><trkpt lat="42.2447458" lon="13.9164143"><ele>175.66666666666666</ele><time>2026-05-02T09:13:30.655Z</time></trkpt><trkpt lat="42.2446227" lon="13.916371"><ele>176.5</ele><time>2026-05-02T09:13:32.654Z</time></trkpt><trkpt lat="42.2445602" lon="13.9163546"><ele>177.33333333333331</ele><time>2026-05-02T09:13:33.654Z</time></trkpt><trkpt lat="42.2444982" lon="13.9163287"><ele>178.16666666666666</ele><time>2026-05-02T09:13:34.654Z</time></trkpt><trkpt lat="42.2444402" lon="13.9162941"><ele>179.0</ele><time>2026-05-02T09:13:35.654Z</time></trkpt><trkpt lat="42.2443513" lon="13.9162318"><ele>179.0</ele><time>2026-05-02T09:13:37.655Z</time></trkpt><trkpt lat="42.2442908" lon="13.9161453"><ele>179.0</ele><time>2026-05-02T09:13:39.654Z</time></trkpt><trkpt lat="42.2442451" lon="13.9159729"><ele>179.0</ele><time>2026-05-02T09:13:41.654Z</time></trkpt><trkpt lat="42.2442298" lon="13.9158587"><ele>179.0</ele><time>2026-05-02T09:13:42.655Z</time></trkpt><trkpt lat="42.2442064" lon="13.9157467"><ele>179.0</ele><time>2026-05-02T09:13:43.654Z</time></trkpt><trkpt lat="42.244167" lon="13.9156371"><ele>179.16666666666666</ele><time>2026-05-02T09:13:44.654Z</time></trkpt><trkpt lat="42.2441216" lon="13.9155309"><ele>179.33333333333331</ele><time>2026-05-02T09:13:45.654Z</time></trkpt><trkpt lat="42.2440777" lon="13.9154356"><ele>179.5</ele><time>2026-05-02T09:13:46.654Z</time></trkpt><trkpt lat="42.2440373" lon="13.9153509"><ele>179.66666666666666</ele><time>2026-05-02T09:13:47.654Z</time></trkpt><trkpt lat="42.2439981" lon="13.9152794"><ele>179.83333333333334</ele><time>2026-05-02T09:13:48.654Z</time></trkpt><trkpt lat="42.2439475" lon="13.9152232"><ele>180.0</ele><time>2026-05-02T09:13:49.654Z</time></trkpt><trkpt lat="42.2438841" lon="13.9151793"><ele>180.5</ele><time>2026-05-02T09:13:50.655Z</time></trkpt><trkpt lat="42.2438199" lon="13.9151427"><ele>181.0</ele><time>2026-05-02T09:13:51.654Z</time></trkpt><trkpt lat="42.2437221" lon="13.915079"><ele>181.5</ele><time>2026-05-02T09:13:53.654Z</time></trkpt><trkpt lat="42.2436375" lon="13.9149769"><ele>182.0</ele><time>2026-05-02T09:13:55.654Z</time></trkpt><trkpt lat="42.2435843" lon="13.9149043"><ele>182.5</ele><time>2026-05-02T09:13:56.654Z</time></trkpt><trkpt lat="42.2435339" lon="13.9148227"><ele>183.0</ele><time>2026-05-02T09:13:57.654Z</time></trkpt><trkpt lat="42.2434809" lon="13.9147386"><ele>183.5</ele><time>2026-05-02T09:13:58.654Z</time></trkpt><trkpt lat="42.2434272" lon="13.9146641"><ele>184.0</ele><time>2026-05-02T09:13:59.654Z</time></trkpt><trkpt lat="42.2433759" lon="13.9145983"><ele>184.5</ele><time>2026-05-02T09:14:00.654Z</time></trkpt><trkpt lat="42.2432986" lon="13.9145097"><ele>185.0</ele><time>2026-05-02T09:14:02.655Z</time></trkpt><trkpt lat="42.2432641" lon="13.9143766"><ele>185.5</ele><time>2026-05-02T09:14:04.654Z</time></trkpt><trkpt lat="42.2432555" lon="13.9142867"><ele>186.0</ele><time>2026-05-02T09:14:05.654Z</time></trkpt><trkpt lat="42.2432455" lon="13.9141886"><ele>186.83333333333334</ele><time>2026-05-02T09:14:06.655Z</time></trkpt><trkpt lat="42.2432329" lon="13.9140893"><ele>187.66666666666666</ele><time>2026-05-02T09:14:07.654Z</time></trkpt><trkpt lat="42.2432182" lon="13.9139752"><ele>188.5</ele><time>2026-05-02T09:14:08.654Z</time></trkpt><trkpt lat="42.2432048" lon="13.9138504"><ele>189.33333333333331</ele><time>2026-05-02T09:14:09.654Z</time></trkpt><trkpt lat="42.2431933" lon="13.9137276"><ele>190.16666666666666</ele><time>2026-05-02T09:14:10.655Z</time></trkpt><trkpt lat="42.2431802" lon="13.9136011"><ele>191.0</ele><time>2026-05-02T09:14:11.655Z</time></trkpt><trkpt lat="42.2431652" lon="13.9134791"><ele>191.0</ele><time>2026-05-02T09:14:12.654Z</time></trkpt><trkpt lat="42.2431418" lon="13.9133688"><ele>191.0</ele><time>2026-05-02T09:14:13.654Z</time></trkpt><trkpt lat="42.2431157" lon="13.9132657"><ele>191.0</ele><time>2026-05-02T09:14:14.654Z</time></trkpt><trkpt lat="42.2430804" lon="13.9131565"><ele>191.0</ele><time>2026-05-02T09:14:15.655Z</time></trkpt><trkpt lat="42.2430227" lon="13.9130416"><ele>191.0</ele><time>2026-05-02T09:14:16.654Z</time></trkpt><trkpt lat="42.2429548" lon="13.9129341"><ele>191.0</ele><time>2026-05-02T09:14:17.654Z</time></trkpt><trkpt lat="42.242896" lon="13.9128342"><ele>191.0</ele><time>2026-05-02T09:14:18.655Z</time></trkpt><trkpt lat="42.2428462" lon="13.9127397"><ele>191.0</ele><time>2026-05-02T09:14:19.655Z</time></trkpt><trkpt lat="42.2428063" lon="13.9126527"><ele>191.0</ele><time>2026-05-02T09:14:20.655Z</time></trkpt><trkpt lat="42.2427776" lon="13.9125558"><ele>191.0</ele><time>2026-05-02T09:14:21.654Z</time></trkpt><trkpt lat="42.242751" lon="13.9124511"><ele>191.0</ele><time>2026-05-02T09:14:22.654Z</time></trkpt><trkpt lat="42.242719" lon="13.9123523"><ele>191.16666666666666</ele><time>2026-05-02T09:14:23.655Z</time></trkpt><trkpt lat="42.2426808" lon="13.91226"><ele>191.33333333333331</ele><time>2026-05-02T09:14:24.655Z</time></trkpt><trkpt lat="42.2426407" lon="13.9121796"><ele>191.5</ele><time>2026-05-02T09:14:25.655Z</time></trkpt><trkpt lat="42.2425835" lon="13.9120884"><ele>191.66666666666666</ele><time>2026-05-02T09:14:27.654Z</time></trkpt><trkpt lat="42.2424969" lon="13.9121135"><ele>191.83333333333334</ele><time>2026-05-02T09:14:30.654Z</time></trkpt><trkpt lat="42.2424371" lon="13.9121705"><ele>192.0</ele><time>2026-05-02T09:14:31.654Z</time></trkpt><trkpt lat="42.242363" lon="13.9122577"><ele>194.0</ele><time>2026-05-02T09:14:32.654Z</time></trkpt><trkpt lat="42.2422744" lon="13.912365"><ele>196.0</ele><time>2026-05-02T09:14:33.654Z</time></trkpt><trkpt lat="42.2421964" lon="13.9124628"><ele>198.0</ele><time>2026-05-02T09:14:34.654Z</time></trkpt><trkpt lat="42.2421393" lon="13.9125553"><ele>200.0</ele><time>2026-05-02T09:14:35.654Z</time></trkpt><trkpt lat="42.2421062" lon="13.9126577"><ele>202.0</ele><time>2026-05-02T09:14:36.655Z</time></trkpt><trkpt lat="42.2420826" lon="13.9127884"><ele>203.0</ele><time>2026-05-02T09:14:37.654Z</time></trkpt><trkpt lat="42.2420642" lon="13.9129224"><ele>204.0</ele><time>2026-05-02T09:14:38.655Z</time></trkpt><trkpt lat="42.2420385" lon="13.9130679"><ele>205.0</ele><time>2026-05-02T09:14:39.654Z</time></trkpt><trkpt lat="42.2420043" lon="13.9132101"><ele>206.0</ele><time>2026-05-02T09:14:40.654Z</time></trkpt><trkpt lat="42.2419697" lon="13.9133827"><ele>205.5</ele><time>2026-05-02T09:14:41.654Z</time></trkpt><trkpt lat="42.2419337" lon="13.9135719"><ele>205.0</ele><time>2026-05-02T09:14:42.655Z</time></trkpt><trkpt lat="42.2419073" lon="13.9137597"><ele>204.5</ele><time>2026-05-02T09:14:43.654Z</time></trkpt><trkpt lat="42.2418942" lon="13.913934"><ele>204.0</ele><time>2026-05-02T09:14:44.655Z</time></trkpt><trkpt lat="42.2418881" lon="13.9140964"><ele>203.66666666666666</ele><time>2026-05-02T09:14:45.655Z</time></trkpt><trkpt lat="42.2418974" lon="13.9142478"><ele>203.33333333333331</ele><time>2026-05-02T09:14:46.654Z</time></trkpt><trkpt lat="42.2418953" lon="13.9143769"><ele>203.0</ele><time>2026-05-02T09:14:47.655Z</time></trkpt><trkpt lat="42.2418822" lon="13.9144825"><ele>202.66666666666666</ele><time>2026-05-02T09:14:48.654Z</time></trkpt><trkpt lat="42.2418555" lon="13.9145716"><ele>202.33333333333331</ele><time>2026-05-02T09:14:49.654Z</time></trkpt><trkpt lat="42.2418142" lon="13.9146522"><ele>202.0</ele><time>2026-05-02T09:14:50.654Z</time></trkpt><trkpt lat="42.2417648" lon="13.9147344"><ele>201.99999999999997</ele><time>2026-05-02T09:14:51.655Z</time></trkpt><trkpt lat="42.2417102" lon="13.914805"><ele>202.0</ele><time>2026-05-02T09:14:52.654Z</time></trkpt><trkpt lat="42.241626" lon="13.9148794"><ele>202.0</ele><time>2026-05-02T09:14:54.654Z</time></trkpt><trkpt lat="42.2415496" lon="13.9148442"><ele>202.0</ele><time>2026-05-02T09:14:56.655Z</time></trkpt><trkpt lat="42.2415035" lon="13.9147765"><ele>201.99999999999997</ele><time>2026-05-02T09:14:57.654Z</time></trkpt><trkpt lat="42.2414542" lon="13.914672"><ele>202.0</ele><time>2026-05-02T09:14:58.654Z</time></trkpt><trkpt lat="42.2413991" lon="13.9145618"><ele>203.99999999999997</ele><time>2026-05-02T09:14:59.654Z</time></trkpt><trkpt lat="42.241341" lon="13.9144587"><ele>206.0</ele><time>2026-05-02T09:15:00.654Z</time></trkpt><trkpt lat="42.2412832" lon="13.9144049"><ele>208.0</ele><time>2026-05-02T09:15:01.654Z</time></trkpt><trkpt lat="42.24124" lon="13.9143374"><ele>210.0</ele><time>2026-05-02T09:15:02.653Z</time></trkpt><trkpt lat="42.2411808" lon="13.9142551"><ele>211.99999999999997</ele><time>2026-05-02T09:15:03.654Z</time></trkpt><trkpt lat="42.2411364" lon="13.9141409"><ele>214.0</ele><time>2026-05-02T09:15:04.652Z</time></trkpt><trkpt lat="42.2411037" lon="13.9139834"><ele>214.79999999999998</ele><time>2026-05-02T09:15:05.654Z</time></trkpt><trkpt lat="42.2410665" lon="13.913812"><ele>215.59999999999997</ele><time>2026-05-02T09:15:06.655Z</time></trkpt><trkpt lat="42.2410311" lon="13.91365"><ele>216.4</ele><time>2026-05-02T09:15:07.654Z</time></trkpt><trkpt lat="42.2409929" lon="13.9135343"><ele>217.2</ele><time>2026-05-02T09:15:08.654Z</time></trkpt><trkpt lat="42.2409616" lon="13.9134309"><ele>218.0</ele><time>2026-05-02T09:15:09.654Z</time></trkpt><trkpt lat="42.240924" lon="13.9133263"><ele>219.33333333333334</ele><time>2026-05-02T09:15:10.654Z</time></trkpt><trkpt lat="42.2408841" lon="13.9132293"><ele>220.66666666666669</ele><time>2026-05-02T09:15:11.654Z</time></trkpt><trkpt lat="42.240836" lon="13.9131442"><ele>222.0</ele><time>2026-05-02T09:15:12.655Z</time></trkpt><trkpt lat="42.2407764" lon="13.9130482"><ele>223.33333333333331</ele><time>2026-05-02T09:15:13.655Z</time></trkpt><trkpt lat="42.2407224" lon="13.9129559"><ele>224.66666666666666</ele><time>2026-05-02T09:15:14.655Z</time></trkpt><trkpt lat="42.2406674" lon="13.9128597"><ele>226.0</ele><time>2026-05-02T09:15:15.654Z</time></trkpt><trkpt lat="42.2406121" lon="13.9127669"><ele>226.0</ele><time>2026-05-02T09:15:16.655Z</time></trkpt><trkpt lat="42.2405433" lon="13.912687"><ele>226.00000000000003</ele><time>2026-05-02T09:15:17.655Z</time></trkpt><trkpt lat="42.2404692" lon="13.9126037"><ele>226.00000000000003</ele><time>2026-05-02T09:15:18.654Z</time></trkpt><trkpt lat="42.2403982" lon="13.9125214"><ele>226.0</ele><time>2026-05-02T09:15:19.654Z</time></trkpt><trkpt lat="42.2403283" lon="13.9124331"><ele>226.0</ele><time>2026-05-02T09:15:20.654Z</time></trkpt><trkpt lat="42.2402629" lon="13.9123335"><ele>228.4</ele><time>2026-05-02T09:15:21.655Z</time></trkpt><trkpt lat="42.2401912" lon="13.9122435"><ele>230.8</ele><time>2026-05-02T09:15:22.654Z</time></trkpt><trkpt lat="42.2401183" lon="13.9121511"><ele>233.20000000000002</ele><time>2026-05-02T09:15:23.654Z</time></trkpt><trkpt lat="42.2400481" lon="13.9120554"><ele>235.60000000000002</ele><time>2026-05-02T09:15:24.654Z</time></trkpt><trkpt lat="42.2399804" lon="13.9119622"><ele>238.0</ele><time>2026-05-02T09:15:25.654Z</time></trkpt><trkpt lat="42.2399188" lon="13.9118914"><ele>237.99999999999997</ele><time>2026-05-02T09:15:26.654Z</time></trkpt><trkpt lat="42.2398557" lon="13.911844"><ele>238.0</ele><time>2026-05-02T09:15:27.655Z</time></trkpt><trkpt lat="42.2397895" lon="13.9118247"><ele>238.0</ele><time>2026-05-02T09:15:28.654Z</time></trkpt><trkpt lat="42.239721" lon="13.9118339"><ele>238.0</ele><time>2026-05-02T09:15:29.655Z</time></trkpt><trkpt lat="42.2396483" lon="13.9118485"><ele>237.99999999999997</ele><time>2026-05-02T09:15:30.654Z</time></trkpt><trkpt lat="42.2395682" lon="13.9118666"><ele>238.0</ele><time>2026-05-02T09:15:31.654Z</time></trkpt><trkpt lat="42.2394827" lon="13.911894"><ele>238.4</ele><time>2026-05-02T09:15:32.654Z</time></trkpt><trkpt lat="42.2393952" lon="13.9119241"><ele>238.8</ele><time>2026-05-02T09:15:33.654Z</time></trkpt><trkpt lat="42.2393032" lon="13.911967"><ele>239.2</ele><time>2026-05-02T09:15:34.655Z</time></trkpt><trkpt lat="42.2392118" lon="13.9120206"><ele>239.6</ele><time>2026-05-02T09:15:35.655Z</time></trkpt><trkpt lat="42.2391214" lon="13.9120722"><ele>240.0</ele><time>2026-05-02T09:15:36.654Z</time></trkpt><trkpt lat="42.2390399" lon="13.9121417"><ele>240.0</ele><time>2026-05-02T09:15:37.654Z</time></trkpt><trkpt lat="42.2389801" lon="13.9121927"><ele>240.0</ele><time>2026-05-02T09:15:38.654Z</time></trkpt><trkpt lat="42.2389169" lon="13.9122453"><ele>240.0</ele><time>2026-05-02T09:15:41.654Z</time></trkpt><trkpt lat="42.2389507" lon="13.9123534"><ele>240.0</ele><time>2026-05-02T09:15:45.654Z</time></trkpt><trkpt lat="42.2389419" lon="13.9122607"><ele>240.0</ele><time>2026-05-02T09:15:51.655Z</time></trkpt><trkpt lat="42.2390278" lon="13.9121622"><ele>240.0</ele><time>2026-05-02T09:15:56.655Z</time></trkpt><trkpt lat="42.2390851" lon="13.9121262"><ele>240.0</ele><time>2026-05-02T09:15:57.654Z</time></trkpt><trkpt lat="42.2391592" lon="13.9120753"><ele>240.0</ele><time>2026-05-02T09:15:58.654Z</time></trkpt><trkpt lat="42.2392456" lon="13.9120114"><ele>240.0</ele><time>2026-05-02T09:15:59.655Z</time></trkpt><trkpt lat="42.2393692" lon="13.9119471"><ele>240.0</ele><time>2026-05-02T09:16:00.654Z</time></trkpt><trkpt lat="42.2395067" lon="13.9119023"><ele>240.0</ele><time>2026-05-02T09:16:01.655Z</time></trkpt><trkpt lat="42.2396308" lon="13.9118763"><ele>240.0</ele><time>2026-05-02T09:16:02.654Z</time></trkpt><trkpt lat="42.2397299" lon="13.9118627"><ele>240.0</ele><time>2026-05-02T09:16:03.654Z</time></trkpt><trkpt lat="42.2398085" lon="13.9118523"><ele>240.0</ele><time>2026-05-02T09:16:05.655Z</time></trkpt><trkpt lat="42.2398214" lon="13.9117273"><ele>240.0</ele><time>2026-05-02T09:16:11.654Z</time></trkpt><trkpt lat="42.2397815" lon="13.9115881"><ele>241.5</ele><time>2026-05-02T09:16:13.655Z</time></trkpt><trkpt lat="42.2397571" lon="13.9115035"><ele>243.0</ele><time>2026-05-02T09:16:14.654Z</time></trkpt><trkpt lat="42.2397331" lon="13.9114094"><ele>244.5</ele><time>2026-05-02T09:16:15.654Z</time></trkpt><trkpt lat="42.2397045" lon="13.9113018"><ele>246.0</ele><time>2026-05-02T09:16:16.655Z</time></trkpt><trkpt lat="42.2396656" lon="13.9111785"><ele>247.5</ele><time>2026-05-02T09:16:17.655Z</time></trkpt><trkpt lat="42.2396275" lon="13.9110746"><ele>249.0</ele><time>2026-05-02T09:16:18.654Z</time></trkpt><trkpt lat="42.2395845" lon="13.9109727"><ele>249.2</ele><time>2026-05-02T09:16:19.654Z</time></trkpt><trkpt lat="42.2395441" lon="13.9108881"><ele>249.39999999999998</ele><time>2026-05-02T09:16:20.655Z</time></trkpt><trkpt lat="42.2395135" lon="13.9108102"><ele>249.6</ele><time>2026-05-02T09:16:21.655Z</time></trkpt><trkpt lat="42.2394794" lon="13.9107308"><ele>249.8</ele><time>2026-05-02T09:16:22.654Z</time></trkpt><trkpt lat="42.2393884" lon="13.9106212"><ele>250.0</ele><time>2026-05-02T09:16:24.655Z</time></trkpt><trkpt lat="42.2392813" lon="13.9105117"><ele>250.0</ele><time>2026-05-02T09:16:26.654Z</time></trkpt><trkpt lat="42.2392308" lon="13.9104288"><ele>250.0</ele><time>2026-05-02T09:16:27.654Z</time></trkpt><trkpt lat="42.2391743" lon="13.9103316"><ele>250.0</ele><time>2026-05-02T09:16:28.654Z</time></trkpt><trkpt lat="42.2391152" lon="13.9102348"><ele>250.0</ele><time>2026-05-02T09:16:29.654Z</time></trkpt><trkpt lat="42.2390522" lon="13.9101359"><ele>250.0</ele><time>2026-05-02T09:16:30.654Z</time></trkpt><trkpt lat="42.2389836" lon="13.9100449"><ele>252.14285714285714</ele><time>2026-05-02T09:16:31.654Z</time></trkpt><trkpt lat="42.2389263" lon="13.9099611"><ele>254.28571428571428</ele><time>2026-05-02T09:16:32.655Z</time></trkpt><trkpt lat="42.2388711" lon="13.9098917"><ele>256.42857142857144</ele><time>2026-05-02T09:16:33.654Z</time></trkpt><trkpt lat="42.2388197" lon="13.909831"><ele>258.57142857142856</ele><time>2026-05-02T09:16:34.654Z</time></trkpt><trkpt lat="42.2387656" lon="13.9097822"><ele>260.7142857142857</ele><time>2026-05-02T09:16:35.654Z</time></trkpt><trkpt lat="42.2387" lon="13.9097374"><ele>262.85714285714283</ele><time>2026-05-02T09:16:36.654Z</time></trkpt><trkpt lat="42.2386319" lon="13.9096948"><ele>265.0</ele><time>2026-05-02T09:16:37.655Z</time></trkpt><trkpt lat="42.2385648" lon="13.9096433"><ele>265.0</ele><time>2026-05-02T09:16:38.654Z</time></trkpt><trkpt lat="42.2384947" lon="13.9095853"><ele>265.0</ele><time>2026-05-02T09:16:39.654Z</time></trkpt><trkpt lat="42.2384297" lon="13.9095218"><ele>265.0</ele><time>2026-05-02T09:16:40.654Z</time></trkpt><trkpt lat="42.2383658" lon="13.9094533"><ele>265.0</ele><time>2026-05-02T09:16:41.655Z</time></trkpt><trkpt lat="42.2383114" lon="13.9093759"><ele>265.0</ele><time>2026-05-02T09:16:42.654Z</time></trkpt><trkpt lat="42.2382561" lon="13.9093033"><ele>265.0</ele><time>2026-05-02T09:16:43.654Z</time></trkpt><trkpt lat="42.2382033" lon="13.9092405"><ele>265.3333333333333</ele><time>2026-05-02T09:16:44.654Z</time></trkpt><trkpt lat="42.2381432" lon="13.9091847"><ele>265.66666666666663</ele><time>2026-05-02T09:16:45.655Z</time></trkpt><trkpt lat="42.2380881" lon="13.9091322"><ele>266.0</ele><time>2026-05-02T09:16:46.655Z</time></trkpt><trkpt lat="42.2380186" lon="13.909121"><ele>266.3333333333333</ele><time>2026-05-02T09:16:47.654Z</time></trkpt><trkpt lat="42.2379558" lon="13.9091106"><ele>266.6666666666667</ele><time>2026-05-02T09:16:48.654Z</time></trkpt><trkpt lat="42.2378316" lon="13.9091211"><ele>267.0</ele><time>2026-05-02T09:16:50.655Z</time></trkpt><trkpt lat="42.2377694" lon="13.9091412"><ele>268.5</ele><time>2026-05-02T09:16:51.654Z</time></trkpt><trkpt lat="42.2377024" lon="13.9091434"><ele>270.0</ele><time>2026-05-02T09:16:53.654Z</time></trkpt><trkpt lat="42.237655" lon="13.909073"><ele>271.5</ele><time>2026-05-02T09:16:55.654Z</time></trkpt><trkpt lat="42.2376169" lon="13.908929"><ele>273.0</ele><time>2026-05-02T09:16:57.654Z</time></trkpt><trkpt lat="42.2375847" lon="13.9088421"><ele>274.5</ele><time>2026-05-02T09:16:58.655Z</time></trkpt><trkpt lat="42.2375422" lon="13.9087411"><ele>276.0</ele><time>2026-05-02T09:16:59.655Z</time></trkpt><trkpt lat="42.2374999" lon="13.9086342"><ele>276.0</ele><time>2026-05-02T09:17:00.654Z</time></trkpt><trkpt lat="42.2374617" lon="13.9085157"><ele>276.0</ele><time>2026-05-02T09:17:01.655Z</time></trkpt><trkpt lat="42.2374254" lon="13.9084041"><ele>276.0</ele><time>2026-05-02T09:17:02.654Z</time></trkpt><trkpt lat="42.237377" lon="13.9082951"><ele>276.0</ele><time>2026-05-02T09:17:03.654Z</time></trkpt><trkpt lat="42.2373232" lon="13.9081781"><ele>276.0</ele><time>2026-05-02T09:17:04.655Z</time></trkpt><trkpt lat="42.2372661" lon="13.9080452"><ele>276.75</ele><time>2026-05-02T09:17:05.655Z</time></trkpt><trkpt lat="42.2371979" lon="13.9079025"><ele>277.5</ele><time>2026-05-02T09:17:06.654Z</time></trkpt><trkpt lat="42.2371207" lon="13.9077478"><ele>278.25</ele><time>2026-05-02T09:17:07.654Z</time></trkpt><trkpt lat="42.2370553" lon="13.9076168"><ele>279.0</ele><time>2026-05-02T09:17:08.655Z</time></trkpt><trkpt lat="42.2369936" lon="13.9074903"><ele>279.0</ele><time>2026-05-02T09:17:09.654Z</time></trkpt><trkpt lat="42.2369384" lon="13.9073729"><ele>279.0</ele><time>2026-05-02T09:17:10.654Z</time></trkpt><trkpt lat="42.2368865" lon="13.9072519"><ele>279.0</ele><time>2026-05-02T09:17:11.655Z</time></trkpt><trkpt lat="42.2368428" lon="13.9071447"><ele>279.0</ele><time>2026-05-02T09:17:12.654Z</time></trkpt><trkpt lat="42.2368029" lon="13.9070459"><ele>279.0</ele><time>2026-05-02T09:17:13.655Z</time></trkpt><trkpt lat="42.2367648" lon="13.9069558"><ele>279.0</ele><time>2026-05-02T09:17:14.655Z</time></trkpt><trkpt lat="42.236723" lon="13.9068651"><ele>279.0</ele><time>2026-05-02T09:17:15.654Z</time></trkpt><trkpt lat="42.2366784" lon="13.9067832"><ele>279.0</ele><time>2026-05-02T09:17:16.655Z</time></trkpt><trkpt lat="42.2366299" lon="13.9067037"><ele>279.0</ele><time>2026-05-02T09:17:17.654Z</time></trkpt><trkpt lat="42.2365773" lon="13.906624"><ele>279.0</ele><time>2026-05-02T09:17:18.654Z</time></trkpt><trkpt lat="42.236524" lon="13.9065474"><ele>279.0</ele><time>2026-05-02T09:17:19.654Z</time></trkpt><trkpt lat="42.2364714" lon="13.9064706"><ele>278.4</ele><time>2026-05-02T09:17:20.654Z</time></trkpt><trkpt lat="42.2364186" lon="13.9064076"><ele>277.79999999999995</ele><time>2026-05-02T09:17:21.654Z</time></trkpt><trkpt lat="42.2363676" lon="13.9063533"><ele>277.20000000000005</ele><time>2026-05-02T09:17:22.654Z</time></trkpt><trkpt lat="42.2363188" lon="13.906289"><ele>276.6</ele><time>2026-05-02T09:17:24.655Z</time></trkpt><trkpt lat="42.2362576" lon="13.9060933"><ele>276.0</ele><time>2026-05-02T09:17:26.654Z</time></trkpt><trkpt lat="42.2362114" lon="13.905891"><ele>280.0</ele><time>2026-05-02T09:17:27.655Z</time></trkpt><trkpt lat="42.2361566" lon="13.9056656"><ele>284.0</ele><time>2026-05-02T09:17:28.654Z</time></trkpt><trkpt lat="42.2360883" lon="13.9054571"><ele>288.0</ele><time>2026-05-02T09:17:29.655Z</time></trkpt><trkpt lat="42.2359955" lon="13.9052189"><ele>290.0</ele><time>2026-05-02T09:17:30.654Z</time></trkpt><trkpt lat="42.235882" lon="13.9049559"><ele>292.0</ele><time>2026-05-02T09:17:31.653Z</time></trkpt><trkpt lat="42.2357748" lon="13.9047123"><ele>294.0</ele><time>2026-05-02T09:17:32.655Z</time></trkpt><trkpt lat="42.235678" lon="13.9044904"><ele>293.6666666666667</ele><time>2026-05-02T09:17:33.654Z</time></trkpt><trkpt lat="42.2355853" lon="13.9042822"><ele>293.33333333333337</ele><time>2026-05-02T09:17:34.654Z</time></trkpt><trkpt lat="42.2355034" lon="13.9040946"><ele>293.0</ele><time>2026-05-02T09:17:35.655Z</time></trkpt><trkpt lat="42.2354369" lon="13.9039045"><ele>293.0</ele><time>2026-05-02T09:17:36.655Z</time></trkpt><trkpt lat="42.2353871" lon="13.9036868"><ele>293.0</ele><time>2026-05-02T09:17:37.654Z</time></trkpt><trkpt lat="42.2353403" lon="13.9034311"><ele>293.0</ele><time>2026-05-02T09:17:38.654Z</time></trkpt><trkpt lat="42.235302" lon="13.9031994"><ele>293.4</ele><time>2026-05-02T09:17:39.654Z</time></trkpt><trkpt lat="42.2352731" lon="13.9030034"><ele>293.8</ele><time>2026-05-02T09:17:40.654Z</time></trkpt><trkpt lat="42.2352586" lon="13.9028766"><ele>294.2</ele><time>2026-05-02T09:17:41.654Z</time></trkpt><trkpt lat="42.2352995" lon="13.9027543"><ele>294.6</ele><time>2026-05-02T09:17:43.654Z</time></trkpt><trkpt lat="42.2353755" lon="13.9027905"><ele>295.0</ele><time>2026-05-02T09:17:45.654Z</time></trkpt><trkpt lat="42.235404" lon="13.9028738"><ele>295.0</ele><time>2026-05-02T09:17:46.654Z</time></trkpt><trkpt lat="42.235433" lon="13.9030254"><ele>295.0</ele><time>2026-05-02T09:17:47.654Z</time></trkpt><trkpt lat="42.2354712" lon="13.9032214"><ele>295.0</ele><time>2026-05-02T09:17:48.654Z</time></trkpt><trkpt lat="42.2355329" lon="13.9034303"><ele>295.0</ele><time>2026-05-02T09:17:49.655Z</time></trkpt><trkpt lat="42.2355956" lon="13.9036089"><ele>296.4</ele><time>2026-05-02T09:17:50.655Z</time></trkpt><trkpt lat="42.2356599" lon="13.903759"><ele>297.8</ele><time>2026-05-02T09:17:51.654Z</time></trkpt><trkpt lat="42.2357124" lon="13.9038436"><ele>299.2</ele><time>2026-05-02T09:17:52.654Z</time></trkpt><trkpt lat="42.2357695" lon="13.9038831"><ele>300.6</ele><time>2026-05-02T09:17:53.654Z</time></trkpt><trkpt lat="42.2358788" lon="13.9038361"><ele>302.0</ele><time>2026-05-02T09:17:55.655Z</time></trkpt><trkpt lat="42.2359057" lon="13.9037564"><ele>302.0</ele><time>2026-05-02T09:17:56.654Z</time></trkpt><trkpt lat="42.2359104" lon="13.9036394"><ele>302.0</ele><time>2026-05-02T09:17:57.655Z</time></trkpt><trkpt lat="42.2359004" lon="13.9034737"><ele>302.0</ele><time>2026-05-02T09:17:58.654Z</time></trkpt><trkpt lat="42.23588" lon="13.9032658"><ele>302.0</ele><time>2026-05-02T09:17:59.655Z</time></trkpt><trkpt lat="42.2358576" lon="13.9029972"><ele>305.0</ele><time>2026-05-02T09:18:00.655Z</time></trkpt><trkpt lat="42.2358398" lon="13.9026834"><ele>308.0</ele><time>2026-05-02T09:18:01.654Z</time></trkpt><trkpt lat="42.2358178" lon="13.9023608"><ele>312.0</ele><time>2026-05-02T09:18:02.654Z</time></trkpt><trkpt lat="42.2357958" lon="13.9020486"><ele>316.0</ele><time>2026-05-02T09:18:03.655Z</time></trkpt><trkpt lat="42.2357667" lon="13.901748"><ele>318.0</ele><time>2026-05-02T09:18:04.654Z</time></trkpt><trkpt lat="42.2357399" lon="13.901454"><ele>320.0</ele><time>2026-05-02T09:18:05.654Z</time></trkpt><trkpt lat="42.2357218" lon="13.9011675"><ele>322.0</ele><time>2026-05-02T09:18:06.655Z</time></trkpt><trkpt lat="42.2357101" lon="13.9009014"><ele>324.3333333333333</ele><time>2026-05-02T09:18:07.654Z</time></trkpt><trkpt lat="42.2356991" lon="13.900659"><ele>326.6666666666667</ele><time>2026-05-02T09:18:08.654Z</time></trkpt><trkpt lat="42.235687" lon="13.9004241"><ele>329.0</ele><time>2026-05-02T09:18:09.654Z</time></trkpt><trkpt lat="42.2356748" lon="13.9002197"><ele>329.75</ele><time>2026-05-02T09:18:10.654Z</time></trkpt><trkpt lat="42.2356723" lon="13.9000326"><ele>330.5</ele><time>2026-05-02T09:18:11.654Z</time></trkpt><trkpt lat="42.2356866" lon="13.8998427"><ele>331.25</ele><time>2026-05-02T09:18:12.655Z</time></trkpt><trkpt lat="42.2357102" lon="13.8996466"><ele>332.0</ele><time>2026-05-02T09:18:13.654Z</time></trkpt><trkpt lat="42.2357341" lon="13.8994653"><ele>332.0</ele><time>2026-05-02T09:18:14.655Z</time></trkpt><trkpt lat="42.2357511" lon="13.8993029"><ele>332.0</ele><time>2026-05-02T09:18:15.654Z</time></trkpt><trkpt lat="42.2357511" lon="13.8991779"><ele>332.0</ele><time>2026-05-02T09:18:16.654Z</time></trkpt><trkpt lat="42.2357478" lon="13.8990773"><ele>332.0</ele><time>2026-05-02T09:18:17.654Z</time></trkpt><trkpt lat="42.2357378" lon="13.8989736"><ele>332.0</ele><time>2026-05-02T09:18:18.654Z</time></trkpt><trkpt lat="42.2357337" lon="13.8988793"><ele>332.0</ele><time>2026-05-02T09:18:19.654Z</time></trkpt><trkpt lat="42.2357381" lon="13.8987826"><ele>333.1428571428571</ele><time>2026-05-02T09:18:20.655Z</time></trkpt><trkpt lat="42.2357369" lon="13.8986913"><ele>334.28571428571433</ele><time>2026-05-02T09:18:21.654Z</time></trkpt><trkpt lat="42.2357393" lon="13.8985933"><ele>335.42857142857144</ele><time>2026-05-02T09:18:22.655Z</time></trkpt><trkpt lat="42.235738" lon="13.8984996"><ele>336.57142857142856</ele><time>2026-05-02T09:18:23.654Z</time></trkpt><trkpt lat="42.2357294" lon="13.8984145"><ele>337.71428571428567</ele><time>2026-05-02T09:18:24.655Z</time></trkpt><trkpt lat="42.2357267" lon="13.8982877"><ele>338.8571428571429</ele><time>2026-05-02T09:18:26.655Z</time></trkpt><trkpt lat="42.2357158" lon="13.8981963"><ele>340.0</ele><time>2026-05-02T09:18:29.654Z</time></trkpt><trkpt lat="42.235704" lon="13.8981072"><ele>341.3333333333333</ele><time>2026-05-02T09:18:34.654Z</time></trkpt><trkpt lat="42.2356713" lon="13.8979489"><ele>342.66666666666663</ele><time>2026-05-02T09:18:37.654Z</time></trkpt><trkpt lat="42.2356725" lon="13.8978502"><ele>344.0</ele><time>2026-05-02T09:18:40.654Z</time></trkpt><trkpt lat="42.2356605" lon="13.8977588"><ele>345.3333333333333</ele><time>2026-05-02T09:19:00.655Z</time></trkpt><trkpt lat="42.2356669" lon="13.8976317"><ele>346.6666666666667</ele><time>2026-05-02T09:19:02.655Z</time></trkpt><trkpt lat="42.2356802" lon="13.8975323"><ele>348.0</ele><time>2026-05-02T09:19:04.654Z</time></trkpt><trkpt lat="42.2357122" lon="13.8974171"><ele>348.7142857142857</ele><time>2026-05-02T09:19:07.654Z</time></trkpt><trkpt lat="42.2357219" lon="13.897333"><ele>349.42857142857144</ele><time>2026-05-02T09:19:32.654Z</time></trkpt><trkpt lat="42.2357347" lon="13.8972477"><ele>350.1428571428571</ele><time>2026-05-02T09:19:35.654Z</time></trkpt><trkpt lat="42.2357556" lon="13.8971539"><ele>350.8571428571429</ele><time>2026-05-02T09:19:40.654Z</time></trkpt><trkpt lat="42.235778" lon="13.8970719"><ele>351.5714285714286</ele><time>2026-05-02T09:19:45.655Z</time></trkpt><trkpt lat="42.2357812" lon="13.8969726"><ele>352.2857142857143</ele><time>2026-05-02T09:20:00.655Z</time></trkpt><trkpt lat="42.2357978" lon="13.8968867"><ele>353.0</ele><time>2026-05-02T09:20:02.655Z</time></trkpt><trkpt lat="42.2358227" lon="13.8967908"><ele>353.0</ele><time>2026-05-02T09:20:06.654Z</time></trkpt><trkpt lat="42.2358411" lon="13.8966945"><ele>353.0</ele><time>2026-05-02T09:20:13.654Z</time></trkpt><trkpt lat="42.235863" lon="13.8965981"><ele>353.0</ele><time>2026-05-02T09:20:17.655Z</time></trkpt><trkpt lat="42.2358952" lon="13.8965004"><ele>353.0</ele><time>2026-05-02T09:20:41.654Z</time></trkpt><trkpt lat="42.2359144" lon="13.896411"><ele>353.0</ele><time>2026-05-02T09:20:44.654Z</time></trkpt><trkpt lat="42.2359263" lon="13.8963252"><ele>353.0</ele><time>2026-05-02T09:20:49.653Z</time></trkpt><trkpt lat="42.2359679" lon="13.8962438"><ele>353.0</ele><time>2026-05-02T09:21:01.654Z</time></trkpt><trkpt lat="42.2360019" lon="13.8961438"><ele>353.0</ele><time>2026-05-02T09:21:04.654Z</time></trkpt><trkpt lat="42.2360047" lon="13.8960406"><ele>353.0</ele><time>2026-05-02T09:21:06.655Z</time></trkpt><trkpt lat="42.2360039" lon="13.8959488"><ele>353.0</ele><time>2026-05-02T09:21:09.654Z</time></trkpt><trkpt lat="42.2359947" lon="13.8958582"><ele>353.0</ele><time>2026-05-02T09:21:16.655Z</time></trkpt><trkpt lat="42.2359965" lon="13.8957636"><ele>353.0</ele><time>2026-05-02T09:21:23.653Z</time></trkpt><trkpt lat="42.2360114" lon="13.8956666"><ele>353.0</ele><time>2026-05-02T09:21:37.654Z</time></trkpt><trkpt lat="42.236026" lon="13.8955825"><ele>353.0</ele><time>2026-05-02T09:21:40.654Z</time></trkpt><trkpt lat="42.2360414" lon="13.8954952"><ele>352.4285714285714</ele><time>2026-05-02T09:21:55.654Z</time></trkpt><trkpt lat="42.2360603" lon="13.8954114"><ele>351.8571428571429</ele><time>2026-05-02T09:21:58.655Z</time></trkpt><trkpt lat="42.2360758" lon="13.8953235"><ele>351.2857142857143</ele><time>2026-05-02T09:22:01.655Z</time></trkpt><trkpt lat="42.2360695" lon="13.8952298"><ele>350.71428571428567</ele><time>2026-05-02T09:22:12.654Z</time></trkpt><trkpt lat="42.2360776" lon="13.8951054"><ele>350.1428571428571</ele><time>2026-05-02T09:22:16.654Z</time></trkpt><trkpt lat="42.2360806" lon="13.8950076"><ele>349.57142857142856</ele><time>2026-05-02T09:22:19.655Z</time></trkpt><trkpt lat="42.2360821" lon="13.8949201"><ele>349.0</ele><time>2026-05-02T09:22:21.655Z</time></trkpt><trkpt lat="42.2360862" lon="13.8948179"><ele>348.66666666666663</ele><time>2026-05-02T09:22:23.654Z</time></trkpt><trkpt lat="42.2360899" lon="13.8947161"><ele>348.3333333333333</ele><time>2026-05-02T09:22:25.655Z</time></trkpt><trkpt lat="42.2360994" lon="13.894615"><ele>348.0</ele><time>2026-05-02T09:22:27.654Z</time></trkpt><trkpt lat="42.2361061" lon="13.8945081"><ele>347.6666666666667</ele><time>2026-05-02T09:22:29.655Z</time></trkpt><trkpt lat="42.2361236" lon="13.8943989"><ele>347.33333333333337</ele><time>2026-05-02T09:22:31.654Z</time></trkpt><trkpt lat="42.2361614" lon="13.8943089"><ele>347.0</ele><time>2026-05-02T09:22:33.653Z</time></trkpt><trkpt lat="42.2362151" lon="13.8942122"><ele>346.6666666666667</ele><time>2026-05-02T09:22:36.654Z</time></trkpt><trkpt lat="42.2362511" lon="13.8941284"><ele>346.33333333333337</ele><time>2026-05-02T09:22:38.654Z</time></trkpt><trkpt lat="42.2362608" lon="13.8940401"><ele>346.0</ele><time>2026-05-02T09:22:40.654Z</time></trkpt><trkpt lat="42.2362602" lon="13.8939203"><ele>345.6666666666667</ele><time>2026-05-02T09:22:42.654Z</time></trkpt><trkpt lat="42.2362676" lon="13.8937926"><ele>345.3333333333333</ele><time>2026-05-02T09:22:44.654Z</time></trkpt><trkpt lat="42.2362669" lon="13.8936573"><ele>345.0</ele><time>2026-05-02T09:22:46.655Z</time></trkpt><trkpt lat="42.2362623" lon="13.8935118"><ele>345.2</ele><time>2026-05-02T09:22:48.655Z</time></trkpt><trkpt lat="42.2362615" lon="13.8933439"><ele>345.4</ele><time>2026-05-02T09:22:50.654Z</time></trkpt><trkpt lat="42.2362604" lon="13.8932435"><ele>345.6</ele><time>2026-05-02T09:22:51.654Z</time></trkpt><trkpt lat="42.2362558" lon="13.8931181"><ele>345.8</ele><time>2026-05-02T09:22:52.655Z</time></trkpt><trkpt lat="42.2362526" lon="13.8929722"><ele>346.0</ele><time>2026-05-02T09:22:53.654Z</time></trkpt><trkpt lat="42.2362505" lon="13.8928161"><ele>346.0</ele><time>2026-05-02T09:22:54.654Z</time></trkpt><trkpt lat="42.2362487" lon="13.8926556"><ele>346.0</ele><time>2026-05-02T09:22:55.655Z</time></trkpt><trkpt lat="42.2362362" lon="13.8925046"><ele>346.0</ele><time>2026-05-02T09:22:56.654Z</time></trkpt><trkpt lat="42.2362164" lon="13.8923836"><ele>346.0</ele><time>2026-05-02T09:22:57.654Z</time></trkpt><trkpt lat="42.2361958" lon="13.8922292"><ele>346.0</ele><time>2026-05-02T09:22:58.654Z</time></trkpt><trkpt lat="42.2361697" lon="13.8920538"><ele>348.0</ele><time>2026-05-02T09:22:59.654Z</time></trkpt><trkpt lat="42.2361249" lon="13.8918519"><ele>350.0</ele><time>2026-05-02T09:23:00.655Z</time></trkpt><trkpt lat="42.2360553" lon="13.8916311"><ele>352.0</ele><time>2026-05-02T09:23:01.655Z</time></trkpt><trkpt lat="42.2359725" lon="13.8914443"><ele>354.66666666666663</ele><time>2026-05-02T09:23:02.655Z</time></trkpt><trkpt lat="42.2358913" lon="13.8912786"><ele>357.3333333333333</ele><time>2026-05-02T09:23:03.654Z</time></trkpt><trkpt lat="42.2358198" lon="13.8910716"><ele>360.0</ele><time>2026-05-02T09:23:04.655Z</time></trkpt><trkpt lat="42.2357683" lon="13.8908262"><ele>363.3333333333333</ele><time>2026-05-02T09:23:05.654Z</time></trkpt><trkpt lat="42.2357304" lon="13.8906019"><ele>366.66666666666663</ele><time>2026-05-02T09:23:06.655Z</time></trkpt><trkpt lat="42.2356983" lon="13.8903737"><ele>370.0</ele><time>2026-05-02T09:23:07.654Z</time></trkpt><trkpt lat="42.2356625" lon="13.8901481"><ele>368.66666666666663</ele><time>2026-05-02T09:23:08.654Z</time></trkpt><trkpt lat="42.2355954" lon="13.889936"><ele>367.3333333333333</ele><time>2026-05-02T09:23:09.654Z</time></trkpt><trkpt lat="42.2355028" lon="13.8897147"><ele>366.0</ele><time>2026-05-02T09:23:10.654Z</time></trkpt><trkpt lat="42.2353955" lon="13.8894885"><ele>369.3333333333333</ele><time>2026-05-02T09:23:11.654Z</time></trkpt><trkpt lat="42.2352874" lon="13.8892511"><ele>372.66666666666663</ele><time>2026-05-02T09:23:12.655Z</time></trkpt><trkpt lat="42.2351778" lon="13.8889983"><ele>376.0</ele><time>2026-05-02T09:23:13.654Z</time></trkpt><trkpt lat="42.2350472" lon="13.8887374"><ele>376.0</ele><time>2026-05-02T09:23:14.655Z</time></trkpt><trkpt lat="42.2349027" lon="13.8884881"><ele>376.0</ele><time>2026-05-02T09:23:15.654Z</time></trkpt><trkpt lat="42.2347593" lon="13.8882482"><ele>378.0</ele><time>2026-05-02T09:23:16.654Z</time></trkpt><trkpt lat="42.2346204" lon="13.8880179"><ele>380.0</ele><time>2026-05-02T09:23:17.654Z</time></trkpt><trkpt lat="42.2344839" lon="13.8877984"><ele>382.0</ele><time>2026-05-02T09:23:18.654Z</time></trkpt><trkpt lat="42.234358" lon="13.8875912"><ele>388.3333333333333</ele><time>2026-05-02T09:23:19.654Z</time></trkpt><trkpt lat="42.2342403" lon="13.887396"><ele>394.66666666666663</ele><time>2026-05-02T09:23:20.654Z</time></trkpt><trkpt lat="42.234124" lon="13.8872055"><ele>401.0</ele><time>2026-05-02T09:23:21.653Z</time></trkpt><trkpt lat="42.2340092" lon="13.8870261"><ele>401.3333333333333</ele><time>2026-05-02T09:23:22.654Z</time></trkpt><trkpt lat="42.233889" lon="13.8868675"><ele>401.66666666666663</ele><time>2026-05-02T09:23:23.654Z</time></trkpt><trkpt lat="42.2337633" lon="13.8867394"><ele>402.0</ele><time>2026-05-02T09:23:24.654Z</time></trkpt><trkpt lat="42.2336432" lon="13.8866388"><ele>402.0</ele><time>2026-05-02T09:23:25.655Z</time></trkpt><trkpt lat="42.2335534" lon="13.8865409"><ele>402.0</ele><time>2026-05-02T09:23:26.654Z</time></trkpt><trkpt lat="42.2335102" lon="13.8864541"><ele>402.0</ele><time>2026-05-02T09:23:27.654Z</time></trkpt><trkpt lat="42.2335007" lon="13.8863614"><ele>402.0</ele><time>2026-05-02T09:23:28.655Z</time></trkpt><trkpt lat="42.2335284" lon="13.8862836"><ele>402.0</ele><time>2026-05-02T09:23:29.654Z</time></trkpt><trkpt lat="42.2335872" lon="13.8862433"><ele>402.0</ele><time>2026-05-02T09:23:30.655Z</time></trkpt><trkpt lat="42.2336679" lon="13.8862409"><ele>402.0</ele><time>2026-05-02T09:23:31.654Z</time></trkpt><trkpt lat="42.2337731" lon="13.8862911"><ele>402.0</ele><time>2026-05-02T09:23:32.654Z</time></trkpt><trkpt lat="42.2339072" lon="13.8863838"><ele>402.0</ele><time>2026-05-02T09:23:33.654Z</time></trkpt><trkpt lat="42.234067" lon="13.8865244"><ele>401.66666666666663</ele><time>2026-05-02T09:23:34.655Z</time></trkpt><trkpt lat="42.234213" lon="13.8866986"><ele>401.3333333333333</ele><time>2026-05-02T09:23:35.654Z</time></trkpt><trkpt lat="42.2343304" lon="13.8868551"><ele>401.0</ele><time>2026-05-02T09:23:36.654Z</time></trkpt><trkpt lat="42.2344236" lon="13.8869586"><ele>400.99999999999994</ele><time>2026-05-02T09:23:37.654Z</time></trkpt><trkpt lat="42.234502" lon="13.8870119"><ele>401.0</ele><time>2026-05-02T09:23:38.654Z</time></trkpt><trkpt lat="42.2345834" lon="13.8870331"><ele>401.0</ele><time>2026-05-02T09:23:39.655Z</time></trkpt><trkpt lat="42.2346475" lon="13.8870089"><ele>401.0</ele><time>2026-05-02T09:23:40.654Z</time></trkpt><trkpt lat="42.2346916" lon="13.8869451"><ele>400.99999999999994</ele><time>2026-05-02T09:23:41.654Z</time></trkpt><trkpt lat="42.2347157" lon="13.8868454"><ele>401.0</ele><time>2026-05-02T09:23:42.654Z</time></trkpt><trkpt lat="42.2347081" lon="13.8867378"><ele>405.0</ele><time>2026-05-02T09:23:43.655Z</time></trkpt><trkpt lat="42.2346614" lon="13.8866404"><ele>409.0</ele><time>2026-05-02T09:23:44.654Z</time></trkpt><trkpt lat="42.2345661" lon="13.8865329"><ele>413.0</ele><time>2026-05-02T09:23:45.654Z</time></trkpt><trkpt lat="42.2344465" lon="13.8863999"><ele>417.0</ele><time>2026-05-02T09:23:46.654Z</time></trkpt><trkpt lat="42.2343377" lon="13.886239"><ele>417.0</ele><time>2026-05-02T09:23:47.655Z</time></trkpt><trkpt lat="42.2342211" lon="13.8860289"><ele>417.0</ele><time>2026-05-02T09:23:48.655Z</time></trkpt><trkpt lat="42.2341289" lon="13.8858137"><ele>417.0</ele><time>2026-05-02T09:23:49.654Z</time></trkpt><trkpt lat="42.2340509" lon="13.8855717"><ele>420.66666666666663</ele><time>2026-05-02T09:23:50.655Z</time></trkpt><trkpt lat="42.233997" lon="13.8853077"><ele>424.3333333333333</ele><time>2026-05-02T09:23:51.654Z</time></trkpt><trkpt lat="42.2339531" lon="13.8850306"><ele>428.0</ele><time>2026-05-02T09:23:52.654Z</time></trkpt><trkpt lat="42.2339106" lon="13.8847615"><ele>428.0</ele><time>2026-05-02T09:23:53.655Z</time></trkpt><trkpt lat="42.233869" lon="13.8844975"><ele>428.0</ele><time>2026-05-02T09:23:54.654Z</time></trkpt><trkpt lat="42.2338268" lon="13.8842528"><ele>428.0</ele><time>2026-05-02T09:23:55.654Z</time></trkpt><trkpt lat="42.2337889" lon="13.8840474"><ele>432.25</ele><time>2026-05-02T09:23:56.655Z</time></trkpt><trkpt lat="42.2337533" lon="13.8838625"><ele>436.5</ele><time>2026-05-02T09:23:57.654Z</time></trkpt><trkpt lat="42.2337132" lon="13.8836681"><ele>440.75</ele><time>2026-05-02T09:23:58.654Z</time></trkpt><trkpt lat="42.2336709" lon="13.8834714"><ele>445.0</ele><time>2026-05-02T09:23:59.655Z</time></trkpt><trkpt lat="42.2336275" lon="13.8832695"><ele>450.33333333333337</ele><time>2026-05-02T09:24:00.655Z</time></trkpt><trkpt lat="42.2335879" lon="13.8830696"><ele>455.66666666666663</ele><time>2026-05-02T09:24:01.654Z</time></trkpt><trkpt lat="42.2335667" lon="13.8828596"><ele>461.0</ele><time>2026-05-02T09:24:02.654Z</time></trkpt><trkpt lat="42.2335678" lon="13.8826293"><ele>465.66666666666663</ele><time>2026-05-02T09:24:03.654Z</time></trkpt><trkpt lat="42.2335902" lon="13.8823822"><ele>470.33333333333337</ele><time>2026-05-02T09:24:04.654Z</time></trkpt><trkpt lat="42.2336177" lon="13.882127"><ele>475.0</ele><time>2026-05-02T09:24:05.655Z</time></trkpt><trkpt lat="42.2336435" lon="13.8818699"><ele>476.33333333333337</ele><time>2026-05-02T09:24:06.655Z</time></trkpt><trkpt lat="42.2336768" lon="13.881618"><ele>477.66666666666663</ele><time>2026-05-02T09:24:07.654Z</time></trkpt><trkpt lat="42.2337152" lon="13.8813804"><ele>479.0</ele><time>2026-05-02T09:24:08.654Z</time></trkpt><trkpt lat="42.2337605" lon="13.8811593"><ele>479.0</ele><time>2026-05-02T09:24:09.655Z</time></trkpt><trkpt lat="42.2338003" lon="13.8809422"><ele>479.0</ele><time>2026-05-02T09:24:10.655Z</time></trkpt><trkpt lat="42.2338278" lon="13.8807241"><ele>479.0</ele><time>2026-05-02T09:24:11.655Z</time></trkpt><trkpt lat="42.2338355" lon="13.8804948"><ele>478.66666666666663</ele><time>2026-05-02T09:24:12.654Z</time></trkpt><trkpt lat="42.2338149" lon="13.8802513"><ele>478.33333333333337</ele><time>2026-05-02T09:24:13.655Z</time></trkpt><trkpt lat="42.2337753" lon="13.8800236"><ele>478.0</ele><time>2026-05-02T09:24:14.654Z</time></trkpt><trkpt lat="42.2337394" lon="13.8798062"><ele>477.33333333333337</ele><time>2026-05-02T09:24:15.654Z</time></trkpt><trkpt lat="42.2337183" lon="13.8795822"><ele>476.66666666666663</ele><time>2026-05-02T09:24:16.654Z</time></trkpt><trkpt lat="42.2337216" lon="13.8793641"><ele>476.0</ele><time>2026-05-02T09:24:17.654Z</time></trkpt><trkpt lat="42.2337559" lon="13.8791498"><ele>475.66666666666663</ele><time>2026-05-02T09:24:18.654Z</time></trkpt><trkpt lat="42.2338046" lon="13.8789387"><ele>475.33333333333337</ele><time>2026-05-02T09:24:19.654Z</time></trkpt><trkpt lat="42.2338553" lon="13.8787266"><ele>475.0</ele><time>2026-05-02T09:24:20.654Z</time></trkpt><trkpt lat="42.2339032" lon="13.878512"><ele>474.6666666666667</ele><time>2026-05-02T09:24:21.655Z</time></trkpt><trkpt lat="42.2339463" lon="13.8782892"><ele>474.33333333333337</ele><time>2026-05-02T09:24:22.652Z</time></trkpt><trkpt lat="42.2339886" lon="13.8780642"><ele>474.0</ele><time>2026-05-02T09:24:23.652Z</time></trkpt><trkpt lat="42.2340267" lon="13.8778309"><ele>470.66666666666663</ele><time>2026-05-02T09:24:24.654Z</time></trkpt><trkpt lat="42.2340615" lon="13.8775946"><ele>467.3333333333333</ele><time>2026-05-02T09:24:25.654Z</time></trkpt><trkpt lat="42.2340944" lon="13.8773563"><ele>464.0</ele><time>2026-05-02T09:24:26.654Z</time></trkpt><trkpt lat="42.2341176" lon="13.8771176"><ele>464.0</ele><time>2026-05-02T09:24:27.654Z</time></trkpt><trkpt lat="42.234134" lon="13.8768964"><ele>464.0</ele><time>2026-05-02T09:24:28.654Z</time></trkpt><trkpt lat="42.2341563" lon="13.8766924"><ele>464.0</ele><time>2026-05-02T09:24:29.654Z</time></trkpt><trkpt lat="42.2341932" lon="13.8765063"><ele>464.5</ele><time>2026-05-02T09:24:30.654Z</time></trkpt><trkpt lat="42.2342468" lon="13.8763383"><ele>465.0</ele><time>2026-05-02T09:24:31.654Z</time></trkpt><trkpt lat="42.2343157" lon="13.8761758"><ele>465.5</ele><time>2026-05-02T09:24:32.654Z</time></trkpt><trkpt lat="42.234394" lon="13.8760158"><ele>466.0</ele><time>2026-05-02T09:24:33.654Z</time></trkpt><trkpt lat="42.234481" lon="13.8758554"><ele>463.33333333333337</ele><time>2026-05-02T09:24:34.654Z</time></trkpt><trkpt lat="42.2345813" lon="13.8756984"><ele>460.66666666666663</ele><time>2026-05-02T09:24:35.655Z</time></trkpt><trkpt lat="42.234696" lon="13.875531"><ele>458.0</ele><time>2026-05-02T09:24:36.654Z</time></trkpt><trkpt lat="42.2348297" lon="13.8753608"><ele>458.0</ele><time>2026-05-02T09:24:37.653Z</time></trkpt><trkpt lat="42.2349728" lon="13.8752"><ele>458.0</ele><time>2026-05-02T09:24:38.655Z</time></trkpt><trkpt lat="42.2351199" lon="13.8750531"><ele>458.0</ele><time>2026-05-02T09:24:39.655Z</time></trkpt><trkpt lat="42.235263" lon="13.8749258"><ele>461.0</ele><time>2026-05-02T09:24:40.654Z</time></trkpt><trkpt lat="42.2354007" lon="13.8748054"><ele>464.0</ele><time>2026-05-02T09:24:41.654Z</time></trkpt><trkpt lat="42.2355254" lon="13.8746786"><ele>467.0</ele><time>2026-05-02T09:24:42.654Z</time></trkpt><trkpt lat="42.235624" lon="13.8745569"><ele>465.20000000000005</ele><time>2026-05-02T09:24:43.655Z</time></trkpt><trkpt lat="42.2356891" lon="13.8744515"><ele>463.40000000000003</ele><time>2026-05-02T09:24:44.655Z</time></trkpt><trkpt lat="42.235719" lon="13.874347"><ele>461.59999999999997</ele><time>2026-05-02T09:24:45.653Z</time></trkpt><trkpt lat="42.2357063" lon="13.8742396"><ele>459.79999999999995</ele><time>2026-05-02T09:24:46.654Z</time></trkpt><trkpt lat="42.2356565" lon="13.8741224"><ele>458.0</ele><time>2026-05-02T09:24:47.653Z</time></trkpt><trkpt lat="42.2355707" lon="13.8740109"><ele>462.79999999999995</ele><time>2026-05-02T09:24:48.655Z</time></trkpt><trkpt lat="42.2354809" lon="13.8739202"><ele>467.59999999999997</ele><time>2026-05-02T09:24:49.654Z</time></trkpt><trkpt lat="42.2354107" lon="13.8738095"><ele>472.40000000000003</ele><time>2026-05-02T09:24:50.654Z</time></trkpt><trkpt lat="42.2353778" lon="13.8736894"><ele>477.20000000000005</ele><time>2026-05-02T09:24:51.653Z</time></trkpt><trkpt lat="42.2353793" lon="13.8735797"><ele>482.0</ele><time>2026-05-02T09:24:52.655Z</time></trkpt><trkpt lat="42.2354256" lon="13.8734632"><ele>480.75</ele><time>2026-05-02T09:24:53.654Z</time></trkpt><trkpt lat="42.2354974" lon="13.873335"><ele>479.5</ele><time>2026-05-02T09:24:54.654Z</time></trkpt><trkpt lat="42.2355812" lon="13.8732463"><ele>478.25</ele><time>2026-05-02T09:24:55.652Z</time></trkpt><trkpt lat="42.2356817" lon="13.8732079"><ele>477.0</ele><time>2026-05-02T09:24:56.653Z</time></trkpt><trkpt lat="42.2358198" lon="13.8732028"><ele>471.66666666666663</ele><time>2026-05-02T09:24:57.654Z</time></trkpt><trkpt lat="42.2359751" lon="13.8732288"><ele>466.3333333333333</ele><time>2026-05-02T09:24:58.654Z</time></trkpt><trkpt lat="42.236134" lon="13.8732761"><ele>461.0</ele><time>2026-05-02T09:24:59.654Z</time></trkpt><trkpt lat="42.2362963" lon="13.8733302"><ele>461.0</ele><time>2026-05-02T09:25:00.654Z</time></trkpt><trkpt lat="42.2364618" lon="13.8733716"><ele>461.0</ele><time>2026-05-02T09:25:01.654Z</time></trkpt><trkpt lat="42.2366314" lon="13.8733874"><ele>461.0</ele><time>2026-05-02T09:25:02.654Z</time></trkpt><trkpt lat="42.2367928" lon="13.8733787"><ele>461.3333333333333</ele><time>2026-05-02T09:25:03.653Z</time></trkpt><trkpt lat="42.2369486" lon="13.873344"><ele>461.66666666666663</ele><time>2026-05-02T09:25:04.654Z</time></trkpt><trkpt lat="42.2370969" lon="13.8732846"><ele>462.0</ele><time>2026-05-02T09:25:05.654Z</time></trkpt><trkpt lat="42.2372375" lon="13.8732058"><ele>460.33333333333337</ele><time>2026-05-02T09:25:06.654Z</time></trkpt><trkpt lat="42.237373" lon="13.8731128"><ele>458.6666666666667</ele><time>2026-05-02T09:25:07.654Z</time></trkpt><trkpt lat="42.2375035" lon="13.8730122"><ele>457.0</ele><time>2026-05-02T09:25:08.654Z</time></trkpt><trkpt lat="42.2376255" lon="13.8728991"><ele>457.0</ele><time>2026-05-02T09:25:09.655Z</time></trkpt><trkpt lat="42.2377255" lon="13.8727682"><ele>457.0</ele><time>2026-05-02T09:25:10.653Z</time></trkpt><trkpt lat="42.2378048" lon="13.8726122"><ele>457.0</ele><time>2026-05-02T09:25:11.654Z</time></trkpt><trkpt lat="42.2378632" lon="13.8724398"><ele>457.0</ele><time>2026-05-02T09:25:12.654Z</time></trkpt><trkpt lat="42.2379123" lon="13.8722637"><ele>461.0</ele><time>2026-05-02T09:25:13.654Z</time></trkpt><trkpt lat="42.2379685" lon="13.8720926"><ele>465.0</ele><time>2026-05-02T09:25:14.655Z</time></trkpt><trkpt lat="42.2380285" lon="13.8719262"><ele>469.0</ele><time>2026-05-02T09:25:15.655Z</time></trkpt><trkpt lat="42.2380919" lon="13.8717627"><ele>473.0</ele><time>2026-05-02T09:25:16.654Z</time></trkpt><trkpt lat="42.2381588" lon="13.8716037"><ele>473.25</ele><time>2026-05-02T09:25:17.654Z</time></trkpt><trkpt lat="42.2382335" lon="13.8714513"><ele>473.5</ele><time>2026-05-02T09:25:18.654Z</time></trkpt><trkpt lat="42.2383195" lon="13.8713108"><ele>473.75</ele><time>2026-05-02T09:25:19.654Z</time></trkpt><trkpt lat="42.2384103" lon="13.8711758"><ele>474.0</ele><time>2026-05-02T09:25:20.654Z</time></trkpt><trkpt lat="42.2384963" lon="13.8710492"><ele>474.0</ele><time>2026-05-02T09:25:21.654Z</time></trkpt><trkpt lat="42.2385699" lon="13.8709413"><ele>474.0</ele><time>2026-05-02T09:25:22.652Z</time></trkpt><trkpt lat="42.2386327" lon="13.8708411"><ele>474.0</ele><time>2026-05-02T09:25:23.653Z</time></trkpt><trkpt lat="42.2386877" lon="13.870755"><ele>474.0</ele><time>2026-05-02T09:25:24.654Z</time></trkpt><trkpt lat="42.2387071" lon="13.8706314"><ele>474.0</ele><time>2026-05-02T09:25:26.654Z</time></trkpt><trkpt lat="42.2386279" lon="13.8705965"><ele>477.2</ele><time>2026-05-02T09:25:28.655Z</time></trkpt><trkpt lat="42.2385582" lon="13.8706102"><ele>480.4</ele><time>2026-05-02T09:25:29.654Z</time></trkpt><trkpt lat="42.2384738" lon="13.8706291"><ele>483.6</ele><time>2026-05-02T09:25:30.652Z</time></trkpt><trkpt lat="42.2383816" lon="13.8706509"><ele>486.8</ele><time>2026-05-02T09:25:31.655Z</time></trkpt><trkpt lat="42.2382782" lon="13.8706732"><ele>490.0</ele><time>2026-05-02T09:25:32.654Z</time></trkpt><trkpt lat="42.2381682" lon="13.8706921"><ele>489.2</ele><time>2026-05-02T09:25:33.653Z</time></trkpt><trkpt lat="42.2380593" lon="13.8707148"><ele>488.4</ele><time>2026-05-02T09:25:34.654Z</time></trkpt><trkpt lat="42.237965" lon="13.8707562"><ele>487.6</ele><time>2026-05-02T09:25:35.655Z</time></trkpt><trkpt lat="42.2378768" lon="13.8708224"><ele>486.8</ele><time>2026-05-02T09:25:36.653Z</time></trkpt><trkpt lat="42.2377948" lon="13.8708939"><ele>486.0</ele><time>2026-05-02T09:25:37.653Z</time></trkpt><trkpt lat="42.2377121" lon="13.8709477"><ele>486.0</ele><time>2026-05-02T09:25:38.654Z</time></trkpt><trkpt lat="42.2376335" lon="13.8709761"><ele>486.0</ele><time>2026-05-02T09:25:39.654Z</time></trkpt><trkpt lat="42.2375343" lon="13.8709401"><ele>486.0</ele><time>2026-05-02T09:25:41.654Z</time></trkpt><trkpt lat="42.2375325" lon="13.8708197"><ele>486.0</ele><time>2026-05-02T09:25:43.654Z</time></trkpt><trkpt lat="42.2375806" lon="13.8707227"><ele>486.0</ele><time>2026-05-02T09:25:44.654Z</time></trkpt><trkpt lat="42.2376582" lon="13.8706042"><ele>489.5</ele><time>2026-05-02T09:25:45.654Z</time></trkpt><trkpt lat="42.2377556" lon="13.8704616"><ele>493.0</ele><time>2026-05-02T09:25:46.654Z</time></trkpt><trkpt lat="42.2378682" lon="13.870295"><ele>496.5</ele><time>2026-05-02T09:25:47.654Z</time></trkpt><trkpt lat="42.2379533" lon="13.8701551"><ele>500.0</ele><time>2026-05-02T09:25:48.654Z</time></trkpt><trkpt lat="42.2380029" lon="13.8700483"><ele>503.0</ele><time>2026-05-02T09:25:49.654Z</time></trkpt><trkpt lat="42.2380207" lon="13.8699639"><ele>506.0</ele><time>2026-05-02T09:25:50.653Z</time></trkpt><trkpt lat="42.2379727" lon="13.8698215"><ele>509.0</ele><time>2026-05-02T09:25:52.654Z</time></trkpt><trkpt lat="42.2379044" lon="13.8697632"><ele>512.0</ele><time>2026-05-02T09:25:53.654Z</time></trkpt><trkpt lat="42.2377966" lon="13.8697091"><ele>515.0</ele><time>2026-05-02T09:25:54.653Z</time></trkpt><trkpt lat="42.2376617" lon="13.8696539"><ele>515.0</ele><time>2026-05-02T09:25:55.654Z</time></trkpt><trkpt lat="42.2375148" lon="13.8695796"><ele>515.0</ele><time>2026-05-02T09:25:56.652Z</time></trkpt><trkpt lat="42.2373506" lon="13.8694752"><ele>515.0</ele><time>2026-05-02T09:25:57.652Z</time></trkpt><trkpt lat="42.2372058" lon="13.8693869"><ele>514.75</ele><time>2026-05-02T09:25:58.654Z</time></trkpt><trkpt lat="42.237074" lon="13.8693206"><ele>514.5</ele><time>2026-05-02T09:25:59.655Z</time></trkpt><trkpt lat="42.236962" lon="13.8692599"><ele>514.25</ele><time>2026-05-02T09:26:00.654Z</time></trkpt><trkpt lat="42.236864" lon="13.8692072"><ele>514.0</ele><time>2026-05-02T09:26:01.654Z</time></trkpt><trkpt lat="42.2367676" lon="13.8691493"><ele>516.8</ele><time>2026-05-02T09:26:02.653Z</time></trkpt><trkpt lat="42.2366802" lon="13.8690835"><ele>519.5999999999999</ele><time>2026-05-02T09:26:03.652Z</time></trkpt><trkpt lat="42.2365922" lon="13.8690076"><ele>522.4</ele><time>2026-05-02T09:26:04.654Z</time></trkpt><trkpt lat="42.2365072" lon="13.8689303"><ele>525.1999999999999</ele><time>2026-05-02T09:26:05.655Z</time></trkpt><trkpt lat="42.2364252" lon="13.8688614"><ele>528.0</ele><time>2026-05-02T09:26:06.654Z</time></trkpt><trkpt lat="42.236348" lon="13.8688026"><ele>528.0</ele><time>2026-05-02T09:26:07.655Z</time></trkpt><trkpt lat="42.2362852" lon="13.8687433"><ele>528.0</ele><time>2026-05-02T09:26:08.654Z</time></trkpt><trkpt lat="42.236241" lon="13.8686817"><ele>528.0</ele><time>2026-05-02T09:26:09.655Z</time></trkpt><trkpt lat="42.2362373" lon="13.8685387"><ele>528.0</ele><time>2026-05-02T09:26:11.655Z</time></trkpt><trkpt lat="42.2363597" lon="13.8684291"><ele>528.0</ele><time>2026-05-02T09:26:13.653Z</time></trkpt><trkpt lat="42.2364759" lon="13.8683766"><ele>533.5</ele><time>2026-05-02T09:26:14.653Z</time></trkpt><trkpt lat="42.2366137" lon="13.8683005"><ele>539.0</ele><time>2026-05-02T09:26:15.654Z</time></trkpt><trkpt lat="42.236748" lon="13.8682262"><ele>544.5</ele><time>2026-05-02T09:26:16.653Z</time></trkpt><trkpt lat="42.2368652" lon="13.8681665"><ele>550.0</ele><time>2026-05-02T09:26:17.654Z</time></trkpt><trkpt lat="42.2369626" lon="13.8681205"><ele>550.0</ele><time>2026-05-02T09:26:18.655Z</time></trkpt><trkpt lat="42.2370346" lon="13.8680815"><ele>550.0</ele><time>2026-05-02T09:26:19.654Z</time></trkpt><trkpt lat="42.2370734" lon="13.8679721"><ele>550.0</ele><time>2026-05-02T09:26:21.654Z</time></trkpt><trkpt lat="42.2369815" lon="13.8678477"><ele>550.0</ele><time>2026-05-02T09:26:23.654Z</time></trkpt><trkpt lat="42.2368802" lon="13.8677964"><ele>550.0</ele><time>2026-05-02T09:26:24.655Z</time></trkpt><trkpt lat="42.2367657" lon="13.867724"><ele>550.0</ele><time>2026-05-02T09:26:25.655Z</time></trkpt><trkpt lat="42.236645" lon="13.8676301"><ele>550.0</ele><time>2026-05-02T09:26:26.655Z</time></trkpt><trkpt lat="42.2365404" lon="13.867519"><ele>550.0</ele><time>2026-05-02T09:26:27.654Z</time></trkpt><trkpt lat="42.2364527" lon="13.8673835"><ele>550.0</ele><time>2026-05-02T09:26:28.654Z</time></trkpt><trkpt lat="42.2363738" lon="13.8672176"><ele>551.75</ele><time>2026-05-02T09:26:29.654Z</time></trkpt><trkpt lat="42.2363155" lon="13.8670706"><ele>553.5</ele><time>2026-05-02T09:26:30.654Z</time></trkpt><trkpt lat="42.2362494" lon="13.8669459"><ele>555.25</ele><time>2026-05-02T09:26:31.654Z</time></trkpt><trkpt lat="42.2361731" lon="13.8668484"><ele>557.0</ele><time>2026-05-02T09:26:32.654Z</time></trkpt><trkpt lat="42.2360768" lon="13.8667801"><ele>557.0</ele><time>2026-05-02T09:26:33.654Z</time></trkpt><trkpt lat="42.2359668" lon="13.8667624"><ele>557.0</ele><time>2026-05-02T09:26:34.655Z</time></trkpt><trkpt lat="42.235845" lon="13.8667667"><ele>557.0</ele><time>2026-05-02T09:26:35.652Z</time></trkpt><trkpt lat="42.2357022" lon="13.8668328"><ele>557.0</ele><time>2026-05-02T09:26:36.653Z</time></trkpt><trkpt lat="42.2355884" lon="13.8668647"><ele>556.1666666666666</ele><time>2026-05-02T09:26:37.655Z</time></trkpt><trkpt lat="42.2354955" lon="13.8668622"><ele>555.3333333333333</ele><time>2026-05-02T09:26:38.653Z</time></trkpt><trkpt lat="42.2354248" lon="13.8668094"><ele>554.5</ele><time>2026-05-02T09:26:40.654Z</time></trkpt><trkpt lat="42.235449" lon="13.8666941"><ele>553.6666666666666</ele><time>2026-05-02T09:26:42.655Z</time></trkpt><trkpt lat="42.2355189" lon="13.8666409"><ele>552.8333333333334</ele><time>2026-05-02T09:26:43.654Z</time></trkpt><trkpt lat="42.2355971" lon="13.8665924"><ele>552.0</ele><time>2026-05-02T09:26:44.654Z</time></trkpt><trkpt lat="42.2356658" lon="13.8665388"><ele>556.3333333333334</ele><time>2026-05-02T09:26:45.654Z</time></trkpt><trkpt lat="42.2357396" lon="13.8664838"><ele>560.6666666666666</ele><time>2026-05-02T09:26:46.651Z</time></trkpt><trkpt lat="42.2358151" lon="13.8664255"><ele>565.0</ele><time>2026-05-02T09:26:47.654Z</time></trkpt><trkpt lat="42.2358927" lon="13.866365"><ele>569.3333333333333</ele><time>2026-05-02T09:26:48.654Z</time></trkpt><trkpt lat="42.2359714" lon="13.8663069"><ele>573.6666666666666</ele><time>2026-05-02T09:26:49.654Z</time></trkpt><trkpt lat="42.2360402" lon="13.8662484"><ele>578.0</ele><time>2026-05-02T09:26:50.654Z</time></trkpt><trkpt lat="42.2360982" lon="13.8661952"><ele>578.0</ele><time>2026-05-02T09:26:51.654Z</time></trkpt><trkpt lat="42.2361724" lon="13.8660691"><ele>578.0</ele><time>2026-05-02T09:26:53.655Z</time></trkpt><trkpt lat="42.2361985" lon="13.8659915"><ele>578.0</ele><time>2026-05-02T09:26:54.654Z</time></trkpt><trkpt lat="42.236244" lon="13.8658496"><ele>578.0</ele><time>2026-05-02T09:26:56.654Z</time></trkpt><trkpt lat="42.2362981" lon="13.8657898"><ele>578.0</ele><time>2026-05-02T09:26:58.654Z</time></trkpt><trkpt lat="42.2363664" lon="13.8658258"><ele>578.0</ele><time>2026-05-02T09:27:00.654Z</time></trkpt><trkpt lat="42.2364501" lon="13.8659495"><ele>580.1666666666666</ele><time>2026-05-02T09:27:02.655Z</time></trkpt><trkpt lat="42.2365217" lon="13.8660039"><ele>582.3333333333333</ele><time>2026-05-02T09:27:03.654Z</time></trkpt><trkpt lat="42.2365962" lon="13.8660383"><ele>584.5</ele><time>2026-05-02T09:27:04.655Z</time></trkpt><trkpt lat="42.2366717" lon="13.8660483"><ele>586.6666666666666</ele><time>2026-05-02T09:27:05.654Z</time></trkpt><trkpt lat="42.2367496" lon="13.866041"><ele>588.8333333333334</ele><time>2026-05-02T09:27:06.654Z</time></trkpt><trkpt lat="42.2368217" lon="13.8660268"><ele>591.0</ele><time>2026-05-02T09:27:07.654Z</time></trkpt><trkpt lat="42.2368867" lon="13.8660168"><ele>591.0</ele><time>2026-05-02T09:27:08.654Z</time></trkpt><trkpt lat="42.2369494" lon="13.8660287"><ele>591.0</ele><time>2026-05-02T09:27:09.654Z</time></trkpt><trkpt lat="42.2370615" lon="13.8660957"><ele>591.0</ele><time>2026-05-02T09:27:11.654Z</time></trkpt><trkpt lat="42.2371312" lon="13.8661579"><ele>591.0</ele><time>2026-05-02T09:27:12.655Z</time></trkpt><trkpt lat="42.2372082" lon="13.8662224"><ele>591.0</ele><time>2026-05-02T09:27:13.654Z</time></trkpt><trkpt lat="42.2372964" lon="13.8662886"><ele>592.8333333333334</ele><time>2026-05-02T09:27:14.654Z</time></trkpt><trkpt lat="42.2373823" lon="13.8663531"><ele>594.6666666666666</ele><time>2026-05-02T09:27:15.654Z</time></trkpt><trkpt lat="42.2374552" lon="13.8664035"><ele>596.5</ele><time>2026-05-02T09:27:16.654Z</time></trkpt><trkpt lat="42.2375234" lon="13.8664396"><ele>598.3333333333333</ele><time>2026-05-02T09:27:17.654Z</time></trkpt><trkpt lat="42.2375992" lon="13.8664556"><ele>600.1666666666666</ele><time>2026-05-02T09:27:18.655Z</time></trkpt><trkpt lat="42.2376702" lon="13.8664439"><ele>602.0</ele><time>2026-05-02T09:27:19.653Z</time></trkpt><trkpt lat="42.2377403" lon="13.8664151"><ele>602.0</ele><time>2026-05-02T09:27:20.655Z</time></trkpt><trkpt lat="42.237808" lon="13.8663723"><ele>602.0</ele><time>2026-05-02T09:27:21.655Z</time></trkpt><trkpt lat="42.2378709" lon="13.8663143"><ele>602.0</ele><time>2026-05-02T09:27:22.654Z</time></trkpt><trkpt lat="42.2379304" lon="13.8662448"><ele>602.0</ele><time>2026-05-02T09:27:23.654Z</time></trkpt><trkpt lat="42.2379816" lon="13.8661692"><ele>602.0</ele><time>2026-05-02T09:27:24.654Z</time></trkpt><trkpt lat="42.2380233" lon="13.8660845"><ele>602.0</ele><time>2026-05-02T09:27:25.655Z</time></trkpt><trkpt lat="42.2380527" lon="13.8659928"><ele>605.0</ele><time>2026-05-02T09:27:26.652Z</time></trkpt><trkpt lat="42.2380664" lon="13.8658961"><ele>608.0</ele><time>2026-05-02T09:27:27.653Z</time></trkpt><trkpt lat="42.2380671" lon="13.8657878"><ele>611.0</ele><time>2026-05-02T09:27:28.654Z</time></trkpt><trkpt lat="42.2380608" lon="13.8656756"><ele>614.0</ele><time>2026-05-02T09:27:29.654Z</time></trkpt><trkpt lat="42.2380497" lon="13.8655676"><ele>617.0</ele><time>2026-05-02T09:27:30.655Z</time></trkpt><trkpt lat="42.238032" lon="13.865468"><ele>620.0</ele><time>2026-05-02T09:27:31.654Z</time></trkpt><trkpt lat="42.2380074" lon="13.8653798"><ele>620.0</ele><time>2026-05-02T09:27:32.654Z</time></trkpt><trkpt lat="42.2379929" lon="13.8652934"><ele>620.0</ele><time>2026-05-02T09:27:33.654Z</time></trkpt><trkpt lat="42.2379812" lon="13.8651922"><ele>620.0</ele><time>2026-05-02T09:27:34.654Z</time></trkpt><trkpt lat="42.2379769" lon="13.8650934"><ele>620.0</ele><time>2026-05-02T09:27:35.653Z</time></trkpt><trkpt lat="42.2379714" lon="13.865002"><ele>620.0</ele><time>2026-05-02T09:27:36.655Z</time></trkpt><trkpt lat="42.2379588" lon="13.8648252"><ele>620.0</ele><time>2026-05-02T09:27:38.653Z</time></trkpt><trkpt lat="42.2379449" lon="13.8647162"><ele>623.4</ele><time>2026-05-02T09:27:39.654Z</time></trkpt><trkpt lat="42.2379381" lon="13.8645812"><ele>626.8</ele><time>2026-05-02T09:27:40.654Z</time></trkpt><trkpt lat="42.2379349" lon="13.8644817"><ele>630.2</ele><time>2026-05-02T09:27:41.654Z</time></trkpt><trkpt lat="42.2379252" lon="13.864358"><ele>633.6</ele><time>2026-05-02T09:27:43.655Z</time></trkpt><trkpt lat="42.2378792" lon="13.8642637"><ele>637.0</ele><time>2026-05-02T09:27:45.655Z</time></trkpt><trkpt lat="42.2377837" lon="13.8641753"><ele>639.1428571428571</ele><time>2026-05-02T09:27:47.654Z</time></trkpt><trkpt lat="42.2377232" lon="13.8641257"><ele>641.2857142857142</ele><time>2026-05-02T09:27:48.654Z</time></trkpt><trkpt lat="42.2376646" lon="13.8640741"><ele>643.4285714285714</ele><time>2026-05-02T09:27:49.654Z</time></trkpt><trkpt lat="42.2376165" lon="13.8640175"><ele>645.5714285714286</ele><time>2026-05-02T09:27:50.654Z</time></trkpt><trkpt lat="42.2375776" lon="13.8639494"><ele>647.7142857142857</ele><time>2026-05-02T09:27:51.654Z</time></trkpt><trkpt lat="42.2375408" lon="13.8638731"><ele>649.8571428571429</ele><time>2026-05-02T09:27:52.655Z</time></trkpt><trkpt lat="42.237504" lon="13.8637952"><ele>652.0</ele><time>2026-05-02T09:27:53.653Z</time></trkpt><trkpt lat="42.2374738" lon="13.8637186"><ele>652.0</ele><time>2026-05-02T09:27:54.653Z</time></trkpt><trkpt lat="42.2374413" lon="13.8635648"><ele>652.0</ele><time>2026-05-02T09:27:56.653Z</time></trkpt><trkpt lat="42.2374389" lon="13.8634177"><ele>652.0</ele><time>2026-05-02T09:27:58.654Z</time></trkpt><trkpt lat="42.2374463" lon="13.8633313"><ele>652.0</ele><time>2026-05-02T09:27:59.654Z</time></trkpt><trkpt lat="42.2374451" lon="13.8632417"><ele>652.0</ele><time>2026-05-02T09:28:00.652Z</time></trkpt><trkpt lat="42.2374097" lon="13.8630895"><ele>655.2</ele><time>2026-05-02T09:28:02.651Z</time></trkpt><trkpt lat="42.2373792" lon="13.8630099"><ele>658.4000000000001</ele><time>2026-05-02T09:28:03.654Z</time></trkpt><trkpt lat="42.2373434" lon="13.8628685"><ele>661.5999999999999</ele><time>2026-05-02T09:28:05.654Z</time></trkpt><trkpt lat="42.2373138" lon="13.8627123"><ele>664.8</ele><time>2026-05-02T09:28:07.654Z</time></trkpt><trkpt lat="42.237291" lon="13.8625628"><ele>668.0</ele><time>2026-05-02T09:28:09.654Z</time></trkpt><trkpt lat="42.2372675" lon="13.8623991"><ele>672.2</ele><time>2026-05-02T09:28:11.653Z</time></trkpt><trkpt lat="42.23723" lon="13.8622421"><ele>676.4</ele><time>2026-05-02T09:28:13.654Z</time></trkpt><trkpt lat="42.2372007" lon="13.8620816"><ele>680.6</ele><time>2026-05-02T09:28:15.654Z</time></trkpt><trkpt lat="42.2371888" lon="13.8619938"><ele>684.8000000000001</ele><time>2026-05-02T09:28:16.652Z</time></trkpt><trkpt lat="42.237174" lon="13.8618497"><ele>689.0</ele><time>2026-05-02T09:28:18.654Z</time></trkpt><trkpt lat="42.2371292" lon="13.861704"><ele>692.3333333333333</ele><time>2026-05-02T09:28:20.654Z</time></trkpt><trkpt lat="42.2371112" lon="13.8615702"><ele>695.6666666666666</ele><time>2026-05-02T09:28:22.655Z</time></trkpt><trkpt lat="42.2371222" lon="13.8614175"><ele>699.0</ele><time>2026-05-02T09:28:24.655Z</time></trkpt><trkpt lat="42.2371206" lon="13.8613313"><ele>702.3333333333334</ele><time>2026-05-02T09:28:25.654Z</time></trkpt><trkpt lat="42.2371161" lon="13.8612358"><ele>705.6666666666667</ele><time>2026-05-02T09:28:26.655Z</time></trkpt><trkpt lat="42.2371111" lon="13.8611432"><ele>709.0</ele><time>2026-05-02T09:28:27.653Z</time></trkpt><trkpt lat="42.2371123" lon="13.8610492"><ele>709.0000000000001</ele><time>2026-05-02T09:28:28.654Z</time></trkpt><trkpt lat="42.2371063" lon="13.8609574"><ele>709.0</ele><time>2026-05-02T09:28:29.654Z</time></trkpt><trkpt lat="42.2370898" lon="13.8608683"><ele>709.0</ele><time>2026-05-02T09:28:30.655Z</time></trkpt><trkpt lat="42.2370601" lon="13.8607754"><ele>709.0</ele><time>2026-05-02T09:28:31.654Z</time></trkpt><trkpt lat="42.2370329" lon="13.8606928"><ele>709.0</ele><time>2026-05-02T09:28:32.653Z</time></trkpt><trkpt lat="42.2370193" lon="13.8605824"><ele>709.0000000000001</ele><time>2026-05-02T09:28:34.654Z</time></trkpt><trkpt lat="42.237022" lon="13.8604906"><ele>709.0</ele><time>2026-05-02T09:28:50.654Z</time></trkpt><trkpt lat="42.2370512" lon="13.8604037"><ele>712.8000000000001</ele><time>2026-05-02T09:28:53.655Z</time></trkpt><trkpt lat="42.2370804" lon="13.8602964"><ele>716.6</ele><time>2026-05-02T09:28:56.653Z</time></trkpt><trkpt lat="42.2371155" lon="13.8601886"><ele>720.4</ele><time>2026-05-02T09:28:58.654Z</time></trkpt><trkpt lat="42.2371308" lon="13.8600821"><ele>724.2</ele><time>2026-05-02T09:29:00.655Z</time></trkpt><trkpt lat="42.2371457" lon="13.8599629"><ele>728.0</ele><time>2026-05-02T09:29:02.654Z</time></trkpt><trkpt lat="42.2371688" lon="13.8598145"><ele>730.6666666666666</ele><time>2026-05-02T09:29:04.654Z</time></trkpt><trkpt lat="42.2371909" lon="13.8596452"><ele>733.3333333333333</ele><time>2026-05-02T09:29:06.653Z</time></trkpt><trkpt lat="42.2372102" lon="13.8595582"><ele>736.0</ele><time>2026-05-02T09:29:07.654Z</time></trkpt><trkpt lat="42.2372147" lon="13.859456"><ele>738.6666666666666</ele><time>2026-05-02T09:29:08.654Z</time></trkpt><trkpt lat="42.2372265" lon="13.8593578"><ele>741.3333333333334</ele><time>2026-05-02T09:29:09.654Z</time></trkpt><trkpt lat="42.2372363" lon="13.8592691"><ele>744.0</ele><time>2026-05-02T09:29:10.655Z</time></trkpt><trkpt lat="42.2372321" lon="13.8591775"><ele>746.0</ele><time>2026-05-02T09:29:11.654Z</time></trkpt><trkpt lat="42.2372253" lon="13.859089"><ele>748.0</ele><time>2026-05-02T09:29:12.653Z</time></trkpt><trkpt lat="42.2372145" lon="13.8589785"><ele>750.0</ele><time>2026-05-02T09:29:13.654Z</time></trkpt><trkpt lat="42.2372138" lon="13.8588889"><ele>752.0</ele><time>2026-05-02T09:29:14.654Z</time></trkpt><trkpt lat="42.23721" lon="13.8588009"><ele>754.0</ele><time>2026-05-02T09:29:15.654Z</time></trkpt><trkpt lat="42.2372015" lon="13.8586457"><ele>756.0</ele><time>2026-05-02T09:29:17.654Z</time></trkpt><trkpt lat="42.2371975" lon="13.8585579"><ele>756.0</ele><time>2026-05-02T09:29:18.655Z</time></trkpt><trkpt lat="42.2372021" lon="13.8584697"><ele>756.0</ele><time>2026-05-02T09:29:19.655Z</time></trkpt><trkpt lat="42.2372157" lon="13.8583766"><ele>756.0</ele><time>2026-05-02T09:29:20.655Z</time></trkpt><trkpt lat="42.2372318" lon="13.8582782"><ele>756.0</ele><time>2026-05-02T09:29:21.653Z</time></trkpt><trkpt lat="42.237251" lon="13.8581739"><ele>756.0</ele><time>2026-05-02T09:29:22.654Z</time></trkpt><trkpt lat="42.2372725" lon="13.858069"><ele>756.0</ele><time>2026-05-02T09:29:23.652Z</time></trkpt><trkpt lat="42.2372953" lon="13.8579535"><ele>760.0</ele><time>2026-05-02T09:29:24.655Z</time></trkpt><trkpt lat="42.2373146" lon="13.8578543"><ele>764.0</ele><time>2026-05-02T09:29:25.653Z</time></trkpt><trkpt lat="42.2373418" lon="13.8577511"><ele>768.0</ele><time>2026-05-02T09:29:26.654Z</time></trkpt><trkpt lat="42.2373748" lon="13.8576413"><ele>772.0</ele><time>2026-05-02T09:29:27.655Z</time></trkpt><trkpt lat="42.2374122" lon="13.8575343"><ele>776.0</ele><time>2026-05-02T09:29:28.654Z</time></trkpt><trkpt lat="42.2374564" lon="13.8574283"><ele>780.0</ele><time>2026-05-02T09:29:29.655Z</time></trkpt><trkpt lat="42.237498" lon="13.8573199"><ele>781.5</ele><time>2026-05-02T09:29:30.654Z</time></trkpt><trkpt lat="42.2375406" lon="13.857212"><ele>783.0</ele><time>2026-05-02T09:29:31.654Z</time></trkpt><trkpt lat="42.2375843" lon="13.8571294"><ele>784.5</ele><time>2026-05-02T09:29:32.653Z</time></trkpt><trkpt lat="42.2376486" lon="13.8570314"><ele>786.0</ele><time>2026-05-02T09:29:34.653Z</time></trkpt><trkpt lat="42.2375809" lon="13.8569563"><ele>787.5</ele><time>2026-05-02T09:29:47.655Z</time></trkpt><trkpt lat="42.2375376" lon="13.856836"><ele>789.0</ele><time>2026-05-02T09:29:49.654Z</time></trkpt><trkpt lat="42.2375133" lon="13.8567518"><ele>789.2857142857142</ele><time>2026-05-02T09:29:50.654Z</time></trkpt><trkpt lat="42.2375002" lon="13.8566542"><ele>789.5714285714286</ele><time>2026-05-02T09:29:51.655Z</time></trkpt><trkpt lat="42.2374872" lon="13.8565577"><ele>789.8571428571429</ele><time>2026-05-02T09:29:52.654Z</time></trkpt><trkpt lat="42.2374714" lon="13.8564618"><ele>790.1428571428571</ele><time>2026-05-02T09:29:53.654Z</time></trkpt><trkpt lat="42.2374488" lon="13.8563686"><ele>790.4285714285714</ele><time>2026-05-02T09:29:54.654Z</time></trkpt><trkpt lat="42.2374201" lon="13.8562729"><ele>790.7142857142857</ele><time>2026-05-02T09:29:55.655Z</time></trkpt><trkpt lat="42.2373976" lon="13.8561835"><ele>791.0</ele><time>2026-05-02T09:29:56.654Z</time></trkpt><trkpt lat="42.2373753" lon="13.8560539"><ele>792.5999999999999</ele><time>2026-05-02T09:29:58.655Z</time></trkpt><trkpt lat="42.2373599" lon="13.8559052"><ele>794.2</ele><time>2026-05-02T09:30:00.653Z</time></trkpt><trkpt lat="42.2373393" lon="13.8557769"><ele>795.8</ele><time>2026-05-02T09:30:02.654Z</time></trkpt><trkpt lat="42.2372967" lon="13.8556285"><ele>797.4000000000001</ele><time>2026-05-02T09:30:04.654Z</time></trkpt><trkpt lat="42.2372595" lon="13.8555274"><ele>799.0</ele><time>2026-05-02T09:30:05.655Z</time></trkpt><trkpt lat="42.2372083" lon="13.8554172"><ele>795.6666666666666</ele><time>2026-05-02T09:30:06.654Z</time></trkpt><trkpt lat="42.2371563" lon="13.8553098"><ele>792.3333333333333</ele><time>2026-05-02T09:30:07.654Z</time></trkpt><trkpt lat="42.237112" lon="13.8552153"><ele>789.0</ele><time>2026-05-02T09:30:08.655Z</time></trkpt><trkpt lat="42.2370668" lon="13.8551192"><ele>785.6666666666667</ele><time>2026-05-02T09:30:09.654Z</time></trkpt><trkpt lat="42.2370217" lon="13.8550204"><ele>782.3333333333334</ele><time>2026-05-02T09:30:10.653Z</time></trkpt><trkpt lat="42.236983" lon="13.8549172"><ele>779.0</ele><time>2026-05-02T09:30:11.654Z</time></trkpt><trkpt lat="42.2369472" lon="13.8548027"><ele>779.0000000000001</ele><time>2026-05-02T09:30:12.655Z</time></trkpt><trkpt lat="42.2369119" lon="13.8546948"><ele>779.0</ele><time>2026-05-02T09:30:13.654Z</time></trkpt><trkpt lat="42.2368793" lon="13.8546008"><ele>779.0</ele><time>2026-05-02T09:30:14.653Z</time></trkpt><trkpt lat="42.2368527" lon="13.8545139"><ele>779.0</ele><time>2026-05-02T09:30:15.653Z</time></trkpt><trkpt lat="42.2368072" lon="13.8543967"><ele>779.0000000000001</ele><time>2026-05-02T09:30:17.654Z</time></trkpt><trkpt lat="42.2367833" lon="13.8543157"><ele>779.0</ele><time>2026-05-02T09:30:19.654Z</time></trkpt><trkpt lat="42.236757" lon="13.8542095"><ele>780.8000000000001</ele><time>2026-05-02T09:30:22.655Z</time></trkpt><trkpt lat="42.2367169" lon="13.8540511"><ele>782.6</ele><time>2026-05-02T09:30:24.654Z</time></trkpt><trkpt lat="42.2366857" lon="13.8539168"><ele>784.4</ele><time>2026-05-02T09:30:26.654Z</time></trkpt><trkpt lat="42.2366617" lon="13.8538021"><ele>786.2</ele><time>2026-05-02T09:30:28.655Z</time></trkpt><trkpt lat="42.2366333" lon="13.8537214"><ele>788.0</ele><time>2026-05-02T09:30:30.655Z</time></trkpt><trkpt lat="42.2365815" lon="13.853644"><ele>788.0000000000001</ele><time>2026-05-02T09:30:33.654Z</time></trkpt><trkpt lat="42.2365194" lon="13.8536247"><ele>788.0</ele><time>2026-05-02T09:30:35.654Z</time></trkpt><trkpt lat="42.2364331" lon="13.8536543"><ele>788.0</ele><time>2026-05-02T09:30:37.654Z</time></trkpt><trkpt lat="42.2363521" lon="13.8537148"><ele>788.0</ele><time>2026-05-02T09:30:39.652Z</time></trkpt><trkpt lat="42.2362671" lon="13.8538109"><ele>788.0000000000001</ele><time>2026-05-02T09:30:41.654Z</time></trkpt><trkpt lat="42.236198" lon="13.8538795"><ele>788.0</ele><time>2026-05-02T09:30:43.652Z</time></trkpt><trkpt lat="42.2361179" lon="13.8539691"><ele>785.4</ele><time>2026-05-02T09:30:46.654Z</time></trkpt><trkpt lat="42.2360402" lon="13.8540273"><ele>782.8</ele><time>2026-05-02T09:30:48.655Z</time></trkpt><trkpt lat="42.2359727" lon="13.8540731"><ele>780.2</ele><time>2026-05-02T09:30:58.653Z</time></trkpt><trkpt lat="42.2358722" lon="13.8541056"><ele>777.6</ele><time>2026-05-02T09:31:00.654Z</time></trkpt><trkpt lat="42.235753" lon="13.8541568"><ele>775.0</ele><time>2026-05-02T09:31:02.652Z</time></trkpt><trkpt lat="42.2356516" lon="13.8542489"><ele>771.0</ele><time>2026-05-02T09:31:04.655Z</time></trkpt><trkpt lat="42.2355555" lon="13.8543595"><ele>767.0</ele><time>2026-05-02T09:31:06.653Z</time></trkpt><trkpt lat="42.2354988" lon="13.8544062"><ele>763.0</ele><time>2026-05-02T09:31:07.654Z</time></trkpt><trkpt lat="42.2354372" lon="13.8544417"><ele>759.0</ele><time>2026-05-02T09:31:08.655Z</time></trkpt><trkpt lat="42.2353412" lon="13.8545117"><ele>755.0</ele><time>2026-05-02T09:31:10.654Z</time></trkpt><trkpt lat="42.2352443" lon="13.8545622"><ele>755.0</ele><time>2026-05-02T09:31:13.655Z</time></trkpt><trkpt lat="42.2351864" lon="13.8545992"><ele>755.0</ele><time>2026-05-02T09:31:15.653Z</time></trkpt><trkpt lat="42.235124" lon="13.8546367"><ele>755.0</ele><time>2026-05-02T09:31:17.653Z</time></trkpt><trkpt lat="42.2350492" lon="13.8546277"><ele>755.0</ele><time>2026-05-02T09:31:23.653Z</time></trkpt><trkpt lat="42.2349918" lon="13.8545445"><ele>755.0</ele><time>2026-05-02T09:31:25.654Z</time></trkpt><trkpt lat="42.2349299" lon="13.854457"><ele>755.0</ele><time>2026-05-02T09:31:27.653Z</time></trkpt><trkpt lat="42.2348692" lon="13.854365"><ele>754.1666666666666</ele><time>2026-05-02T09:31:29.653Z</time></trkpt><trkpt lat="42.2348014" lon="13.8543427"><ele>753.3333333333333</ele><time>2026-05-02T09:31:31.654Z</time></trkpt><trkpt lat="42.2347771" lon="13.8544625"><ele>752.5</ele><time>2026-05-02T09:31:34.655Z</time></trkpt><trkpt lat="42.234783" lon="13.8545485"><ele>751.6666666666666</ele><time>2026-05-02T09:31:35.654Z</time></trkpt><trkpt lat="42.2347936" lon="13.8546577"><ele>750.8333333333334</ele><time>2026-05-02T09:31:36.654Z</time></trkpt><trkpt lat="42.2347974" lon="13.8547837"><ele>750.0</ele><time>2026-05-02T09:31:37.653Z</time></trkpt><trkpt lat="42.234795" lon="13.8549251"><ele>750.0</ele><time>2026-05-02T09:31:38.652Z</time></trkpt><trkpt lat="42.2347915" lon="13.8550732"><ele>750.0</ele><time>2026-05-02T09:31:39.654Z</time></trkpt><trkpt lat="42.2347876" lon="13.8552241"><ele>750.0</ele><time>2026-05-02T09:31:40.655Z</time></trkpt><trkpt lat="42.2347858" lon="13.8553586"><ele>750.0</ele><time>2026-05-02T09:31:41.654Z</time></trkpt><trkpt lat="42.2347889" lon="13.8554739"><ele>750.0</ele><time>2026-05-02T09:31:42.654Z</time></trkpt><trkpt lat="42.2347996" lon="13.8555739"><ele>749.1666666666666</ele><time>2026-05-02T09:31:43.654Z</time></trkpt><trkpt lat="42.2348233" lon="13.8556748"><ele>748.3333333333334</ele><time>2026-05-02T09:31:44.654Z</time></trkpt><trkpt lat="42.2348634" lon="13.8557718"><ele>747.5</ele><time>2026-05-02T09:31:45.654Z</time></trkpt><trkpt lat="42.2349173" lon="13.8558583"><ele>746.6666666666667</ele><time>2026-05-02T09:31:46.655Z</time></trkpt><trkpt lat="42.2349818" lon="13.8559332"><ele>745.8333333333334</ele><time>2026-05-02T09:31:47.654Z</time></trkpt><trkpt lat="42.2350513" lon="13.8560055"><ele>745.0</ele><time>2026-05-02T09:31:48.654Z</time></trkpt><trkpt lat="42.2351258" lon="13.8560936"><ele>741.75</ele><time>2026-05-02T09:31:49.654Z</time></trkpt><trkpt lat="42.2352034" lon="13.8562079"><ele>738.5</ele><time>2026-05-02T09:31:50.654Z</time></trkpt><trkpt lat="42.2352725" lon="13.856333"><ele>735.25</ele><time>2026-05-02T09:31:51.654Z</time></trkpt><trkpt lat="42.23533" lon="13.8564627"><ele>732.0</ele><time>2026-05-02T09:31:52.654Z</time></trkpt><trkpt lat="42.2353743" lon="13.8565962"><ele>732.0</ele><time>2026-05-02T09:31:53.654Z</time></trkpt><trkpt lat="42.2353975" lon="13.8567277"><ele>732.0</ele><time>2026-05-02T09:31:54.655Z</time></trkpt><trkpt lat="42.2354023" lon="13.8568662"><ele>732.0</ele><time>2026-05-02T09:31:55.654Z</time></trkpt><trkpt lat="42.2354005" lon="13.8570202"><ele>732.0</ele><time>2026-05-02T09:31:56.653Z</time></trkpt><trkpt lat="42.2354068" lon="13.8571755"><ele>732.0</ele><time>2026-05-02T09:31:57.654Z</time></trkpt><trkpt lat="42.2354217" lon="13.8573227"><ele>730.4000000000001</ele><time>2026-05-02T09:31:58.655Z</time></trkpt><trkpt lat="42.2354325" lon="13.8574455"><ele>728.8000000000001</ele><time>2026-05-02T09:31:59.655Z</time></trkpt><trkpt lat="42.2354299" lon="13.8575716"><ele>727.2</ele><time>2026-05-02T09:32:00.654Z</time></trkpt><trkpt lat="42.2354121" lon="13.8577026"><ele>725.6</ele><time>2026-05-02T09:32:01.654Z</time></trkpt><trkpt lat="42.2353813" lon="13.8578286"><ele>724.0</ele><time>2026-05-02T09:32:02.653Z</time></trkpt><trkpt lat="42.2353412" lon="13.8579397"><ele>724.0</ele><time>2026-05-02T09:32:03.655Z</time></trkpt><trkpt lat="42.2352934" lon="13.8580165"><ele>724.0</ele><time>2026-05-02T09:32:04.654Z</time></trkpt><trkpt lat="42.2352306" lon="13.8580733"><ele>724.0</ele><time>2026-05-02T09:32:05.654Z</time></trkpt><trkpt lat="42.2351489" lon="13.8581135"><ele>724.0</ele><time>2026-05-02T09:32:06.655Z</time></trkpt><trkpt lat="42.2350585" lon="13.8581454"><ele>724.0</ele><time>2026-05-02T09:32:07.654Z</time></trkpt><trkpt lat="42.2349817" lon="13.8581933"><ele>724.0</ele><time>2026-05-02T09:32:08.654Z</time></trkpt><trkpt lat="42.2349212" lon="13.8582742"><ele>724.0</ele><time>2026-05-02T09:32:09.653Z</time></trkpt><trkpt lat="42.2348683" lon="13.858385"><ele>724.0</ele><time>2026-05-02T09:32:10.655Z</time></trkpt><trkpt lat="42.2348258" lon="13.8585194"><ele>724.0</ele><time>2026-05-02T09:32:11.653Z</time></trkpt><trkpt lat="42.2347898" lon="13.8586624"><ele>724.0</ele><time>2026-05-02T09:32:12.655Z</time></trkpt><trkpt lat="42.2347521" lon="13.8588058"><ele>724.0</ele><time>2026-05-02T09:32:13.654Z</time></trkpt><trkpt lat="42.2347101" lon="13.8589498"><ele>715.25</ele><time>2026-05-02T09:32:14.655Z</time></trkpt><trkpt lat="42.2346663" lon="13.859096"><ele>706.5</ele><time>2026-05-02T09:32:15.654Z</time></trkpt><trkpt lat="42.2346222" lon="13.8592424"><ele>697.75</ele><time>2026-05-02T09:32:16.651Z</time></trkpt><trkpt lat="42.234577" lon="13.8593887"><ele>689.0</ele><time>2026-05-02T09:32:17.651Z</time></trkpt><trkpt lat="42.2345327" lon="13.8595346"><ele>689.0</ele><time>2026-05-02T09:32:18.655Z</time></trkpt><trkpt lat="42.2344917" lon="13.8596827"><ele>689.0</ele><time>2026-05-02T09:32:19.655Z</time></trkpt><trkpt lat="42.2344594" lon="13.8598343"><ele>689.0</ele><time>2026-05-02T09:32:20.655Z</time></trkpt><trkpt lat="42.2344353" lon="13.8599881"><ele>689.0</ele><time>2026-05-02T09:32:21.654Z</time></trkpt><trkpt lat="42.2344186" lon="13.8601445"><ele>687.8000000000001</ele><time>2026-05-02T09:32:22.655Z</time></trkpt><trkpt lat="42.2344126" lon="13.8603034"><ele>686.6</ele><time>2026-05-02T09:32:23.655Z</time></trkpt><trkpt lat="42.2344188" lon="13.8604622"><ele>685.4</ele><time>2026-05-02T09:32:24.655Z</time></trkpt><trkpt lat="42.2344365" lon="13.8606011"><ele>684.2</ele><time>2026-05-02T09:32:25.655Z</time></trkpt><trkpt lat="42.2344658" lon="13.8607105"><ele>683.0</ele><time>2026-05-02T09:32:26.654Z</time></trkpt><trkpt lat="42.2345121" lon="13.8608049"><ele>683.0</ele><time>2026-05-02T09:32:27.655Z</time></trkpt><trkpt lat="42.2345586" lon="13.8608698"><ele>683.0</ele><time>2026-05-02T09:32:28.654Z</time></trkpt><trkpt lat="42.2345629" lon="13.8609582"><ele>683.0</ele><time>2026-05-02T09:32:30.655Z</time></trkpt><trkpt lat="42.2344829" lon="13.8610077"><ele>683.0</ele><time>2026-05-02T09:32:32.654Z</time></trkpt><trkpt lat="42.2343597" lon="13.8609375"><ele>683.0</ele><time>2026-05-02T09:32:34.654Z</time></trkpt><trkpt lat="42.2343032" lon="13.8608479"><ele>683.0</ele><time>2026-05-02T09:32:35.655Z</time></trkpt><trkpt lat="42.2342488" lon="13.8607276"><ele>683.0</ele><time>2026-05-02T09:32:36.654Z</time></trkpt><trkpt lat="42.2341913" lon="13.860588"><ele>683.0</ele><time>2026-05-02T09:32:37.654Z</time></trkpt><trkpt lat="42.2341369" lon="13.8604444"><ele>683.0</ele><time>2026-05-02T09:32:38.655Z</time></trkpt><trkpt lat="42.2340865" lon="13.8603068"><ele>683.0</ele><time>2026-05-02T09:32:39.654Z</time></trkpt><trkpt lat="42.2340368" lon="13.8601724"><ele>684.0</ele><time>2026-05-02T09:32:40.654Z</time></trkpt><trkpt lat="42.233998" lon="13.8600584"><ele>685.0</ele><time>2026-05-02T09:32:41.654Z</time></trkpt><trkpt lat="42.2339855" lon="13.8599659"><ele>686.0</ele><time>2026-05-02T09:32:42.655Z</time></trkpt><trkpt lat="42.2339984" lon="13.8598639"><ele>687.0</ele><time>2026-05-02T09:32:43.655Z</time></trkpt><trkpt lat="42.2340285" lon="13.8597489"><ele>688.0</ele><time>2026-05-02T09:32:44.654Z</time></trkpt><trkpt lat="42.2340647" lon="13.8596462"><ele>689.0</ele><time>2026-05-02T09:32:45.654Z</time></trkpt><trkpt lat="42.2341091" lon="13.8595609"><ele>689.0</ele><time>2026-05-02T09:32:46.655Z</time></trkpt><trkpt lat="42.2341721" lon="13.8594803"><ele>689.0</ele><time>2026-05-02T09:32:47.652Z</time></trkpt><trkpt lat="42.2342363" lon="13.8593929"><ele>689.0</ele><time>2026-05-02T09:32:48.654Z</time></trkpt><trkpt lat="42.2342767" lon="13.8592971"><ele>689.0</ele><time>2026-05-02T09:32:49.65Z</time></trkpt><trkpt lat="42.2342983" lon="13.8591884"><ele>689.0</ele><time>2026-05-02T09:32:50.651Z</time></trkpt><trkpt lat="42.2343087" lon="13.8590682"><ele>689.0</ele><time>2026-05-02T09:32:51.654Z</time></trkpt><trkpt lat="42.2343076" lon="13.858942"><ele>689.0</ele><time>2026-05-02T09:32:52.655Z</time></trkpt><trkpt lat="42.2342932" lon="13.8588077"><ele>689.0</ele><time>2026-05-02T09:32:53.651Z</time></trkpt><trkpt lat="42.2342649" lon="13.8586709"><ele>689.0</ele><time>2026-05-02T09:32:54.655Z</time></trkpt><trkpt lat="42.2342354" lon="13.8585319"><ele>689.0</ele><time>2026-05-02T09:32:55.652Z</time></trkpt><trkpt lat="42.234216" lon="13.8583957"><ele>689.0</ele><time>2026-05-02T09:32:56.655Z</time></trkpt><trkpt lat="42.2341924" lon="13.858289"><ele>689.0</ele><time>2026-05-02T09:32:57.654Z</time></trkpt><trkpt lat="42.2341511" lon="13.8582222"><ele>689.0</ele><time>2026-05-02T09:32:58.654Z</time></trkpt><trkpt lat="42.2340532" lon="13.8582129"><ele>689.0</ele><time>2026-05-02T09:33:00.654Z</time></trkpt><trkpt lat="42.2339941" lon="13.8583508"><ele>689.0</ele><time>2026-05-02T09:33:02.654Z</time></trkpt><trkpt lat="42.2339915" lon="13.8584591"><ele>689.0</ele><time>2026-05-02T09:33:03.654Z</time></trkpt><trkpt lat="42.2339972" lon="13.8585791"><ele>688.6</ele><time>2026-05-02T09:33:04.654Z</time></trkpt><trkpt lat="42.2339973" lon="13.858691"><ele>688.2</ele><time>2026-05-02T09:33:05.654Z</time></trkpt><trkpt lat="42.2339794" lon="13.858805"><ele>687.8000000000001</ele><time>2026-05-02T09:33:06.654Z</time></trkpt><trkpt lat="42.2339336" lon="13.8589408"><ele>687.4000000000001</ele><time>2026-05-02T09:33:07.654Z</time></trkpt><trkpt lat="42.233871" lon="13.8590869"><ele>687.0</ele><time>2026-05-02T09:33:08.653Z</time></trkpt><trkpt lat="42.2338079" lon="13.8592292"><ele>680.2</ele><time>2026-05-02T09:33:09.65Z</time></trkpt><trkpt lat="42.2337474" lon="13.8593637"><ele>673.4000000000001</ele><time>2026-05-02T09:33:10.654Z</time></trkpt><trkpt lat="42.2336863" lon="13.859491"><ele>666.5999999999999</ele><time>2026-05-02T09:33:11.65Z</time></trkpt><trkpt lat="42.2336347" lon="13.8596085"><ele>659.8</ele><time>2026-05-02T09:33:12.654Z</time></trkpt><trkpt lat="42.2335963" lon="13.859708"><ele>653.0</ele><time>2026-05-02T09:33:13.654Z</time></trkpt><trkpt lat="42.233581" lon="13.8598136"><ele>653.0</ele><time>2026-05-02T09:33:14.654Z</time></trkpt><trkpt lat="42.2335834" lon="13.8599363"><ele>653.0</ele><time>2026-05-02T09:33:15.655Z</time></trkpt><trkpt lat="42.2335949" lon="13.8600677"><ele>653.0</ele><time>2026-05-02T09:33:16.654Z</time></trkpt><trkpt lat="42.2336055" lon="13.8602061"><ele>653.0</ele><time>2026-05-02T09:33:17.654Z</time></trkpt><trkpt lat="42.2336005" lon="13.8603582"><ele>653.0</ele><time>2026-05-02T09:33:18.654Z</time></trkpt><trkpt lat="42.2335774" lon="13.8605144"><ele>652.5999999999999</ele><time>2026-05-02T09:33:19.653Z</time></trkpt><trkpt lat="42.2335487" lon="13.8606692"><ele>652.1999999999999</ele><time>2026-05-02T09:33:20.655Z</time></trkpt><trkpt lat="42.2335194" lon="13.8608211"><ele>651.8</ele><time>2026-05-02T09:33:21.654Z</time></trkpt><trkpt lat="42.2334868" lon="13.8609399"><ele>651.4</ele><time>2026-05-02T09:33:22.652Z</time></trkpt><trkpt lat="42.233434" lon="13.8610368"><ele>651.0</ele><time>2026-05-02T09:33:23.655Z</time></trkpt><trkpt lat="42.233354" lon="13.86113"><ele>649.8333333333334</ele><time>2026-05-02T09:33:24.655Z</time></trkpt><trkpt lat="42.2332657" lon="13.8612175"><ele>648.6666666666666</ele><time>2026-05-02T09:33:25.651Z</time></trkpt><trkpt lat="42.2331934" lon="13.8613069"><ele>647.5</ele><time>2026-05-02T09:33:26.651Z</time></trkpt><trkpt lat="42.2331522" lon="13.8613985"><ele>646.3333333333333</ele><time>2026-05-02T09:33:27.65Z</time></trkpt><trkpt lat="42.2331428" lon="13.8614953"><ele>645.1666666666666</ele><time>2026-05-02T09:33:28.653Z</time></trkpt><trkpt lat="42.2331618" lon="13.8615985"><ele>644.0</ele><time>2026-05-02T09:33:29.654Z</time></trkpt><trkpt lat="42.2332006" lon="13.8616992"><ele>639.2</ele><time>2026-05-02T09:33:30.654Z</time></trkpt><trkpt lat="42.2332621" lon="13.8617948"><ele>634.4000000000001</ele><time>2026-05-02T09:33:31.652Z</time></trkpt><trkpt lat="42.2333465" lon="13.8618864"><ele>629.6</ele><time>2026-05-02T09:33:32.655Z</time></trkpt><trkpt lat="42.2334374" lon="13.8619809"><ele>624.8</ele><time>2026-05-02T09:33:33.653Z</time></trkpt><trkpt lat="42.2335234" lon="13.8620835"><ele>620.0</ele><time>2026-05-02T09:33:34.654Z</time></trkpt><trkpt lat="42.2336163" lon="13.8621735"><ele>620.0</ele><time>2026-05-02T09:33:35.654Z</time></trkpt><trkpt lat="42.2337266" lon="13.8622502"><ele>620.0</ele><time>2026-05-02T09:33:36.655Z</time></trkpt><trkpt lat="42.2338446" lon="13.8623225"><ele>620.0</ele><time>2026-05-02T09:33:37.654Z</time></trkpt><trkpt lat="42.2339591" lon="13.8623902"><ele>620.0</ele><time>2026-05-02T09:33:38.651Z</time></trkpt><trkpt lat="42.2340505" lon="13.8624607"><ele>619.6</ele><time>2026-05-02T09:33:39.655Z</time></trkpt><trkpt lat="42.2341075" lon="13.8625316"><ele>619.2</ele><time>2026-05-02T09:33:40.654Z</time></trkpt><trkpt lat="42.234158" lon="13.8626299"><ele>618.8</ele><time>2026-05-02T09:33:41.654Z</time></trkpt><trkpt lat="42.2342182" lon="13.8627688"><ele>618.4</ele><time>2026-05-02T09:33:42.652Z</time></trkpt><trkpt lat="42.2342909" lon="13.8629298"><ele>618.0</ele><time>2026-05-02T09:33:43.655Z</time></trkpt><trkpt lat="42.2343736" lon="13.8630835"><ele>618.0</ele><time>2026-05-02T09:33:44.655Z</time></trkpt><trkpt lat="42.2344598" lon="13.8632207"><ele>618.0</ele><time>2026-05-02T09:33:45.654Z</time></trkpt><trkpt lat="42.234548" lon="13.863371"><ele>618.0</ele><time>2026-05-02T09:33:46.654Z</time></trkpt><trkpt lat="42.2346298" lon="13.8635244"><ele>618.0</ele><time>2026-05-02T09:33:47.654Z</time></trkpt><trkpt lat="42.2347074" lon="13.863669"><ele>618.6666666666666</ele><time>2026-05-02T09:33:48.654Z</time></trkpt><trkpt lat="42.2347788" lon="13.8637982"><ele>619.3333333333334</ele><time>2026-05-02T09:33:49.654Z</time></trkpt><trkpt lat="42.2348325" lon="13.8638965"><ele>620.0</ele><time>2026-05-02T09:33:50.654Z</time></trkpt><trkpt lat="42.2348637" lon="13.863974"><ele>620.6666666666667</ele><time>2026-05-02T09:33:51.654Z</time></trkpt><trkpt lat="42.2348664" lon="13.8640609"><ele>621.3333333333334</ele><time>2026-05-02T09:33:52.654Z</time></trkpt><trkpt lat="42.2348414" lon="13.8641814"><ele>622.0</ele><time>2026-05-02T09:33:53.654Z</time></trkpt><trkpt lat="42.2348001" lon="13.8643279"><ele>620.0</ele><time>2026-05-02T09:33:54.651Z</time></trkpt><trkpt lat="42.2347624" lon="13.8644729"><ele>618.0</ele><time>2026-05-02T09:33:55.654Z</time></trkpt><trkpt lat="42.234743" lon="13.8646038"><ele>616.0</ele><time>2026-05-02T09:33:56.654Z</time></trkpt><trkpt lat="42.2347428" lon="13.8647309"><ele>614.0</ele><time>2026-05-02T09:33:57.654Z</time></trkpt><trkpt lat="42.2347653" lon="13.8648471"><ele>612.0</ele><time>2026-05-02T09:33:58.655Z</time></trkpt><trkpt lat="42.2348083" lon="13.8649513"><ele>612.0</ele><time>2026-05-02T09:33:59.655Z</time></trkpt><trkpt lat="42.234879" lon="13.8650578"><ele>612.0</ele><time>2026-05-02T09:34:00.651Z</time></trkpt><trkpt lat="42.2349484" lon="13.8651646"><ele>612.0</ele><time>2026-05-02T09:34:01.654Z</time></trkpt><trkpt lat="42.2349999" lon="13.8652552"><ele>612.0</ele><time>2026-05-02T09:34:02.653Z</time></trkpt><trkpt lat="42.2350502" lon="13.8653503"><ele>612.0</ele><time>2026-05-02T09:34:04.652Z</time></trkpt><trkpt lat="42.2350888" lon="13.8654196"><ele>612.0</ele><time>2026-05-02T09:34:06.653Z</time></trkpt><trkpt lat="42.2350648" lon="13.8653262"><ele>612.0</ele><time>2026-05-02T09:34:13.653Z</time></trkpt><trkpt lat="42.2350149" lon="13.8652515"><ele>612.0</ele><time>2026-05-02T09:34:15.654Z</time></trkpt><trkpt lat="42.2349583" lon="13.8651638"><ele>612.0</ele><time>2026-05-02T09:34:18.654Z</time></trkpt><trkpt lat="42.2348941" lon="13.8650535"><ele>612.0</ele><time>2026-05-02T09:34:20.655Z</time></trkpt><trkpt lat="42.2348217" lon="13.8649417"><ele>612.0</ele><time>2026-05-02T09:34:22.654Z</time></trkpt><trkpt lat="42.2347715" lon="13.8648113"><ele>612.0</ele><time>2026-05-02T09:34:24.655Z</time></trkpt><trkpt lat="42.2347687" lon="13.8646949"><ele>612.0</ele><time>2026-05-02T09:34:26.654Z</time></trkpt><trkpt lat="42.2347367" lon="13.8647821"><ele>612.0</ele><time>2026-05-02T09:34:31.655Z</time></trkpt><trkpt lat="42.2347745" lon="13.8648719"><ele>612.0</ele><time>2026-05-02T09:34:32.654Z</time></trkpt><trkpt lat="42.2348225" lon="13.8649649"><ele>612.0</ele><time>2026-05-02T09:34:33.654Z</time></trkpt><trkpt lat="42.2348873" lon="13.8650684"><ele>612.0</ele><time>2026-05-02T09:34:34.653Z</time></trkpt><trkpt lat="42.234962" lon="13.8651855"><ele>607.8000000000001</ele><time>2026-05-02T09:34:35.653Z</time></trkpt><trkpt lat="42.2350334" lon="13.8653043"><ele>603.6</ele><time>2026-05-02T09:34:36.654Z</time></trkpt><trkpt lat="42.2351052" lon="13.8654091"><ele>599.4000000000001</ele><time>2026-05-02T09:34:37.654Z</time></trkpt><trkpt lat="42.235172" lon="13.8654989"><ele>595.2</ele><time>2026-05-02T09:34:38.655Z</time></trkpt><trkpt lat="42.235222" lon="13.8656255"><ele>591.0</ele><time>2026-05-02T09:34:40.654Z</time></trkpt><trkpt lat="42.2351643" lon="13.8657151"><ele>591.0</ele><time>2026-05-02T09:34:42.654Z</time></trkpt><trkpt lat="42.2350727" lon="13.8656702"><ele>591.0</ele><time>2026-05-02T09:34:44.654Z</time></trkpt><trkpt lat="42.2350304" lon="13.8656045"><ele>591.0</ele><time>2026-05-02T09:34:45.653Z</time></trkpt><trkpt lat="42.2349445" lon="13.8655236"><ele>591.0</ele><time>2026-05-02T09:34:47.652Z</time></trkpt><trkpt lat="42.234867" lon="13.8655051"><ele>591.0</ele><time>2026-05-02T09:34:50.654Z</time></trkpt><trkpt lat="42.2347748" lon="13.8654218"><ele>590.6</ele><time>2026-05-02T09:34:52.65Z</time></trkpt><trkpt lat="42.2347055" lon="13.8653448"><ele>590.2</ele><time>2026-05-02T09:34:53.652Z</time></trkpt><trkpt lat="42.2346138" lon="13.8652605"><ele>589.8</ele><time>2026-05-02T09:34:54.652Z</time></trkpt><trkpt lat="42.2345251" lon="13.8651599"><ele>589.4</ele><time>2026-05-02T09:34:55.655Z</time></trkpt><trkpt lat="42.2344553" lon="13.8650393"><ele>589.0</ele><time>2026-05-02T09:34:56.654Z</time></trkpt><trkpt lat="42.2344012" lon="13.8648967"><ele>589.0</ele><time>2026-05-02T09:34:57.654Z</time></trkpt><trkpt lat="42.2343383" lon="13.8647292"><ele>589.0</ele><time>2026-05-02T09:34:58.652Z</time></trkpt><trkpt lat="42.2342523" lon="13.8645641"><ele>589.0</ele><time>2026-05-02T09:34:59.654Z</time></trkpt><trkpt lat="42.2341656" lon="13.8644312"><ele>589.0</ele><time>2026-05-02T09:35:00.655Z</time></trkpt><trkpt lat="42.2341005" lon="13.8642929"><ele>588.75</ele><time>2026-05-02T09:35:01.652Z</time></trkpt><trkpt lat="42.2340445" lon="13.8641137"><ele>588.5</ele><time>2026-05-02T09:35:02.654Z</time></trkpt><trkpt lat="42.2339838" lon="13.8639198"><ele>588.25</ele><time>2026-05-02T09:35:03.654Z</time></trkpt><trkpt lat="42.2339229" lon="13.8637466"><ele>588.0</ele><time>2026-05-02T09:35:04.654Z</time></trkpt><trkpt lat="42.2338704" lon="13.8635996"><ele>588.0</ele><time>2026-05-02T09:35:05.654Z</time></trkpt><trkpt lat="42.2338107" lon="13.8634684"><ele>588.0</ele><time>2026-05-02T09:35:06.654Z</time></trkpt><trkpt lat="42.2337186" lon="13.8633317"><ele>588.0</ele><time>2026-05-02T09:35:07.654Z</time></trkpt><trkpt lat="42.2336067" lon="13.8631639"><ele>588.0</ele><time>2026-05-02T09:35:08.654Z</time></trkpt><trkpt lat="42.2334887" lon="13.8629923"><ele>592.6666666666666</ele><time>2026-05-02T09:35:09.654Z</time></trkpt><trkpt lat="42.2333576" lon="13.8628381"><ele>597.3333333333333</ele><time>2026-05-02T09:35:10.654Z</time></trkpt><trkpt lat="42.2332386" lon="13.8627035"><ele>602.0</ele><time>2026-05-02T09:35:11.654Z</time></trkpt><trkpt lat="42.233134" lon="13.8625796"><ele>602.0</ele><time>2026-05-02T09:35:12.652Z</time></trkpt><trkpt lat="42.2330429" lon="13.8624659"><ele>602.0</ele><time>2026-05-02T09:35:13.654Z</time></trkpt><trkpt lat="42.2329711" lon="13.8623505"><ele>602.0</ele><time>2026-05-02T09:35:14.653Z</time></trkpt><trkpt lat="42.2329189" lon="13.8622167"><ele>602.0</ele><time>2026-05-02T09:35:15.654Z</time></trkpt><trkpt lat="42.2328706" lon="13.8620751"><ele>602.0</ele><time>2026-05-02T09:35:16.654Z</time></trkpt><trkpt lat="42.232821" lon="13.8619328"><ele>602.0</ele><time>2026-05-02T09:35:17.655Z</time></trkpt><trkpt lat="42.232777" lon="13.8617852"><ele>602.0</ele><time>2026-05-02T09:35:18.654Z</time></trkpt><trkpt lat="42.2327324" lon="13.8616275"><ele>602.0</ele><time>2026-05-02T09:35:19.65Z</time></trkpt><trkpt lat="42.2326759" lon="13.8614694"><ele>605.75</ele><time>2026-05-02T09:35:20.651Z</time></trkpt><trkpt lat="42.232609" lon="13.8613154"><ele>609.5</ele><time>2026-05-02T09:35:21.651Z</time></trkpt><trkpt lat="42.2325493" lon="13.8611747"><ele>613.25</ele><time>2026-05-02T09:35:22.652Z</time></trkpt><trkpt lat="42.2324916" lon="13.8610321"><ele>617.0</ele><time>2026-05-02T09:35:23.654Z</time></trkpt><trkpt lat="42.2324517" lon="13.8608923"><ele>618.6</ele><time>2026-05-02T09:35:24.655Z</time></trkpt><trkpt lat="42.2324278" lon="13.8607405"><ele>620.2</ele><time>2026-05-02T09:35:25.654Z</time></trkpt><trkpt lat="42.2324094" lon="13.8605753"><ele>621.8</ele><time>2026-05-02T09:35:26.654Z</time></trkpt><trkpt lat="42.2324044" lon="13.860432"><ele>623.4</ele><time>2026-05-02T09:35:27.654Z</time></trkpt><trkpt lat="42.2324045" lon="13.8603022"><ele>625.0</ele><time>2026-05-02T09:35:28.655Z</time></trkpt><trkpt lat="42.2324171" lon="13.8601733"><ele>626.0</ele><time>2026-05-02T09:35:29.654Z</time></trkpt><trkpt lat="42.2324208" lon="13.8600594"><ele>627.0</ele><time>2026-05-02T09:35:30.655Z</time></trkpt><trkpt lat="42.2324016" lon="13.8599679"><ele>628.0</ele><time>2026-05-02T09:35:31.65Z</time></trkpt><trkpt lat="42.2323271" lon="13.8598766"><ele>629.0</ele><time>2026-05-02T09:35:33.651Z</time></trkpt><trkpt lat="42.2322666" lon="13.8598526"><ele>630.0</ele><time>2026-05-02T09:35:34.654Z</time></trkpt><trkpt lat="42.2322028" lon="13.8598497"><ele>631.0</ele><time>2026-05-02T09:35:35.654Z</time></trkpt><trkpt lat="42.2320794" lon="13.8598575"><ele>631.5</ele><time>2026-05-02T09:35:37.651Z</time></trkpt><trkpt lat="42.2319581" lon="13.8598312"><ele>632.0</ele><time>2026-05-02T09:35:39.654Z</time></trkpt><trkpt lat="42.2318369" lon="13.859778"><ele>632.5</ele><time>2026-05-02T09:35:41.654Z</time></trkpt><trkpt lat="42.2317722" lon="13.8597642"><ele>633.0</ele><time>2026-05-02T09:35:42.654Z</time></trkpt><trkpt lat="42.2317061" lon="13.8597628"><ele>633.5</ele><time>2026-05-02T09:35:43.654Z</time></trkpt><trkpt lat="42.2316405" lon="13.8597681"><ele>634.0</ele><time>2026-05-02T09:35:44.654Z</time></trkpt><trkpt lat="42.2315737" lon="13.8597829"><ele>634.0</ele><time>2026-05-02T09:35:45.655Z</time></trkpt><trkpt lat="42.2315085" lon="13.859807"><ele>634.0</ele><time>2026-05-02T09:35:46.652Z</time></trkpt><trkpt lat="42.2314435" lon="13.8598424"><ele>634.0</ele><time>2026-05-02T09:35:47.652Z</time></trkpt><trkpt lat="42.2313727" lon="13.8598926"><ele>634.0</ele><time>2026-05-02T09:35:48.651Z</time></trkpt><trkpt lat="42.2313003" lon="13.8599338"><ele>634.0</ele><time>2026-05-02T09:35:49.654Z</time></trkpt><trkpt lat="42.2312281" lon="13.859963"><ele>634.0</ele><time>2026-05-02T09:35:50.654Z</time></trkpt><trkpt lat="42.2311592" lon="13.8599799"><ele>634.0</ele><time>2026-05-02T09:35:51.654Z</time></trkpt><trkpt lat="42.2310929" lon="13.8599784"><ele>636.5</ele><time>2026-05-02T09:35:52.654Z</time></trkpt><trkpt lat="42.2310008" lon="13.8599036"><ele>639.0</ele><time>2026-05-02T09:35:54.654Z</time></trkpt><trkpt lat="42.2309529" lon="13.859768"><ele>641.5</ele><time>2026-05-02T09:35:56.655Z</time></trkpt><trkpt lat="42.2308777" lon="13.859648"><ele>644.0</ele><time>2026-05-02T09:35:58.651Z</time></trkpt><trkpt lat="42.2307725" lon="13.8595641"><ele>644.0</ele><time>2026-05-02T09:36:00.654Z</time></trkpt><trkpt lat="42.230711" lon="13.8595307"><ele>644.0</ele><time>2026-05-02T09:36:01.651Z</time></trkpt><trkpt lat="42.230646" lon="13.8595001"><ele>644.0</ele><time>2026-05-02T09:36:02.654Z</time></trkpt><trkpt lat="42.2305833" lon="13.8594696"><ele>644.0</ele><time>2026-05-02T09:36:03.654Z</time></trkpt><trkpt lat="42.2304919" lon="13.8594097"><ele>644.0</ele><time>2026-05-02T09:36:05.651Z</time></trkpt><trkpt lat="42.2303994" lon="13.859317"><ele>644.0</ele><time>2026-05-02T09:36:07.654Z</time></trkpt><trkpt lat="42.230345" lon="13.8592662"><ele>647.0</ele><time>2026-05-02T09:36:08.65Z</time></trkpt><trkpt lat="42.2302831" lon="13.8592218"><ele>650.0</ele><time>2026-05-02T09:36:09.654Z</time></trkpt><trkpt lat="42.2302217" lon="13.8591753"><ele>653.0</ele><time>2026-05-02T09:36:10.652Z</time></trkpt><trkpt lat="42.2301216" lon="13.8590861"><ele>656.0</ele><time>2026-05-02T09:36:12.651Z</time></trkpt><trkpt lat="42.2300619" lon="13.8590354"><ele>659.0</ele><time>2026-05-02T09:36:14.652Z</time></trkpt><trkpt lat="42.2299962" lon="13.8590354"><ele>662.0</ele><time>2026-05-02T09:36:20.65Z</time></trkpt><trkpt lat="42.2299374" lon="13.8590658"><ele>662.0</ele><time>2026-05-02T09:36:26.652Z</time></trkpt><trkpt lat="42.2298546" lon="13.8590734"><ele>662.0</ele><time>2026-05-02T09:36:29.654Z</time></trkpt><trkpt lat="42.2298213" lon="13.8589953"><ele>662.0</ele><time>2026-05-02T09:36:32.654Z</time></trkpt><trkpt lat="42.2297866" lon="13.8589103"><ele>662.0</ele><time>2026-05-02T09:36:35.654Z</time></trkpt><trkpt lat="42.2296922" lon="13.8588988"><ele>662.0</ele><time>2026-05-02T09:36:37.654Z</time></trkpt><trkpt lat="42.229604" lon="13.8588667"><ele>662.0</ele><time>2026-05-02T09:36:38.651Z</time></trkpt><trkpt lat="42.2295182" lon="13.858835"><ele>663.8333333333333</ele><time>2026-05-02T09:36:39.651Z</time></trkpt><trkpt lat="42.2294415" lon="13.8587972"><ele>665.6666666666666</ele><time>2026-05-02T09:36:40.654Z</time></trkpt><trkpt lat="42.2293632" lon="13.8587432"><ele>667.5</ele><time>2026-05-02T09:36:42.654Z</time></trkpt><trkpt lat="42.2293097" lon="13.8586746"><ele>669.3333333333334</ele><time>2026-05-02T09:36:44.651Z</time></trkpt><trkpt lat="42.2292577" lon="13.8585716"><ele>671.1666666666667</ele><time>2026-05-02T09:36:54.654Z</time></trkpt><trkpt lat="42.2292033" lon="13.858459"><ele>673.0</ele><time>2026-05-02T09:36:56.654Z</time></trkpt><trkpt lat="42.2291676" lon="13.8583868"><ele>676.75</ele><time>2026-05-02T09:36:57.655Z</time></trkpt><trkpt lat="42.2290974" lon="13.8582777"><ele>680.5</ele><time>2026-05-02T09:36:59.654Z</time></trkpt><trkpt lat="42.2290182" lon="13.8581186"><ele>684.25</ele><time>2026-05-02T09:37:01.654Z</time></trkpt><trkpt lat="42.2289714" lon="13.8580277"><ele>688.0</ele><time>2026-05-02T09:37:02.655Z</time></trkpt><trkpt lat="42.2288835" lon="13.8579198"><ele>689.0</ele><time>2026-05-02T09:37:04.654Z</time></trkpt><trkpt lat="42.2288298" lon="13.8578601"><ele>690.0</ele><time>2026-05-02T09:37:05.653Z</time></trkpt><trkpt lat="42.2287662" lon="13.8578048"><ele>691.0</ele><time>2026-05-02T09:37:06.653Z</time></trkpt><trkpt lat="42.2286898" lon="13.8577503"><ele>692.0</ele><time>2026-05-02T09:37:07.654Z</time></trkpt><trkpt lat="42.2286146" lon="13.8576917"><ele>693.0</ele><time>2026-05-02T09:37:08.651Z</time></trkpt><trkpt lat="42.2285516" lon="13.8576518"><ele>694.0</ele><time>2026-05-02T09:37:09.654Z</time></trkpt><trkpt lat="42.2284392" lon="13.8576391"><ele>694.0</ele><time>2026-05-02T09:37:11.654Z</time></trkpt><trkpt lat="42.2283553" lon="13.8576885"><ele>694.0</ele><time>2026-05-02T09:37:13.654Z</time></trkpt><trkpt lat="42.2282923" lon="13.8577197"><ele>694.0</ele><time>2026-05-02T09:37:15.655Z</time></trkpt><trkpt lat="42.2282225" lon="13.8577077"><ele>694.0</ele><time>2026-05-02T09:37:17.654Z</time></trkpt><trkpt lat="42.2280765" lon="13.8576045"><ele>694.0</ele><time>2026-05-02T09:37:29.654Z</time></trkpt><trkpt lat="42.2279952" lon="13.8575452"><ele>700.6</ele><time>2026-05-02T09:37:30.654Z</time></trkpt><trkpt lat="42.2279291" lon="13.8574943"><ele>707.2</ele><time>2026-05-02T09:37:31.654Z</time></trkpt><trkpt lat="42.2278751" lon="13.857443"><ele>713.8000000000001</ele><time>2026-05-02T09:37:32.653Z</time></trkpt><trkpt lat="42.2278004" lon="13.8573129"><ele>720.4000000000001</ele><time>2026-05-02T09:37:34.654Z</time></trkpt><trkpt lat="42.2277253" lon="13.8571927"><ele>727.0</ele><time>2026-05-02T09:37:36.654Z</time></trkpt><trkpt lat="42.2276492" lon="13.857058"><ele>727.0</ele><time>2026-05-02T09:37:38.655Z</time></trkpt><trkpt lat="42.2276191" lon="13.8569807"><ele>727.0</ele><time>2026-05-02T09:37:39.653Z</time></trkpt><trkpt lat="42.2275942" lon="13.8568976"><ele>727.0</ele><time>2026-05-02T09:37:40.655Z</time></trkpt><trkpt lat="42.2275355" lon="13.8567655"><ele>727.0</ele><time>2026-05-02T09:37:42.654Z</time></trkpt><trkpt lat="42.2274607" lon="13.8567026"><ele>727.0</ele><time>2026-05-02T09:37:44.654Z</time></trkpt><trkpt lat="42.227356" lon="13.8566886"><ele>727.0</ele><time>2026-05-02T09:37:46.655Z</time></trkpt><trkpt lat="42.2272354" lon="13.8566883"><ele>732.2</ele><time>2026-05-02T09:37:48.654Z</time></trkpt><trkpt lat="42.2271717" lon="13.856696"><ele>737.4000000000001</ele><time>2026-05-02T09:37:49.653Z</time></trkpt><trkpt lat="42.2270715" lon="13.8566833"><ele>742.5999999999999</ele><time>2026-05-02T09:37:51.651Z</time></trkpt><trkpt lat="42.226957" lon="13.8566116"><ele>747.8</ele><time>2026-05-02T09:37:53.653Z</time></trkpt><trkpt lat="42.226888" lon="13.8565537"><ele>753.0</ele><time>2026-05-02T09:37:54.655Z</time></trkpt><trkpt lat="42.2268113" lon="13.8564889"><ele>753.0</ele><time>2026-05-02T09:37:55.655Z</time></trkpt><trkpt lat="42.2267429" lon="13.8564298"><ele>753.0</ele><time>2026-05-02T09:37:56.655Z</time></trkpt><trkpt lat="42.2266894" lon="13.856378"><ele>753.0</ele><time>2026-05-02T09:37:57.654Z</time></trkpt><trkpt lat="42.2266145" lon="13.8562548"><ele>753.0</ele><time>2026-05-02T09:37:59.655Z</time></trkpt><trkpt lat="42.2265831" lon="13.8561715"><ele>753.0</ele><time>2026-05-02T09:38:00.654Z</time></trkpt><trkpt lat="42.2265418" lon="13.8560748"><ele>753.0</ele><time>2026-05-02T09:38:01.654Z</time></trkpt><trkpt lat="42.2264908" lon="13.8559765"><ele>756.2</ele><time>2026-05-02T09:38:02.655Z</time></trkpt><trkpt lat="42.2264357" lon="13.8558975"><ele>759.4</ele><time>2026-05-02T09:38:03.654Z</time></trkpt><trkpt lat="42.2263687" lon="13.8558126"><ele>762.6</ele><time>2026-05-02T09:38:04.654Z</time></trkpt><trkpt lat="42.2262958" lon="13.8557092"><ele>765.8000000000001</ele><time>2026-05-02T09:38:05.654Z</time></trkpt><trkpt lat="42.2262297" lon="13.855607"><ele>769.0</ele><time>2026-05-02T09:38:06.654Z</time></trkpt><trkpt lat="42.2261557" lon="13.855512"><ele>769.0</ele><time>2026-05-02T09:38:07.653Z</time></trkpt><trkpt lat="42.226066" lon="13.8554241"><ele>769.0</ele><time>2026-05-02T09:38:08.655Z</time></trkpt><trkpt lat="42.2259737" lon="13.8553495"><ele>769.0</ele><time>2026-05-02T09:38:09.651Z</time></trkpt><trkpt lat="42.2258888" lon="13.8552974"><ele>769.0</ele><time>2026-05-02T09:38:10.652Z</time></trkpt><trkpt lat="42.2257919" lon="13.8552616"><ele>769.0</ele><time>2026-05-02T09:38:11.651Z</time></trkpt><trkpt lat="42.2256911" lon="13.8552402"><ele>771.3333333333333</ele><time>2026-05-02T09:38:12.654Z</time></trkpt><trkpt lat="42.2256095" lon="13.8552272"><ele>773.6666666666666</ele><time>2026-05-02T09:38:13.653Z</time></trkpt><trkpt lat="42.2255419" lon="13.8552126"><ele>776.0</ele><time>2026-05-02T09:38:14.655Z</time></trkpt><trkpt lat="42.2254522" lon="13.8551973"><ele>778.3333333333333</ele><time>2026-05-02T09:38:16.654Z</time></trkpt><trkpt lat="42.2254305" lon="13.8550837"><ele>780.6666666666666</ele><time>2026-05-02T09:38:27.652Z</time></trkpt><trkpt lat="42.2254085" lon="13.8550037"><ele>783.0</ele><time>2026-05-02T09:38:29.655Z</time></trkpt><trkpt lat="42.225347" lon="13.8549118"><ele>783.0</ele><time>2026-05-02T09:38:31.653Z</time></trkpt><trkpt lat="42.2253053" lon="13.8547872"><ele>783.0</ele><time>2026-05-02T09:38:33.651Z</time></trkpt><trkpt lat="42.2252786" lon="13.8546879"><ele>783.0</ele><time>2026-05-02T09:38:36.654Z</time></trkpt><trkpt lat="42.2252476" lon="13.8545896"><ele>783.0</ele><time>2026-05-02T09:38:39.654Z</time></trkpt><trkpt lat="42.2252201" lon="13.8545055"><ele>783.0</ele><time>2026-05-02T09:38:49.655Z</time></trkpt><trkpt lat="42.2251834" lon="13.8544317"><ele>783.0</ele><time>2026-05-02T09:38:52.654Z</time></trkpt><trkpt lat="42.2251792" lon="13.8543461"><ele>784.0</ele><time>2026-05-02T09:39:30.654Z</time></trkpt><trkpt lat="42.2251384" lon="13.8542471"><ele>785.0</ele><time>2026-05-02T09:39:32.651Z</time></trkpt><trkpt lat="42.2251005" lon="13.8541308"><ele>786.0</ele><time>2026-05-02T09:39:34.654Z</time></trkpt><trkpt lat="42.2250675" lon="13.8540272"><ele>787.0</ele><time>2026-05-02T09:39:35.652Z</time></trkpt><trkpt lat="42.2250411" lon="13.8538847"><ele>788.0</ele><time>2026-05-02T09:39:37.654Z</time></trkpt><trkpt lat="42.2250315" lon="13.8537943"><ele>789.0</ele><time>2026-05-02T09:39:38.651Z</time></trkpt><trkpt lat="42.225022" lon="13.8536979"><ele>789.0</ele><time>2026-05-02T09:39:39.654Z</time></trkpt><trkpt lat="42.2250142" lon="13.8536097"><ele>789.0</ele><time>2026-05-02T09:39:40.655Z</time></trkpt><trkpt lat="42.2250092" lon="13.8534624"><ele>789.0</ele><time>2026-05-02T09:39:42.652Z</time></trkpt><trkpt lat="42.2250191" lon="13.8533401"><ele>789.0</ele><time>2026-05-02T09:39:44.654Z</time></trkpt><trkpt lat="42.2250665" lon="13.8531699"><ele>789.0</ele><time>2026-05-02T09:39:46.651Z</time></trkpt><trkpt lat="42.2251077" lon="13.8530692"><ele>789.2</ele><time>2026-05-02T09:39:47.654Z</time></trkpt><trkpt lat="42.2251592" lon="13.8529585"><ele>789.4000000000001</ele><time>2026-05-02T09:39:48.654Z</time></trkpt><trkpt lat="42.2252167" lon="13.8528368"><ele>789.6</ele><time>2026-05-02T09:39:49.654Z</time></trkpt><trkpt lat="42.2252717" lon="13.8527309"><ele>789.8</ele><time>2026-05-02T09:39:50.655Z</time></trkpt><trkpt lat="42.2253284" lon="13.8526465"><ele>790.0</ele><time>2026-05-02T09:39:51.654Z</time></trkpt><trkpt lat="42.225393" lon="13.8525736"><ele>790.3333333333333</ele><time>2026-05-02T09:39:52.652Z</time></trkpt><trkpt lat="42.2254549" lon="13.8524988"><ele>790.6666666666666</ele><time>2026-05-02T09:39:53.655Z</time></trkpt><trkpt lat="42.2255004" lon="13.8524174"><ele>791.0</ele><time>2026-05-02T09:39:54.654Z</time></trkpt><trkpt lat="42.2255335" lon="13.8523277"><ele>791.3333333333333</ele><time>2026-05-02T09:39:55.654Z</time></trkpt><trkpt lat="42.2255593" lon="13.8522372"><ele>791.6666666666666</ele><time>2026-05-02T09:39:56.654Z</time></trkpt><trkpt lat="42.2255792" lon="13.8521506"><ele>792.0</ele><time>2026-05-02T09:39:57.655Z</time></trkpt><trkpt lat="42.225604" lon="13.8519825"><ele>792.0</ele><time>2026-05-02T09:39:59.654Z</time></trkpt><trkpt lat="42.2256123" lon="13.85189"><ele>792.0</ele><time>2026-05-02T09:40:00.654Z</time></trkpt><trkpt lat="42.2256187" lon="13.8517986"><ele>792.0</ele><time>2026-05-02T09:40:01.653Z</time></trkpt><trkpt lat="42.225626" lon="13.8517106"><ele>792.0</ele><time>2026-05-02T09:40:02.655Z</time></trkpt><trkpt lat="42.2256355" lon="13.8516226"><ele>792.0</ele><time>2026-05-02T09:40:03.651Z</time></trkpt><trkpt lat="42.2256457" lon="13.8515284"><ele>792.0</ele><time>2026-05-02T09:40:04.655Z</time></trkpt><trkpt lat="42.2256534" lon="13.85144"><ele>792.0</ele><time>2026-05-02T09:40:05.655Z</time></trkpt><trkpt lat="42.2256664" lon="13.8512685"><ele>795.6666666666666</ele><time>2026-05-02T09:40:07.653Z</time></trkpt><trkpt lat="42.2256691" lon="13.8510944"><ele>799.3333333333333</ele><time>2026-05-02T09:40:09.654Z</time></trkpt><trkpt lat="42.225668" lon="13.8509976"><ele>803.0</ele><time>2026-05-02T09:40:10.65Z</time></trkpt><trkpt lat="42.2256623" lon="13.8508964"><ele>806.6666666666666</ele><time>2026-05-02T09:40:11.651Z</time></trkpt><trkpt lat="42.2256507" lon="13.8507962"><ele>810.3333333333333</ele><time>2026-05-02T09:40:12.65Z</time></trkpt><trkpt lat="42.2256386" lon="13.8506955"><ele>814.0</ele><time>2026-05-02T09:40:13.655Z</time></trkpt><trkpt lat="42.2256275" lon="13.8505966"><ele>815.1666666666666</ele><time>2026-05-02T09:40:14.654Z</time></trkpt><trkpt lat="42.2256167" lon="13.8504893"><ele>816.3333333333333</ele><time>2026-05-02T09:40:15.651Z</time></trkpt><trkpt lat="42.2256045" lon="13.8503666"><ele>817.5</ele><time>2026-05-02T09:40:16.651Z</time></trkpt><trkpt lat="42.2255926" lon="13.8502506"><ele>818.6666666666667</ele><time>2026-05-02T09:40:17.654Z</time></trkpt><trkpt lat="42.2255844" lon="13.8501456"><ele>819.8333333333334</ele><time>2026-05-02T09:40:18.652Z</time></trkpt><trkpt lat="42.2255773" lon="13.8500402"><ele>821.0</ele><time>2026-05-02T09:40:19.654Z</time></trkpt><trkpt lat="42.2255662" lon="13.849929"><ele>824.4</ele><time>2026-05-02T09:40:20.654Z</time></trkpt><trkpt lat="42.2255474" lon="13.8498139"><ele>827.8</ele><time>2026-05-02T09:40:21.655Z</time></trkpt><trkpt lat="42.2255231" lon="13.849708"><ele>831.1999999999999</ele><time>2026-05-02T09:40:22.655Z</time></trkpt><trkpt lat="42.2255011" lon="13.849608"><ele>834.5999999999999</ele><time>2026-05-02T09:40:23.654Z</time></trkpt><trkpt lat="42.2255029" lon="13.8494634"><ele>838.0</ele><time>2026-05-02T09:40:25.653Z</time></trkpt><trkpt lat="42.2255694" lon="13.8493657"><ele>840.5999999999999</ele><time>2026-05-02T09:40:27.654Z</time></trkpt><trkpt lat="42.2257033" lon="13.8493139"><ele>843.1999999999999</ele><time>2026-05-02T09:40:29.651Z</time></trkpt><trkpt lat="42.2257845" lon="13.8493008"><ele>845.8</ele><time>2026-05-02T09:40:30.652Z</time></trkpt><trkpt lat="42.2258639" lon="13.8492778"><ele>848.4</ele><time>2026-05-02T09:40:31.654Z</time></trkpt><trkpt lat="42.2259465" lon="13.8492415"><ele>851.0</ele><time>2026-05-02T09:40:32.654Z</time></trkpt><trkpt lat="42.2260224" lon="13.8492019"><ele>854.1666666666667</ele><time>2026-05-02T09:40:33.654Z</time></trkpt><trkpt lat="42.2260918" lon="13.8491689"><ele>857.3333333333334</ele><time>2026-05-02T09:40:34.654Z</time></trkpt><trkpt lat="42.2261603" lon="13.8491416"><ele>860.5</ele><time>2026-05-02T09:40:35.654Z</time></trkpt><trkpt lat="42.2262885" lon="13.8491228"><ele>863.6666666666667</ele><time>2026-05-02T09:40:37.654Z</time></trkpt><trkpt lat="42.2263591" lon="13.8491068"><ele>866.8333333333334</ele><time>2026-05-02T09:40:38.654Z</time></trkpt><trkpt lat="42.2264364" lon="13.8490879"><ele>870.0</ele><time>2026-05-02T09:40:39.654Z</time></trkpt><trkpt lat="42.226521" lon="13.8490653"><ele>870.0</ele><time>2026-05-02T09:40:40.654Z</time></trkpt><trkpt lat="42.2266192" lon="13.849038"><ele>870.0</ele><time>2026-05-02T09:40:41.654Z</time></trkpt><trkpt lat="42.2267122" lon="13.8490205"><ele>870.0</ele><time>2026-05-02T09:40:42.654Z</time></trkpt><trkpt lat="42.2267943" lon="13.8490061"><ele>870.0</ele><time>2026-05-02T09:40:43.655Z</time></trkpt><trkpt lat="42.2268708" lon="13.8489883"><ele>870.0</ele><time>2026-05-02T09:40:44.651Z</time></trkpt><trkpt lat="42.2269552" lon="13.8489633"><ele>870.0</ele><time>2026-05-02T09:40:45.655Z</time></trkpt><trkpt lat="42.2270455" lon="13.8489467"><ele>870.0</ele><time>2026-05-02T09:40:46.654Z</time></trkpt><trkpt lat="42.2271367" lon="13.8489336"><ele>870.0</ele><time>2026-05-02T09:40:47.654Z</time></trkpt><trkpt lat="42.2272106" lon="13.8489079"><ele>870.0</ele><time>2026-05-02T09:40:48.652Z</time></trkpt><trkpt lat="42.2272934" lon="13.8488807"><ele>870.0</ele><time>2026-05-02T09:40:49.651Z</time></trkpt><trkpt lat="42.2273781" lon="13.8488513"><ele>870.0</ele><time>2026-05-02T09:40:50.651Z</time></trkpt><trkpt lat="42.2274555" lon="13.8488252"><ele>870.0</ele><time>2026-05-02T09:40:51.652Z</time></trkpt><trkpt lat="42.227525" lon="13.848806"><ele>868.5</ele><time>2026-05-02T09:40:52.654Z</time></trkpt><trkpt lat="42.2275926" lon="13.8488137"><ele>867.0</ele><time>2026-05-02T09:40:53.654Z</time></trkpt><trkpt lat="42.2276677" lon="13.8488248"><ele>865.5</ele><time>2026-05-02T09:40:54.653Z</time></trkpt><trkpt lat="42.2277541" lon="13.8488512"><ele>864.0</ele><time>2026-05-02T09:40:55.653Z</time></trkpt><trkpt lat="42.2278435" lon="13.8488775"><ele>862.5</ele><time>2026-05-02T09:40:56.654Z</time></trkpt><trkpt lat="42.2279266" lon="13.8488993"><ele>861.0</ele><time>2026-05-02T09:40:57.654Z</time></trkpt><trkpt lat="42.2280096" lon="13.8489199"><ele>861.0</ele><time>2026-05-02T09:40:58.655Z</time></trkpt><trkpt lat="42.2281004" lon="13.8489358"><ele>861.0</ele><time>2026-05-02T09:40:59.654Z</time></trkpt><trkpt lat="42.2281927" lon="13.8489446"><ele>861.0</ele><time>2026-05-02T09:41:00.651Z</time></trkpt><trkpt lat="42.2282833" lon="13.8489541"><ele>861.0</ele><time>2026-05-02T09:41:01.651Z</time></trkpt><trkpt lat="42.2283665" lon="13.8489708"><ele>861.0</ele><time>2026-05-02T09:41:02.654Z</time></trkpt><trkpt lat="42.2284481" lon="13.8489831"><ele>861.0</ele><time>2026-05-02T09:41:03.655Z</time></trkpt><trkpt lat="42.2285306" lon="13.8489587"><ele>862.6666666666666</ele><time>2026-05-02T09:41:04.654Z</time></trkpt><trkpt lat="42.2286159" lon="13.848919"><ele>864.3333333333333</ele><time>2026-05-02T09:41:05.654Z</time></trkpt><trkpt lat="42.2286953" lon="13.8488863"><ele>866.0</ele><time>2026-05-02T09:41:06.654Z</time></trkpt><trkpt lat="42.2287741" lon="13.8488724"><ele>867.6666666666666</ele><time>2026-05-02T09:41:07.654Z</time></trkpt><trkpt lat="42.2288533" lon="13.8488679"><ele>869.3333333333333</ele><time>2026-05-02T09:41:08.654Z</time></trkpt><trkpt lat="42.2289384" lon="13.8489291"><ele>871.0</ele><time>2026-05-02T09:41:09.653Z</time></trkpt><trkpt lat="42.229032" lon="13.8490019"><ele>873.1999999999999</ele><time>2026-05-02T09:41:10.654Z</time></trkpt><trkpt lat="42.2291347" lon="13.8490773"><ele>875.3999999999999</ele><time>2026-05-02T09:41:11.653Z</time></trkpt><trkpt lat="42.2292425" lon="13.8491494"><ele>877.6</ele><time>2026-05-02T09:41:12.652Z</time></trkpt><trkpt lat="42.2293319" lon="13.8492213"><ele>879.8</ele><time>2026-05-02T09:41:13.652Z</time></trkpt><trkpt lat="42.2294025" lon="13.8492879"><ele>882.0</ele><time>2026-05-02T09:41:14.651Z</time></trkpt><trkpt lat="42.2294691" lon="13.8493322"><ele>882.0</ele><time>2026-05-02T09:41:15.651Z</time></trkpt><trkpt lat="42.2295879" lon="13.8493171"><ele>882.0</ele><time>2026-05-02T09:41:17.655Z</time></trkpt><trkpt lat="42.2296615" lon="13.8492844"><ele>882.0</ele><time>2026-05-02T09:41:18.654Z</time></trkpt><trkpt lat="42.2297409" lon="13.849246"><ele>882.0</ele><time>2026-05-02T09:41:19.654Z</time></trkpt><trkpt lat="42.2298282" lon="13.8491985"><ele>882.0</ele><time>2026-05-02T09:41:20.654Z</time></trkpt><trkpt lat="42.2299147" lon="13.8491423"><ele>882.8</ele><time>2026-05-02T09:41:21.654Z</time></trkpt><trkpt lat="42.2300041" lon="13.8490836"><ele>883.6</ele><time>2026-05-02T09:41:22.654Z</time></trkpt><trkpt lat="42.2300879" lon="13.8490336"><ele>884.3999999999999</ele><time>2026-05-02T09:41:23.654Z</time></trkpt><trkpt lat="42.230168" lon="13.8489853"><ele>885.1999999999999</ele><time>2026-05-02T09:41:24.651Z</time></trkpt><trkpt lat="42.2302717" lon="13.8489339"><ele>886.0</ele><time>2026-05-02T09:41:25.654Z</time></trkpt><trkpt lat="42.2303754" lon="13.8488848"><ele>886.0</ele><time>2026-05-02T09:41:26.655Z</time></trkpt><trkpt lat="42.2304754" lon="13.848827"><ele>886.0</ele><time>2026-05-02T09:41:27.655Z</time></trkpt><trkpt lat="42.2305762" lon="13.8487853"><ele>886.0</ele><time>2026-05-02T09:41:28.653Z</time></trkpt><trkpt lat="42.2306904" lon="13.8487291"><ele>886.0</ele><time>2026-05-02T09:41:29.654Z</time></trkpt><trkpt lat="42.2308083" lon="13.8486729"><ele>886.0</ele><time>2026-05-02T09:41:30.654Z</time></trkpt><trkpt lat="42.2309099" lon="13.8486209"><ele>886.0</ele><time>2026-05-02T09:41:31.655Z</time></trkpt><trkpt lat="42.231016" lon="13.8485695"><ele>886.0</ele><time>2026-05-02T09:41:32.654Z</time></trkpt><trkpt lat="42.2311257" lon="13.8485135"><ele>886.0</ele><time>2026-05-02T09:41:33.654Z</time></trkpt><trkpt lat="42.2312372" lon="13.8484918"><ele>889.3333333333333</ele><time>2026-05-02T09:41:34.654Z</time></trkpt><trkpt lat="42.2313242" lon="13.8484379"><ele>892.6666666666666</ele><time>2026-05-02T09:41:35.655Z</time></trkpt><trkpt lat="42.2313962" lon="13.8484068"><ele>896.0</ele><time>2026-05-02T09:41:36.653Z</time></trkpt><trkpt lat="42.2314822" lon="13.848368"><ele>899.3333333333333</ele><time>2026-05-02T09:41:37.655Z</time></trkpt><trkpt lat="42.2315688" lon="13.8483495"><ele>902.6666666666666</ele><time>2026-05-02T09:41:38.654Z</time></trkpt><trkpt lat="42.2316364" lon="13.8483467"><ele>906.0</ele><time>2026-05-02T09:41:39.652Z</time></trkpt><trkpt lat="42.2317129" lon="13.8483392"><ele>906.0</ele><time>2026-05-02T09:41:40.654Z</time></trkpt><trkpt lat="42.2317918" lon="13.8483516"><ele>906.0</ele><time>2026-05-02T09:41:41.654Z</time></trkpt><trkpt lat="42.2318581" lon="13.8483457"><ele>906.0</ele><time>2026-05-02T09:41:42.655Z</time></trkpt><trkpt lat="42.2319252" lon="13.848336"><ele>906.0</ele><time>2026-05-02T09:41:43.65Z</time></trkpt><trkpt lat="42.2320389" lon="13.8483091"><ele>906.0</ele><time>2026-05-02T09:41:45.651Z</time></trkpt><trkpt lat="42.2321023" lon="13.8482414"><ele>906.0</ele><time>2026-05-02T09:41:47.652Z</time></trkpt><trkpt lat="42.2321857" lon="13.8481246"><ele>906.0</ele><time>2026-05-02T09:41:49.654Z</time></trkpt><trkpt lat="42.2322641" lon="13.848059"><ele>906.0</ele><time>2026-05-02T09:41:51.654Z</time></trkpt><trkpt lat="42.2323424" lon="13.8480268"><ele>906.0</ele><time>2026-05-02T09:41:53.649Z</time></trkpt><trkpt lat="42.2324556" lon="13.8480287"><ele>906.0</ele><time>2026-05-02T09:41:55.654Z</time></trkpt><trkpt lat="42.2325234" lon="13.8480319"><ele>906.0</ele><time>2026-05-02T09:41:56.65Z</time></trkpt><trkpt lat="42.2325915" lon="13.8480332"><ele>906.0</ele><time>2026-05-02T09:41:58.655Z</time></trkpt><trkpt lat="42.2325646" lon="13.8479347"><ele>906.0</ele><time>2026-05-02T09:42:08.655Z</time></trkpt><trkpt lat="42.2324699" lon="13.8478571"><ele>906.0</ele><time>2026-05-02T09:42:10.651Z</time></trkpt><trkpt lat="42.232413" lon="13.8478048"><ele>906.0</ele><time>2026-05-02T09:42:11.654Z</time></trkpt><trkpt lat="42.23235" lon="13.8477508"><ele>906.0</ele><time>2026-05-02T09:42:12.654Z</time></trkpt><trkpt lat="42.2322806" lon="13.8477019"><ele>906.0</ele><time>2026-05-02T09:42:13.654Z</time></trkpt><trkpt lat="42.2322101" lon="13.8476484"><ele>906.0</ele><time>2026-05-02T09:42:14.655Z</time></trkpt><trkpt lat="42.2321391" lon="13.8475865"><ele>910.1666666666666</ele><time>2026-05-02T09:42:15.652Z</time></trkpt><trkpt lat="42.2320676" lon="13.8475228"><ele>914.3333333333333</ele><time>2026-05-02T09:42:16.654Z</time></trkpt><trkpt lat="42.2319931" lon="13.847462"><ele>918.5</ele><time>2026-05-02T09:42:17.654Z</time></trkpt><trkpt lat="42.231923" lon="13.847402"><ele>922.6666666666666</ele><time>2026-05-02T09:42:18.65Z</time></trkpt><trkpt lat="42.2318637" lon="13.847359"><ele>926.8333333333333</ele><time>2026-05-02T09:42:19.654Z</time></trkpt><trkpt lat="42.231746" lon="13.8472968"><ele>931.0</ele><time>2026-05-02T09:42:21.648Z</time></trkpt><trkpt lat="42.2316805" lon="13.8472706"><ele>930.9999999999999</ele><time>2026-05-02T09:42:22.649Z</time></trkpt><trkpt lat="42.2316018" lon="13.8472723"><ele>931.0</ele><time>2026-05-02T09:42:23.654Z</time></trkpt><trkpt lat="42.2315229" lon="13.8472761"><ele>931.0</ele><time>2026-05-02T09:42:24.651Z</time></trkpt><trkpt lat="42.2314492" lon="13.8472638"><ele>931.0</ele><time>2026-05-02T09:42:25.652Z</time></trkpt><trkpt lat="42.2313849" lon="13.8472191"><ele>930.9999999999999</ele><time>2026-05-02T09:42:26.65Z</time></trkpt><trkpt lat="42.2313084" lon="13.8471559"><ele>931.0</ele><time>2026-05-02T09:42:27.652Z</time></trkpt><trkpt lat="42.2312338" lon="13.847089"><ele>930.9999999999999</ele><time>2026-05-02T09:42:28.652Z</time></trkpt><trkpt lat="42.23116" lon="13.8470152"><ele>931.0</ele><time>2026-05-02T09:42:29.653Z</time></trkpt><trkpt lat="42.2310856" lon="13.8469559"><ele>931.0</ele><time>2026-05-02T09:42:30.654Z</time></trkpt><trkpt lat="42.2310187" lon="13.846926"><ele>931.0</ele><time>2026-05-02T09:42:31.65Z</time></trkpt><trkpt lat="42.2309527" lon="13.8469145"><ele>930.9999999999999</ele><time>2026-05-02T09:42:32.654Z</time></trkpt><trkpt lat="42.2308804" lon="13.8469216"><ele>931.0</ele><time>2026-05-02T09:42:33.655Z</time></trkpt><trkpt lat="42.2307998" lon="13.8469427"><ele>931.0</ele><time>2026-05-02T09:42:34.654Z</time></trkpt><trkpt lat="42.230704" lon="13.8469821"><ele>931.0</ele><time>2026-05-02T09:42:35.651Z</time></trkpt><trkpt lat="42.2305936" lon="13.8470217"><ele>931.0</ele><time>2026-05-02T09:42:36.654Z</time></trkpt><trkpt lat="42.2304741" lon="13.8470652"><ele>931.0</ele><time>2026-05-02T09:42:37.651Z</time></trkpt><trkpt lat="42.2303577" lon="13.8471029"><ele>931.5999999999999</ele><time>2026-05-02T09:42:38.654Z</time></trkpt><trkpt lat="42.230247" lon="13.8471422"><ele>932.1999999999999</ele><time>2026-05-02T09:42:39.651Z</time></trkpt><trkpt lat="42.2301382" lon="13.8471824"><ele>932.8000000000001</ele><time>2026-05-02T09:42:40.653Z</time></trkpt><trkpt lat="42.2300361" lon="13.847224"><ele>933.4000000000001</ele><time>2026-05-02T09:42:41.652Z</time></trkpt><trkpt lat="42.2299416" lon="13.8472628"><ele>934.0</ele><time>2026-05-02T09:42:42.654Z</time></trkpt><trkpt lat="42.2298531" lon="13.8473069"><ele>934.9999999999999</ele><time>2026-05-02T09:42:43.654Z</time></trkpt><trkpt lat="42.2297681" lon="13.8473483"><ele>936.0</ele><time>2026-05-02T09:42:44.655Z</time></trkpt><trkpt lat="42.2296848" lon="13.8473879"><ele>937.0</ele><time>2026-05-02T09:42:45.655Z</time></trkpt><trkpt lat="42.2296025" lon="13.8474271"><ele>938.0</ele><time>2026-05-02T09:42:46.651Z</time></trkpt><trkpt lat="42.2295209" lon="13.8474642"><ele>938.9999999999999</ele><time>2026-05-02T09:42:47.654Z</time></trkpt><trkpt lat="42.2294358" lon="13.8475038"><ele>940.0</ele><time>2026-05-02T09:42:48.655Z</time></trkpt><trkpt lat="42.2293433" lon="13.8475407"><ele>940.0</ele><time>2026-05-02T09:42:49.654Z</time></trkpt><trkpt lat="42.22924" lon="13.8475738"><ele>940.0</ele><time>2026-05-02T09:42:50.654Z</time></trkpt><trkpt lat="42.2291289" lon="13.8475976"><ele>940.0</ele><time>2026-05-02T09:42:51.652Z</time></trkpt><trkpt lat="42.2290163" lon="13.8476192"><ele>940.0</ele><time>2026-05-02T09:42:52.653Z</time></trkpt><trkpt lat="42.2289063" lon="13.8476402"><ele>940.0</ele><time>2026-05-02T09:42:53.655Z</time></trkpt><trkpt lat="42.2287984" lon="13.847666"><ele>933.2</ele><time>2026-05-02T09:42:54.651Z</time></trkpt><trkpt lat="42.2286938" lon="13.8476958"><ele>926.4</ele><time>2026-05-02T09:42:55.655Z</time></trkpt><trkpt lat="42.2285919" lon="13.8477273"><ele>919.5999999999999</ele><time>2026-05-02T09:42:56.655Z</time></trkpt><trkpt lat="42.2284884" lon="13.84775"><ele>912.8</ele><time>2026-05-02T09:42:57.654Z</time></trkpt><trkpt lat="42.2283841" lon="13.8477653"><ele>906.0</ele><time>2026-05-02T09:42:58.654Z</time></trkpt><trkpt lat="42.2282793" lon="13.8477764"><ele>906.0</ele><time>2026-05-02T09:42:59.654Z</time></trkpt><trkpt lat="42.2281724" lon="13.8477834"><ele>905.9999999999999</ele><time>2026-05-02T09:43:00.652Z</time></trkpt><trkpt lat="42.2280663" lon="13.8477867"><ele>905.9999999999999</ele><time>2026-05-02T09:43:01.654Z</time></trkpt><trkpt lat="42.2279657" lon="13.8477879"><ele>906.0</ele><time>2026-05-02T09:43:02.651Z</time></trkpt><trkpt lat="42.2278648" lon="13.8477934"><ele>906.0</ele><time>2026-05-02T09:43:03.65Z</time></trkpt><trkpt lat="42.2277556" lon="13.8477905"><ele>905.4</ele><time>2026-05-02T09:43:04.651Z</time></trkpt><trkpt lat="42.2276563" lon="13.8477884"><ele>904.8</ele><time>2026-05-02T09:43:05.65Z</time></trkpt><trkpt lat="42.2275479" lon="13.8477822"><ele>904.1999999999999</ele><time>2026-05-02T09:43:06.653Z</time></trkpt><trkpt lat="42.2274393" lon="13.8477713"><ele>903.5999999999999</ele><time>2026-05-02T09:43:07.651Z</time></trkpt><trkpt lat="42.2273272" lon="13.8477615"><ele>903.0</ele><time>2026-05-02T09:43:08.652Z</time></trkpt><trkpt lat="42.2272092" lon="13.8477583"><ele>903.0</ele><time>2026-05-02T09:43:09.651Z</time></trkpt><trkpt lat="42.2270762" lon="13.8477505"><ele>903.0</ele><time>2026-05-02T09:43:10.651Z</time></trkpt><trkpt lat="42.2269408" lon="13.8477476"><ele>903.0</ele><time>2026-05-02T09:43:11.655Z</time></trkpt><trkpt lat="42.226799" lon="13.8477548"><ele>903.0</ele><time>2026-05-02T09:43:12.655Z</time></trkpt><trkpt lat="42.2266547" lon="13.847753"><ele>903.0</ele><time>2026-05-02T09:43:13.653Z</time></trkpt><trkpt lat="42.2265092" lon="13.8477588"><ele>903.0</ele><time>2026-05-02T09:43:14.652Z</time></trkpt><trkpt lat="42.2263606" lon="13.8477595"><ele>903.0</ele><time>2026-05-02T09:43:15.649Z</time></trkpt><trkpt lat="42.2262086" lon="13.8477644"><ele>903.0</ele><time>2026-05-02T09:43:16.649Z</time></trkpt><trkpt lat="42.2260656" lon="13.847769"><ele>903.5</ele><time>2026-05-02T09:43:17.65Z</time></trkpt><trkpt lat="42.2259314" lon="13.8477738"><ele>904.0</ele><time>2026-05-02T09:43:18.654Z</time></trkpt><trkpt lat="42.225803" lon="13.8477704"><ele>904.5</ele><time>2026-05-02T09:43:19.654Z</time></trkpt><trkpt lat="42.2256842" lon="13.8477497"><ele>905.0</ele><time>2026-05-02T09:43:20.654Z</time></trkpt><trkpt lat="42.2255801" lon="13.8477197"><ele>902.4</ele><time>2026-05-02T09:43:21.654Z</time></trkpt><trkpt lat="42.2254859" lon="13.8476797"><ele>899.8</ele><time>2026-05-02T09:43:22.654Z</time></trkpt><trkpt lat="42.2253993" lon="13.8476261"><ele>897.2</ele><time>2026-05-02T09:43:23.652Z</time></trkpt><trkpt lat="42.2253045" lon="13.8475625"><ele>894.6</ele><time>2026-05-02T09:43:24.654Z</time></trkpt><trkpt lat="42.2251998" lon="13.8475013"><ele>892.0</ele><time>2026-05-02T09:43:25.654Z</time></trkpt><trkpt lat="42.2250933" lon="13.8474524"><ele>893.8</ele><time>2026-05-02T09:43:26.654Z</time></trkpt><trkpt lat="42.224985" lon="13.8474102"><ele>895.6</ele><time>2026-05-02T09:43:27.655Z</time></trkpt><trkpt lat="42.2248841" lon="13.8473742"><ele>897.3999999999999</ele><time>2026-05-02T09:43:28.654Z</time></trkpt><trkpt lat="42.2247999" lon="13.8473342"><ele>899.1999999999999</ele><time>2026-05-02T09:43:29.65Z</time></trkpt><trkpt lat="42.2247389" lon="13.8472902"><ele>901.0</ele><time>2026-05-02T09:43:30.653Z</time></trkpt><trkpt lat="42.2246816" lon="13.8471918"><ele>901.0</ele><time>2026-05-02T09:43:32.655Z</time></trkpt><trkpt lat="42.2246538" lon="13.8470123"><ele>900.9999999999999</ele><time>2026-05-02T09:43:34.651Z</time></trkpt><trkpt lat="42.2246453" lon="13.846908"><ele>900.9999999999999</ele><time>2026-05-02T09:43:35.654Z</time></trkpt><trkpt lat="42.2246705" lon="13.8467509"><ele>901.0</ele><time>2026-05-02T09:43:37.652Z</time></trkpt><trkpt lat="42.2247105" lon="13.8466746"><ele>901.0</ele><time>2026-05-02T09:43:38.654Z</time></trkpt><trkpt lat="42.224769" lon="13.8465825"><ele>908.1999999999999</ele><time>2026-05-02T09:43:39.654Z</time></trkpt><trkpt lat="42.2248371" lon="13.8464776"><ele>915.3999999999999</ele><time>2026-05-02T09:43:40.654Z</time></trkpt><trkpt lat="42.2249128" lon="13.8463651"><ele>922.6</ele><time>2026-05-02T09:43:41.655Z</time></trkpt><trkpt lat="42.2249929" lon="13.846255"><ele>929.8</ele><time>2026-05-02T09:43:42.655Z</time></trkpt><trkpt lat="42.2250791" lon="13.8461527"><ele>937.0</ele><time>2026-05-02T09:43:43.653Z</time></trkpt><trkpt lat="42.2251799" lon="13.8460512"><ele>939.75</ele><time>2026-05-02T09:43:44.654Z</time></trkpt><trkpt lat="42.2252963" lon="13.8459615"><ele>942.5</ele><time>2026-05-02T09:43:45.651Z</time></trkpt><trkpt lat="42.225415" lon="13.8458845"><ele>945.25</ele><time>2026-05-02T09:43:46.653Z</time></trkpt><trkpt lat="42.225528" lon="13.8458044"><ele>948.0</ele><time>2026-05-02T09:43:47.651Z</time></trkpt><trkpt lat="42.2256378" lon="13.8457305"><ele>948.5</ele><time>2026-05-02T09:43:48.654Z</time></trkpt><trkpt lat="42.2257471" lon="13.8456566"><ele>949.0</ele><time>2026-05-02T09:43:49.653Z</time></trkpt><trkpt lat="42.2258596" lon="13.8455795"><ele>949.5</ele><time>2026-05-02T09:43:50.654Z</time></trkpt><trkpt lat="42.2259727" lon="13.8454931"><ele>950.0</ele><time>2026-05-02T09:43:51.654Z</time></trkpt><trkpt lat="42.2260859" lon="13.8453931"><ele>950.0</ele><time>2026-05-02T09:43:52.654Z</time></trkpt><trkpt lat="42.2261968" lon="13.8452867"><ele>950.0</ele><time>2026-05-02T09:43:53.651Z</time></trkpt><trkpt lat="42.2263087" lon="13.8451818"><ele>950.0</ele><time>2026-05-02T09:43:54.652Z</time></trkpt><trkpt lat="42.2264172" lon="13.845077"><ele>950.0</ele><time>2026-05-02T09:43:55.65Z</time></trkpt><trkpt lat="42.2265228" lon="13.8449687"><ele>953.5</ele><time>2026-05-02T09:43:56.654Z</time></trkpt><trkpt lat="42.2266253" lon="13.844862"><ele>957.0</ele><time>2026-05-02T09:43:57.654Z</time></trkpt><trkpt lat="42.2267365" lon="13.8447644"><ele>960.5</ele><time>2026-05-02T09:43:58.655Z</time></trkpt><trkpt lat="42.2268552" lon="13.8446696"><ele>964.0</ele><time>2026-05-02T09:43:59.653Z</time></trkpt><trkpt lat="42.226976" lon="13.844577"><ele>964.0</ele><time>2026-05-02T09:44:00.654Z</time></trkpt><trkpt lat="42.2270971" lon="13.8444786"><ele>964.0</ele><time>2026-05-02T09:44:01.651Z</time></trkpt><trkpt lat="42.2272166" lon="13.8443774"><ele>964.0</ele><time>2026-05-02T09:44:02.652Z</time></trkpt><trkpt lat="42.2273337" lon="13.8442849"><ele>964.0</ele><time>2026-05-02T09:44:03.653Z</time></trkpt><trkpt lat="42.2274357" lon="13.8442131"><ele>966.4999999999999</ele><time>2026-05-02T09:44:04.655Z</time></trkpt><trkpt lat="42.2275233" lon="13.8441557"><ele>969.0</ele><time>2026-05-02T09:44:05.653Z</time></trkpt><trkpt lat="42.2275946" lon="13.8441002"><ele>971.5</ele><time>2026-05-02T09:44:06.652Z</time></trkpt><trkpt lat="42.2276425" lon="13.844042"><ele>974.0</ele><time>2026-05-02T09:44:07.655Z</time></trkpt><trkpt lat="42.2276738" lon="13.8439151"><ele>976.4999999999999</ele><time>2026-05-02T09:44:09.654Z</time></trkpt><trkpt lat="42.2276315" lon="13.8438013"><ele>979.0</ele><time>2026-05-02T09:44:11.655Z</time></trkpt><trkpt lat="42.2275215" lon="13.8437557"><ele>979.0</ele><time>2026-05-02T09:44:13.654Z</time></trkpt><trkpt lat="42.2274548" lon="13.8437721"><ele>979.0</ele><time>2026-05-02T09:44:14.654Z</time></trkpt><trkpt lat="42.2273881" lon="13.8437929"><ele>979.0</ele><time>2026-05-02T09:44:15.654Z</time></trkpt><trkpt lat="42.2273205" lon="13.8438077"><ele>979.0</ele><time>2026-05-02T09:44:16.654Z</time></trkpt><trkpt lat="42.2272488" lon="13.8438169"><ele>979.0</ele><time>2026-05-02T09:44:17.65Z</time></trkpt><trkpt lat="42.2271708" lon="13.8438187"><ele>979.0</ele><time>2026-05-02T09:44:18.654Z</time></trkpt><trkpt lat="42.2270891" lon="13.8438189"><ele>979.0</ele><time>2026-05-02T09:44:19.651Z</time></trkpt><trkpt lat="42.2270078" lon="13.8438156"><ele>979.9999999999999</ele><time>2026-05-02T09:44:20.652Z</time></trkpt><trkpt lat="42.2269272" lon="13.8438118"><ele>981.0</ele><time>2026-05-02T09:44:21.65Z</time></trkpt><trkpt lat="42.2268531" lon="13.8438076"><ele>982.0</ele><time>2026-05-02T09:44:22.651Z</time></trkpt><trkpt lat="42.226785" lon="13.843802"><ele>983.0</ele><time>2026-05-02T09:44:23.654Z</time></trkpt><trkpt lat="42.2266622" lon="13.8437684"><ele>983.9999999999999</ele><time>2026-05-02T09:44:25.653Z</time></trkpt><trkpt lat="42.2265979" lon="13.8437327"><ele>985.0</ele><time>2026-05-02T09:44:26.654Z</time></trkpt><trkpt lat="42.2265235" lon="13.8436872"><ele>986.0</ele><time>2026-05-02T09:44:27.654Z</time></trkpt><trkpt lat="42.2264267" lon="13.8436351"><ele>987.0</ele><time>2026-05-02T09:44:28.654Z</time></trkpt><trkpt lat="42.2263191" lon="13.843579"><ele>988.0</ele><time>2026-05-02T09:44:29.652Z</time></trkpt><trkpt lat="42.2262284" lon="13.8435351"><ele>989.0</ele><time>2026-05-02T09:44:30.653Z</time></trkpt><trkpt lat="42.2261448" lon="13.8434852"><ele>990.0</ele><time>2026-05-02T09:44:32.654Z</time></trkpt><trkpt lat="42.2260675" lon="13.8435132"><ele>990.0</ele><time>2026-05-02T09:44:35.651Z</time></trkpt><trkpt lat="42.2259351" lon="13.8435577"><ele>990.0</ele><time>2026-05-02T09:44:37.651Z</time></trkpt><trkpt lat="42.2258567" lon="13.8435908"><ele>990.0</ele><time>2026-05-02T09:44:38.652Z</time></trkpt><trkpt lat="42.2257853" lon="13.8436322"><ele>990.0</ele><time>2026-05-02T09:44:39.651Z</time></trkpt><trkpt lat="42.2257375" lon="13.8436902"><ele>990.0</ele><time>2026-05-02T09:44:40.654Z</time></trkpt><trkpt lat="42.2256843" lon="13.8437843"><ele>990.0</ele><time>2026-05-02T09:44:42.649Z</time></trkpt><trkpt lat="42.2256" lon="13.8438398"><ele>988.6</ele><time>2026-05-02T09:44:44.652Z</time></trkpt><trkpt lat="42.2254851" lon="13.8438665"><ele>987.2</ele><time>2026-05-02T09:44:46.654Z</time></trkpt><trkpt lat="42.2253875" lon="13.8438749"><ele>985.8</ele><time>2026-05-02T09:44:48.655Z</time></trkpt><trkpt lat="42.2252973" lon="13.8438905"><ele>984.4</ele><time>2026-05-02T09:44:56.652Z</time></trkpt><trkpt lat="42.2253632" lon="13.8438918"><ele>983.0</ele><time>2026-05-02T09:45:01.651Z</time></trkpt><trkpt lat="42.2253342" lon="13.8439902"><ele>983.0000000000001</ele><time>2026-05-02T09:45:13.655Z</time></trkpt><trkpt lat="42.2252695" lon="13.8440158"><ele>983.0</ele><time>2026-05-02T09:45:15.653Z</time></trkpt><trkpt lat="42.225201" lon="13.844028"><ele>983.0</ele><time>2026-05-02T09:45:17.654Z</time></trkpt><trkpt lat="42.22528" lon="13.8440293"><ele>983.0</ele><time>2026-05-02T09:45:32.654Z</time></trkpt><trkpt lat="42.225368" lon="13.8439681"><ele>983.0000000000001</ele><time>2026-05-02T09:45:34.655Z</time></trkpt><trkpt lat="42.2254366" lon="13.8438971"><ele>983.0</ele><time>2026-05-02T09:45:36.654Z</time></trkpt><trkpt lat="42.2255105" lon="13.8438699"><ele>983.0</ele><time>2026-05-02T09:45:38.654Z</time></trkpt><trkpt lat="42.2256011" lon="13.8438536"><ele>983.0</ele><time>2026-05-02T09:45:40.654Z</time></trkpt><trkpt lat="42.2256775" lon="13.8437935"><ele>983.0</ele><time>2026-05-02T09:45:42.654Z</time></trkpt><trkpt lat="42.2257436" lon="13.8437"><ele>983.0</ele><time>2026-05-02T09:45:44.654Z</time></trkpt><trkpt lat="42.2258409" lon="13.843604"><ele>983.0</ele><time>2026-05-02T09:45:46.654Z</time></trkpt><trkpt lat="42.2259532" lon="13.8435696"><ele>984.4</ele><time>2026-05-02T09:45:48.655Z</time></trkpt><trkpt lat="42.2260488" lon="13.8435442"><ele>985.8</ele><time>2026-05-02T09:45:50.654Z</time></trkpt><trkpt lat="42.2261145" lon="13.8435136"><ele>987.2</ele><time>2026-05-02T09:45:52.65Z</time></trkpt><trkpt lat="42.2262148" lon="13.8435444"><ele>988.6</ele><time>2026-05-02T09:45:54.654Z</time></trkpt><trkpt lat="42.2262771" lon="13.8435828"><ele>990.0</ele><time>2026-05-02T09:45:55.655Z</time></trkpt><trkpt lat="42.2263908" lon="13.8436411"><ele>990.0</ele><time>2026-05-02T09:45:57.655Z</time></trkpt><trkpt lat="42.2265023" lon="13.8436945"><ele>990.0</ele><time>2026-05-02T09:45:59.654Z</time></trkpt><trkpt lat="42.2265987" lon="13.8437291"><ele>990.0</ele><time>2026-05-02T09:46:01.654Z</time></trkpt><trkpt lat="42.2265937" lon="13.8438401"><ele>990.0</ele><time>2026-05-02T09:46:04.654Z</time></trkpt><trkpt lat="42.2264917" lon="13.8439001"><ele>990.0</ele><time>2026-05-02T09:46:06.65Z</time></trkpt><trkpt lat="42.2263821" lon="13.8439508"><ele>990.0</ele><time>2026-05-02T09:46:07.651Z</time></trkpt><trkpt lat="42.2262534" lon="13.8440052"><ele>990.0</ele><time>2026-05-02T09:46:08.654Z</time></trkpt><trkpt lat="42.2261189" lon="13.8440656"><ele>990.0</ele><time>2026-05-02T09:46:09.653Z</time></trkpt><trkpt lat="42.2259835" lon="13.844126"><ele>990.0</ele><time>2026-05-02T09:46:10.65Z</time></trkpt><trkpt lat="42.2258577" lon="13.844168"><ele>990.0</ele><time>2026-05-02T09:46:11.652Z</time></trkpt><trkpt lat="42.2257372" lon="13.8442132"><ele>990.0</ele><time>2026-05-02T09:46:12.654Z</time></trkpt><trkpt lat="42.225629" lon="13.8442621"><ele>990.0</ele><time>2026-05-02T09:46:13.654Z</time></trkpt><trkpt lat="42.2255444" lon="13.8443072"><ele>990.0</ele><time>2026-05-02T09:46:14.654Z</time></trkpt><trkpt lat="42.2254785" lon="13.8443566"><ele>990.0</ele><time>2026-05-02T09:46:15.655Z</time></trkpt><trkpt lat="42.2254246" lon="13.844406"><ele>987.0</ele><time>2026-05-02T09:46:16.654Z</time></trkpt><trkpt lat="42.2253573" lon="13.8444404"><ele>984.0</ele><time>2026-05-02T09:46:23.655Z</time></trkpt><trkpt lat="42.2253012" lon="13.8444892"><ele>981.0</ele><time>2026-05-02T09:46:25.65Z</time></trkpt><trkpt lat="42.2251948" lon="13.844541"><ele>978.0</ele><time>2026-05-02T09:46:27.653Z</time></trkpt><trkpt lat="42.2251296" lon="13.8445502"><ele>975.0</ele><time>2026-05-02T09:46:28.652Z</time></trkpt><trkpt lat="42.225055" lon="13.8445542"><ele>972.0</ele><time>2026-05-02T09:46:29.654Z</time></trkpt><trkpt lat="42.2249745" lon="13.8445598"><ele>972.0</ele><time>2026-05-02T09:46:30.652Z</time></trkpt><trkpt lat="42.2248889" lon="13.8445694"><ele>972.0</ele><time>2026-05-02T09:46:31.655Z</time></trkpt><trkpt lat="42.2248078" lon="13.8445665"><ele>972.0</ele><time>2026-05-02T09:46:32.65Z</time></trkpt><trkpt lat="42.2247263" lon="13.8445537"><ele>972.0</ele><time>2026-05-02T09:46:33.651Z</time></trkpt><trkpt lat="42.2246331" lon="13.8444602"><ele>972.0</ele><time>2026-05-02T09:46:35.654Z</time></trkpt><trkpt lat="42.224615" lon="13.844299"><ele>974.2</ele><time>2026-05-02T09:46:37.649Z</time></trkpt><trkpt lat="42.2246389" lon="13.8442014"><ele>976.4000000000001</ele><time>2026-05-02T09:46:38.65Z</time></trkpt><trkpt lat="42.2246857" lon="13.8440703"><ele>978.5999999999999</ele><time>2026-05-02T09:46:39.651Z</time></trkpt><trkpt lat="42.2247372" lon="13.8439212"><ele>980.8</ele><time>2026-05-02T09:46:40.655Z</time></trkpt><trkpt lat="42.2247828" lon="13.8437796"><ele>983.0</ele><time>2026-05-02T09:46:41.654Z</time></trkpt><trkpt lat="42.2248304" lon="13.8436468"><ele>983.0</ele><time>2026-05-02T09:46:42.654Z</time></trkpt><trkpt lat="42.2248795" lon="13.8435233"><ele>983.0</ele><time>2026-05-02T09:46:43.655Z</time></trkpt><trkpt lat="42.224936" lon="13.8434006"><ele>983.0</ele><time>2026-05-02T09:46:44.655Z</time></trkpt><trkpt lat="42.224996" lon="13.8432958"><ele>983.0</ele><time>2026-05-02T09:46:45.651Z</time></trkpt><trkpt lat="42.2250527" lon="13.8432088"><ele>983.0</ele><time>2026-05-02T09:46:46.654Z</time></trkpt><trkpt lat="42.2251162" lon="13.8431339"><ele>980.0</ele><time>2026-05-02T09:46:47.654Z</time></trkpt><trkpt lat="42.2251857" lon="13.8430541"><ele>977.0</ele><time>2026-05-02T09:46:48.654Z</time></trkpt><trkpt lat="42.2252549" lon="13.8429542"><ele>974.0</ele><time>2026-05-02T09:46:49.655Z</time></trkpt><trkpt lat="42.225339" lon="13.8428309"><ele>971.0</ele><time>2026-05-02T09:46:50.655Z</time></trkpt><trkpt lat="42.2254344" lon="13.8427034"><ele>970.25</ele><time>2026-05-02T09:46:51.654Z</time></trkpt><trkpt lat="42.2255278" lon="13.8425726"><ele>969.5</ele><time>2026-05-02T09:46:52.654Z</time></trkpt><trkpt lat="42.2256225" lon="13.8424508"><ele>968.75</ele><time>2026-05-02T09:46:53.654Z</time></trkpt><trkpt lat="42.2257202" lon="13.8423396"><ele>968.0</ele><time>2026-05-02T09:46:54.654Z</time></trkpt><trkpt lat="42.2258242" lon="13.8422469"><ele>968.0</ele><time>2026-05-02T09:46:55.654Z</time></trkpt><trkpt lat="42.2259345" lon="13.8421783"><ele>968.0</ele><time>2026-05-02T09:46:56.654Z</time></trkpt><trkpt lat="42.226047" lon="13.8421224"><ele>968.0</ele><time>2026-05-02T09:46:57.655Z</time></trkpt><trkpt lat="42.2261501" lon="13.8420855"><ele>968.0</ele><time>2026-05-02T09:46:58.655Z</time></trkpt><trkpt lat="42.2262406" lon="13.8420786"><ele>968.0</ele><time>2026-05-02T09:46:59.654Z</time></trkpt><trkpt lat="42.2263435" lon="13.8420851"><ele>968.0</ele><time>2026-05-02T09:47:00.654Z</time></trkpt><trkpt lat="42.2264567" lon="13.8420885"><ele>968.0</ele><time>2026-05-02T09:47:01.655Z</time></trkpt><trkpt lat="42.2265744" lon="13.8420802"><ele>968.0</ele><time>2026-05-02T09:47:02.649Z</time></trkpt><trkpt lat="42.2266963" lon="13.8420632"><ele>968.0</ele><time>2026-05-02T09:47:03.655Z</time></trkpt><trkpt lat="42.226822" lon="13.8420499"><ele>969.0</ele><time>2026-05-02T09:47:04.651Z</time></trkpt><trkpt lat="42.2269496" lon="13.8420407"><ele>970.0</ele><time>2026-05-02T09:47:05.65Z</time></trkpt><trkpt lat="42.2270753" lon="13.8420351"><ele>971.0</ele><time>2026-05-02T09:47:06.652Z</time></trkpt><trkpt lat="42.227201" lon="13.842024"><ele>972.0</ele><time>2026-05-02T09:47:07.65Z</time></trkpt><trkpt lat="42.2273289" lon="13.842015"><ele>970.0</ele><time>2026-05-02T09:47:08.654Z</time></trkpt><trkpt lat="42.2274563" lon="13.8419969"><ele>968.0</ele><time>2026-05-02T09:47:09.655Z</time></trkpt><trkpt lat="42.2275823" lon="13.8419801"><ele>966.0</ele><time>2026-05-02T09:47:10.654Z</time></trkpt><trkpt lat="42.2277032" lon="13.8419698"><ele>964.0</ele><time>2026-05-02T09:47:11.654Z</time></trkpt><trkpt lat="42.2278215" lon="13.8419499"><ele>964.0</ele><time>2026-05-02T09:47:12.652Z</time></trkpt><trkpt lat="42.2279411" lon="13.8419172"><ele>964.0</ele><time>2026-05-02T09:47:13.652Z</time></trkpt><trkpt lat="42.2280615" lon="13.841872"><ele>964.0</ele><time>2026-05-02T09:47:14.65Z</time></trkpt><trkpt lat="42.2281844" lon="13.8418294"><ele>964.0</ele><time>2026-05-02T09:47:15.652Z</time></trkpt><trkpt lat="42.2283033" lon="13.8417801"><ele>957.6</ele><time>2026-05-02T09:47:16.655Z</time></trkpt><trkpt lat="42.2284048" lon="13.8417332"><ele>951.2</ele><time>2026-05-02T09:47:17.654Z</time></trkpt><trkpt lat="42.2284956" lon="13.8416712"><ele>944.8000000000001</ele><time>2026-05-02T09:47:18.654Z</time></trkpt><trkpt lat="42.2285722" lon="13.8415906"><ele>938.4000000000001</ele><time>2026-05-02T09:47:19.654Z</time></trkpt><trkpt lat="42.2286423" lon="13.8414881"><ele>932.0</ele><time>2026-05-02T09:47:20.655Z</time></trkpt><trkpt lat="42.228706" lon="13.8413569"><ele>932.0</ele><time>2026-05-02T09:47:21.654Z</time></trkpt><trkpt lat="42.2287696" lon="13.8412119"><ele>932.0</ele><time>2026-05-02T09:47:22.654Z</time></trkpt><trkpt lat="42.2288331" lon="13.8410481"><ele>932.0</ele><time>2026-05-02T09:47:23.654Z</time></trkpt><trkpt lat="42.2288937" lon="13.8408764"><ele>932.0</ele><time>2026-05-02T09:47:24.651Z</time></trkpt><trkpt lat="42.2289524" lon="13.8406963"><ele>933.25</ele><time>2026-05-02T09:47:25.655Z</time></trkpt><trkpt lat="42.229011" lon="13.840521"><ele>934.5</ele><time>2026-05-02T09:47:26.654Z</time></trkpt><trkpt lat="42.2290716" lon="13.8403499"><ele>935.75</ele><time>2026-05-02T09:47:27.654Z</time></trkpt><trkpt lat="42.2291351" lon="13.8401809"><ele>937.0</ele><time>2026-05-02T09:47:28.654Z</time></trkpt><trkpt lat="42.2292003" lon="13.8400156"><ele>931.25</ele><time>2026-05-02T09:47:29.654Z</time></trkpt><trkpt lat="42.2292685" lon="13.8398517"><ele>925.5</ele><time>2026-05-02T09:47:30.653Z</time></trkpt><trkpt lat="42.2293388" lon="13.8396891"><ele>919.75</ele><time>2026-05-02T09:47:31.654Z</time></trkpt><trkpt lat="42.2294186" lon="13.8395329"><ele>914.0</ele><time>2026-05-02T09:47:32.653Z</time></trkpt><trkpt lat="42.2295129" lon="13.8393791"><ele>919.3333333333334</ele><time>2026-05-02T09:47:33.653Z</time></trkpt><trkpt lat="42.2296192" lon="13.8392191"><ele>924.6666666666667</ele><time>2026-05-02T09:47:34.654Z</time></trkpt><trkpt lat="42.2297301" lon="13.8390528"><ele>930.0</ele><time>2026-05-02T09:47:35.653Z</time></trkpt><trkpt lat="42.2298356" lon="13.8388794"><ele>930.0</ele><time>2026-05-02T09:47:36.653Z</time></trkpt><trkpt lat="42.2299332" lon="13.8387065"><ele>930.0</ele><time>2026-05-02T09:47:37.651Z</time></trkpt><trkpt lat="42.2300268" lon="13.8385325"><ele>930.0</ele><time>2026-05-02T09:47:38.651Z</time></trkpt><trkpt lat="42.2301112" lon="13.8383577"><ele>921.5</ele><time>2026-05-02T09:47:39.651Z</time></trkpt><trkpt lat="42.2301871" lon="13.8381946"><ele>913.0</ele><time>2026-05-02T09:47:40.653Z</time></trkpt><trkpt lat="42.2302524" lon="13.838067"><ele>904.5</ele><time>2026-05-02T09:47:41.654Z</time></trkpt><trkpt lat="42.2303224" lon="13.8379549"><ele>896.0</ele><time>2026-05-02T09:47:42.652Z</time></trkpt><trkpt lat="42.230406" lon="13.837856"><ele>896.0</ele><time>2026-05-02T09:47:43.655Z</time></trkpt><trkpt lat="42.2305007" lon="13.8377644"><ele>896.0</ele><time>2026-05-02T09:47:44.655Z</time></trkpt><trkpt lat="42.2305998" lon="13.8376728"><ele>896.0</ele><time>2026-05-02T09:47:45.652Z</time></trkpt><trkpt lat="42.2307021" lon="13.837594"><ele>896.0</ele><time>2026-05-02T09:47:46.655Z</time></trkpt><trkpt lat="42.2308021" lon="13.8375186"><ele>894.8</ele><time>2026-05-02T09:47:47.654Z</time></trkpt><trkpt lat="42.2308873" lon="13.837457"><ele>893.5999999999999</ele><time>2026-05-02T09:47:48.654Z</time></trkpt><trkpt lat="42.2309652" lon="13.837407"><ele>892.4</ele><time>2026-05-02T09:47:49.652Z</time></trkpt><trkpt lat="42.2310536" lon="13.8373644"><ele>891.2</ele><time>2026-05-02T09:47:50.653Z</time></trkpt><trkpt lat="42.2311517" lon="13.8373275"><ele>890.0</ele><time>2026-05-02T09:47:51.653Z</time></trkpt><trkpt lat="42.2312581" lon="13.8372949"><ele>890.0</ele><time>2026-05-02T09:47:52.651Z</time></trkpt><trkpt lat="42.23137" lon="13.8372611"><ele>890.0</ele><time>2026-05-02T09:47:53.65Z</time></trkpt><trkpt lat="42.2314849" lon="13.8372316"><ele>890.0</ele><time>2026-05-02T09:47:54.653Z</time></trkpt><trkpt lat="42.2316017" lon="13.8372012"><ele>890.0</ele><time>2026-05-02T09:47:55.654Z</time></trkpt><trkpt lat="42.2317186" lon="13.8371728"><ele>892.5</ele><time>2026-05-02T09:47:56.654Z</time></trkpt><trkpt lat="42.2318335" lon="13.8371417"><ele>895.0</ele><time>2026-05-02T09:47:57.652Z</time></trkpt><trkpt lat="42.2319467" lon="13.8371127"><ele>897.5</ele><time>2026-05-02T09:47:58.654Z</time></trkpt><trkpt lat="42.23206" lon="13.8370971"><ele>900.0</ele><time>2026-05-02T09:47:59.654Z</time></trkpt><trkpt lat="42.232168" lon="13.8370923"><ele>900.0</ele><time>2026-05-02T09:48:00.655Z</time></trkpt><trkpt lat="42.2322522" lon="13.8370997"><ele>900.0</ele><time>2026-05-02T09:48:01.655Z</time></trkpt><trkpt lat="42.2323203" lon="13.8371125"><ele>900.0</ele><time>2026-05-02T09:48:02.655Z</time></trkpt><trkpt lat="42.2323941" lon="13.8371305"><ele>900.0</ele><time>2026-05-02T09:48:03.654Z</time></trkpt><trkpt lat="42.232499" lon="13.8371369"><ele>900.0</ele><time>2026-05-02T09:48:05.651Z</time></trkpt><trkpt lat="42.2325215" lon="13.8370455"><ele>900.0</ele><time>2026-05-02T09:48:07.654Z</time></trkpt><trkpt lat="42.2324438" lon="13.8369784"><ele>900.0</ele><time>2026-05-02T09:48:09.654Z</time></trkpt><trkpt lat="42.2323651" lon="13.836957"><ele>900.0</ele><time>2026-05-02T09:48:10.652Z</time></trkpt><trkpt lat="42.2322756" lon="13.8369259"><ele>900.0</ele><time>2026-05-02T09:48:11.655Z</time></trkpt><trkpt lat="42.2321739" lon="13.8368868"><ele>900.0</ele><time>2026-05-02T09:48:12.655Z</time></trkpt><trkpt lat="42.2320575" lon="13.8368494"><ele>900.0</ele><time>2026-05-02T09:48:13.654Z</time></trkpt><trkpt lat="42.2319315" lon="13.836815"><ele>890.5</ele><time>2026-05-02T09:48:14.654Z</time></trkpt><trkpt lat="42.2318004" lon="13.8367808"><ele>881.0</ele><time>2026-05-02T09:48:15.654Z</time></trkpt><trkpt lat="42.2316576" lon="13.8367408"><ele>871.5</ele><time>2026-05-02T09:48:16.651Z</time></trkpt><trkpt lat="42.2315174" lon="13.8367012"><ele>862.0</ele><time>2026-05-02T09:48:17.651Z</time></trkpt><trkpt lat="42.23138" lon="13.8366662"><ele>859.75</ele><time>2026-05-02T09:48:18.652Z</time></trkpt><trkpt lat="42.2312395" lon="13.8366395"><ele>857.5</ele><time>2026-05-02T09:48:19.653Z</time></trkpt><trkpt lat="42.2311023" lon="13.8366222"><ele>855.25</ele><time>2026-05-02T09:48:20.654Z</time></trkpt><trkpt lat="42.2309648" lon="13.8366257"><ele>853.0</ele><time>2026-05-02T09:48:21.654Z</time></trkpt><trkpt lat="42.230817" lon="13.8366614"><ele>853.0</ele><time>2026-05-02T09:48:22.655Z</time></trkpt><trkpt lat="42.2306629" lon="13.8367275"><ele>853.0</ele><time>2026-05-02T09:48:23.651Z</time></trkpt><trkpt lat="42.2305068" lon="13.8368069"><ele>853.0</ele><time>2026-05-02T09:48:24.649Z</time></trkpt><trkpt lat="42.2303488" lon="13.8368882"><ele>856.3333333333333</ele><time>2026-05-02T09:48:25.651Z</time></trkpt><trkpt lat="42.2301969" lon="13.8369711"><ele>859.6666666666667</ele><time>2026-05-02T09:48:26.649Z</time></trkpt><trkpt lat="42.2300479" lon="13.8370543"><ele>863.0</ele><time>2026-05-02T09:48:27.653Z</time></trkpt><trkpt lat="42.2299021" lon="13.8371327"><ele>856.75</ele><time>2026-05-02T09:48:28.654Z</time></trkpt><trkpt lat="42.2297608" lon="13.8372097"><ele>850.5</ele><time>2026-05-02T09:48:29.654Z</time></trkpt><trkpt lat="42.2296223" lon="13.8372843"><ele>844.25</ele><time>2026-05-02T09:48:30.65Z</time></trkpt><trkpt lat="42.2294865" lon="13.8373469"><ele>838.0</ele><time>2026-05-02T09:48:31.651Z</time></trkpt><trkpt lat="42.22935" lon="13.8374107"><ele>838.0</ele><time>2026-05-02T09:48:32.65Z</time></trkpt><trkpt lat="42.2292163" lon="13.8374803"><ele>838.0</ele><time>2026-05-02T09:48:33.649Z</time></trkpt><trkpt lat="42.2290873" lon="13.8375465"><ele>838.0</ele><time>2026-05-02T09:48:34.65Z</time></trkpt><trkpt lat="42.2289638" lon="13.8376126"><ele>838.0</ele><time>2026-05-02T09:48:35.651Z</time></trkpt><trkpt lat="42.2288464" lon="13.8376783"><ele>836.8333333333333</ele><time>2026-05-02T09:48:36.653Z</time></trkpt><trkpt lat="42.2287414" lon="13.83774"><ele>835.6666666666666</ele><time>2026-05-02T09:48:37.654Z</time></trkpt><trkpt lat="42.228659" lon="13.8377891"><ele>834.5</ele><time>2026-05-02T09:48:38.655Z</time></trkpt><trkpt lat="42.2285896" lon="13.8378204"><ele>833.3333333333333</ele><time>2026-05-02T09:48:39.654Z</time></trkpt><trkpt lat="42.2285226" lon="13.8377871"><ele>832.1666666666666</ele><time>2026-05-02T09:48:41.654Z</time></trkpt><trkpt lat="42.2285631" lon="13.8377049"><ele>831.0</ele><time>2026-05-02T09:48:43.651Z</time></trkpt><trkpt lat="42.2286969" lon="13.8375978"><ele>831.0</ele><time>2026-05-02T09:48:45.655Z</time></trkpt><trkpt lat="42.2287965" lon="13.8375065"><ele>831.0</ele><time>2026-05-02T09:48:46.654Z</time></trkpt><trkpt lat="42.228897" lon="13.8374048"><ele>831.0</ele><time>2026-05-02T09:48:47.655Z</time></trkpt><trkpt lat="42.2290067" lon="13.8372985"><ele>831.0</ele><time>2026-05-02T09:48:48.652Z</time></trkpt><trkpt lat="42.2291179" lon="13.8371949"><ele>832.75</ele><time>2026-05-02T09:48:49.654Z</time></trkpt><trkpt lat="42.2292275" lon="13.8371016"><ele>834.5</ele><time>2026-05-02T09:48:50.65Z</time></trkpt><trkpt lat="42.2293349" lon="13.8370117"><ele>836.25</ele><time>2026-05-02T09:48:51.654Z</time></trkpt><trkpt lat="42.2294375" lon="13.8369184"><ele>838.0</ele><time>2026-05-02T09:48:52.654Z</time></trkpt><trkpt lat="42.2295356" lon="13.8368202"><ele>836.0</ele><time>2026-05-02T09:48:53.655Z</time></trkpt><trkpt lat="42.2296364" lon="13.836699"><ele>834.0</ele><time>2026-05-02T09:48:54.653Z</time></trkpt><trkpt lat="42.2297425" lon="13.836568"><ele>832.0</ele><time>2026-05-02T09:48:55.653Z</time></trkpt><trkpt lat="42.2298543" lon="13.836431"><ele>830.0</ele><time>2026-05-02T09:48:56.653Z</time></trkpt><trkpt lat="42.2299694" lon="13.8362936"><ele>830.0</ele><time>2026-05-02T09:48:57.653Z</time></trkpt><trkpt lat="42.2300917" lon="13.8361548"><ele>830.0</ele><time>2026-05-02T09:48:58.654Z</time></trkpt><trkpt lat="42.2302177" lon="13.8360217"><ele>830.0</ele><time>2026-05-02T09:48:59.655Z</time></trkpt><trkpt lat="42.2303397" lon="13.835893"><ele>827.75</ele><time>2026-05-02T09:49:00.654Z</time></trkpt><trkpt lat="42.2304622" lon="13.8357725"><ele>825.5</ele><time>2026-05-02T09:49:01.655Z</time></trkpt><trkpt lat="42.2305838" lon="13.835661"><ele>823.25</ele><time>2026-05-02T09:49:02.654Z</time></trkpt><trkpt lat="42.2307079" lon="13.8355593"><ele>821.0</ele><time>2026-05-02T09:49:03.654Z</time></trkpt><trkpt lat="42.2308329" lon="13.8354692"><ele>821.0</ele><time>2026-05-02T09:49:04.655Z</time></trkpt><trkpt lat="42.2309593" lon="13.8353925"><ele>821.0</ele><time>2026-05-02T09:49:05.654Z</time></trkpt><trkpt lat="42.231088" lon="13.8353312"><ele>821.0</ele><time>2026-05-02T09:49:06.654Z</time></trkpt><trkpt lat="42.2312264" lon="13.8352854"><ele>821.0</ele><time>2026-05-02T09:49:07.654Z</time></trkpt><trkpt lat="42.2313719" lon="13.8352507"><ele>823.5</ele><time>2026-05-02T09:49:08.652Z</time></trkpt><trkpt lat="42.2315137" lon="13.8352164"><ele>826.0</ele><time>2026-05-02T09:49:09.65Z</time></trkpt><trkpt lat="42.2316536" lon="13.8351852"><ele>828.5</ele><time>2026-05-02T09:49:10.654Z</time></trkpt><trkpt lat="42.2317788" lon="13.8351662"><ele>831.0</ele><time>2026-05-02T09:49:11.654Z</time></trkpt><trkpt lat="42.2318724" lon="13.8351463"><ele>825.4</ele><time>2026-05-02T09:49:12.654Z</time></trkpt><trkpt lat="42.2319616" lon="13.8350835"><ele>819.8</ele><time>2026-05-02T09:49:14.653Z</time></trkpt><trkpt lat="42.2319356" lon="13.8349959"><ele>814.1999999999999</ele><time>2026-05-02T09:49:16.654Z</time></trkpt><trkpt lat="42.231818" lon="13.8349809"><ele>808.5999999999999</ele><time>2026-05-02T09:49:18.654Z</time></trkpt><trkpt lat="42.2317301" lon="13.8349902"><ele>803.0</ele><time>2026-05-02T09:49:19.651Z</time></trkpt><trkpt lat="42.2316411" lon="13.8349812"><ele>803.0</ele><time>2026-05-02T09:49:20.654Z</time></trkpt><trkpt lat="42.2315373" lon="13.8349652"><ele>803.0</ele><time>2026-05-02T09:49:21.651Z</time></trkpt><trkpt lat="42.2314282" lon="13.8349508"><ele>803.0</ele><time>2026-05-02T09:49:22.65Z</time></trkpt><trkpt lat="42.231316" lon="13.8349202"><ele>803.0</ele><time>2026-05-02T09:49:23.653Z</time></trkpt><trkpt lat="42.2312021" lon="13.8348863"><ele>803.0</ele><time>2026-05-02T09:49:24.654Z</time></trkpt><trkpt lat="42.2310838" lon="13.8348706"><ele>800.25</ele><time>2026-05-02T09:49:25.653Z</time></trkpt><trkpt lat="42.2309571" lon="13.8348775"><ele>797.5</ele><time>2026-05-02T09:49:26.65Z</time></trkpt><trkpt lat="42.2308192" lon="13.8349035"><ele>794.75</ele><time>2026-05-02T09:49:27.651Z</time></trkpt><trkpt lat="42.230676" lon="13.8349393"><ele>792.0</ele><time>2026-05-02T09:49:28.65Z</time></trkpt><trkpt lat="42.2305276" lon="13.8349769"><ele>794.0</ele><time>2026-05-02T09:49:29.649Z</time></trkpt><trkpt lat="42.2303819" lon="13.8350218"><ele>796.0</ele><time>2026-05-02T09:49:30.65Z</time></trkpt><trkpt lat="42.2302378" lon="13.835067"><ele>798.0</ele><time>2026-05-02T09:49:31.65Z</time></trkpt><trkpt lat="42.230096" lon="13.8351155"><ele>800.0</ele><time>2026-05-02T09:49:32.648Z</time></trkpt><trkpt lat="42.229955" lon="13.8351624"><ele>800.0</ele><time>2026-05-02T09:49:33.655Z</time></trkpt><trkpt lat="42.2298164" lon="13.8352125"><ele>800.0</ele><time>2026-05-02T09:49:34.652Z</time></trkpt><trkpt lat="42.2296755" lon="13.835272"><ele>800.0</ele><time>2026-05-02T09:49:35.655Z</time></trkpt><trkpt lat="42.2295372" lon="13.8353364"><ele>800.0</ele><time>2026-05-02T09:49:36.654Z</time></trkpt><trkpt lat="42.2293994" lon="13.8354017"><ele>795.0</ele><time>2026-05-02T09:49:37.654Z</time></trkpt><trkpt lat="42.2292642" lon="13.8354757"><ele>790.0</ele><time>2026-05-02T09:49:38.649Z</time></trkpt><trkpt lat="42.2291359" lon="13.8355676"><ele>785.0</ele><time>2026-05-02T09:49:39.649Z</time></trkpt><trkpt lat="42.229012" lon="13.8356682"><ele>780.0</ele><time>2026-05-02T09:49:40.652Z</time></trkpt><trkpt lat="42.2288875" lon="13.8357589"><ele>777.25</ele><time>2026-05-02T09:49:41.653Z</time></trkpt><trkpt lat="42.2287596" lon="13.8358292"><ele>774.5</ele><time>2026-05-02T09:49:42.651Z</time></trkpt><trkpt lat="42.2286339" lon="13.8358979"><ele>771.75</ele><time>2026-05-02T09:49:43.654Z</time></trkpt><trkpt lat="42.2285352" lon="13.8359583"><ele>769.0</ele><time>2026-05-02T09:49:44.651Z</time></trkpt><trkpt lat="42.2284605" lon="13.8360036"><ele>769.8000000000001</ele><time>2026-05-02T09:49:45.653Z</time></trkpt><trkpt lat="42.2283887" lon="13.8360355"><ele>770.6</ele><time>2026-05-02T09:49:46.652Z</time></trkpt><trkpt lat="42.2283224" lon="13.8360435"><ele>771.4</ele><time>2026-05-02T09:49:47.651Z</time></trkpt><trkpt lat="42.2282455" lon="13.8360194"><ele>772.2</ele><time>2026-05-02T09:49:48.655Z</time></trkpt><trkpt lat="42.228141" lon="13.8359627"><ele>773.0</ele><time>2026-05-02T09:49:49.651Z</time></trkpt><trkpt lat="42.2280171" lon="13.8358795"><ele>773.0</ele><time>2026-05-02T09:49:50.651Z</time></trkpt><trkpt lat="42.2278781" lon="13.8357886"><ele>773.0</ele><time>2026-05-02T09:49:51.654Z</time></trkpt><trkpt lat="42.2277352" lon="13.835699"><ele>773.0</ele><time>2026-05-02T09:49:52.654Z</time></trkpt><trkpt lat="42.2276009" lon="13.8356108"><ele>773.0</ele><time>2026-05-02T09:49:53.649Z</time></trkpt><trkpt lat="42.2274683" lon="13.83553"><ele>773.0</ele><time>2026-05-02T09:49:54.654Z</time></trkpt><trkpt lat="42.2273438" lon="13.8354599"><ele>773.0</ele><time>2026-05-02T09:49:55.654Z</time></trkpt><trkpt lat="42.2272453" lon="13.8354108"><ele>773.0</ele><time>2026-05-02T09:49:56.655Z</time></trkpt><trkpt lat="42.2271563" lon="13.8353762"><ele>772.0</ele><time>2026-05-02T09:49:57.652Z</time></trkpt><trkpt lat="42.2270659" lon="13.8353477"><ele>771.0</ele><time>2026-05-02T09:49:58.654Z</time></trkpt><trkpt lat="42.2269858" lon="13.8353416"><ele>770.0</ele><time>2026-05-02T09:49:59.655Z</time></trkpt><trkpt lat="42.2268924" lon="13.8353482"><ele>769.0</ele><time>2026-05-02T09:50:00.65Z</time></trkpt><trkpt lat="42.2267885" lon="13.8353679"><ele>768.0</ele><time>2026-05-02T09:50:01.65Z</time></trkpt><trkpt lat="42.2266745" lon="13.8353943"><ele>768.0</ele><time>2026-05-02T09:50:02.655Z</time></trkpt><trkpt lat="42.2265617" lon="13.8354258"><ele>768.0</ele><time>2026-05-02T09:50:03.654Z</time></trkpt><trkpt lat="42.2264471" lon="13.8354653"><ele>768.0</ele><time>2026-05-02T09:50:04.654Z</time></trkpt><trkpt lat="42.226335" lon="13.8355059"><ele>768.0</ele><time>2026-05-02T09:50:05.648Z</time></trkpt><trkpt lat="42.2262226" lon="13.8355442"><ele>763.5</ele><time>2026-05-02T09:50:06.648Z</time></trkpt><trkpt lat="42.2261125" lon="13.8355912"><ele>759.0</ele><time>2026-05-02T09:50:07.648Z</time></trkpt><trkpt lat="42.2260004" lon="13.8356359"><ele>754.5</ele><time>2026-05-02T09:50:08.655Z</time></trkpt><trkpt lat="42.2258897" lon="13.8356859"><ele>750.0</ele><time>2026-05-02T09:50:09.651Z</time></trkpt><trkpt lat="42.2257817" lon="13.8357443"><ele>750.0</ele><time>2026-05-02T09:50:10.65Z</time></trkpt><trkpt lat="42.2256756" lon="13.8358054"><ele>750.0</ele><time>2026-05-02T09:50:11.654Z</time></trkpt><trkpt lat="42.2255706" lon="13.8358679"><ele>750.0</ele><time>2026-05-02T09:50:12.653Z</time></trkpt><trkpt lat="42.2254658" lon="13.8359347"><ele>750.0</ele><time>2026-05-02T09:50:13.653Z</time></trkpt><trkpt lat="42.2253645" lon="13.8360209"><ele>748.0</ele><time>2026-05-02T09:50:14.652Z</time></trkpt><trkpt lat="42.2252627" lon="13.8361215"><ele>746.0</ele><time>2026-05-02T09:50:15.651Z</time></trkpt><trkpt lat="42.2251591" lon="13.8362163"><ele>744.0</ele><time>2026-05-02T09:50:16.654Z</time></trkpt><trkpt lat="42.2250505" lon="13.8363071"><ele>742.0</ele><time>2026-05-02T09:50:17.654Z</time></trkpt><trkpt lat="42.2249439" lon="13.8363941"><ele>742.0</ele><time>2026-05-02T09:50:18.651Z</time></trkpt><trkpt lat="42.2248388" lon="13.8364825"><ele>742.0</ele><time>2026-05-02T09:50:19.648Z</time></trkpt><trkpt lat="42.224738" lon="13.8365788"><ele>742.0</ele><time>2026-05-02T09:50:20.654Z</time></trkpt><trkpt lat="42.2246486" lon="13.8366846"><ele>742.0</ele><time>2026-05-02T09:50:21.65Z</time></trkpt><trkpt lat="42.2245696" lon="13.8368041"><ele>737.5</ele><time>2026-05-02T09:50:22.651Z</time></trkpt><trkpt lat="42.2245035" lon="13.836934"><ele>733.0</ele><time>2026-05-02T09:50:23.65Z</time></trkpt><trkpt lat="42.2244411" lon="13.8370634"><ele>728.5</ele><time>2026-05-02T09:50:24.65Z</time></trkpt><trkpt lat="42.2243722" lon="13.8371829"><ele>724.0</ele><time>2026-05-02T09:50:25.654Z</time></trkpt><trkpt lat="42.2242966" lon="13.8372945"><ele>724.0</ele><time>2026-05-02T09:50:26.653Z</time></trkpt><trkpt lat="42.2242185" lon="13.8374106"><ele>724.0</ele><time>2026-05-02T09:50:27.654Z</time></trkpt><trkpt lat="42.2241466" lon="13.8375385"><ele>724.0</ele><time>2026-05-02T09:50:28.655Z</time></trkpt><trkpt lat="42.2240876" lon="13.8376715"><ele>724.0</ele><time>2026-05-02T09:50:29.651Z</time></trkpt><trkpt lat="42.2240313" lon="13.8378052"><ele>720.6</ele><time>2026-05-02T09:50:30.654Z</time></trkpt><trkpt lat="42.2239693" lon="13.837933"><ele>717.2</ele><time>2026-05-02T09:50:31.654Z</time></trkpt><trkpt lat="42.2238989" lon="13.8380481"><ele>713.8000000000001</ele><time>2026-05-02T09:50:32.654Z</time></trkpt><trkpt lat="42.2238313" lon="13.8381363"><ele>710.4000000000001</ele><time>2026-05-02T09:50:33.655Z</time></trkpt><trkpt lat="42.2237609" lon="13.8382113"><ele>707.0</ele><time>2026-05-02T09:50:34.654Z</time></trkpt><trkpt lat="42.2236802" lon="13.8382907"><ele>707.0</ele><time>2026-05-02T09:50:35.652Z</time></trkpt><trkpt lat="42.2235925" lon="13.8383663"><ele>707.0</ele><time>2026-05-02T09:50:36.651Z</time></trkpt><trkpt lat="42.2234978" lon="13.8384354"><ele>707.0</ele><time>2026-05-02T09:50:37.654Z</time></trkpt><trkpt lat="42.2233989" lon="13.8384977"><ele>707.0</ele><time>2026-05-02T09:50:38.655Z</time></trkpt><trkpt lat="42.2232968" lon="13.8385501"><ele>707.0</ele><time>2026-05-02T09:50:39.654Z</time></trkpt><trkpt lat="42.2231918" lon="13.8385939"><ele>707.6</ele><time>2026-05-02T09:50:40.652Z</time></trkpt><trkpt lat="42.2230868" lon="13.8386357"><ele>708.2</ele><time>2026-05-02T09:50:41.654Z</time></trkpt><trkpt lat="42.2229834" lon="13.8386783"><ele>708.8</ele><time>2026-05-02T09:50:42.65Z</time></trkpt><trkpt lat="42.2228798" lon="13.8387219"><ele>709.4</ele><time>2026-05-02T09:50:43.651Z</time></trkpt><trkpt lat="42.2227747" lon="13.838764"><ele>710.0</ele><time>2026-05-02T09:50:44.655Z</time></trkpt><trkpt lat="42.2226689" lon="13.838802"><ele>710.0</ele><time>2026-05-02T09:50:45.654Z</time></trkpt><trkpt lat="42.222564" lon="13.8388476"><ele>710.0</ele><time>2026-05-02T09:50:46.655Z</time></trkpt><trkpt lat="42.2224586" lon="13.8389051"><ele>710.0</ele><time>2026-05-02T09:50:47.654Z</time></trkpt><trkpt lat="42.2223541" lon="13.8389774"><ele>710.0</ele><time>2026-05-02T09:50:48.651Z</time></trkpt><trkpt lat="42.2222576" lon="13.8390631"><ele>708.4</ele><time>2026-05-02T09:50:49.651Z</time></trkpt><trkpt lat="42.2221796" lon="13.839152"><ele>706.8</ele><time>2026-05-02T09:50:50.649Z</time></trkpt><trkpt lat="42.2221254" lon="13.839227"><ele>705.2</ele><time>2026-05-02T09:50:51.651Z</time></trkpt><trkpt lat="42.2220281" lon="13.839311"><ele>703.6</ele><time>2026-05-02T09:50:53.655Z</time></trkpt><trkpt lat="42.2219601" lon="13.8392187"><ele>702.0</ele><time>2026-05-02T09:50:55.655Z</time></trkpt><trkpt lat="42.2219629" lon="13.8391281"><ele>698.6</ele><time>2026-05-02T09:50:56.655Z</time></trkpt><trkpt lat="42.2219948" lon="13.8390244"><ele>695.2</ele><time>2026-05-02T09:50:57.654Z</time></trkpt><trkpt lat="42.2220447" lon="13.8389049"><ele>691.8</ele><time>2026-05-02T09:50:58.654Z</time></trkpt><trkpt lat="42.2220983" lon="13.8387711"><ele>688.4</ele><time>2026-05-02T09:50:59.655Z</time></trkpt><trkpt lat="42.2221542" lon="13.8386282"><ele>685.0</ele><time>2026-05-02T09:51:00.651Z</time></trkpt><trkpt lat="42.2222181" lon="13.8384919"><ele>687.25</ele><time>2026-05-02T09:51:01.652Z</time></trkpt><trkpt lat="42.2222877" lon="13.838366"><ele>689.5</ele><time>2026-05-02T09:51:02.654Z</time></trkpt><trkpt lat="42.2223683" lon="13.8382472"><ele>691.75</ele><time>2026-05-02T09:51:03.654Z</time></trkpt><trkpt lat="42.2224643" lon="13.8381233"><ele>694.0</ele><time>2026-05-02T09:51:04.653Z</time></trkpt><trkpt lat="42.2225608" lon="13.837997"><ele>694.0</ele><time>2026-05-02T09:51:05.654Z</time></trkpt><trkpt lat="42.2226539" lon="13.8378762"><ele>694.0</ele><time>2026-05-02T09:51:06.654Z</time></trkpt><trkpt lat="42.2227441" lon="13.8377539"><ele>694.0</ele><time>2026-05-02T09:51:07.654Z</time></trkpt><trkpt lat="42.222825" lon="13.8376309"><ele>694.0</ele><time>2026-05-02T09:51:08.654Z</time></trkpt><trkpt lat="42.2228863" lon="13.837523"><ele>689.2</ele><time>2026-05-02T09:51:09.654Z</time></trkpt><trkpt lat="42.2229359" lon="13.8374079"><ele>684.4000000000001</ele><time>2026-05-02T09:51:10.649Z</time></trkpt><trkpt lat="42.2229772" lon="13.8372722"><ele>679.6</ele><time>2026-05-02T09:51:11.654Z</time></trkpt><trkpt lat="42.2230055" lon="13.8371234"><ele>674.8</ele><time>2026-05-02T09:51:12.653Z</time></trkpt><trkpt lat="42.2230317" lon="13.8369761"><ele>670.0</ele><time>2026-05-02T09:51:13.655Z</time></trkpt><trkpt lat="42.2230557" lon="13.8368337"><ele>667.6</ele><time>2026-05-02T09:51:14.654Z</time></trkpt><trkpt lat="42.2230723" lon="13.836691"><ele>665.2</ele><time>2026-05-02T09:51:15.654Z</time></trkpt><trkpt lat="42.223079" lon="13.8365478"><ele>662.8</ele><time>2026-05-02T09:51:16.655Z</time></trkpt><trkpt lat="42.2230805" lon="13.8364044"><ele>660.4</ele><time>2026-05-02T09:51:17.654Z</time></trkpt><trkpt lat="42.2230824" lon="13.8362598"><ele>658.0</ele><time>2026-05-02T09:51:18.654Z</time></trkpt><trkpt lat="42.223088" lon="13.8361316"><ele>658.0</ele><time>2026-05-02T09:51:19.652Z</time></trkpt><trkpt lat="42.2230892" lon="13.8360442"><ele>658.0</ele><time>2026-05-02T09:51:20.654Z</time></trkpt><trkpt lat="42.2230363" lon="13.8359826"><ele>658.0</ele><time>2026-05-02T09:51:22.655Z</time></trkpt><trkpt lat="42.2229301" lon="13.8360474"><ele>658.0</ele><time>2026-05-02T09:51:24.654Z</time></trkpt><trkpt lat="42.2228737" lon="13.8361481"><ele>658.0</ele><time>2026-05-02T09:51:25.655Z</time></trkpt><trkpt lat="42.2228204" lon="13.8362693"><ele>658.0</ele><time>2026-05-02T09:51:26.649Z</time></trkpt><trkpt lat="42.2227682" lon="13.8363929"><ele>658.0</ele><time>2026-05-02T09:51:27.652Z</time></trkpt><trkpt lat="42.2227084" lon="13.8365102"><ele>658.0</ele><time>2026-05-02T09:51:28.654Z</time></trkpt><trkpt lat="42.2226403" lon="13.8366194"><ele>658.0</ele><time>2026-05-02T09:51:29.651Z</time></trkpt><trkpt lat="42.2225608" lon="13.836713"><ele>658.0</ele><time>2026-05-02T09:51:30.649Z</time></trkpt><trkpt lat="42.22247" lon="13.8367895"><ele>658.0</ele><time>2026-05-02T09:51:31.649Z</time></trkpt><trkpt lat="42.222373" lon="13.8368549"><ele>657.75</ele><time>2026-05-02T09:51:32.654Z</time></trkpt><trkpt lat="42.2222692" lon="13.8369212"><ele>657.5</ele><time>2026-05-02T09:51:33.654Z</time></trkpt><trkpt lat="42.222154" lon="13.8369922"><ele>657.25</ele><time>2026-05-02T09:51:34.654Z</time></trkpt><trkpt lat="42.2220331" lon="13.8370612"><ele>657.0</ele><time>2026-05-02T09:51:35.654Z</time></trkpt><trkpt lat="42.221915" lon="13.8371284"><ele>657.0</ele><time>2026-05-02T09:51:36.654Z</time></trkpt><trkpt lat="42.2218032" lon="13.8371949"><ele>657.0</ele><time>2026-05-02T09:51:37.65Z</time></trkpt><trkpt lat="42.2216949" lon="13.8372607"><ele>657.0</ele><time>2026-05-02T09:51:38.654Z</time></trkpt><trkpt lat="42.2215888" lon="13.8373213"><ele>657.0</ele><time>2026-05-02T09:51:39.654Z</time></trkpt><trkpt lat="42.2214856" lon="13.8373797"><ele>652.3333333333334</ele><time>2026-05-02T09:51:40.653Z</time></trkpt><trkpt lat="42.221396" lon="13.8374318"><ele>647.6666666666666</ele><time>2026-05-02T09:51:41.654Z</time></trkpt><trkpt lat="42.2213258" lon="13.8374733"><ele>643.0</ele><time>2026-05-02T09:51:42.651Z</time></trkpt><trkpt lat="42.2212638" lon="13.837505"><ele>638.3333333333333</ele><time>2026-05-02T09:51:43.654Z</time></trkpt><trkpt lat="42.2211942" lon="13.8374763"><ele>633.6666666666666</ele><time>2026-05-02T09:51:45.654Z</time></trkpt><trkpt lat="42.2212418" lon="13.8373444"><ele>629.0</ele><time>2026-05-02T09:51:47.654Z</time></trkpt><trkpt lat="42.2213015" lon="13.8372739"><ele>629.0</ele><time>2026-05-02T09:51:48.654Z</time></trkpt><trkpt lat="42.2213854" lon="13.8371921"><ele>629.0</ele><time>2026-05-02T09:51:49.654Z</time></trkpt><trkpt lat="42.2214732" lon="13.8370935"><ele>629.0</ele><time>2026-05-02T09:51:50.649Z</time></trkpt><trkpt lat="42.2215559" lon="13.8369815"><ele>629.0</ele><time>2026-05-02T09:51:51.654Z</time></trkpt><trkpt lat="42.2216347" lon="13.8368784"><ele>629.0</ele><time>2026-05-02T09:51:52.655Z</time></trkpt><trkpt lat="42.221716" lon="13.8367748"><ele>632.0</ele><time>2026-05-02T09:51:53.652Z</time></trkpt><trkpt lat="42.2217985" lon="13.8366581"><ele>635.0</ele><time>2026-05-02T09:51:54.654Z</time></trkpt><trkpt lat="42.2218723" lon="13.8365297"><ele>638.0</ele><time>2026-05-02T09:51:55.65Z</time></trkpt><trkpt lat="42.2219338" lon="13.8364039"><ele>641.0</ele><time>2026-05-02T09:51:56.649Z</time></trkpt><trkpt lat="42.2219852" lon="13.8362864"><ele>641.0</ele><time>2026-05-02T09:51:57.652Z</time></trkpt><trkpt lat="42.2220394" lon="13.8361839"><ele>641.0</ele><time>2026-05-02T09:51:58.655Z</time></trkpt><trkpt lat="42.2220952" lon="13.8360986"><ele>641.0</ele><time>2026-05-02T09:51:59.653Z</time></trkpt><trkpt lat="42.2221256" lon="13.8359822"><ele>641.0</ele><time>2026-05-02T09:52:01.654Z</time></trkpt><trkpt lat="42.2220421" lon="13.8359361"><ele>641.0</ele><time>2026-05-02T09:52:03.655Z</time></trkpt><trkpt lat="42.2219836" lon="13.8359766"><ele>641.0</ele><time>2026-05-02T09:52:04.655Z</time></trkpt><trkpt lat="42.2219069" lon="13.8360638"><ele>641.0</ele><time>2026-05-02T09:52:05.651Z</time></trkpt><trkpt lat="42.2218041" lon="13.8361805"><ele>641.0</ele><time>2026-05-02T09:52:06.65Z</time></trkpt><trkpt lat="42.2216886" lon="13.8363026"><ele>641.0</ele><time>2026-05-02T09:52:07.65Z</time></trkpt><trkpt lat="42.2215631" lon="13.8364247"><ele>641.0</ele><time>2026-05-02T09:52:08.649Z</time></trkpt><trkpt lat="42.2214265" lon="13.8365389"><ele>638.0</ele><time>2026-05-02T09:52:09.651Z</time></trkpt><trkpt lat="42.2212904" lon="13.8366433"><ele>635.0</ele><time>2026-05-02T09:52:10.654Z</time></trkpt><trkpt lat="42.2211605" lon="13.8367401"><ele>632.0</ele><time>2026-05-02T09:52:11.649Z</time></trkpt><trkpt lat="42.2210401" lon="13.8368337"><ele>629.0</ele><time>2026-05-02T09:52:12.653Z</time></trkpt><trkpt lat="42.2209404" lon="13.8369284"><ele>629.0</ele><time>2026-05-02T09:52:13.655Z</time></trkpt><trkpt lat="42.2208462" lon="13.8370472"><ele>629.0</ele><time>2026-05-02T09:52:14.649Z</time></trkpt><trkpt lat="42.2207634" lon="13.8371695"><ele>629.0</ele><time>2026-05-02T09:52:15.65Z</time></trkpt><trkpt lat="42.2206821" lon="13.8372938"><ele>629.0</ele><time>2026-05-02T09:52:16.653Z</time></trkpt><trkpt lat="42.220606" lon="13.837426"><ele>618.25</ele><time>2026-05-02T09:52:17.652Z</time></trkpt><trkpt lat="42.2205383" lon="13.8375698"><ele>607.5</ele><time>2026-05-02T09:52:18.654Z</time></trkpt><trkpt lat="42.2204809" lon="13.8377223"><ele>596.75</ele><time>2026-05-02T09:52:19.654Z</time></trkpt><trkpt lat="42.220432" lon="13.8378811"><ele>586.0</ele><time>2026-05-02T09:52:20.65Z</time></trkpt><trkpt lat="42.2203869" lon="13.8380414"><ele>586.0</ele><time>2026-05-02T09:52:21.655Z</time></trkpt><trkpt lat="42.2203427" lon="13.8382044"><ele>586.0</ele><time>2026-05-02T09:52:22.653Z</time></trkpt><trkpt lat="42.2203052" lon="13.8383542"><ele>586.0</ele><time>2026-05-02T09:52:23.655Z</time></trkpt><trkpt lat="42.2202899" lon="13.8384895"><ele>586.0</ele><time>2026-05-02T09:52:24.654Z</time></trkpt><trkpt lat="42.2202986" lon="13.8386341"><ele>588.1666666666667</ele><time>2026-05-02T09:52:25.654Z</time></trkpt><trkpt lat="42.2203055" lon="13.8387536"><ele>590.3333333333334</ele><time>2026-05-02T09:52:26.654Z</time></trkpt><trkpt lat="42.2202957" lon="13.8388457"><ele>592.5</ele><time>2026-05-02T09:52:27.654Z</time></trkpt><trkpt lat="42.2202426" lon="13.8389937"><ele>594.6666666666666</ele><time>2026-05-02T09:52:29.654Z</time></trkpt><trkpt lat="42.2201928" lon="13.8390725"><ele>596.8333333333333</ele><time>2026-05-02T09:52:30.655Z</time></trkpt><trkpt lat="42.2201422" lon="13.8391591"><ele>599.0</ele><time>2026-05-02T09:52:31.654Z</time></trkpt><trkpt lat="42.2200953" lon="13.8392523"><ele>603.6</ele><time>2026-05-02T09:52:32.654Z</time></trkpt><trkpt lat="42.2200431" lon="13.8393467"><ele>608.2</ele><time>2026-05-02T09:52:33.654Z</time></trkpt><trkpt lat="42.2199864" lon="13.8394397"><ele>612.8000000000001</ele><time>2026-05-02T09:52:34.654Z</time></trkpt><trkpt lat="42.219921" lon="13.8395363"><ele>617.4</ele><time>2026-05-02T09:52:35.653Z</time></trkpt><trkpt lat="42.2198414" lon="13.8396445"><ele>622.0</ele><time>2026-05-02T09:52:36.654Z</time></trkpt><trkpt lat="42.2197517" lon="13.8397626"><ele>617.0</ele><time>2026-05-02T09:52:37.655Z</time></trkpt><trkpt lat="42.2196529" lon="13.8398898"><ele>612.0</ele><time>2026-05-02T09:52:38.654Z</time></trkpt><trkpt lat="42.2195527" lon="13.8400202"><ele>607.0</ele><time>2026-05-02T09:52:39.651Z</time></trkpt><trkpt lat="42.2194577" lon="13.8401472"><ele>602.0</ele><time>2026-05-02T09:52:40.653Z</time></trkpt><trkpt lat="42.2193683" lon="13.8402785"><ele>602.0</ele><time>2026-05-02T09:52:41.652Z</time></trkpt><trkpt lat="42.2192856" lon="13.8404103"><ele>602.0</ele><time>2026-05-02T09:52:42.651Z</time></trkpt><trkpt lat="42.2192187" lon="13.8405178"><ele>602.0</ele><time>2026-05-02T09:52:43.654Z</time></trkpt><trkpt lat="42.2191702" lon="13.8405858"><ele>602.0</ele><time>2026-05-02T09:52:44.654Z</time></trkpt><trkpt lat="42.2190973" lon="13.8406413"><ele>602.0</ele><time>2026-05-02T09:52:46.655Z</time></trkpt><trkpt lat="42.2190481" lon="13.8405832"><ele>602.0</ele><time>2026-05-02T09:52:48.649Z</time></trkpt><trkpt lat="42.2190622" lon="13.8404658"><ele>602.0</ele><time>2026-05-02T09:52:50.654Z</time></trkpt><trkpt lat="42.2191069" lon="13.8403867"><ele>602.0</ele><time>2026-05-02T09:52:51.648Z</time></trkpt><trkpt lat="42.2191644" lon="13.8402936"><ele>602.0</ele><time>2026-05-02T09:52:52.652Z</time></trkpt><trkpt lat="42.2192228" lon="13.8401649"><ele>602.0</ele><time>2026-05-02T09:52:53.654Z</time></trkpt><trkpt lat="42.2192848" lon="13.8400104"><ele>594.75</ele><time>2026-05-02T09:52:54.655Z</time></trkpt><trkpt lat="42.2193484" lon="13.8398473"><ele>587.5</ele><time>2026-05-02T09:52:55.648Z</time></trkpt><trkpt lat="42.2194092" lon="13.8396851"><ele>580.25</ele><time>2026-05-02T09:52:56.654Z</time></trkpt><trkpt lat="42.2194732" lon="13.839521"><ele>573.0</ele><time>2026-05-02T09:52:57.654Z</time></trkpt><trkpt lat="42.2195346" lon="13.8393658"><ele>569.0</ele><time>2026-05-02T09:52:58.654Z</time></trkpt><trkpt lat="42.2195918" lon="13.8392143"><ele>565.0</ele><time>2026-05-02T09:52:59.655Z</time></trkpt><trkpt lat="42.2196511" lon="13.8390717"><ele>561.0</ele><time>2026-05-02T09:53:00.654Z</time></trkpt><trkpt lat="42.2197097" lon="13.8389457"><ele>557.0</ele><time>2026-05-02T09:53:01.654Z</time></trkpt><trkpt lat="42.2197477" lon="13.8388411"><ele>553.0</ele><time>2026-05-02T09:53:02.654Z</time></trkpt><trkpt lat="42.2197628" lon="13.8387415"><ele>553.0</ele><time>2026-05-02T09:53:03.654Z</time></trkpt><trkpt lat="42.2197609" lon="13.838635"><ele>553.0</ele><time>2026-05-02T09:53:04.654Z</time></trkpt><trkpt lat="42.2197435" lon="13.8385071"><ele>553.0</ele><time>2026-05-02T09:53:05.652Z</time></trkpt><trkpt lat="42.219722" lon="13.8383646"><ele>553.0</ele><time>2026-05-02T09:53:06.65Z</time></trkpt><trkpt lat="42.2197066" lon="13.8382059"><ele>553.0</ele><time>2026-05-02T09:53:07.655Z</time></trkpt><trkpt lat="42.2196941" lon="13.8380335"><ele>548.25</ele><time>2026-05-02T09:53:08.654Z</time></trkpt><trkpt lat="42.2196872" lon="13.837865"><ele>543.5</ele><time>2026-05-02T09:53:09.655Z</time></trkpt><trkpt lat="42.219681" lon="13.8377011"><ele>538.75</ele><time>2026-05-02T09:53:10.654Z</time></trkpt><trkpt lat="42.2196788" lon="13.837534"><ele>534.0</ele><time>2026-05-02T09:53:11.655Z</time></trkpt><trkpt lat="42.2196883" lon="13.8373555"><ele>531.75</ele><time>2026-05-02T09:53:12.654Z</time></trkpt><trkpt lat="42.219711" lon="13.8371772"><ele>529.5</ele><time>2026-05-02T09:53:13.651Z</time></trkpt><trkpt lat="42.2197407" lon="13.8370108"><ele>527.25</ele><time>2026-05-02T09:53:14.654Z</time></trkpt><trkpt lat="42.2197677" lon="13.8368467"><ele>525.0</ele><time>2026-05-02T09:53:15.654Z</time></trkpt><trkpt lat="42.2198029" lon="13.8366897"><ele>534.0</ele><time>2026-05-02T09:53:16.655Z</time></trkpt><trkpt lat="42.2198514" lon="13.8365343"><ele>543.0</ele><time>2026-05-02T09:53:17.654Z</time></trkpt><trkpt lat="42.219904" lon="13.8363845"><ele>552.0</ele><time>2026-05-02T09:53:18.655Z</time></trkpt><trkpt lat="42.219957" lon="13.8362371"><ele>561.0</ele><time>2026-05-02T09:53:19.65Z</time></trkpt><trkpt lat="42.2200101" lon="13.8361176"><ele>561.0</ele><time>2026-05-02T09:53:20.654Z</time></trkpt><trkpt lat="42.2200713" lon="13.8360282"><ele>561.0</ele><time>2026-05-02T09:53:21.654Z</time></trkpt><trkpt lat="42.2201341" lon="13.835951"><ele>561.0</ele><time>2026-05-02T09:53:22.655Z</time></trkpt><trkpt lat="42.220161" lon="13.8358333"><ele>561.0</ele><time>2026-05-02T09:53:24.654Z</time></trkpt><trkpt lat="42.2200842" lon="13.8358067"><ele>561.0</ele><time>2026-05-02T09:53:26.655Z</time></trkpt><trkpt lat="42.2200252" lon="13.8358485"><ele>561.0</ele><time>2026-05-02T09:53:27.655Z</time></trkpt><trkpt lat="42.2199524" lon="13.8359284"><ele>561.0</ele><time>2026-05-02T09:53:28.655Z</time></trkpt><trkpt lat="42.2198708" lon="13.8360248"><ele>561.0</ele><time>2026-05-02T09:53:29.65Z</time></trkpt><trkpt lat="42.2197834" lon="13.8361474"><ele>561.0</ele><time>2026-05-02T09:53:30.652Z</time></trkpt><trkpt lat="42.2196939" lon="13.8362909"><ele>561.0</ele><time>2026-05-02T09:53:31.654Z</time></trkpt><trkpt lat="42.2196049" lon="13.8364479"><ele>549.0</ele><time>2026-05-02T09:53:32.654Z</time></trkpt><trkpt lat="42.2195176" lon="13.8366072"><ele>537.0</ele><time>2026-05-02T09:53:33.654Z</time></trkpt><trkpt lat="42.2194289" lon="13.8367815"><ele>525.0</ele><time>2026-05-02T09:53:34.654Z</time></trkpt><trkpt lat="42.2193453" lon="13.8369643"><ele>525.0</ele><time>2026-05-02T09:53:35.649Z</time></trkpt><trkpt lat="42.2192648" lon="13.8371469"><ele>525.0</ele><time>2026-05-02T09:53:36.653Z</time></trkpt><trkpt lat="42.2191889" lon="13.8373277"><ele>525.0</ele><time>2026-05-02T09:53:37.653Z</time></trkpt><trkpt lat="42.2191306" lon="13.8374938"><ele>525.0</ele><time>2026-05-02T09:53:38.651Z</time></trkpt><trkpt lat="42.2190843" lon="13.8376725"><ele>527.25</ele><time>2026-05-02T09:53:39.65Z</time></trkpt><trkpt lat="42.2190526" lon="13.8378535"><ele>529.5</ele><time>2026-05-02T09:53:40.649Z</time></trkpt><trkpt lat="42.2190332" lon="13.8380365"><ele>531.75</ele><time>2026-05-02T09:53:41.654Z</time></trkpt><trkpt lat="42.2190152" lon="13.8382051"><ele>534.0</ele><time>2026-05-02T09:53:42.654Z</time></trkpt><trkpt lat="42.2189974" lon="13.8383144"><ele>528.2</ele><time>2026-05-02T09:53:43.654Z</time></trkpt><trkpt lat="42.2189693" lon="13.838397"><ele>522.4</ele><time>2026-05-02T09:53:44.654Z</time></trkpt><trkpt lat="42.2189113" lon="13.8384813"><ele>516.6</ele><time>2026-05-02T09:53:45.649Z</time></trkpt><trkpt lat="42.218829" lon="13.8385686"><ele>510.8</ele><time>2026-05-02T09:53:46.654Z</time></trkpt><trkpt lat="42.2187325" lon="13.8386736"><ele>505.0</ele><time>2026-05-02T09:53:47.653Z</time></trkpt><trkpt lat="42.2186267" lon="13.8387854"><ele>505.0</ele><time>2026-05-02T09:53:48.654Z</time></trkpt><trkpt lat="42.2185165" lon="13.8389126"><ele>505.0</ele><time>2026-05-02T09:53:49.654Z</time></trkpt><trkpt lat="42.2184033" lon="13.8390549"><ele>505.0</ele><time>2026-05-02T09:53:50.654Z</time></trkpt><trkpt lat="42.2182861" lon="13.839201"><ele>500.33333333333337</ele><time>2026-05-02T09:53:51.654Z</time></trkpt><trkpt lat="42.2181734" lon="13.8393429"><ele>495.66666666666663</ele><time>2026-05-02T09:53:52.653Z</time></trkpt><trkpt lat="42.2180637" lon="13.8394848"><ele>491.0</ele><time>2026-05-02T09:53:53.654Z</time></trkpt><trkpt lat="42.2179558" lon="13.8396224"><ele>491.0</ele><time>2026-05-02T09:53:54.65Z</time></trkpt><trkpt lat="42.2178478" lon="13.8397518"><ele>491.0</ele><time>2026-05-02T09:53:55.654Z</time></trkpt><trkpt lat="42.217738" lon="13.8398705"><ele>491.0</ele><time>2026-05-02T09:53:56.654Z</time></trkpt><trkpt lat="42.2176175" lon="13.8399883"><ele>491.0</ele><time>2026-05-02T09:53:57.654Z</time></trkpt><trkpt lat="42.2174861" lon="13.8401156"><ele>487.3333333333333</ele><time>2026-05-02T09:53:58.652Z</time></trkpt><trkpt lat="42.2173569" lon="13.8402425"><ele>483.66666666666663</ele><time>2026-05-02T09:53:59.649Z</time></trkpt><trkpt lat="42.2172303" lon="13.8403623"><ele>480.0</ele><time>2026-05-02T09:54:00.65Z</time></trkpt><trkpt lat="42.217103" lon="13.8404724"><ele>480.0</ele><time>2026-05-02T09:54:01.654Z</time></trkpt><trkpt lat="42.2169768" lon="13.8405676"><ele>480.0</ele><time>2026-05-02T09:54:02.653Z</time></trkpt><trkpt lat="42.2168514" lon="13.8406524"><ele>480.0</ele><time>2026-05-02T09:54:03.653Z</time></trkpt><trkpt lat="42.2167506" lon="13.8407186"><ele>480.0</ele><time>2026-05-02T09:54:04.654Z</time></trkpt><trkpt lat="42.2166747" lon="13.8407711"><ele>480.0</ele><time>2026-05-02T09:54:05.652Z</time></trkpt><trkpt lat="42.2165869" lon="13.8408267"><ele>480.0</ele><time>2026-05-02T09:54:06.653Z</time></trkpt><trkpt lat="42.2164979" lon="13.8408754"><ele>480.0</ele><time>2026-05-02T09:54:07.65Z</time></trkpt><trkpt lat="42.2164058" lon="13.8409282"><ele>480.0</ele><time>2026-05-02T09:54:08.655Z</time></trkpt><trkpt lat="42.2163106" lon="13.8409862"><ele>480.0</ele><time>2026-05-02T09:54:09.654Z</time></trkpt><trkpt lat="42.2162129" lon="13.8410474"><ele>478.0</ele><time>2026-05-02T09:54:10.653Z</time></trkpt><trkpt lat="42.2161104" lon="13.8411079"><ele>476.0</ele><time>2026-05-02T09:54:11.654Z</time></trkpt><trkpt lat="42.2160064" lon="13.8411569"><ele>474.0</ele><time>2026-05-02T09:54:12.655Z</time></trkpt><trkpt lat="42.2158975" lon="13.8412006"><ele>472.0</ele><time>2026-05-02T09:54:13.655Z</time></trkpt><trkpt lat="42.2157958" lon="13.8412325"><ele>470.0</ele><time>2026-05-02T09:54:14.654Z</time></trkpt><trkpt lat="42.2157077" lon="13.8412525"><ele>466.3333333333333</ele><time>2026-05-02T09:54:15.654Z</time></trkpt><trkpt lat="42.2156251" lon="13.8412652"><ele>462.66666666666663</ele><time>2026-05-02T09:54:16.65Z</time></trkpt><trkpt lat="42.2155529" lon="13.8412617"><ele>459.0</ele><time>2026-05-02T09:54:17.655Z</time></trkpt><trkpt lat="42.2154806" lon="13.8412331"><ele>455.33333333333337</ele><time>2026-05-02T09:54:18.654Z</time></trkpt><trkpt lat="42.2154184" lon="13.8411711"><ele>451.6666666666667</ele><time>2026-05-02T09:54:19.651Z</time></trkpt><trkpt lat="42.2153656" lon="13.8410812"><ele>448.0</ele><time>2026-05-02T09:54:20.649Z</time></trkpt><trkpt lat="42.215321" lon="13.8409689"><ele>446.59999999999997</ele><time>2026-05-02T09:54:21.649Z</time></trkpt><trkpt lat="42.2152764" lon="13.8408548"><ele>445.19999999999993</ele><time>2026-05-02T09:54:22.65Z</time></trkpt><trkpt lat="42.2152262" lon="13.8407339"><ele>443.8</ele><time>2026-05-02T09:54:23.654Z</time></trkpt><trkpt lat="42.215183" lon="13.8406131"><ele>442.4</ele><time>2026-05-02T09:54:24.651Z</time></trkpt><trkpt lat="42.2151562" lon="13.8405019"><ele>441.0</ele><time>2026-05-02T09:54:25.65Z</time></trkpt><trkpt lat="42.2151596" lon="13.8404053"><ele>441.0</ele><time>2026-05-02T09:54:26.654Z</time></trkpt><trkpt lat="42.2151894" lon="13.840315"><ele>441.0</ele><time>2026-05-02T09:54:27.654Z</time></trkpt><trkpt lat="42.2152546" lon="13.8402194"><ele>441.0</ele><time>2026-05-02T09:54:28.654Z</time></trkpt><trkpt lat="42.2153362" lon="13.8401401"><ele>441.0</ele><time>2026-05-02T09:54:29.65Z</time></trkpt><trkpt lat="42.2154202" lon="13.8400648"><ele>441.0</ele><time>2026-05-02T09:54:30.652Z</time></trkpt><trkpt lat="42.2155016" lon="13.8399843"><ele>440.6</ele><time>2026-05-02T09:54:31.654Z</time></trkpt><trkpt lat="42.2155856" lon="13.8399099"><ele>440.20000000000005</ele><time>2026-05-02T09:54:32.654Z</time></trkpt><trkpt lat="42.2156692" lon="13.839833"><ele>439.79999999999995</ele><time>2026-05-02T09:54:33.652Z</time></trkpt><trkpt lat="42.2157468" lon="13.8397525"><ele>439.4</ele><time>2026-05-02T09:54:34.655Z</time></trkpt><trkpt lat="42.2158131" lon="13.8396679"><ele>439.0</ele><time>2026-05-02T09:54:35.652Z</time></trkpt><trkpt lat="42.2158683" lon="13.8395705"><ele>437.75</ele><time>2026-05-02T09:54:36.653Z</time></trkpt><trkpt lat="42.2159208" lon="13.8394525"><ele>436.5</ele><time>2026-05-02T09:54:37.65Z</time></trkpt><trkpt lat="42.2159765" lon="13.839316"><ele>435.25</ele><time>2026-05-02T09:54:38.649Z</time></trkpt><trkpt lat="42.2160379" lon="13.8391697"><ele>434.0</ele><time>2026-05-02T09:54:39.648Z</time></trkpt><trkpt lat="42.216098" lon="13.8390242"><ele>434.0</ele><time>2026-05-02T09:54:40.653Z</time></trkpt><trkpt lat="42.2161565" lon="13.8388725"><ele>434.0</ele><time>2026-05-02T09:54:41.654Z</time></trkpt><trkpt lat="42.2162097" lon="13.8387169"><ele>434.0</ele><time>2026-05-02T09:54:42.654Z</time></trkpt><trkpt lat="42.2162611" lon="13.8385606"><ele>434.0</ele><time>2026-05-02T09:54:43.653Z</time></trkpt><trkpt lat="42.2163093" lon="13.8384043"><ele>431.25</ele><time>2026-05-02T09:54:44.649Z</time></trkpt><trkpt lat="42.2163508" lon="13.8382453"><ele>428.5</ele><time>2026-05-02T09:54:45.654Z</time></trkpt><trkpt lat="42.216392" lon="13.838086"><ele>425.75</ele><time>2026-05-02T09:54:46.655Z</time></trkpt><trkpt lat="42.2164328" lon="13.8379295"><ele>423.0</ele><time>2026-05-02T09:54:47.655Z</time></trkpt><trkpt lat="42.2164707" lon="13.8377683"><ele>423.0</ele><time>2026-05-02T09:54:48.655Z</time></trkpt><trkpt lat="42.2165086" lon="13.8376069"><ele>423.0</ele><time>2026-05-02T09:54:49.654Z</time></trkpt><trkpt lat="42.2165472" lon="13.8374455"><ele>423.0</ele><time>2026-05-02T09:54:50.655Z</time></trkpt><trkpt lat="42.2165842" lon="13.8372842"><ele>423.0</ele><time>2026-05-02T09:54:51.655Z</time></trkpt><trkpt lat="42.2166205" lon="13.8371202"><ele>423.0</ele><time>2026-05-02T09:54:52.649Z</time></trkpt><trkpt lat="42.2166574" lon="13.83696"><ele>423.0</ele><time>2026-05-02T09:54:53.653Z</time></trkpt><trkpt lat="42.2166985" lon="13.8368024"><ele>423.0</ele><time>2026-05-02T09:54:54.654Z</time></trkpt><trkpt lat="42.2167413" lon="13.8366447"><ele>423.0</ele><time>2026-05-02T09:54:55.654Z</time></trkpt><trkpt lat="42.2167898" lon="13.8364889"><ele>420.0</ele><time>2026-05-02T09:54:56.655Z</time></trkpt><trkpt lat="42.2168488" lon="13.8363308"><ele>417.0</ele><time>2026-05-02T09:54:57.654Z</time></trkpt><trkpt lat="42.2169204" lon="13.8361663"><ele>414.0</ele><time>2026-05-02T09:54:58.652Z</time></trkpt><trkpt lat="42.2170004" lon="13.8359968"><ele>411.0</ele><time>2026-05-02T09:54:59.649Z</time></trkpt><trkpt lat="42.2170857" lon="13.8358317"><ele>411.0</ele><time>2026-05-02T09:55:00.652Z</time></trkpt><trkpt lat="42.2171737" lon="13.8356709"><ele>411.0</ele><time>2026-05-02T09:55:01.652Z</time></trkpt><trkpt lat="42.2172619" lon="13.8355182"><ele>411.0</ele><time>2026-05-02T09:55:02.654Z</time></trkpt><trkpt lat="42.2173492" lon="13.8353701"><ele>411.0</ele><time>2026-05-02T09:55:03.655Z</time></trkpt><trkpt lat="42.217432" lon="13.8352329"><ele>408.6</ele><time>2026-05-02T09:55:04.655Z</time></trkpt><trkpt lat="42.2174989" lon="13.8351136"><ele>406.20000000000005</ele><time>2026-05-02T09:55:05.655Z</time></trkpt><trkpt lat="42.2175496" lon="13.8349867"><ele>403.79999999999995</ele><time>2026-05-02T09:55:06.649Z</time></trkpt><trkpt lat="42.2175767" lon="13.8348488"><ele>401.4</ele><time>2026-05-02T09:55:07.65Z</time></trkpt><trkpt lat="42.2175754" lon="13.8347009"><ele>399.0</ele><time>2026-05-02T09:55:08.655Z</time></trkpt><trkpt lat="42.2175552" lon="13.8345311"><ele>399.0</ele><time>2026-05-02T09:55:09.655Z</time></trkpt><trkpt lat="42.2175318" lon="13.8343464"><ele>399.0</ele><time>2026-05-02T09:55:10.654Z</time></trkpt><trkpt lat="42.2175116" lon="13.8341458"><ele>399.0</ele><time>2026-05-02T09:55:11.654Z</time></trkpt><trkpt lat="42.2174923" lon="13.8339493"><ele>399.0</ele><time>2026-05-02T09:55:12.652Z</time></trkpt><trkpt lat="42.2174743" lon="13.833756"><ele>397.0</ele><time>2026-05-02T09:55:13.651Z</time></trkpt><trkpt lat="42.2174551" lon="13.8335663"><ele>395.0</ele><time>2026-05-02T09:55:14.654Z</time></trkpt><trkpt lat="42.2174353" lon="13.8333735"><ele>393.0</ele><time>2026-05-02T09:55:15.652Z</time></trkpt><trkpt lat="42.2174239" lon="13.8331853"><ele>391.0</ele><time>2026-05-02T09:55:16.652Z</time></trkpt><trkpt lat="42.2174213" lon="13.8329982"><ele>388.33333333333337</ele><time>2026-05-02T09:55:17.654Z</time></trkpt><trkpt lat="42.217427" lon="13.8327977"><ele>385.6666666666667</ele><time>2026-05-02T09:55:18.654Z</time></trkpt><trkpt lat="42.2174433" lon="13.8325828"><ele>383.0</ele><time>2026-05-02T09:55:19.655Z</time></trkpt><trkpt lat="42.2174619" lon="13.8323609"><ele>380.6666666666667</ele><time>2026-05-02T09:55:20.654Z</time></trkpt><trkpt lat="42.2174801" lon="13.8321305"><ele>378.3333333333333</ele><time>2026-05-02T09:55:21.654Z</time></trkpt><trkpt lat="42.2174966" lon="13.8319136"><ele>376.0</ele><time>2026-05-02T09:55:22.65Z</time></trkpt><trkpt lat="42.2175117" lon="13.8317265"><ele>375.0</ele><time>2026-05-02T09:55:23.654Z</time></trkpt><trkpt lat="42.2175293" lon="13.8315514"><ele>374.0</ele><time>2026-05-02T09:55:24.651Z</time></trkpt><trkpt lat="42.2175513" lon="13.8313769"><ele>373.0</ele><time>2026-05-02T09:55:25.654Z</time></trkpt><trkpt lat="42.2175801" lon="13.8312064"><ele>372.0</ele><time>2026-05-02T09:55:26.654Z</time></trkpt><trkpt lat="42.217626" lon="13.8310282"><ele>371.25</ele><time>2026-05-02T09:55:27.652Z</time></trkpt><trkpt lat="42.2176781" lon="13.830852"><ele>370.5</ele><time>2026-05-02T09:55:28.652Z</time></trkpt><trkpt lat="42.2177293" lon="13.8306903"><ele>369.75</ele><time>2026-05-02T09:55:29.654Z</time></trkpt><trkpt lat="42.2177675" lon="13.8305666"><ele>369.0</ele><time>2026-05-02T09:55:30.655Z</time></trkpt><trkpt lat="42.2178039" lon="13.8304572"><ele>369.0</ele><time>2026-05-02T09:55:31.654Z</time></trkpt><trkpt lat="42.217845" lon="13.8303507"><ele>369.0</ele><time>2026-05-02T09:55:32.65Z</time></trkpt><trkpt lat="42.2178908" lon="13.830247"><ele>369.0</ele><time>2026-05-02T09:55:33.653Z</time></trkpt><trkpt lat="42.2179392" lon="13.8301377"><ele>369.0</ele><time>2026-05-02T09:55:34.652Z</time></trkpt><trkpt lat="42.217976" lon="13.8300212"><ele>369.0</ele><time>2026-05-02T09:55:35.654Z</time></trkpt><trkpt lat="42.2180045" lon="13.8298858"><ele>367.75</ele><time>2026-05-02T09:55:36.654Z</time></trkpt><trkpt lat="42.2180251" lon="13.8297293"><ele>366.5</ele><time>2026-05-02T09:55:37.654Z</time></trkpt><trkpt lat="42.2180326" lon="13.8295519"><ele>365.25</ele><time>2026-05-02T09:55:38.654Z</time></trkpt><trkpt lat="42.2180264" lon="13.8293437"><ele>364.0</ele><time>2026-05-02T09:55:39.654Z</time></trkpt><trkpt lat="42.2180091" lon="13.8291204"><ele>363.0</ele><time>2026-05-02T09:55:40.653Z</time></trkpt><trkpt lat="42.2179902" lon="13.8288873"><ele>362.0</ele><time>2026-05-02T09:55:41.651Z</time></trkpt><trkpt lat="42.2179704" lon="13.828644"><ele>361.0</ele><time>2026-05-02T09:55:42.651Z</time></trkpt><trkpt lat="42.2179475" lon="13.8284006"><ele>359.3333333333333</ele><time>2026-05-02T09:55:43.649Z</time></trkpt><trkpt lat="42.2179279" lon="13.8281707"><ele>357.6666666666667</ele><time>2026-05-02T09:55:44.653Z</time></trkpt><trkpt lat="42.2179132" lon="13.8279476"><ele>356.0</ele><time>2026-05-02T09:55:45.654Z</time></trkpt><trkpt lat="42.2178992" lon="13.8277326"><ele>354.25</ele><time>2026-05-02T09:55:46.652Z</time></trkpt><trkpt lat="42.2178877" lon="13.8275233"><ele>352.5</ele><time>2026-05-02T09:55:47.651Z</time></trkpt><trkpt lat="42.2178853" lon="13.8273229"><ele>350.75</ele><time>2026-05-02T09:55:48.65Z</time></trkpt><trkpt lat="42.2178874" lon="13.8271618"><ele>349.0</ele><time>2026-05-02T09:55:49.649Z</time></trkpt><trkpt lat="42.2178852" lon="13.8270225"><ele>349.0</ele><time>2026-05-02T09:55:50.652Z</time></trkpt><trkpt lat="42.2178618" lon="13.826905"><ele>349.0</ele><time>2026-05-02T09:55:51.653Z</time></trkpt><trkpt lat="42.2178094" lon="13.8268013"><ele>349.0</ele><time>2026-05-02T09:55:52.655Z</time></trkpt><trkpt lat="42.2177262" lon="13.8267173"><ele>349.0</ele><time>2026-05-02T09:55:53.655Z</time></trkpt><trkpt lat="42.2176293" lon="13.8266506"><ele>349.0</ele><time>2026-05-02T09:55:54.654Z</time></trkpt><trkpt lat="42.2175328" lon="13.8265825"><ele>347.6</ele><time>2026-05-02T09:55:55.65Z</time></trkpt><trkpt lat="42.2174631" lon="13.8265279"><ele>346.2</ele><time>2026-05-02T09:55:56.654Z</time></trkpt><trkpt lat="42.2174079" lon="13.8264826"><ele>344.8</ele><time>2026-05-02T09:55:57.654Z</time></trkpt><trkpt lat="42.2173617" lon="13.8263863"><ele>343.40000000000003</ele><time>2026-05-02T09:55:59.653Z</time></trkpt><trkpt lat="42.2174106" lon="13.8262287"><ele>342.0</ele><time>2026-05-02T09:56:01.653Z</time></trkpt><trkpt lat="42.2174836" lon="13.8261177"><ele>342.0</ele><time>2026-05-02T09:56:02.65Z</time></trkpt><trkpt lat="42.2175678" lon="13.8259887"><ele>342.0</ele><time>2026-05-02T09:56:03.651Z</time></trkpt><trkpt lat="42.2176443" lon="13.8258657"><ele>342.0</ele><time>2026-05-02T09:56:04.65Z</time></trkpt><trkpt lat="42.2177096" lon="13.8257521"><ele>342.0</ele><time>2026-05-02T09:56:05.651Z</time></trkpt><trkpt lat="42.2177505" lon="13.8256543"><ele>342.0</ele><time>2026-05-02T09:56:06.655Z</time></trkpt><trkpt lat="42.2177704" lon="13.8255476"><ele>340.1666666666667</ele><time>2026-05-02T09:56:07.654Z</time></trkpt><trkpt lat="42.2177651" lon="13.8254338"><ele>338.3333333333333</ele><time>2026-05-02T09:56:08.655Z</time></trkpt><trkpt lat="42.2177355" lon="13.825326"><ele>336.5</ele><time>2026-05-02T09:56:09.651Z</time></trkpt><trkpt lat="42.2176794" lon="13.8252386"><ele>334.66666666666663</ele><time>2026-05-02T09:56:10.653Z</time></trkpt><trkpt lat="42.2176033" lon="13.8251867"><ele>332.8333333333333</ele><time>2026-05-02T09:56:11.653Z</time></trkpt><trkpt lat="42.2175137" lon="13.8251625"><ele>331.0</ele><time>2026-05-02T09:56:12.65Z</time></trkpt><trkpt lat="42.2174203" lon="13.8251439"><ele>329.6</ele><time>2026-05-02T09:56:13.65Z</time></trkpt><trkpt lat="42.2173321" lon="13.8251224"><ele>328.20000000000005</ele><time>2026-05-02T09:56:14.654Z</time></trkpt><trkpt lat="42.2172448" lon="13.8250956"><ele>326.79999999999995</ele><time>2026-05-02T09:56:15.654Z</time></trkpt><trkpt lat="42.2171656" lon="13.82504"><ele>325.4</ele><time>2026-05-02T09:56:16.651Z</time></trkpt><trkpt lat="42.2170864" lon="13.8249395"><ele>324.0</ele><time>2026-05-02T09:56:17.654Z</time></trkpt><trkpt lat="42.2170081" lon="13.8248074"><ele>323.3333333333333</ele><time>2026-05-02T09:56:18.655Z</time></trkpt><trkpt lat="42.2169201" lon="13.8246309"><ele>322.66666666666663</ele><time>2026-05-02T09:56:19.655Z</time></trkpt><trkpt lat="42.2168329" lon="13.8244239"><ele>322.0</ele><time>2026-05-02T09:56:20.652Z</time></trkpt><trkpt lat="42.2167463" lon="13.8242082"><ele>321.0</ele><time>2026-05-02T09:56:21.654Z</time></trkpt><trkpt lat="42.2166546" lon="13.8239909"><ele>320.0</ele><time>2026-05-02T09:56:22.652Z</time></trkpt><trkpt lat="42.2165692" lon="13.8237892"><ele>319.0</ele><time>2026-05-02T09:56:23.655Z</time></trkpt><trkpt lat="42.216489" lon="13.8235987"><ele>317.0</ele><time>2026-05-02T09:56:24.651Z</time></trkpt><trkpt lat="42.2164083" lon="13.8234121"><ele>315.0</ele><time>2026-05-02T09:56:25.651Z</time></trkpt><trkpt lat="42.2163293" lon="13.8232297"><ele>313.0</ele><time>2026-05-02T09:56:26.654Z</time></trkpt><trkpt lat="42.2162607" lon="13.8230544"><ele>313.0</ele><time>2026-05-02T09:56:27.653Z</time></trkpt><trkpt lat="42.2161944" lon="13.8228852"><ele>313.0</ele><time>2026-05-02T09:56:28.651Z</time></trkpt><trkpt lat="42.2161277" lon="13.8227244"><ele>313.0</ele><time>2026-05-02T09:56:29.655Z</time></trkpt><trkpt lat="42.2160598" lon="13.8225763"><ele>313.0</ele><time>2026-05-02T09:56:30.65Z</time></trkpt><trkpt lat="42.2159819" lon="13.8224531"><ele>313.4</ele><time>2026-05-02T09:56:31.649Z</time></trkpt><trkpt lat="42.2158964" lon="13.8223679"><ele>313.8</ele><time>2026-05-02T09:56:32.654Z</time></trkpt><trkpt lat="42.2158029" lon="13.8223209"><ele>314.2</ele><time>2026-05-02T09:56:33.654Z</time></trkpt><trkpt lat="42.2157016" lon="13.8222965"><ele>314.6</ele><time>2026-05-02T09:56:34.652Z</time></trkpt><trkpt lat="42.215595" lon="13.8222967"><ele>315.0</ele><time>2026-05-02T09:56:35.654Z</time></trkpt><trkpt lat="42.2154854" lon="13.82232"><ele>315.5</ele><time>2026-05-02T09:56:36.653Z</time></trkpt><trkpt lat="42.2153694" lon="13.8223693"><ele>316.0</ele><time>2026-05-02T09:56:37.65Z</time></trkpt><trkpt lat="42.2152487" lon="13.8224381"><ele>316.5</ele><time>2026-05-02T09:56:38.652Z</time></trkpt><trkpt lat="42.2151257" lon="13.8225031"><ele>317.0</ele><time>2026-05-02T09:56:39.654Z</time></trkpt><trkpt lat="42.2150072" lon="13.8225678"><ele>317.0</ele><time>2026-05-02T09:56:40.654Z</time></trkpt><trkpt lat="42.2148937" lon="13.822633"><ele>317.0</ele><time>2026-05-02T09:56:41.655Z</time></trkpt><trkpt lat="42.2147842" lon="13.822694"><ele>317.0</ele><time>2026-05-02T09:56:42.654Z</time></trkpt><trkpt lat="42.2146798" lon="13.822744"><ele>317.0</ele><time>2026-05-02T09:56:43.654Z</time></trkpt><trkpt lat="42.214575" lon="13.822767"><ele>317.0</ele><time>2026-05-02T09:56:44.654Z</time></trkpt><trkpt lat="42.2144782" lon="13.822751"><ele>317.0</ele><time>2026-05-02T09:56:45.655Z</time></trkpt><trkpt lat="42.2143942" lon="13.8227028"><ele>317.0</ele><time>2026-05-02T09:56:46.651Z</time></trkpt><trkpt lat="42.2143226" lon="13.8226404"><ele>317.0</ele><time>2026-05-02T09:56:47.654Z</time></trkpt><trkpt lat="42.2142599" lon="13.8225797"><ele>317.0</ele><time>2026-05-02T09:56:48.65Z</time></trkpt><trkpt lat="42.2142104" lon="13.8225167"><ele>317.0</ele><time>2026-05-02T09:56:49.653Z</time></trkpt><trkpt lat="42.2141634" lon="13.822447"><ele>317.0</ele><time>2026-05-02T09:56:50.649Z</time></trkpt><trkpt lat="42.2141223" lon="13.822373"><ele>317.0</ele><time>2026-05-02T09:56:51.654Z</time></trkpt><trkpt lat="42.2140919" lon="13.8222937"><ele>317.0</ele><time>2026-05-02T09:56:52.652Z</time></trkpt><trkpt lat="42.2140499" lon="13.8221654"><ele>317.0</ele><time>2026-05-02T09:56:54.655Z</time></trkpt><trkpt lat="42.2139988" lon="13.82208"><ele>317.0</ele><time>2026-05-02T09:56:57.654Z</time></trkpt><trkpt lat="42.2139251" lon="13.8220477"><ele>317.0</ele><time>2026-05-02T09:56:59.654Z</time></trkpt><trkpt lat="42.2138463" lon="13.8220554"><ele>317.0</ele><time>2026-05-02T09:57:01.652Z</time></trkpt><trkpt lat="42.2137887" lon="13.8219954"><ele>317.0</ele><time>2026-05-02T09:57:03.654Z</time></trkpt><trkpt lat="42.2137811" lon="13.8218513"><ele>317.0</ele><time>2026-05-02T09:57:05.654Z</time></trkpt><trkpt lat="42.2137854" lon="13.8217217"><ele>317.0</ele><time>2026-05-02T09:57:07.655Z</time></trkpt><trkpt lat="42.2137944" lon="13.8216321"><ele>317.0</ele><time>2026-05-02T09:57:09.651Z</time></trkpt><trkpt lat="42.2137497" lon="13.8217123"><ele>317.0</ele><time>2026-05-02T09:57:15.654Z</time></trkpt><trkpt lat="42.2137575" lon="13.8218795"><ele>317.0</ele><time>2026-05-02T09:57:17.651Z</time></trkpt><trkpt lat="42.2137763" lon="13.8220161"><ele>317.0</ele><time>2026-05-02T09:57:19.655Z</time></trkpt><trkpt lat="42.2138529" lon="13.8221032"><ele>317.0</ele><time>2026-05-02T09:57:24.651Z</time></trkpt><trkpt lat="42.2139583" lon="13.8220857"><ele>317.0</ele><time>2026-05-02T09:57:26.651Z</time></trkpt><trkpt lat="42.2140546" lon="13.8220264"><ele>317.0</ele><time>2026-05-02T09:57:28.654Z</time></trkpt><trkpt lat="42.2141117" lon="13.8219767"><ele>317.0</ele><time>2026-05-02T09:57:29.655Z</time></trkpt><trkpt lat="42.2141738" lon="13.8219237"><ele>317.0</ele><time>2026-05-02T09:57:30.654Z</time></trkpt><trkpt lat="42.2142488" lon="13.8218511"><ele>317.0</ele><time>2026-05-02T09:57:31.654Z</time></trkpt><trkpt lat="42.2143298" lon="13.8217612"><ele>317.0</ele><time>2026-05-02T09:57:32.654Z</time></trkpt><trkpt lat="42.2144062" lon="13.8216618"><ele>317.0</ele><time>2026-05-02T09:57:33.654Z</time></trkpt><trkpt lat="42.2144719" lon="13.8215717"><ele>317.0</ele><time>2026-05-02T09:57:34.654Z</time></trkpt><trkpt lat="42.2145327" lon="13.8214845"><ele>317.0</ele><time>2026-05-02T09:57:35.653Z</time></trkpt><trkpt lat="42.2145906" lon="13.8214012"><ele>317.0</ele><time>2026-05-02T09:57:36.654Z</time></trkpt><trkpt lat="42.2146549" lon="13.8213032"><ele>317.0</ele><time>2026-05-02T09:57:37.65Z</time></trkpt><trkpt lat="42.2147344" lon="13.8211843"><ele>317.0</ele><time>2026-05-02T09:57:38.654Z</time></trkpt><trkpt lat="42.2148233" lon="13.8210549"><ele>317.5</ele><time>2026-05-02T09:57:39.654Z</time></trkpt><trkpt lat="42.2149199" lon="13.8209145"><ele>318.0</ele><time>2026-05-02T09:57:40.654Z</time></trkpt><trkpt lat="42.2150243" lon="13.8207618"><ele>318.5</ele><time>2026-05-02T09:57:41.654Z</time></trkpt><trkpt lat="42.2151155" lon="13.8206343"><ele>319.0</ele><time>2026-05-02T09:57:42.655Z</time></trkpt><trkpt lat="42.2151814" lon="13.8205396"><ele>319.0</ele><time>2026-05-02T09:57:43.654Z</time></trkpt><trkpt lat="42.2152196" lon="13.820467"><ele>319.0</ele><time>2026-05-02T09:57:44.654Z</time></trkpt><trkpt lat="42.215219" lon="13.8203516"><ele>319.0</ele><time>2026-05-02T09:57:46.654Z</time></trkpt><trkpt lat="42.2151619" lon="13.8202809"><ele>319.0</ele><time>2026-05-02T09:57:48.654Z</time></trkpt><trkpt lat="42.2150839" lon="13.820309"><ele>319.0</ele><time>2026-05-02T09:57:50.654Z</time></trkpt><trkpt lat="42.2150355" lon="13.8204066"><ele>319.0</ele><time>2026-05-02T09:57:52.655Z</time></trkpt><trkpt lat="42.2149712" lon="13.8204378"><ele>319.0</ele><time>2026-05-02T09:57:54.654Z</time></trkpt><trkpt lat="42.2150223" lon="13.8203556"><ele>319.0</ele><time>2026-05-02T10:02:10.649Z</time></trkpt><trkpt lat="42.2150878" lon="13.820337"><ele>319.0</ele><time>2026-05-02T10:02:13.652Z</time></trkpt><trkpt lat="42.2151715" lon="13.8203469"><ele>319.0</ele><time>2026-05-02T10:02:15.655Z</time></trkpt><trkpt lat="42.2152445" lon="13.8203673"><ele>319.0</ele><time>2026-05-02T10:02:18.654Z</time></trkpt><trkpt lat="42.2153584" lon="13.8202702"><ele>319.0</ele><time>2026-05-02T10:02:21.652Z</time></trkpt><trkpt lat="42.2155399" lon="13.8200036"><ele>319.0</ele><time>2026-05-02T10:02:23.654Z</time></trkpt><trkpt lat="42.2156515" lon="13.8198336"><ele>319.0</ele><time>2026-05-02T10:02:24.651Z</time></trkpt><trkpt lat="42.2157652" lon="13.8196612"><ele>319.0</ele><time>2026-05-02T10:02:25.653Z</time></trkpt><trkpt lat="42.2158749" lon="13.8194919"><ele>319.0</ele><time>2026-05-02T10:02:26.655Z</time></trkpt><trkpt lat="42.2159755" lon="13.8193421"><ele>319.0</ele><time>2026-05-02T10:02:27.65Z</time></trkpt><trkpt lat="42.216068" lon="13.8192038"><ele>319.0</ele><time>2026-05-02T10:02:28.652Z</time></trkpt><trkpt lat="42.2161525" lon="13.8190781"><ele>319.0</ele><time>2026-05-02T10:02:29.654Z</time></trkpt><trkpt lat="42.2162169" lon="13.8189782"><ele>319.16666666666663</ele><time>2026-05-02T10:02:30.654Z</time></trkpt><trkpt lat="42.2162528" lon="13.8188201"><ele>319.3333333333333</ele><time>2026-05-02T10:02:32.654Z</time></trkpt><trkpt lat="42.21624" lon="13.818712"><ele>319.5</ele><time>2026-05-02T10:02:33.654Z</time></trkpt><trkpt lat="42.2162227" lon="13.8185877"><ele>319.6666666666667</ele><time>2026-05-02T10:02:34.654Z</time></trkpt><trkpt lat="42.216222" lon="13.8184777"><ele>319.83333333333337</ele><time>2026-05-02T10:02:35.652Z</time></trkpt><trkpt lat="42.2162392" lon="13.8183865"><ele>320.0</ele><time>2026-05-02T10:02:36.655Z</time></trkpt><trkpt lat="42.2162772" lon="13.8183105"><ele>319.33333333333337</ele><time>2026-05-02T10:02:37.654Z</time></trkpt><trkpt lat="42.2163415" lon="13.8182139"><ele>318.6666666666667</ele><time>2026-05-02T10:02:38.654Z</time></trkpt><trkpt lat="42.2164598" lon="13.8180758"><ele>318.0</ele><time>2026-05-02T10:02:39.654Z</time></trkpt><trkpt lat="42.2167592" lon="13.817822"><ele>318.0</ele><time>2026-05-02T10:02:41.553Z</time></trkpt><trkpt lat="42.2169807" lon="13.8176679"><ele>318.0</ele><time>2026-05-02T10:02:42.647Z</time></trkpt><trkpt lat="42.2172046" lon="13.8175466"><ele>318.5</ele><time>2026-05-02T10:02:43.648Z</time></trkpt><trkpt lat="42.2174574" lon="13.8174517"><ele>319.0</ele><time>2026-05-02T10:02:44.647Z</time></trkpt><trkpt lat="42.2177277" lon="13.8173768"><ele>319.0</ele><time>2026-05-02T10:02:45.647Z</time></trkpt><trkpt lat="42.2180155" lon="13.8173136"><ele>319.0</ele><time>2026-05-02T10:02:46.647Z</time></trkpt><trkpt lat="42.2183009" lon="13.8172578"><ele>318.5</ele><time>2026-05-02T10:02:47.647Z</time></trkpt><trkpt lat="42.2185828" lon="13.8172017"><ele>318.0</ele><time>2026-05-02T10:02:48.647Z</time></trkpt><trkpt lat="42.2188599" lon="13.8171508"><ele>318.5</ele><time>2026-05-02T10:02:49.647Z</time></trkpt><trkpt lat="42.2191309" lon="13.8171072"><ele>319.0</ele><time>2026-05-02T10:02:50.647Z</time></trkpt><trkpt lat="42.2193945" lon="13.8170731"><ele>319.0</ele><time>2026-05-02T10:02:51.647Z</time></trkpt><trkpt lat="42.2196538" lon="13.8170554"><ele>319.0</ele><time>2026-05-02T10:02:52.647Z</time></trkpt><trkpt lat="42.2199118" lon="13.8170624"><ele>318.5</ele><time>2026-05-02T10:02:53.648Z</time></trkpt><trkpt lat="42.2201758" lon="13.8170999"><ele>318.0</ele><time>2026-05-02T10:02:54.647Z</time></trkpt><trkpt lat="42.2204414" lon="13.817166"><ele>317.5</ele><time>2026-05-02T10:02:55.648Z</time></trkpt><trkpt lat="42.2206978" lon="13.8172353"><ele>317.0</ele><time>2026-05-02T10:02:56.648Z</time></trkpt><trkpt lat="42.2209346" lon="13.8173013"><ele>317.0</ele><time>2026-05-02T10:02:57.648Z</time></trkpt><trkpt lat="42.2211573" lon="13.8173616"><ele>317.0</ele><time>2026-05-02T10:02:58.647Z</time></trkpt><trkpt lat="42.2213669" lon="13.8174115"><ele>317.0</ele><time>2026-05-02T10:02:59.648Z</time></trkpt><trkpt lat="42.2215762" lon="13.8174451"><ele>317.0</ele><time>2026-05-02T10:03:00.648Z</time></trkpt><trkpt lat="42.2217928" lon="13.8174597"><ele>317.0</ele><time>2026-05-02T10:03:01.648Z</time></trkpt><trkpt lat="42.2220056" lon="13.8174519"><ele>317.0</ele><time>2026-05-02T10:03:02.647Z</time></trkpt><trkpt lat="42.2222172" lon="13.8174246"><ele>318.0</ele><time>2026-05-02T10:03:03.648Z</time></trkpt><trkpt lat="42.2224266" lon="13.8173771"><ele>319.0</ele><time>2026-05-02T10:03:04.647Z</time></trkpt><trkpt lat="42.2226312" lon="13.8173017"><ele>320.0</ele><time>2026-05-02T10:03:05.647Z</time></trkpt><trkpt lat="42.2228371" lon="13.8171999"><ele>320.0</ele><time>2026-05-02T10:03:06.647Z</time></trkpt><trkpt lat="42.2230543" lon="13.8170685"><ele>320.0</ele><time>2026-05-02T10:03:07.648Z</time></trkpt><trkpt lat="42.2232814" lon="13.8169094"><ele>320.5</ele><time>2026-05-02T10:03:08.647Z</time></trkpt><trkpt lat="42.2235126" lon="13.816732"><ele>321.0</ele><time>2026-05-02T10:03:09.647Z</time></trkpt><trkpt lat="42.2237499" lon="13.8165408"><ele>318.5</ele><time>2026-05-02T10:03:10.647Z</time></trkpt><trkpt lat="42.2239885" lon="13.8163428"><ele>316.0</ele><time>2026-05-02T10:03:11.648Z</time></trkpt><trkpt lat="42.2242168" lon="13.8161524"><ele>318.0</ele><time>2026-05-02T10:03:12.647Z</time></trkpt><trkpt lat="42.2244431" lon="13.8159702"><ele>320.0</ele><time>2026-05-02T10:03:13.647Z</time></trkpt><trkpt lat="42.224668" lon="13.8158004"><ele>318.5</ele><time>2026-05-02T10:03:14.648Z</time></trkpt><trkpt lat="42.2248955" lon="13.8156544"><ele>317.0</ele><time>2026-05-02T10:03:15.647Z</time></trkpt><trkpt lat="42.2251256" lon="13.8155373"><ele>317.0</ele><time>2026-05-02T10:03:16.647Z</time></trkpt><trkpt lat="42.2253625" lon="13.8154478"><ele>317.0</ele><time>2026-05-02T10:03:17.647Z</time></trkpt><trkpt lat="42.2256108" lon="13.8153702"><ele>317.0</ele><time>2026-05-02T10:03:18.647Z</time></trkpt><trkpt lat="42.2258661" lon="13.8152959"><ele>317.0</ele><time>2026-05-02T10:03:19.648Z</time></trkpt><trkpt lat="42.2261261" lon="13.8152241"><ele>317.0</ele><time>2026-05-02T10:03:20.647Z</time></trkpt><trkpt lat="42.2263886" lon="13.8151547"><ele>317.0</ele><time>2026-05-02T10:03:21.647Z</time></trkpt><trkpt lat="42.2266491" lon="13.8150871"><ele>320.0</ele><time>2026-05-02T10:03:22.648Z</time></trkpt><trkpt lat="42.2269066" lon="13.8150242"><ele>323.0</ele><time>2026-05-02T10:03:23.647Z</time></trkpt><trkpt lat="42.2271632" lon="13.8149704"><ele>321.0</ele><time>2026-05-02T10:03:24.647Z</time></trkpt><trkpt lat="42.2274182" lon="13.8149231"><ele>319.0</ele><time>2026-05-02T10:03:25.647Z</time></trkpt><trkpt lat="42.2276684" lon="13.814884"><ele>319.0</ele><time>2026-05-02T10:03:26.647Z</time></trkpt><trkpt lat="42.2279039" lon="13.8148541"><ele>319.0</ele><time>2026-05-02T10:03:27.647Z</time></trkpt><trkpt lat="42.2281252" lon="13.8148268"><ele>319.0</ele><time>2026-05-02T10:03:28.648Z</time></trkpt><trkpt lat="42.2283092" lon="13.8148109"><ele>319.0</ele><time>2026-05-02T10:03:29.648Z</time></trkpt><trkpt lat="42.2284684" lon="13.8148078"><ele>319.0</ele><time>2026-05-02T10:03:30.647Z</time></trkpt><trkpt lat="42.228609" lon="13.814824"><ele>319.0</ele><time>2026-05-02T10:03:31.647Z</time></trkpt><trkpt lat="42.2287403" lon="13.8148512"><ele>319.0</ele><time>2026-05-02T10:03:32.648Z</time></trkpt><trkpt lat="42.2288603" lon="13.8148844"><ele>319.0</ele><time>2026-05-02T10:03:33.648Z</time></trkpt><trkpt lat="42.2289794" lon="13.8149306"><ele>319.0</ele><time>2026-05-02T10:03:34.648Z</time></trkpt><trkpt lat="42.229085" lon="13.8149947"><ele>318.8</ele><time>2026-05-02T10:03:35.648Z</time></trkpt><trkpt lat="42.2291887" lon="13.8150517"><ele>318.59999999999997</ele><time>2026-05-02T10:03:36.647Z</time></trkpt><trkpt lat="42.2292799" lon="13.8151002"><ele>318.4</ele><time>2026-05-02T10:03:37.647Z</time></trkpt><trkpt lat="42.229356" lon="13.8151446"><ele>318.2</ele><time>2026-05-02T10:03:38.647Z</time></trkpt><trkpt lat="42.2294615" lon="13.8151978"><ele>318.0</ele><time>2026-05-02T10:03:40.647Z</time></trkpt><trkpt lat="42.2295521" lon="13.8152881"><ele>318.0</ele><time>2026-05-02T10:03:42.647Z</time></trkpt><trkpt lat="42.2296004" lon="13.8153495"><ele>318.0</ele><time>2026-05-02T10:03:43.647Z</time></trkpt><trkpt lat="42.2296538" lon="13.8154255"><ele>318.0</ele><time>2026-05-02T10:03:44.647Z</time></trkpt><trkpt lat="42.2297028" lon="13.8155104"><ele>318.0</ele><time>2026-05-02T10:03:45.647Z</time></trkpt><trkpt lat="42.2297521" lon="13.8155986"><ele>318.0</ele><time>2026-05-02T10:03:46.647Z</time></trkpt><trkpt lat="42.2298002" lon="13.8156796"><ele>318.0</ele><time>2026-05-02T10:03:47.647Z</time></trkpt><trkpt lat="42.2298436" lon="13.8157604"><ele>318.0</ele><time>2026-05-02T10:03:48.647Z</time></trkpt><trkpt lat="42.2298865" lon="13.8158399"><ele>318.0</ele><time>2026-05-02T10:03:49.648Z</time></trkpt><trkpt lat="42.2299185" lon="13.8159194"><ele>318.0</ele><time>2026-05-02T10:03:50.648Z</time></trkpt><trkpt lat="42.2299387" lon="13.8160002"><ele>318.0</ele><time>2026-05-02T10:03:51.647Z</time></trkpt><trkpt lat="42.2299411" lon="13.8160929"><ele>318.0</ele><time>2026-05-02T10:03:52.647Z</time></trkpt><trkpt lat="42.2299303" lon="13.816188"><ele>318.0</ele><time>2026-05-02T10:03:53.647Z</time></trkpt><trkpt lat="42.229917" lon="13.8162919"><ele>318.0</ele><time>2026-05-02T10:03:54.648Z</time></trkpt><trkpt lat="42.2299086" lon="13.8164011"><ele>317.7142857142857</ele><time>2026-05-02T10:03:55.647Z</time></trkpt><trkpt lat="42.2299081" lon="13.8165142"><ele>317.42857142857144</ele><time>2026-05-02T10:03:56.647Z</time></trkpt><trkpt lat="42.2299157" lon="13.8166206"><ele>317.14285714285717</ele><time>2026-05-02T10:03:57.647Z</time></trkpt><trkpt lat="42.229927" lon="13.816712"><ele>316.8571428571429</ele><time>2026-05-02T10:03:58.647Z</time></trkpt><trkpt lat="42.2299372" lon="13.8167994"><ele>316.57142857142856</ele><time>2026-05-02T10:03:59.647Z</time></trkpt><trkpt lat="42.2299455" lon="13.8168837"><ele>316.28571428571433</ele><time>2026-05-02T10:04:00.647Z</time></trkpt><trkpt lat="42.2299566" lon="13.8169683"><ele>316.0</ele><time>2026-05-02T10:04:01.647Z</time></trkpt><trkpt lat="42.2299682" lon="13.8170593"><ele>315.75</ele><time>2026-05-02T10:04:02.647Z</time></trkpt><trkpt lat="42.2299826" lon="13.8171764"><ele>315.5</ele><time>2026-05-02T10:04:03.648Z</time></trkpt><trkpt lat="42.2300005" lon="13.817325"><ele>315.25</ele><time>2026-05-02T10:04:04.647Z</time></trkpt><trkpt lat="42.2300176" lon="13.8174948"><ele>315.0</ele><time>2026-05-02T10:04:05.648Z</time></trkpt><trkpt lat="42.2300325" lon="13.8176744"><ele>315.0</ele><time>2026-05-02T10:04:06.648Z</time></trkpt><trkpt lat="42.2300476" lon="13.8178568"><ele>315.0</ele><time>2026-05-02T10:04:07.647Z</time></trkpt><trkpt lat="42.230063" lon="13.8180394"><ele>315.0</ele><time>2026-05-02T10:04:08.648Z</time></trkpt><trkpt lat="42.2300773" lon="13.8182187"><ele>315.0</ele><time>2026-05-02T10:04:09.647Z</time></trkpt><trkpt lat="42.2300888" lon="13.8183854"><ele>315.0</ele><time>2026-05-02T10:04:10.647Z</time></trkpt><trkpt lat="42.2300983" lon="13.8185505"><ele>315.0</ele><time>2026-05-02T10:04:11.647Z</time></trkpt><trkpt lat="42.2301015" lon="13.8187137"><ele>315.0</ele><time>2026-05-02T10:04:12.647Z</time></trkpt><trkpt lat="42.2301015" lon="13.8188733"><ele>315.0</ele><time>2026-05-02T10:04:13.647Z</time></trkpt><trkpt lat="42.2301033" lon="13.8190283"><ele>315.0</ele><time>2026-05-02T10:04:14.647Z</time></trkpt><trkpt lat="42.2301102" lon="13.8191767"><ele>315.0</ele><time>2026-05-02T10:04:15.647Z</time></trkpt><trkpt lat="42.2301193" lon="13.8193168"><ele>315.0</ele><time>2026-05-02T10:04:16.647Z</time></trkpt><trkpt lat="42.2301282" lon="13.8194391"><ele>315.0</ele><time>2026-05-02T10:04:17.647Z</time></trkpt><trkpt lat="42.2301331" lon="13.8195307"><ele>315.0</ele><time>2026-05-02T10:04:18.647Z</time></trkpt><trkpt lat="42.2301535" lon="13.8196295"><ele>315.0</ele><time>2026-05-02T10:04:20.648Z</time></trkpt><trkpt lat="42.2302566" lon="13.8196714"><ele>315.75</ele><time>2026-05-02T10:04:23.648Z</time></trkpt><trkpt lat="42.2303448" lon="13.8196578"><ele>316.5</ele><time>2026-05-02T10:04:24.648Z</time></trkpt><trkpt lat="42.2304674" lon="13.8196308"><ele>317.25</ele><time>2026-05-02T10:04:25.648Z</time></trkpt><trkpt lat="42.2306146" lon="13.8196088"><ele>318.0</ele><time>2026-05-02T10:04:26.648Z</time></trkpt><trkpt lat="42.2307708" lon="13.8195973"><ele>320.3333333333333</ele><time>2026-05-02T10:04:27.647Z</time></trkpt><trkpt lat="42.2309291" lon="13.8195736"><ele>322.66666666666663</ele><time>2026-05-02T10:04:28.648Z</time></trkpt><trkpt lat="42.2310765" lon="13.8195192"><ele>325.0</ele><time>2026-05-02T10:04:29.647Z</time></trkpt><trkpt lat="42.231207" lon="13.8194408"><ele>325.0</ele><time>2026-05-02T10:04:30.648Z</time></trkpt><trkpt lat="42.231341" lon="13.8193576"><ele>325.0</ele><time>2026-05-02T10:04:31.647Z</time></trkpt><trkpt lat="42.2314764" lon="13.819277"><ele>325.0</ele><time>2026-05-02T10:04:32.648Z</time></trkpt><trkpt lat="42.2316123" lon="13.8192049"><ele>325.0</ele><time>2026-05-02T10:04:33.647Z</time></trkpt><trkpt lat="42.2317632" lon="13.8191501"><ele>323.3333333333333</ele><time>2026-05-02T10:04:34.647Z</time></trkpt><trkpt lat="42.2319265" lon="13.8191095"><ele>321.6666666666667</ele><time>2026-05-02T10:04:35.647Z</time></trkpt><trkpt lat="42.2320919" lon="13.8190865"><ele>320.0</ele><time>2026-05-02T10:04:36.647Z</time></trkpt><trkpt lat="42.2322627" lon="13.8190736"><ele>320.33333333333337</ele><time>2026-05-02T10:04:37.647Z</time></trkpt><trkpt lat="42.2324283" lon="13.819065"><ele>320.6666666666667</ele><time>2026-05-02T10:04:38.648Z</time></trkpt><trkpt lat="42.2325851" lon="13.8190547"><ele>321.0</ele><time>2026-05-02T10:04:39.648Z</time></trkpt><trkpt lat="42.2327421" lon="13.8190421"><ele>321.0</ele><time>2026-05-02T10:04:40.648Z</time></trkpt><trkpt lat="42.2328888" lon="13.8190129"><ele>321.0</ele><time>2026-05-02T10:04:41.648Z</time></trkpt><trkpt lat="42.2330311" lon="13.8189617"><ele>321.0</ele><time>2026-05-02T10:04:42.647Z</time></trkpt><trkpt lat="42.2331714" lon="13.8188991"><ele>321.0</ele><time>2026-05-02T10:04:43.647Z</time></trkpt><trkpt lat="42.2333107" lon="13.8188361"><ele>323.5</ele><time>2026-05-02T10:04:44.647Z</time></trkpt><trkpt lat="42.2334486" lon="13.8187689"><ele>326.0</ele><time>2026-05-02T10:04:45.647Z</time></trkpt><trkpt lat="42.2335846" lon="13.818692"><ele>328.5</ele><time>2026-05-02T10:04:46.647Z</time></trkpt><trkpt lat="42.2337198" lon="13.8186162"><ele>331.0</ele><time>2026-05-02T10:04:47.647Z</time></trkpt><trkpt lat="42.2338533" lon="13.8185357"><ele>329.75</ele><time>2026-05-02T10:04:48.647Z</time></trkpt><trkpt lat="42.2339863" lon="13.8184495"><ele>328.5</ele><time>2026-05-02T10:04:49.648Z</time></trkpt><trkpt lat="42.2341164" lon="13.8183627"><ele>327.25</ele><time>2026-05-02T10:04:50.647Z</time></trkpt><trkpt lat="42.2342462" lon="13.81827"><ele>326.0</ele><time>2026-05-02T10:04:51.647Z</time></trkpt><trkpt lat="42.2343712" lon="13.8181668"><ele>326.0</ele><time>2026-05-02T10:04:52.647Z</time></trkpt><trkpt lat="42.2344918" lon="13.8180501"><ele>326.0</ele><time>2026-05-02T10:04:53.648Z</time></trkpt><trkpt lat="42.2346075" lon="13.817923"><ele>326.0</ele><time>2026-05-02T10:04:54.647Z</time></trkpt><trkpt lat="42.2347228" lon="13.8177745"><ele>324.33333333333337</ele><time>2026-05-02T10:04:55.647Z</time></trkpt><trkpt lat="42.2348361" lon="13.8176094"><ele>322.6666666666667</ele><time>2026-05-02T10:04:56.648Z</time></trkpt><trkpt lat="42.2349381" lon="13.8174422"><ele>321.0</ele><time>2026-05-02T10:04:57.647Z</time></trkpt><trkpt lat="42.2350283" lon="13.8172807"><ele>321.0</ele><time>2026-05-02T10:04:58.647Z</time></trkpt><trkpt lat="42.2351094" lon="13.8171145"><ele>321.0</ele><time>2026-05-02T10:04:59.648Z</time></trkpt><trkpt lat="42.235182" lon="13.8169546"><ele>321.0</ele><time>2026-05-02T10:05:00.648Z</time></trkpt><trkpt lat="42.2352497" lon="13.8168044"><ele>321.0</ele><time>2026-05-02T10:05:01.647Z</time></trkpt><trkpt lat="42.2353091" lon="13.8166771"><ele>321.20000000000005</ele><time>2026-05-02T10:05:02.647Z</time></trkpt><trkpt lat="42.235368" lon="13.8165664"><ele>321.40000000000003</ele><time>2026-05-02T10:05:03.647Z</time></trkpt><trkpt lat="42.2354388" lon="13.8164669"><ele>321.6</ele><time>2026-05-02T10:05:04.647Z</time></trkpt><trkpt lat="42.2355243" lon="13.8163809"><ele>321.8</ele><time>2026-05-02T10:05:05.647Z</time></trkpt><trkpt lat="42.2356216" lon="13.8163092"><ele>322.0</ele><time>2026-05-02T10:05:06.648Z</time></trkpt><trkpt lat="42.2357255" lon="13.8162598"><ele>322.0</ele><time>2026-05-02T10:05:07.647Z</time></trkpt><trkpt lat="42.2358355" lon="13.8162416"><ele>322.0</ele><time>2026-05-02T10:05:08.647Z</time></trkpt><trkpt lat="42.2359476" lon="13.8162497"><ele>322.0</ele><time>2026-05-02T10:05:09.647Z</time></trkpt><trkpt lat="42.2360585" lon="13.8162907"><ele>322.0</ele><time>2026-05-02T10:05:10.647Z</time></trkpt><trkpt lat="42.2361738" lon="13.8163727"><ele>322.0</ele><time>2026-05-02T10:05:11.647Z</time></trkpt><trkpt lat="42.236299" lon="13.8164822"><ele>322.0</ele><time>2026-05-02T10:05:12.647Z</time></trkpt><trkpt lat="42.2364346" lon="13.8165807"><ele>322.0</ele><time>2026-05-02T10:05:13.647Z</time></trkpt><trkpt lat="42.236569" lon="13.816654"><ele>322.0</ele><time>2026-05-02T10:05:14.647Z</time></trkpt><trkpt lat="42.2367085" lon="13.8167139"><ele>321.5</ele><time>2026-05-02T10:05:15.647Z</time></trkpt><trkpt lat="42.2368555" lon="13.8167465"><ele>321.0</ele><time>2026-05-02T10:05:16.648Z</time></trkpt><trkpt lat="42.2370025" lon="13.8167532"><ele>320.5</ele><time>2026-05-02T10:05:17.647Z</time></trkpt><trkpt lat="42.2371478" lon="13.8167331"><ele>320.0</ele><time>2026-05-02T10:05:18.647Z</time></trkpt><trkpt lat="42.2373062" lon="13.8166845"><ele>319.6666666666667</ele><time>2026-05-02T10:05:19.647Z</time></trkpt><trkpt lat="42.2374831" lon="13.8166074"><ele>319.3333333333333</ele><time>2026-05-02T10:05:20.647Z</time></trkpt><trkpt lat="42.2376771" lon="13.8165125"><ele>319.0</ele><time>2026-05-02T10:05:21.648Z</time></trkpt><trkpt lat="42.2378756" lon="13.8164146"><ele>319.0</ele><time>2026-05-02T10:05:22.647Z</time></trkpt><trkpt lat="42.2380712" lon="13.8163243"><ele>319.0</ele><time>2026-05-02T10:05:23.647Z</time></trkpt><trkpt lat="42.2382527" lon="13.8162361"><ele>319.0</ele><time>2026-05-02T10:05:24.647Z</time></trkpt><trkpt lat="42.2384225" lon="13.8161608"><ele>319.0</ele><time>2026-05-02T10:05:25.647Z</time></trkpt><trkpt lat="42.2385598" lon="13.8161189"><ele>319.0</ele><time>2026-05-02T10:05:26.647Z</time></trkpt><trkpt lat="42.2387104" lon="13.8161131"><ele>319.0</ele><time>2026-05-02T10:05:27.647Z</time></trkpt><trkpt lat="42.2388681" lon="13.8161312"><ele>319.79999999999995</ele><time>2026-05-02T10:05:28.647Z</time></trkpt><trkpt lat="42.2390058" lon="13.8161538"><ele>320.59999999999997</ele><time>2026-05-02T10:05:29.647Z</time></trkpt><trkpt lat="42.2391171" lon="13.816178"><ele>321.4</ele><time>2026-05-02T10:05:30.648Z</time></trkpt><trkpt lat="42.2392091" lon="13.8161948"><ele>322.2</ele><time>2026-05-02T10:05:31.647Z</time></trkpt><trkpt lat="42.2392777" lon="13.8162098"><ele>323.0</ele><time>2026-05-02T10:05:32.648Z</time></trkpt><trkpt lat="42.2393452" lon="13.8162403"><ele>323.0</ele><time>2026-05-02T10:05:34.647Z</time></trkpt><trkpt lat="42.2393958" lon="13.8163228"><ele>323.0</ele><time>2026-05-02T10:05:36.648Z</time></trkpt><trkpt lat="42.2394646" lon="13.816453"><ele>323.0</ele><time>2026-05-02T10:05:38.647Z</time></trkpt><trkpt lat="42.2395329" lon="13.8165093"><ele>323.0</ele><time>2026-05-02T10:05:40.647Z</time></trkpt><trkpt lat="42.2396456" lon="13.8165053"><ele>323.0</ele><time>2026-05-02T10:05:42.647Z</time></trkpt><trkpt lat="42.2397299" lon="13.8164889"><ele>323.79999999999995</ele><time>2026-05-02T10:05:43.647Z</time></trkpt><trkpt lat="42.2398228" lon="13.8164614"><ele>324.6</ele><time>2026-05-02T10:05:44.648Z</time></trkpt><trkpt lat="42.2399084" lon="13.8164219"><ele>325.4</ele><time>2026-05-02T10:05:45.648Z</time></trkpt><trkpt lat="42.23999" lon="13.8163842"><ele>326.20000000000005</ele><time>2026-05-02T10:05:46.648Z</time></trkpt><trkpt lat="42.2400817" lon="13.8163597"><ele>327.0</ele><time>2026-05-02T10:05:47.647Z</time></trkpt><trkpt lat="42.2401849" lon="13.8163248"><ele>327.0</ele><time>2026-05-02T10:05:48.647Z</time></trkpt><trkpt lat="42.2403343" lon="13.8163354"><ele>327.0</ele><time>2026-05-02T10:05:49.647Z</time></trkpt><trkpt lat="42.2404761" lon="13.8163229"><ele>327.0</ele><time>2026-05-02T10:05:50.648Z</time></trkpt><trkpt lat="42.2406082" lon="13.8163213"><ele>327.0</ele><time>2026-05-02T10:05:51.648Z</time></trkpt><trkpt lat="42.2407331" lon="13.8163197"><ele>327.40000000000003</ele><time>2026-05-02T10:05:52.647Z</time></trkpt><trkpt lat="42.2408608" lon="13.8163117"><ele>327.8</ele><time>2026-05-02T10:05:53.647Z</time></trkpt><trkpt lat="42.2409828" lon="13.8162976"><ele>328.2</ele><time>2026-05-02T10:05:54.647Z</time></trkpt><trkpt lat="42.2410801" lon="13.8162861"><ele>328.6</ele><time>2026-05-02T10:05:55.647Z</time></trkpt><trkpt lat="42.2411716" lon="13.8162742"><ele>329.0</ele><time>2026-05-02T10:05:56.647Z</time></trkpt><trkpt lat="42.2412525" lon="13.8162475"><ele>329.0</ele><time>2026-05-02T10:05:57.648Z</time></trkpt><trkpt lat="42.2413386" lon="13.8162112"><ele>329.0</ele><time>2026-05-02T10:05:58.647Z</time></trkpt><trkpt lat="42.2414233" lon="13.8161412"><ele>329.0</ele><time>2026-05-02T10:05:59.647Z</time></trkpt><trkpt lat="42.241506" lon="13.8160677"><ele>329.0</ele><time>2026-05-02T10:06:00.647Z</time></trkpt><trkpt lat="42.2415816" lon="13.8159765"><ele>329.0</ele><time>2026-05-02T10:06:01.648Z</time></trkpt><trkpt lat="42.2416361" lon="13.8158906"><ele>327.6666666666667</ele><time>2026-05-02T10:06:02.647Z</time></trkpt><trkpt lat="42.2416626" lon="13.8158092"><ele>326.33333333333337</ele><time>2026-05-02T10:06:03.648Z</time></trkpt><trkpt lat="42.2416735" lon="13.8157078"><ele>325.0</ele><time>2026-05-02T10:06:04.647Z</time></trkpt><trkpt lat="42.2416761" lon="13.8155882"><ele>323.6666666666667</ele><time>2026-05-02T10:06:05.648Z</time></trkpt><trkpt lat="42.2416958" lon="13.8154579"><ele>322.3333333333333</ele><time>2026-05-02T10:06:06.647Z</time></trkpt><trkpt lat="42.241731" lon="13.81532"><ele>321.0</ele><time>2026-05-02T10:06:07.647Z</time></trkpt><trkpt lat="42.2417693" lon="13.8151914"><ele>320.6</ele><time>2026-05-02T10:06:08.647Z</time></trkpt><trkpt lat="42.2418024" lon="13.8150673"><ele>320.20000000000005</ele><time>2026-05-02T10:06:09.647Z</time></trkpt><trkpt lat="42.2418322" lon="13.8149635"><ele>319.79999999999995</ele><time>2026-05-02T10:06:10.647Z</time></trkpt><trkpt lat="42.2418535" lon="13.8148793"><ele>319.4</ele><time>2026-05-02T10:06:11.648Z</time></trkpt><trkpt lat="42.2418941" lon="13.8147306"><ele>319.0</ele><time>2026-05-02T10:06:13.648Z</time></trkpt><trkpt lat="42.2419498" lon="13.8146148"><ele>319.0</ele><time>2026-05-02T10:06:15.647Z</time></trkpt><trkpt lat="42.2420388" lon="13.8145212"><ele>319.0</ele><time>2026-05-02T10:06:17.648Z</time></trkpt><trkpt lat="42.2421318" lon="13.8145167"><ele>319.0</ele><time>2026-05-02T10:06:18.647Z</time></trkpt><trkpt lat="42.2422688" lon="13.8144857"><ele>319.0</ele><time>2026-05-02T10:06:20.647Z</time></trkpt><trkpt lat="42.2423302" lon="13.8144524"><ele>319.0</ele><time>2026-05-02T10:06:21.647Z</time></trkpt><trkpt lat="42.242396" lon="13.8143986"><ele>319.2</ele><time>2026-05-02T10:06:22.648Z</time></trkpt><trkpt lat="42.2424706" lon="13.8143338"><ele>319.4</ele><time>2026-05-02T10:06:23.648Z</time></trkpt><trkpt lat="42.2425448" lon="13.8142591"><ele>319.6</ele><time>2026-05-02T10:06:24.647Z</time></trkpt><trkpt lat="42.2426192" lon="13.8141744"><ele>319.8</ele><time>2026-05-02T10:06:25.647Z</time></trkpt><trkpt lat="42.2426959" lon="13.8140884"><ele>320.0</ele><time>2026-05-02T10:06:26.648Z</time></trkpt><trkpt lat="42.2427789" lon="13.8140061"><ele>320.0</ele><time>2026-05-02T10:06:27.647Z</time></trkpt><trkpt lat="42.2428662" lon="13.8139221"><ele>320.0</ele><time>2026-05-02T10:06:28.647Z</time></trkpt><trkpt lat="42.2429537" lon="13.8138322"><ele>320.0</ele><time>2026-05-02T10:06:29.647Z</time></trkpt><trkpt lat="42.2430357" lon="13.813732"><ele>320.0</ele><time>2026-05-02T10:06:30.647Z</time></trkpt><trkpt lat="42.2431133" lon="13.8136361"><ele>320.0</ele><time>2026-05-02T10:06:31.648Z</time></trkpt><trkpt lat="42.2431883" lon="13.8135281"><ele>321.0</ele><time>2026-05-02T10:06:32.647Z</time></trkpt><trkpt lat="42.2432586" lon="13.8134339"><ele>322.0</ele><time>2026-05-02T10:06:33.648Z</time></trkpt><trkpt lat="42.2433299" lon="13.8133471"><ele>323.0</ele><time>2026-05-02T10:06:34.647Z</time></trkpt><trkpt lat="42.2433908" lon="13.8132657"><ele>324.0</ele><time>2026-05-02T10:06:35.647Z</time></trkpt><trkpt lat="42.2434634" lon="13.813187"><ele>325.0</ele><time>2026-05-02T10:06:36.648Z</time></trkpt><trkpt lat="42.2435324" lon="13.8131094"><ele>325.0</ele><time>2026-05-02T10:06:37.647Z</time></trkpt><trkpt lat="42.2436065" lon="13.8130403"><ele>325.0</ele><time>2026-05-02T10:06:38.647Z</time></trkpt><trkpt lat="42.2436795" lon="13.8129856"><ele>325.0</ele><time>2026-05-02T10:06:39.647Z</time></trkpt><trkpt lat="42.2437643" lon="13.8129433"><ele>325.0</ele><time>2026-05-02T10:06:40.647Z</time></trkpt><trkpt lat="42.2438591" lon="13.8129049"><ele>325.0</ele><time>2026-05-02T10:06:41.648Z</time></trkpt><trkpt lat="42.2439474" lon="13.8128736"><ele>324.3333333333333</ele><time>2026-05-02T10:06:42.647Z</time></trkpt><trkpt lat="42.2440337" lon="13.8128365"><ele>323.66666666666663</ele><time>2026-05-02T10:06:43.647Z</time></trkpt><trkpt lat="42.2441191" lon="13.8127997"><ele>323.0</ele><time>2026-05-02T10:06:44.647Z</time></trkpt><trkpt lat="42.2441918" lon="13.8127561"><ele>322.3333333333333</ele><time>2026-05-02T10:06:45.647Z</time></trkpt><trkpt lat="42.244265" lon="13.8127166"><ele>321.6666666666667</ele><time>2026-05-02T10:06:46.647Z</time></trkpt><trkpt lat="42.2443316" lon="13.81268"><ele>321.0</ele><time>2026-05-02T10:06:47.648Z</time></trkpt><trkpt lat="42.2444488" lon="13.812639"><ele>321.0</ele><time>2026-05-02T10:06:49.648Z</time></trkpt><trkpt lat="42.244577" lon="13.8126096"><ele>321.0</ele><time>2026-05-02T10:06:51.647Z</time></trkpt><trkpt lat="42.2446972" lon="13.8125642"><ele>321.0</ele><time>2026-05-02T10:06:53.647Z</time></trkpt><trkpt lat="42.2448033" lon="13.8124961"><ele>321.0</ele><time>2026-05-02T10:06:55.648Z</time></trkpt><trkpt lat="42.2449066" lon="13.8124035"><ele>322.1666666666667</ele><time>2026-05-02T10:06:57.647Z</time></trkpt><trkpt lat="42.2449534" lon="13.8123312"><ele>323.3333333333333</ele><time>2026-05-02T10:06:58.647Z</time></trkpt><trkpt lat="42.2449903" lon="13.8122566"><ele>324.5</ele><time>2026-05-02T10:06:59.648Z</time></trkpt><trkpt lat="42.2450203" lon="13.8121794"><ele>325.66666666666663</ele><time>2026-05-02T10:07:00.647Z</time></trkpt><trkpt lat="42.2450477" lon="13.8120988"><ele>326.8333333333333</ele><time>2026-05-02T10:07:01.647Z</time></trkpt><trkpt lat="42.2450711" lon="13.8119312"><ele>328.0</ele><time>2026-05-02T10:07:03.648Z</time></trkpt><trkpt lat="42.2450879" lon="13.8118482"><ele>327.3333333333333</ele><time>2026-05-02T10:07:04.647Z</time></trkpt><trkpt lat="42.2451086" lon="13.8117668"><ele>326.66666666666663</ele><time>2026-05-02T10:07:05.647Z</time></trkpt><trkpt lat="42.2451302" lon="13.8116821"><ele>326.0</ele><time>2026-05-02T10:07:06.647Z</time></trkpt><trkpt lat="42.2451919" lon="13.811534"><ele>325.3333333333333</ele><time>2026-05-02T10:07:08.647Z</time></trkpt><trkpt lat="42.2452385" lon="13.811458"><ele>324.6666666666667</ele><time>2026-05-02T10:07:09.647Z</time></trkpt><trkpt lat="42.2452941" lon="13.811385"><ele>324.0</ele><time>2026-05-02T10:07:10.647Z</time></trkpt><trkpt lat="42.2453595" lon="13.8113143"><ele>324.0</ele><time>2026-05-02T10:07:11.647Z</time></trkpt><trkpt lat="42.245433" lon="13.8112461"><ele>324.0</ele><time>2026-05-02T10:07:12.647Z</time></trkpt><trkpt lat="42.2455121" lon="13.8111731"><ele>324.0</ele><time>2026-05-02T10:07:13.647Z</time></trkpt><trkpt lat="42.245589" lon="13.8110972"><ele>324.0</ele><time>2026-05-02T10:07:14.647Z</time></trkpt><trkpt lat="42.2456583" lon="13.8110138"><ele>324.0</ele><time>2026-05-02T10:07:15.647Z</time></trkpt><trkpt lat="42.2457178" lon="13.8109292"><ele>324.1666666666667</ele><time>2026-05-02T10:07:16.647Z</time></trkpt><trkpt lat="42.2457723" lon="13.8108532"><ele>324.3333333333333</ele><time>2026-05-02T10:07:17.647Z</time></trkpt><trkpt lat="42.2458238" lon="13.8107851"><ele>324.5</ele><time>2026-05-02T10:07:18.647Z</time></trkpt><trkpt lat="42.2458732" lon="13.8107158"><ele>324.66666666666663</ele><time>2026-05-02T10:07:19.647Z</time></trkpt><trkpt lat="42.2459196" lon="13.81065"><ele>324.8333333333333</ele><time>2026-05-02T10:07:20.648Z</time></trkpt><trkpt lat="42.2459695" lon="13.8105932"><ele>325.0</ele><time>2026-05-02T10:07:21.648Z</time></trkpt><trkpt lat="42.2460683" lon="13.8104735"><ele>325.0</ele><time>2026-05-02T10:07:23.648Z</time></trkpt><trkpt lat="42.2461464" lon="13.8103978"><ele>325.0</ele><time>2026-05-02T10:07:24.647Z</time></trkpt><trkpt lat="42.2462207" lon="13.8103054"><ele>325.0</ele><time>2026-05-02T10:07:25.647Z</time></trkpt><trkpt lat="42.2462846" lon="13.8102133"><ele>325.0</ele><time>2026-05-02T10:07:26.647Z</time></trkpt><trkpt lat="42.2463423" lon="13.8101227"><ele>325.0</ele><time>2026-05-02T10:07:27.647Z</time></trkpt><trkpt lat="42.2463927" lon="13.8100312"><ele>325.0</ele><time>2026-05-02T10:07:28.647Z</time></trkpt><trkpt lat="42.2464403" lon="13.8099151"><ele>325.0</ele><time>2026-05-02T10:07:29.647Z</time></trkpt><trkpt lat="42.2464888" lon="13.8097616"><ele>325.0</ele><time>2026-05-02T10:07:30.647Z</time></trkpt><trkpt lat="42.2465409" lon="13.8095867"><ele>325.0</ele><time>2026-05-02T10:07:31.647Z</time></trkpt><trkpt lat="42.2465911" lon="13.8094102"><ele>324.75</ele><time>2026-05-02T10:07:32.647Z</time></trkpt><trkpt lat="42.246638" lon="13.8092318"><ele>324.5</ele><time>2026-05-02T10:07:33.647Z</time></trkpt><trkpt lat="42.2466862" lon="13.8090619"><ele>324.25</ele><time>2026-05-02T10:07:34.647Z</time></trkpt><trkpt lat="42.2467327" lon="13.8089007"><ele>324.0</ele><time>2026-05-02T10:07:35.647Z</time></trkpt><trkpt lat="42.2467766" lon="13.8087389"><ele>324.0</ele><time>2026-05-02T10:07:36.648Z</time></trkpt><trkpt lat="42.2468079" lon="13.8085922"><ele>324.0</ele><time>2026-05-02T10:07:37.648Z</time></trkpt><trkpt lat="42.2468254" lon="13.8084511"><ele>324.0</ele><time>2026-05-02T10:07:38.647Z</time></trkpt><trkpt lat="42.2468451" lon="13.8083129"><ele>324.0</ele><time>2026-05-02T10:07:39.648Z</time></trkpt><trkpt lat="42.2468748" lon="13.8082118"><ele>324.0</ele><time>2026-05-02T10:07:40.648Z</time></trkpt><trkpt lat="42.2469127" lon="13.8081046"><ele>324.2</ele><time>2026-05-02T10:07:41.647Z</time></trkpt><trkpt lat="42.2469635" lon="13.8080104"><ele>324.4</ele><time>2026-05-02T10:07:42.647Z</time></trkpt><trkpt lat="42.2470303" lon="13.8079068"><ele>324.6</ele><time>2026-05-02T10:07:43.647Z</time></trkpt><trkpt lat="42.2471214" lon="13.8077963"><ele>324.8</ele><time>2026-05-02T10:07:44.648Z</time></trkpt><trkpt lat="42.2472106" lon="13.8076977"><ele>325.0</ele><time>2026-05-02T10:07:45.647Z</time></trkpt><trkpt lat="42.2472968" lon="13.8076123"><ele>325.6</ele><time>2026-05-02T10:07:46.647Z</time></trkpt><trkpt lat="42.2473796" lon="13.807544"><ele>326.2</ele><time>2026-05-02T10:07:47.647Z</time></trkpt><trkpt lat="42.2474642" lon="13.8074864"><ele>326.79999999999995</ele><time>2026-05-02T10:07:48.647Z</time></trkpt><trkpt lat="42.2475426" lon="13.8074239"><ele>327.4</ele><time>2026-05-02T10:07:49.647Z</time></trkpt><trkpt lat="42.247612" lon="13.8073518"><ele>328.0</ele><time>2026-05-02T10:07:50.648Z</time></trkpt><trkpt lat="42.2476654" lon="13.8072719"><ele>328.0</ele><time>2026-05-02T10:07:51.647Z</time></trkpt><trkpt lat="42.2477133" lon="13.8071925"><ele>328.0</ele><time>2026-05-02T10:07:52.647Z</time></trkpt><trkpt lat="42.2477432" lon="13.8071101"><ele>328.0</ele><time>2026-05-02T10:07:53.648Z</time></trkpt><trkpt lat="42.2477535" lon="13.8069897"><ele>328.0</ele><time>2026-05-02T10:07:54.647Z</time></trkpt><trkpt lat="42.2477681" lon="13.8068642"><ele>328.0</ele><time>2026-05-02T10:07:55.647Z</time></trkpt><trkpt lat="42.2477826" lon="13.8067496"><ele>328.0</ele><time>2026-05-02T10:07:56.647Z</time></trkpt><trkpt lat="42.2477978" lon="13.8066474"><ele>327.66666666666663</ele><time>2026-05-02T10:07:57.648Z</time></trkpt><trkpt lat="42.2478169" lon="13.8065595"><ele>327.3333333333333</ele><time>2026-05-02T10:07:58.647Z</time></trkpt><trkpt lat="42.2478427" lon="13.8064783"><ele>327.0</ele><time>2026-05-02T10:07:59.647Z</time></trkpt><trkpt lat="42.247876" lon="13.8063996"><ele>326.6666666666667</ele><time>2026-05-02T10:08:00.647Z</time></trkpt><trkpt lat="42.2479193" lon="13.806318"><ele>326.33333333333337</ele><time>2026-05-02T10:08:01.647Z</time></trkpt><trkpt lat="42.2479695" lon="13.8062267"><ele>326.0</ele><time>2026-05-02T10:08:02.647Z</time></trkpt><trkpt lat="42.2480232" lon="13.806119"><ele>326.0</ele><time>2026-05-02T10:08:03.647Z</time></trkpt><trkpt lat="42.2480758" lon="13.8060078"><ele>326.0</ele><time>2026-05-02T10:08:04.647Z</time></trkpt><trkpt lat="42.2481269" lon="13.805902"><ele>326.0</ele><time>2026-05-02T10:08:05.648Z</time></trkpt><trkpt lat="42.2481781" lon="13.8058071"><ele>326.0</ele><time>2026-05-02T10:08:06.647Z</time></trkpt><trkpt lat="42.2482318" lon="13.8057182"><ele>326.0</ele><time>2026-05-02T10:08:07.648Z</time></trkpt><trkpt lat="42.2482874" lon="13.8056282"><ele>327.5</ele><time>2026-05-02T10:08:08.647Z</time></trkpt><trkpt lat="42.2483399" lon="13.8055386"><ele>329.0</ele><time>2026-05-02T10:08:09.648Z</time></trkpt><trkpt lat="42.2483919" lon="13.805465"><ele>330.5</ele><time>2026-05-02T10:08:10.648Z</time></trkpt><trkpt lat="42.2484467" lon="13.8054001"><ele>332.0</ele><time>2026-05-02T10:08:11.647Z</time></trkpt><trkpt lat="42.2485092" lon="13.8053439"><ele>333.5</ele><time>2026-05-02T10:08:12.647Z</time></trkpt><trkpt lat="42.248575" lon="13.8052993"><ele>335.0</ele><time>2026-05-02T10:08:13.647Z</time></trkpt><trkpt lat="42.2486471" lon="13.8052623"><ele>335.0</ele><time>2026-05-02T10:08:14.648Z</time></trkpt><trkpt lat="42.2487332" lon="13.8052344"><ele>335.0</ele><time>2026-05-02T10:08:15.648Z</time></trkpt><trkpt lat="42.2488342" lon="13.8052142"><ele>335.0</ele><time>2026-05-02T10:08:16.648Z</time></trkpt><trkpt lat="42.2489303" lon="13.8051978"><ele>335.0</ele><time>2026-05-02T10:08:17.648Z</time></trkpt><trkpt lat="42.2490125" lon="13.8051726"><ele>335.0</ele><time>2026-05-02T10:08:18.647Z</time></trkpt><trkpt lat="42.2490935" lon="13.805126"><ele>335.33333333333337</ele><time>2026-05-02T10:08:19.647Z</time></trkpt><trkpt lat="42.2491713" lon="13.8050626"><ele>335.6666666666667</ele><time>2026-05-02T10:08:20.647Z</time></trkpt><trkpt lat="42.2492419" lon="13.804988"><ele>336.0</ele><time>2026-05-02T10:08:21.647Z</time></trkpt><trkpt lat="42.2493028" lon="13.8049062"><ele>336.3333333333333</ele><time>2026-05-02T10:08:22.648Z</time></trkpt><trkpt lat="42.2493557" lon="13.8048276"><ele>336.66666666666663</ele><time>2026-05-02T10:08:23.647Z</time></trkpt><trkpt lat="42.2494443" lon="13.8047712"><ele>337.0</ele><time>2026-05-02T10:08:25.647Z</time></trkpt><trkpt lat="42.2495466" lon="13.8048616"><ele>337.0</ele><time>2026-05-02T10:08:27.647Z</time></trkpt><trkpt lat="42.2496338" lon="13.8049441"><ele>337.0</ele><time>2026-05-02T10:08:28.648Z</time></trkpt><trkpt lat="42.2497317" lon="13.8050107"><ele>337.0</ele><time>2026-05-02T10:08:29.647Z</time></trkpt><trkpt lat="42.249838" lon="13.8050421"><ele>337.0</ele><time>2026-05-02T10:08:30.648Z</time></trkpt><trkpt lat="42.2499751" lon="13.8050471"><ele>337.66666666666663</ele><time>2026-05-02T10:08:31.648Z</time></trkpt><trkpt lat="42.2501433" lon="13.8050343"><ele>338.3333333333333</ele><time>2026-05-02T10:08:32.647Z</time></trkpt><trkpt lat="42.2503191" lon="13.8050149"><ele>339.0</ele><time>2026-05-02T10:08:33.647Z</time></trkpt><trkpt lat="42.2504957" lon="13.8049955"><ele>341.5</ele><time>2026-05-02T10:08:34.648Z</time></trkpt><trkpt lat="42.2506552" lon="13.8049814"><ele>344.0</ele><time>2026-05-02T10:08:35.647Z</time></trkpt><trkpt lat="42.2507914" lon="13.8049747"><ele>346.5</ele><time>2026-05-02T10:08:36.647Z</time></trkpt><trkpt lat="42.2509112" lon="13.8049785"><ele>349.0</ele><time>2026-05-02T10:08:37.647Z</time></trkpt><trkpt lat="42.2510061" lon="13.8050075"><ele>349.0</ele><time>2026-05-02T10:08:38.647Z</time></trkpt><trkpt lat="42.2510839" lon="13.8050687"><ele>349.0</ele><time>2026-05-02T10:08:39.647Z</time></trkpt><trkpt lat="42.2511406" lon="13.8051537"><ele>349.0</ele><time>2026-05-02T10:08:40.647Z</time></trkpt><trkpt lat="42.2511796" lon="13.8052657"><ele>349.0</ele><time>2026-05-02T10:08:41.647Z</time></trkpt><trkpt lat="42.2511998" lon="13.8054079"><ele>349.0</ele><time>2026-05-02T10:08:42.647Z</time></trkpt><trkpt lat="42.2512134" lon="13.8055957"><ele>349.0</ele><time>2026-05-02T10:08:43.648Z</time></trkpt><trkpt lat="42.2512431" lon="13.8058195"><ele>349.0</ele><time>2026-05-02T10:08:44.647Z</time></trkpt><trkpt lat="42.2512901" lon="13.8060126"><ele>349.0</ele><time>2026-05-02T10:08:45.647Z</time></trkpt><trkpt lat="42.2513645" lon="13.8062262"><ele>351.66666666666663</ele><time>2026-05-02T10:08:46.647Z</time></trkpt><trkpt lat="42.2514649" lon="13.8064589"><ele>354.3333333333333</ele><time>2026-05-02T10:08:47.648Z</time></trkpt><trkpt lat="42.2515711" lon="13.8067008"><ele>357.0</ele><time>2026-05-02T10:08:48.647Z</time></trkpt><trkpt lat="42.2516732" lon="13.8069351"><ele>357.0</ele><time>2026-05-02T10:08:49.648Z</time></trkpt><trkpt lat="42.2517755" lon="13.8071662"><ele>357.0</ele><time>2026-05-02T10:08:50.648Z</time></trkpt><trkpt lat="42.251876" lon="13.8073898"><ele>357.0</ele><time>2026-05-02T10:08:51.648Z</time></trkpt><trkpt lat="42.2519715" lon="13.8075997"><ele>357.0</ele><time>2026-05-02T10:08:52.647Z</time></trkpt><trkpt lat="42.2520672" lon="13.8078052"><ele>357.0</ele><time>2026-05-02T10:08:53.647Z</time></trkpt><trkpt lat="42.2521648" lon="13.8079978"><ele>357.0</ele><time>2026-05-02T10:08:54.647Z</time></trkpt><trkpt lat="42.25226" lon="13.8081713"><ele>359.25</ele><time>2026-05-02T10:08:55.647Z</time></trkpt><trkpt lat="42.2523573" lon="13.8083356"><ele>361.5</ele><time>2026-05-02T10:08:56.647Z</time></trkpt><trkpt lat="42.2524519" lon="13.8084911"><ele>363.75</ele><time>2026-05-02T10:08:57.647Z</time></trkpt><trkpt lat="42.2525389" lon="13.8086344"><ele>366.0</ele><time>2026-05-02T10:08:58.648Z</time></trkpt><trkpt lat="42.2526193" lon="13.8087757"><ele>366.0</ele><time>2026-05-02T10:08:59.647Z</time></trkpt><trkpt lat="42.2526824" lon="13.808914"><ele>366.0</ele><time>2026-05-02T10:09:00.647Z</time></trkpt><trkpt lat="42.2527368" lon="13.8090548"><ele>366.0</ele><time>2026-05-02T10:09:01.647Z</time></trkpt><trkpt lat="42.2528081" lon="13.8091987"><ele>366.0</ele><time>2026-05-02T10:09:02.647Z</time></trkpt><trkpt lat="42.2528995" lon="13.8093473"><ele>366.5</ele><time>2026-05-02T10:09:03.648Z</time></trkpt><trkpt lat="42.2530018" lon="13.8094816"><ele>367.0</ele><time>2026-05-02T10:09:04.647Z</time></trkpt><trkpt lat="42.2531126" lon="13.8096085"><ele>367.5</ele><time>2026-05-02T10:09:05.647Z</time></trkpt><trkpt lat="42.2532223" lon="13.8097412"><ele>368.0</ele><time>2026-05-02T10:09:06.647Z</time></trkpt><trkpt lat="42.2533296" lon="13.8098786"><ele>369.5</ele><time>2026-05-02T10:09:07.647Z</time></trkpt><trkpt lat="42.2534389" lon="13.8100019"><ele>371.0</ele><time>2026-05-02T10:09:08.647Z</time></trkpt><trkpt lat="42.2535505" lon="13.8101038"><ele>372.5</ele><time>2026-05-02T10:09:09.647Z</time></trkpt><trkpt lat="42.2536549" lon="13.810194"><ele>374.0</ele><time>2026-05-02T10:09:10.647Z</time></trkpt><trkpt lat="42.2537524" lon="13.8102921"><ele>374.0</ele><time>2026-05-02T10:09:11.647Z</time></trkpt><trkpt lat="42.2538351" lon="13.8103967"><ele>374.0</ele><time>2026-05-02T10:09:12.647Z</time></trkpt><trkpt lat="42.2539074" lon="13.8104967"><ele>374.0</ele><time>2026-05-02T10:09:13.647Z</time></trkpt><trkpt lat="42.2539797" lon="13.8105929"><ele>374.0</ele><time>2026-05-02T10:09:14.647Z</time></trkpt><trkpt lat="42.2540517" lon="13.8106867"><ele>374.0</ele><time>2026-05-02T10:09:15.647Z</time></trkpt><trkpt lat="42.2541274" lon="13.8107752"><ele>375.2</ele><time>2026-05-02T10:09:16.648Z</time></trkpt><trkpt lat="42.2542046" lon="13.8108591"><ele>376.4</ele><time>2026-05-02T10:09:17.648Z</time></trkpt><trkpt lat="42.2542865" lon="13.8109369"><ele>377.6</ele><time>2026-05-02T10:09:18.647Z</time></trkpt><trkpt lat="42.2543659" lon="13.811028"><ele>378.8</ele><time>2026-05-02T10:09:19.648Z</time></trkpt><trkpt lat="42.254435" lon="13.8111294"><ele>380.0</ele><time>2026-05-02T10:09:20.647Z</time></trkpt><trkpt lat="42.2544962" lon="13.8112329"><ele>380.1666666666667</ele><time>2026-05-02T10:09:21.648Z</time></trkpt><trkpt lat="42.2545458" lon="13.811334"><ele>380.33333333333337</ele><time>2026-05-02T10:09:22.648Z</time></trkpt><trkpt lat="42.2545834" lon="13.8114299"><ele>380.5</ele><time>2026-05-02T10:09:23.647Z</time></trkpt><trkpt lat="42.2546112" lon="13.8115206"><ele>380.6666666666667</ele><time>2026-05-02T10:09:24.647Z</time></trkpt><trkpt lat="42.254631" lon="13.811606"><ele>380.8333333333333</ele><time>2026-05-02T10:09:25.648Z</time></trkpt><trkpt lat="42.254672" lon="13.811739"><ele>381.0</ele><time>2026-05-02T10:09:27.647Z</time></trkpt><trkpt lat="42.2547466" lon="13.8117772"><ele>382.6</ele><time>2026-05-02T10:09:30.647Z</time></trkpt><trkpt lat="42.2548144" lon="13.8117158"><ele>384.20000000000005</ele><time>2026-05-02T10:09:32.647Z</time></trkpt><trkpt lat="42.2549021" lon="13.8115901"><ele>385.79999999999995</ele><time>2026-05-02T10:09:34.647Z</time></trkpt><trkpt lat="42.2549512" lon="13.8115172"><ele>387.4</ele><time>2026-05-02T10:09:35.648Z</time></trkpt><trkpt lat="42.255004" lon="13.8114206"><ele>389.0</ele><time>2026-05-02T10:09:36.647Z</time></trkpt><trkpt lat="42.2550675" lon="13.8112942"><ele>389.0</ele><time>2026-05-02T10:09:37.647Z</time></trkpt><trkpt lat="42.2551412" lon="13.8111549"><ele>389.0</ele><time>2026-05-02T10:09:38.647Z</time></trkpt><trkpt lat="42.2552025" lon="13.8110317"><ele>389.0</ele><time>2026-05-02T10:09:39.647Z</time></trkpt><trkpt lat="42.2552577" lon="13.8109036"><ele>389.0</ele><time>2026-05-02T10:09:40.647Z</time></trkpt><trkpt lat="42.2553029" lon="13.8107778"><ele>388.6</ele><time>2026-05-02T10:09:41.647Z</time></trkpt><trkpt lat="42.2553449" lon="13.8106553"><ele>388.2</ele><time>2026-05-02T10:09:42.647Z</time></trkpt><trkpt lat="42.2553931" lon="13.8105458"><ele>387.8</ele><time>2026-05-02T10:09:43.647Z</time></trkpt><trkpt lat="42.2554506" lon="13.8104414"><ele>387.40000000000003</ele><time>2026-05-02T10:09:44.647Z</time></trkpt><trkpt lat="42.2555112" lon="13.8103418"><ele>387.0</ele><time>2026-05-02T10:09:45.648Z</time></trkpt><trkpt lat="42.2555766" lon="13.8102457"><ele>387.20000000000005</ele><time>2026-05-02T10:09:46.647Z</time></trkpt><trkpt lat="42.2556442" lon="13.8101562"><ele>387.4</ele><time>2026-05-02T10:09:47.648Z</time></trkpt><trkpt lat="42.2557142" lon="13.8100699"><ele>387.6</ele><time>2026-05-02T10:09:48.647Z</time></trkpt><trkpt lat="42.2557791" lon="13.8099798"><ele>387.79999999999995</ele><time>2026-05-02T10:09:49.648Z</time></trkpt><trkpt lat="42.2558328" lon="13.8098733"><ele>388.0</ele><time>2026-05-02T10:09:50.648Z</time></trkpt><trkpt lat="42.255885" lon="13.8097736"><ele>388.0</ele><time>2026-05-02T10:09:51.648Z</time></trkpt><trkpt lat="42.2559408" lon="13.8096709"><ele>388.0</ele><time>2026-05-02T10:09:52.647Z</time></trkpt><trkpt lat="42.2559957" lon="13.8095679"><ele>388.0</ele><time>2026-05-02T10:09:53.647Z</time></trkpt><trkpt lat="42.2560527" lon="13.8094649"><ele>388.0</ele><time>2026-05-02T10:09:54.647Z</time></trkpt><trkpt lat="42.2561106" lon="13.8093565"><ele>388.0</ele><time>2026-05-02T10:09:55.648Z</time></trkpt><trkpt lat="42.2561682" lon="13.8092463"><ele>387.79999999999995</ele><time>2026-05-02T10:09:56.647Z</time></trkpt><trkpt lat="42.2562298" lon="13.8091416"><ele>387.6</ele><time>2026-05-02T10:09:57.648Z</time></trkpt><trkpt lat="42.2563005" lon="13.8090481"><ele>387.4</ele><time>2026-05-02T10:09:58.647Z</time></trkpt><trkpt lat="42.2563794" lon="13.8089649"><ele>387.20000000000005</ele><time>2026-05-02T10:09:59.647Z</time></trkpt><trkpt lat="42.2564572" lon="13.8088878"><ele>387.0</ele><time>2026-05-02T10:10:00.647Z</time></trkpt><trkpt lat="42.256527" lon="13.8088089"><ele>387.0</ele><time>2026-05-02T10:10:01.648Z</time></trkpt><trkpt lat="42.2565901" lon="13.8087289"><ele>387.0</ele><time>2026-05-02T10:10:02.647Z</time></trkpt><trkpt lat="42.2566541" lon="13.8086576"><ele>387.0</ele><time>2026-05-02T10:10:03.647Z</time></trkpt><trkpt lat="42.2567245" lon="13.8086024"><ele>387.0</ele><time>2026-05-02T10:10:04.647Z</time></trkpt><trkpt lat="42.2567994" lon="13.8085662"><ele>387.0</ele><time>2026-05-02T10:10:05.647Z</time></trkpt><trkpt lat="42.2568782" lon="13.8085408"><ele>387.0</ele><time>2026-05-02T10:10:06.648Z</time></trkpt><trkpt lat="42.2569552" lon="13.8085091"><ele>386.40000000000003</ele><time>2026-05-02T10:10:07.647Z</time></trkpt><trkpt lat="42.2570352" lon="13.8084507"><ele>385.8</ele><time>2026-05-02T10:10:08.647Z</time></trkpt><trkpt lat="42.2571207" lon="13.8083716"><ele>385.2</ele><time>2026-05-02T10:10:09.647Z</time></trkpt><trkpt lat="42.2572084" lon="13.8082919"><ele>384.6</ele><time>2026-05-02T10:10:10.647Z</time></trkpt><trkpt lat="42.2573018" lon="13.80822"><ele>384.0</ele><time>2026-05-02T10:10:11.647Z</time></trkpt><trkpt lat="42.2573967" lon="13.8081499"><ele>384.0</ele><time>2026-05-02T10:10:12.647Z</time></trkpt><trkpt lat="42.2574917" lon="13.8080815"><ele>384.0</ele><time>2026-05-02T10:10:13.648Z</time></trkpt><trkpt lat="42.2575897" lon="13.8080138"><ele>384.0</ele><time>2026-05-02T10:10:14.647Z</time></trkpt><trkpt lat="42.2576851" lon="13.8079383"><ele>384.0</ele><time>2026-05-02T10:10:15.647Z</time></trkpt><trkpt lat="42.2577777" lon="13.807857"><ele>384.0</ele><time>2026-05-02T10:10:16.648Z</time></trkpt><trkpt lat="42.2578711" lon="13.8077705"><ele>384.0</ele><time>2026-05-02T10:10:17.648Z</time></trkpt><trkpt lat="42.2579648" lon="13.8076803"><ele>384.0</ele><time>2026-05-02T10:10:18.647Z</time></trkpt><trkpt lat="42.2580517" lon="13.8075932"><ele>384.0</ele><time>2026-05-02T10:10:19.647Z</time></trkpt><trkpt lat="42.2581375" lon="13.8075141"><ele>384.0</ele><time>2026-05-02T10:10:20.647Z</time></trkpt><trkpt lat="42.2582296" lon="13.8074481"><ele>384.0</ele><time>2026-05-02T10:10:21.647Z</time></trkpt><trkpt lat="42.258331" lon="13.8073981"><ele>382.79999999999995</ele><time>2026-05-02T10:10:22.647Z</time></trkpt><trkpt lat="42.2584376" lon="13.8073583"><ele>381.59999999999997</ele><time>2026-05-02T10:10:23.647Z</time></trkpt><trkpt lat="42.2585417" lon="13.8073212"><ele>380.4</ele><time>2026-05-02T10:10:24.647Z</time></trkpt><trkpt lat="42.2586426" lon="13.8072921"><ele>379.2</ele><time>2026-05-02T10:10:25.648Z</time></trkpt><trkpt lat="42.2587449" lon="13.8072651"><ele>378.0</ele><time>2026-05-02T10:10:26.647Z</time></trkpt><trkpt lat="42.2588497" lon="13.8072283"><ele>378.79999999999995</ele><time>2026-05-02T10:10:27.647Z</time></trkpt><trkpt lat="42.2589535" lon="13.8071826"><ele>379.6</ele><time>2026-05-02T10:10:28.647Z</time></trkpt><trkpt lat="42.2590561" lon="13.8071322"><ele>380.4</ele><time>2026-05-02T10:10:29.647Z</time></trkpt><trkpt lat="42.2591582" lon="13.8070746"><ele>381.20000000000005</ele><time>2026-05-02T10:10:30.647Z</time></trkpt><trkpt lat="42.2592596" lon="13.8070103"><ele>382.0</ele><time>2026-05-02T10:10:31.647Z</time></trkpt><trkpt lat="42.2593578" lon="13.8069404"><ele>382.0</ele><time>2026-05-02T10:10:32.647Z</time></trkpt><trkpt lat="42.2594571" lon="13.8068695"><ele>382.0</ele><time>2026-05-02T10:10:33.647Z</time></trkpt><trkpt lat="42.2595581" lon="13.8068062"><ele>382.0</ele><time>2026-05-02T10:10:34.647Z</time></trkpt><trkpt lat="42.2596561" lon="13.8067521"><ele>382.0</ele><time>2026-05-02T10:10:35.648Z</time></trkpt><trkpt lat="42.2597478" lon="13.8067059"><ele>382.0</ele><time>2026-05-02T10:10:36.647Z</time></trkpt><trkpt lat="42.2598338" lon="13.8066637"><ele>381.0</ele><time>2026-05-02T10:10:37.647Z</time></trkpt><trkpt lat="42.259915" lon="13.806622"><ele>380.0</ele><time>2026-05-02T10:10:38.648Z</time></trkpt><trkpt lat="42.2599963" lon="13.8065782"><ele>379.0</ele><time>2026-05-02T10:10:39.648Z</time></trkpt><trkpt lat="42.2600925" lon="13.8065208"><ele>378.0</ele><time>2026-05-02T10:10:40.648Z</time></trkpt><trkpt lat="42.2601967" lon="13.8064492"><ele>377.0</ele><time>2026-05-02T10:10:41.647Z</time></trkpt><trkpt lat="42.2603023" lon="13.8063643"><ele>377.0</ele><time>2026-05-02T10:10:42.647Z</time></trkpt><trkpt lat="42.2604089" lon="13.8062788"><ele>377.0</ele><time>2026-05-02T10:10:43.647Z</time></trkpt><trkpt lat="42.2605169" lon="13.8061945"><ele>377.0</ele><time>2026-05-02T10:10:44.647Z</time></trkpt><trkpt lat="42.2606256" lon="13.8061111"><ele>377.0</ele><time>2026-05-02T10:10:45.647Z</time></trkpt><trkpt lat="42.2607296" lon="13.8060369"><ele>376.40000000000003</ele><time>2026-05-02T10:10:46.647Z</time></trkpt><trkpt lat="42.2608283" lon="13.8059712"><ele>375.8</ele><time>2026-05-02T10:10:47.647Z</time></trkpt><trkpt lat="42.2609146" lon="13.8059129"><ele>375.2</ele><time>2026-05-02T10:10:48.647Z</time></trkpt><trkpt lat="42.2609754" lon="13.8058627"><ele>374.6</ele><time>2026-05-02T10:10:49.647Z</time></trkpt><trkpt lat="42.2610541" lon="13.805743"><ele>374.0</ele><time>2026-05-02T10:10:51.647Z</time></trkpt><trkpt lat="42.2611538" lon="13.8056499"><ele>374.0</ele><time>2026-05-02T10:10:53.648Z</time></trkpt><trkpt lat="42.2612378" lon="13.8056132"><ele>374.0</ele><time>2026-05-02T10:10:54.647Z</time></trkpt><trkpt lat="42.2613343" lon="13.805581"><ele>374.0</ele><time>2026-05-02T10:10:55.647Z</time></trkpt><trkpt lat="42.2614331" lon="13.8055525"><ele>374.0</ele><time>2026-05-02T10:10:56.648Z</time></trkpt><trkpt lat="42.2615332" lon="13.8055153"><ele>374.0</ele><time>2026-05-02T10:10:57.647Z</time></trkpt><trkpt lat="42.2616275" lon="13.8054744"><ele>373.4</ele><time>2026-05-02T10:10:58.647Z</time></trkpt><trkpt lat="42.2617233" lon="13.8054387"><ele>372.79999999999995</ele><time>2026-05-02T10:10:59.647Z</time></trkpt><trkpt lat="42.261822" lon="13.8054002"><ele>372.20000000000005</ele><time>2026-05-02T10:11:00.647Z</time></trkpt><trkpt lat="42.2619187" lon="13.8053595"><ele>371.6</ele><time>2026-05-02T10:11:01.647Z</time></trkpt><trkpt lat="42.2620122" lon="13.805323"><ele>371.0</ele><time>2026-05-02T10:11:02.647Z</time></trkpt><trkpt lat="42.2621031" lon="13.8052914"><ele>371.0</ele><time>2026-05-02T10:11:03.647Z</time></trkpt><trkpt lat="42.2621841" lon="13.8052691"><ele>371.0</ele><time>2026-05-02T10:11:04.648Z</time></trkpt><trkpt lat="42.2622845" lon="13.8052678"><ele>371.0</ele><time>2026-05-02T10:11:06.648Z</time></trkpt><trkpt lat="42.2623961" lon="13.8053073"><ele>371.0</ele><time>2026-05-02T10:11:09.647Z</time></trkpt><trkpt lat="42.2624639" lon="13.8053174"><ele>371.0</ele><time>2026-05-02T10:11:10.647Z</time></trkpt><trkpt lat="42.2625314" lon="13.8053109"><ele>371.0</ele><time>2026-05-02T10:11:11.647Z</time></trkpt><trkpt lat="42.2626168" lon="13.8052879"><ele>370.75</ele><time>2026-05-02T10:11:12.647Z</time></trkpt><trkpt lat="42.2627285" lon="13.8052585"><ele>370.5</ele><time>2026-05-02T10:11:13.648Z</time></trkpt><trkpt lat="42.2628938" lon="13.8052119"><ele>370.25</ele><time>2026-05-02T10:11:14.648Z</time></trkpt><trkpt lat="42.2630558" lon="13.805171"><ele>370.0</ele><time>2026-05-02T10:11:15.647Z</time></trkpt><trkpt lat="42.2631953" lon="13.8051421"><ele>368.75</ele><time>2026-05-02T10:11:16.647Z</time></trkpt><trkpt lat="42.2633275" lon="13.8051164"><ele>367.5</ele><time>2026-05-02T10:11:17.647Z</time></trkpt><trkpt lat="42.2634578" lon="13.8050934"><ele>366.25</ele><time>2026-05-02T10:11:18.647Z</time></trkpt><trkpt lat="42.2635865" lon="13.8050716"><ele>365.0</ele><time>2026-05-02T10:11:19.648Z</time></trkpt><trkpt lat="42.2637046" lon="13.8050484"><ele>365.0</ele><time>2026-05-02T10:11:20.647Z</time></trkpt><trkpt lat="42.2638169" lon="13.8050263"><ele>365.0</ele><time>2026-05-02T10:11:21.647Z</time></trkpt><trkpt lat="42.2639277" lon="13.8050131"><ele>365.0</ele><time>2026-05-02T10:11:22.648Z</time></trkpt><trkpt lat="42.2640365" lon="13.8050076"><ele>365.0</ele><time>2026-05-02T10:11:23.647Z</time></trkpt><trkpt lat="42.2641499" lon="13.8050068"><ele>365.0</ele><time>2026-05-02T10:11:24.648Z</time></trkpt><trkpt lat="42.2642734" lon="13.8050047"><ele>364.25</ele><time>2026-05-02T10:11:25.647Z</time></trkpt><trkpt lat="42.2644029" lon="13.804997"><ele>363.5</ele><time>2026-05-02T10:11:26.647Z</time></trkpt><trkpt lat="42.2645368" lon="13.8049835"><ele>362.75</ele><time>2026-05-02T10:11:27.648Z</time></trkpt><trkpt lat="42.2646733" lon="13.8049592"><ele>362.0</ele><time>2026-05-02T10:11:28.647Z</time></trkpt><trkpt lat="42.2648074" lon="13.8049279"><ele>361.0</ele><time>2026-05-02T10:11:29.647Z</time></trkpt><trkpt lat="42.2649445" lon="13.8048908"><ele>360.0</ele><time>2026-05-02T10:11:30.647Z</time></trkpt><trkpt lat="42.2650858" lon="13.804847"><ele>359.0</ele><time>2026-05-02T10:11:31.647Z</time></trkpt><trkpt lat="42.2652271" lon="13.8047961"><ele>358.0</ele><time>2026-05-02T10:11:32.647Z</time></trkpt><trkpt lat="42.265369" lon="13.8047447"><ele>358.0</ele><time>2026-05-02T10:11:33.647Z</time></trkpt><trkpt lat="42.265515" lon="13.8046957"><ele>358.0</ele><time>2026-05-02T10:11:34.647Z</time></trkpt><trkpt lat="42.2656583" lon="13.8046434"><ele>358.0</ele><time>2026-05-02T10:11:35.647Z</time></trkpt><trkpt lat="42.2657967" lon="13.8045877"><ele>358.0</ele><time>2026-05-02T10:11:36.647Z</time></trkpt><trkpt lat="42.2659305" lon="13.8045353"><ele>357.5</ele><time>2026-05-02T10:11:37.648Z</time></trkpt><trkpt lat="42.2660509" lon="13.8044946"><ele>357.0</ele><time>2026-05-02T10:11:38.648Z</time></trkpt><trkpt lat="42.2661603" lon="13.8044593"><ele>356.5</ele><time>2026-05-02T10:11:39.647Z</time></trkpt><trkpt lat="42.2662646" lon="13.8044098"><ele>356.0</ele><time>2026-05-02T10:11:40.647Z</time></trkpt><trkpt lat="42.2663655" lon="13.8043411"><ele>355.8</ele><time>2026-05-02T10:11:41.647Z</time></trkpt><trkpt lat="42.266462" lon="13.8042621"><ele>355.6</ele><time>2026-05-02T10:11:42.648Z</time></trkpt><trkpt lat="42.2665561" lon="13.8041814"><ele>355.4</ele><time>2026-05-02T10:11:43.647Z</time></trkpt><trkpt lat="42.2666489" lon="13.8041038"><ele>355.2</ele><time>2026-05-02T10:11:44.647Z</time></trkpt><trkpt lat="42.2667358" lon="13.8040249"><ele>355.0</ele><time>2026-05-02T10:11:45.647Z</time></trkpt><trkpt lat="42.266813" lon="13.8039367"><ele>355.0</ele><time>2026-05-02T10:11:46.647Z</time></trkpt><trkpt lat="42.266877" lon="13.8038387"><ele>355.0</ele><time>2026-05-02T10:11:47.647Z</time></trkpt><trkpt lat="42.2669322" lon="13.8037374"><ele>355.0</ele><time>2026-05-02T10:11:48.647Z</time></trkpt><trkpt lat="42.2669769" lon="13.8036316"><ele>355.0</ele><time>2026-05-02T10:11:49.647Z</time></trkpt><trkpt lat="42.2670102" lon="13.8035196"><ele>355.0</ele><time>2026-05-02T10:11:50.647Z</time></trkpt><trkpt lat="42.2670328" lon="13.8034059"><ele>355.4</ele><time>2026-05-02T10:11:51.648Z</time></trkpt><trkpt lat="42.2670573" lon="13.8032994"><ele>355.8</ele><time>2026-05-02T10:11:52.647Z</time></trkpt><trkpt lat="42.2671007" lon="13.8031983"><ele>356.20000000000005</ele><time>2026-05-02T10:11:53.647Z</time></trkpt><trkpt lat="42.2671618" lon="13.803101"><ele>356.6</ele><time>2026-05-02T10:11:54.647Z</time></trkpt><trkpt lat="42.2672272" lon="13.8030093"><ele>357.0</ele><time>2026-05-02T10:11:55.648Z</time></trkpt><trkpt lat="42.2672933" lon="13.8029134"><ele>357.0</ele><time>2026-05-02T10:11:56.647Z</time></trkpt><trkpt lat="42.2673556" lon="13.8028239"><ele>357.0</ele><time>2026-05-02T10:11:57.647Z</time></trkpt><trkpt lat="42.2674073" lon="13.802753"><ele>357.0</ele><time>2026-05-02T10:11:58.647Z</time></trkpt><trkpt lat="42.267464" lon="13.8026736"><ele>357.0</ele><time>2026-05-02T10:12:00.648Z</time></trkpt><trkpt lat="42.2674796" lon="13.8025735"><ele>357.0</ele><time>2026-05-02T10:12:02.647Z</time></trkpt><trkpt lat="42.2675336" lon="13.8024624"><ele>357.0</ele><time>2026-05-02T10:12:04.648Z</time></trkpt><trkpt lat="42.2675859" lon="13.8023863"><ele>356.40000000000003</ele><time>2026-05-02T10:12:05.648Z</time></trkpt><trkpt lat="42.2676513" lon="13.8022865"><ele>355.8</ele><time>2026-05-02T10:12:06.647Z</time></trkpt><trkpt lat="42.2677317" lon="13.8021767"><ele>355.2</ele><time>2026-05-02T10:12:07.647Z</time></trkpt><trkpt lat="42.2678205" lon="13.8020726"><ele>354.6</ele><time>2026-05-02T10:12:08.648Z</time></trkpt><trkpt lat="42.2679084" lon="13.801977"><ele>354.0</ele><time>2026-05-02T10:12:09.647Z</time></trkpt><trkpt lat="42.2679905" lon="13.8018863"><ele>353.79999999999995</ele><time>2026-05-02T10:12:10.647Z</time></trkpt><trkpt lat="42.2680721" lon="13.8017936"><ele>353.59999999999997</ele><time>2026-05-02T10:12:11.647Z</time></trkpt><trkpt lat="42.2681555" lon="13.8017004"><ele>353.4</ele><time>2026-05-02T10:12:12.648Z</time></trkpt><trkpt lat="42.2682412" lon="13.8016079"><ele>353.2</ele><time>2026-05-02T10:12:13.647Z</time></trkpt><trkpt lat="42.2683248" lon="13.8015152"><ele>353.0</ele><time>2026-05-02T10:12:14.647Z</time></trkpt><trkpt lat="42.2684087" lon="13.801426"><ele>353.0</ele><time>2026-05-02T10:12:15.647Z</time></trkpt><trkpt lat="42.2684952" lon="13.8013395"><ele>353.0</ele><time>2026-05-02T10:12:16.648Z</time></trkpt><trkpt lat="42.2685777" lon="13.80125"><ele>353.0</ele><time>2026-05-02T10:12:17.647Z</time></trkpt><trkpt lat="42.2686592" lon="13.801156"><ele>353.0</ele><time>2026-05-02T10:12:18.647Z</time></trkpt><trkpt lat="42.2687474" lon="13.8010627"><ele>353.0</ele><time>2026-05-02T10:12:19.648Z</time></trkpt><trkpt lat="42.2688401" lon="13.8009727"><ele>352.79999999999995</ele><time>2026-05-02T10:12:20.647Z</time></trkpt><trkpt lat="42.2689301" lon="13.8008863"><ele>352.6</ele><time>2026-05-02T10:12:21.647Z</time></trkpt><trkpt lat="42.2690195" lon="13.8008035"><ele>352.4</ele><time>2026-05-02T10:12:22.648Z</time></trkpt><trkpt lat="42.269112" lon="13.8007294"><ele>352.20000000000005</ele><time>2026-05-02T10:12:23.648Z</time></trkpt><trkpt lat="42.2692067" lon="13.8006671"><ele>352.0</ele><time>2026-05-02T10:12:24.648Z</time></trkpt><trkpt lat="42.2693005" lon="13.8006196"><ele>352.0</ele><time>2026-05-02T10:12:25.647Z</time></trkpt><trkpt lat="42.2693909" lon="13.8005861"><ele>352.0</ele><time>2026-05-02T10:12:26.647Z</time></trkpt><trkpt lat="42.2694819" lon="13.8005548"><ele>352.0</ele><time>2026-05-02T10:12:27.647Z</time></trkpt><trkpt lat="42.2695708" lon="13.8005136"><ele>352.0</ele><time>2026-05-02T10:12:28.648Z</time></trkpt><trkpt lat="42.2696533" lon="13.8004553"><ele>352.0</ele><time>2026-05-02T10:12:29.648Z</time></trkpt><trkpt lat="42.2697315" lon="13.8003796"><ele>352.0</ele><time>2026-05-02T10:12:30.648Z</time></trkpt><trkpt lat="42.2698091" lon="13.800296"><ele>352.0</ele><time>2026-05-02T10:12:31.647Z</time></trkpt><trkpt lat="42.2698888" lon="13.800203"><ele>352.0</ele><time>2026-05-02T10:12:32.647Z</time></trkpt><trkpt lat="42.269968" lon="13.8001076"><ele>352.0</ele><time>2026-05-02T10:12:33.647Z</time></trkpt><trkpt lat="42.2700493" lon="13.800017"><ele>352.0</ele><time>2026-05-02T10:12:34.648Z</time></trkpt><trkpt lat="42.2701332" lon="13.799925"><ele>351.0</ele><time>2026-05-02T10:12:35.648Z</time></trkpt><trkpt lat="42.2702167" lon="13.7998341"><ele>350.0</ele><time>2026-05-02T10:12:36.648Z</time></trkpt><trkpt lat="42.270309" lon="13.7997556"><ele>349.0</ele><time>2026-05-02T10:12:37.648Z</time></trkpt><trkpt lat="42.2704078" lon="13.7996843"><ele>348.0</ele><time>2026-05-02T10:12:38.648Z</time></trkpt><trkpt lat="42.2705042" lon="13.7996131"><ele>347.0</ele><time>2026-05-02T10:12:39.647Z</time></trkpt><trkpt lat="42.2705978" lon="13.7995473"><ele>347.6</ele><time>2026-05-02T10:12:40.648Z</time></trkpt><trkpt lat="42.2706909" lon="13.799495"><ele>348.20000000000005</ele><time>2026-05-02T10:12:41.648Z</time></trkpt><trkpt lat="42.2707888" lon="13.7994568"><ele>348.8</ele><time>2026-05-02T10:12:42.647Z</time></trkpt><trkpt lat="42.2708922" lon="13.7994219"><ele>349.4</ele><time>2026-05-02T10:12:43.647Z</time></trkpt><trkpt lat="42.2709983" lon="13.799385"><ele>350.0</ele><time>2026-05-02T10:12:44.647Z</time></trkpt><trkpt lat="42.2711054" lon="13.7993442"><ele>349.6</ele><time>2026-05-02T10:12:45.648Z</time></trkpt><trkpt lat="42.2712138" lon="13.7992978"><ele>349.2</ele><time>2026-05-02T10:12:46.647Z</time></trkpt><trkpt lat="42.271318" lon="13.7992511"><ele>348.79999999999995</ele><time>2026-05-02T10:12:47.647Z</time></trkpt><trkpt lat="42.2714184" lon="13.7992064"><ele>348.4</ele><time>2026-05-02T10:12:48.648Z</time></trkpt><trkpt lat="42.2715198" lon="13.7991568"><ele>348.0</ele><time>2026-05-02T10:12:49.647Z</time></trkpt><trkpt lat="42.2716167" lon="13.7991023"><ele>348.0</ele><time>2026-05-02T10:12:50.648Z</time></trkpt><trkpt lat="42.271714" lon="13.7990456"><ele>348.0</ele><time>2026-05-02T10:12:51.647Z</time></trkpt><trkpt lat="42.2718156" lon="13.7989901"><ele>348.0</ele><time>2026-05-02T10:12:52.647Z</time></trkpt><trkpt lat="42.2719159" lon="13.7989323"><ele>348.0</ele><time>2026-05-02T10:12:53.648Z</time></trkpt><trkpt lat="42.2720187" lon="13.7988774"><ele>348.0</ele><time>2026-05-02T10:12:54.647Z</time></trkpt><trkpt lat="42.2721193" lon="13.7988251"><ele>348.0</ele><time>2026-05-02T10:12:55.647Z</time></trkpt><trkpt lat="42.2722155" lon="13.7987703"><ele>348.0</ele><time>2026-05-02T10:12:56.648Z</time></trkpt><trkpt lat="42.2723028" lon="13.7987097"><ele>348.0</ele><time>2026-05-02T10:12:57.647Z</time></trkpt><trkpt lat="42.2723848" lon="13.7986407"><ele>348.0</ele><time>2026-05-02T10:12:58.647Z</time></trkpt><trkpt lat="42.2724675" lon="13.798568"><ele>348.0</ele><time>2026-05-02T10:12:59.647Z</time></trkpt><trkpt lat="42.2725518" lon="13.7984981"><ele>347.79999999999995</ele><time>2026-05-02T10:13:00.647Z</time></trkpt><trkpt lat="42.2726379" lon="13.7984339"><ele>347.6</ele><time>2026-05-02T10:13:01.647Z</time></trkpt><trkpt lat="42.2727235" lon="13.7983696"><ele>347.4</ele><time>2026-05-02T10:13:02.647Z</time></trkpt><trkpt lat="42.2728111" lon="13.7982979"><ele>347.20000000000005</ele><time>2026-05-02T10:13:03.647Z</time></trkpt><trkpt lat="42.2728982" lon="13.798226"><ele>347.0</ele><time>2026-05-02T10:13:04.648Z</time></trkpt><trkpt lat="42.2729841" lon="13.7981523"><ele>347.0</ele><time>2026-05-02T10:13:05.648Z</time></trkpt><trkpt lat="42.2730752" lon="13.7980849"><ele>347.0</ele><time>2026-05-02T10:13:06.647Z</time></trkpt><trkpt lat="42.2731756" lon="13.7980327"><ele>347.0</ele><time>2026-05-02T10:13:07.647Z</time></trkpt><trkpt lat="42.273278" lon="13.7979858"><ele>347.0</ele><time>2026-05-02T10:13:08.648Z</time></trkpt><trkpt lat="42.2733759" lon="13.7979285"><ele>347.0</ele><time>2026-05-02T10:13:09.647Z</time></trkpt><trkpt lat="42.273467" lon="13.797862"><ele>347.0</ele><time>2026-05-02T10:13:10.647Z</time></trkpt><trkpt lat="42.2735599" lon="13.7977953"><ele>347.0</ele><time>2026-05-02T10:13:11.647Z</time></trkpt><trkpt lat="42.2736496" lon="13.7977134"><ele>347.0</ele><time>2026-05-02T10:13:12.647Z</time></trkpt><trkpt lat="42.2737512" lon="13.797657"><ele>347.0</ele><time>2026-05-02T10:13:13.647Z</time></trkpt><trkpt lat="42.2738497" lon="13.797589"><ele>347.0</ele><time>2026-05-02T10:13:14.647Z</time></trkpt><trkpt lat="42.273946" lon="13.7975193"><ele>347.0</ele><time>2026-05-02T10:13:15.647Z</time></trkpt><trkpt lat="42.2740427" lon="13.797451"><ele>347.0</ele><time>2026-05-02T10:13:16.647Z</time></trkpt><trkpt lat="42.274138" lon="13.7973824"><ele>347.0</ele><time>2026-05-02T10:13:17.647Z</time></trkpt><trkpt lat="42.2742324" lon="13.7973001"><ele>347.0</ele><time>2026-05-02T10:13:18.647Z</time></trkpt><trkpt lat="42.2743176" lon="13.7972027"><ele>347.0</ele><time>2026-05-02T10:13:19.646Z</time></trkpt><trkpt lat="42.2744" lon="13.7971074"><ele>347.0</ele><time>2026-05-02T10:13:20.647Z</time></trkpt><trkpt lat="42.2744878" lon="13.797029"><ele>347.0</ele><time>2026-05-02T10:13:21.648Z</time></trkpt><trkpt lat="42.2745753" lon="13.796956"><ele>347.0</ele><time>2026-05-02T10:13:22.648Z</time></trkpt><trkpt lat="42.2746712" lon="13.7968916"><ele>347.0</ele><time>2026-05-02T10:13:23.647Z</time></trkpt><trkpt lat="42.2747668" lon="13.7968243"><ele>347.0</ele><time>2026-05-02T10:13:24.647Z</time></trkpt><trkpt lat="42.2748699" lon="13.7967544"><ele>347.0</ele><time>2026-05-02T10:13:25.647Z</time></trkpt><trkpt lat="42.2749659" lon="13.7966888"><ele>347.0</ele><time>2026-05-02T10:13:26.647Z</time></trkpt><trkpt lat="42.2750458" lon="13.796631"><ele>347.0</ele><time>2026-05-02T10:13:27.647Z</time></trkpt><trkpt lat="42.2751108" lon="13.7965711"><ele>347.0</ele><time>2026-05-02T10:13:28.647Z</time></trkpt><trkpt lat="42.2751717" lon="13.7964922"><ele>347.0</ele><time>2026-05-02T10:13:29.647Z</time></trkpt><trkpt lat="42.2752377" lon="13.7964023"><ele>347.0</ele><time>2026-05-02T10:13:30.648Z</time></trkpt><trkpt lat="42.2753128" lon="13.7963316"><ele>347.0</ele><time>2026-05-02T10:13:31.648Z</time></trkpt><trkpt lat="42.2753996" lon="13.7962806"><ele>347.0</ele><time>2026-05-02T10:13:32.647Z</time></trkpt><trkpt lat="42.2754917" lon="13.7962447"><ele>347.0</ele><time>2026-05-02T10:13:33.647Z</time></trkpt><trkpt lat="42.2755825" lon="13.7962196"><ele>347.0</ele><time>2026-05-02T10:13:34.647Z</time></trkpt><trkpt lat="42.2756687" lon="13.7961922"><ele>347.0</ele><time>2026-05-02T10:13:35.647Z</time></trkpt><trkpt lat="42.27575" lon="13.7961375"><ele>347.0</ele><time>2026-05-02T10:13:36.648Z</time></trkpt><trkpt lat="42.2758275" lon="13.7960667"><ele>347.0</ele><time>2026-05-02T10:13:37.648Z</time></trkpt><trkpt lat="42.2759042" lon="13.7959956"><ele>347.0</ele><time>2026-05-02T10:13:38.647Z</time></trkpt><trkpt lat="42.2759806" lon="13.7959242"><ele>347.0</ele><time>2026-05-02T10:13:39.648Z</time></trkpt><trkpt lat="42.2760589" lon="13.7958429"><ele>347.0</ele><time>2026-05-02T10:13:40.648Z</time></trkpt><trkpt lat="42.2761409" lon="13.7957526"><ele>347.0</ele><time>2026-05-02T10:13:41.648Z</time></trkpt><trkpt lat="42.2762204" lon="13.7956591"><ele>347.0</ele><time>2026-05-02T10:13:42.647Z</time></trkpt><trkpt lat="42.2762988" lon="13.7955653"><ele>347.0</ele><time>2026-05-02T10:13:43.647Z</time></trkpt><trkpt lat="42.2763772" lon="13.7954801"><ele>347.0</ele><time>2026-05-02T10:13:44.647Z</time></trkpt><trkpt lat="42.2764631" lon="13.7954035"><ele>348.8</ele><time>2026-05-02T10:13:45.647Z</time></trkpt><trkpt lat="42.2765555" lon="13.7953391"><ele>350.6</ele><time>2026-05-02T10:13:46.648Z</time></trkpt><trkpt lat="42.2766492" lon="13.7952903"><ele>352.40000000000003</ele><time>2026-05-02T10:13:47.647Z</time></trkpt><trkpt lat="42.2767388" lon="13.7952529"><ele>354.20000000000005</ele><time>2026-05-02T10:13:48.648Z</time></trkpt><trkpt lat="42.2768249" lon="13.795219"><ele>356.0</ele><time>2026-05-02T10:13:49.647Z</time></trkpt><trkpt lat="42.2769141" lon="13.7951882"><ele>354.6</ele><time>2026-05-02T10:13:50.647Z</time></trkpt><trkpt lat="42.2770078" lon="13.7951627"><ele>353.20000000000005</ele><time>2026-05-02T10:13:51.648Z</time></trkpt><trkpt lat="42.2771045" lon="13.7951405"><ele>351.79999999999995</ele><time>2026-05-02T10:13:52.647Z</time></trkpt><trkpt lat="42.2772031" lon="13.795126"><ele>350.4</ele><time>2026-05-02T10:13:53.648Z</time></trkpt><trkpt lat="42.2772985" lon="13.7951165"><ele>349.0</ele><time>2026-05-02T10:13:54.647Z</time></trkpt><trkpt lat="42.2773913" lon="13.7951054"><ele>349.0</ele><time>2026-05-02T10:13:55.648Z</time></trkpt><trkpt lat="42.2774762" lon="13.7950929"><ele>349.0</ele><time>2026-05-02T10:13:56.648Z</time></trkpt><trkpt lat="42.2775573" lon="13.79508"><ele>349.0</ele><time>2026-05-02T10:13:57.647Z</time></trkpt><trkpt lat="42.2776422" lon="13.7950747"><ele>349.0</ele><time>2026-05-02T10:13:58.648Z</time></trkpt><trkpt lat="42.277731" lon="13.7950814"><ele>349.0</ele><time>2026-05-02T10:13:59.647Z</time></trkpt><trkpt lat="42.2778212" lon="13.7950956"><ele>349.0</ele><time>2026-05-02T10:14:00.648Z</time></trkpt><trkpt lat="42.2779102" lon="13.7951163"><ele>349.0</ele><time>2026-05-02T10:14:01.648Z</time></trkpt><trkpt lat="42.2780022" lon="13.7951456"><ele>349.0</ele><time>2026-05-02T10:14:02.648Z</time></trkpt><trkpt lat="42.278099" lon="13.7951761"><ele>349.0</ele><time>2026-05-02T10:14:03.647Z</time></trkpt><trkpt lat="42.2781992" lon="13.7952041"><ele>349.0</ele><time>2026-05-02T10:14:04.647Z</time></trkpt><trkpt lat="42.2783003" lon="13.7952303"><ele>349.0</ele><time>2026-05-02T10:14:05.648Z</time></trkpt><trkpt lat="42.2784002" lon="13.7952544"><ele>350.2</ele><time>2026-05-02T10:14:06.648Z</time></trkpt><trkpt lat="42.2784999" lon="13.7952733"><ele>351.4</ele><time>2026-05-02T10:14:07.648Z</time></trkpt><trkpt lat="42.2785974" lon="13.7952901"><ele>352.6</ele><time>2026-05-02T10:14:08.647Z</time></trkpt><trkpt lat="42.2786898" lon="13.7953017"><ele>353.8</ele><time>2026-05-02T10:14:09.647Z</time></trkpt><trkpt lat="42.2787755" lon="13.7952975"><ele>355.0</ele><time>2026-05-02T10:14:10.647Z</time></trkpt><trkpt lat="42.2788555" lon="13.7952734"><ele>354.5</ele><time>2026-05-02T10:14:11.647Z</time></trkpt><trkpt lat="42.2789348" lon="13.7952419"><ele>354.0</ele><time>2026-05-02T10:14:12.647Z</time></trkpt><trkpt lat="42.2790191" lon="13.7952178"><ele>353.5</ele><time>2026-05-02T10:14:13.648Z</time></trkpt><trkpt lat="42.2791063" lon="13.7952043"><ele>353.0</ele><time>2026-05-02T10:14:14.647Z</time></trkpt><trkpt lat="42.2791966" lon="13.7951905"><ele>352.5</ele><time>2026-05-02T10:14:15.647Z</time></trkpt><trkpt lat="42.2792859" lon="13.7951645"><ele>352.0</ele><time>2026-05-02T10:14:16.648Z</time></trkpt><trkpt lat="42.2793765" lon="13.7951211"><ele>350.0</ele><time>2026-05-02T10:14:17.647Z</time></trkpt><trkpt lat="42.2794708" lon="13.7950625"><ele>348.0</ele><time>2026-05-02T10:14:18.647Z</time></trkpt><trkpt lat="42.2795627" lon="13.7949908"><ele>346.0</ele><time>2026-05-02T10:14:19.648Z</time></trkpt><trkpt lat="42.2796501" lon="13.7949144"><ele>344.0</ele><time>2026-05-02T10:14:20.647Z</time></trkpt><trkpt lat="42.2797393" lon="13.7948324"><ele>342.0</ele><time>2026-05-02T10:14:21.647Z</time></trkpt><trkpt lat="42.2798527" lon="13.794729"><ele>342.0</ele><time>2026-05-02T10:14:22.647Z</time></trkpt><trkpt lat="42.2800006" lon="13.7946048"><ele>342.0</ele><time>2026-05-02T10:14:23.647Z</time></trkpt><trkpt lat="42.28015" lon="13.7944743"><ele>342.0</ele><time>2026-05-02T10:14:24.647Z</time></trkpt><trkpt lat="42.280286" lon="13.7943477"><ele>342.0</ele><time>2026-05-02T10:14:25.647Z</time></trkpt><trkpt lat="42.2804124" lon="13.79423"><ele>342.0</ele><time>2026-05-02T10:14:26.647Z</time></trkpt><trkpt lat="42.2805315" lon="13.7941212"><ele>342.0</ele><time>2026-05-02T10:14:27.647Z</time></trkpt><trkpt lat="42.2806464" lon="13.794022"><ele>342.0</ele><time>2026-05-02T10:14:28.647Z</time></trkpt><trkpt lat="42.2807594" lon="13.7939342"><ele>342.0</ele><time>2026-05-02T10:14:29.648Z</time></trkpt><trkpt lat="42.2808722" lon="13.7938622"><ele>342.0</ele><time>2026-05-02T10:14:30.647Z</time></trkpt><trkpt lat="42.2809838" lon="13.7938063"><ele>342.0</ele><time>2026-05-02T10:14:31.647Z</time></trkpt><trkpt lat="42.2810995" lon="13.7937484"><ele>342.0</ele><time>2026-05-02T10:14:32.647Z</time></trkpt><trkpt lat="42.2812251" lon="13.7936782"><ele>342.0</ele><time>2026-05-02T10:14:33.648Z</time></trkpt><trkpt lat="42.2813561" lon="13.7936035"><ele>342.0</ele><time>2026-05-02T10:14:34.648Z</time></trkpt><trkpt lat="42.2814834" lon="13.7935288"><ele>342.0</ele><time>2026-05-02T10:14:35.647Z</time></trkpt><trkpt lat="42.2816051" lon="13.7934541"><ele>342.0</ele><time>2026-05-02T10:14:36.647Z</time></trkpt><trkpt lat="42.2817275" lon="13.7933726"><ele>342.0</ele><time>2026-05-02T10:14:37.647Z</time></trkpt><trkpt lat="42.2818524" lon="13.7932839"><ele>342.0</ele><time>2026-05-02T10:14:38.647Z</time></trkpt><trkpt lat="42.2819769" lon="13.7931872"><ele>342.0</ele><time>2026-05-02T10:14:39.648Z</time></trkpt><trkpt lat="42.282096" lon="13.7930908"><ele>342.0</ele><time>2026-05-02T10:14:40.647Z</time></trkpt><trkpt lat="42.2822097" lon="13.7929929"><ele>342.25</ele><time>2026-05-02T10:14:41.648Z</time></trkpt><trkpt lat="42.2823196" lon="13.7928821"><ele>342.5</ele><time>2026-05-02T10:14:42.648Z</time></trkpt><trkpt lat="42.2824187" lon="13.7927584"><ele>342.75</ele><time>2026-05-02T10:14:43.648Z</time></trkpt><trkpt lat="42.2825051" lon="13.792621"><ele>343.0</ele><time>2026-05-02T10:14:44.647Z</time></trkpt><trkpt lat="42.2825717" lon="13.7924713"><ele>343.0</ele><time>2026-05-02T10:14:45.647Z</time></trkpt><trkpt lat="42.282613" lon="13.7923393"><ele>343.0</ele><time>2026-05-02T10:14:46.648Z</time></trkpt><trkpt lat="42.2826459" lon="13.7922465"><ele>343.0</ele><time>2026-05-02T10:14:47.648Z</time></trkpt><trkpt lat="42.2826983" lon="13.7921725"><ele>343.0</ele><time>2026-05-02T10:14:48.647Z</time></trkpt><trkpt lat="42.2827811" lon="13.7920924"><ele>343.0</ele><time>2026-05-02T10:14:49.648Z</time></trkpt><trkpt lat="42.2828849" lon="13.7919971"><ele>343.0</ele><time>2026-05-02T10:14:50.647Z</time></trkpt><trkpt lat="42.2829989" lon="13.7918839"><ele>343.0</ele><time>2026-05-02T10:14:51.647Z</time></trkpt><trkpt lat="42.2831245" lon="13.7917605"><ele>343.0</ele><time>2026-05-02T10:14:52.647Z</time></trkpt><trkpt lat="42.2832529" lon="13.7916447"><ele>343.79999999999995</ele><time>2026-05-02T10:14:53.647Z</time></trkpt><trkpt lat="42.2833693" lon="13.7915515"><ele>344.6</ele><time>2026-05-02T10:14:54.647Z</time></trkpt><trkpt lat="42.2834696" lon="13.7914738"><ele>345.4</ele><time>2026-05-02T10:14:55.647Z</time></trkpt><trkpt lat="42.2835575" lon="13.791403"><ele>346.20000000000005</ele><time>2026-05-02T10:14:56.648Z</time></trkpt><trkpt lat="42.2836372" lon="13.7913484"><ele>347.0</ele><time>2026-05-02T10:14:57.647Z</time></trkpt><trkpt lat="42.283705" lon="13.7913021"><ele>347.0</ele><time>2026-05-02T10:14:58.647Z</time></trkpt><trkpt lat="42.2837465" lon="13.7912343"><ele>347.0</ele><time>2026-05-02T10:15:00.647Z</time></trkpt><trkpt lat="42.2837068" lon="13.7911673"><ele>347.0</ele><time>2026-05-02T10:15:02.648Z</time></trkpt><trkpt lat="42.2836473" lon="13.7911065"><ele>347.0</ele><time>2026-05-02T10:15:03.647Z</time></trkpt><trkpt lat="42.2835697" lon="13.791025"><ele>347.0</ele><time>2026-05-02T10:15:04.647Z</time></trkpt><trkpt lat="42.2834634" lon="13.790922"><ele>347.0</ele><time>2026-05-02T10:15:05.647Z</time></trkpt><trkpt lat="42.2833565" lon="13.7907955"><ele>347.20000000000005</ele><time>2026-05-02T10:15:06.647Z</time></trkpt><trkpt lat="42.2832574" lon="13.7906671"><ele>347.4</ele><time>2026-05-02T10:15:07.647Z</time></trkpt><trkpt lat="42.2831766" lon="13.790545"><ele>347.6</ele><time>2026-05-02T10:15:08.647Z</time></trkpt><trkpt lat="42.2831137" lon="13.7904496"><ele>347.79999999999995</ele><time>2026-05-02T10:15:09.647Z</time></trkpt><trkpt lat="42.2830703" lon="13.7903709"><ele>348.0</ele><time>2026-05-02T10:15:10.647Z</time></trkpt><trkpt lat="42.2830704" lon="13.7902004"><ele>348.0</ele><time>2026-05-02T10:15:12.647Z</time></trkpt><trkpt lat="42.2830797" lon="13.7900973"><ele>348.0</ele><time>2026-05-02T10:15:13.647Z</time></trkpt><trkpt lat="42.2830841" lon="13.7900001"><ele>348.0</ele><time>2026-05-02T10:15:14.647Z</time></trkpt><trkpt lat="42.2830848" lon="13.7898862"><ele>348.0</ele><time>2026-05-02T10:15:16.647Z</time></trkpt><trkpt lat="42.2831125" lon="13.7897857"><ele>348.0</ele><time>2026-05-02T10:15:19.648Z</time></trkpt><trkpt lat="42.2831567" lon="13.7896918"><ele>348.0</ele><time>2026-05-02T10:15:22.647Z</time></trkpt><trkpt lat="42.2831899" lon="13.7895768"><ele>348.0</ele><time>2026-05-02T10:15:25.648Z</time></trkpt><trkpt lat="42.2832134" lon="13.7894641"><ele>348.0</ele><time>2026-05-02T10:15:28.647Z</time></trkpt><trkpt lat="42.2832295" lon="13.7893602"><ele>348.0</ele><time>2026-05-02T10:15:31.648Z</time></trkpt><trkpt lat="42.2832406" lon="13.7892688"><ele>348.0</ele><time>2026-05-02T10:15:33.648Z</time></trkpt><trkpt lat="42.2832559" lon="13.7891639"><ele>348.0</ele><time>2026-05-02T10:15:35.648Z</time></trkpt><trkpt lat="42.2832707" lon="13.789059"><ele>348.0</ele><time>2026-05-02T10:15:37.647Z</time></trkpt><trkpt lat="42.2833021" lon="13.7889506"><ele>347.25</ele><time>2026-05-02T10:15:39.648Z</time></trkpt><trkpt lat="42.2833407" lon="13.7888048"><ele>346.5</ele><time>2026-05-02T10:15:41.647Z</time></trkpt><trkpt lat="42.283375" lon="13.7886456"><ele>345.75</ele><time>2026-05-02T10:15:43.648Z</time></trkpt><trkpt lat="42.2833972" lon="13.7884841"><ele>345.0</ele><time>2026-05-02T10:15:45.647Z</time></trkpt><trkpt lat="42.2834114" lon="13.7883308"><ele>344.3333333333333</ele><time>2026-05-02T10:15:47.647Z</time></trkpt><trkpt lat="42.2834128" lon="13.788241"><ele>343.6666666666667</ele><time>2026-05-02T10:15:48.648Z</time></trkpt><trkpt lat="42.283406" lon="13.7881452"><ele>343.0</ele><time>2026-05-02T10:15:49.647Z</time></trkpt><trkpt lat="42.2833902" lon="13.7880437"><ele>342.33333333333337</ele><time>2026-05-02T10:15:50.647Z</time></trkpt><trkpt lat="42.2833648" lon="13.7879354"><ele>341.6666666666667</ele><time>2026-05-02T10:15:51.647Z</time></trkpt><trkpt lat="42.2833298" lon="13.7878214"><ele>341.0</ele><time>2026-05-02T10:15:52.647Z</time></trkpt><trkpt lat="42.283285" lon="13.7877093"><ele>341.0</ele><time>2026-05-02T10:15:53.647Z</time></trkpt><trkpt lat="42.2832328" lon="13.7875995"><ele>341.0</ele><time>2026-05-02T10:15:54.647Z</time></trkpt><trkpt lat="42.283178" lon="13.787502"><ele>341.0</ele><time>2026-05-02T10:15:55.647Z</time></trkpt><trkpt lat="42.2831251" lon="13.787418"><ele>341.0</ele><time>2026-05-02T10:15:56.647Z</time></trkpt><trkpt lat="42.2830777" lon="13.7873374"><ele>341.0</ele><time>2026-05-02T10:15:57.647Z</time></trkpt><trkpt lat="42.2830355" lon="13.7872636"><ele>341.0</ele><time>2026-05-02T10:15:58.648Z</time></trkpt><trkpt lat="42.2829801" lon="13.7871586"><ele>341.0</ele><time>2026-05-02T10:16:00.648Z</time></trkpt><trkpt lat="42.2829144" lon="13.7870289"><ele>341.0</ele><time>2026-05-02T10:16:02.648Z</time></trkpt><trkpt lat="42.2828729" lon="13.7869456"><ele>341.0</ele><time>2026-05-02T10:16:03.647Z</time></trkpt><trkpt lat="42.2828185" lon="13.7868304"><ele>341.0</ele><time>2026-05-02T10:16:04.647Z</time></trkpt><trkpt lat="42.2827448" lon="13.7866684"><ele>341.0</ele><time>2026-05-02T10:16:05.648Z</time></trkpt><trkpt lat="42.2826713" lon="13.7864902"><ele>341.0</ele><time>2026-05-02T10:16:06.648Z</time></trkpt><trkpt lat="42.2826153" lon="13.7863412"><ele>341.0</ele><time>2026-05-02T10:16:07.647Z</time></trkpt><trkpt lat="42.2825692" lon="13.7862088"><ele>341.0</ele><time>2026-05-02T10:16:08.648Z</time></trkpt><trkpt lat="42.2825289" lon="13.7860867"><ele>341.0</ele><time>2026-05-02T10:16:09.647Z</time></trkpt><trkpt lat="42.2824925" lon="13.7859706"><ele>341.0</ele><time>2026-05-02T10:16:10.647Z</time></trkpt><trkpt lat="42.2824454" lon="13.7858326"><ele>340.75</ele><time>2026-05-02T10:16:11.647Z</time></trkpt><trkpt lat="42.2823899" lon="13.7856732"><ele>340.5</ele><time>2026-05-02T10:16:12.647Z</time></trkpt><trkpt lat="42.2823438" lon="13.7855095"><ele>340.25</ele><time>2026-05-02T10:16:13.647Z</time></trkpt><trkpt lat="42.2823024" lon="13.7853383"><ele>340.0</ele><time>2026-05-02T10:16:14.647Z</time></trkpt><trkpt lat="42.2822598" lon="13.7851623"><ele>340.0</ele><time>2026-05-02T10:16:15.647Z</time></trkpt><trkpt lat="42.2822117" lon="13.7849978"><ele>340.0</ele><time>2026-05-02T10:16:16.648Z</time></trkpt><trkpt lat="42.2821608" lon="13.7848243"><ele>340.0</ele><time>2026-05-02T10:16:17.647Z</time></trkpt><trkpt lat="42.2821141" lon="13.784638"><ele>340.0</ele><time>2026-05-02T10:16:18.648Z</time></trkpt><trkpt lat="42.2820695" lon="13.7844576"><ele>340.0</ele><time>2026-05-02T10:16:19.647Z</time></trkpt><trkpt lat="42.2820287" lon="13.7842939"><ele>340.0</ele><time>2026-05-02T10:16:20.647Z</time></trkpt><trkpt lat="42.2819913" lon="13.7841356"><ele>340.0</ele><time>2026-05-02T10:16:21.648Z</time></trkpt><trkpt lat="42.2819548" lon="13.7839742"><ele>340.0</ele><time>2026-05-02T10:16:22.647Z</time></trkpt><trkpt lat="42.2819153" lon="13.7838182"><ele>340.0</ele><time>2026-05-02T10:16:23.647Z</time></trkpt><trkpt lat="42.2818768" lon="13.7836639"><ele>340.0</ele><time>2026-05-02T10:16:24.647Z</time></trkpt><trkpt lat="42.2818378" lon="13.7834998"><ele>340.0</ele><time>2026-05-02T10:16:25.647Z</time></trkpt><trkpt lat="42.2817897" lon="13.7833271"><ele>340.0</ele><time>2026-05-02T10:16:26.647Z</time></trkpt><trkpt lat="42.2817358" lon="13.7831508"><ele>339.75</ele><time>2026-05-02T10:16:27.647Z</time></trkpt><trkpt lat="42.2816816" lon="13.7829762"><ele>339.5</ele><time>2026-05-02T10:16:28.648Z</time></trkpt><trkpt lat="42.281623" lon="13.7828075"><ele>339.25</ele><time>2026-05-02T10:16:29.648Z</time></trkpt><trkpt lat="42.2815641" lon="13.7826459"><ele>339.0</ele><time>2026-05-02T10:16:30.647Z</time></trkpt><trkpt lat="42.2815061" lon="13.7824865"><ele>339.75</ele><time>2026-05-02T10:16:31.647Z</time></trkpt><trkpt lat="42.2814478" lon="13.7823261"><ele>340.5</ele><time>2026-05-02T10:16:32.647Z</time></trkpt><trkpt lat="42.2813914" lon="13.7821629"><ele>341.25</ele><time>2026-05-02T10:16:33.647Z</time></trkpt><trkpt lat="42.2813372" lon="13.7819984"><ele>342.0</ele><time>2026-05-02T10:16:34.648Z</time></trkpt><trkpt lat="42.2812841" lon="13.7818354"><ele>342.0</ele><time>2026-05-02T10:16:35.647Z</time></trkpt><trkpt lat="42.2812334" lon="13.7816786"><ele>342.0</ele><time>2026-05-02T10:16:36.647Z</time></trkpt><trkpt lat="42.2811821" lon="13.7815237"><ele>342.0</ele><time>2026-05-02T10:16:37.647Z</time></trkpt><trkpt lat="42.2811313" lon="13.7813757"><ele>342.0</ele><time>2026-05-02T10:16:38.648Z</time></trkpt><trkpt lat="42.2810825" lon="13.7812348"><ele>342.0</ele><time>2026-05-02T10:16:39.648Z</time></trkpt><trkpt lat="42.2810418" lon="13.7810942"><ele>342.0</ele><time>2026-05-02T10:16:40.648Z</time></trkpt><trkpt lat="42.2810078" lon="13.7809554"><ele>342.0</ele><time>2026-05-02T10:16:41.647Z</time></trkpt><trkpt lat="42.2809733" lon="13.7808199"><ele>342.0</ele><time>2026-05-02T10:16:42.648Z</time></trkpt><trkpt lat="42.2809394" lon="13.7806948"><ele>342.0</ele><time>2026-05-02T10:16:43.648Z</time></trkpt><trkpt lat="42.28091" lon="13.7805777"><ele>341.8</ele><time>2026-05-02T10:16:44.648Z</time></trkpt><trkpt lat="42.2808845" lon="13.7804677"><ele>341.6</ele><time>2026-05-02T10:16:45.648Z</time></trkpt><trkpt lat="42.2808581" lon="13.7803596"><ele>341.40000000000003</ele><time>2026-05-02T10:16:46.647Z</time></trkpt><trkpt lat="42.280832" lon="13.7802454"><ele>341.20000000000005</ele><time>2026-05-02T10:16:47.647Z</time></trkpt><trkpt lat="42.2808056" lon="13.7801258"><ele>341.0</ele><time>2026-05-02T10:16:48.647Z</time></trkpt><trkpt lat="42.28077" lon="13.7799923"><ele>341.6</ele><time>2026-05-02T10:16:49.648Z</time></trkpt><trkpt lat="42.2807284" lon="13.7798584"><ele>342.20000000000005</ele><time>2026-05-02T10:16:50.648Z</time></trkpt><trkpt lat="42.2806815" lon="13.7797239"><ele>342.79999999999995</ele><time>2026-05-02T10:16:51.648Z</time></trkpt><trkpt lat="42.2806252" lon="13.779589"><ele>343.4</ele><time>2026-05-02T10:16:52.647Z</time></trkpt><trkpt lat="42.2805691" lon="13.7794523"><ele>344.0</ele><time>2026-05-02T10:16:53.647Z</time></trkpt><trkpt lat="42.2805143" lon="13.7793135"><ele>344.5</ele><time>2026-05-02T10:16:54.647Z</time></trkpt><trkpt lat="42.2804652" lon="13.7791722"><ele>345.0</ele><time>2026-05-02T10:16:55.648Z</time></trkpt><trkpt lat="42.28043" lon="13.7790178"><ele>345.5</ele><time>2026-05-02T10:16:56.647Z</time></trkpt><trkpt lat="42.2804025" lon="13.7788547"><ele>346.0</ele><time>2026-05-02T10:16:57.647Z</time></trkpt><trkpt lat="42.2803772" lon="13.778688"><ele>345.75</ele><time>2026-05-02T10:16:58.647Z</time></trkpt><trkpt lat="42.2803546" lon="13.7785096"><ele>345.5</ele><time>2026-05-02T10:16:59.647Z</time></trkpt><trkpt lat="42.2803343" lon="13.7783155"><ele>345.25</ele><time>2026-05-02T10:17:00.647Z</time></trkpt><trkpt lat="42.2803135" lon="13.7781175"><ele>345.0</ele><time>2026-05-02T10:17:01.647Z</time></trkpt><trkpt lat="42.2802891" lon="13.7779171"><ele>345.0</ele><time>2026-05-02T10:17:02.647Z</time></trkpt><trkpt lat="42.2802618" lon="13.7777119"><ele>345.0</ele><time>2026-05-02T10:17:03.647Z</time></trkpt><trkpt lat="42.2802316" lon="13.777509"><ele>345.0</ele><time>2026-05-02T10:17:04.648Z</time></trkpt><trkpt lat="42.2802034" lon="13.7773115"><ele>345.25</ele><time>2026-05-02T10:17:05.647Z</time></trkpt><trkpt lat="42.2801723" lon="13.7771128"><ele>345.5</ele><time>2026-05-02T10:17:06.647Z</time></trkpt><trkpt lat="42.2801338" lon="13.7769248"><ele>345.75</ele><time>2026-05-02T10:17:07.647Z</time></trkpt><trkpt lat="42.2800963" lon="13.7767541"><ele>346.0</ele><time>2026-05-02T10:17:08.648Z</time></trkpt><trkpt lat="42.2800668" lon="13.7765924"><ele>346.0</ele><time>2026-05-02T10:17:09.647Z</time></trkpt><trkpt lat="42.2800414" lon="13.7764318"><ele>346.0</ele><time>2026-05-02T10:17:10.647Z</time></trkpt><trkpt lat="42.2800198" lon="13.7762778"><ele>346.0</ele><time>2026-05-02T10:17:11.647Z</time></trkpt><trkpt lat="42.2800004" lon="13.7761241"><ele>346.0</ele><time>2026-05-02T10:17:12.647Z</time></trkpt><trkpt lat="42.2799844" lon="13.7759734"><ele>346.20000000000005</ele><time>2026-05-02T10:17:13.647Z</time></trkpt><trkpt lat="42.2799743" lon="13.7758289"><ele>346.40000000000003</ele><time>2026-05-02T10:17:14.648Z</time></trkpt><trkpt lat="42.279973" lon="13.7757029"><ele>346.6</ele><time>2026-05-02T10:17:15.647Z</time></trkpt><trkpt lat="42.279976" lon="13.7756014"><ele>346.8</ele><time>2026-05-02T10:17:16.647Z</time></trkpt><trkpt lat="42.2799902" lon="13.7754639"><ele>347.0</ele><time>2026-05-02T10:17:18.648Z</time></trkpt><trkpt lat="42.2800676" lon="13.7753555"><ele>347.0</ele><time>2026-05-02T10:17:20.647Z</time></trkpt><trkpt lat="42.2801305" lon="13.7753169"><ele>347.0</ele><time>2026-05-02T10:17:21.648Z</time></trkpt><trkpt lat="42.2802073" lon="13.7752791"><ele>347.0</ele><time>2026-05-02T10:17:22.647Z</time></trkpt><trkpt lat="42.2802904" lon="13.7752203"><ele>347.0</ele><time>2026-05-02T10:17:23.647Z</time></trkpt><trkpt lat="42.2803709" lon="13.7751593"><ele>347.0</ele><time>2026-05-02T10:17:24.647Z</time></trkpt><trkpt lat="42.2804429" lon="13.77511"><ele>347.0</ele><time>2026-05-02T10:17:25.647Z</time></trkpt><trkpt lat="42.2805096" lon="13.7750656"><ele>347.0</ele><time>2026-05-02T10:17:26.647Z</time></trkpt><trkpt lat="42.2806104" lon="13.7749985"><ele>347.0</ele><time>2026-05-02T10:17:28.647Z</time></trkpt><trkpt lat="42.2807069" lon="13.7749322"><ele>347.0</ele><time>2026-05-02T10:17:30.648Z</time></trkpt><trkpt lat="42.2807893" lon="13.7748778"><ele>347.0</ele><time>2026-05-02T10:17:32.647Z</time></trkpt><trkpt lat="42.2808578" lon="13.7748348"><ele>347.0</ele><time>2026-05-02T10:17:34.648Z</time></trkpt><trkpt lat="42.2809304" lon="13.7747805"><ele>347.0</ele><time>2026-05-02T10:17:36.647Z</time></trkpt><trkpt lat="42.2810152" lon="13.7747254"><ele>347.0</ele><time>2026-05-02T10:17:38.648Z</time></trkpt><trkpt lat="42.2810937" lon="13.7746769"><ele>347.0</ele><time>2026-05-02T10:17:40.647Z</time></trkpt><trkpt lat="42.2811734" lon="13.7746241"><ele>347.0</ele><time>2026-05-02T10:17:42.648Z</time></trkpt><trkpt lat="42.2812655" lon="13.7745621"><ele>347.0</ele><time>2026-05-02T10:17:44.647Z</time></trkpt><trkpt lat="42.2813666" lon="13.7745081"><ele>347.33333333333337</ele><time>2026-05-02T10:17:46.647Z</time></trkpt><trkpt lat="42.2814622" lon="13.7744552"><ele>347.6666666666667</ele><time>2026-05-02T10:17:48.648Z</time></trkpt><trkpt lat="42.2815315" lon="13.7743971"><ele>348.0</ele><time>2026-05-02T10:17:50.647Z</time></trkpt><trkpt lat="42.2815507" lon="13.7742894"><ele>348.3333333333333</ele><time>2026-05-02T10:17:53.647Z</time></trkpt><trkpt lat="42.2814982" lon="13.7742135"><ele>348.66666666666663</ele><time>2026-05-02T10:17:55.647Z</time></trkpt><trkpt lat="42.2814496" lon="13.7741586"><ele>349.0</ele><time>2026-05-02T10:17:56.647Z</time></trkpt><trkpt lat="42.2813927" lon="13.7740869"><ele>349.5</ele><time>2026-05-02T10:17:57.647Z</time></trkpt><trkpt lat="42.2813269" lon="13.774"><ele>350.0</ele><time>2026-05-02T10:17:58.648Z</time></trkpt><trkpt lat="42.2812338" lon="13.7738781"><ele>350.5</ele><time>2026-05-02T10:17:59.648Z</time></trkpt><trkpt lat="42.2811187" lon="13.7737348"><ele>351.0</ele><time>2026-05-02T10:18:00.647Z</time></trkpt><trkpt lat="42.2810078" lon="13.7735934"><ele>353.3333333333333</ele><time>2026-05-02T10:18:01.648Z</time></trkpt><trkpt lat="42.2809001" lon="13.7734345"><ele>355.66666666666663</ele><time>2026-05-02T10:18:02.647Z</time></trkpt><trkpt lat="42.2807892" lon="13.7732346"><ele>358.0</ele><time>2026-05-02T10:18:03.648Z</time></trkpt><trkpt lat="42.2806753" lon="13.7730026"><ele>357.0</ele><time>2026-05-02T10:18:04.648Z</time></trkpt><trkpt lat="42.2805668" lon="13.7727767"><ele>356.0</ele><time>2026-05-02T10:18:05.648Z</time></trkpt><trkpt lat="42.2804669" lon="13.7725836"><ele>355.0</ele><time>2026-05-02T10:18:06.648Z</time></trkpt><trkpt lat="42.2803717" lon="13.772413"><ele>355.0</ele><time>2026-05-02T10:18:07.647Z</time></trkpt><trkpt lat="42.2802814" lon="13.77227"><ele>355.0</ele><time>2026-05-02T10:18:08.647Z</time></trkpt><trkpt lat="42.2801868" lon="13.7721664"><ele>355.0</ele><time>2026-05-02T10:18:09.647Z</time></trkpt><trkpt lat="42.2800667" lon="13.7720813"><ele>355.0</ele><time>2026-05-02T10:18:10.648Z</time></trkpt><trkpt lat="42.2799429" lon="13.7719977"><ele>355.0</ele><time>2026-05-02T10:18:11.648Z</time></trkpt><trkpt lat="42.2798398" lon="13.771903"><ele>355.0</ele><time>2026-05-02T10:18:12.648Z</time></trkpt><trkpt lat="42.2797469" lon="13.7717814"><ele>355.0</ele><time>2026-05-02T10:18:13.647Z</time></trkpt><trkpt lat="42.2796579" lon="13.7716327"><ele>355.0</ele><time>2026-05-02T10:18:14.648Z</time></trkpt><trkpt lat="42.2795845" lon="13.7714618"><ele>355.5</ele><time>2026-05-02T10:18:15.647Z</time></trkpt><trkpt lat="42.2795297" lon="13.7712933"><ele>356.0</ele><time>2026-05-02T10:18:16.647Z</time></trkpt><trkpt lat="42.2794823" lon="13.7711447"><ele>356.5</ele><time>2026-05-02T10:18:17.647Z</time></trkpt><trkpt lat="42.2794364" lon="13.7710134"><ele>357.0</ele><time>2026-05-02T10:18:18.647Z</time></trkpt><trkpt lat="42.2793957" lon="13.7708986"><ele>357.3333333333333</ele><time>2026-05-02T10:18:19.648Z</time></trkpt><trkpt lat="42.2793594" lon="13.7707936"><ele>357.6666666666667</ele><time>2026-05-02T10:18:20.647Z</time></trkpt><trkpt lat="42.2793244" lon="13.7706931"><ele>358.0</ele><time>2026-05-02T10:18:21.647Z</time></trkpt><trkpt lat="42.2792876" lon="13.7705911"><ele>358.33333333333337</ele><time>2026-05-02T10:18:22.648Z</time></trkpt><trkpt lat="42.2792514" lon="13.770488"><ele>358.6666666666667</ele><time>2026-05-02T10:18:23.647Z</time></trkpt><trkpt lat="42.2792173" lon="13.7703806"><ele>359.0</ele><time>2026-05-02T10:18:24.647Z</time></trkpt><trkpt lat="42.2791814" lon="13.7702668"><ele>359.4</ele><time>2026-05-02T10:18:25.647Z</time></trkpt><trkpt lat="42.2791404" lon="13.7701492"><ele>359.79999999999995</ele><time>2026-05-02T10:18:26.648Z</time></trkpt><trkpt lat="42.2790952" lon="13.770027"><ele>360.20000000000005</ele><time>2026-05-02T10:18:27.647Z</time></trkpt><trkpt lat="42.2790485" lon="13.7698961"><ele>360.6</ele><time>2026-05-02T10:18:28.648Z</time></trkpt><trkpt lat="42.2789982" lon="13.7697595"><ele>361.0</ele><time>2026-05-02T10:18:29.647Z</time></trkpt><trkpt lat="42.278951" lon="13.7696259"><ele>360.8333333333333</ele><time>2026-05-02T10:18:30.648Z</time></trkpt><trkpt lat="42.2789126" lon="13.7695075"><ele>360.66666666666663</ele><time>2026-05-02T10:18:31.647Z</time></trkpt><trkpt lat="42.2788984" lon="13.7694169"><ele>360.5</ele><time>2026-05-02T10:18:32.647Z</time></trkpt><trkpt lat="42.2789283" lon="13.7692804"><ele>360.3333333333333</ele><time>2026-05-02T10:18:34.648Z</time></trkpt><trkpt lat="42.2789763" lon="13.7692122"><ele>360.1666666666667</ele><time>2026-05-02T10:18:35.647Z</time></trkpt><trkpt lat="42.2790502" lon="13.7691448"><ele>360.0</ele><time>2026-05-02T10:18:36.647Z</time></trkpt><trkpt lat="42.279152" lon="13.7690712"><ele>361.0</ele><time>2026-05-02T10:18:37.647Z</time></trkpt><trkpt lat="42.2792723" lon="13.7689818"><ele>362.0</ele><time>2026-05-02T10:18:38.647Z</time></trkpt><trkpt lat="42.2794058" lon="13.7688801"><ele>363.0</ele><time>2026-05-02T10:18:39.647Z</time></trkpt><trkpt lat="42.2795482" lon="13.7687735"><ele>363.0</ele><time>2026-05-02T10:18:40.648Z</time></trkpt><trkpt lat="42.2796962" lon="13.7686645"><ele>363.0</ele><time>2026-05-02T10:18:41.647Z</time></trkpt><trkpt lat="42.2798338" lon="13.768561"><ele>363.0</ele><time>2026-05-02T10:18:42.647Z</time></trkpt><trkpt lat="42.279964" lon="13.7684477"><ele>364.3333333333333</ele><time>2026-05-02T10:18:43.648Z</time></trkpt><trkpt lat="42.280095" lon="13.7683075"><ele>365.66666666666663</ele><time>2026-05-02T10:18:44.647Z</time></trkpt><trkpt lat="42.2802237" lon="13.7681417"><ele>367.0</ele><time>2026-05-02T10:18:45.648Z</time></trkpt><trkpt lat="42.2803571" lon="13.7679663"><ele>367.0</ele><time>2026-05-02T10:18:46.647Z</time></trkpt><trkpt lat="42.2804949" lon="13.7677967"><ele>367.0</ele><time>2026-05-02T10:18:47.647Z</time></trkpt><trkpt lat="42.2806432" lon="13.7676309"><ele>367.0</ele><time>2026-05-02T10:18:48.648Z</time></trkpt><trkpt lat="42.2808008" lon="13.7674694"><ele>368.3333333333333</ele><time>2026-05-02T10:18:49.648Z</time></trkpt><trkpt lat="42.2809621" lon="13.7673193"><ele>369.6666666666667</ele><time>2026-05-02T10:18:50.648Z</time></trkpt><trkpt lat="42.2811277" lon="13.7671745"><ele>371.0</ele><time>2026-05-02T10:18:51.647Z</time></trkpt><trkpt lat="42.2812903" lon="13.7670307"><ele>372.33333333333337</ele><time>2026-05-02T10:18:52.647Z</time></trkpt><trkpt lat="42.2814439" lon="13.7668883"><ele>373.6666666666667</ele><time>2026-05-02T10:18:53.647Z</time></trkpt><trkpt lat="42.281584" lon="13.7667478"><ele>375.0</ele><time>2026-05-02T10:18:54.647Z</time></trkpt><trkpt lat="42.2817121" lon="13.7666062"><ele>375.3333333333333</ele><time>2026-05-02T10:18:55.647Z</time></trkpt><trkpt lat="42.281836" lon="13.7664468"><ele>375.66666666666663</ele><time>2026-05-02T10:18:56.647Z</time></trkpt><trkpt lat="42.281965" lon="13.766264"><ele>376.0</ele><time>2026-05-02T10:18:57.647Z</time></trkpt><trkpt lat="42.2821006" lon="13.766065"><ele>377.3333333333333</ele><time>2026-05-02T10:18:58.647Z</time></trkpt><trkpt lat="42.2822386" lon="13.7658583"><ele>378.6666666666667</ele><time>2026-05-02T10:18:59.648Z</time></trkpt><trkpt lat="42.2823748" lon="13.7656529"><ele>380.0</ele><time>2026-05-02T10:19:00.648Z</time></trkpt><trkpt lat="42.2825095" lon="13.7654529"><ele>380.0</ele><time>2026-05-02T10:19:01.647Z</time></trkpt><trkpt lat="42.2826326" lon="13.7652641"><ele>380.0</ele><time>2026-05-02T10:19:02.648Z</time></trkpt><trkpt lat="42.2827475" lon="13.765086"><ele>380.0</ele><time>2026-05-02T10:19:03.648Z</time></trkpt><trkpt lat="42.282855" lon="13.7649238"><ele>381.0</ele><time>2026-05-02T10:19:04.648Z</time></trkpt><trkpt lat="42.282956" lon="13.764774"><ele>382.0</ele><time>2026-05-02T10:19:05.647Z</time></trkpt><trkpt lat="42.2830492" lon="13.7646366"><ele>383.0</ele><time>2026-05-02T10:19:06.647Z</time></trkpt><trkpt lat="42.2831371" lon="13.7645047"><ele>384.0</ele><time>2026-05-02T10:19:07.647Z</time></trkpt><trkpt lat="42.2832221" lon="13.7643748"><ele>384.6</ele><time>2026-05-02T10:19:08.648Z</time></trkpt><trkpt lat="42.2832971" lon="13.7642589"><ele>385.2</ele><time>2026-05-02T10:19:09.648Z</time></trkpt><trkpt lat="42.2833648" lon="13.7641529"><ele>385.8</ele><time>2026-05-02T10:19:10.647Z</time></trkpt><trkpt lat="42.2834196" lon="13.7640625"><ele>386.40000000000003</ele><time>2026-05-02T10:19:11.648Z</time></trkpt><trkpt lat="42.2834899" lon="13.7639497"><ele>387.0</ele><time>2026-05-02T10:19:13.648Z</time></trkpt><trkpt lat="42.283533" lon="13.7638725"><ele>387.0</ele><time>2026-05-02T10:19:15.648Z</time></trkpt><trkpt lat="42.283545" lon="13.7637749"><ele>387.0</ele><time>2026-05-02T10:19:19.648Z</time></trkpt><trkpt lat="42.2834857" lon="13.763731"><ele>387.0</ele><time>2026-05-02T10:19:22.647Z</time></trkpt><trkpt lat="42.2833599" lon="13.7637171"><ele>387.0</ele><time>2026-05-02T10:19:24.647Z</time></trkpt><trkpt lat="42.2832716" lon="13.7637106"><ele>387.0</ele><time>2026-05-02T10:19:25.648Z</time></trkpt><trkpt lat="42.2831706" lon="13.7636969"><ele>387.8</ele><time>2026-05-02T10:19:26.647Z</time></trkpt><trkpt lat="42.2830813" lon="13.7636907"><ele>388.6</ele><time>2026-05-02T10:19:27.647Z</time></trkpt><trkpt lat="42.2830019" lon="13.7636892"><ele>389.40000000000003</ele><time>2026-05-02T10:19:28.647Z</time></trkpt><trkpt lat="42.2828927" lon="13.7637009"><ele>390.20000000000005</ele><time>2026-05-02T10:19:30.647Z</time></trkpt><trkpt lat="42.2828101" lon="13.7637424"><ele>391.0</ele><time>2026-05-02T10:19:32.647Z</time></trkpt><trkpt lat="42.2827319" lon="13.7638131"><ele>391.0</ele><time>2026-05-02T10:19:34.648Z</time></trkpt><trkpt lat="42.2826535" lon="13.7638964"><ele>391.0</ele><time>2026-05-02T10:19:36.647Z</time></trkpt><trkpt lat="42.2825487" lon="13.7639839"><ele>391.0</ele><time>2026-05-02T10:19:38.647Z</time></trkpt><trkpt lat="42.282497" lon="13.7640381"><ele>391.0</ele><time>2026-05-02T10:19:39.647Z</time></trkpt><trkpt lat="42.2824068" lon="13.7641262"><ele>391.0</ele><time>2026-05-02T10:19:41.647Z</time></trkpt><trkpt lat="42.2823716" lon="13.7641976"><ele>391.00000000000006</ele><time>2026-05-02T10:19:44.648Z</time></trkpt><trkpt lat="42.2824486" lon="13.7641461"><ele>391.0</ele><time>2026-05-02T10:19:47.647Z</time></trkpt><trkpt lat="42.282505" lon="13.7640825"><ele>391.0</ele><time>2026-05-02T10:19:48.647Z</time></trkpt><trkpt lat="42.2825599" lon="13.7640226"><ele>391.0</ele><time>2026-05-02T10:19:49.647Z</time></trkpt><trkpt lat="42.2826513" lon="13.7639269"><ele>391.00000000000006</ele><time>2026-05-02T10:19:51.647Z</time></trkpt><trkpt lat="42.2827154" lon="13.7638599"><ele>391.0</ele><time>2026-05-02T10:19:53.648Z</time></trkpt><trkpt lat="42.2827639" lon="13.7638024"><ele>391.00000000000006</ele><time>2026-05-02T10:20:01.648Z</time></trkpt><trkpt lat="42.2827202" lon="13.7637338"><ele>391.0</ele><time>2026-05-02T10:20:17.647Z</time></trkpt><trkpt lat="42.2826567" lon="13.7636961"><ele>391.0</ele><time>2026-05-02T10:20:22.648Z</time></trkpt><trkpt lat="42.282576" lon="13.7636575"><ele>391.0</ele><time>2026-05-02T10:20:24.648Z</time></trkpt><trkpt lat="42.2824878" lon="13.7636111"><ele>391.00000000000006</ele><time>2026-05-02T10:20:26.647Z</time></trkpt><trkpt lat="42.2824045" lon="13.7635713"><ele>391.0</ele><time>2026-05-02T10:20:28.647Z</time></trkpt><trkpt lat="42.282332" lon="13.7635297"><ele>393.33333333333337</ele><time>2026-05-02T10:20:30.648Z</time></trkpt><trkpt lat="42.2822419" lon="13.7635278"><ele>395.6666666666667</ele><time>2026-05-02T10:20:33.647Z</time></trkpt><trkpt lat="42.2821417" lon="13.7635434"><ele>398.0</ele><time>2026-05-02T10:20:37.648Z</time></trkpt><trkpt lat="42.2820614" lon="13.7635562"><ele>400.33333333333337</ele><time>2026-05-02T10:20:40.648Z</time></trkpt><trkpt lat="42.2819885" lon="13.7635618"><ele>402.6666666666667</ele><time>2026-05-02T10:20:44.647Z</time></trkpt><trkpt lat="42.2820137" lon="13.7636416"><ele>405.0</ele><time>2026-05-02T10:25:23.647Z</time></trkpt><trkpt lat="42.2819446" lon="13.7636681"><ele>405.0</ele><time>2026-05-02T10:25:28.648Z</time></trkpt><trkpt lat="42.2818428" lon="13.7636709"><ele>405.0</ele><time>2026-05-02T10:25:31.648Z</time></trkpt><trkpt lat="42.2817514" lon="13.7636649"><ele>405.0</ele><time>2026-05-02T10:25:33.648Z</time></trkpt><trkpt lat="42.2817414" lon="13.7637902"><ele>405.0</ele><time>2026-05-02T10:25:35.589Z</time></trkpt><trkpt lat="42.2816512" lon="13.7637939"><ele>405.0</ele><time>2026-05-02T10:25:37.647Z</time></trkpt><trkpt lat="42.281587" lon="13.7637447"><ele>405.0</ele><time>2026-05-02T10:25:38.647Z</time></trkpt><trkpt lat="42.2814815" lon="13.7637094"><ele>405.0</ele><time>2026-05-02T10:25:40.648Z</time></trkpt><trkpt lat="42.281384" lon="13.7636969"><ele>405.0</ele><time>2026-05-02T10:25:42.648Z</time></trkpt><trkpt lat="42.2812931" lon="13.7637099"><ele>405.0</ele><time>2026-05-02T10:25:44.647Z</time></trkpt><trkpt lat="42.2811948" lon="13.7637208"><ele>405.0</ele><time>2026-05-02T10:25:46.644Z</time></trkpt><trkpt lat="42.2811117" lon="13.7636843"><ele>408.8</ele><time>2026-05-02T10:25:48.646Z</time></trkpt><trkpt lat="42.2810307" lon="13.7636543"><ele>412.6</ele><time>2026-05-02T10:25:50.648Z</time></trkpt><trkpt lat="42.280924" lon="13.7636175"><ele>416.4</ele><time>2026-05-02T10:25:52.642Z</time></trkpt><trkpt lat="42.2808224" lon="13.7635939"><ele>420.2</ele><time>2026-05-02T10:25:54.644Z</time></trkpt><trkpt lat="42.2807302" lon="13.763572"><ele>424.0</ele><time>2026-05-02T10:25:56.648Z</time></trkpt><trkpt lat="42.2806322" lon="13.7635309"><ele>427.33333333333337</ele><time>2026-05-02T10:25:58.647Z</time></trkpt><trkpt lat="42.2805399" lon="13.7635028"><ele>430.6666666666667</ele><time>2026-05-02T10:26:00.648Z</time></trkpt><trkpt lat="42.280454" lon="13.7634426"><ele>434.0</ele><time>2026-05-02T10:26:03.647Z</time></trkpt><trkpt lat="42.2803641" lon="13.7634125"><ele>437.33333333333337</ele><time>2026-05-02T10:26:05.644Z</time></trkpt><trkpt lat="42.2802906" lon="13.7633588"><ele>440.6666666666667</ele><time>2026-05-02T10:26:08.648Z</time></trkpt><trkpt lat="42.2802177" lon="13.7633175"><ele>444.0</ele><time>2026-05-02T10:26:10.648Z</time></trkpt><trkpt lat="42.2801358" lon="13.7632329"><ele>444.0</ele><time>2026-05-02T10:26:12.648Z</time></trkpt><trkpt lat="42.2800439" lon="13.7631299"><ele>444.0</ele><time>2026-05-02T10:26:14.647Z</time></trkpt><trkpt lat="42.2799934" lon="13.7630775"><ele>444.0</ele><time>2026-05-02T10:26:15.646Z</time></trkpt><trkpt lat="42.279942" lon="13.7630275"><ele>444.0</ele><time>2026-05-02T10:26:16.648Z</time></trkpt><trkpt lat="42.2798542" lon="13.7629163"><ele>444.0</ele><time>2026-05-02T10:26:18.644Z</time></trkpt><trkpt lat="42.2797597" lon="13.7628082"><ele>445.79999999999995</ele><time>2026-05-02T10:26:20.647Z</time></trkpt><trkpt lat="42.2796681" lon="13.7627147"><ele>447.59999999999997</ele><time>2026-05-02T10:26:22.648Z</time></trkpt><trkpt lat="42.2795703" lon="13.7626316"><ele>449.4</ele><time>2026-05-02T10:26:24.648Z</time></trkpt><trkpt lat="42.2794959" lon="13.7625829"><ele>451.2</ele><time>2026-05-02T10:26:26.647Z</time></trkpt><trkpt lat="42.2794278" lon="13.7625533"><ele>453.0</ele><time>2026-05-02T10:26:28.647Z</time></trkpt><trkpt lat="42.2793562" lon="13.7625397"><ele>454.4</ele><time>2026-05-02T10:27:07.647Z</time></trkpt><trkpt lat="42.2792639" lon="13.762507"><ele>455.79999999999995</ele><time>2026-05-02T10:27:11.647Z</time></trkpt><trkpt lat="42.2791896" lon="13.76246"><ele>457.2</ele><time>2026-05-02T10:27:13.648Z</time></trkpt><trkpt lat="42.2790942" lon="13.7624134"><ele>458.6</ele><time>2026-05-02T10:27:15.648Z</time></trkpt><trkpt lat="42.2789993" lon="13.7623627"><ele>460.0</ele><time>2026-05-02T10:27:17.648Z</time></trkpt><trkpt lat="42.2789012" lon="13.7623173"><ele>461.50000000000006</ele><time>2026-05-02T10:27:19.647Z</time></trkpt><trkpt lat="42.2787958" lon="13.7622734"><ele>463.0</ele><time>2026-05-02T10:27:21.645Z</time></trkpt><trkpt lat="42.2786827" lon="13.7622305"><ele>464.5</ele><time>2026-05-02T10:27:23.648Z</time></trkpt><trkpt lat="42.2786125" lon="13.7622038"><ele>466.0</ele><time>2026-05-02T10:27:24.647Z</time></trkpt><trkpt lat="42.2785417" lon="13.7621783"><ele>467.50000000000006</ele><time>2026-05-02T10:27:25.648Z</time></trkpt><trkpt lat="42.2784792" lon="13.7621502"><ele>469.0</ele><time>2026-05-02T10:27:26.648Z</time></trkpt><trkpt lat="42.2784191" lon="13.7621015"><ele>469.00000000000006</ele><time>2026-05-02T10:27:27.647Z</time></trkpt><trkpt lat="42.2783667" lon="13.7620363"><ele>469.0</ele><time>2026-05-02T10:27:28.645Z</time></trkpt><trkpt lat="42.2783177" lon="13.7619603"><ele>469.0</ele><time>2026-05-02T10:27:29.645Z</time></trkpt><trkpt lat="42.2782676" lon="13.7618966"><ele>469.0</ele><time>2026-05-02T10:27:30.646Z</time></trkpt><trkpt lat="42.2781854" lon="13.7618249"><ele>469.00000000000006</ele><time>2026-05-02T10:27:32.647Z</time></trkpt><trkpt lat="42.2781176" lon="13.7617882"><ele>469.0</ele><time>2026-05-02T10:27:34.648Z</time></trkpt><trkpt lat="42.2780195" lon="13.7617507"><ele>470.33333333333337</ele><time>2026-05-02T10:27:36.648Z</time></trkpt><trkpt lat="42.2779353" lon="13.7617293"><ele>471.6666666666667</ele><time>2026-05-02T10:27:37.647Z</time></trkpt><trkpt lat="42.2778541" lon="13.7617071"><ele>473.0</ele><time>2026-05-02T10:27:38.647Z</time></trkpt><trkpt lat="42.2777802" lon="13.7616907"><ele>474.33333333333337</ele><time>2026-05-02T10:27:39.648Z</time></trkpt><trkpt lat="42.277706" lon="13.7616838"><ele>475.6666666666667</ele><time>2026-05-02T10:27:40.648Z</time></trkpt><trkpt lat="42.277631" lon="13.7617"><ele>477.0</ele><time>2026-05-02T10:27:41.647Z</time></trkpt><trkpt lat="42.2775593" lon="13.7617284"><ele>477.0</ele><time>2026-05-02T10:27:42.648Z</time></trkpt><trkpt lat="42.2774842" lon="13.7617576"><ele>477.0</ele><time>2026-05-02T10:27:43.645Z</time></trkpt><trkpt lat="42.2774081" lon="13.7617768"><ele>477.0</ele><time>2026-05-02T10:27:44.648Z</time></trkpt><trkpt lat="42.2773272" lon="13.7617836"><ele>477.0</ele><time>2026-05-02T10:27:45.646Z</time></trkpt><trkpt lat="42.27725" lon="13.7617761"><ele>477.0</ele><time>2026-05-02T10:27:46.647Z</time></trkpt><trkpt lat="42.2771765" lon="13.7617689"><ele>477.0</ele><time>2026-05-02T10:27:47.645Z</time></trkpt><trkpt lat="42.2771031" lon="13.7617644"><ele>478.5</ele><time>2026-05-02T10:27:48.646Z</time></trkpt><trkpt lat="42.2770331" lon="13.7617531"><ele>480.0</ele><time>2026-05-02T10:27:49.647Z</time></trkpt><trkpt lat="42.2769657" lon="13.7617483"><ele>481.5</ele><time>2026-05-02T10:27:50.647Z</time></trkpt><trkpt lat="42.276846" lon="13.7617474"><ele>483.0</ele><time>2026-05-02T10:27:52.648Z</time></trkpt><trkpt lat="42.276726" lon="13.7617563"><ele>484.5</ele><time>2026-05-02T10:27:54.647Z</time></trkpt><trkpt lat="42.2766604" lon="13.7617469"><ele>486.0</ele><time>2026-05-02T10:27:55.648Z</time></trkpt><trkpt lat="42.2765456" lon="13.7617043"><ele>486.0</ele><time>2026-05-02T10:27:57.647Z</time></trkpt><trkpt lat="42.2764844" lon="13.761667"><ele>486.0</ele><time>2026-05-02T10:27:58.646Z</time></trkpt><trkpt lat="42.2764179" lon="13.7616236"><ele>486.0</ele><time>2026-05-02T10:27:59.647Z</time></trkpt><trkpt lat="42.276348" lon="13.7615846"><ele>486.0</ele><time>2026-05-02T10:28:00.648Z</time></trkpt><trkpt lat="42.2762722" lon="13.7615474"><ele>486.0</ele><time>2026-05-02T10:28:01.648Z</time></trkpt><trkpt lat="42.276193" lon="13.7615045"><ele>486.0</ele><time>2026-05-02T10:28:02.645Z</time></trkpt><trkpt lat="42.276114" lon="13.7614582"><ele>488.1666666666667</ele><time>2026-05-02T10:28:03.647Z</time></trkpt><trkpt lat="42.2760369" lon="13.76141"><ele>490.33333333333337</ele><time>2026-05-02T10:28:04.647Z</time></trkpt><trkpt lat="42.2759629" lon="13.7613534"><ele>492.5</ele><time>2026-05-02T10:28:05.647Z</time></trkpt><trkpt lat="42.2758912" lon="13.7612902"><ele>494.6666666666667</ele><time>2026-05-02T10:28:06.647Z</time></trkpt><trkpt lat="42.2758194" lon="13.7612255"><ele>496.83333333333337</ele><time>2026-05-02T10:28:07.647Z</time></trkpt><trkpt lat="42.2757461" lon="13.7611641"><ele>499.0</ele><time>2026-05-02T10:28:08.647Z</time></trkpt><trkpt lat="42.2756693" lon="13.7611081"><ele>499.79999999999995</ele><time>2026-05-02T10:28:09.648Z</time></trkpt><trkpt lat="42.2755894" lon="13.7610583"><ele>500.59999999999997</ele><time>2026-05-02T10:28:10.648Z</time></trkpt><trkpt lat="42.2755075" lon="13.7610036"><ele>501.4</ele><time>2026-05-02T10:28:11.647Z</time></trkpt><trkpt lat="42.2754235" lon="13.7609424"><ele>502.2</ele><time>2026-05-02T10:28:12.647Z</time></trkpt><trkpt lat="42.2753357" lon="13.7608839"><ele>503.0</ele><time>2026-05-02T10:28:13.647Z</time></trkpt><trkpt lat="42.2752437" lon="13.760826"><ele>503.0</ele><time>2026-05-02T10:28:14.648Z</time></trkpt><trkpt lat="42.2751501" lon="13.7607672"><ele>502.99999999999994</ele><time>2026-05-02T10:28:15.645Z</time></trkpt><trkpt lat="42.275057" lon="13.7607104"><ele>502.99999999999994</ele><time>2026-05-02T10:28:16.647Z</time></trkpt><trkpt lat="42.2749674" lon="13.7606554"><ele>503.0</ele><time>2026-05-02T10:28:17.646Z</time></trkpt><trkpt lat="42.2748828" lon="13.7606053"><ele>503.0</ele><time>2026-05-02T10:28:18.647Z</time></trkpt><trkpt lat="42.2748091" lon="13.7605635"><ele>503.0</ele><time>2026-05-02T10:28:19.648Z</time></trkpt><trkpt lat="42.2747238" lon="13.7604941"><ele>502.99999999999994</ele><time>2026-05-02T10:28:21.646Z</time></trkpt><trkpt lat="42.2747315" lon="13.7604021"><ele>502.99999999999994</ele><time>2026-05-02T10:28:24.647Z</time></trkpt><trkpt lat="42.2747789" lon="13.7603448"><ele>503.0</ele><time>2026-05-02T10:28:28.643Z</time></trkpt><trkpt lat="42.2748515" lon="13.7602333"><ele>503.0</ele><time>2026-05-02T10:28:31.647Z</time></trkpt><trkpt lat="42.2749435" lon="13.7601449"><ele>503.0</ele><time>2026-05-02T10:28:33.648Z</time></trkpt><trkpt lat="42.2750137" lon="13.7600388"><ele>502.99999999999994</ele><time>2026-05-02T10:28:35.647Z</time></trkpt><trkpt lat="42.2750948" lon="13.7599363"><ele>502.99999999999994</ele><time>2026-05-02T10:28:37.647Z</time></trkpt><trkpt lat="42.2751766" lon="13.7598176"><ele>503.0</ele><time>2026-05-02T10:28:39.645Z</time></trkpt><trkpt lat="42.275217" lon="13.7597512"><ele>503.0</ele><time>2026-05-02T10:28:40.647Z</time></trkpt><trkpt lat="42.2752608" lon="13.7596832"><ele>503.0</ele><time>2026-05-02T10:28:41.647Z</time></trkpt><trkpt lat="42.2753047" lon="13.7596119"><ele>503.00000000000006</ele><time>2026-05-02T10:28:42.648Z</time></trkpt><trkpt lat="42.2753475" lon="13.7595359"><ele>503.0</ele><time>2026-05-02T10:28:43.645Z</time></trkpt><trkpt lat="42.2753911" lon="13.7594562"><ele>503.0</ele><time>2026-05-02T10:28:44.646Z</time></trkpt><trkpt lat="42.2754384" lon="13.7593764"><ele>503.00000000000006</ele><time>2026-05-02T10:28:45.647Z</time></trkpt><trkpt lat="42.2754886" lon="13.7593016"><ele>503.0</ele><time>2026-05-02T10:28:46.647Z</time></trkpt><trkpt lat="42.2755414" lon="13.759224"><ele>503.0</ele><time>2026-05-02T10:28:47.645Z</time></trkpt><trkpt lat="42.2755929" lon="13.7591431"><ele>500.99999999999994</ele><time>2026-05-02T10:28:48.647Z</time></trkpt><trkpt lat="42.2756447" lon="13.7590628"><ele>499.0</ele><time>2026-05-02T10:28:49.647Z</time></trkpt><trkpt lat="42.2756985" lon="13.7589841"><ele>497.0</ele><time>2026-05-02T10:28:50.646Z</time></trkpt><trkpt lat="42.2757565" lon="13.7589092"><ele>495.0</ele><time>2026-05-02T10:28:51.647Z</time></trkpt><trkpt lat="42.2758162" lon="13.7588384"><ele>492.99999999999994</ele><time>2026-05-02T10:28:52.648Z</time></trkpt><trkpt lat="42.275874" lon="13.7587781"><ele>491.0</ele><time>2026-05-02T10:28:53.647Z</time></trkpt><trkpt lat="42.2759404" lon="13.7587027"><ele>490.99999999999994</ele><time>2026-05-02T10:28:55.647Z</time></trkpt><trkpt lat="42.2758834" lon="13.7586386"><ele>491.0</ele><time>2026-05-02T10:30:45.647Z</time></trkpt><trkpt lat="42.2758068" lon="13.7586311"><ele>491.0</ele><time>2026-05-02T10:30:48.647Z</time></trkpt><trkpt lat="42.2757241" lon="13.7586469"><ele>491.0</ele><time>2026-05-02T10:31:02.647Z</time></trkpt><trkpt lat="42.2756267" lon="13.7586655"><ele>490.99999999999994</ele><time>2026-05-02T10:31:04.647Z</time></trkpt><trkpt lat="42.2755514" lon="13.7586578"><ele>491.0</ele><time>2026-05-02T10:31:06.645Z</time></trkpt><trkpt lat="42.2757072" lon="13.7586232"><ele>494.75</ele><time>2026-05-02T10:31:07.661Z</time></trkpt><trkpt lat="42.2755377" lon="13.7586502"><ele>498.5</ele><time>2026-05-02T10:31:08.646Z</time></trkpt><trkpt lat="42.2755014" lon="13.7587239"><ele>502.25</ele><time>2026-05-02T10:31:50.647Z</time></trkpt><trkpt lat="42.2753967" lon="13.7587729"><ele>506.0</ele><time>2026-05-02T10:31:53.643Z</time></trkpt><trkpt lat="42.2752944" lon="13.7587424"><ele>506.0</ele><time>2026-05-02T10:31:54.648Z</time></trkpt><trkpt lat="42.2751895" lon="13.7587542"><ele>506.0</ele><time>2026-05-02T10:31:56.647Z</time></trkpt><trkpt lat="42.2750777" lon="13.7587772"><ele>506.0</ele><time>2026-05-02T10:31:58.644Z</time></trkpt><trkpt lat="42.2749713" lon="13.7588187"><ele>506.0</ele><time>2026-05-02T10:32:00.647Z</time></trkpt><trkpt lat="42.2748586" lon="13.7588343"><ele>506.0</ele><time>2026-05-02T10:32:02.647Z</time></trkpt><trkpt lat="42.274746" lon="13.7588519"><ele>507.8</ele><time>2026-05-02T10:32:04.643Z</time></trkpt><trkpt lat="42.2746267" lon="13.7588831"><ele>509.6</ele><time>2026-05-02T10:32:06.646Z</time></trkpt><trkpt lat="42.2745148" lon="13.7589213"><ele>511.4</ele><time>2026-05-02T10:32:08.646Z</time></trkpt><trkpt lat="42.2744029" lon="13.7589412"><ele>513.2</ele><time>2026-05-02T10:32:10.648Z</time></trkpt><trkpt lat="42.2743229" lon="13.7589487"><ele>515.0</ele><time>2026-05-02T10:32:12.648Z</time></trkpt><trkpt lat="42.2742358" lon="13.7589733"><ele>515.0</ele><time>2026-05-02T10:32:14.647Z</time></trkpt><trkpt lat="42.2741241" lon="13.7590328"><ele>515.0</ele><time>2026-05-02T10:32:16.647Z</time></trkpt><trkpt lat="42.2740258" lon="13.7590987"><ele>515.0</ele><time>2026-05-02T10:32:18.648Z</time></trkpt><trkpt lat="42.2739837" lon="13.7591691"><ele>515.0</ele><time>2026-05-02T10:32:20.647Z</time></trkpt><trkpt lat="42.2739695" lon="13.7592787"><ele>515.0</ele><time>2026-05-02T10:32:22.648Z</time></trkpt><trkpt lat="42.2739515" lon="13.7593662"><ele>515.0</ele><time>2026-05-02T10:32:24.647Z</time></trkpt><trkpt lat="42.2739206" lon="13.7594538"><ele>516.5</ele><time>2026-05-02T10:32:26.646Z</time></trkpt><trkpt lat="42.2738781" lon="13.7595541"><ele>518.0</ele><time>2026-05-02T10:32:28.646Z</time></trkpt><trkpt lat="42.2738325" lon="13.7596489"><ele>519.5</ele><time>2026-05-02T10:32:30.648Z</time></trkpt><trkpt lat="42.2737834" lon="13.7597061"><ele>521.0</ele><time>2026-05-02T10:32:32.643Z</time></trkpt><trkpt lat="42.2737078" lon="13.7597301"><ele>522.5</ele><time>2026-05-02T10:32:34.642Z</time></trkpt><trkpt lat="42.2736136" lon="13.7597286"><ele>524.0</ele><time>2026-05-02T10:32:36.643Z</time></trkpt><trkpt lat="42.2735114" lon="13.7597223"><ele>524.0</ele><time>2026-05-02T10:32:38.645Z</time></trkpt><trkpt lat="42.2733848" lon="13.7597097"><ele>524.0</ele><time>2026-05-02T10:32:40.643Z</time></trkpt><trkpt lat="42.2733144" lon="13.7597089"><ele>524.0</ele><time>2026-05-02T10:32:41.644Z</time></trkpt><trkpt lat="42.2732362" lon="13.7597218"><ele>524.0</ele><time>2026-05-02T10:32:42.647Z</time></trkpt><trkpt lat="42.2731511" lon="13.7597494"><ele>524.0</ele><time>2026-05-02T10:32:43.645Z</time></trkpt><trkpt lat="42.2730609" lon="13.7597783"><ele>524.5</ele><time>2026-05-02T10:32:44.648Z</time></trkpt><trkpt lat="42.2729743" lon="13.7597856"><ele>525.0</ele><time>2026-05-02T10:32:45.644Z</time></trkpt><trkpt lat="42.2728959" lon="13.7597712"><ele>525.5</ele><time>2026-05-02T10:32:46.647Z</time></trkpt><trkpt lat="42.272823" lon="13.759744"><ele>526.0</ele><time>2026-05-02T10:32:47.645Z</time></trkpt><trkpt lat="42.27274" lon="13.759709"><ele>526.5</ele><time>2026-05-02T10:32:48.644Z</time></trkpt><trkpt lat="42.2726405" lon="13.7596691"><ele>527.0</ele><time>2026-05-02T10:32:49.647Z</time></trkpt><trkpt lat="42.2725346" lon="13.759623"><ele>527.0</ele><time>2026-05-02T10:32:50.647Z</time></trkpt><trkpt lat="42.2724283" lon="13.7595713"><ele>527.0</ele><time>2026-05-02T10:32:51.647Z</time></trkpt><trkpt lat="42.2723286" lon="13.7595223"><ele>527.0</ele><time>2026-05-02T10:32:52.647Z</time></trkpt><trkpt lat="42.2722384" lon="13.7594807"><ele>527.0</ele><time>2026-05-02T10:32:53.646Z</time></trkpt><trkpt lat="42.2721555" lon="13.7594362"><ele>527.0</ele><time>2026-05-02T10:32:54.646Z</time></trkpt><trkpt lat="42.2720789" lon="13.7593797"><ele>528.0</ele><time>2026-05-02T10:32:55.648Z</time></trkpt><trkpt lat="42.2720149" lon="13.759312"><ele>529.0</ele><time>2026-05-02T10:32:56.647Z</time></trkpt><trkpt lat="42.2719703" lon="13.7592179"><ele>530.0</ele><time>2026-05-02T10:32:57.647Z</time></trkpt><trkpt lat="42.2719399" lon="13.7590974"><ele>531.0</ele><time>2026-05-02T10:32:58.647Z</time></trkpt><trkpt lat="42.2718996" lon="13.7589851"><ele>532.0</ele><time>2026-05-02T10:32:59.648Z</time></trkpt><trkpt lat="42.271834" lon="13.7589059"><ele>533.0</ele><time>2026-05-02T10:33:00.647Z</time></trkpt><trkpt lat="42.2717438" lon="13.7588427"><ele>533.0</ele><time>2026-05-02T10:33:01.647Z</time></trkpt><trkpt lat="42.2716344" lon="13.7587909"><ele>533.0</ele><time>2026-05-02T10:33:02.647Z</time></trkpt><trkpt lat="42.271513" lon="13.7587489"><ele>533.0</ele><time>2026-05-02T10:33:03.647Z</time></trkpt><trkpt lat="42.2713835" lon="13.7587211"><ele>533.0</ele><time>2026-05-02T10:33:04.647Z</time></trkpt><trkpt lat="42.2712456" lon="13.7587091"><ele>532.5</ele><time>2026-05-02T10:33:05.644Z</time></trkpt><trkpt lat="42.2711055" lon="13.7587011"><ele>532.0</ele><time>2026-05-02T10:33:06.647Z</time></trkpt><trkpt lat="42.270976" lon="13.758694"><ele>531.5</ele><time>2026-05-02T10:33:07.647Z</time></trkpt><trkpt lat="42.2708556" lon="13.758692"><ele>531.0</ele><time>2026-05-02T10:33:08.647Z</time></trkpt><trkpt lat="42.2707417" lon="13.7587013"><ele>531.0</ele><time>2026-05-02T10:33:09.648Z</time></trkpt><trkpt lat="42.2706352" lon="13.7587233"><ele>531.0</ele><time>2026-05-02T10:33:10.645Z</time></trkpt><trkpt lat="42.2705338" lon="13.7587478"><ele>531.0</ele><time>2026-05-02T10:33:11.648Z</time></trkpt><trkpt lat="42.2704366" lon="13.7587578"><ele>531.0</ele><time>2026-05-02T10:33:12.643Z</time></trkpt><trkpt lat="42.2703366" lon="13.758755"><ele>531.0</ele><time>2026-05-02T10:33:13.647Z</time></trkpt><trkpt lat="42.2702256" lon="13.7587591"><ele>531.2</ele><time>2026-05-02T10:33:14.645Z</time></trkpt><trkpt lat="42.270121" lon="13.7587757"><ele>531.4000000000001</ele><time>2026-05-02T10:33:15.648Z</time></trkpt><trkpt lat="42.2700269" lon="13.7587991"><ele>531.6</ele><time>2026-05-02T10:33:16.647Z</time></trkpt><trkpt lat="42.2699313" lon="13.7588325"><ele>531.8000000000001</ele><time>2026-05-02T10:33:17.648Z</time></trkpt><trkpt lat="42.2698179" lon="13.7588827"><ele>532.0</ele><time>2026-05-02T10:33:18.647Z</time></trkpt><trkpt lat="42.2696854" lon="13.7589515"><ele>532.25</ele><time>2026-05-02T10:33:19.647Z</time></trkpt><trkpt lat="42.2695396" lon="13.7590276"><ele>532.5</ele><time>2026-05-02T10:33:20.647Z</time></trkpt><trkpt lat="42.2693976" lon="13.7591001"><ele>532.75</ele><time>2026-05-02T10:33:21.647Z</time></trkpt><trkpt lat="42.2692674" lon="13.7591594"><ele>533.0</ele><time>2026-05-02T10:33:22.648Z</time></trkpt><trkpt lat="42.2691553" lon="13.7592134"><ele>533.0</ele><time>2026-05-02T10:33:23.646Z</time></trkpt><trkpt lat="42.2690787" lon="13.7592825"><ele>533.0</ele><time>2026-05-02T10:33:24.647Z</time></trkpt><trkpt lat="42.2690274" lon="13.7593692"><ele>533.0</ele><time>2026-05-02T10:33:25.647Z</time></trkpt><trkpt lat="42.2689934" lon="13.7594822"><ele>533.0</ele><time>2026-05-02T10:33:26.648Z</time></trkpt><trkpt lat="42.2689664" lon="13.7595908"><ele>533.0</ele><time>2026-05-02T10:33:27.646Z</time></trkpt><trkpt lat="42.2689233" lon="13.7597305"><ele>534.0</ele><time>2026-05-02T10:33:29.643Z</time></trkpt><trkpt lat="42.2688527" lon="13.7599058"><ele>535.0</ele><time>2026-05-02T10:33:31.643Z</time></trkpt><trkpt lat="42.2688169" lon="13.7600364"><ele>536.0</ele><time>2026-05-02T10:33:32.643Z</time></trkpt><trkpt lat="42.2687781" lon="13.7601864"><ele>537.0</ele><time>2026-05-02T10:33:33.647Z</time></trkpt><trkpt lat="42.2687337" lon="13.7603438"><ele>537.0</ele><time>2026-05-02T10:33:34.644Z</time></trkpt><trkpt lat="42.2686847" lon="13.7605092"><ele>537.0</ele><time>2026-05-02T10:33:35.645Z</time></trkpt><trkpt lat="42.2686407" lon="13.760664"><ele>537.0</ele><time>2026-05-02T10:33:36.644Z</time></trkpt><trkpt lat="42.2685983" lon="13.7608104"><ele>537.0</ele><time>2026-05-02T10:33:37.645Z</time></trkpt><trkpt lat="42.2685609" lon="13.7609427"><ele>537.0</ele><time>2026-05-02T10:33:38.644Z</time></trkpt><trkpt lat="42.2685311" lon="13.7610614"><ele>537.0</ele><time>2026-05-02T10:33:39.644Z</time></trkpt><trkpt lat="42.2684994" lon="13.7611583"><ele>537.0</ele><time>2026-05-02T10:33:40.646Z</time></trkpt><trkpt lat="42.2684572" lon="13.7612669"><ele>537.0</ele><time>2026-05-02T10:33:42.645Z</time></trkpt><trkpt lat="42.2685213" lon="13.7611859"><ele>537.0</ele><time>2026-05-02T10:33:47.645Z</time></trkpt><trkpt lat="42.268547" lon="13.7610819"><ele>537.0</ele><time>2026-05-02T10:33:48.644Z</time></trkpt><trkpt lat="42.268576" lon="13.760975"><ele>537.0</ele><time>2026-05-02T10:33:49.646Z</time></trkpt><trkpt lat="42.2686082" lon="13.7608577"><ele>537.0</ele><time>2026-05-02T10:33:50.645Z</time></trkpt><trkpt lat="42.2686411" lon="13.7607367"><ele>537.0</ele><time>2026-05-02T10:33:51.643Z</time></trkpt><trkpt lat="42.2686713" lon="13.7606277"><ele>537.0</ele><time>2026-05-02T10:33:52.644Z</time></trkpt><trkpt lat="42.2686994" lon="13.7605284"><ele>537.0</ele><time>2026-05-02T10:33:53.646Z</time></trkpt><trkpt lat="42.2687289" lon="13.7604145"><ele>537.0</ele><time>2026-05-02T10:33:54.643Z</time></trkpt><trkpt lat="42.2687582" lon="13.7602956"><ele>537.2</ele><time>2026-05-02T10:33:55.644Z</time></trkpt><trkpt lat="42.2687891" lon="13.7601697"><ele>537.4000000000001</ele><time>2026-05-02T10:33:56.643Z</time></trkpt><trkpt lat="42.2688232" lon="13.7600408"><ele>537.5999999999999</ele><time>2026-05-02T10:33:57.647Z</time></trkpt><trkpt lat="42.2688592" lon="13.7599198"><ele>537.8</ele><time>2026-05-02T10:33:58.645Z</time></trkpt><trkpt lat="42.2688934" lon="13.7598123"><ele>538.0</ele><time>2026-05-02T10:33:59.643Z</time></trkpt><trkpt lat="42.2689228" lon="13.759717"><ele>536.6</ele><time>2026-05-02T10:34:00.646Z</time></trkpt><trkpt lat="42.268968" lon="13.7595836"><ele>535.1999999999999</ele><time>2026-05-02T10:34:02.645Z</time></trkpt><trkpt lat="42.2689864" lon="13.7594446"><ele>533.8</ele><time>2026-05-02T10:34:04.643Z</time></trkpt><trkpt lat="42.2689353" lon="13.7593422"><ele>532.4</ele><time>2026-05-02T10:34:06.645Z</time></trkpt><trkpt lat="42.2688567" lon="13.7593338"><ele>531.0</ele><time>2026-05-02T10:34:09.645Z</time></trkpt><trkpt lat="42.2687793" lon="13.7593521"><ele>532.4</ele><time>2026-05-02T10:34:20.647Z</time></trkpt><trkpt lat="42.2687042" lon="13.7594215"><ele>533.8</ele><time>2026-05-02T10:34:24.644Z</time></trkpt><trkpt lat="42.2686322" lon="13.7595446"><ele>535.1999999999999</ele><time>2026-05-02T10:34:26.642Z</time></trkpt><trkpt lat="42.2685966" lon="13.759627"><ele>536.6</ele><time>2026-05-02T10:34:27.645Z</time></trkpt><trkpt lat="42.2685693" lon="13.7597054"><ele>538.0</ele><time>2026-05-02T10:34:28.646Z</time></trkpt><trkpt lat="42.2685075" lon="13.7598456"><ele>538.0</ele><time>2026-05-02T10:34:30.643Z</time></trkpt><trkpt lat="42.2684694" lon="13.759914"><ele>538.0</ele><time>2026-05-02T10:34:31.642Z</time></trkpt><trkpt lat="42.2684306" lon="13.7599814"><ele>538.0</ele><time>2026-05-02T10:34:32.644Z</time></trkpt><trkpt lat="42.2683878" lon="13.7600516"><ele>538.0</ele><time>2026-05-02T10:34:33.643Z</time></trkpt><trkpt lat="42.2683486" lon="13.760123"><ele>538.0</ele><time>2026-05-02T10:34:34.644Z</time></trkpt><trkpt lat="42.2683084" lon="13.7601925"><ele>538.0</ele><time>2026-05-02T10:34:35.644Z</time></trkpt><trkpt lat="42.2682635" lon="13.7602524"><ele>538.0</ele><time>2026-05-02T10:34:36.645Z</time></trkpt><trkpt lat="42.2682128" lon="13.7603177"><ele>537.8571428571429</ele><time>2026-05-02T10:34:37.644Z</time></trkpt><trkpt lat="42.2681575" lon="13.7603786"><ele>537.7142857142858</ele><time>2026-05-02T10:34:38.643Z</time></trkpt><trkpt lat="42.2681037" lon="13.760442"><ele>537.5714285714286</ele><time>2026-05-02T10:34:39.647Z</time></trkpt><trkpt lat="42.2680544" lon="13.7605068"><ele>537.4285714285714</ele><time>2026-05-02T10:34:40.642Z</time></trkpt><trkpt lat="42.2680033" lon="13.7605678"><ele>537.2857142857142</ele><time>2026-05-02T10:34:41.645Z</time></trkpt><trkpt lat="42.2679508" lon="13.7606358"><ele>537.1428571428571</ele><time>2026-05-02T10:34:42.645Z</time></trkpt><trkpt lat="42.2679021" lon="13.7607031"><ele>537.0</ele><time>2026-05-02T10:34:43.645Z</time></trkpt><trkpt lat="42.2678505" lon="13.7607724"><ele>537.6666666666666</ele><time>2026-05-02T10:34:44.643Z</time></trkpt><trkpt lat="42.2677947" lon="13.7608431"><ele>538.3333333333334</ele><time>2026-05-02T10:34:45.646Z</time></trkpt><trkpt lat="42.2677396" lon="13.7609172"><ele>539.0</ele><time>2026-05-02T10:34:46.644Z</time></trkpt><trkpt lat="42.2676819" lon="13.7609989"><ele>539.6666666666667</ele><time>2026-05-02T10:34:47.648Z</time></trkpt><trkpt lat="42.2676282" lon="13.7610765"><ele>540.3333333333334</ele><time>2026-05-02T10:34:48.644Z</time></trkpt><trkpt lat="42.2675753" lon="13.7611618"><ele>541.0</ele><time>2026-05-02T10:34:49.643Z</time></trkpt><trkpt lat="42.2675299" lon="13.7612487"><ele>541.0000000000001</ele><time>2026-05-02T10:34:50.645Z</time></trkpt><trkpt lat="42.2674861" lon="13.7613311"><ele>541.0</ele><time>2026-05-02T10:34:51.643Z</time></trkpt><trkpt lat="42.2674431" lon="13.7614068"><ele>541.0</ele><time>2026-05-02T10:34:52.646Z</time></trkpt><trkpt lat="42.2673994" lon="13.7614715"><ele>541.0</ele><time>2026-05-02T10:34:53.646Z</time></trkpt><trkpt lat="42.2673521" lon="13.7615277"><ele>541.0</ele><time>2026-05-02T10:34:54.645Z</time></trkpt><trkpt lat="42.2672996" lon="13.7615803"><ele>541.0000000000001</ele><time>2026-05-02T10:34:55.648Z</time></trkpt><trkpt lat="42.2672418" lon="13.7616332"><ele>541.0</ele><time>2026-05-02T10:34:56.644Z</time></trkpt><trkpt lat="42.2671772" lon="13.7616807"><ele>540.8333333333334</ele><time>2026-05-02T10:34:57.644Z</time></trkpt><trkpt lat="42.2671169" lon="13.7617142"><ele>540.6666666666667</ele><time>2026-05-02T10:34:58.643Z</time></trkpt><trkpt lat="42.2670243" lon="13.7617808"><ele>540.5</ele><time>2026-05-02T10:35:00.644Z</time></trkpt><trkpt lat="42.266976" lon="13.7618477"><ele>540.3333333333334</ele><time>2026-05-02T10:35:02.644Z</time></trkpt><trkpt lat="42.2669275" lon="13.7619536"><ele>540.1666666666666</ele><time>2026-05-02T10:35:04.647Z</time></trkpt><trkpt lat="42.2668928" lon="13.7620337"><ele>540.0</ele><time>2026-05-02T10:35:05.646Z</time></trkpt><trkpt lat="42.266854" lon="13.7621253"><ele>541.6</ele><time>2026-05-02T10:35:06.645Z</time></trkpt><trkpt lat="42.2668107" lon="13.7622267"><ele>543.2</ele><time>2026-05-02T10:35:07.645Z</time></trkpt><trkpt lat="42.2667598" lon="13.7623329"><ele>544.8</ele><time>2026-05-02T10:35:08.643Z</time></trkpt><trkpt lat="42.2667027" lon="13.7624379"><ele>546.4</ele><time>2026-05-02T10:35:09.648Z</time></trkpt><trkpt lat="42.2666382" lon="13.7625297"><ele>548.0</ele><time>2026-05-02T10:35:10.647Z</time></trkpt><trkpt lat="42.2665609" lon="13.7626029"><ele>548.0</ele><time>2026-05-02T10:35:11.646Z</time></trkpt><trkpt lat="42.2664686" lon="13.7626866"><ele>548.0</ele><time>2026-05-02T10:35:12.643Z</time></trkpt><trkpt lat="42.2663823" lon="13.7627916"><ele>548.0</ele><time>2026-05-02T10:35:13.647Z</time></trkpt><trkpt lat="42.2663035" lon="13.7628885"><ele>548.0</ele><time>2026-05-02T10:35:14.648Z</time></trkpt><trkpt lat="42.2662117" lon="13.7629699"><ele>548.0</ele><time>2026-05-02T10:35:15.647Z</time></trkpt><trkpt lat="42.2661095" lon="13.7630258"><ele>549.75</ele><time>2026-05-02T10:35:16.646Z</time></trkpt><trkpt lat="42.2659941" lon="13.7630663"><ele>551.5</ele><time>2026-05-02T10:35:17.646Z</time></trkpt><trkpt lat="42.265874" lon="13.7631001"><ele>553.25</ele><time>2026-05-02T10:35:18.646Z</time></trkpt><trkpt lat="42.2657527" lon="13.7631324"><ele>555.0</ele><time>2026-05-02T10:35:19.647Z</time></trkpt><trkpt lat="42.2656338" lon="13.7631815"><ele>557.0</ele><time>2026-05-02T10:35:20.647Z</time></trkpt><trkpt lat="42.2655218" lon="13.7632611"><ele>559.0</ele><time>2026-05-02T10:35:21.643Z</time></trkpt><trkpt lat="42.265409" lon="13.7633242"><ele>561.0</ele><time>2026-05-02T10:35:22.645Z</time></trkpt><trkpt lat="42.2652784" lon="13.7633557"><ele>563.0</ele><time>2026-05-02T10:35:23.647Z</time></trkpt><trkpt lat="42.2651244" lon="13.7633594"><ele>563.0</ele><time>2026-05-02T10:35:24.648Z</time></trkpt><trkpt lat="42.2649693" lon="13.7633358"><ele>563.0</ele><time>2026-05-02T10:35:25.647Z</time></trkpt><trkpt lat="42.2648236" lon="13.763325"><ele>563.0</ele><time>2026-05-02T10:35:26.647Z</time></trkpt><trkpt lat="42.2646804" lon="13.7633352"><ele>563.0</ele><time>2026-05-02T10:35:27.647Z</time></trkpt><trkpt lat="42.2645199" lon="13.7633756"><ele>563.3333333333333</ele><time>2026-05-02T10:35:28.646Z</time></trkpt><trkpt lat="42.2643561" lon="13.7634472"><ele>563.6666666666666</ele><time>2026-05-02T10:35:29.644Z</time></trkpt><trkpt lat="42.2641947" lon="13.763533"><ele>564.0</ele><time>2026-05-02T10:35:30.647Z</time></trkpt><trkpt lat="42.2640329" lon="13.7636268"><ele>568.3333333333334</ele><time>2026-05-02T10:35:31.646Z</time></trkpt><trkpt lat="42.2638607" lon="13.7637498"><ele>572.6666666666667</ele><time>2026-05-02T10:35:32.645Z</time></trkpt><trkpt lat="42.2636756" lon="13.7639034"><ele>577.0</ele><time>2026-05-02T10:35:33.645Z</time></trkpt><trkpt lat="42.2634756" lon="13.7640633"><ele>577.0</ele><time>2026-05-02T10:35:34.648Z</time></trkpt><trkpt lat="42.2632699" lon="13.7642095"><ele>577.0</ele><time>2026-05-02T10:35:35.647Z</time></trkpt><trkpt lat="42.2630765" lon="13.7643374"><ele>577.0</ele><time>2026-05-02T10:35:36.648Z</time></trkpt><trkpt lat="42.2628996" lon="13.7644536"><ele>582.0</ele><time>2026-05-02T10:35:37.647Z</time></trkpt><trkpt lat="42.2627492" lon="13.7645305"><ele>587.0</ele><time>2026-05-02T10:35:38.646Z</time></trkpt><trkpt lat="42.2626001" lon="13.7645749"><ele>592.0</ele><time>2026-05-02T10:35:39.647Z</time></trkpt><trkpt lat="42.2624314" lon="13.7646106"><ele>592.3333333333334</ele><time>2026-05-02T10:35:40.647Z</time></trkpt><trkpt lat="42.262259" lon="13.7646701"><ele>592.6666666666666</ele><time>2026-05-02T10:35:41.647Z</time></trkpt><trkpt lat="42.2620892" lon="13.7647341"><ele>593.0</ele><time>2026-05-02T10:35:42.647Z</time></trkpt><trkpt lat="42.2619213" lon="13.7648038"><ele>593.0</ele><time>2026-05-02T10:35:43.647Z</time></trkpt><trkpt lat="42.261749" lon="13.7648698"><ele>593.0</ele><time>2026-05-02T10:35:44.648Z</time></trkpt><trkpt lat="42.261562" lon="13.7649084"><ele>593.0</ele><time>2026-05-02T10:35:45.646Z</time></trkpt><trkpt lat="42.2613687" lon="13.764966"><ele>591.0</ele><time>2026-05-02T10:35:46.648Z</time></trkpt><trkpt lat="42.2611714" lon="13.7650224"><ele>589.0</ele><time>2026-05-02T10:35:47.645Z</time></trkpt><trkpt lat="42.2609739" lon="13.765067"><ele>587.0</ele><time>2026-05-02T10:35:48.647Z</time></trkpt><trkpt lat="42.2607791" lon="13.7651353"><ele>595.0</ele><time>2026-05-02T10:35:49.644Z</time></trkpt><trkpt lat="42.260587" lon="13.765212"><ele>603.0</ele><time>2026-05-02T10:35:50.647Z</time></trkpt><trkpt lat="42.2603929" lon="13.7652846"><ele>611.0</ele><time>2026-05-02T10:35:51.647Z</time></trkpt><trkpt lat="42.2602089" lon="13.7653711"><ele>611.0</ele><time>2026-05-02T10:35:52.647Z</time></trkpt><trkpt lat="42.2600431" lon="13.765449"><ele>611.0</ele><time>2026-05-02T10:35:53.647Z</time></trkpt><trkpt lat="42.2598916" lon="13.7655234"><ele>611.0</ele><time>2026-05-02T10:35:54.648Z</time></trkpt><trkpt lat="42.2597419" lon="13.7655841"><ele>610.5</ele><time>2026-05-02T10:35:55.648Z</time></trkpt><trkpt lat="42.2596127" lon="13.7656113"><ele>610.0</ele><time>2026-05-02T10:35:56.647Z</time></trkpt><trkpt lat="42.2594947" lon="13.7656176"><ele>609.5</ele><time>2026-05-02T10:35:57.643Z</time></trkpt><trkpt lat="42.2593583" lon="13.7655832"><ele>609.0</ele><time>2026-05-02T10:35:58.647Z</time></trkpt><trkpt lat="42.2592143" lon="13.7655393"><ele>609.0</ele><time>2026-05-02T10:35:59.647Z</time></trkpt><trkpt lat="42.2590705" lon="13.7654914"><ele>609.0</ele><time>2026-05-02T10:36:00.647Z</time></trkpt><trkpt lat="42.2589257" lon="13.7654488"><ele>609.0</ele><time>2026-05-02T10:36:01.645Z</time></trkpt><trkpt lat="42.2587885" lon="13.7654213"><ele>609.0</ele><time>2026-05-02T10:36:02.647Z</time></trkpt><trkpt lat="42.2586576" lon="13.7653994"><ele>608.8</ele><time>2026-05-02T10:36:03.648Z</time></trkpt><trkpt lat="42.2585331" lon="13.7653784"><ele>608.5999999999999</ele><time>2026-05-02T10:36:04.647Z</time></trkpt><trkpt lat="42.2584246" lon="13.7653675"><ele>608.4</ele><time>2026-05-02T10:36:05.647Z</time></trkpt><trkpt lat="42.2583575" lon="13.7653584"><ele>608.1999999999999</ele><time>2026-05-02T10:36:06.648Z</time></trkpt><trkpt lat="42.2582347" lon="13.7653059"><ele>608.0</ele><time>2026-05-02T10:36:08.648Z</time></trkpt><trkpt lat="42.2581643" lon="13.7652763"><ele>608.0</ele><time>2026-05-02T10:36:09.645Z</time></trkpt><trkpt lat="42.2581014" lon="13.765243"><ele>608.0</ele><time>2026-05-02T10:36:10.644Z</time></trkpt><trkpt lat="42.2580403" lon="13.765213"><ele>608.0</ele><time>2026-05-02T10:36:11.646Z</time></trkpt><trkpt lat="42.2579812" lon="13.7651762"><ele>608.0</ele><time>2026-05-02T10:36:12.647Z</time></trkpt><trkpt lat="42.2579058" lon="13.7651281"><ele>608.0</ele><time>2026-05-02T10:36:13.648Z</time></trkpt><trkpt lat="42.2578242" lon="13.7650789"><ele>608.0</ele><time>2026-05-02T10:36:14.643Z</time></trkpt><trkpt lat="42.2577358" lon="13.7650295"><ele>609.3333333333333</ele><time>2026-05-02T10:36:15.645Z</time></trkpt><trkpt lat="42.2576432" lon="13.7649838"><ele>610.6666666666666</ele><time>2026-05-02T10:36:16.648Z</time></trkpt><trkpt lat="42.2575552" lon="13.764943"><ele>612.0</ele><time>2026-05-02T10:36:17.647Z</time></trkpt><trkpt lat="42.2574774" lon="13.7649074"><ele>613.3333333333334</ele><time>2026-05-02T10:36:18.645Z</time></trkpt><trkpt lat="42.2574076" lon="13.7648744"><ele>614.6666666666667</ele><time>2026-05-02T10:36:19.648Z</time></trkpt><trkpt lat="42.2573473" lon="13.7648498"><ele>616.0</ele><time>2026-05-02T10:36:20.647Z</time></trkpt><trkpt lat="42.2572664" lon="13.7648038"><ele>616.8</ele><time>2026-05-02T10:36:22.645Z</time></trkpt><trkpt lat="42.2572027" lon="13.7647705"><ele>617.6</ele><time>2026-05-02T10:36:24.648Z</time></trkpt><trkpt lat="42.2571133" lon="13.764718"><ele>618.4</ele><time>2026-05-02T10:36:38.646Z</time></trkpt><trkpt lat="42.2570084" lon="13.7646615"><ele>619.2</ele><time>2026-05-02T10:36:40.646Z</time></trkpt><trkpt lat="42.2568905" lon="13.7646541"><ele>620.0</ele><time>2026-05-02T10:36:42.643Z</time></trkpt><trkpt lat="42.2568291" lon="13.764676"><ele>620.0</ele><time>2026-05-02T10:36:43.647Z</time></trkpt><trkpt lat="42.2567659" lon="13.7646974"><ele>620.0</ele><time>2026-05-02T10:36:44.644Z</time></trkpt><trkpt lat="42.2566981" lon="13.7647209"><ele>620.0</ele><time>2026-05-02T10:36:45.647Z</time></trkpt><trkpt lat="42.2566292" lon="13.7647411"><ele>620.0</ele><time>2026-05-02T10:36:46.646Z</time></trkpt><trkpt lat="42.2565629" lon="13.7647564"><ele>620.0</ele><time>2026-05-02T10:36:47.645Z</time></trkpt><trkpt lat="42.256451" lon="13.7647755"><ele>620.0</ele><time>2026-05-02T10:36:49.644Z</time></trkpt><trkpt lat="42.2563365" lon="13.7647799"><ele>621.3333333333333</ele><time>2026-05-02T10:36:51.647Z</time></trkpt><trkpt lat="42.2562218" lon="13.7647816"><ele>622.6666666666666</ele><time>2026-05-02T10:36:53.645Z</time></trkpt><trkpt lat="42.2561585" lon="13.7647728"><ele>624.0</ele><time>2026-05-02T10:36:54.647Z</time></trkpt><trkpt lat="42.2560894" lon="13.7647635"><ele>625.3333333333334</ele><time>2026-05-02T10:36:55.647Z</time></trkpt><trkpt lat="42.2560158" lon="13.7647561"><ele>626.6666666666667</ele><time>2026-05-02T10:36:56.646Z</time></trkpt><trkpt lat="42.2559373" lon="13.7647463"><ele>628.0</ele><time>2026-05-02T10:36:57.645Z</time></trkpt><trkpt lat="42.2558523" lon="13.7647325"><ele>628.0</ele><time>2026-05-02T10:36:58.647Z</time></trkpt><trkpt lat="42.2557643" lon="13.7647218"><ele>628.0</ele><time>2026-05-02T10:36:59.647Z</time></trkpt><trkpt lat="42.2556734" lon="13.7647103"><ele>628.0</ele><time>2026-05-02T10:37:00.645Z</time></trkpt><trkpt lat="42.2555851" lon="13.764697"><ele>628.0</ele><time>2026-05-02T10:37:01.643Z</time></trkpt><trkpt lat="42.2555043" lon="13.7646835"><ele>628.0</ele><time>2026-05-02T10:37:02.643Z</time></trkpt><trkpt lat="42.2554323" lon="13.7646673"><ele>628.0</ele><time>2026-05-02T10:37:03.647Z</time></trkpt><trkpt lat="42.2553619" lon="13.7646423"><ele>628.7142857142857</ele><time>2026-05-02T10:37:04.647Z</time></trkpt><trkpt lat="42.2552939" lon="13.7646065"><ele>629.4285714285714</ele><time>2026-05-02T10:37:05.647Z</time></trkpt><trkpt lat="42.2552333" lon="13.7645663"><ele>630.1428571428571</ele><time>2026-05-02T10:37:06.647Z</time></trkpt><trkpt lat="42.2551724" lon="13.7645323"><ele>630.8571428571429</ele><time>2026-05-02T10:37:07.647Z</time></trkpt><trkpt lat="42.2551" lon="13.7645114"><ele>631.5714285714286</ele><time>2026-05-02T10:37:08.647Z</time></trkpt><trkpt lat="42.2550263" lon="13.7645137"><ele>632.2857142857142</ele><time>2026-05-02T10:37:09.646Z</time></trkpt><trkpt lat="42.2549569" lon="13.7645409"><ele>633.0</ele><time>2026-05-02T10:37:10.647Z</time></trkpt><trkpt lat="42.2548893" lon="13.764563"><ele>633.0</ele><time>2026-05-02T10:37:11.646Z</time></trkpt><trkpt lat="42.2548179" lon="13.7645654"><ele>633.0</ele><time>2026-05-02T10:37:12.647Z</time></trkpt><trkpt lat="42.2547434" lon="13.7645592"><ele>633.0</ele><time>2026-05-02T10:37:13.645Z</time></trkpt><trkpt lat="42.2546699" lon="13.7645387"><ele>633.0</ele><time>2026-05-02T10:37:14.647Z</time></trkpt><trkpt lat="42.2545988" lon="13.7645085"><ele>633.0</ele><time>2026-05-02T10:37:15.647Z</time></trkpt><trkpt lat="42.2545277" lon="13.764491"><ele>633.0</ele><time>2026-05-02T10:37:16.641Z</time></trkpt><trkpt lat="42.2544487" lon="13.7644854"><ele>633.0</ele><time>2026-05-02T10:37:17.643Z</time></trkpt><trkpt lat="42.2543672" lon="13.764481"><ele>634.8333333333334</ele><time>2026-05-02T10:37:18.644Z</time></trkpt><trkpt lat="42.2542886" lon="13.7644748"><ele>636.6666666666666</ele><time>2026-05-02T10:37:19.647Z</time></trkpt><trkpt lat="42.2542102" lon="13.7644696"><ele>638.5</ele><time>2026-05-02T10:37:20.647Z</time></trkpt><trkpt lat="42.2541345" lon="13.7644604"><ele>640.3333333333333</ele><time>2026-05-02T10:37:21.648Z</time></trkpt><trkpt lat="42.2540667" lon="13.7644473"><ele>642.1666666666666</ele><time>2026-05-02T10:37:22.645Z</time></trkpt><trkpt lat="42.253946" lon="13.764397"><ele>644.0</ele><time>2026-05-02T10:37:24.647Z</time></trkpt><trkpt lat="42.2538847" lon="13.7643539"><ele>645.1666666666666</ele><time>2026-05-02T10:37:25.644Z</time></trkpt><trkpt lat="42.2538184" lon="13.7643275"><ele>646.3333333333333</ele><time>2026-05-02T10:37:26.647Z</time></trkpt><trkpt lat="42.2537555" lon="13.7643049"><ele>647.5</ele><time>2026-05-02T10:37:27.646Z</time></trkpt><trkpt lat="42.2536464" lon="13.7642296"><ele>648.6666666666666</ele><time>2026-05-02T10:37:29.647Z</time></trkpt><trkpt lat="42.2535945" lon="13.7641791"><ele>649.8333333333334</ele><time>2026-05-02T10:37:30.647Z</time></trkpt><trkpt lat="42.2535168" lon="13.7640524"><ele>651.0</ele><time>2026-05-02T10:37:32.643Z</time></trkpt><trkpt lat="42.253444" lon="13.7639043"><ele>651.0</ele><time>2026-05-02T10:37:34.647Z</time></trkpt><trkpt lat="42.2533993" lon="13.7638233"><ele>651.0</ele><time>2026-05-02T10:37:35.646Z</time></trkpt><trkpt lat="42.2533474" lon="13.7637483"><ele>651.0</ele><time>2026-05-02T10:37:36.646Z</time></trkpt><trkpt lat="42.2532904" lon="13.7636829"><ele>651.0</ele><time>2026-05-02T10:37:37.647Z</time></trkpt><trkpt lat="42.253226" lon="13.763628"><ele>651.0</ele><time>2026-05-02T10:37:38.647Z</time></trkpt><trkpt lat="42.2531537" lon="13.7635829"><ele>651.0</ele><time>2026-05-02T10:37:39.645Z</time></trkpt><trkpt lat="42.2530738" lon="13.7635438"><ele>652.1666666666666</ele><time>2026-05-02T10:37:40.644Z</time></trkpt><trkpt lat="42.2529878" lon="13.76351"><ele>653.3333333333334</ele><time>2026-05-02T10:37:41.647Z</time></trkpt><trkpt lat="42.2529019" lon="13.7634752"><ele>654.5</ele><time>2026-05-02T10:37:42.648Z</time></trkpt><trkpt lat="42.2528171" lon="13.763445"><ele>655.6666666666667</ele><time>2026-05-02T10:37:43.647Z</time></trkpt><trkpt lat="42.2527303" lon="13.7634343"><ele>656.8333333333334</ele><time>2026-05-02T10:37:44.647Z</time></trkpt><trkpt lat="42.2526466" lon="13.7634293"><ele>658.0</ele><time>2026-05-02T10:37:45.647Z</time></trkpt><trkpt lat="42.2525742" lon="13.7634215"><ele>658.0</ele><time>2026-05-02T10:37:46.648Z</time></trkpt><trkpt lat="42.2525102" lon="13.763413"><ele>658.0</ele><time>2026-05-02T10:37:47.644Z</time></trkpt><trkpt lat="42.2524443" lon="13.7633995"><ele>658.0</ele><time>2026-05-02T10:37:48.642Z</time></trkpt><trkpt lat="42.2523744" lon="13.7633781"><ele>658.0</ele><time>2026-05-02T10:37:49.644Z</time></trkpt><trkpt lat="42.2522995" lon="13.7633547"><ele>658.0</ele><time>2026-05-02T10:37:50.642Z</time></trkpt><trkpt lat="42.2522266" lon="13.7633301"><ele>658.0</ele><time>2026-05-02T10:37:51.648Z</time></trkpt><trkpt lat="42.2521607" lon="13.7632997"><ele>658.0</ele><time>2026-05-02T10:37:52.645Z</time></trkpt><trkpt lat="42.2520968" lon="13.7632631"><ele>657.5714285714286</ele><time>2026-05-02T10:37:53.645Z</time></trkpt><trkpt lat="42.2520367" lon="13.7632251"><ele>657.1428571428571</ele><time>2026-05-02T10:37:54.647Z</time></trkpt><trkpt lat="42.251979" lon="13.7631849"><ele>656.7142857142858</ele><time>2026-05-02T10:37:55.648Z</time></trkpt><trkpt lat="42.2519221" lon="13.7631398"><ele>656.2857142857142</ele><time>2026-05-02T10:37:56.647Z</time></trkpt><trkpt lat="42.2518652" lon="13.7630831"><ele>655.8571428571429</ele><time>2026-05-02T10:37:57.647Z</time></trkpt><trkpt lat="42.251811" lon="13.763015"><ele>655.4285714285714</ele><time>2026-05-02T10:37:58.645Z</time></trkpt><trkpt lat="42.2517612" lon="13.7629385"><ele>655.0</ele><time>2026-05-02T10:37:59.646Z</time></trkpt><trkpt lat="42.2517112" lon="13.7628573"><ele>655.0</ele><time>2026-05-02T10:38:00.648Z</time></trkpt><trkpt lat="42.2516592" lon="13.762781"><ele>655.0</ele><time>2026-05-02T10:38:01.644Z</time></trkpt><trkpt lat="42.2515986" lon="13.762714"><ele>655.0</ele><time>2026-05-02T10:38:02.647Z</time></trkpt><trkpt lat="42.2515259" lon="13.7626496"><ele>655.0</ele><time>2026-05-02T10:38:03.647Z</time></trkpt><trkpt lat="42.251449" lon="13.7625842"><ele>655.0</ele><time>2026-05-02T10:38:04.647Z</time></trkpt><trkpt lat="42.2513745" lon="13.7625127"><ele>655.0</ele><time>2026-05-02T10:38:05.647Z</time></trkpt><trkpt lat="42.2512996" lon="13.7624422"><ele>658.0</ele><time>2026-05-02T10:38:06.643Z</time></trkpt><trkpt lat="42.2512276" lon="13.7623808"><ele>661.0</ele><time>2026-05-02T10:38:07.648Z</time></trkpt><trkpt lat="42.2511609" lon="13.7623265"><ele>664.0</ele><time>2026-05-02T10:38:08.647Z</time></trkpt><trkpt lat="42.2510906" lon="13.7622792"><ele>667.0</ele><time>2026-05-02T10:38:09.648Z</time></trkpt><trkpt lat="42.2510153" lon="13.7622476"><ele>670.0</ele><time>2026-05-02T10:38:10.647Z</time></trkpt><trkpt lat="42.2509417" lon="13.7622211"><ele>673.0</ele><time>2026-05-02T10:38:11.647Z</time></trkpt><trkpt lat="42.250872" lon="13.762195"><ele>673.0</ele><time>2026-05-02T10:38:12.643Z</time></trkpt><trkpt lat="42.2508022" lon="13.7621864"><ele>673.0</ele><time>2026-05-02T10:38:13.646Z</time></trkpt><trkpt lat="42.2507398" lon="13.7622095"><ele>673.0</ele><time>2026-05-02T10:38:14.648Z</time></trkpt><trkpt lat="42.2506704" lon="13.7623232"><ele>673.0</ele><time>2026-05-02T10:38:16.645Z</time></trkpt><trkpt lat="42.2506285" lon="13.7624668"><ele>673.0</ele><time>2026-05-02T10:38:18.644Z</time></trkpt><trkpt lat="42.2505836" lon="13.76253"><ele>673.0</ele><time>2026-05-02T10:38:19.648Z</time></trkpt><trkpt lat="42.2505198" lon="13.7625783"><ele>672.3333333333334</ele><time>2026-05-02T10:38:20.647Z</time></trkpt><trkpt lat="42.2504495" lon="13.7626183"><ele>671.6666666666667</ele><time>2026-05-02T10:38:21.647Z</time></trkpt><trkpt lat="42.2503822" lon="13.7626582"><ele>671.0</ele><time>2026-05-02T10:38:22.646Z</time></trkpt><trkpt lat="42.2503064" lon="13.7626834"><ele>670.3333333333334</ele><time>2026-05-02T10:38:23.645Z</time></trkpt><trkpt lat="42.2502269" lon="13.7626938"><ele>669.6666666666666</ele><time>2026-05-02T10:38:24.647Z</time></trkpt><trkpt lat="42.2501489" lon="13.7627077"><ele>669.0</ele><time>2026-05-02T10:38:25.647Z</time></trkpt><trkpt lat="42.2500717" lon="13.7627279"><ele>669.0</ele><time>2026-05-02T10:38:26.647Z</time></trkpt><trkpt lat="42.2500038" lon="13.762749"><ele>669.0</ele><time>2026-05-02T10:38:27.644Z</time></trkpt><trkpt lat="42.249936" lon="13.7627729"><ele>669.0</ele><time>2026-05-02T10:38:28.645Z</time></trkpt><trkpt lat="42.2498667" lon="13.7627957"><ele>669.0</ele><time>2026-05-02T10:38:29.647Z</time></trkpt><trkpt lat="42.2498001" lon="13.7628226"><ele>669.0</ele><time>2026-05-02T10:38:30.647Z</time></trkpt><trkpt lat="42.2497379" lon="13.7628615"><ele>669.0</ele><time>2026-05-02T10:38:31.646Z</time></trkpt><trkpt lat="42.2496768" lon="13.7629127"><ele>669.0</ele><time>2026-05-02T10:38:32.644Z</time></trkpt><trkpt lat="42.24961" lon="13.762977"><ele>671.5</ele><time>2026-05-02T10:38:33.645Z</time></trkpt><trkpt lat="42.2495432" lon="13.763046"><ele>674.0</ele><time>2026-05-02T10:38:34.644Z</time></trkpt><trkpt lat="42.249483" lon="13.763111"><ele>676.5</ele><time>2026-05-02T10:38:35.647Z</time></trkpt><trkpt lat="42.2494298" lon="13.7631708"><ele>679.0</ele><time>2026-05-02T10:38:36.641Z</time></trkpt><trkpt lat="42.2493716" lon="13.7632243"><ele>681.5</ele><time>2026-05-02T10:38:37.644Z</time></trkpt><trkpt lat="42.2493053" lon="13.7632773"><ele>684.0</ele><time>2026-05-02T10:38:38.644Z</time></trkpt><trkpt lat="42.2492328" lon="13.7633261"><ele>684.0</ele><time>2026-05-02T10:38:39.645Z</time></trkpt><trkpt lat="42.249157" lon="13.7633666"><ele>684.0</ele><time>2026-05-02T10:38:40.643Z</time></trkpt><trkpt lat="42.2490813" lon="13.7634067"><ele>684.0</ele><time>2026-05-02T10:38:41.642Z</time></trkpt><trkpt lat="42.2490057" lon="13.7634535"><ele>684.0</ele><time>2026-05-02T10:38:42.647Z</time></trkpt><trkpt lat="42.2489341" lon="13.7634991"><ele>684.0</ele><time>2026-05-02T10:38:43.643Z</time></trkpt><trkpt lat="42.2488622" lon="13.7635458"><ele>684.0</ele><time>2026-05-02T10:38:44.645Z</time></trkpt><trkpt lat="42.2487917" lon="13.763599"><ele>684.6666666666666</ele><time>2026-05-02T10:38:45.642Z</time></trkpt><trkpt lat="42.2487262" lon="13.7636579"><ele>685.3333333333334</ele><time>2026-05-02T10:38:46.647Z</time></trkpt><trkpt lat="42.2486656" lon="13.7637165"><ele>686.0</ele><time>2026-05-02T10:38:47.648Z</time></trkpt><trkpt lat="42.2486055" lon="13.7637797"><ele>686.6666666666667</ele><time>2026-05-02T10:38:48.647Z</time></trkpt><trkpt lat="42.2485447" lon="13.7638515"><ele>687.3333333333334</ele><time>2026-05-02T10:38:49.647Z</time></trkpt><trkpt lat="42.2484841" lon="13.7639216"><ele>688.0</ele><time>2026-05-02T10:38:50.645Z</time></trkpt><trkpt lat="42.2484198" lon="13.7639993"><ele>688.0</ele><time>2026-05-02T10:38:51.645Z</time></trkpt><trkpt lat="42.248348" lon="13.764082"><ele>688.0</ele><time>2026-05-02T10:38:52.647Z</time></trkpt><trkpt lat="42.2482732" lon="13.7641603"><ele>688.0</ele><time>2026-05-02T10:38:53.645Z</time></trkpt><trkpt lat="42.2482016" lon="13.7642391"><ele>688.0</ele><time>2026-05-02T10:38:54.647Z</time></trkpt><trkpt lat="42.248135" lon="13.7643155"><ele>688.0</ele><time>2026-05-02T10:38:55.648Z</time></trkpt><trkpt lat="42.2480719" lon="13.764384"><ele>689.3333333333334</ele><time>2026-05-02T10:38:56.647Z</time></trkpt><trkpt lat="42.2480143" lon="13.7644454"><ele>690.6666666666667</ele><time>2026-05-02T10:38:57.648Z</time></trkpt><trkpt lat="42.2479606" lon="13.7645048"><ele>692.0</ele><time>2026-05-02T10:38:58.646Z</time></trkpt><trkpt lat="42.2479124" lon="13.7645597"><ele>693.3333333333334</ele><time>2026-05-02T10:38:59.647Z</time></trkpt><trkpt lat="42.2478195" lon="13.764686"><ele>694.6666666666666</ele><time>2026-05-02T10:39:01.643Z</time></trkpt><trkpt lat="42.2477783" lon="13.764763"><ele>696.0</ele><time>2026-05-02T10:39:02.646Z</time></trkpt><trkpt lat="42.2477214" lon="13.7648955"><ele>696.0</ele><time>2026-05-02T10:39:04.646Z</time></trkpt><trkpt lat="42.2476755" lon="13.7649856"><ele>696.0</ele><time>2026-05-02T10:39:06.646Z</time></trkpt><trkpt lat="42.2475934" lon="13.7650677"><ele>696.0</ele><time>2026-05-02T10:39:09.644Z</time></trkpt><trkpt lat="42.2475436" lon="13.7651368"><ele>696.0</ele><time>2026-05-02T10:39:11.644Z</time></trkpt><trkpt lat="42.2474814" lon="13.7651852"><ele>696.0</ele><time>2026-05-02T10:39:13.646Z</time></trkpt><trkpt lat="42.2473848" lon="13.7652616"><ele>696.0</ele><time>2026-05-02T10:39:15.644Z</time></trkpt><trkpt lat="42.2473016" lon="13.7653251"><ele>698.6666666666666</ele><time>2026-05-02T10:39:17.647Z</time></trkpt><trkpt lat="42.2472425" lon="13.7653649"><ele>701.3333333333334</ele><time>2026-05-02T10:39:19.647Z</time></trkpt><trkpt lat="42.2471737" lon="13.7654157"><ele>704.0</ele><time>2026-05-02T10:39:22.644Z</time></trkpt><trkpt lat="42.2470834" lon="13.7654364"><ele>706.6666666666667</ele><time>2026-05-02T10:39:25.644Z</time></trkpt><trkpt lat="42.247017" lon="13.7654773"><ele>709.3333333333334</ele><time>2026-05-02T10:39:27.449Z</time></trkpt><trkpt lat="42.2469437" lon="13.7655253"><ele>712.0</ele><time>2026-05-02T10:39:28.645Z</time></trkpt><trkpt lat="42.2468431" lon="13.7655907"><ele>712.0</ele><time>2026-05-02T10:39:30.644Z</time></trkpt><trkpt lat="42.2467842" lon="13.7656292"><ele>712.0</ele><time>2026-05-02T10:39:31.646Z</time></trkpt><trkpt lat="42.2467296" lon="13.765674"><ele>712.0</ele><time>2026-05-02T10:39:32.645Z</time></trkpt><trkpt lat="42.2466773" lon="13.7657215"><ele>712.0</ele><time>2026-05-02T10:39:33.641Z</time></trkpt><trkpt lat="42.246577" lon="13.7658023"><ele>712.0</ele><time>2026-05-02T10:39:35.642Z</time></trkpt><trkpt lat="42.2464759" lon="13.7658858"><ele>712.0</ele><time>2026-05-02T10:39:37.646Z</time></trkpt><trkpt lat="42.2463949" lon="13.7660179"><ele>713.6</ele><time>2026-05-02T10:39:39.645Z</time></trkpt><trkpt lat="42.2463518" lon="13.7660838"><ele>715.2</ele><time>2026-05-02T10:39:40.641Z</time></trkpt><trkpt lat="42.2462725" lon="13.7662096"><ele>716.8</ele><time>2026-05-02T10:39:42.641Z</time></trkpt><trkpt lat="42.2461844" lon="13.7663216"><ele>718.4</ele><time>2026-05-02T10:39:44.643Z</time></trkpt><trkpt lat="42.2461351" lon="13.7663844"><ele>720.0</ele><time>2026-05-02T10:39:45.645Z</time></trkpt><trkpt lat="42.2460471" lon="13.7664839"><ele>720.0</ele><time>2026-05-02T10:39:47.643Z</time></trkpt><trkpt lat="42.2459532" lon="13.7665232"><ele>720.0</ele><time>2026-05-02T10:39:49.642Z</time></trkpt><trkpt lat="42.2458348" lon="13.7665255"><ele>720.0</ele><time>2026-05-02T10:39:51.641Z</time></trkpt><trkpt lat="42.245772" lon="13.7665547"><ele>720.0</ele><time>2026-05-02T10:39:52.646Z</time></trkpt><trkpt lat="42.2457059" lon="13.766583"><ele>720.0</ele><time>2026-05-02T10:39:53.644Z</time></trkpt><trkpt lat="42.2456326" lon="13.7666086"><ele>720.0</ele><time>2026-05-02T10:39:54.647Z</time></trkpt><trkpt lat="42.2455541" lon="13.7666431"><ele>721.8</ele><time>2026-05-02T10:39:55.647Z</time></trkpt><trkpt lat="42.2454778" lon="13.7666884"><ele>723.6</ele><time>2026-05-02T10:39:56.647Z</time></trkpt><trkpt lat="42.245413" lon="13.7667348"><ele>725.4000000000001</ele><time>2026-05-02T10:39:57.644Z</time></trkpt><trkpt lat="42.2453091" lon="13.7668016"><ele>727.2</ele><time>2026-05-02T10:39:59.644Z</time></trkpt><trkpt lat="42.2451824" lon="13.7668281"><ele>729.0</ele><time>2026-05-02T10:40:01.648Z</time></trkpt><trkpt lat="42.24511" lon="13.7668495"><ele>729.0</ele><time>2026-05-02T10:40:02.647Z</time></trkpt><trkpt lat="42.2450357" lon="13.7668744"><ele>729.0</ele><time>2026-05-02T10:40:03.642Z</time></trkpt><trkpt lat="42.2449611" lon="13.7668936"><ele>729.0</ele><time>2026-05-02T10:40:04.644Z</time></trkpt><trkpt lat="42.2448889" lon="13.766914"><ele>729.0</ele><time>2026-05-02T10:40:05.648Z</time></trkpt><trkpt lat="42.2448188" lon="13.7669413"><ele>729.0</ele><time>2026-05-02T10:40:06.645Z</time></trkpt><trkpt lat="42.2447509" lon="13.766968"><ele>729.0</ele><time>2026-05-02T10:40:07.646Z</time></trkpt><trkpt lat="42.2446826" lon="13.7669884"><ele>729.0</ele><time>2026-05-02T10:40:08.648Z</time></trkpt><trkpt lat="42.244612" lon="13.7670081"><ele>729.0</ele><time>2026-05-02T10:40:09.644Z</time></trkpt><trkpt lat="42.2445432" lon="13.767025"><ele>729.0</ele><time>2026-05-02T10:40:10.644Z</time></trkpt><trkpt lat="42.244476" lon="13.7670399"><ele>729.0</ele><time>2026-05-02T10:40:11.643Z</time></trkpt><trkpt lat="42.244369" lon="13.7670555"><ele>729.0</ele><time>2026-05-02T10:40:13.645Z</time></trkpt><trkpt lat="42.244297" lon="13.7670575"><ele>729.0</ele><time>2026-05-02T10:40:15.647Z</time></trkpt><trkpt lat="42.2441556" lon="13.7670884"><ele>729.0</ele><time>2026-05-02T10:40:32.647Z</time></trkpt><trkpt lat="42.2440428" lon="13.7671169"><ele>729.0</ele><time>2026-05-02T10:40:33.646Z</time></trkpt><trkpt lat="42.243961" lon="13.7671337"><ele>729.0</ele><time>2026-05-02T10:40:34.645Z</time></trkpt><trkpt lat="42.2438697" lon="13.7671534"><ele>729.0</ele><time>2026-05-02T10:40:36.647Z</time></trkpt><trkpt lat="42.2437903" lon="13.767196"><ele>729.0</ele><time>2026-05-02T10:40:38.646Z</time></trkpt><trkpt lat="42.2436903" lon="13.7672283"><ele>732.0</ele><time>2026-05-02T10:40:40.645Z</time></trkpt><trkpt lat="42.2435849" lon="13.7672471"><ele>735.0</ele><time>2026-05-02T10:40:42.645Z</time></trkpt><trkpt lat="42.243476" lon="13.7672385"><ele>738.0</ele><time>2026-05-02T10:40:44.645Z</time></trkpt><trkpt lat="42.2433591" lon="13.7672597"><ele>741.0</ele><time>2026-05-02T10:40:46.643Z</time></trkpt><trkpt lat="42.243289" lon="13.7672953"><ele>744.0</ele><time>2026-05-02T10:40:47.648Z</time></trkpt><trkpt lat="42.2431693" lon="13.7673087"><ele>746.6</ele><time>2026-05-02T10:40:49.647Z</time></trkpt><trkpt lat="42.2430456" lon="13.7673104"><ele>749.2</ele><time>2026-05-02T10:40:51.644Z</time></trkpt><trkpt lat="42.242927" lon="13.767312"><ele>751.8000000000001</ele><time>2026-05-02T10:40:53.644Z</time></trkpt><trkpt lat="42.2428581" lon="13.7673228"><ele>754.4000000000001</ele><time>2026-05-02T10:40:54.647Z</time></trkpt><trkpt lat="42.2427803" lon="13.7673405"><ele>757.0</ele><time>2026-05-02T10:40:55.647Z</time></trkpt><trkpt lat="42.2427037" lon="13.7673606"><ele>757.0</ele><time>2026-05-02T10:40:56.645Z</time></trkpt><trkpt lat="42.24263" lon="13.7673798"><ele>757.0</ele><time>2026-05-02T10:40:57.648Z</time></trkpt><trkpt lat="42.2425561" lon="13.7673994"><ele>757.0</ele><time>2026-05-02T10:40:58.641Z</time></trkpt><trkpt lat="42.2424879" lon="13.7674214"><ele>757.0</ele><time>2026-05-02T10:40:59.647Z</time></trkpt><trkpt lat="42.2424171" lon="13.7674516"><ele>757.0</ele><time>2026-05-02T10:41:00.644Z</time></trkpt><trkpt lat="42.2423501" lon="13.767477"><ele>757.0</ele><time>2026-05-02T10:41:01.643Z</time></trkpt><trkpt lat="42.2422805" lon="13.7674947"><ele>757.0</ele><time>2026-05-02T10:41:02.643Z</time></trkpt><trkpt lat="42.2422121" lon="13.7675095"><ele>757.0</ele><time>2026-05-02T10:41:03.643Z</time></trkpt><trkpt lat="42.2421448" lon="13.7675375"><ele>757.0</ele><time>2026-05-02T10:41:04.643Z</time></trkpt><trkpt lat="42.242087" lon="13.7675719"><ele>757.0</ele><time>2026-05-02T10:41:05.643Z</time></trkpt><trkpt lat="42.2419798" lon="13.7676357"><ele>757.0</ele><time>2026-05-02T10:41:07.647Z</time></trkpt><trkpt lat="42.2419203" lon="13.767676"><ele>757.0</ele><time>2026-05-02T10:41:08.647Z</time></trkpt><trkpt lat="42.2418606" lon="13.7677193"><ele>757.0</ele><time>2026-05-02T10:41:09.647Z</time></trkpt><trkpt lat="42.2417512" lon="13.767806"><ele>757.0</ele><time>2026-05-02T10:41:11.646Z</time></trkpt><trkpt lat="42.2416931" lon="13.7678624"><ele>757.0</ele><time>2026-05-02T10:41:12.644Z</time></trkpt><trkpt lat="42.2416378" lon="13.7679189"><ele>757.0</ele><time>2026-05-02T10:41:13.645Z</time></trkpt><trkpt lat="42.241587" lon="13.7679778"><ele>757.0</ele><time>2026-05-02T10:41:14.647Z</time></trkpt><trkpt lat="42.2415343" lon="13.768044"><ele>757.0</ele><time>2026-05-02T10:41:15.644Z</time></trkpt><trkpt lat="42.2414828" lon="13.7681236"><ele>757.0</ele><time>2026-05-02T10:41:16.647Z</time></trkpt><trkpt lat="42.2414311" lon="13.7682066"><ele>757.0</ele><time>2026-05-02T10:41:17.647Z</time></trkpt><trkpt lat="42.2413846" lon="13.7682897"><ele>760.0</ele><time>2026-05-02T10:41:18.645Z</time></trkpt><trkpt lat="42.2413367" lon="13.7683744"><ele>763.0</ele><time>2026-05-02T10:41:19.642Z</time></trkpt><trkpt lat="42.2412941" lon="13.7684488"><ele>766.0</ele><time>2026-05-02T10:41:20.647Z</time></trkpt><trkpt lat="42.2412048" lon="13.7685773"><ele>769.0</ele><time>2026-05-02T10:41:22.647Z</time></trkpt><trkpt lat="42.2411571" lon="13.7686455"><ele>771.9999999999999</ele><time>2026-05-02T10:41:23.646Z</time></trkpt><trkpt lat="42.2411112" lon="13.7687134"><ele>775.0</ele><time>2026-05-02T10:41:24.646Z</time></trkpt><trkpt lat="42.2410675" lon="13.7687776"><ele>775.0</ele><time>2026-05-02T10:41:25.645Z</time></trkpt><trkpt lat="42.2409897" lon="13.7688957"><ele>775.0</ele><time>2026-05-02T10:41:27.642Z</time></trkpt><trkpt lat="42.2409255" lon="13.7690428"><ele>775.0</ele><time>2026-05-02T10:41:29.642Z</time></trkpt><trkpt lat="42.2408967" lon="13.7691212"><ele>775.0</ele><time>2026-05-02T10:41:30.648Z</time></trkpt><trkpt lat="42.2408394" lon="13.769238"><ele>775.0</ele><time>2026-05-02T10:41:32.648Z</time></trkpt><trkpt lat="42.2407729" lon="13.7693166"><ele>774.9999999999999</ele><time>2026-05-02T10:41:34.648Z</time></trkpt><trkpt lat="42.2406856" lon="13.769349"><ele>775.0</ele><time>2026-05-02T10:41:36.647Z</time></trkpt><trkpt lat="42.2406225" lon="13.7693478"><ele>775.0</ele><time>2026-05-02T10:41:38.648Z</time></trkpt><trkpt lat="42.2405226" lon="13.7693206"><ele>775.0</ele><time>2026-05-02T10:41:41.647Z</time></trkpt><trkpt lat="42.2404549" lon="13.7692819"><ele>774.9999999999999</ele><time>2026-05-02T10:41:43.644Z</time></trkpt><trkpt lat="42.2403764" lon="13.7692609"><ele>775.0</ele><time>2026-05-02T10:41:48.643Z</time></trkpt><trkpt lat="42.2402898" lon="13.7692097"><ele>777.8</ele><time>2026-05-02T10:41:52.647Z</time></trkpt><trkpt lat="42.240206" lon="13.7692009"><ele>780.6</ele><time>2026-05-02T10:41:54.647Z</time></trkpt><trkpt lat="42.2400882" lon="13.7691973"><ele>783.4000000000001</ele><time>2026-05-02T10:41:56.646Z</time></trkpt><trkpt lat="42.2399753" lon="13.7691835"><ele>786.2</ele><time>2026-05-02T10:41:58.648Z</time></trkpt><trkpt lat="42.2398613" lon="13.7691812"><ele>789.0</ele><time>2026-05-02T10:42:00.648Z</time></trkpt><trkpt lat="42.2397428" lon="13.7691675"><ele>791.6666666666666</ele><time>2026-05-02T10:42:02.646Z</time></trkpt><trkpt lat="42.2396257" lon="13.7691222"><ele>794.3333333333333</ele><time>2026-05-02T10:42:04.645Z</time></trkpt><trkpt lat="42.2395612" lon="13.7690926"><ele>797.0</ele><time>2026-05-02T10:42:05.647Z</time></trkpt><trkpt lat="42.2394887" lon="13.7690771"><ele>799.6666666666666</ele><time>2026-05-02T10:42:06.645Z</time></trkpt><trkpt lat="42.239422" lon="13.7690789"><ele>802.3333333333333</ele><time>2026-05-02T10:42:07.645Z</time></trkpt><trkpt lat="42.2393154" lon="13.7691307"><ele>805.0</ele><time>2026-05-02T10:42:09.647Z</time></trkpt><trkpt lat="42.2392731" lon="13.7691943"><ele>805.0</ele><time>2026-05-02T10:42:10.643Z</time></trkpt><trkpt lat="42.2391845" lon="13.7692634"><ele>805.0</ele><time>2026-05-02T10:42:12.643Z</time></trkpt><trkpt lat="42.239085" lon="13.7693301"><ele>805.0</ele><time>2026-05-02T10:42:14.645Z</time></trkpt><trkpt lat="42.2389879" lon="13.7693833"><ele>805.0</ele><time>2026-05-02T10:42:16.644Z</time></trkpt><trkpt lat="42.2388702" lon="13.769409"><ele>805.0</ele><time>2026-05-02T10:42:18.643Z</time></trkpt><trkpt lat="42.238758" lon="13.7693998"><ele>804.8</ele><time>2026-05-02T10:42:20.643Z</time></trkpt><trkpt lat="42.2386512" lon="13.769403"><ele>804.6</ele><time>2026-05-02T10:42:22.646Z</time></trkpt><trkpt lat="42.2385423" lon="13.7694203"><ele>804.4000000000001</ele><time>2026-05-02T10:42:24.645Z</time></trkpt><trkpt lat="42.2384148" lon="13.7694468"><ele>804.2</ele><time>2026-05-02T10:42:26.647Z</time></trkpt><trkpt lat="42.2383526" lon="13.7694795"><ele>804.0</ele><time>2026-05-02T10:42:27.645Z</time></trkpt><trkpt lat="42.2382946" lon="13.7695174"><ele>804.0</ele><time>2026-05-02T10:42:28.648Z</time></trkpt><trkpt lat="42.2381858" lon="13.7695629"><ele>804.0</ele><time>2026-05-02T10:42:30.645Z</time></trkpt><trkpt lat="42.2380733" lon="13.7696134"><ele>804.0</ele><time>2026-05-02T10:42:32.645Z</time></trkpt><trkpt lat="42.2380139" lon="13.7696549"><ele>804.0</ele><time>2026-05-02T10:42:33.646Z</time></trkpt><trkpt lat="42.2379514" lon="13.769695"><ele>804.0</ele><time>2026-05-02T10:42:34.645Z</time></trkpt><trkpt lat="42.2378885" lon="13.7697373"><ele>804.0</ele><time>2026-05-02T10:42:35.647Z</time></trkpt><trkpt lat="42.2378275" lon="13.769778"><ele>806.8333333333334</ele><time>2026-05-02T10:42:36.644Z</time></trkpt><trkpt lat="42.2377673" lon="13.7698129"><ele>809.6666666666667</ele><time>2026-05-02T10:42:37.644Z</time></trkpt><trkpt lat="42.237706" lon="13.7698379"><ele>812.5</ele><time>2026-05-02T10:42:38.647Z</time></trkpt><trkpt lat="42.2376427" lon="13.769859"><ele>815.3333333333334</ele><time>2026-05-02T10:42:39.648Z</time></trkpt><trkpt lat="42.2375212" lon="13.7698994"><ele>818.1666666666667</ele><time>2026-05-02T10:42:41.647Z</time></trkpt><trkpt lat="42.2374564" lon="13.769911"><ele>821.0</ele><time>2026-05-02T10:42:42.645Z</time></trkpt><trkpt lat="42.2373878" lon="13.769918"><ele>821.0000000000001</ele><time>2026-05-02T10:42:43.644Z</time></trkpt><trkpt lat="42.2373217" lon="13.7699352"><ele>821.0</ele><time>2026-05-02T10:42:44.647Z</time></trkpt><trkpt lat="42.2372046" lon="13.7699663"><ele>821.0</ele><time>2026-05-02T10:42:46.645Z</time></trkpt><trkpt lat="42.2370887" lon="13.7700337"><ele>821.0</ele><time>2026-05-02T10:42:48.647Z</time></trkpt><trkpt lat="42.2370351" lon="13.7700858"><ele>821.0000000000001</ele><time>2026-05-02T10:42:49.648Z</time></trkpt><trkpt lat="42.2369842" lon="13.7701417"><ele>821.0</ele><time>2026-05-02T10:42:50.647Z</time></trkpt><trkpt lat="42.2369042" lon="13.770248"><ele>822.4</ele><time>2026-05-02T10:42:52.642Z</time></trkpt><trkpt lat="42.2368416" lon="13.7703375"><ele>823.8</ele><time>2026-05-02T10:42:54.643Z</time></trkpt><trkpt lat="42.2367509" lon="13.7704006"><ele>825.1999999999999</ele><time>2026-05-02T10:42:56.646Z</time></trkpt><trkpt lat="42.2366513" lon="13.7704416"><ele>826.5999999999999</ele><time>2026-05-02T10:42:58.644Z</time></trkpt><trkpt lat="42.2365337" lon="13.7704914"><ele>828.0</ele><time>2026-05-02T10:43:00.647Z</time></trkpt><trkpt lat="42.2364106" lon="13.7705256"><ele>829.1666666666666</ele><time>2026-05-02T10:43:02.644Z</time></trkpt><trkpt lat="42.2363433" lon="13.7705455"><ele>830.3333333333333</ele><time>2026-05-02T10:43:03.646Z</time></trkpt><trkpt lat="42.2362618" lon="13.7705622"><ele>831.5</ele><time>2026-05-02T10:43:04.647Z</time></trkpt><trkpt lat="42.2361771" lon="13.7705771"><ele>832.6666666666666</ele><time>2026-05-02T10:43:05.647Z</time></trkpt><trkpt lat="42.2360997" lon="13.7705984"><ele>833.8333333333333</ele><time>2026-05-02T10:43:06.647Z</time></trkpt><trkpt lat="42.2360278" lon="13.7706279"><ele>835.0</ele><time>2026-05-02T10:43:07.647Z</time></trkpt><trkpt lat="42.2359191" lon="13.7706842"><ele>835.0</ele><time>2026-05-02T10:43:09.646Z</time></trkpt><trkpt lat="42.2358684" lon="13.7707505"><ele>835.0</ele><time>2026-05-02T10:43:11.643Z</time></trkpt><trkpt lat="42.2358651" lon="13.7708389"><ele>835.0</ele><time>2026-05-02T10:43:36.645Z</time></trkpt><trkpt lat="42.2358552" lon="13.7709769"><ele>835.0</ele><time>2026-05-02T10:43:38.647Z</time></trkpt><trkpt lat="42.2358806" lon="13.7711285"><ele>835.0</ele><time>2026-05-02T10:43:40.648Z</time></trkpt><trkpt lat="42.2359022" lon="13.7712591"><ele>834.8</ele><time>2026-05-02T10:43:42.644Z</time></trkpt><trkpt lat="42.2359067" lon="13.7713818"><ele>834.6</ele><time>2026-05-02T10:43:44.644Z</time></trkpt><trkpt lat="42.2359112" lon="13.7714898"><ele>834.4000000000001</ele><time>2026-05-02T10:43:46.646Z</time></trkpt><trkpt lat="42.2359196" lon="13.771623"><ele>834.2</ele><time>2026-05-02T10:43:48.647Z</time></trkpt><trkpt lat="42.2359079" lon="13.7717546"><ele>834.0</ele><time>2026-05-02T10:43:50.646Z</time></trkpt><trkpt lat="42.2358732" lon="13.771903"><ele>834.0</ele><time>2026-05-02T10:43:52.647Z</time></trkpt><trkpt lat="42.2358455" lon="13.771987"><ele>834.0</ele><time>2026-05-02T10:43:53.645Z</time></trkpt><trkpt lat="42.2358141" lon="13.7720625"><ele>834.0</ele><time>2026-05-02T10:43:54.647Z</time></trkpt><trkpt lat="42.2357403" lon="13.7721847"><ele>834.0</ele><time>2026-05-02T10:43:56.643Z</time></trkpt><trkpt lat="42.2356449" lon="13.7723143"><ele>834.0</ele><time>2026-05-02T10:43:58.643Z</time></trkpt><trkpt lat="42.2355968" lon="13.7723917"><ele>834.8571428571429</ele><time>2026-05-02T10:43:59.647Z</time></trkpt><trkpt lat="42.2355582" lon="13.7724708"><ele>835.7142857142857</ele><time>2026-05-02T10:44:00.643Z</time></trkpt><trkpt lat="42.2355263" lon="13.7725507"><ele>836.5714285714286</ele><time>2026-05-02T10:44:01.645Z</time></trkpt><trkpt lat="42.2354898" lon="13.7726279"><ele>837.4285714285714</ele><time>2026-05-02T10:44:02.647Z</time></trkpt><trkpt lat="42.2354474" lon="13.7726978"><ele>838.2857142857142</ele><time>2026-05-02T10:44:03.642Z</time></trkpt><trkpt lat="42.2353892" lon="13.772771"><ele>839.1428571428571</ele><time>2026-05-02T10:44:04.648Z</time></trkpt><trkpt lat="42.235314" lon="13.7728468"><ele>840.0</ele><time>2026-05-02T10:44:05.647Z</time></trkpt><trkpt lat="42.2352411" lon="13.7729203"><ele>840.0</ele><time>2026-05-02T10:44:06.648Z</time></trkpt><trkpt lat="42.2351792" lon="13.7729971"><ele>840.0</ele><time>2026-05-02T10:44:07.643Z</time></trkpt><trkpt lat="42.2351312" lon="13.7730774"><ele>840.0</ele><time>2026-05-02T10:44:08.643Z</time></trkpt><trkpt lat="42.2350908" lon="13.7731589"><ele>840.0</ele><time>2026-05-02T10:44:09.644Z</time></trkpt><trkpt lat="42.2350525" lon="13.7733001"><ele>840.0</ele><time>2026-05-02T10:44:11.646Z</time></trkpt><trkpt lat="42.2350389" lon="13.7734534"><ele>840.6666666666666</ele><time>2026-05-02T10:44:13.644Z</time></trkpt><trkpt lat="42.2350545" lon="13.7735697"><ele>841.3333333333333</ele><time>2026-05-02T10:44:14.645Z</time></trkpt><trkpt lat="42.2350758" lon="13.773689"><ele>842.0</ele><time>2026-05-02T10:44:15.647Z</time></trkpt><trkpt lat="42.2351007" lon="13.7737862"><ele>842.6666666666666</ele><time>2026-05-02T10:44:16.647Z</time></trkpt><trkpt lat="42.2351278" lon="13.7738742"><ele>843.3333333333333</ele><time>2026-05-02T10:44:17.648Z</time></trkpt><trkpt lat="42.2351685" lon="13.7739522"><ele>844.0</ele><time>2026-05-02T10:44:18.646Z</time></trkpt><trkpt lat="42.2352239" lon="13.774027"><ele>843.9999999999999</ele><time>2026-05-02T10:44:19.648Z</time></trkpt><trkpt lat="42.2352839" lon="13.7740938"><ele>844.0</ele><time>2026-05-02T10:44:20.645Z</time></trkpt><trkpt lat="42.2353397" lon="13.7741533"><ele>844.0</ele><time>2026-05-02T10:44:21.648Z</time></trkpt><trkpt lat="42.2353859" lon="13.7742115"><ele>844.0</ele><time>2026-05-02T10:44:22.643Z</time></trkpt><trkpt lat="42.235441" lon="13.7743479"><ele>843.9999999999999</ele><time>2026-05-02T10:44:24.646Z</time></trkpt><trkpt lat="42.2354594" lon="13.7744311"><ele>844.0</ele><time>2026-05-02T10:44:25.647Z</time></trkpt><trkpt lat="42.2354764" lon="13.7745269"><ele>843.6666666666666</ele><time>2026-05-02T10:44:26.641Z</time></trkpt><trkpt lat="42.2354938" lon="13.7746089"><ele>843.3333333333333</ele><time>2026-05-02T10:44:27.645Z</time></trkpt><trkpt lat="42.2355201" lon="13.7747268"><ele>843.0</ele><time>2026-05-02T10:44:29.644Z</time></trkpt><trkpt lat="42.2355302" lon="13.7748544"><ele>842.6666666666667</ele><time>2026-05-02T10:44:32.647Z</time></trkpt><trkpt lat="42.2355386" lon="13.7750131"><ele>842.3333333333334</ele><time>2026-05-02T10:44:34.646Z</time></trkpt><trkpt lat="42.2355314" lon="13.7751106"><ele>842.0</ele><time>2026-05-02T10:44:35.647Z</time></trkpt><trkpt lat="42.2355189" lon="13.7752201"><ele>842.0000000000001</ele><time>2026-05-02T10:44:36.648Z</time></trkpt><trkpt lat="42.2355051" lon="13.7753332"><ele>842.0</ele><time>2026-05-02T10:44:37.644Z</time></trkpt><trkpt lat="42.2354923" lon="13.7754393"><ele>842.0</ele><time>2026-05-02T10:44:38.647Z</time></trkpt><trkpt lat="42.2354732" lon="13.7755377"><ele>842.0</ele><time>2026-05-02T10:44:39.644Z</time></trkpt><trkpt lat="42.2354392" lon="13.7756401"><ele>842.0000000000001</ele><time>2026-05-02T10:44:40.644Z</time></trkpt><trkpt lat="42.2353954" lon="13.7757373"><ele>842.0</ele><time>2026-05-02T10:44:41.648Z</time></trkpt><trkpt lat="42.2353443" lon="13.7758234"><ele>842.0000000000001</ele><time>2026-05-02T10:44:42.647Z</time></trkpt><trkpt lat="42.2352863" lon="13.7758981"><ele>842.0</ele><time>2026-05-02T10:44:43.647Z</time></trkpt><trkpt lat="42.2352214" lon="13.7759582"><ele>842.0</ele><time>2026-05-02T10:44:44.645Z</time></trkpt><trkpt lat="42.2351524" lon="13.7760084"><ele>842.0</ele><time>2026-05-02T10:44:45.645Z</time></trkpt><trkpt lat="42.2350734" lon="13.7760504"><ele>842.0000000000001</ele><time>2026-05-02T10:44:46.648Z</time></trkpt><trkpt lat="42.234983" lon="13.7760829"><ele>842.0</ele><time>2026-05-02T10:44:47.645Z</time></trkpt><trkpt lat="42.2348911" lon="13.7761066"><ele>843.6666666666667</ele><time>2026-05-02T10:44:48.645Z</time></trkpt><trkpt lat="42.2348038" lon="13.7761296"><ele>845.3333333333334</ele><time>2026-05-02T10:44:49.644Z</time></trkpt><trkpt lat="42.2347261" lon="13.7761569"><ele>847.0</ele><time>2026-05-02T10:44:50.642Z</time></trkpt><trkpt lat="42.2346535" lon="13.7761792"><ele>848.6666666666667</ele><time>2026-05-02T10:44:51.642Z</time></trkpt><trkpt lat="42.2345825" lon="13.7761927"><ele>850.3333333333334</ele><time>2026-05-02T10:44:52.648Z</time></trkpt><trkpt lat="42.2345169" lon="13.7762112"><ele>852.0</ele><time>2026-05-02T10:44:53.642Z</time></trkpt><trkpt lat="42.2344246" lon="13.7763135"><ele>852.0</ele><time>2026-05-02T10:44:55.644Z</time></trkpt><trkpt lat="42.2343938" lon="13.7764455"><ele>852.0</ele><time>2026-05-02T10:44:57.644Z</time></trkpt><trkpt lat="42.2344308" lon="13.7765939"><ele>852.0</ele><time>2026-05-02T10:44:59.643Z</time></trkpt><trkpt lat="42.2344686" lon="13.7766661"><ele>852.0</ele><time>2026-05-02T10:45:00.647Z</time></trkpt><trkpt lat="42.2345118" lon="13.776742"><ele>852.0</ele><time>2026-05-02T10:45:01.648Z</time></trkpt><trkpt lat="42.2345557" lon="13.7768234"><ele>852.0</ele><time>2026-05-02T10:45:02.645Z</time></trkpt><trkpt lat="42.2345961" lon="13.7769111"><ele>853.0</ele><time>2026-05-02T10:45:03.648Z</time></trkpt><trkpt lat="42.234634" lon="13.7770032"><ele>854.0</ele><time>2026-05-02T10:45:04.643Z</time></trkpt><trkpt lat="42.2346785" lon="13.7770888"><ele>855.0</ele><time>2026-05-02T10:45:05.642Z</time></trkpt><trkpt lat="42.2347293" lon="13.7771606"><ele>856.0</ele><time>2026-05-02T10:45:06.647Z</time></trkpt><trkpt lat="42.2347792" lon="13.7772205"><ele>857.0</ele><time>2026-05-02T10:45:07.647Z</time></trkpt><trkpt lat="42.23483" lon="13.7772819"><ele>858.0</ele><time>2026-05-02T10:45:08.647Z</time></trkpt><trkpt lat="42.2349176" lon="13.7773874"><ele>856.8571428571429</ele><time>2026-05-02T10:45:10.647Z</time></trkpt><trkpt lat="42.234964" lon="13.777446"><ele>855.7142857142858</ele><time>2026-05-02T10:45:11.643Z</time></trkpt><trkpt lat="42.2350128" lon="13.7775189"><ele>854.5714285714286</ele><time>2026-05-02T10:45:12.647Z</time></trkpt><trkpt lat="42.2350608" lon="13.777589"><ele>853.4285714285714</ele><time>2026-05-02T10:45:13.646Z</time></trkpt><trkpt lat="42.2351122" lon="13.7776577"><ele>852.2857142857142</ele><time>2026-05-02T10:45:14.647Z</time></trkpt><trkpt lat="42.2351623" lon="13.7777269"><ele>851.1428571428571</ele><time>2026-05-02T10:45:15.647Z</time></trkpt><trkpt lat="42.2352097" lon="13.7777989"><ele>850.0</ele><time>2026-05-02T10:45:16.647Z</time></trkpt><trkpt lat="42.235249" lon="13.77788"><ele>849.9999999999999</ele><time>2026-05-02T10:45:17.644Z</time></trkpt><trkpt lat="42.2352796" lon="13.7779593"><ele>850.0</ele><time>2026-05-02T10:45:18.643Z</time></trkpt><trkpt lat="42.2353216" lon="13.7781103"><ele>850.0</ele><time>2026-05-02T10:45:20.647Z</time></trkpt><trkpt lat="42.2353275" lon="13.7782731"><ele>850.0</ele><time>2026-05-02T10:45:22.647Z</time></trkpt><trkpt lat="42.2353258" lon="13.7783661"><ele>849.9999999999999</ele><time>2026-05-02T10:45:23.645Z</time></trkpt><trkpt lat="42.235322" lon="13.7784612"><ele>850.0</ele><time>2026-05-02T10:45:24.648Z</time></trkpt><trkpt lat="42.2353107" lon="13.7785559"><ele>849.8333333333333</ele><time>2026-05-02T10:45:25.643Z</time></trkpt><trkpt lat="42.2352879" lon="13.7786498"><ele>849.6666666666666</ele><time>2026-05-02T10:45:26.645Z</time></trkpt><trkpt lat="42.2352575" lon="13.7787385"><ele>849.5</ele><time>2026-05-02T10:45:27.647Z</time></trkpt><trkpt lat="42.2352244" lon="13.7788135"><ele>849.3333333333333</ele><time>2026-05-02T10:45:28.644Z</time></trkpt><trkpt lat="42.2351517" lon="13.7789347"><ele>849.1666666666666</ele><time>2026-05-02T10:45:30.643Z</time></trkpt><trkpt lat="42.2351056" lon="13.7789955"><ele>849.0</ele><time>2026-05-02T10:45:31.644Z</time></trkpt><trkpt lat="42.2350575" lon="13.779057"><ele>849.0000000000001</ele><time>2026-05-02T10:45:32.642Z</time></trkpt><trkpt lat="42.2350063" lon="13.779118"><ele>849.0</ele><time>2026-05-02T10:45:33.647Z</time></trkpt><trkpt lat="42.2349532" lon="13.7791811"><ele>849.0</ele><time>2026-05-02T10:45:34.646Z</time></trkpt><trkpt lat="42.2348976" lon="13.7792419"><ele>849.0</ele><time>2026-05-02T10:45:35.647Z</time></trkpt><trkpt lat="42.2348382" lon="13.7793036"><ele>849.0</ele><time>2026-05-02T10:45:36.646Z</time></trkpt><trkpt lat="42.2347779" lon="13.7793633"><ele>849.0000000000001</ele><time>2026-05-02T10:45:37.644Z</time></trkpt><trkpt lat="42.2347178" lon="13.7794165"><ele>849.0</ele><time>2026-05-02T10:45:38.647Z</time></trkpt><trkpt lat="42.234652" lon="13.7794717"><ele>848.8333333333334</ele><time>2026-05-02T10:45:39.648Z</time></trkpt><trkpt lat="42.2345832" lon="13.7795313"><ele>848.6666666666667</ele><time>2026-05-02T10:45:40.646Z</time></trkpt><trkpt lat="42.2345135" lon="13.7795935"><ele>848.5</ele><time>2026-05-02T10:45:41.648Z</time></trkpt><trkpt lat="42.2344428" lon="13.7796568"><ele>848.3333333333334</ele><time>2026-05-02T10:45:42.645Z</time></trkpt><trkpt lat="42.2343774" lon="13.7797144"><ele>848.1666666666667</ele><time>2026-05-02T10:45:43.647Z</time></trkpt><trkpt lat="42.2343194" lon="13.7797632"><ele>848.0</ele><time>2026-05-02T10:45:44.645Z</time></trkpt><trkpt lat="42.2342071" lon="13.7798354"><ele>848.0000000000001</ele><time>2026-05-02T10:45:46.647Z</time></trkpt><trkpt lat="42.2341453" lon="13.779867"><ele>848.0</ele><time>2026-05-02T10:45:47.647Z</time></trkpt><trkpt lat="42.2340845" lon="13.7798924"><ele>848.0</ele><time>2026-05-02T10:45:48.645Z</time></trkpt><trkpt lat="42.2339763" lon="13.7799476"><ele>848.0</ele><time>2026-05-02T10:45:50.643Z</time></trkpt><trkpt lat="42.2339256" lon="13.7800099"><ele>848.0000000000001</ele><time>2026-05-02T10:45:52.647Z</time></trkpt><trkpt lat="42.2338978" lon="13.7801074"><ele>848.0</ele><time>2026-05-02T10:45:54.647Z</time></trkpt><trkpt lat="42.2339186" lon="13.7802273"><ele>847.0</ele><time>2026-05-02T10:45:56.647Z</time></trkpt><trkpt lat="42.2339663" lon="13.7803256"><ele>846.0</ele><time>2026-05-02T10:45:58.646Z</time></trkpt><trkpt lat="42.2339956" lon="13.7804226"><ele>845.0</ele><time>2026-05-02T10:46:00.648Z</time></trkpt><trkpt lat="42.2340123" lon="13.7805284"><ele>844.0</ele><time>2026-05-02T10:46:02.644Z</time></trkpt><trkpt lat="42.2340261" lon="13.7806566"><ele>843.0</ele><time>2026-05-02T10:46:04.647Z</time></trkpt><trkpt lat="42.2340237" lon="13.7808099"><ele>843.0</ele><time>2026-05-02T10:46:06.643Z</time></trkpt><trkpt lat="42.2340195" lon="13.7809022"><ele>843.0</ele><time>2026-05-02T10:46:07.646Z</time></trkpt><trkpt lat="42.2340174" lon="13.7809962"><ele>843.0</ele><time>2026-05-02T10:46:08.648Z</time></trkpt><trkpt lat="42.2340152" lon="13.7810822"><ele>843.0</ele><time>2026-05-02T10:46:09.647Z</time></trkpt><trkpt lat="42.2340134" lon="13.7812395"><ele>843.0</ele><time>2026-05-02T10:46:11.644Z</time></trkpt><trkpt lat="42.2340238" lon="13.7814004"><ele>843.0</ele><time>2026-05-02T10:46:13.644Z</time></trkpt><trkpt lat="42.2340426" lon="13.7815382"><ele>843.1666666666666</ele><time>2026-05-02T10:46:15.645Z</time></trkpt><trkpt lat="42.234059" lon="13.7816358"><ele>843.3333333333333</ele><time>2026-05-02T10:46:17.646Z</time></trkpt><trkpt lat="42.2339988" lon="13.7816663"><ele>843.5</ele><time>2026-05-02T10:46:22.647Z</time></trkpt><trkpt lat="42.2339576" lon="13.7815965"><ele>843.6666666666666</ele><time>2026-05-02T10:46:24.643Z</time></trkpt><trkpt lat="42.233912" lon="13.7814487"><ele>843.8333333333333</ele><time>2026-05-02T10:46:26.646Z</time></trkpt><trkpt lat="42.2338828" lon="13.7813598"><ele>844.0</ele><time>2026-05-02T10:46:27.647Z</time></trkpt><trkpt lat="42.2338435" lon="13.7812734"><ele>844.0</ele><time>2026-05-02T10:46:28.648Z</time></trkpt><trkpt lat="42.2337993" lon="13.7811926"><ele>844.0</ele><time>2026-05-02T10:46:29.644Z</time></trkpt><trkpt lat="42.2337557" lon="13.781118"><ele>844.0</ele><time>2026-05-02T10:46:30.646Z</time></trkpt><trkpt lat="42.2337071" lon="13.7810463"><ele>844.0</ele><time>2026-05-02T10:46:31.645Z</time></trkpt><trkpt lat="42.2336551" lon="13.7809748"><ele>844.0</ele><time>2026-05-02T10:46:32.645Z</time></trkpt><trkpt lat="42.2336097" lon="13.780906"><ele>844.0</ele><time>2026-05-02T10:46:33.647Z</time></trkpt><trkpt lat="42.2335692" lon="13.780837"><ele>844.0</ele><time>2026-05-02T10:46:34.643Z</time></trkpt><trkpt lat="42.2335269" lon="13.7807607"><ele>845.8333333333333</ele><time>2026-05-02T10:46:35.645Z</time></trkpt><trkpt lat="42.2334821" lon="13.7806908"><ele>847.6666666666666</ele><time>2026-05-02T10:46:36.642Z</time></trkpt><trkpt lat="42.2334349" lon="13.780631"><ele>849.5</ele><time>2026-05-02T10:46:37.644Z</time></trkpt><trkpt lat="42.2333826" lon="13.7805718"><ele>851.3333333333333</ele><time>2026-05-02T10:46:38.643Z</time></trkpt><trkpt lat="42.233332" lon="13.7805142"><ele>853.1666666666666</ele><time>2026-05-02T10:46:39.647Z</time></trkpt><trkpt lat="42.2332371" lon="13.7804175"><ele>855.0</ele><time>2026-05-02T10:46:41.647Z</time></trkpt><trkpt lat="42.2331567" lon="13.7803092"><ele>856.8</ele><time>2026-05-02T10:46:43.647Z</time></trkpt><trkpt lat="42.2330968" lon="13.780202"><ele>858.6</ele><time>2026-05-02T10:46:45.641Z</time></trkpt><trkpt lat="42.2330332" lon="13.7800798"><ele>860.4000000000001</ele><time>2026-05-02T10:46:47.643Z</time></trkpt><trkpt lat="42.2329595" lon="13.7799575"><ele>862.2</ele><time>2026-05-02T10:46:49.642Z</time></trkpt><trkpt lat="42.2328833" lon="13.7798493"><ele>864.0</ele><time>2026-05-02T10:46:51.644Z</time></trkpt><trkpt lat="42.2327928" lon="13.7797481"><ele>866.0</ele><time>2026-05-02T10:46:53.643Z</time></trkpt><trkpt lat="42.2327032" lon="13.7796502"><ele>868.0</ele><time>2026-05-02T10:46:55.642Z</time></trkpt><trkpt lat="42.2326068" lon="13.7795733"><ele>870.0</ele><time>2026-05-02T10:46:57.644Z</time></trkpt><trkpt lat="42.2325099" lon="13.7795075"><ele>872.0</ele><time>2026-05-02T10:46:59.645Z</time></trkpt><trkpt lat="42.2323984" lon="13.77946"><ele>873.5000000000001</ele><time>2026-05-02T10:47:01.644Z</time></trkpt><trkpt lat="42.2322803" lon="13.7794159"><ele>875.0</ele><time>2026-05-02T10:47:03.646Z</time></trkpt><trkpt lat="42.2322142" lon="13.7793892"><ele>876.5</ele><time>2026-05-02T10:47:04.647Z</time></trkpt><trkpt lat="42.2321452" lon="13.7793613"><ele>878.0</ele><time>2026-05-02T10:47:05.644Z</time></trkpt><trkpt lat="42.2320739" lon="13.7793368"><ele>879.5000000000001</ele><time>2026-05-02T10:47:06.648Z</time></trkpt><trkpt lat="42.2320045" lon="13.7793157"><ele>881.0</ele><time>2026-05-02T10:47:07.648Z</time></trkpt><trkpt lat="42.2319355" lon="13.7792906"><ele>881.8571428571428</ele><time>2026-05-02T10:47:08.647Z</time></trkpt><trkpt lat="42.2318677" lon="13.7792604"><ele>882.7142857142858</ele><time>2026-05-02T10:47:09.645Z</time></trkpt><trkpt lat="42.2318036" lon="13.779227"><ele>883.5714285714286</ele><time>2026-05-02T10:47:10.646Z</time></trkpt><trkpt lat="42.2317416" lon="13.7791898"><ele>884.4285714285713</ele><time>2026-05-02T10:47:11.645Z</time></trkpt><trkpt lat="42.2316812" lon="13.7791453"><ele>885.2857142857142</ele><time>2026-05-02T10:47:12.648Z</time></trkpt><trkpt lat="42.2316186" lon="13.7790954"><ele>886.1428571428571</ele><time>2026-05-02T10:47:13.641Z</time></trkpt><trkpt lat="42.2315583" lon="13.7790448"><ele>887.0</ele><time>2026-05-02T10:47:14.648Z</time></trkpt><trkpt lat="42.2315023" lon="13.7789998"><ele>888.75</ele><time>2026-05-02T10:47:15.647Z</time></trkpt><trkpt lat="42.2314151" lon="13.7789275"><ele>890.5</ele><time>2026-05-02T10:47:17.645Z</time></trkpt><trkpt lat="42.2313346" lon="13.7788294"><ele>892.25</ele><time>2026-05-02T10:47:19.645Z</time></trkpt><trkpt lat="42.2312645" lon="13.7787023"><ele>894.0</ele><time>2026-05-02T10:47:21.646Z</time></trkpt><trkpt lat="42.2311739" lon="13.7785873"><ele>894.0</ele><time>2026-05-02T10:47:23.646Z</time></trkpt><trkpt lat="42.2310801" lon="13.7785109"><ele>894.0000000000001</ele><time>2026-05-02T10:47:25.644Z</time></trkpt><trkpt lat="42.2309705" lon="13.778518"><ele>894.0000000000001</ele><time>2026-05-02T10:47:27.645Z</time></trkpt><trkpt lat="42.2308662" lon="13.7785637"><ele>894.0</ele><time>2026-05-02T10:47:29.644Z</time></trkpt><trkpt lat="42.2307601" lon="13.7785304"><ele>894.0</ele><time>2026-05-02T10:47:31.646Z</time></trkpt><trkpt lat="42.2307018" lon="13.7784971"><ele>895.7142857142857</ele><time>2026-05-02T10:47:32.645Z</time></trkpt><trkpt lat="42.2306429" lon="13.7784604"><ele>897.4285714285713</ele><time>2026-05-02T10:47:33.643Z</time></trkpt><trkpt lat="42.2305822" lon="13.778422"><ele>899.1428571428571</ele><time>2026-05-02T10:47:34.647Z</time></trkpt><trkpt lat="42.2305189" lon="13.7783887"><ele>900.8571428571428</ele><time>2026-05-02T10:47:35.645Z</time></trkpt><trkpt lat="42.2304569" lon="13.7783528"><ele>902.5714285714286</ele><time>2026-05-02T10:47:36.645Z</time></trkpt><trkpt lat="42.2303987" lon="13.7783073"><ele>904.2857142857141</ele><time>2026-05-02T10:47:37.648Z</time></trkpt><trkpt lat="42.2303391" lon="13.7782732"><ele>905.9999999999999</ele><time>2026-05-02T10:47:38.645Z</time></trkpt><trkpt lat="42.2302195" lon="13.7782623"><ele>907.5999999999999</ele><time>2026-05-02T10:47:40.646Z</time></trkpt><trkpt lat="42.2300958" lon="13.7782923"><ele>909.1999999999999</ele><time>2026-05-02T10:47:42.641Z</time></trkpt><trkpt lat="42.2299842" lon="13.7782715"><ele>910.8000000000001</ele><time>2026-05-02T10:47:44.643Z</time></trkpt><trkpt lat="42.2298669" lon="13.7781936"><ele>912.4000000000001</ele><time>2026-05-02T10:47:46.642Z</time></trkpt><trkpt lat="42.2298083" lon="13.7781435"><ele>914.0</ele><time>2026-05-02T10:47:47.645Z</time></trkpt><trkpt lat="42.229749" lon="13.7780902"><ele>914.5000000000001</ele><time>2026-05-02T10:47:48.647Z</time></trkpt><trkpt lat="42.2296827" lon="13.7780412"><ele>915.0</ele><time>2026-05-02T10:47:49.645Z</time></trkpt><trkpt lat="42.2296146" lon="13.7779948"><ele>915.5</ele><time>2026-05-02T10:47:50.641Z</time></trkpt><trkpt lat="42.2295442" lon="13.7779497"><ele>916.0</ele><time>2026-05-02T10:47:51.643Z</time></trkpt><trkpt lat="42.229477" lon="13.777911"><ele>916.5000000000001</ele><time>2026-05-02T10:47:52.642Z</time></trkpt><trkpt lat="42.2293784" lon="13.7778567"><ele>917.0</ele><time>2026-05-02T10:47:54.646Z</time></trkpt><trkpt lat="42.2292806" lon="13.7778771"><ele>917.0</ele><time>2026-05-02T10:47:56.647Z</time></trkpt><trkpt lat="42.2291685" lon="13.7779381"><ele>917.0</ele><time>2026-05-02T10:47:58.645Z</time></trkpt><trkpt lat="42.2290524" lon="13.7779571"><ele>917.0</ele><time>2026-05-02T10:48:00.647Z</time></trkpt><trkpt lat="42.2289324" lon="13.7779295"><ele>917.0</ele><time>2026-05-02T10:48:02.646Z</time></trkpt><trkpt lat="42.2288401" lon="13.7778557"><ele>917.2</ele><time>2026-05-02T10:48:04.647Z</time></trkpt><trkpt lat="42.2287568" lon="13.7777292"><ele>917.4000000000001</ele><time>2026-05-02T10:48:06.644Z</time></trkpt><trkpt lat="42.2287185" lon="13.7776538"><ele>917.5999999999999</ele><time>2026-05-02T10:48:07.647Z</time></trkpt><trkpt lat="42.2286462" lon="13.7775458"><ele>917.8</ele><time>2026-05-02T10:48:09.644Z</time></trkpt><trkpt lat="42.2285523" lon="13.7774814"><ele>918.0</ele><time>2026-05-02T10:48:11.643Z</time></trkpt><trkpt lat="42.228431" lon="13.7774732"><ele>918.0</ele><time>2026-05-02T10:48:13.645Z</time></trkpt><trkpt lat="42.2283653" lon="13.7774775"><ele>918.0</ele><time>2026-05-02T10:48:14.644Z</time></trkpt><trkpt lat="42.2283014" lon="13.7774768"><ele>918.0</ele><time>2026-05-02T10:48:15.645Z</time></trkpt><trkpt lat="42.2281878" lon="13.777493"><ele>918.0</ele><time>2026-05-02T10:48:17.642Z</time></trkpt><trkpt lat="42.228089" lon="13.7775125"><ele>918.0</ele><time>2026-05-02T10:48:19.645Z</time></trkpt><trkpt lat="42.2279895" lon="13.777545"><ele>918.0</ele><time>2026-05-02T10:48:21.645Z</time></trkpt><trkpt lat="42.2278853" lon="13.7776102"><ele>918.0</ele><time>2026-05-02T10:48:23.642Z</time></trkpt><trkpt lat="42.227827" lon="13.7776494"><ele>918.0</ele><time>2026-05-02T10:48:24.644Z</time></trkpt><trkpt lat="42.22772" lon="13.7777351"><ele>918.0</ele><time>2026-05-02T10:48:26.645Z</time></trkpt><trkpt lat="42.2276618" lon="13.7777866"><ele>918.0</ele><time>2026-05-02T10:48:27.642Z</time></trkpt><trkpt lat="42.2275924" lon="13.7778452"><ele>918.0</ele><time>2026-05-02T10:48:28.648Z</time></trkpt><trkpt lat="42.227522" lon="13.7779085"><ele>918.0</ele><time>2026-05-02T10:48:29.645Z</time></trkpt><trkpt lat="42.2274494" lon="13.7779695"><ele>918.2</ele><time>2026-05-02T10:48:30.647Z</time></trkpt><trkpt lat="42.227368" lon="13.7780396"><ele>918.4</ele><time>2026-05-02T10:48:31.643Z</time></trkpt><trkpt lat="42.227277" lon="13.7781297"><ele>918.6000000000001</ele><time>2026-05-02T10:48:32.645Z</time></trkpt><trkpt lat="42.2271827" lon="13.7782238"><ele>918.8000000000001</ele><time>2026-05-02T10:48:33.648Z</time></trkpt><trkpt lat="42.227085" lon="13.7783175"><ele>919.0</ele><time>2026-05-02T10:48:34.646Z</time></trkpt><trkpt lat="42.226982" lon="13.7784088"><ele>919.0</ele><time>2026-05-02T10:48:35.647Z</time></trkpt><trkpt lat="42.2268798" lon="13.7784977"><ele>919.0</ele><time>2026-05-02T10:48:36.644Z</time></trkpt><trkpt lat="42.2267824" lon="13.7785788"><ele>919.0</ele><time>2026-05-02T10:48:37.643Z</time></trkpt><trkpt lat="42.2266869" lon="13.7786551"><ele>919.0</ele><time>2026-05-02T10:48:38.647Z</time></trkpt><trkpt lat="42.226591" lon="13.7787362"><ele>919.5</ele><time>2026-05-02T10:48:39.647Z</time></trkpt><trkpt lat="42.2264946" lon="13.7788229"><ele>920.0</ele><time>2026-05-02T10:48:40.642Z</time></trkpt><trkpt lat="42.2263982" lon="13.7789179"><ele>920.5</ele><time>2026-05-02T10:48:41.648Z</time></trkpt><trkpt lat="42.226304" lon="13.7790218"><ele>921.0</ele><time>2026-05-02T10:48:42.646Z</time></trkpt><trkpt lat="42.2262142" lon="13.7791275"><ele>920.1999999999999</ele><time>2026-05-02T10:48:43.647Z</time></trkpt><trkpt lat="42.2261315" lon="13.779229"><ele>919.3999999999999</ele><time>2026-05-02T10:48:44.646Z</time></trkpt><trkpt lat="42.2260545" lon="13.7793338"><ele>918.6</ele><time>2026-05-02T10:48:45.648Z</time></trkpt><trkpt lat="42.225981" lon="13.7794445"><ele>917.8</ele><time>2026-05-02T10:48:46.644Z</time></trkpt><trkpt lat="42.225913" lon="13.7795578"><ele>917.0</ele><time>2026-05-02T10:48:47.645Z</time></trkpt><trkpt lat="42.225846" lon="13.7796654"><ele>917.0</ele><time>2026-05-02T10:48:48.645Z</time></trkpt><trkpt lat="42.2257767" lon="13.7797627"><ele>917.0</ele><time>2026-05-02T10:48:49.644Z</time></trkpt><trkpt lat="42.2257044" lon="13.7798612"><ele>917.0</ele><time>2026-05-02T10:48:50.647Z</time></trkpt><trkpt lat="42.2256254" lon="13.7799781"><ele>917.0</ele><time>2026-05-02T10:48:51.644Z</time></trkpt><trkpt lat="42.225541" lon="13.7801076"><ele>917.0</ele><time>2026-05-02T10:48:52.646Z</time></trkpt><trkpt lat="42.2254593" lon="13.7802342"><ele>915.0</ele><time>2026-05-02T10:48:53.646Z</time></trkpt><trkpt lat="42.2253869" lon="13.7803554"><ele>913.0</ele><time>2026-05-02T10:48:54.647Z</time></trkpt><trkpt lat="42.2253214" lon="13.7804774"><ele>911.0</ele><time>2026-05-02T10:48:55.64Z</time></trkpt><trkpt lat="42.22526" lon="13.7806005"><ele>909.0</ele><time>2026-05-02T10:48:56.644Z</time></trkpt><trkpt lat="42.2251985" lon="13.7807202"><ele>907.0</ele><time>2026-05-02T10:48:57.647Z</time></trkpt><trkpt lat="42.2251327" lon="13.7808338"><ele>907.0</ele><time>2026-05-02T10:48:58.644Z</time></trkpt><trkpt lat="42.2250635" lon="13.78094"><ele>907.0</ele><time>2026-05-02T10:48:59.643Z</time></trkpt><trkpt lat="42.224991" lon="13.781039"><ele>907.0</ele><time>2026-05-02T10:49:00.643Z</time></trkpt><trkpt lat="42.2249175" lon="13.7811328"><ele>907.0</ele><time>2026-05-02T10:49:01.648Z</time></trkpt><trkpt lat="42.2248473" lon="13.7812221"><ele>907.0</ele><time>2026-05-02T10:49:02.647Z</time></trkpt><trkpt lat="42.2247846" lon="13.7813057"><ele>903.2</ele><time>2026-05-02T10:49:03.647Z</time></trkpt><trkpt lat="42.2247313" lon="13.781398"><ele>899.4000000000001</ele><time>2026-05-02T10:49:04.647Z</time></trkpt><trkpt lat="42.2246896" lon="13.7815069"><ele>895.5999999999999</ele><time>2026-05-02T10:49:05.646Z</time></trkpt><trkpt lat="42.2246615" lon="13.78163"><ele>891.8</ele><time>2026-05-02T10:49:06.646Z</time></trkpt><trkpt lat="42.2246402" lon="13.781759"><ele>888.0</ele><time>2026-05-02T10:49:07.643Z</time></trkpt><trkpt lat="42.2246065" lon="13.7818922"><ele>887.5</ele><time>2026-05-02T10:49:08.647Z</time></trkpt><trkpt lat="42.2245502" lon="13.7820217"><ele>887.0</ele><time>2026-05-02T10:49:09.646Z</time></trkpt><trkpt lat="42.2244807" lon="13.7821474"><ele>886.5</ele><time>2026-05-02T10:49:10.644Z</time></trkpt><trkpt lat="42.2244187" lon="13.7822836"><ele>886.0</ele><time>2026-05-02T10:49:11.647Z</time></trkpt><trkpt lat="42.2243702" lon="13.7824285"><ele>886.0</ele><time>2026-05-02T10:49:12.645Z</time></trkpt><trkpt lat="42.2243334" lon="13.7825642"><ele>885.9999999999999</ele><time>2026-05-02T10:49:13.647Z</time></trkpt><trkpt lat="42.2243133" lon="13.7826925"><ele>885.9999999999999</ele><time>2026-05-02T10:49:14.646Z</time></trkpt><trkpt lat="42.2243095" lon="13.7828086"><ele>886.0</ele><time>2026-05-02T10:49:15.648Z</time></trkpt><trkpt lat="42.2242917" lon="13.7829352"><ele>886.0</ele><time>2026-05-02T10:49:17.646Z</time></trkpt><trkpt lat="42.2242069" lon="13.7829242"><ele>886.0</ele><time>2026-05-02T10:49:19.647Z</time></trkpt><trkpt lat="42.2241565" lon="13.7828642"><ele>885.9999999999999</ele><time>2026-05-02T10:49:20.648Z</time></trkpt><trkpt lat="42.2241047" lon="13.7827545"><ele>885.9999999999999</ele><time>2026-05-02T10:49:21.644Z</time></trkpt><trkpt lat="42.2240538" lon="13.7826244"><ele>886.0</ele><time>2026-05-02T10:49:22.646Z</time></trkpt><trkpt lat="42.2240013" lon="13.7825085"><ele>886.0</ele><time>2026-05-02T10:49:23.644Z</time></trkpt><trkpt lat="42.2239469" lon="13.7823984"><ele>880.4</ele><time>2026-05-02T10:49:24.648Z</time></trkpt><trkpt lat="42.2239046" lon="13.782281"><ele>874.8</ele><time>2026-05-02T10:49:25.646Z</time></trkpt><trkpt lat="42.2238679" lon="13.7821612"><ele>869.1999999999999</ele><time>2026-05-02T10:49:26.647Z</time></trkpt><trkpt lat="42.223825" lon="13.7820481"><ele>863.5999999999999</ele><time>2026-05-02T10:49:27.647Z</time></trkpt><trkpt lat="42.2237866" lon="13.7819492"><ele>858.0</ele><time>2026-05-02T10:49:28.643Z</time></trkpt><trkpt lat="42.2237278" lon="13.7818605"><ele>858.0</ele><time>2026-05-02T10:49:30.643Z</time></trkpt><trkpt lat="42.2236796" lon="13.7819329"><ele>858.0</ele><time>2026-05-02T10:49:32.645Z</time></trkpt><trkpt lat="42.2236616" lon="13.7821054"><ele>858.0</ele><time>2026-05-02T10:49:34.647Z</time></trkpt><trkpt lat="42.2236466" lon="13.7822235"><ele>858.0</ele><time>2026-05-02T10:49:35.647Z</time></trkpt><trkpt lat="42.2236251" lon="13.7823427"><ele>858.0</ele><time>2026-05-02T10:49:36.644Z</time></trkpt><trkpt lat="42.2236084" lon="13.7824607"><ele>858.0</ele><time>2026-05-02T10:49:37.643Z</time></trkpt><trkpt lat="42.2235955" lon="13.7825587"><ele>858.0</ele><time>2026-05-02T10:49:38.645Z</time></trkpt><trkpt lat="42.2235524" lon="13.782628"><ele>858.0</ele><time>2026-05-02T10:49:40.644Z</time></trkpt><trkpt lat="42.2234844" lon="13.7825494"><ele>858.0</ele><time>2026-05-02T10:49:42.647Z</time></trkpt><trkpt lat="42.2234274" lon="13.7824035"><ele>858.0</ele><time>2026-05-02T10:49:44.644Z</time></trkpt><trkpt lat="42.2233943" lon="13.7823216"><ele>858.0</ele><time>2026-05-02T10:49:45.646Z</time></trkpt><trkpt lat="42.2233593" lon="13.7822373"><ele>858.0</ele><time>2026-05-02T10:49:46.645Z</time></trkpt><trkpt lat="42.2233343" lon="13.7821411"><ele>858.0</ele><time>2026-05-02T10:49:47.646Z</time></trkpt><trkpt lat="42.2233006" lon="13.782017"><ele>858.0</ele><time>2026-05-02T10:49:49.645Z</time></trkpt><trkpt lat="42.2231979" lon="13.7820521"><ele>858.0</ele><time>2026-05-02T10:49:52.648Z</time></trkpt><trkpt lat="42.2231458" lon="13.7821402"><ele>858.0</ele><time>2026-05-02T10:49:53.645Z</time></trkpt><trkpt lat="42.2230862" lon="13.7822411"><ele>857.0</ele><time>2026-05-02T10:49:54.644Z</time></trkpt><trkpt lat="42.2230161" lon="13.7823311"><ele>856.0</ele><time>2026-05-02T10:49:55.644Z</time></trkpt><trkpt lat="42.2229495" lon="13.7824047"><ele>855.0</ele><time>2026-05-02T10:49:56.647Z</time></trkpt><trkpt lat="42.2228389" lon="13.7824697"><ele>854.0</ele><time>2026-05-02T10:49:58.647Z</time></trkpt><trkpt lat="42.2227749" lon="13.7824699"><ele>853.0</ele><time>2026-05-02T10:49:59.647Z</time></trkpt><trkpt lat="42.2227095" lon="13.7824409"><ele>852.0</ele><time>2026-05-02T10:50:00.643Z</time></trkpt><trkpt lat="42.2226446" lon="13.7823864"><ele>852.0</ele><time>2026-05-02T10:50:01.647Z</time></trkpt><trkpt lat="42.2225688" lon="13.7823024"><ele>852.0</ele><time>2026-05-02T10:50:02.643Z</time></trkpt><trkpt lat="42.2224762" lon="13.782201"><ele>852.0</ele><time>2026-05-02T10:50:03.642Z</time></trkpt><trkpt lat="42.2223804" lon="13.7820995"><ele>852.0</ele><time>2026-05-02T10:50:04.647Z</time></trkpt><trkpt lat="42.2222815" lon="13.781998"><ele>853.0</ele><time>2026-05-02T10:50:05.642Z</time></trkpt><trkpt lat="42.2221972" lon="13.7819111"><ele>854.0</ele><time>2026-05-02T10:50:06.645Z</time></trkpt><trkpt lat="42.2221203" lon="13.7818236"><ele>855.0</ele><time>2026-05-02T10:50:07.643Z</time></trkpt><trkpt lat="42.2220616" lon="13.7817412"><ele>856.0</ele><time>2026-05-02T10:50:08.642Z</time></trkpt><trkpt lat="42.2220153" lon="13.781653"><ele>857.0</ele><time>2026-05-02T10:50:09.645Z</time></trkpt><trkpt lat="42.2219722" lon="13.7815452"><ele>857.0</ele><time>2026-05-02T10:50:10.645Z</time></trkpt><trkpt lat="42.2219299" lon="13.78142"><ele>857.0</ele><time>2026-05-02T10:50:11.645Z</time></trkpt><trkpt lat="42.2218899" lon="13.7812991"><ele>857.0</ele><time>2026-05-02T10:50:12.647Z</time></trkpt><trkpt lat="42.2218515" lon="13.7811694"><ele>857.0</ele><time>2026-05-02T10:50:13.644Z</time></trkpt><trkpt lat="42.2218167" lon="13.7810326"><ele>857.0</ele><time>2026-05-02T10:50:14.645Z</time></trkpt><trkpt lat="42.2217881" lon="13.7808918"><ele>856.2</ele><time>2026-05-02T10:50:15.642Z</time></trkpt><trkpt lat="42.2217562" lon="13.7807501"><ele>855.4000000000001</ele><time>2026-05-02T10:50:16.647Z</time></trkpt><trkpt lat="42.2217166" lon="13.7806102"><ele>854.5999999999999</ele><time>2026-05-02T10:50:17.647Z</time></trkpt><trkpt lat="42.2216728" lon="13.7804778"><ele>853.8</ele><time>2026-05-02T10:50:18.646Z</time></trkpt><trkpt lat="42.2216385" lon="13.7803708"><ele>853.0</ele><time>2026-05-02T10:50:19.644Z</time></trkpt><trkpt lat="42.2216103" lon="13.7802813"><ele>852.9999999999999</ele><time>2026-05-02T10:50:20.643Z</time></trkpt><trkpt lat="42.2215802" lon="13.7801936"><ele>853.0</ele><time>2026-05-02T10:50:21.647Z</time></trkpt><trkpt lat="42.2215483" lon="13.7801086"><ele>853.0</ele><time>2026-05-02T10:50:22.644Z</time></trkpt><trkpt lat="42.2215164" lon="13.780024"><ele>853.0</ele><time>2026-05-02T10:50:23.647Z</time></trkpt><trkpt lat="42.2214688" lon="13.7798876"><ele>852.9999999999999</ele><time>2026-05-02T10:50:25.643Z</time></trkpt><trkpt lat="42.2214318" lon="13.7798019"><ele>853.0</ele><time>2026-05-02T10:50:27.644Z</time></trkpt><trkpt lat="42.2213701" lon="13.7797386"><ele>850.0</ele><time>2026-05-02T10:50:29.647Z</time></trkpt><trkpt lat="42.2212714" lon="13.7797541"><ele>847.0</ele><time>2026-05-02T10:50:31.647Z</time></trkpt><trkpt lat="42.2211928" lon="13.7798197"><ele>844.0</ele><time>2026-05-02T10:50:32.644Z</time></trkpt><trkpt lat="42.2211066" lon="13.7798993"><ele>841.0</ele><time>2026-05-02T10:50:33.647Z</time></trkpt><trkpt lat="42.2210141" lon="13.779977"><ele>838.0</ele><time>2026-05-02T10:50:34.641Z</time></trkpt><trkpt lat="42.2209135" lon="13.7800586"><ele>838.0</ele><time>2026-05-02T10:50:35.647Z</time></trkpt><trkpt lat="42.2208081" lon="13.7801417"><ele>838.0</ele><time>2026-05-02T10:50:36.647Z</time></trkpt><trkpt lat="42.2206973" lon="13.7802268"><ele>838.0</ele><time>2026-05-02T10:50:37.644Z</time></trkpt><trkpt lat="42.2205857" lon="13.780308"><ele>838.0</ele><time>2026-05-02T10:50:38.642Z</time></trkpt><trkpt lat="42.2204716" lon="13.780382"><ele>837.8</ele><time>2026-05-02T10:50:39.645Z</time></trkpt><trkpt lat="42.2203501" lon="13.7804371"><ele>837.5999999999999</ele><time>2026-05-02T10:50:40.648Z</time></trkpt><trkpt lat="42.2202268" lon="13.7804766"><ele>837.4000000000001</ele><time>2026-05-02T10:50:41.647Z</time></trkpt><trkpt lat="42.2201522" lon="13.7804942"><ele>837.2</ele><time>2026-05-02T10:50:42.648Z</time></trkpt><trkpt lat="42.220062" lon="13.7804783"><ele>837.0</ele><time>2026-05-02T10:50:44.645Z</time></trkpt><trkpt lat="42.2199952" lon="13.7804605"><ele>837.0</ele><time>2026-05-02T10:50:45.647Z</time></trkpt><trkpt lat="42.2199043" lon="13.7804413"><ele>837.0</ele><time>2026-05-02T10:50:46.643Z</time></trkpt><trkpt lat="42.2197977" lon="13.7804119"><ele>837.0</ele><time>2026-05-02T10:50:47.643Z</time></trkpt><trkpt lat="42.2196912" lon="13.7803628"><ele>837.0</ele><time>2026-05-02T10:50:48.644Z</time></trkpt><trkpt lat="42.2195811" lon="13.7802977"><ele>837.0</ele><time>2026-05-02T10:50:49.644Z</time></trkpt><trkpt lat="42.2194845" lon="13.7802157"><ele>829.25</ele><time>2026-05-02T10:50:50.648Z</time></trkpt><trkpt lat="42.2193879" lon="13.7801051"><ele>821.5</ele><time>2026-05-02T10:50:51.644Z</time></trkpt><trkpt lat="42.2192968" lon="13.7799782"><ele>813.75</ele><time>2026-05-02T10:50:52.645Z</time></trkpt><trkpt lat="42.2192175" lon="13.7798698"><ele>806.0</ele><time>2026-05-02T10:50:53.643Z</time></trkpt><trkpt lat="42.2191483" lon="13.7797886"><ele>806.0</ele><time>2026-05-02T10:50:54.644Z</time></trkpt><trkpt lat="42.2190629" lon="13.779707"><ele>806.0</ele><time>2026-05-02T10:50:55.647Z</time></trkpt><trkpt lat="42.2189589" lon="13.779641"><ele>806.0</ele><time>2026-05-02T10:50:56.645Z</time></trkpt><trkpt lat="42.2188413" lon="13.7796034"><ele>806.0</ele><time>2026-05-02T10:50:57.643Z</time></trkpt><trkpt lat="42.2187146" lon="13.7796009"><ele>802.5</ele><time>2026-05-02T10:50:58.646Z</time></trkpt><trkpt lat="42.2185878" lon="13.7796303"><ele>799.0</ele><time>2026-05-02T10:50:59.648Z</time></trkpt><trkpt lat="42.2184622" lon="13.7796807"><ele>795.5</ele><time>2026-05-02T10:51:00.647Z</time></trkpt><trkpt lat="42.2183324" lon="13.7797433"><ele>792.0</ele><time>2026-05-02T10:51:01.643Z</time></trkpt><trkpt lat="42.218196" lon="13.7798007"><ele>790.5</ele><time>2026-05-02T10:51:02.647Z</time></trkpt><trkpt lat="42.2180534" lon="13.7798493"><ele>789.0</ele><time>2026-05-02T10:51:03.647Z</time></trkpt><trkpt lat="42.2179323" lon="13.7798874"><ele>787.5</ele><time>2026-05-02T10:51:04.643Z</time></trkpt><trkpt lat="42.2178309" lon="13.7799122"><ele>786.0</ele><time>2026-05-02T10:51:05.648Z</time></trkpt><trkpt lat="42.2177382" lon="13.7798949"><ele>786.0</ele><time>2026-05-02T10:51:06.645Z</time></trkpt><trkpt lat="42.2176548" lon="13.7798385"><ele>786.0</ele><time>2026-05-02T10:51:07.64Z</time></trkpt><trkpt lat="42.2175877" lon="13.7797553"><ele>786.0</ele><time>2026-05-02T10:51:08.644Z</time></trkpt><trkpt lat="42.2175406" lon="13.7796529"><ele>786.0</ele><time>2026-05-02T10:51:09.644Z</time></trkpt><trkpt lat="42.2175083" lon="13.779518"><ele>786.0</ele><time>2026-05-02T10:51:10.645Z</time></trkpt><trkpt lat="42.2174831" lon="13.7793695"><ele>781.0</ele><time>2026-05-02T10:51:11.646Z</time></trkpt><trkpt lat="42.217463" lon="13.779216"><ele>776.0</ele><time>2026-05-02T10:51:12.648Z</time></trkpt><trkpt lat="42.2174347" lon="13.7790585"><ele>771.0</ele><time>2026-05-02T10:51:13.645Z</time></trkpt><trkpt lat="42.217404" lon="13.7789024"><ele>766.0</ele><time>2026-05-02T10:51:14.642Z</time></trkpt><trkpt lat="42.2173615" lon="13.7787489"><ele>768.0</ele><time>2026-05-02T10:51:15.647Z</time></trkpt><trkpt lat="42.217306" lon="13.7786014"><ele>770.0</ele><time>2026-05-02T10:51:16.64Z</time></trkpt><trkpt lat="42.2172446" lon="13.7784551"><ele>772.0</ele><time>2026-05-02T10:51:17.646Z</time></trkpt><trkpt lat="42.217182" lon="13.7783035"><ele>774.0</ele><time>2026-05-02T10:51:18.643Z</time></trkpt><trkpt lat="42.2171187" lon="13.7781476"><ele>770.4000000000001</ele><time>2026-05-02T10:51:19.647Z</time></trkpt><trkpt lat="42.2170572" lon="13.7779913"><ele>766.8</ele><time>2026-05-02T10:51:20.645Z</time></trkpt><trkpt lat="42.2169998" lon="13.777863"><ele>763.2</ele><time>2026-05-02T10:51:21.648Z</time></trkpt><trkpt lat="42.2169376" lon="13.7777555"><ele>759.5999999999999</ele><time>2026-05-02T10:51:22.643Z</time></trkpt><trkpt lat="42.2168604" lon="13.7776616"><ele>756.0</ele><time>2026-05-02T10:51:23.648Z</time></trkpt><trkpt lat="42.2167661" lon="13.7775818"><ele>751.5</ele><time>2026-05-02T10:51:24.645Z</time></trkpt><trkpt lat="42.216651" lon="13.7775073"><ele>747.0</ele><time>2026-05-02T10:51:25.647Z</time></trkpt><trkpt lat="42.216524" lon="13.7774444"><ele>742.5</ele><time>2026-05-02T10:51:26.644Z</time></trkpt><trkpt lat="42.2163934" lon="13.7773797"><ele>738.0</ele><time>2026-05-02T10:51:27.643Z</time></trkpt><trkpt lat="42.2162627" lon="13.7772982"><ele>735.75</ele><time>2026-05-02T10:51:28.648Z</time></trkpt><trkpt lat="42.2161289" lon="13.7772067"><ele>733.5</ele><time>2026-05-02T10:51:29.644Z</time></trkpt><trkpt lat="42.215994" lon="13.7771204"><ele>731.25</ele><time>2026-05-02T10:51:30.644Z</time></trkpt><trkpt lat="42.2158799" lon="13.7770448"><ele>729.0</ele><time>2026-05-02T10:51:31.644Z</time></trkpt><trkpt lat="42.215777" lon="13.7769783"><ele>729.0</ele><time>2026-05-02T10:51:32.644Z</time></trkpt><trkpt lat="42.215679" lon="13.7769227"><ele>729.0</ele><time>2026-05-02T10:51:33.646Z</time></trkpt><trkpt lat="42.2155944" lon="13.7768783"><ele>729.0</ele><time>2026-05-02T10:51:34.643Z</time></trkpt><trkpt lat="42.2155244" lon="13.7768392"><ele>729.0</ele><time>2026-05-02T10:51:35.646Z</time></trkpt><trkpt lat="42.2154644" lon="13.7768082"><ele>729.0</ele><time>2026-05-02T10:51:36.647Z</time></trkpt><trkpt lat="42.2153964" lon="13.7767719"><ele>729.0</ele><time>2026-05-02T10:51:37.643Z</time></trkpt><trkpt lat="42.2153267" lon="13.7767423"><ele>727.0</ele><time>2026-05-02T10:51:38.643Z</time></trkpt><trkpt lat="42.2152498" lon="13.776726"><ele>725.0</ele><time>2026-05-02T10:51:39.648Z</time></trkpt><trkpt lat="42.2151694" lon="13.7767143"><ele>723.0</ele><time>2026-05-02T10:51:40.647Z</time></trkpt><trkpt lat="42.2150948" lon="13.7767106"><ele>721.0</ele><time>2026-05-02T10:51:41.647Z</time></trkpt><trkpt lat="42.2149919" lon="13.7767571"><ele>719.0</ele><time>2026-05-02T10:51:43.647Z</time></trkpt><trkpt lat="42.2149383" lon="13.7768799"><ele>717.0</ele><time>2026-05-02T10:51:45.645Z</time></trkpt><trkpt lat="42.2148848" lon="13.7769919"><ele>717.0</ele><time>2026-05-02T10:51:47.648Z</time></trkpt><trkpt lat="42.2148425" lon="13.777103"><ele>717.0</ele><time>2026-05-02T10:51:49.647Z</time></trkpt><trkpt lat="42.2147741" lon="13.7770933"><ele>717.0</ele><time>2026-05-02T10:51:52.642Z</time></trkpt><trkpt lat="42.2147903" lon="13.776957"><ele>717.0</ele><time>2026-05-02T10:51:55.647Z</time></trkpt><trkpt lat="42.2148213" lon="13.77688"><ele>717.0</ele><time>2026-05-02T10:51:56.646Z</time></trkpt><trkpt lat="42.2148493" lon="13.776781"><ele>717.0</ele><time>2026-05-02T10:51:57.644Z</time></trkpt><trkpt lat="42.2148736" lon="13.77669"><ele>715.6666666666666</ele><time>2026-05-02T10:51:58.648Z</time></trkpt><trkpt lat="42.2149041" lon="13.7766027"><ele>714.3333333333334</ele><time>2026-05-02T10:51:59.644Z</time></trkpt><trkpt lat="42.2149306" lon="13.7765157"><ele>713.0</ele><time>2026-05-02T10:52:00.643Z</time></trkpt><trkpt lat="42.2149263" lon="13.7764298"><ele>711.6666666666667</ele><time>2026-05-02T10:52:01.643Z</time></trkpt><trkpt lat="42.2148485" lon="13.7763572"><ele>710.3333333333334</ele><time>2026-05-02T10:52:03.648Z</time></trkpt><trkpt lat="42.2147437" lon="13.7764175"><ele>709.0</ele><time>2026-05-02T10:52:05.647Z</time></trkpt><trkpt lat="42.2146958" lon="13.7765146"><ele>706.3333333333334</ele><time>2026-05-02T10:52:06.648Z</time></trkpt><trkpt lat="42.2146418" lon="13.7766755"><ele>703.6666666666666</ele><time>2026-05-02T10:52:07.646Z</time></trkpt><trkpt lat="42.2145682" lon="13.7768786"><ele>701.0</ele><time>2026-05-02T10:52:08.647Z</time></trkpt><trkpt lat="42.2144746" lon="13.7770785"><ele>701.0</ele><time>2026-05-02T10:52:09.647Z</time></trkpt><trkpt lat="42.2143858" lon="13.7772489"><ele>701.0</ele><time>2026-05-02T10:52:10.647Z</time></trkpt><trkpt lat="42.2143238" lon="13.777381"><ele>701.0</ele><time>2026-05-02T10:52:11.644Z</time></trkpt><trkpt lat="42.2142718" lon="13.7774585"><ele>701.0</ele><time>2026-05-02T10:52:12.646Z</time></trkpt><trkpt lat="42.2141802" lon="13.7774373"><ele>701.0</ele><time>2026-05-02T10:52:14.645Z</time></trkpt><trkpt lat="42.2141869" lon="13.7772519"><ele>701.0</ele><time>2026-05-02T10:52:16.643Z</time></trkpt><trkpt lat="42.2142295" lon="13.7770817"><ele>701.0</ele><time>2026-05-02T10:52:17.643Z</time></trkpt><trkpt lat="42.2142732" lon="13.7768819"><ele>701.0</ele><time>2026-05-02T10:52:18.647Z</time></trkpt><trkpt lat="42.2143139" lon="13.7766773"><ele>701.0</ele><time>2026-05-02T10:52:19.647Z</time></trkpt><trkpt lat="42.2143705" lon="13.7764757"><ele>699.3333333333333</ele><time>2026-05-02T10:52:20.644Z</time></trkpt><trkpt lat="42.2144442" lon="13.7762723"><ele>697.6666666666666</ele><time>2026-05-02T10:52:21.643Z</time></trkpt><trkpt lat="42.214533" lon="13.7760711"><ele>696.0</ele><time>2026-05-02T10:52:22.644Z</time></trkpt><trkpt lat="42.2146364" lon="13.7758721"><ele>697.0</ele><time>2026-05-02T10:52:23.645Z</time></trkpt><trkpt lat="42.2147623" lon="13.7756746"><ele>698.0</ele><time>2026-05-02T10:52:24.644Z</time></trkpt><trkpt lat="42.2148802" lon="13.7755252"><ele>699.0</ele><time>2026-05-02T10:52:25.643Z</time></trkpt><trkpt lat="42.2149756" lon="13.7754104"><ele>699.0</ele><time>2026-05-02T10:52:26.646Z</time></trkpt><trkpt lat="42.2150392" lon="13.7753242"><ele>699.0</ele><time>2026-05-02T10:52:27.645Z</time></trkpt><trkpt lat="42.2150841" lon="13.7752553"><ele>699.0</ele><time>2026-05-02T10:52:28.647Z</time></trkpt><trkpt lat="42.2151363" lon="13.7751717"><ele>699.0</ele><time>2026-05-02T10:52:30.647Z</time></trkpt><trkpt lat="42.2150691" lon="13.7751766"><ele>699.0</ele><time>2026-05-02T10:52:35.647Z</time></trkpt><trkpt lat="42.2150084" lon="13.7752864"><ele>699.0</ele><time>2026-05-02T10:52:36.644Z</time></trkpt><trkpt lat="42.2149279" lon="13.7753977"><ele>695.6666666666666</ele><time>2026-05-02T10:52:37.642Z</time></trkpt><trkpt lat="42.2148152" lon="13.7755439"><ele>692.3333333333333</ele><time>2026-05-02T10:52:38.647Z</time></trkpt><trkpt lat="42.2146937" lon="13.7757134"><ele>689.0</ele><time>2026-05-02T10:52:39.647Z</time></trkpt><trkpt lat="42.2145853" lon="13.7758913"><ele>690.75</ele><time>2026-05-02T10:52:40.647Z</time></trkpt><trkpt lat="42.2144957" lon="13.7760774"><ele>692.5</ele><time>2026-05-02T10:52:41.647Z</time></trkpt><trkpt lat="42.2144256" lon="13.7762461"><ele>694.25</ele><time>2026-05-02T10:52:42.644Z</time></trkpt><trkpt lat="42.214381" lon="13.776365"><ele>696.0</ele><time>2026-05-02T10:52:43.644Z</time></trkpt><trkpt lat="42.2143397" lon="13.7764422"><ele>696.0</ele><time>2026-05-02T10:52:44.644Z</time></trkpt><trkpt lat="42.214268" lon="13.7765238"><ele>696.0</ele><time>2026-05-02T10:52:46.647Z</time></trkpt><trkpt lat="42.2141885" lon="13.7766197"><ele>696.0</ele><time>2026-05-02T10:52:48.647Z</time></trkpt><trkpt lat="42.2140839" lon="13.7767026"><ele>696.0</ele><time>2026-05-02T10:52:50.644Z</time></trkpt><trkpt lat="42.2140216" lon="13.7767189"><ele>696.0</ele><time>2026-05-02T10:52:51.646Z</time></trkpt><trkpt lat="42.2139543" lon="13.776722"><ele>695.1428571428571</ele><time>2026-05-02T10:52:52.645Z</time></trkpt><trkpt lat="42.2138854" lon="13.7767264"><ele>694.2857142857143</ele><time>2026-05-02T10:52:53.646Z</time></trkpt><trkpt lat="42.2138142" lon="13.7767295"><ele>693.4285714285714</ele><time>2026-05-02T10:52:54.644Z</time></trkpt><trkpt lat="42.2137433" lon="13.7767308"><ele>692.5714285714286</ele><time>2026-05-02T10:52:55.648Z</time></trkpt><trkpt lat="42.2136716" lon="13.7767207"><ele>691.7142857142857</ele><time>2026-05-02T10:52:56.647Z</time></trkpt><trkpt lat="42.2135956" lon="13.776702"><ele>690.8571428571429</ele><time>2026-05-02T10:52:57.646Z</time></trkpt><trkpt lat="42.2135223" lon="13.7766715"><ele>690.0</ele><time>2026-05-02T10:52:58.642Z</time></trkpt><trkpt lat="42.2134466" lon="13.7766263"><ele>690.0</ele><time>2026-05-02T10:52:59.641Z</time></trkpt><trkpt lat="42.213367" lon="13.7765775"><ele>690.0</ele><time>2026-05-02T10:53:00.642Z</time></trkpt><trkpt lat="42.2132972" lon="13.7765252"><ele>690.0</ele><time>2026-05-02T10:53:01.646Z</time></trkpt><trkpt lat="42.2132277" lon="13.7764623"><ele>690.0</ele><time>2026-05-02T10:53:02.645Z</time></trkpt><trkpt lat="42.2131566" lon="13.7764135"><ele>690.0</ele><time>2026-05-02T10:53:03.648Z</time></trkpt><trkpt lat="42.2130878" lon="13.7763696"><ele>690.0</ele><time>2026-05-02T10:53:04.64Z</time></trkpt><trkpt lat="42.2130252" lon="13.7763412"><ele>690.0</ele><time>2026-05-02T10:53:05.641Z</time></trkpt><trkpt lat="42.212904" lon="13.776352"><ele>690.0</ele><time>2026-05-02T10:53:07.648Z</time></trkpt><trkpt lat="42.2128346" lon="13.7763901"><ele>690.0</ele><time>2026-05-02T10:53:08.643Z</time></trkpt><trkpt lat="42.2127606" lon="13.7764451"><ele>690.0</ele><time>2026-05-02T10:53:09.648Z</time></trkpt><trkpt lat="42.2126843" lon="13.7765115"><ele>690.0</ele><time>2026-05-02T10:53:10.645Z</time></trkpt><trkpt lat="42.212612" lon="13.7765891"><ele>690.0</ele><time>2026-05-02T10:53:11.643Z</time></trkpt><trkpt lat="42.2125451" lon="13.7766766"><ele>690.0</ele><time>2026-05-02T10:53:12.642Z</time></trkpt><trkpt lat="42.212479" lon="13.7767547"><ele>690.0</ele><time>2026-05-02T10:53:13.643Z</time></trkpt><trkpt lat="42.2124101" lon="13.7768247"><ele>690.0</ele><time>2026-05-02T10:53:14.645Z</time></trkpt><trkpt lat="42.2123362" lon="13.776896"><ele>690.0</ele><time>2026-05-02T10:53:15.648Z</time></trkpt><trkpt lat="42.2122536" lon="13.7769658"><ele>688.6666666666666</ele><time>2026-05-02T10:53:16.647Z</time></trkpt><trkpt lat="42.2121726" lon="13.7770283"><ele>687.3333333333334</ele><time>2026-05-02T10:53:17.643Z</time></trkpt><trkpt lat="42.2120961" lon="13.7770883"><ele>686.0</ele><time>2026-05-02T10:53:18.643Z</time></trkpt><trkpt lat="42.2120231" lon="13.7771438"><ele>684.6666666666667</ele><time>2026-05-02T10:53:19.647Z</time></trkpt><trkpt lat="42.2119512" lon="13.7771826"><ele>683.3333333333334</ele><time>2026-05-02T10:53:20.646Z</time></trkpt><trkpt lat="42.2118714" lon="13.777198"><ele>682.0</ele><time>2026-05-02T10:53:21.645Z</time></trkpt><trkpt lat="42.2117771" lon="13.7771885"><ele>682.0</ele><time>2026-05-02T10:53:22.644Z</time></trkpt><trkpt lat="42.2116761" lon="13.777164"><ele>682.0</ele><time>2026-05-02T10:53:23.645Z</time></trkpt><trkpt lat="42.2115795" lon="13.7771259"><ele>682.0</ele><time>2026-05-02T10:53:24.641Z</time></trkpt><trkpt lat="42.2114822" lon="13.7770704"><ele>682.0</ele><time>2026-05-02T10:53:25.647Z</time></trkpt><trkpt lat="42.2113898" lon="13.7769893"><ele>682.0</ele><time>2026-05-02T10:53:26.648Z</time></trkpt><trkpt lat="42.2113009" lon="13.7768923"><ele>681.8</ele><time>2026-05-02T10:53:27.643Z</time></trkpt><trkpt lat="42.2112154" lon="13.7767955"><ele>681.6</ele><time>2026-05-02T10:53:28.646Z</time></trkpt><trkpt lat="42.2111385" lon="13.776708"><ele>681.4</ele><time>2026-05-02T10:53:29.648Z</time></trkpt><trkpt lat="42.2110652" lon="13.7766298"><ele>681.1999999999999</ele><time>2026-05-02T10:53:30.646Z</time></trkpt><trkpt lat="42.2109963" lon="13.7765547"><ele>681.0</ele><time>2026-05-02T10:53:31.643Z</time></trkpt><trkpt lat="42.2109331" lon="13.7764797"><ele>681.0</ele><time>2026-05-02T10:53:32.642Z</time></trkpt><trkpt lat="42.2108734" lon="13.7764084"><ele>681.0</ele><time>2026-05-02T10:53:33.644Z</time></trkpt><trkpt lat="42.2108126" lon="13.7763317"><ele>681.0</ele><time>2026-05-02T10:53:34.643Z</time></trkpt><trkpt lat="42.21075" lon="13.7762484"><ele>681.0</ele><time>2026-05-02T10:53:35.646Z</time></trkpt><trkpt lat="42.2106868" lon="13.776178"><ele>681.0</ele><time>2026-05-02T10:53:36.645Z</time></trkpt><trkpt lat="42.2106073" lon="13.7761216"><ele>681.0</ele><time>2026-05-02T10:53:37.644Z</time></trkpt><trkpt lat="42.2104987" lon="13.7760662"><ele>680.5</ele><time>2026-05-02T10:53:38.644Z</time></trkpt><trkpt lat="42.2103761" lon="13.7760126"><ele>680.0</ele><time>2026-05-02T10:53:39.646Z</time></trkpt><trkpt lat="42.2102567" lon="13.7759602"><ele>679.5</ele><time>2026-05-02T10:53:40.647Z</time></trkpt><trkpt lat="42.2101393" lon="13.7758996"><ele>679.0</ele><time>2026-05-02T10:53:41.645Z</time></trkpt><trkpt lat="42.2100254" lon="13.7758376"><ele>679.0</ele><time>2026-05-02T10:53:42.645Z</time></trkpt><trkpt lat="42.209911" lon="13.7757853"><ele>679.0</ele><time>2026-05-02T10:53:43.642Z</time></trkpt><trkpt lat="42.209794" lon="13.7757381"><ele>679.0</ele><time>2026-05-02T10:53:44.643Z</time></trkpt><trkpt lat="42.2096734" lon="13.775686"><ele>679.0</ele><time>2026-05-02T10:53:45.645Z</time></trkpt><trkpt lat="42.2095529" lon="13.7756353"><ele>679.0</ele><time>2026-05-02T10:53:46.641Z</time></trkpt><trkpt lat="42.2094339" lon="13.7755907"><ele>679.0</ele><time>2026-05-02T10:53:47.642Z</time></trkpt><trkpt lat="42.2093207" lon="13.7755514"><ele>679.0</ele><time>2026-05-02T10:53:48.644Z</time></trkpt><trkpt lat="42.2092123" lon="13.7755181"><ele>679.0</ele><time>2026-05-02T10:53:49.643Z</time></trkpt><trkpt lat="42.2091073" lon="13.7754886"><ele>679.0</ele><time>2026-05-02T10:53:50.645Z</time></trkpt><trkpt lat="42.2090058" lon="13.7754741"><ele>679.0</ele><time>2026-05-02T10:53:51.641Z</time></trkpt><trkpt lat="42.2089076" lon="13.7754817"><ele>679.0</ele><time>2026-05-02T10:53:52.644Z</time></trkpt><trkpt lat="42.2088096" lon="13.7755065"><ele>679.0</ele><time>2026-05-02T10:53:53.643Z</time></trkpt><trkpt lat="42.2087134" lon="13.7755408"><ele>679.0</ele><time>2026-05-02T10:53:54.647Z</time></trkpt><trkpt lat="42.2086261" lon="13.7755731"><ele>679.0</ele><time>2026-05-02T10:53:55.644Z</time></trkpt><trkpt lat="42.2085492" lon="13.7755958"><ele>679.0</ele><time>2026-05-02T10:53:56.643Z</time></trkpt><trkpt lat="42.2084864" lon="13.7756088"><ele>679.0</ele><time>2026-05-02T10:53:57.647Z</time></trkpt><trkpt lat="42.2083976" lon="13.7755854"><ele>679.0</ele><time>2026-05-02T10:53:59.642Z</time></trkpt><trkpt lat="42.2083011" lon="13.7755041"><ele>679.0</ele><time>2026-05-02T10:54:01.647Z</time></trkpt><trkpt lat="42.2082368" lon="13.7754453"><ele>679.0</ele><time>2026-05-02T10:54:02.643Z</time></trkpt><trkpt lat="42.208157" lon="13.775378"><ele>679.0</ele><time>2026-05-02T10:54:03.648Z</time></trkpt><trkpt lat="42.2080565" lon="13.7752962"><ele>679.0</ele><time>2026-05-02T10:54:04.642Z</time></trkpt><trkpt lat="42.207939" lon="13.7751945"><ele>679.0</ele><time>2026-05-02T10:54:05.648Z</time></trkpt><trkpt lat="42.2078183" lon="13.7750823"><ele>679.0</ele><time>2026-05-02T10:54:06.644Z</time></trkpt><trkpt lat="42.2077056" lon="13.7749782"><ele>678.8000000000001</ele><time>2026-05-02T10:54:07.646Z</time></trkpt><trkpt lat="42.207605" lon="13.7748849"><ele>678.6</ele><time>2026-05-02T10:54:08.648Z</time></trkpt><trkpt lat="42.2075134" lon="13.7747993"><ele>678.4</ele><time>2026-05-02T10:54:09.645Z</time></trkpt><trkpt lat="42.2074281" lon="13.7747162"><ele>678.2</ele><time>2026-05-02T10:54:10.642Z</time></trkpt><trkpt lat="42.2073547" lon="13.7746414"><ele>678.0</ele><time>2026-05-02T10:54:11.647Z</time></trkpt><trkpt lat="42.2072994" lon="13.7745834"><ele>678.5</ele><time>2026-05-02T10:54:12.648Z</time></trkpt><trkpt lat="42.2072371" lon="13.7745179"><ele>679.0</ele><time>2026-05-02T10:54:14.643Z</time></trkpt><trkpt lat="42.2071474" lon="13.7744899"><ele>679.5</ele><time>2026-05-02T10:54:17.644Z</time></trkpt><trkpt lat="42.2070876" lon="13.7745208"><ele>680.0</ele><time>2026-05-02T10:54:18.647Z</time></trkpt><trkpt lat="42.2070103" lon="13.7745707"><ele>680.5</ele><time>2026-05-02T10:54:19.646Z</time></trkpt><trkpt lat="42.2069235" lon="13.774627"><ele>681.0</ele><time>2026-05-02T10:54:20.647Z</time></trkpt><trkpt lat="42.20682" lon="13.774681"><ele>681.0</ele><time>2026-05-02T10:54:21.647Z</time></trkpt><trkpt lat="42.2066713" lon="13.7747611"><ele>681.0</ele><time>2026-05-02T10:54:22.642Z</time></trkpt><trkpt lat="42.2065088" lon="13.774853"><ele>681.0</ele><time>2026-05-02T10:54:23.644Z</time></trkpt><trkpt lat="42.2063205" lon="13.7749528"><ele>681.0</ele><time>2026-05-02T10:54:24.642Z</time></trkpt><trkpt lat="42.2061073" lon="13.7750726"><ele>681.0</ele><time>2026-05-02T10:54:25.642Z</time></trkpt><trkpt lat="42.2058723" lon="13.7752055"><ele>682.5</ele><time>2026-05-02T10:54:26.645Z</time></trkpt><trkpt lat="42.2056271" lon="13.7753427"><ele>684.0</ele><time>2026-05-02T10:54:27.644Z</time></trkpt><trkpt lat="42.2053622" lon="13.7754951"><ele>684.0</ele><time>2026-05-02T10:54:28.647Z</time></trkpt><trkpt lat="42.2050867" lon="13.7756566"><ele>684.0</ele><time>2026-05-02T10:54:29.645Z</time></trkpt><trkpt lat="42.2048143" lon="13.775814"><ele>684.5</ele><time>2026-05-02T10:54:30.644Z</time></trkpt><trkpt lat="42.2045538" lon="13.7759613"><ele>685.0</ele><time>2026-05-02T10:54:31.641Z</time></trkpt><trkpt lat="42.204312" lon="13.7760997"><ele>685.0</ele><time>2026-05-02T10:54:32.642Z</time></trkpt><trkpt lat="42.2040801" lon="13.7762322"><ele>685.0</ele><time>2026-05-02T10:54:33.647Z</time></trkpt><trkpt lat="42.203838" lon="13.7763715"><ele>687.5</ele><time>2026-05-02T10:54:34.642Z</time></trkpt><trkpt lat="42.2035914" lon="13.7765098"><ele>690.0</ele><time>2026-05-02T10:54:35.645Z</time></trkpt><trkpt lat="42.2033516" lon="13.7766416"><ele>692.5</ele><time>2026-05-02T10:54:36.648Z</time></trkpt><trkpt lat="42.2031234" lon="13.7767676"><ele>695.0</ele><time>2026-05-02T10:54:37.647Z</time></trkpt><trkpt lat="42.2029113" lon="13.7768862"><ele>698.0</ele><time>2026-05-02T10:54:38.643Z</time></trkpt><trkpt lat="42.202716" lon="13.776991"><ele>701.0</ele><time>2026-05-02T10:54:39.647Z</time></trkpt><trkpt lat="42.2025533" lon="13.7770869"><ele>704.0</ele><time>2026-05-02T10:54:40.645Z</time></trkpt><trkpt lat="42.2024298" lon="13.7771819"><ele>704.0</ele><time>2026-05-02T10:54:41.644Z</time></trkpt><trkpt lat="42.2023439" lon="13.7772922"><ele>704.0</ele><time>2026-05-02T10:54:42.647Z</time></trkpt><trkpt lat="42.2022828" lon="13.7774453"><ele>704.0</ele><time>2026-05-02T10:54:43.641Z</time></trkpt><trkpt lat="42.2022342" lon="13.7776277"><ele>704.0</ele><time>2026-05-02T10:54:44.647Z</time></trkpt><trkpt lat="42.2021894" lon="13.7778357"><ele>703.0</ele><time>2026-05-02T10:54:45.641Z</time></trkpt><trkpt lat="42.2021413" lon="13.7780683"><ele>702.0</ele><time>2026-05-02T10:54:46.643Z</time></trkpt><trkpt lat="42.2020908" lon="13.7783103"><ele>701.0</ele><time>2026-05-02T10:54:47.646Z</time></trkpt><trkpt lat="42.2020451" lon="13.778571"><ele>703.0</ele><time>2026-05-02T10:54:48.642Z</time></trkpt><trkpt lat="42.2019972" lon="13.7788463"><ele>705.0</ele><time>2026-05-02T10:54:49.642Z</time></trkpt><trkpt lat="42.2019449" lon="13.7791262"><ele>707.0</ele><time>2026-05-02T10:54:50.647Z</time></trkpt><trkpt lat="42.201885" lon="13.779409"><ele>710.0</ele><time>2026-05-02T10:54:51.641Z</time></trkpt><trkpt lat="42.2018227" lon="13.7796818"><ele>713.0</ele><time>2026-05-02T10:54:52.647Z</time></trkpt><trkpt lat="42.2017662" lon="13.7799483"><ele>716.0</ele><time>2026-05-02T10:54:53.641Z</time></trkpt><trkpt lat="42.2017236" lon="13.7802048"><ele>718.0</ele><time>2026-05-02T10:54:54.646Z</time></trkpt><trkpt lat="42.2016974" lon="13.780437"><ele>720.0</ele><time>2026-05-02T10:54:55.643Z</time></trkpt><trkpt lat="42.2016888" lon="13.7806628"><ele>722.0</ele><time>2026-05-02T10:54:56.646Z</time></trkpt><trkpt lat="42.2016911" lon="13.780932"><ele>723.3333333333333</ele><time>2026-05-02T10:54:57.643Z</time></trkpt><trkpt lat="42.2016998" lon="13.7812316"><ele>724.6666666666666</ele><time>2026-05-02T10:54:58.641Z</time></trkpt><trkpt lat="42.2017115" lon="13.7815153"><ele>726.0</ele><time>2026-05-02T10:54:59.64Z</time></trkpt><trkpt lat="42.2017225" lon="13.7817773"><ele>728.6666666666666</ele><time>2026-05-02T10:55:00.642Z</time></trkpt><trkpt lat="42.2017079" lon="13.782033"><ele>731.3333333333333</ele><time>2026-05-02T10:55:01.644Z</time></trkpt><trkpt lat="42.2016577" lon="13.7822761"><ele>734.0</ele><time>2026-05-02T10:55:02.648Z</time></trkpt><trkpt lat="42.2015781" lon="13.782531"><ele>733.3333333333333</ele><time>2026-05-02T10:55:03.642Z</time></trkpt><trkpt lat="42.201487" lon="13.7827944"><ele>732.6666666666666</ele><time>2026-05-02T10:55:04.648Z</time></trkpt><trkpt lat="42.2013879" lon="13.7830548"><ele>732.0</ele><time>2026-05-02T10:55:05.647Z</time></trkpt><trkpt lat="42.2012862" lon="13.7833023"><ele>737.0</ele><time>2026-05-02T10:55:06.647Z</time></trkpt><trkpt lat="42.201185" lon="13.7835323"><ele>742.0</ele><time>2026-05-02T10:55:07.646Z</time></trkpt><trkpt lat="42.2010848" lon="13.7837569"><ele>747.0</ele><time>2026-05-02T10:55:08.646Z</time></trkpt><trkpt lat="42.2009882" lon="13.7839755"><ele>747.0</ele><time>2026-05-02T10:55:09.646Z</time></trkpt><trkpt lat="42.200893" lon="13.7841849"><ele>747.0</ele><time>2026-05-02T10:55:10.646Z</time></trkpt><trkpt lat="42.2007951" lon="13.7843892"><ele>747.0</ele><time>2026-05-02T10:55:11.642Z</time></trkpt><trkpt lat="42.2006895" lon="13.7845819"><ele>749.25</ele><time>2026-05-02T10:55:12.648Z</time></trkpt><trkpt lat="42.2005825" lon="13.7847505"><ele>751.5</ele><time>2026-05-02T10:55:13.647Z</time></trkpt><trkpt lat="42.200484" lon="13.784897"><ele>753.75</ele><time>2026-05-02T10:55:14.645Z</time></trkpt><trkpt lat="42.2003968" lon="13.7850291"><ele>756.0</ele><time>2026-05-02T10:55:15.646Z</time></trkpt><trkpt lat="42.200321" lon="13.7851336"><ele>756.0</ele><time>2026-05-02T10:55:16.645Z</time></trkpt><trkpt lat="42.2002646" lon="13.7851773"><ele>756.0</ele><time>2026-05-02T10:55:17.641Z</time></trkpt><trkpt lat="42.2001902" lon="13.7851484"><ele>756.0</ele><time>2026-05-02T10:55:19.645Z</time></trkpt><trkpt lat="42.2001715" lon="13.7850208"><ele>756.0</ele><time>2026-05-02T10:55:21.647Z</time></trkpt><trkpt lat="42.2001706" lon="13.7848969"><ele>756.0</ele><time>2026-05-02T10:55:22.648Z</time></trkpt><trkpt lat="42.2001455" lon="13.7847332"><ele>756.0</ele><time>2026-05-02T10:55:23.645Z</time></trkpt><trkpt lat="42.2000973" lon="13.7845305"><ele>756.0</ele><time>2026-05-02T10:55:24.643Z</time></trkpt><trkpt lat="42.2000268" lon="13.784322"><ele>756.0</ele><time>2026-05-02T10:55:25.648Z</time></trkpt><trkpt lat="42.1999388" lon="13.7841177"><ele>755.6666666666666</ele><time>2026-05-02T10:55:26.644Z</time></trkpt><trkpt lat="42.1998568" lon="13.7838995"><ele>755.3333333333333</ele><time>2026-05-02T10:55:27.644Z</time></trkpt><trkpt lat="42.1998037" lon="13.7836734"><ele>755.0</ele><time>2026-05-02T10:55:28.645Z</time></trkpt><trkpt lat="42.1997843" lon="13.7834672"><ele>758.25</ele><time>2026-05-02T10:55:29.645Z</time></trkpt><trkpt lat="42.1997572" lon="13.7833019"><ele>761.5</ele><time>2026-05-02T10:55:30.643Z</time></trkpt><trkpt lat="42.1997092" lon="13.7831691"><ele>764.75</ele><time>2026-05-02T10:55:31.644Z</time></trkpt><trkpt lat="42.1996222" lon="13.7830594"><ele>768.0</ele><time>2026-05-02T10:55:32.647Z</time></trkpt><trkpt lat="42.1994959" lon="13.7829687"><ele>768.0</ele><time>2026-05-02T10:55:33.647Z</time></trkpt><trkpt lat="42.1993529" lon="13.7828999"><ele>768.0</ele><time>2026-05-02T10:55:34.645Z</time></trkpt><trkpt lat="42.1991851" lon="13.782873"><ele>768.0</ele><time>2026-05-02T10:55:35.646Z</time></trkpt><trkpt lat="42.1990042" lon="13.7828707"><ele>769.6666666666667</ele><time>2026-05-02T10:55:36.648Z</time></trkpt><trkpt lat="42.1988164" lon="13.782834"><ele>771.3333333333334</ele><time>2026-05-02T10:55:37.647Z</time></trkpt><trkpt lat="42.1986297" lon="13.7827655"><ele>773.0</ele><time>2026-05-02T10:55:38.642Z</time></trkpt><trkpt lat="42.1984302" lon="13.7827105"><ele>773.0</ele><time>2026-05-02T10:55:39.648Z</time></trkpt><trkpt lat="42.1982051" lon="13.7826908"><ele>773.0</ele><time>2026-05-02T10:55:40.641Z</time></trkpt><trkpt lat="42.1979823" lon="13.7827037"><ele>773.0</ele><time>2026-05-02T10:55:41.64Z</time></trkpt><trkpt lat="42.1977765" lon="13.7827271"><ele>773.3333333333334</ele><time>2026-05-02T10:55:42.642Z</time></trkpt><trkpt lat="42.1975842" lon="13.7827365"><ele>773.6666666666667</ele><time>2026-05-02T10:55:43.642Z</time></trkpt><trkpt lat="42.197406" lon="13.7827188"><ele>774.0</ele><time>2026-05-02T10:55:44.647Z</time></trkpt><trkpt lat="42.1972354" lon="13.7826659"><ele>774.0</ele><time>2026-05-02T10:55:45.642Z</time></trkpt><trkpt lat="42.1970974" lon="13.7825693"><ele>774.0</ele><time>2026-05-02T10:55:46.644Z</time></trkpt><trkpt lat="42.1969873" lon="13.7824406"><ele>774.0</ele><time>2026-05-02T10:55:47.646Z</time></trkpt><trkpt lat="42.1968899" lon="13.7822796"><ele>774.0</ele><time>2026-05-02T10:55:48.645Z</time></trkpt><trkpt lat="42.1967826" lon="13.7821431"><ele>774.0</ele><time>2026-05-02T10:55:49.646Z</time></trkpt><trkpt lat="42.19665" lon="13.7820585"><ele>774.0</ele><time>2026-05-02T10:55:50.647Z</time></trkpt><trkpt lat="42.1964881" lon="13.7819982"><ele>778.0</ele><time>2026-05-02T10:55:51.647Z</time></trkpt><trkpt lat="42.1963124" lon="13.7819575"><ele>782.0</ele><time>2026-05-02T10:55:52.641Z</time></trkpt><trkpt lat="42.1961272" lon="13.7819103"><ele>786.0</ele><time>2026-05-02T10:55:53.647Z</time></trkpt><trkpt lat="42.1959265" lon="13.781858"><ele>784.3333333333333</ele><time>2026-05-02T10:55:54.645Z</time></trkpt><trkpt lat="42.1957145" lon="13.7818096"><ele>782.6666666666666</ele><time>2026-05-02T10:55:55.645Z</time></trkpt><trkpt lat="42.1955161" lon="13.781765"><ele>781.0</ele><time>2026-05-02T10:55:56.647Z</time></trkpt><trkpt lat="42.1953186" lon="13.7817212"><ele>781.0</ele><time>2026-05-02T10:55:57.641Z</time></trkpt><trkpt lat="42.1951168" lon="13.7816983"><ele>781.0</ele><time>2026-05-02T10:55:58.645Z</time></trkpt><trkpt lat="42.1949158" lon="13.7817087"><ele>781.0</ele><time>2026-05-02T10:55:59.643Z</time></trkpt><trkpt lat="42.1947313" lon="13.7817362"><ele>783.0</ele><time>2026-05-02T10:56:00.646Z</time></trkpt><trkpt lat="42.1945582" lon="13.7817337"><ele>785.0</ele><time>2026-05-02T10:56:01.643Z</time></trkpt><trkpt lat="42.1944002" lon="13.7816876"><ele>787.0</ele><time>2026-05-02T10:56:02.644Z</time></trkpt><trkpt lat="42.1942634" lon="13.7816114"><ele>787.0</ele><time>2026-05-02T10:56:03.646Z</time></trkpt><trkpt lat="42.1941665" lon="13.7815259"><ele>787.0</ele><time>2026-05-02T10:56:04.646Z</time></trkpt><trkpt lat="42.1940997" lon="13.7814275"><ele>787.0</ele><time>2026-05-02T10:56:05.645Z</time></trkpt><trkpt lat="42.1940537" lon="13.7813021"><ele>787.0</ele><time>2026-05-02T10:56:06.641Z</time></trkpt><trkpt lat="42.1940236" lon="13.7811492"><ele>787.0</ele><time>2026-05-02T10:56:07.642Z</time></trkpt><trkpt lat="42.1940005" lon="13.7809797"><ele>788.0</ele><time>2026-05-02T10:56:08.642Z</time></trkpt><trkpt lat="42.193982" lon="13.7807943"><ele>789.0</ele><time>2026-05-02T10:56:09.647Z</time></trkpt><trkpt lat="42.1939761" lon="13.7805979"><ele>790.0</ele><time>2026-05-02T10:56:10.641Z</time></trkpt><trkpt lat="42.1939904" lon="13.7803886"><ele>791.0</ele><time>2026-05-02T10:56:11.645Z</time></trkpt><trkpt lat="42.1940262" lon="13.7801653"><ele>791.0</ele><time>2026-05-02T10:56:12.644Z</time></trkpt><trkpt lat="42.1940698" lon="13.7799397"><ele>791.0</ele><time>2026-05-02T10:56:13.644Z</time></trkpt><trkpt lat="42.1941133" lon="13.7797128"><ele>791.0</ele><time>2026-05-02T10:56:14.642Z</time></trkpt><trkpt lat="42.1941542" lon="13.7794872"><ele>792.6666666666667</ele><time>2026-05-02T10:56:15.642Z</time></trkpt><trkpt lat="42.1941754" lon="13.7792541"><ele>794.3333333333333</ele><time>2026-05-02T10:56:16.643Z</time></trkpt><trkpt lat="42.194169" lon="13.7790031"><ele>796.0</ele><time>2026-05-02T10:56:17.644Z</time></trkpt><trkpt lat="42.1941431" lon="13.7787509"><ele>799.0</ele><time>2026-05-02T10:56:18.644Z</time></trkpt><trkpt lat="42.1941268" lon="13.7785016"><ele>802.0</ele><time>2026-05-02T10:56:19.644Z</time></trkpt><trkpt lat="42.1941309" lon="13.7782275"><ele>805.0</ele><time>2026-05-02T10:56:20.647Z</time></trkpt><trkpt lat="42.1941501" lon="13.7779394"><ele>808.3333333333333</ele><time>2026-05-02T10:56:21.642Z</time></trkpt><trkpt lat="42.1941825" lon="13.7776563"><ele>811.6666666666667</ele><time>2026-05-02T10:56:22.647Z</time></trkpt><trkpt lat="42.1942305" lon="13.7773677"><ele>815.0</ele><time>2026-05-02T10:56:23.643Z</time></trkpt><trkpt lat="42.1942948" lon="13.7770921"><ele>817.6666666666667</ele><time>2026-05-02T10:56:24.645Z</time></trkpt><trkpt lat="42.1943791" lon="13.7768306"><ele>820.3333333333333</ele><time>2026-05-02T10:56:25.645Z</time></trkpt><trkpt lat="42.1944787" lon="13.7765879"><ele>823.0</ele><time>2026-05-02T10:56:26.645Z</time></trkpt><trkpt lat="42.1945817" lon="13.776351"><ele>823.0</ele><time>2026-05-02T10:56:27.642Z</time></trkpt><trkpt lat="42.194672" lon="13.776112"><ele>823.0</ele><time>2026-05-02T10:56:28.643Z</time></trkpt><trkpt lat="42.1947458" lon="13.7758897"><ele>823.0</ele><time>2026-05-02T10:56:29.646Z</time></trkpt><trkpt lat="42.1948291" lon="13.7756909"><ele>824.0</ele><time>2026-05-02T10:56:30.643Z</time></trkpt><trkpt lat="42.1949436" lon="13.7754966"><ele>825.0</ele><time>2026-05-02T10:56:31.647Z</time></trkpt><trkpt lat="42.1950787" lon="13.7753112"><ele>826.0</ele><time>2026-05-02T10:56:32.644Z</time></trkpt><trkpt lat="42.1952141" lon="13.7751069"><ele>826.0</ele><time>2026-05-02T10:56:33.642Z</time></trkpt><trkpt lat="42.1953482" lon="13.7748811"><ele>826.0</ele><time>2026-05-02T10:56:34.643Z</time></trkpt><trkpt lat="42.1954822" lon="13.7746498"><ele>826.0</ele><time>2026-05-02T10:56:35.642Z</time></trkpt><trkpt lat="42.195611" lon="13.7744274"><ele>827.0</ele><time>2026-05-02T10:56:36.642Z</time></trkpt><trkpt lat="42.1957291" lon="13.7742235"><ele>828.0</ele><time>2026-05-02T10:56:37.641Z</time></trkpt><trkpt lat="42.1958386" lon="13.7740338"><ele>829.0</ele><time>2026-05-02T10:56:38.642Z</time></trkpt><trkpt lat="42.195938" lon="13.7738577"><ele>829.0</ele><time>2026-05-02T10:56:39.644Z</time></trkpt><trkpt lat="42.1960094" lon="13.7736751"><ele>829.0</ele><time>2026-05-02T10:56:40.642Z</time></trkpt><trkpt lat="42.1960477" lon="13.7734624"><ele>829.0</ele><time>2026-05-02T10:56:41.645Z</time></trkpt><trkpt lat="42.196056" lon="13.7732274"><ele>832.6666666666666</ele><time>2026-05-02T10:56:42.643Z</time></trkpt><trkpt lat="42.1960529" lon="13.7729806"><ele>836.3333333333333</ele><time>2026-05-02T10:56:43.645Z</time></trkpt><trkpt lat="42.1960621" lon="13.7727238"><ele>840.0</ele><time>2026-05-02T10:56:44.647Z</time></trkpt><trkpt lat="42.1960978" lon="13.7724664"><ele>841.0</ele><time>2026-05-02T10:56:45.645Z</time></trkpt><trkpt lat="42.1961353" lon="13.7722022"><ele>842.0</ele><time>2026-05-02T10:56:46.648Z</time></trkpt><trkpt lat="42.1961503" lon="13.7719542"><ele>843.0</ele><time>2026-05-02T10:56:47.643Z</time></trkpt><trkpt lat="42.1961439" lon="13.7717503"><ele>843.0</ele><time>2026-05-02T10:56:48.647Z</time></trkpt><trkpt lat="42.1961145" lon="13.7716027"><ele>843.0</ele><time>2026-05-02T10:56:49.648Z</time></trkpt><trkpt lat="42.1960486" lon="13.7714859"><ele>843.0</ele><time>2026-05-02T10:56:50.641Z</time></trkpt><trkpt lat="42.1959463" lon="13.7714076"><ele>843.0</ele><time>2026-05-02T10:56:51.647Z</time></trkpt><trkpt lat="42.1958128" lon="13.7713623"><ele>846.6666666666667</ele><time>2026-05-02T10:56:52.646Z</time></trkpt><trkpt lat="42.1956611" lon="13.7713428"><ele>850.3333333333334</ele><time>2026-05-02T10:56:53.644Z</time></trkpt><trkpt lat="42.1955006" lon="13.7713522"><ele>854.0</ele><time>2026-05-02T10:56:54.643Z</time></trkpt><trkpt lat="42.1953597" lon="13.7713733"><ele>854.0</ele><time>2026-05-02T10:56:55.642Z</time></trkpt><trkpt lat="42.1952249" lon="13.7713745"><ele>854.0</ele><time>2026-05-02T10:56:56.647Z</time></trkpt><trkpt lat="42.195103" lon="13.7713305"><ele>854.0</ele><time>2026-05-02T10:56:57.646Z</time></trkpt><trkpt lat="42.1950104" lon="13.7712429"><ele>854.0</ele><time>2026-05-02T10:56:58.642Z</time></trkpt><trkpt lat="42.1949569" lon="13.7711303"><ele>853.0</ele><time>2026-05-02T10:56:59.646Z</time></trkpt><trkpt lat="42.1949288" lon="13.7709831"><ele>852.0</ele><time>2026-05-02T10:57:00.643Z</time></trkpt><trkpt lat="42.1949112" lon="13.7708119"><ele>851.0</ele><time>2026-05-02T10:57:01.641Z</time></trkpt><trkpt lat="42.1948795" lon="13.770621"><ele>850.0</ele><time>2026-05-02T10:57:02.645Z</time></trkpt><trkpt lat="42.1948256" lon="13.7704188"><ele>853.6666666666666</ele><time>2026-05-02T10:57:03.643Z</time></trkpt><trkpt lat="42.1947431" lon="13.7702174"><ele>857.3333333333333</ele><time>2026-05-02T10:57:04.642Z</time></trkpt><trkpt lat="42.1946658" lon="13.7700328"><ele>861.0</ele><time>2026-05-02T10:57:05.645Z</time></trkpt><trkpt lat="42.1945997" lon="13.7698606"><ele>861.0</ele><time>2026-05-02T10:57:06.647Z</time></trkpt><trkpt lat="42.1945231" lon="13.7697205"><ele>861.0</ele><time>2026-05-02T10:57:07.647Z</time></trkpt><trkpt lat="42.1944289" lon="13.7696278"><ele>861.0</ele><time>2026-05-02T10:57:08.648Z</time></trkpt><trkpt lat="42.1943119" lon="13.7695729"><ele>861.0</ele><time>2026-05-02T10:57:09.643Z</time></trkpt><trkpt lat="42.1941701" lon="13.7695701"><ele>861.0</ele><time>2026-05-02T10:57:10.645Z</time></trkpt><trkpt lat="42.1940119" lon="13.7696097"><ele>861.0</ele><time>2026-05-02T10:57:11.646Z</time></trkpt><trkpt lat="42.1938413" lon="13.7696392"><ele>861.0</ele><time>2026-05-02T10:57:12.645Z</time></trkpt><trkpt lat="42.1936561" lon="13.7696236"><ele>864.3333333333333</ele><time>2026-05-02T10:57:13.644Z</time></trkpt><trkpt lat="42.1934632" lon="13.7696026"><ele>867.6666666666666</ele><time>2026-05-02T10:57:14.642Z</time></trkpt><trkpt lat="42.1932717" lon="13.7695954"><ele>871.0</ele><time>2026-05-02T10:57:15.646Z</time></trkpt><trkpt lat="42.1930808" lon="13.7695966"><ele>872.0</ele><time>2026-05-02T10:57:16.647Z</time></trkpt><trkpt lat="42.1928929" lon="13.7695959"><ele>873.0</ele><time>2026-05-02T10:57:17.643Z</time></trkpt><trkpt lat="42.1927084" lon="13.7695795"><ele>874.0</ele><time>2026-05-02T10:57:18.642Z</time></trkpt><trkpt lat="42.1925281" lon="13.7695373"><ele>874.0</ele><time>2026-05-02T10:57:19.641Z</time></trkpt><trkpt lat="42.1923548" lon="13.7694746"><ele>874.0</ele><time>2026-05-02T10:57:20.64Z</time></trkpt><trkpt lat="42.1921818" lon="13.7694175"><ele>874.0</ele><time>2026-05-02T10:57:21.641Z</time></trkpt><trkpt lat="42.1920044" lon="13.769391"><ele>873.6666666666666</ele><time>2026-05-02T10:57:22.643Z</time></trkpt><trkpt lat="42.191827" lon="13.7693853"><ele>873.3333333333333</ele><time>2026-05-02T10:57:23.643Z</time></trkpt><trkpt lat="42.1916608" lon="13.7693829"><ele>873.0</ele><time>2026-05-02T10:57:24.645Z</time></trkpt><trkpt lat="42.1915109" lon="13.7693649"><ele>872.8</ele><time>2026-05-02T10:57:25.645Z</time></trkpt><trkpt lat="42.1913987" lon="13.7693224"><ele>872.5999999999999</ele><time>2026-05-02T10:57:26.648Z</time></trkpt><trkpt lat="42.1913124" lon="13.7692625"><ele>872.4000000000001</ele><time>2026-05-02T10:57:27.642Z</time></trkpt><trkpt lat="42.191244" lon="13.7691839"><ele>872.2</ele><time>2026-05-02T10:57:28.647Z</time></trkpt><trkpt lat="42.1911789" lon="13.7690701"><ele>872.0</ele><time>2026-05-02T10:57:29.645Z</time></trkpt><trkpt lat="42.1911176" lon="13.7689599"><ele>872.0000000000001</ele><time>2026-05-02T10:57:30.648Z</time></trkpt><trkpt lat="42.1910545" lon="13.7688604"><ele>872.0</ele><time>2026-05-02T10:57:31.643Z</time></trkpt><trkpt lat="42.1909828" lon="13.7687838"><ele>872.0</ele><time>2026-05-02T10:57:32.643Z</time></trkpt><trkpt lat="42.1909169" lon="13.7687357"><ele>872.0</ele><time>2026-05-02T10:57:33.642Z</time></trkpt><trkpt lat="42.1908791" lon="13.768646"><ele>872.0000000000001</ele><time>2026-05-02T10:57:35.646Z</time></trkpt><trkpt lat="42.1909518" lon="13.7685533"><ele>872.0</ele><time>2026-05-02T10:57:38.644Z</time></trkpt><trkpt lat="42.1910696" lon="13.7684724"><ele>872.1666666666667</ele><time>2026-05-02T10:57:40.642Z</time></trkpt><trkpt lat="42.1911327" lon="13.7684019"><ele>872.3333333333334</ele><time>2026-05-02T10:57:41.648Z</time></trkpt><trkpt lat="42.1911906" lon="13.7683164"><ele>872.5</ele><time>2026-05-02T10:57:42.648Z</time></trkpt><trkpt lat="42.1912469" lon="13.7682265"><ele>872.6666666666667</ele><time>2026-05-02T10:57:43.643Z</time></trkpt><trkpt lat="42.1913011" lon="13.7681262"><ele>872.8333333333334</ele><time>2026-05-02T10:57:44.647Z</time></trkpt><trkpt lat="42.19136" lon="13.7680344"><ele>873.0</ele><time>2026-05-02T10:57:45.647Z</time></trkpt><trkpt lat="42.1914183" lon="13.7679541"><ele>873.0</ele><time>2026-05-02T10:57:46.643Z</time></trkpt><trkpt lat="42.1914719" lon="13.7678752"><ele>873.0</ele><time>2026-05-02T10:57:47.647Z</time></trkpt><trkpt lat="42.1915259" lon="13.7678068"><ele>873.0</ele><time>2026-05-02T10:57:48.647Z</time></trkpt><trkpt lat="42.191584" lon="13.7677583"><ele>873.0</ele><time>2026-05-02T10:57:49.642Z</time></trkpt><trkpt lat="42.1916668" lon="13.7676855"><ele>873.0</ele><time>2026-05-02T10:57:51.647Z</time></trkpt><trkpt lat="42.1917383" lon="13.7676047"><ele>873.0</ele><time>2026-05-02T10:57:53.644Z</time></trkpt><trkpt lat="42.1918047" lon="13.7674925"><ele>875.5</ele><time>2026-05-02T10:57:55.644Z</time></trkpt><trkpt lat="42.1918693" lon="13.7673523"><ele>878.0</ele><time>2026-05-02T10:57:57.646Z</time></trkpt><trkpt lat="42.1919041" lon="13.7672749"><ele>880.5</ele><time>2026-05-02T10:57:58.647Z</time></trkpt><trkpt lat="42.1919405" lon="13.7671989"><ele>883.0</ele><time>2026-05-02T10:57:59.641Z</time></trkpt><trkpt lat="42.1919684" lon="13.7671167"><ele>885.5</ele><time>2026-05-02T10:58:00.642Z</time></trkpt><trkpt lat="42.191987" lon="13.7670319"><ele>888.0</ele><time>2026-05-02T10:58:01.645Z</time></trkpt><trkpt lat="42.1920047" lon="13.7669448"><ele>890.0</ele><time>2026-05-02T10:58:02.643Z</time></trkpt><trkpt lat="42.1920293" lon="13.766859"><ele>892.0</ele><time>2026-05-02T10:58:03.646Z</time></trkpt><trkpt lat="42.1920628" lon="13.766781"><ele>894.0</ele><time>2026-05-02T10:58:04.644Z</time></trkpt><trkpt lat="42.1920986" lon="13.7667033"><ele>896.0</ele><time>2026-05-02T10:58:05.642Z</time></trkpt><trkpt lat="42.1921335" lon="13.7666239"><ele>898.0</ele><time>2026-05-02T10:58:06.647Z</time></trkpt><trkpt lat="42.1921716" lon="13.7665502"><ele>900.0</ele><time>2026-05-02T10:58:07.647Z</time></trkpt><trkpt lat="42.1922392" lon="13.7664309"><ele>902.0</ele><time>2026-05-02T10:58:09.644Z</time></trkpt><trkpt lat="42.1923111" lon="13.7663081"><ele>902.6666666666667</ele><time>2026-05-02T10:58:11.647Z</time></trkpt><trkpt lat="42.1923915" lon="13.766174"><ele>903.3333333333334</ele><time>2026-05-02T10:58:13.643Z</time></trkpt><trkpt lat="42.1924338" lon="13.7661049"><ele>904.0</ele><time>2026-05-02T10:58:14.645Z</time></trkpt><trkpt lat="42.1924745" lon="13.7660355"><ele>904.6666666666667</ele><time>2026-05-02T10:58:15.647Z</time></trkpt><trkpt lat="42.1925197" lon="13.7659621"><ele>905.3333333333334</ele><time>2026-05-02T10:58:16.644Z</time></trkpt><trkpt lat="42.1925696" lon="13.7658828"><ele>906.0</ele><time>2026-05-02T10:58:17.644Z</time></trkpt><trkpt lat="42.1926213" lon="13.7658018"><ele>906.0</ele><time>2026-05-02T10:58:18.647Z</time></trkpt><trkpt lat="42.1926765" lon="13.7657266"><ele>906.0</ele><time>2026-05-02T10:58:19.641Z</time></trkpt><trkpt lat="42.1927347" lon="13.7656541"><ele>906.0</ele><time>2026-05-02T10:58:20.641Z</time></trkpt><trkpt lat="42.1927931" lon="13.7655782"><ele>906.0</ele><time>2026-05-02T10:58:21.646Z</time></trkpt><trkpt lat="42.1928485" lon="13.765497"><ele>906.0</ele><time>2026-05-02T10:58:22.642Z</time></trkpt><trkpt lat="42.1929036" lon="13.7654164"><ele>906.0</ele><time>2026-05-02T10:58:23.645Z</time></trkpt><trkpt lat="42.1929631" lon="13.7653376"><ele>906.0</ele><time>2026-05-02T10:58:24.644Z</time></trkpt><trkpt lat="42.1930278" lon="13.7652662"><ele>906.0</ele><time>2026-05-02T10:58:25.643Z</time></trkpt><trkpt lat="42.193091" lon="13.7651997"><ele>906.0</ele><time>2026-05-02T10:58:26.647Z</time></trkpt><trkpt lat="42.1931432" lon="13.7651223"><ele>906.0</ele><time>2026-05-02T10:58:27.647Z</time></trkpt><trkpt lat="42.1931955" lon="13.7650326"><ele>906.0</ele><time>2026-05-02T10:58:28.643Z</time></trkpt><trkpt lat="42.1932485" lon="13.7649411"><ele>906.0</ele><time>2026-05-02T10:58:29.644Z</time></trkpt><trkpt lat="42.1933018" lon="13.7648512"><ele>906.5</ele><time>2026-05-02T10:58:30.642Z</time></trkpt><trkpt lat="42.1933592" lon="13.764766"><ele>907.0</ele><time>2026-05-02T10:58:31.643Z</time></trkpt><trkpt lat="42.1934216" lon="13.7646833"><ele>907.5</ele><time>2026-05-02T10:58:32.647Z</time></trkpt><trkpt lat="42.1934899" lon="13.7646071"><ele>908.0</ele><time>2026-05-02T10:58:33.642Z</time></trkpt><trkpt lat="42.1935585" lon="13.7645401"><ele>908.5</ele><time>2026-05-02T10:58:34.647Z</time></trkpt><trkpt lat="42.1936244" lon="13.7644828"><ele>909.0</ele><time>2026-05-02T10:58:35.64Z</time></trkpt><trkpt lat="42.1936925" lon="13.7644416"><ele>909.0</ele><time>2026-05-02T10:58:36.643Z</time></trkpt><trkpt lat="42.1937695" lon="13.7644111"><ele>909.0</ele><time>2026-05-02T10:58:37.643Z</time></trkpt><trkpt lat="42.1938465" lon="13.7643836"><ele>909.0</ele><time>2026-05-02T10:58:38.641Z</time></trkpt><trkpt lat="42.1939112" lon="13.7643493"><ele>909.0</ele><time>2026-05-02T10:58:39.648Z</time></trkpt><trkpt lat="42.1939638" lon="13.7642987"><ele>909.0</ele><time>2026-05-02T10:58:40.647Z</time></trkpt><trkpt lat="42.1940124" lon="13.7642299"><ele>909.0</ele><time>2026-05-02T10:58:41.645Z</time></trkpt><trkpt lat="42.1940584" lon="13.7641423"><ele>909.0</ele><time>2026-05-02T10:58:42.643Z</time></trkpt><trkpt lat="42.194102" lon="13.7640389"><ele>909.8000000000001</ele><time>2026-05-02T10:58:43.648Z</time></trkpt><trkpt lat="42.1941445" lon="13.7639337"><ele>910.6000000000001</ele><time>2026-05-02T10:58:44.642Z</time></trkpt><trkpt lat="42.1941898" lon="13.7638179"><ele>911.4</ele><time>2026-05-02T10:58:45.646Z</time></trkpt><trkpt lat="42.1942335" lon="13.763702"><ele>912.2</ele><time>2026-05-02T10:58:46.646Z</time></trkpt><trkpt lat="42.1942763" lon="13.763599"><ele>913.0</ele><time>2026-05-02T10:58:47.645Z</time></trkpt><trkpt lat="42.1943226" lon="13.7635091"><ele>915.4</ele><time>2026-05-02T10:58:48.646Z</time></trkpt><trkpt lat="42.1943778" lon="13.7634248"><ele>917.8</ele><time>2026-05-02T10:58:49.645Z</time></trkpt><trkpt lat="42.1944432" lon="13.7633378"><ele>920.2</ele><time>2026-05-02T10:58:50.644Z</time></trkpt><trkpt lat="42.1945104" lon="13.7632445"><ele>922.6</ele><time>2026-05-02T10:58:51.643Z</time></trkpt><trkpt lat="42.1945746" lon="13.7631487"><ele>925.0</ele><time>2026-05-02T10:58:52.644Z</time></trkpt><trkpt lat="42.1946365" lon="13.7630577"><ele>924.9999999999999</ele><time>2026-05-02T10:58:53.645Z</time></trkpt><trkpt lat="42.1946941" lon="13.7629781"><ele>925.0</ele><time>2026-05-02T10:58:54.646Z</time></trkpt><trkpt lat="42.1947492" lon="13.7629132"><ele>925.0</ele><time>2026-05-02T10:58:55.646Z</time></trkpt><trkpt lat="42.1948087" lon="13.7628595"><ele>925.0</ele><time>2026-05-02T10:58:56.646Z</time></trkpt><trkpt lat="42.1948775" lon="13.7628089"><ele>924.9999999999999</ele><time>2026-05-02T10:58:57.641Z</time></trkpt><trkpt lat="42.1949527" lon="13.7627619"><ele>925.0</ele><time>2026-05-02T10:58:58.64Z</time></trkpt><trkpt lat="42.195027" lon="13.7627231"><ele>924.4999999999999</ele><time>2026-05-02T10:58:59.639Z</time></trkpt><trkpt lat="42.1951016" lon="13.7626896"><ele>924.0</ele><time>2026-05-02T10:59:00.639Z</time></trkpt><trkpt lat="42.1951787" lon="13.7626582"><ele>923.5</ele><time>2026-05-02T10:59:01.643Z</time></trkpt><trkpt lat="42.1952562" lon="13.7626267"><ele>923.0</ele><time>2026-05-02T10:59:02.648Z</time></trkpt><trkpt lat="42.1953302" lon="13.7625868"><ele>922.4999999999999</ele><time>2026-05-02T10:59:03.644Z</time></trkpt><trkpt lat="42.195403" lon="13.7625292"><ele>922.0</ele><time>2026-05-02T10:59:04.645Z</time></trkpt><trkpt lat="42.1954738" lon="13.7624503"><ele>921.9999999999999</ele><time>2026-05-02T10:59:05.64Z</time></trkpt><trkpt lat="42.195541" lon="13.762354"><ele>922.0</ele><time>2026-05-02T10:59:06.644Z</time></trkpt><trkpt lat="42.1956054" lon="13.7622526"><ele>922.0</ele><time>2026-05-02T10:59:07.647Z</time></trkpt><trkpt lat="42.1956612" lon="13.7621629"><ele>922.0</ele><time>2026-05-02T10:59:08.647Z</time></trkpt><trkpt lat="42.1957069" lon="13.7620808"><ele>921.9999999999999</ele><time>2026-05-02T10:59:09.644Z</time></trkpt><trkpt lat="42.1957455" lon="13.7620059"><ele>922.0</ele><time>2026-05-02T10:59:10.646Z</time></trkpt><trkpt lat="42.1958115" lon="13.76187"><ele>922.0</ele><time>2026-05-02T10:59:12.643Z</time></trkpt><trkpt lat="42.1958705" lon="13.7617381"><ele>922.0</ele><time>2026-05-02T10:59:14.644Z</time></trkpt><trkpt lat="42.1959387" lon="13.7615858"><ele>922.0</ele><time>2026-05-02T10:59:16.643Z</time></trkpt><trkpt lat="42.1959831" lon="13.7614984"><ele>922.0</ele><time>2026-05-02T10:59:17.644Z</time></trkpt><trkpt lat="42.1960239" lon="13.7614295"><ele>922.0</ele><time>2026-05-02T10:59:18.643Z</time></trkpt><trkpt lat="42.1960808" lon="13.7613404"><ele>922.0</ele><time>2026-05-02T10:59:21.647Z</time></trkpt><trkpt lat="42.1961523" lon="13.7612472"><ele>922.0</ele><time>2026-05-02T10:59:24.643Z</time></trkpt><trkpt lat="42.1962178" lon="13.7611487"><ele>922.0</ele><time>2026-05-02T10:59:26.647Z</time></trkpt><trkpt lat="42.1962945" lon="13.7610241"><ele>922.0</ele><time>2026-05-02T10:59:28.643Z</time></trkpt><trkpt lat="42.1963357" lon="13.7609564"><ele>922.0</ele><time>2026-05-02T10:59:29.641Z</time></trkpt><trkpt lat="42.1963855" lon="13.7608447"><ele>921.9999999999999</ele><time>2026-05-02T10:59:31.647Z</time></trkpt><trkpt lat="42.1964359" lon="13.7607339"><ele>922.0</ele><time>2026-05-02T10:59:33.647Z</time></trkpt><trkpt lat="42.1964747" lon="13.7606581"><ele>922.0</ele><time>2026-05-02T10:59:34.644Z</time></trkpt><trkpt lat="42.1965171" lon="13.7605738"><ele>922.0</ele><time>2026-05-02T10:59:35.643Z</time></trkpt><trkpt lat="42.1965586" lon="13.7604899"><ele>921.9999999999999</ele><time>2026-05-02T10:59:36.644Z</time></trkpt><trkpt lat="42.1966009" lon="13.7604116"><ele>922.0</ele><time>2026-05-02T10:59:37.642Z</time></trkpt><trkpt lat="42.1966396" lon="13.7603351"><ele>922.0</ele><time>2026-05-02T10:59:38.647Z</time></trkpt><trkpt lat="42.1966799" lon="13.7602593"><ele>922.0000000000001</ele><time>2026-05-02T10:59:39.646Z</time></trkpt><trkpt lat="42.1967234" lon="13.7601804"><ele>922.0</ele><time>2026-05-02T10:59:40.648Z</time></trkpt><trkpt lat="42.1967595" lon="13.7600984"><ele>922.0</ele><time>2026-05-02T10:59:41.641Z</time></trkpt><trkpt lat="42.1967917" lon="13.7600172"><ele>922.0000000000001</ele><time>2026-05-02T10:59:42.646Z</time></trkpt><trkpt lat="42.1968252" lon="13.7599356"><ele>922.0</ele><time>2026-05-02T10:59:43.643Z</time></trkpt><trkpt lat="42.1968585" lon="13.7598561"><ele>922.0</ele><time>2026-05-02T10:59:44.647Z</time></trkpt><trkpt lat="42.1969102" lon="13.7597166"><ele>923.4999999999999</ele><time>2026-05-02T10:59:46.647Z</time></trkpt><trkpt lat="42.19695" lon="13.7595625"><ele>925.0</ele><time>2026-05-02T10:59:48.644Z</time></trkpt><trkpt lat="42.1969572" lon="13.7594683"><ele>926.5</ele><time>2026-05-02T10:59:49.645Z</time></trkpt><trkpt lat="42.1969568" lon="13.7593621"><ele>928.0</ele><time>2026-05-02T10:59:50.644Z</time></trkpt><trkpt lat="42.1969502" lon="13.7592607"><ele>929.4999999999999</ele><time>2026-05-02T10:59:51.646Z</time></trkpt><trkpt lat="42.1969416" lon="13.7591564"><ele>931.0</ele><time>2026-05-02T10:59:52.646Z</time></trkpt><trkpt lat="42.196929" lon="13.7590614"><ele>931.8333333333333</ele><time>2026-05-02T10:59:53.647Z</time></trkpt><trkpt lat="42.1968927" lon="13.7589088"><ele>932.6666666666666</ele><time>2026-05-02T10:59:55.644Z</time></trkpt><trkpt lat="42.1968834" lon="13.7587515"><ele>933.5</ele><time>2026-05-02T10:59:57.642Z</time></trkpt><trkpt lat="42.1968721" lon="13.7586624"><ele>934.3333333333333</ele><time>2026-05-02T10:59:58.648Z</time></trkpt><trkpt lat="42.1968596" lon="13.7585745"><ele>935.1666666666666</ele><time>2026-05-02T10:59:59.643Z</time></trkpt><trkpt lat="42.1968591" lon="13.7584854"><ele>936.0</ele><time>2026-05-02T11:00:00.647Z</time></trkpt><trkpt lat="42.1968723" lon="13.7583951"><ele>936.3333333333334</ele><time>2026-05-02T11:00:01.643Z</time></trkpt><trkpt lat="42.1968949" lon="13.7583074"><ele>936.6666666666667</ele><time>2026-05-02T11:00:02.641Z</time></trkpt><trkpt lat="42.1969229" lon="13.7582246"><ele>937.0</ele><time>2026-05-02T11:00:03.644Z</time></trkpt><trkpt lat="42.196953" lon="13.7581434"><ele>937.3333333333334</ele><time>2026-05-02T11:00:04.643Z</time></trkpt><trkpt lat="42.1969851" lon="13.758024"><ele>937.6666666666667</ele><time>2026-05-02T11:00:06.646Z</time></trkpt><trkpt lat="42.1970257" lon="13.7579518"><ele>938.0</ele><time>2026-05-02T11:00:08.641Z</time></trkpt><trkpt lat="42.197086" lon="13.7578435"><ele>938.0000000000001</ele><time>2026-05-02T11:00:10.644Z</time></trkpt><trkpt lat="42.1971289" lon="13.7577633"><ele>938.0</ele><time>2026-05-02T11:00:11.646Z</time></trkpt><trkpt lat="42.1971754" lon="13.7576822"><ele>938.0</ele><time>2026-05-02T11:00:12.64Z</time></trkpt><trkpt lat="42.1972207" lon="13.757588"><ele>938.0</ele><time>2026-05-02T11:00:13.645Z</time></trkpt><trkpt lat="42.1972538" lon="13.7574968"><ele>938.0000000000001</ele><time>2026-05-02T11:00:14.645Z</time></trkpt><trkpt lat="42.197273" lon="13.7574065"><ele>938.0</ele><time>2026-05-02T11:00:15.644Z</time></trkpt><trkpt lat="42.1972796" lon="13.7573072"><ele>939.3333333333334</ele><time>2026-05-02T11:00:16.648Z</time></trkpt><trkpt lat="42.197274" lon="13.7572052"><ele>940.6666666666667</ele><time>2026-05-02T11:00:17.642Z</time></trkpt><trkpt lat="42.1972575" lon="13.7571042"><ele>942.0</ele><time>2026-05-02T11:00:18.645Z</time></trkpt><trkpt lat="42.1972311" lon="13.757011"><ele>943.3333333333333</ele><time>2026-05-02T11:00:19.644Z</time></trkpt><trkpt lat="42.1972081" lon="13.7569256"><ele>944.6666666666666</ele><time>2026-05-02T11:00:20.647Z</time></trkpt><trkpt lat="42.1971764" lon="13.7567779"><ele>946.0</ele><time>2026-05-02T11:00:22.645Z</time></trkpt><trkpt lat="42.1971632" lon="13.7566309"><ele>947.1999999999999</ele><time>2026-05-02T11:00:24.648Z</time></trkpt><trkpt lat="42.1971625" lon="13.7565175"><ele>948.3999999999999</ele><time>2026-05-02T11:00:26.645Z</time></trkpt><trkpt lat="42.1972019" lon="13.7564424"><ele>949.6</ele><time>2026-05-02T11:00:43.643Z</time></trkpt><trkpt lat="42.1971852" lon="13.7562541"><ele>950.8</ele><time>2026-05-02T11:00:45.643Z</time></trkpt><trkpt lat="42.1971714" lon="13.756118"><ele>952.0</ele><time>2026-05-02T11:00:47.643Z</time></trkpt><trkpt lat="42.1971613" lon="13.7560183"><ele>953.8</ele><time>2026-05-02T11:00:49.609Z</time></trkpt><trkpt lat="42.1972012" lon="13.7559332"><ele>955.6</ele><time>2026-05-02T11:00:53.647Z</time></trkpt><trkpt lat="42.1971578" lon="13.7558354"><ele>957.3999999999999</ele><time>2026-05-02T11:01:22.643Z</time></trkpt><trkpt lat="42.1971449" lon="13.7557069"><ele>959.1999999999999</ele><time>2026-05-02T11:01:24.647Z</time></trkpt><trkpt lat="42.1971269" lon="13.7555592"><ele>961.0</ele><time>2026-05-02T11:01:26.643Z</time></trkpt><trkpt lat="42.197109" lon="13.7554248"><ele>961.0</ele><time>2026-05-02T11:01:28.641Z</time></trkpt><trkpt lat="42.1970877" lon="13.7553034"><ele>960.9999999999999</ele><time>2026-05-02T11:01:30.647Z</time></trkpt><trkpt lat="42.1970588" lon="13.75517"><ele>960.9999999999999</ele><time>2026-05-02T11:01:32.644Z</time></trkpt><trkpt lat="42.1970262" lon="13.7550298"><ele>961.0</ele><time>2026-05-02T11:01:34.64Z</time></trkpt><trkpt lat="42.1969946" lon="13.7548986"><ele>961.0</ele><time>2026-05-02T11:01:36.646Z</time></trkpt><trkpt lat="42.1969561" lon="13.7547576"><ele>963.5</ele><time>2026-05-02T11:01:38.645Z</time></trkpt><trkpt lat="42.1969279" lon="13.7546034"><ele>966.0</ele><time>2026-05-02T11:01:40.642Z</time></trkpt><trkpt lat="42.1969183" lon="13.7544469"><ele>968.5</ele><time>2026-05-02T11:01:42.643Z</time></trkpt><trkpt lat="42.1968905" lon="13.7542983"><ele>971.0</ele><time>2026-05-02T11:01:44.645Z</time></trkpt><trkpt lat="42.1968474" lon="13.7541374"><ele>973.1999999999999</ele><time>2026-05-02T11:01:46.643Z</time></trkpt><trkpt lat="42.1968108" lon="13.7540618"><ele>975.3999999999999</ele><time>2026-05-02T11:01:47.644Z</time></trkpt><trkpt lat="42.1967734" lon="13.7539925"><ele>977.6</ele><time>2026-05-02T11:01:48.646Z</time></trkpt><trkpt lat="42.1967162" lon="13.7539109"><ele>979.8</ele><time>2026-05-02T11:01:50.643Z</time></trkpt><trkpt lat="42.1966056" lon="13.7538228"><ele>982.0</ele><time>2026-05-02T11:02:12.644Z</time></trkpt><trkpt lat="42.1965404" lon="13.7536893"><ele>981.9999999999999</ele><time>2026-05-02T11:02:14.648Z</time></trkpt><trkpt lat="42.1965248" lon="13.7535574"><ele>982.0</ele><time>2026-05-02T11:02:16.647Z</time></trkpt><trkpt lat="42.1965498" lon="13.7534079"><ele>982.0</ele><time>2026-05-02T11:02:18.644Z</time></trkpt><trkpt lat="42.1965797" lon="13.7533093"><ele>982.0</ele><time>2026-05-02T11:02:19.644Z</time></trkpt><trkpt lat="42.1966105" lon="13.7532167"><ele>981.9999999999999</ele><time>2026-05-02T11:02:20.643Z</time></trkpt><trkpt lat="42.1966465" lon="13.7531467"><ele>982.0</ele><time>2026-05-02T11:02:21.641Z</time></trkpt><trkpt lat="42.1966974" lon="13.7530905"><ele>983.8333333333333</ele><time>2026-05-02T11:02:22.64Z</time></trkpt><trkpt lat="42.1967628" lon="13.7530497"><ele>985.6666666666666</ele><time>2026-05-02T11:02:23.644Z</time></trkpt><trkpt lat="42.1968336" lon="13.7530287"><ele>987.5</ele><time>2026-05-02T11:02:24.643Z</time></trkpt><trkpt lat="42.1969012" lon="13.753018"><ele>989.3333333333333</ele><time>2026-05-02T11:02:25.644Z</time></trkpt><trkpt lat="42.1969942" lon="13.7529591"><ele>991.1666666666666</ele><time>2026-05-02T11:02:27.645Z</time></trkpt><trkpt lat="42.1970467" lon="13.7529087"><ele>993.0</ele><time>2026-05-02T11:02:28.64Z</time></trkpt><trkpt lat="42.1971037" lon="13.7528506"><ele>993.0</ele><time>2026-05-02T11:02:29.642Z</time></trkpt><trkpt lat="42.1971517" lon="13.7527869"><ele>993.0</ele><time>2026-05-02T11:02:30.64Z</time></trkpt><trkpt lat="42.1971947" lon="13.7527138"><ele>993.0</ele><time>2026-05-02T11:02:31.644Z</time></trkpt><trkpt lat="42.1972398" lon="13.752628"><ele>993.0</ele><time>2026-05-02T11:02:32.645Z</time></trkpt><trkpt lat="42.1972827" lon="13.7525309"><ele>993.0</ele><time>2026-05-02T11:02:33.641Z</time></trkpt><trkpt lat="42.1973276" lon="13.752429"><ele>993.0</ele><time>2026-05-02T11:02:34.641Z</time></trkpt><trkpt lat="42.1973747" lon="13.7523261"><ele>994.0</ele><time>2026-05-02T11:02:35.647Z</time></trkpt><trkpt lat="42.1974154" lon="13.7522191"><ele>995.0</ele><time>2026-05-02T11:02:36.646Z</time></trkpt><trkpt lat="42.1974487" lon="13.7521138"><ele>996.0</ele><time>2026-05-02T11:02:37.644Z</time></trkpt><trkpt lat="42.1974784" lon="13.7520153"><ele>997.0</ele><time>2026-05-02T11:02:38.645Z</time></trkpt><trkpt lat="42.1975136" lon="13.7519267"><ele>998.0</ele><time>2026-05-02T11:02:39.647Z</time></trkpt><trkpt lat="42.1975633" lon="13.7518482"><ele>999.0</ele><time>2026-05-02T11:02:40.64Z</time></trkpt><trkpt lat="42.1976268" lon="13.7517735"><ele>1001.0</ele><time>2026-05-02T11:02:41.643Z</time></trkpt><trkpt lat="42.1976875" lon="13.7516931"><ele>1003.0</ele><time>2026-05-02T11:02:42.647Z</time></trkpt><trkpt lat="42.1977449" lon="13.7516144"><ele>1005.0</ele><time>2026-05-02T11:02:43.642Z</time></trkpt><trkpt lat="42.1978015" lon="13.7515402"><ele>1007.0</ele><time>2026-05-02T11:02:44.643Z</time></trkpt><trkpt lat="42.1978591" lon="13.7514676"><ele>1009.0</ele><time>2026-05-02T11:02:45.645Z</time></trkpt><trkpt lat="42.1979266" lon="13.7513954"><ele>1011.0</ele><time>2026-05-02T11:02:46.643Z</time></trkpt><trkpt lat="42.1979956" lon="13.7513156"><ele>1011.0</ele><time>2026-05-02T11:02:47.642Z</time></trkpt><trkpt lat="42.1980583" lon="13.7512273"><ele>1011.0</ele><time>2026-05-02T11:02:48.643Z</time></trkpt><trkpt lat="42.1981159" lon="13.7511393"><ele>1011.0</ele><time>2026-05-02T11:02:49.642Z</time></trkpt><trkpt lat="42.1981741" lon="13.751054"><ele>1011.0</ele><time>2026-05-02T11:02:50.647Z</time></trkpt><trkpt lat="42.1982355" lon="13.7509684"><ele>1011.0</ele><time>2026-05-02T11:02:51.643Z</time></trkpt><trkpt lat="42.1982926" lon="13.7508829"><ele>1011.0</ele><time>2026-05-02T11:02:52.646Z</time></trkpt><trkpt lat="42.1983423" lon="13.7508042"><ele>1012.6666666666666</ele><time>2026-05-02T11:02:53.643Z</time></trkpt><trkpt lat="42.1983901" lon="13.750731"><ele>1014.3333333333333</ele><time>2026-05-02T11:02:54.646Z</time></trkpt><trkpt lat="42.1984422" lon="13.7506623"><ele>1016.0</ele><time>2026-05-02T11:02:55.648Z</time></trkpt><trkpt lat="42.1984947" lon="13.7505901"><ele>1017.6666666666666</ele><time>2026-05-02T11:02:56.643Z</time></trkpt><trkpt lat="42.1985455" lon="13.750513"><ele>1019.3333333333333</ele><time>2026-05-02T11:02:57.644Z</time></trkpt><trkpt lat="42.1985999" lon="13.7504398"><ele>1021.0</ele><time>2026-05-02T11:02:58.646Z</time></trkpt><trkpt lat="42.1986521" lon="13.7503631"><ele>1020.9999999999999</ele><time>2026-05-02T11:02:59.642Z</time></trkpt><trkpt lat="42.1986949" lon="13.7502929"><ele>1021.0</ele><time>2026-05-02T11:03:00.643Z</time></trkpt><trkpt lat="42.198754" lon="13.750151"><ele>1021.0</ele><time>2026-05-02T11:03:02.647Z</time></trkpt><trkpt lat="42.1987647" lon="13.7500651"><ele>1021.0</ele><time>2026-05-02T11:03:03.643Z</time></trkpt><trkpt lat="42.1987696" lon="13.7499742"><ele>1020.9999999999999</ele><time>2026-05-02T11:03:04.647Z</time></trkpt><trkpt lat="42.1987695" lon="13.7498834"><ele>1021.0</ele><time>2026-05-02T11:03:05.646Z</time></trkpt><trkpt lat="42.1987723" lon="13.7497947"><ele>1022.8333333333333</ele><time>2026-05-02T11:03:06.643Z</time></trkpt><trkpt lat="42.1987677" lon="13.7497032"><ele>1024.6666666666665</ele><time>2026-05-02T11:03:07.643Z</time></trkpt><trkpt lat="42.1987535" lon="13.7495489"><ele>1026.5</ele><time>2026-05-02T11:03:09.646Z</time></trkpt><trkpt lat="42.1987544" lon="13.7494608"><ele>1028.3333333333333</ele><time>2026-05-02T11:03:10.641Z</time></trkpt><trkpt lat="42.1987429" lon="13.7493709"><ele>1030.1666666666667</ele><time>2026-05-02T11:03:11.64Z</time></trkpt><trkpt lat="42.198732" lon="13.749279"><ele>1032.0</ele><time>2026-05-02T11:03:12.645Z</time></trkpt><trkpt lat="42.1987296" lon="13.7491894"><ele>1032.7142857142856</ele><time>2026-05-02T11:03:13.643Z</time></trkpt><trkpt lat="42.1987349" lon="13.7490972"><ele>1033.4285714285713</ele><time>2026-05-02T11:03:14.643Z</time></trkpt><trkpt lat="42.1987319" lon="13.7490039"><ele>1034.142857142857</ele><time>2026-05-02T11:03:15.644Z</time></trkpt><trkpt lat="42.1987191" lon="13.7489083"><ele>1034.8571428571427</ele><time>2026-05-02T11:03:16.643Z</time></trkpt><trkpt lat="42.1987041" lon="13.7488104"><ele>1035.5714285714284</ele><time>2026-05-02T11:03:17.641Z</time></trkpt><trkpt lat="42.1986821" lon="13.7487221"><ele>1036.2857142857142</ele><time>2026-05-02T11:03:18.646Z</time></trkpt><trkpt lat="42.1986658" lon="13.7486337"><ele>1037.0</ele><time>2026-05-02T11:03:19.647Z</time></trkpt><trkpt lat="42.1986617" lon="13.7485346"><ele>1037.4</ele><time>2026-05-02T11:03:20.642Z</time></trkpt><trkpt lat="42.1986682" lon="13.7484227"><ele>1037.8000000000002</ele><time>2026-05-02T11:03:21.647Z</time></trkpt><trkpt lat="42.198686" lon="13.7483052"><ele>1038.2</ele><time>2026-05-02T11:03:22.645Z</time></trkpt><trkpt lat="42.1986975" lon="13.7481639"><ele>1038.6000000000001</ele><time>2026-05-02T11:03:23.646Z</time></trkpt><trkpt lat="42.1987025" lon="13.748011"><ele>1039.0</ele><time>2026-05-02T11:03:24.645Z</time></trkpt><trkpt lat="42.198704" lon="13.7478666"><ele>1039.0</ele><time>2026-05-02T11:03:25.643Z</time></trkpt><trkpt lat="42.1987037" lon="13.7477275"><ele>1039.0</ele><time>2026-05-02T11:03:26.647Z</time></trkpt><trkpt lat="42.1987023" lon="13.7475939"><ele>1039.0</ele><time>2026-05-02T11:03:27.647Z</time></trkpt><trkpt lat="42.1987023" lon="13.7474684"><ele>1039.0</ele><time>2026-05-02T11:03:28.646Z</time></trkpt><trkpt lat="42.1987094" lon="13.7473556"><ele>1039.0</ele><time>2026-05-02T11:03:29.647Z</time></trkpt><trkpt lat="42.198716" lon="13.7472571"><ele>1039.9999999999998</ele><time>2026-05-02T11:03:30.647Z</time></trkpt><trkpt lat="42.1987271" lon="13.7471692"><ele>1041.0</ele><time>2026-05-02T11:03:31.644Z</time></trkpt><trkpt lat="42.1987484" lon="13.7470804"><ele>1042.0</ele><time>2026-05-02T11:03:32.642Z</time></trkpt><trkpt lat="42.1987858" lon="13.7469865"><ele>1043.0</ele><time>2026-05-02T11:03:33.64Z</time></trkpt><trkpt lat="42.1988229" lon="13.746894"><ele>1044.0</ele><time>2026-05-02T11:03:34.646Z</time></trkpt><trkpt lat="42.1988432" lon="13.7468045"><ele>1044.9999999999998</ele><time>2026-05-02T11:03:35.642Z</time></trkpt><trkpt lat="42.1988536" lon="13.7467052"><ele>1046.0</ele><time>2026-05-02T11:03:36.648Z</time></trkpt><trkpt lat="42.1988557" lon="13.7465999"><ele>1047.1666666666667</ele><time>2026-05-02T11:03:37.644Z</time></trkpt><trkpt lat="42.1988548" lon="13.7464925"><ele>1048.3333333333335</ele><time>2026-05-02T11:03:38.642Z</time></trkpt><trkpt lat="42.198856" lon="13.7463859"><ele>1049.5</ele><time>2026-05-02T11:03:39.645Z</time></trkpt><trkpt lat="42.1988578" lon="13.7462824"><ele>1050.6666666666667</ele><time>2026-05-02T11:03:40.644Z</time></trkpt><trkpt lat="42.1988656" lon="13.7461729"><ele>1051.8333333333333</ele><time>2026-05-02T11:03:41.647Z</time></trkpt><trkpt lat="42.1988816" lon="13.7460639"><ele>1053.0</ele><time>2026-05-02T11:03:42.644Z</time></trkpt><trkpt lat="42.1989096" lon="13.7459621"><ele>1053.6666666666667</ele><time>2026-05-02T11:03:43.645Z</time></trkpt><trkpt lat="42.1989413" lon="13.7458604"><ele>1054.3333333333333</ele><time>2026-05-02T11:03:44.646Z</time></trkpt><trkpt lat="42.1989701" lon="13.7457473"><ele>1055.0</ele><time>2026-05-02T11:03:45.641Z</time></trkpt><trkpt lat="42.1989966" lon="13.7456341"><ele>1055.6666666666665</ele><time>2026-05-02T11:03:46.647Z</time></trkpt><trkpt lat="42.1990199" lon="13.7455367"><ele>1056.3333333333333</ele><time>2026-05-02T11:03:47.641Z</time></trkpt><trkpt lat="42.1990449" lon="13.7454477"><ele>1057.0</ele><time>2026-05-02T11:03:48.645Z</time></trkpt><trkpt lat="42.199078" lon="13.7453665"><ele>1057.0</ele><time>2026-05-02T11:03:49.644Z</time></trkpt><trkpt lat="42.1991288" lon="13.7452867"><ele>1057.0</ele><time>2026-05-02T11:03:50.647Z</time></trkpt><trkpt lat="42.1991943" lon="13.7452036"><ele>1057.0</ele><time>2026-05-02T11:03:51.644Z</time></trkpt><trkpt lat="42.1992588" lon="13.7451096"><ele>1057.0</ele><time>2026-05-02T11:03:52.641Z</time></trkpt><trkpt lat="42.1993125" lon="13.7450011"><ele>1057.0</ele><time>2026-05-02T11:03:53.64Z</time></trkpt><trkpt lat="42.1993527" lon="13.7448922"><ele>1057.4</ele><time>2026-05-02T11:03:54.644Z</time></trkpt><trkpt lat="42.1993895" lon="13.7447901"><ele>1057.8000000000002</ele><time>2026-05-02T11:03:55.644Z</time></trkpt><trkpt lat="42.1994207" lon="13.7446894"><ele>1058.2</ele><time>2026-05-02T11:03:56.645Z</time></trkpt><trkpt lat="42.1994459" lon="13.7446005"><ele>1058.6000000000001</ele><time>2026-05-02T11:03:57.647Z</time></trkpt><trkpt lat="42.1995063" lon="13.7444699"><ele>1059.0</ele><time>2026-05-02T11:03:59.642Z</time></trkpt><trkpt lat="42.1995802" lon="13.744369"><ele>1059.8</ele><time>2026-05-02T11:04:01.642Z</time></trkpt><trkpt lat="42.1996786" lon="13.7442938"><ele>1060.6000000000001</ele><time>2026-05-02T11:04:03.645Z</time></trkpt><trkpt lat="42.1997846" lon="13.744238"><ele>1061.4</ele><time>2026-05-02T11:04:05.646Z</time></trkpt><trkpt lat="42.1998789" lon="13.7441853"><ele>1062.2</ele><time>2026-05-02T11:04:07.644Z</time></trkpt><trkpt lat="42.1999754" lon="13.7441301"><ele>1063.0</ele><time>2026-05-02T11:04:09.642Z</time></trkpt><trkpt lat="42.2000726" lon="13.7440846"><ele>1060.6</ele><time>2026-05-02T11:04:11.644Z</time></trkpt><trkpt lat="42.200158" lon="13.7440253"><ele>1058.1999999999998</ele><time>2026-05-02T11:04:13.647Z</time></trkpt><trkpt lat="42.200238" lon="13.7439644"><ele>1055.8</ele><time>2026-05-02T11:04:15.645Z</time></trkpt><trkpt lat="42.2003077" lon="13.7438902"><ele>1053.3999999999999</ele><time>2026-05-02T11:04:17.647Z</time></trkpt><trkpt lat="42.2003775" lon="13.7437765"><ele>1051.0</ele><time>2026-05-02T11:04:19.645Z</time></trkpt><trkpt lat="42.2004137" lon="13.7437061"><ele>1051.0</ele><time>2026-05-02T11:04:20.647Z</time></trkpt><trkpt lat="42.2004524" lon="13.7436292"><ele>1051.0</ele><time>2026-05-02T11:04:21.647Z</time></trkpt><trkpt lat="42.2004918" lon="13.7435443"><ele>1051.0</ele><time>2026-05-02T11:04:22.648Z</time></trkpt><trkpt lat="42.2005312" lon="13.7434595"><ele>1051.0</ele><time>2026-05-02T11:04:23.641Z</time></trkpt><trkpt lat="42.2005705" lon="13.7433785"><ele>1051.0</ele><time>2026-05-02T11:04:24.647Z</time></trkpt><trkpt lat="42.2006039" lon="13.7433013"><ele>1051.0</ele><time>2026-05-02T11:04:25.641Z</time></trkpt><trkpt lat="42.2006357" lon="13.7432212"><ele>1051.0</ele><time>2026-05-02T11:04:26.644Z</time></trkpt><trkpt lat="42.2006838" lon="13.7430771"><ele>1048.8333333333333</ele><time>2026-05-02T11:04:28.647Z</time></trkpt><trkpt lat="42.2007325" lon="13.7429456"><ele>1046.6666666666665</ele><time>2026-05-02T11:04:30.644Z</time></trkpt><trkpt lat="42.2008005" lon="13.7428156"><ele>1044.5</ele><time>2026-05-02T11:04:32.641Z</time></trkpt><trkpt lat="42.2008411" lon="13.7427485"><ele>1042.3333333333333</ele><time>2026-05-02T11:04:33.642Z</time></trkpt><trkpt lat="42.2008849" lon="13.7426767"><ele>1040.1666666666667</ele><time>2026-05-02T11:04:34.642Z</time></trkpt><trkpt lat="42.200931" lon="13.7425916"><ele>1038.0</ele><time>2026-05-02T11:04:35.645Z</time></trkpt><trkpt lat="42.2009729" lon="13.74251"><ele>1038.0</ele><time>2026-05-02T11:04:36.644Z</time></trkpt><trkpt lat="42.2010141" lon="13.7424442"><ele>1038.0</ele><time>2026-05-02T11:04:37.641Z</time></trkpt><trkpt lat="42.2010675" lon="13.7423723"><ele>1038.0</ele><time>2026-05-02T11:04:38.647Z</time></trkpt><trkpt lat="42.2011299" lon="13.7422915"><ele>1038.0</ele><time>2026-05-02T11:04:39.648Z</time></trkpt><trkpt lat="42.2011949" lon="13.7422133"><ele>1038.0</ele><time>2026-05-02T11:04:40.641Z</time></trkpt><trkpt lat="42.2012598" lon="13.7421426"><ele>1038.0</ele><time>2026-05-02T11:04:41.641Z</time></trkpt><trkpt lat="42.201323" lon="13.7420688"><ele>1038.0</ele><time>2026-05-02T11:04:42.641Z</time></trkpt><trkpt lat="42.2013829" lon="13.7419928"><ele>1038.0</ele><time>2026-05-02T11:04:43.647Z</time></trkpt><trkpt lat="42.201446" lon="13.7419237"><ele>1038.0</ele><time>2026-05-02T11:04:44.638Z</time></trkpt><trkpt lat="42.2015131" lon="13.7418448"><ele>1038.0</ele><time>2026-05-02T11:04:45.639Z</time></trkpt><trkpt lat="42.2015667" lon="13.7417683"><ele>1038.0</ele><time>2026-05-02T11:04:46.639Z</time></trkpt><trkpt lat="42.2016146" lon="13.7416809"><ele>1038.0</ele><time>2026-05-02T11:04:47.648Z</time></trkpt><trkpt lat="42.201664" lon="13.7415912"><ele>1035.6666666666667</ele><time>2026-05-02T11:04:48.642Z</time></trkpt><trkpt lat="42.2017216" lon="13.741519"><ele>1033.3333333333333</ele><time>2026-05-02T11:04:49.647Z</time></trkpt><trkpt lat="42.2017904" lon="13.7414513"><ele>1031.0</ele><time>2026-05-02T11:04:50.641Z</time></trkpt><trkpt lat="42.2018608" lon="13.7413863"><ele>1028.6666666666665</ele><time>2026-05-02T11:04:51.642Z</time></trkpt><trkpt lat="42.2019232" lon="13.7413336"><ele>1026.3333333333333</ele><time>2026-05-02T11:04:52.642Z</time></trkpt><trkpt lat="42.2019833" lon="13.7412906"><ele>1024.0</ele><time>2026-05-02T11:04:53.64Z</time></trkpt><trkpt lat="42.2020521" lon="13.741277"><ele>1024.0</ele><time>2026-05-02T11:04:54.648Z</time></trkpt><trkpt lat="42.2021291" lon="13.7412615"><ele>1024.0</ele><time>2026-05-02T11:04:55.644Z</time></trkpt><trkpt lat="42.2022374" lon="13.7412535"><ele>1024.0</ele><time>2026-05-02T11:04:56.64Z</time></trkpt><trkpt lat="42.2023474" lon="13.7412244"><ele>1024.0</ele><time>2026-05-02T11:04:57.648Z</time></trkpt><trkpt lat="42.2024607" lon="13.7412017"><ele>1024.0</ele><time>2026-05-02T11:04:58.639Z</time></trkpt><trkpt lat="42.2025719" lon="13.7411784"><ele>1024.2</ele><time>2026-05-02T11:04:59.64Z</time></trkpt><trkpt lat="42.2026791" lon="13.7411579"><ele>1024.4</ele><time>2026-05-02T11:05:00.642Z</time></trkpt><trkpt lat="42.2027752" lon="13.7411378"><ele>1024.6</ele><time>2026-05-02T11:05:01.642Z</time></trkpt><trkpt lat="42.2028601" lon="13.7411014"><ele>1024.8</ele><time>2026-05-02T11:05:02.644Z</time></trkpt><trkpt lat="42.2029485" lon="13.7410557"><ele>1025.0</ele><time>2026-05-02T11:05:03.647Z</time></trkpt><trkpt lat="42.2030346" lon="13.7410283"><ele>1025.0</ele><time>2026-05-02T11:05:04.64Z</time></trkpt><trkpt lat="42.2031149" lon="13.7410051"><ele>1025.0</ele><time>2026-05-02T11:05:05.638Z</time></trkpt><trkpt lat="42.203196" lon="13.7409818"><ele>1025.0</ele><time>2026-05-02T11:05:06.644Z</time></trkpt><trkpt lat="42.2032758" lon="13.7409592"><ele>1025.0</ele><time>2026-05-02T11:05:07.644Z</time></trkpt><trkpt lat="42.2033546" lon="13.7409351"><ele>1025.0</ele><time>2026-05-02T11:05:08.641Z</time></trkpt><trkpt lat="42.2034361" lon="13.7409122"><ele>1025.0</ele><time>2026-05-02T11:05:09.646Z</time></trkpt><trkpt lat="42.2035097" lon="13.740894"><ele>1021.8333333333334</ele><time>2026-05-02T11:05:10.648Z</time></trkpt><trkpt lat="42.2036031" lon="13.7408232"><ele>1018.6666666666667</ele><time>2026-05-02T11:05:12.648Z</time></trkpt><trkpt lat="42.2036441" lon="13.7407488"><ele>1015.5</ele><time>2026-05-02T11:05:13.643Z</time></trkpt><trkpt lat="42.2036931" lon="13.7406532"><ele>1012.3333333333333</ele><time>2026-05-02T11:05:14.644Z</time></trkpt><trkpt lat="42.2037467" lon="13.7405617"><ele>1009.1666666666666</ele><time>2026-05-02T11:05:15.642Z</time></trkpt><trkpt lat="42.2038078" lon="13.7404647"><ele>1006.0</ele><time>2026-05-02T11:05:16.64Z</time></trkpt><trkpt lat="42.2038644" lon="13.7403595"><ele>1005.9999999999999</ele><time>2026-05-02T11:05:17.644Z</time></trkpt><trkpt lat="42.2039166" lon="13.7402606"><ele>1006.0</ele><time>2026-05-02T11:05:18.647Z</time></trkpt><trkpt lat="42.203968" lon="13.7401736"><ele>1006.0</ele><time>2026-05-02T11:05:19.64Z</time></trkpt><trkpt lat="42.2040295" lon="13.7400992"><ele>1006.0</ele><time>2026-05-02T11:05:20.64Z</time></trkpt><trkpt lat="42.2041044" lon="13.7400298"><ele>1005.9999999999999</ele><time>2026-05-02T11:05:21.641Z</time></trkpt><trkpt lat="42.2041841" lon="13.7399706"><ele>1006.0</ele><time>2026-05-02T11:05:22.644Z</time></trkpt><trkpt lat="42.2042626" lon="13.7399115"><ele>1004.9999999999999</ele><time>2026-05-02T11:05:23.641Z</time></trkpt><trkpt lat="42.204335" lon="13.7398469"><ele>1004.0</ele><time>2026-05-02T11:05:24.64Z</time></trkpt><trkpt lat="42.2044075" lon="13.7397851"><ele>1003.0</ele><time>2026-05-02T11:05:25.648Z</time></trkpt><trkpt lat="42.2044799" lon="13.7397286"><ele>1002.0</ele><time>2026-05-02T11:05:26.643Z</time></trkpt><trkpt lat="42.2045507" lon="13.7396771"><ele>1000.9999999999999</ele><time>2026-05-02T11:05:27.647Z</time></trkpt><trkpt lat="42.2046311" lon="13.7396355"><ele>1000.0</ele><time>2026-05-02T11:05:28.643Z</time></trkpt><trkpt lat="42.2047155" lon="13.7396044"><ele>999.9999999999999</ele><time>2026-05-02T11:05:29.64Z</time></trkpt><trkpt lat="42.2047977" lon="13.7395805"><ele>1000.0</ele><time>2026-05-02T11:05:30.643Z</time></trkpt><trkpt lat="42.2048808" lon="13.73957"><ele>1000.0</ele><time>2026-05-02T11:05:31.64Z</time></trkpt><trkpt lat="42.204948" lon="13.739545"><ele>1000.0</ele><time>2026-05-02T11:05:32.639Z</time></trkpt><trkpt lat="42.2050081" lon="13.7395072"><ele>999.9999999999999</ele><time>2026-05-02T11:05:33.64Z</time></trkpt><trkpt lat="42.2050994" lon="13.739397"><ele>1000.0</ele><time>2026-05-02T11:05:35.64Z</time></trkpt><trkpt lat="42.2051543" lon="13.739243"><ele>998.1666666666666</ele><time>2026-05-02T11:05:37.64Z</time></trkpt><trkpt lat="42.2051869" lon="13.7391629"><ele>996.3333333333333</ele><time>2026-05-02T11:05:38.64Z</time></trkpt><trkpt lat="42.2052411" lon="13.7390977"><ele>994.5</ele><time>2026-05-02T11:05:39.644Z</time></trkpt><trkpt lat="42.2053473" lon="13.7390112"><ele>992.6666666666667</ele><time>2026-05-02T11:05:41.645Z</time></trkpt><trkpt lat="42.2054254" lon="13.7389931"><ele>990.8333333333334</ele><time>2026-05-02T11:05:42.644Z</time></trkpt><trkpt lat="42.2055" lon="13.7389776"><ele>989.0</ele><time>2026-05-02T11:05:43.643Z</time></trkpt><trkpt lat="42.2055778" lon="13.7389585"><ele>989.0000000000001</ele><time>2026-05-02T11:05:44.64Z</time></trkpt><trkpt lat="42.2056593" lon="13.7389441"><ele>989.0</ele><time>2026-05-02T11:05:45.64Z</time></trkpt><trkpt lat="42.2057392" lon="13.7389329"><ele>989.0</ele><time>2026-05-02T11:05:46.648Z</time></trkpt><trkpt lat="42.2058187" lon="13.7389076"><ele>989.0</ele><time>2026-05-02T11:05:47.643Z</time></trkpt><trkpt lat="42.2058923" lon="13.7388703"><ele>989.0000000000001</ele><time>2026-05-02T11:05:48.641Z</time></trkpt><trkpt lat="42.2059623" lon="13.7388343"><ele>989.0</ele><time>2026-05-02T11:05:49.643Z</time></trkpt><trkpt lat="42.2060307" lon="13.7387895"><ele>987.8333333333334</ele><time>2026-05-02T11:05:50.648Z</time></trkpt><trkpt lat="42.2060969" lon="13.7387356"><ele>986.6666666666667</ele><time>2026-05-02T11:05:51.647Z</time></trkpt><trkpt lat="42.2061666" lon="13.7386941"><ele>985.5</ele><time>2026-05-02T11:05:52.643Z</time></trkpt><trkpt lat="42.2062353" lon="13.7386818"><ele>984.3333333333333</ele><time>2026-05-02T11:05:53.647Z</time></trkpt><trkpt lat="42.2063075" lon="13.7386975"><ele>983.1666666666666</ele><time>2026-05-02T11:05:54.643Z</time></trkpt><trkpt lat="42.2063998" lon="13.7387342"><ele>982.0</ele><time>2026-05-02T11:05:55.646Z</time></trkpt><trkpt lat="42.2065059" lon="13.7387802"><ele>982.0</ele><time>2026-05-02T11:05:56.647Z</time></trkpt><trkpt lat="42.2066097" lon="13.7388117"><ele>982.0</ele><time>2026-05-02T11:05:57.645Z</time></trkpt><trkpt lat="42.2067135" lon="13.7388163"><ele>982.0</ele><time>2026-05-02T11:05:58.641Z</time></trkpt><trkpt lat="42.2068182" lon="13.7388152"><ele>982.0</ele><time>2026-05-02T11:05:59.642Z</time></trkpt><trkpt lat="42.2069113" lon="13.7388212"><ele>982.0</ele><time>2026-05-02T11:06:00.639Z</time></trkpt><trkpt lat="42.2069991" lon="13.7388265"><ele>982.0</ele><time>2026-05-02T11:06:01.646Z</time></trkpt><trkpt lat="42.207085" lon="13.7388253"><ele>982.0</ele><time>2026-05-02T11:06:02.646Z</time></trkpt><trkpt lat="42.207156" lon="13.7388136"><ele>982.0</ele><time>2026-05-02T11:06:03.647Z</time></trkpt><trkpt lat="42.2072799" lon="13.7387466"><ele>982.0</ele><time>2026-05-02T11:06:05.642Z</time></trkpt><trkpt lat="42.207355" lon="13.7386956"><ele>982.0</ele><time>2026-05-02T11:06:06.647Z</time></trkpt><trkpt lat="42.207429" lon="13.7386312"><ele>984.2</ele><time>2026-05-02T11:06:07.645Z</time></trkpt><trkpt lat="42.2075012" lon="13.7385517"><ele>986.4000000000001</ele><time>2026-05-02T11:06:08.646Z</time></trkpt><trkpt lat="42.2075678" lon="13.7384621"><ele>988.5999999999999</ele><time>2026-05-02T11:06:09.644Z</time></trkpt><trkpt lat="42.2076308" lon="13.7383686"><ele>990.8</ele><time>2026-05-02T11:06:10.647Z</time></trkpt><trkpt lat="42.2076869" lon="13.7382747"><ele>993.0</ele><time>2026-05-02T11:06:11.642Z</time></trkpt><trkpt lat="42.2077398" lon="13.7381885"><ele>993.0</ele><time>2026-05-02T11:06:12.647Z</time></trkpt><trkpt lat="42.2077952" lon="13.7381126"><ele>993.0</ele><time>2026-05-02T11:06:13.647Z</time></trkpt><trkpt lat="42.2078551" lon="13.7380411"><ele>993.0</ele><time>2026-05-02T11:06:14.644Z</time></trkpt><trkpt lat="42.2079226" lon="13.7379779"><ele>993.0</ele><time>2026-05-02T11:06:15.64Z</time></trkpt><trkpt lat="42.2079967" lon="13.7379191"><ele>993.0</ele><time>2026-05-02T11:06:16.641Z</time></trkpt><trkpt lat="42.2080673" lon="13.7378553"><ele>993.0</ele><time>2026-05-02T11:06:17.64Z</time></trkpt><trkpt lat="42.2081419" lon="13.7377957"><ele>993.8</ele><time>2026-05-02T11:06:18.643Z</time></trkpt><trkpt lat="42.2082268" lon="13.7377435"><ele>994.5999999999999</ele><time>2026-05-02T11:06:19.642Z</time></trkpt><trkpt lat="42.2083103" lon="13.7376877"><ele>995.4000000000001</ele><time>2026-05-02T11:06:20.645Z</time></trkpt><trkpt lat="42.2083953" lon="13.7376378"><ele>996.2</ele><time>2026-05-02T11:06:21.647Z</time></trkpt><trkpt lat="42.2084855" lon="13.737593"><ele>997.0</ele><time>2026-05-02T11:06:22.646Z</time></trkpt><trkpt lat="42.2085704" lon="13.7375547"><ele>997.0</ele><time>2026-05-02T11:06:23.642Z</time></trkpt><trkpt lat="42.20865" lon="13.7375203"><ele>997.0</ele><time>2026-05-02T11:06:24.641Z</time></trkpt><trkpt lat="42.2087402" lon="13.7374751"><ele>997.0</ele><time>2026-05-02T11:06:25.643Z</time></trkpt><trkpt lat="42.2088412" lon="13.7374205"><ele>997.0</ele><time>2026-05-02T11:06:26.648Z</time></trkpt><trkpt lat="42.2089382" lon="13.7373702"><ele>997.0</ele><time>2026-05-02T11:06:27.644Z</time></trkpt><trkpt lat="42.2090295" lon="13.7373235"><ele>994.6666666666666</ele><time>2026-05-02T11:06:28.648Z</time></trkpt><trkpt lat="42.2091168" lon="13.7372782"><ele>992.3333333333333</ele><time>2026-05-02T11:06:29.64Z</time></trkpt><trkpt lat="42.2091972" lon="13.7372422"><ele>990.0</ele><time>2026-05-02T11:06:30.645Z</time></trkpt><trkpt lat="42.2092785" lon="13.7372083"><ele>987.6666666666667</ele><time>2026-05-02T11:06:31.644Z</time></trkpt><trkpt lat="42.2093558" lon="13.7371685"><ele>985.3333333333334</ele><time>2026-05-02T11:06:32.639Z</time></trkpt><trkpt lat="42.209426" lon="13.7371291"><ele>983.0</ele><time>2026-05-02T11:06:33.646Z</time></trkpt><trkpt lat="42.20949" lon="13.7370976"><ele>983.0000000000001</ele><time>2026-05-02T11:06:34.642Z</time></trkpt><trkpt lat="42.2095814" lon="13.737053"><ele>983.0</ele><time>2026-05-02T11:06:36.644Z</time></trkpt><trkpt lat="42.2096393" lon="13.7369799"><ele>983.0</ele><time>2026-05-02T11:06:38.643Z</time></trkpt><trkpt lat="42.2096996" lon="13.7368534"><ele>983.0</ele><time>2026-05-02T11:06:40.641Z</time></trkpt><trkpt lat="42.2097514" lon="13.7367896"><ele>983.0000000000001</ele><time>2026-05-02T11:06:41.646Z</time></trkpt><trkpt lat="42.2098093" lon="13.7367358"><ele>983.0</ele><time>2026-05-02T11:06:42.645Z</time></trkpt><trkpt lat="42.2099173" lon="13.7366517"><ele>983.2</ele><time>2026-05-02T11:06:44.641Z</time></trkpt><trkpt lat="42.2099691" lon="13.7366005"><ele>983.4</ele><time>2026-05-02T11:06:45.641Z</time></trkpt><trkpt lat="42.2100541" lon="13.7365073"><ele>983.6000000000001</ele><time>2026-05-02T11:06:47.647Z</time></trkpt><trkpt lat="42.2101361" lon="13.7364126"><ele>983.8000000000001</ele><time>2026-05-02T11:06:49.645Z</time></trkpt><trkpt lat="42.2102268" lon="13.7363375"><ele>984.0</ele><time>2026-05-02T11:06:51.647Z</time></trkpt><trkpt lat="42.2102832" lon="13.7362968"><ele>984.0</ele><time>2026-05-02T11:06:52.64Z</time></trkpt><trkpt lat="42.21034" lon="13.736259"><ele>984.0</ele><time>2026-05-02T11:06:53.645Z</time></trkpt><trkpt lat="42.2104259" lon="13.7361941"><ele>984.0</ele><time>2026-05-02T11:06:55.647Z</time></trkpt><trkpt lat="42.2104037" lon="13.7361112"><ele>984.0</ele><time>2026-05-02T11:07:09.568Z</time></trkpt><trkpt lat="42.2103313" lon="13.736106"><ele>984.0</ele><time>2026-05-02T11:07:12.646Z</time></trkpt><trkpt lat="42.2102365" lon="13.7360532"><ele>984.0</ele><time>2026-05-02T11:07:15.641Z</time></trkpt><trkpt lat="42.2101536" lon="13.7360009"><ele>985.4000000000001</ele><time>2026-05-02T11:07:17.645Z</time></trkpt><trkpt lat="42.2100922" lon="13.7359411"><ele>986.8000000000001</ele><time>2026-05-02T11:07:19.646Z</time></trkpt><trkpt lat="42.2100515" lon="13.7358757"><ele>988.1999999999999</ele><time>2026-05-02T11:07:21.647Z</time></trkpt><trkpt lat="42.2099246" lon="13.7357819"><ele>989.5999999999999</ele><time>2026-05-02T11:07:23.641Z</time></trkpt><trkpt lat="42.2098652" lon="13.7357321"><ele>991.0</ele><time>2026-05-02T11:07:24.641Z</time></trkpt><trkpt lat="42.2097681" lon="13.735637"><ele>994.1999999999999</ele><time>2026-05-02T11:07:26.644Z</time></trkpt><trkpt lat="42.2096883" lon="13.7355524"><ele>997.3999999999999</ele><time>2026-05-02T11:07:28.645Z</time></trkpt><trkpt lat="42.2096157" lon="13.7354621"><ele>1000.6</ele><time>2026-05-02T11:07:30.642Z</time></trkpt><trkpt lat="42.2095514" lon="13.7353654"><ele>1003.8</ele><time>2026-05-02T11:07:32.64Z</time></trkpt><trkpt lat="42.2094771" lon="13.7352768"><ele>1007.0</ele><time>2026-05-02T11:07:34.644Z</time></trkpt><trkpt lat="42.2094067" lon="13.7351971"><ele>1007.0</ele><time>2026-05-02T11:07:36.648Z</time></trkpt><trkpt lat="42.2093355" lon="13.7351423"><ele>1007.0</ele><time>2026-05-02T11:07:38.647Z</time></trkpt><trkpt lat="42.2092315" lon="13.7350955"><ele>1007.0</ele><time>2026-05-02T11:07:40.644Z</time></trkpt><trkpt lat="42.2091047" lon="13.7350645"><ele>1007.0</ele><time>2026-05-02T11:07:42.647Z</time></trkpt><trkpt lat="42.2090307" lon="13.735057"><ele>1007.0</ele><time>2026-05-02T11:07:43.645Z</time></trkpt><trkpt lat="42.2089498" lon="13.7350542"><ele>1010.6666666666667</ele><time>2026-05-02T11:07:44.643Z</time></trkpt><trkpt lat="42.2088693" lon="13.7350544"><ele>1014.3333333333334</ele><time>2026-05-02T11:07:45.639Z</time></trkpt><trkpt lat="42.2087898" lon="13.7350575"><ele>1018.0</ele><time>2026-05-02T11:07:46.641Z</time></trkpt><trkpt lat="42.2087098" lon="13.7350671"><ele>1021.6666666666667</ele><time>2026-05-02T11:07:47.644Z</time></trkpt><trkpt lat="42.2086264" lon="13.735084"><ele>1025.3333333333333</ele><time>2026-05-02T11:07:48.642Z</time></trkpt><trkpt lat="42.2085396" lon="13.7351062"><ele>1029.0</ele><time>2026-05-02T11:07:49.647Z</time></trkpt><trkpt lat="42.2084624" lon="13.7351349"><ele>1029.0</ele><time>2026-05-02T11:07:50.641Z</time></trkpt><trkpt lat="42.2083954" lon="13.735175"><ele>1029.0</ele><time>2026-05-02T11:07:51.648Z</time></trkpt><trkpt lat="42.2083306" lon="13.7352256"><ele>1029.0</ele><time>2026-05-02T11:07:52.644Z</time></trkpt><trkpt lat="42.2082661" lon="13.7352861"><ele>1029.0</ele><time>2026-05-02T11:07:53.642Z</time></trkpt><trkpt lat="42.2082095" lon="13.7353596"><ele>1029.0</ele><time>2026-05-02T11:07:54.646Z</time></trkpt><trkpt lat="42.2081619" lon="13.7354478"><ele>1029.0</ele><time>2026-05-02T11:07:55.638Z</time></trkpt><trkpt lat="42.2081175" lon="13.7355401"><ele>1030.8333333333333</ele><time>2026-05-02T11:07:56.64Z</time></trkpt><trkpt lat="42.2080781" lon="13.7356356"><ele>1032.6666666666667</ele><time>2026-05-02T11:07:57.639Z</time></trkpt><trkpt lat="42.2080504" lon="13.7357361"><ele>1034.5</ele><time>2026-05-02T11:07:58.646Z</time></trkpt><trkpt lat="42.208022" lon="13.7358384"><ele>1036.3333333333335</ele><time>2026-05-02T11:07:59.647Z</time></trkpt><trkpt lat="42.2079815" lon="13.7359384"><ele>1038.1666666666667</ele><time>2026-05-02T11:08:00.646Z</time></trkpt><trkpt lat="42.2079348" lon="13.7360352"><ele>1040.0</ele><time>2026-05-02T11:08:01.643Z</time></trkpt><trkpt lat="42.2078896" lon="13.7361285"><ele>1040.0</ele><time>2026-05-02T11:08:02.641Z</time></trkpt><trkpt lat="42.2078509" lon="13.7362087"><ele>1040.0</ele><time>2026-05-02T11:08:03.646Z</time></trkpt><trkpt lat="42.2077827" lon="13.7363382"><ele>1040.0</ele><time>2026-05-02T11:08:05.644Z</time></trkpt><trkpt lat="42.2077351" lon="13.7364115"><ele>1040.0</ele><time>2026-05-02T11:08:06.647Z</time></trkpt><trkpt lat="42.2076807" lon="13.7364848"><ele>1040.0</ele><time>2026-05-02T11:08:07.647Z</time></trkpt><trkpt lat="42.2076308" lon="13.7365561"><ele>1040.0</ele><time>2026-05-02T11:08:08.641Z</time></trkpt><trkpt lat="42.2075851" lon="13.7366212"><ele>1040.0000000000002</ele><time>2026-05-02T11:08:09.641Z</time></trkpt><trkpt lat="42.2075368" lon="13.7366814"><ele>1040.0</ele><time>2026-05-02T11:08:10.645Z</time></trkpt><trkpt lat="42.207484" lon="13.7367406"><ele>1040.0</ele><time>2026-05-02T11:08:11.64Z</time></trkpt><trkpt lat="42.2074268" lon="13.7367959"><ele>1040.0</ele><time>2026-05-02T11:08:12.643Z</time></trkpt><trkpt lat="42.2073692" lon="13.7368469"><ele>1040.0</ele><time>2026-05-02T11:08:13.646Z</time></trkpt><trkpt lat="42.2073115" lon="13.7368893"><ele>1040.0000000000002</ele><time>2026-05-02T11:08:14.645Z</time></trkpt><trkpt lat="42.2072143" lon="13.7369413"><ele>1040.0</ele><time>2026-05-02T11:08:16.645Z</time></trkpt><trkpt lat="42.2071197" lon="13.736936"><ele>1040.1666666666667</ele><time>2026-05-02T11:08:19.644Z</time></trkpt><trkpt lat="42.2070482" lon="13.7368793"><ele>1040.3333333333335</ele><time>2026-05-02T11:08:21.647Z</time></trkpt><trkpt lat="42.2070045" lon="13.7367754"><ele>1040.5</ele><time>2026-05-02T11:08:23.648Z</time></trkpt><trkpt lat="42.2069841" lon="13.7366888"><ele>1040.6666666666667</ele><time>2026-05-02T11:08:24.646Z</time></trkpt><trkpt lat="42.2069586" lon="13.7365895"><ele>1040.8333333333333</ele><time>2026-05-02T11:08:25.645Z</time></trkpt><trkpt lat="42.2069316" lon="13.7364861"><ele>1041.0</ele><time>2026-05-02T11:08:26.645Z</time></trkpt><trkpt lat="42.2069048" lon="13.7363752"><ele>1041.0</ele><time>2026-05-02T11:08:27.642Z</time></trkpt><trkpt lat="42.2068791" lon="13.7362652"><ele>1041.0</ele><time>2026-05-02T11:08:28.647Z</time></trkpt><trkpt lat="42.2068564" lon="13.7361618"><ele>1041.0</ele><time>2026-05-02T11:08:29.645Z</time></trkpt><trkpt lat="42.2068355" lon="13.7360699"><ele>1041.0</ele><time>2026-05-02T11:08:30.648Z</time></trkpt><trkpt lat="42.20681" lon="13.7359201"><ele>1041.0</ele><time>2026-05-02T11:08:32.645Z</time></trkpt><trkpt lat="42.2068069" lon="13.7357972"><ele>1041.0</ele><time>2026-05-02T11:08:34.641Z</time></trkpt><trkpt lat="42.2068154" lon="13.7356598"><ele>1043.3999999999999</ele><time>2026-05-02T11:08:36.64Z</time></trkpt><trkpt lat="42.2068083" lon="13.7355185"><ele>1045.8</ele><time>2026-05-02T11:08:38.643Z</time></trkpt><trkpt lat="42.2067531" lon="13.7353637"><ele>1048.1999999999998</ele><time>2026-05-02T11:08:40.647Z</time></trkpt><trkpt lat="42.2067119" lon="13.7352804"><ele>1050.6</ele><time>2026-05-02T11:08:41.642Z</time></trkpt><trkpt lat="42.2066714" lon="13.7351975"><ele>1053.0</ele><time>2026-05-02T11:08:42.639Z</time></trkpt><trkpt lat="42.2066355" lon="13.7351064"><ele>1055.0</ele><time>2026-05-02T11:08:43.639Z</time></trkpt><trkpt lat="42.2066062" lon="13.7350072"><ele>1057.0</ele><time>2026-05-02T11:08:44.639Z</time></trkpt><trkpt lat="42.2065823" lon="13.7349044"><ele>1059.0</ele><time>2026-05-02T11:08:45.643Z</time></trkpt><trkpt lat="42.2065658" lon="13.7347977"><ele>1061.0</ele><time>2026-05-02T11:08:46.644Z</time></trkpt><trkpt lat="42.2065586" lon="13.7346853"><ele>1063.0</ele><time>2026-05-02T11:08:47.648Z</time></trkpt><trkpt lat="42.2065605" lon="13.7345672"><ele>1065.0</ele><time>2026-05-02T11:08:48.642Z</time></trkpt><trkpt lat="42.20657" lon="13.7344495"><ele>1066.4</ele><time>2026-05-02T11:08:49.646Z</time></trkpt><trkpt lat="42.206581" lon="13.7343349"><ele>1067.8</ele><time>2026-05-02T11:08:50.641Z</time></trkpt><trkpt lat="42.2065952" lon="13.7342148"><ele>1069.2</ele><time>2026-05-02T11:08:51.647Z</time></trkpt><trkpt lat="42.2066162" lon="13.7340838"><ele>1070.6</ele><time>2026-05-02T11:08:52.647Z</time></trkpt><trkpt lat="42.2066417" lon="13.7339469"><ele>1072.0</ele><time>2026-05-02T11:08:53.643Z</time></trkpt><trkpt lat="42.2066641" lon="13.7338232"><ele>1072.0</ele><time>2026-05-02T11:08:54.642Z</time></trkpt><trkpt lat="42.2066742" lon="13.7337124"><ele>1072.0</ele><time>2026-05-02T11:08:55.641Z</time></trkpt><trkpt lat="42.2066677" lon="13.7336026"><ele>1072.0</ele><time>2026-05-02T11:08:56.643Z</time></trkpt><trkpt lat="42.2066494" lon="13.7334907"><ele>1072.0</ele><time>2026-05-02T11:08:57.642Z</time></trkpt><trkpt lat="42.2066235" lon="13.7333745"><ele>1072.0</ele><time>2026-05-02T11:08:58.647Z</time></trkpt><trkpt lat="42.2065912" lon="13.7332552"><ele>1072.0</ele><time>2026-05-02T11:08:59.642Z</time></trkpt><trkpt lat="42.2065576" lon="13.7331387"><ele>1073.3333333333333</ele><time>2026-05-02T11:09:00.643Z</time></trkpt><trkpt lat="42.2065189" lon="13.733028"><ele>1074.6666666666665</ele><time>2026-05-02T11:09:01.642Z</time></trkpt><trkpt lat="42.2064724" lon="13.7329251"><ele>1076.0</ele><time>2026-05-02T11:09:02.639Z</time></trkpt><trkpt lat="42.2064254" lon="13.7328312"><ele>1077.3333333333333</ele><time>2026-05-02T11:09:03.64Z</time></trkpt><trkpt lat="42.206377" lon="13.7327395"><ele>1078.6666666666667</ele><time>2026-05-02T11:09:04.639Z</time></trkpt><trkpt lat="42.2063182" lon="13.7326583"><ele>1080.0</ele><time>2026-05-02T11:09:05.644Z</time></trkpt><trkpt lat="42.2062583" lon="13.7325932"><ele>1082.5</ele><time>2026-05-02T11:09:06.648Z</time></trkpt><trkpt lat="42.2062132" lon="13.7325326"><ele>1085.0</ele><time>2026-05-02T11:09:07.641Z</time></trkpt><trkpt lat="42.2061755" lon="13.7324628"><ele>1087.5</ele><time>2026-05-02T11:09:08.639Z</time></trkpt><trkpt lat="42.2061456" lon="13.7323812"><ele>1090.0</ele><time>2026-05-02T11:09:09.643Z</time></trkpt><trkpt lat="42.206127" lon="13.7322788"><ele>1092.5</ele><time>2026-05-02T11:09:10.639Z</time></trkpt><trkpt lat="42.206114" lon="13.7321567"><ele>1095.0</ele><time>2026-05-02T11:09:11.644Z</time></trkpt><trkpt lat="42.2061075" lon="13.7320306"><ele>1095.0</ele><time>2026-05-02T11:09:12.639Z</time></trkpt><trkpt lat="42.2061014" lon="13.7318995"><ele>1095.0</ele><time>2026-05-02T11:09:13.642Z</time></trkpt><trkpt lat="42.2060969" lon="13.7317699"><ele>1095.0</ele><time>2026-05-02T11:09:14.646Z</time></trkpt><trkpt lat="42.2060905" lon="13.73165"><ele>1095.0</ele><time>2026-05-02T11:09:15.644Z</time></trkpt><trkpt lat="42.2060775" lon="13.7315364"><ele>1095.0</ele><time>2026-05-02T11:09:16.645Z</time></trkpt><trkpt lat="42.206055" lon="13.7314241"><ele>1097.1666666666667</ele><time>2026-05-02T11:09:17.64Z</time></trkpt><trkpt lat="42.2060254" lon="13.7313183"><ele>1099.3333333333333</ele><time>2026-05-02T11:09:18.638Z</time></trkpt><trkpt lat="42.2059936" lon="13.7312294"><ele>1101.5</ele><time>2026-05-02T11:09:19.643Z</time></trkpt><trkpt lat="42.2059581" lon="13.731146"><ele>1103.6666666666665</ele><time>2026-05-02T11:09:20.643Z</time></trkpt><trkpt lat="42.2059184" lon="13.7310513"><ele>1105.8333333333333</ele><time>2026-05-02T11:09:21.64Z</time></trkpt><trkpt lat="42.2058798" lon="13.7309601"><ele>1108.0</ele><time>2026-05-02T11:09:22.639Z</time></trkpt><trkpt lat="42.2058416" lon="13.7308776"><ele>1110.2</ele><time>2026-05-02T11:09:23.64Z</time></trkpt><trkpt lat="42.2057939" lon="13.7307353"><ele>1112.4</ele><time>2026-05-02T11:09:25.638Z</time></trkpt><trkpt lat="42.205753" lon="13.7305688"><ele>1114.6000000000001</ele><time>2026-05-02T11:09:27.639Z</time></trkpt><trkpt lat="42.2057338" lon="13.7304858"><ele>1116.8</ele><time>2026-05-02T11:09:28.64Z</time></trkpt><trkpt lat="42.2056667" lon="13.7303683"><ele>1119.0</ele><time>2026-05-02T11:09:30.639Z</time></trkpt><trkpt lat="42.2056233" lon="13.7302919"><ele>1121.6000000000001</ele><time>2026-05-02T11:09:31.641Z</time></trkpt><trkpt lat="42.2055949" lon="13.7302073"><ele>1124.2</ele><time>2026-05-02T11:09:32.646Z</time></trkpt><trkpt lat="42.2055696" lon="13.7300823"><ele>1126.8000000000002</ele><time>2026-05-02T11:09:34.648Z</time></trkpt><trkpt lat="42.2055248" lon="13.7299687"><ele>1129.4</ele><time>2026-05-02T11:09:36.646Z</time></trkpt><trkpt lat="42.2054477" lon="13.7298318"><ele>1132.0</ele><time>2026-05-02T11:09:38.642Z</time></trkpt><trkpt lat="42.2053972" lon="13.7297703"><ele>1132.0</ele><time>2026-05-02T11:09:39.642Z</time></trkpt><trkpt lat="42.2053471" lon="13.7297034"><ele>1132.0</ele><time>2026-05-02T11:09:40.642Z</time></trkpt><trkpt lat="42.2052994" lon="13.7296305"><ele>1132.0</ele><time>2026-05-02T11:09:41.645Z</time></trkpt><trkpt lat="42.2052531" lon="13.7295508"><ele>1132.0</ele><time>2026-05-02T11:09:42.641Z</time></trkpt><trkpt lat="42.2052097" lon="13.7294595"><ele>1132.0</ele><time>2026-05-02T11:09:43.644Z</time></trkpt><trkpt lat="42.2051644" lon="13.7293712"><ele>1132.0</ele><time>2026-05-02T11:09:44.642Z</time></trkpt><trkpt lat="42.2051097" lon="13.7292885"><ele>1131.5</ele><time>2026-05-02T11:09:45.642Z</time></trkpt><trkpt lat="42.2050526" lon="13.7292093"><ele>1131.0</ele><time>2026-05-02T11:09:46.642Z</time></trkpt><trkpt lat="42.2050016" lon="13.7291364"><ele>1130.5</ele><time>2026-05-02T11:09:47.644Z</time></trkpt><trkpt lat="42.2049552" lon="13.7290719"><ele>1130.0</ele><time>2026-05-02T11:09:48.647Z</time></trkpt><trkpt lat="42.2048759" lon="13.7289741"><ele>1129.5</ele><time>2026-05-02T11:09:50.642Z</time></trkpt><trkpt lat="42.2048002" lon="13.7289495"><ele>1129.0</ele><time>2026-05-02T11:09:53.643Z</time></trkpt><trkpt lat="42.2047093" lon="13.7289214"><ele>1130.2</ele><time>2026-05-02T11:09:55.647Z</time></trkpt><trkpt lat="42.2046202" lon="13.7288839"><ele>1131.4</ele><time>2026-05-02T11:09:57.645Z</time></trkpt><trkpt lat="42.2045275" lon="13.7288403"><ele>1132.6</ele><time>2026-05-02T11:09:59.644Z</time></trkpt><trkpt lat="42.2044088" lon="13.7287846"><ele>1133.8</ele><time>2026-05-02T11:10:01.642Z</time></trkpt><trkpt lat="42.2042967" lon="13.7287392"><ele>1135.0</ele><time>2026-05-02T11:10:03.64Z</time></trkpt><trkpt lat="42.2042115" lon="13.728663"><ele>1135.0</ele><time>2026-05-02T11:10:05.642Z</time></trkpt><trkpt lat="42.204101" lon="13.7285605"><ele>1135.0</ele><time>2026-05-02T11:10:07.647Z</time></trkpt><trkpt lat="42.2040387" lon="13.728504"><ele>1135.0</ele><time>2026-05-02T11:10:08.641Z</time></trkpt><trkpt lat="42.2039789" lon="13.7284477"><ele>1135.0</ele><time>2026-05-02T11:10:09.644Z</time></trkpt><trkpt lat="42.2039233" lon="13.7283983"><ele>1135.0</ele><time>2026-05-02T11:10:10.644Z</time></trkpt><trkpt lat="42.2038031" lon="13.7283721"><ele>1134.4285714285716</ele><time>2026-05-02T11:10:12.647Z</time></trkpt><trkpt lat="42.2037374" lon="13.7283895"><ele>1133.857142857143</ele><time>2026-05-02T11:10:13.643Z</time></trkpt><trkpt lat="42.2036681" lon="13.7284187"><ele>1133.2857142857142</ele><time>2026-05-02T11:10:14.64Z</time></trkpt><trkpt lat="42.2036051" lon="13.7284498"><ele>1132.7142857142858</ele><time>2026-05-02T11:10:15.64Z</time></trkpt><trkpt lat="42.2035019" lon="13.7284845"><ele>1132.142857142857</ele><time>2026-05-02T11:10:17.646Z</time></trkpt><trkpt lat="42.203437" lon="13.7284916"><ele>1131.5714285714287</ele><time>2026-05-02T11:10:18.642Z</time></trkpt><trkpt lat="42.2033681" lon="13.7285118"><ele>1131.0</ele><time>2026-05-02T11:10:19.646Z</time></trkpt><trkpt lat="42.203301" lon="13.7285343"><ele>1131.0</ele><time>2026-05-02T11:10:20.643Z</time></trkpt><trkpt lat="42.2032348" lon="13.7285587"><ele>1131.0</ele><time>2026-05-02T11:10:21.646Z</time></trkpt><trkpt lat="42.2031699" lon="13.7285771"><ele>1131.0</ele><time>2026-05-02T11:10:22.641Z</time></trkpt><trkpt lat="42.2031038" lon="13.7285868"><ele>1131.0</ele><time>2026-05-02T11:10:23.646Z</time></trkpt><trkpt lat="42.2030328" lon="13.7285898"><ele>1131.0</ele><time>2026-05-02T11:10:25.642Z</time></trkpt><trkpt lat="42.2029484" lon="13.728584"><ele>1131.0</ele><time>2026-05-02T11:11:25.647Z</time></trkpt><trkpt lat="42.202813" lon="13.7285859"><ele>1133.0</ele><time>2026-05-02T11:11:27.647Z</time></trkpt><trkpt lat="42.2027388" lon="13.7285841"><ele>1135.0</ele><time>2026-05-02T11:11:28.64Z</time></trkpt><trkpt lat="42.2026499" lon="13.7285851"><ele>1137.0</ele><time>2026-05-02T11:11:29.641Z</time></trkpt><trkpt lat="42.202556" lon="13.7285966"><ele>1139.0</ele><time>2026-05-02T11:11:30.644Z</time></trkpt><trkpt lat="42.2024564" lon="13.7286064"><ele>1141.0</ele><time>2026-05-02T11:11:31.643Z</time></trkpt><trkpt lat="42.202355" lon="13.7285989"><ele>1141.3999999999999</ele><time>2026-05-02T11:11:32.642Z</time></trkpt><trkpt lat="42.2022539" lon="13.7285723"><ele>1141.8</ele><time>2026-05-02T11:11:33.64Z</time></trkpt><trkpt lat="42.2021558" lon="13.7285336"><ele>1142.1999999999998</ele><time>2026-05-02T11:11:34.64Z</time></trkpt><trkpt lat="42.2020631" lon="13.7284968"><ele>1142.6</ele><time>2026-05-02T11:11:35.643Z</time></trkpt><trkpt lat="42.2019621" lon="13.7284698"><ele>1143.0</ele><time>2026-05-02T11:11:36.642Z</time></trkpt><trkpt lat="42.2018631" lon="13.728462"><ele>1141.8</ele><time>2026-05-02T11:11:37.64Z</time></trkpt><trkpt lat="42.2017577" lon="13.7284749"><ele>1140.6</ele><time>2026-05-02T11:11:38.647Z</time></trkpt><trkpt lat="42.201645" lon="13.7284968"><ele>1139.4</ele><time>2026-05-02T11:11:39.641Z</time></trkpt><trkpt lat="42.2015302" lon="13.7285187"><ele>1138.2</ele><time>2026-05-02T11:11:40.646Z</time></trkpt><trkpt lat="42.201423" lon="13.7285367"><ele>1137.0</ele><time>2026-05-02T11:11:41.639Z</time></trkpt><trkpt lat="42.201328" lon="13.728553"><ele>1137.6666666666667</ele><time>2026-05-02T11:11:42.644Z</time></trkpt><trkpt lat="42.2012401" lon="13.7285678"><ele>1138.3333333333333</ele><time>2026-05-02T11:11:43.642Z</time></trkpt><trkpt lat="42.2011592" lon="13.7285799"><ele>1139.0</ele><time>2026-05-02T11:11:44.644Z</time></trkpt><trkpt lat="42.2010851" lon="13.728584"><ele>1139.6666666666665</ele><time>2026-05-02T11:11:45.643Z</time></trkpt><trkpt lat="42.2010072" lon="13.7285742"><ele>1140.3333333333333</ele><time>2026-05-02T11:11:46.646Z</time></trkpt><trkpt lat="42.2009266" lon="13.7285629"><ele>1141.0</ele><time>2026-05-02T11:11:47.646Z</time></trkpt><trkpt lat="42.2008511" lon="13.7285619"><ele>1141.0</ele><time>2026-05-02T11:11:48.644Z</time></trkpt><trkpt lat="42.2007844" lon="13.7285607"><ele>1141.0</ele><time>2026-05-02T11:11:49.643Z</time></trkpt><trkpt lat="42.2006789" lon="13.7285223"><ele>1141.0</ele><time>2026-05-02T11:11:51.643Z</time></trkpt><trkpt lat="42.2005915" lon="13.7284507"><ele>1141.0</ele><time>2026-05-02T11:11:53.641Z</time></trkpt><trkpt lat="42.2004885" lon="13.7283743"><ele>1141.0</ele><time>2026-05-02T11:11:55.644Z</time></trkpt><trkpt lat="42.2004289" lon="13.7283134"><ele>1137.8333333333333</ele><time>2026-05-02T11:11:56.643Z</time></trkpt><trkpt lat="42.2003739" lon="13.7282303"><ele>1134.6666666666665</ele><time>2026-05-02T11:11:57.643Z</time></trkpt><trkpt lat="42.200325" lon="13.7281283"><ele>1131.5</ele><time>2026-05-02T11:11:58.642Z</time></trkpt><trkpt lat="42.2002829" lon="13.7280178"><ele>1128.3333333333333</ele><time>2026-05-02T11:11:59.645Z</time></trkpt><trkpt lat="42.2002409" lon="13.7279214"><ele>1125.1666666666667</ele><time>2026-05-02T11:12:00.647Z</time></trkpt><trkpt lat="42.2001901" lon="13.7278447"><ele>1122.0</ele><time>2026-05-02T11:12:01.645Z</time></trkpt><trkpt lat="42.2001288" lon="13.7277809"><ele>1120.3333333333333</ele><time>2026-05-02T11:12:02.644Z</time></trkpt><trkpt lat="42.2000631" lon="13.7277183"><ele>1118.6666666666667</ele><time>2026-05-02T11:12:03.644Z</time></trkpt><trkpt lat="42.1999987" lon="13.7276501"><ele>1117.0</ele><time>2026-05-02T11:12:04.644Z</time></trkpt><trkpt lat="42.1999301" lon="13.7275879"><ele>1115.3333333333335</ele><time>2026-05-02T11:12:05.647Z</time></trkpt><trkpt lat="42.1998603" lon="13.7275375"><ele>1113.6666666666667</ele><time>2026-05-02T11:12:06.646Z</time></trkpt><trkpt lat="42.1998004" lon="13.7274987"><ele>1112.0</ele><time>2026-05-02T11:12:07.64Z</time></trkpt><trkpt lat="42.1997431" lon="13.7274595"><ele>1111.4285714285713</ele><time>2026-05-02T11:12:08.646Z</time></trkpt><trkpt lat="42.1996844" lon="13.7274159"><ele>1110.857142857143</ele><time>2026-05-02T11:12:09.643Z</time></trkpt><trkpt lat="42.199628" lon="13.7273665"><ele>1110.2857142857142</ele><time>2026-05-02T11:12:10.648Z</time></trkpt><trkpt lat="42.1995749" lon="13.7273127"><ele>1109.7142857142858</ele><time>2026-05-02T11:12:11.642Z</time></trkpt><trkpt lat="42.1995195" lon="13.7272617"><ele>1109.142857142857</ele><time>2026-05-02T11:12:12.647Z</time></trkpt><trkpt lat="42.1994537" lon="13.7272153"><ele>1108.5714285714284</ele><time>2026-05-02T11:12:13.648Z</time></trkpt><trkpt lat="42.1993843" lon="13.7271701"><ele>1108.0</ele><time>2026-05-02T11:12:14.645Z</time></trkpt><trkpt lat="42.1993176" lon="13.7271226"><ele>1108.0</ele><time>2026-05-02T11:12:15.64Z</time></trkpt><trkpt lat="42.1992526" lon="13.727076"><ele>1108.0</ele><time>2026-05-02T11:12:16.639Z</time></trkpt><trkpt lat="42.1991898" lon="13.7270355"><ele>1108.0</ele><time>2026-05-02T11:12:17.641Z</time></trkpt><trkpt lat="42.1990932" lon="13.7269991"><ele>1108.0</ele><time>2026-05-02T11:12:19.641Z</time></trkpt><trkpt lat="42.1989938" lon="13.727011"><ele>1108.0</ele><time>2026-05-02T11:12:21.639Z</time></trkpt><trkpt lat="42.1988812" lon="13.7270271"><ele>1107.6666666666665</ele><time>2026-05-02T11:12:23.647Z</time></trkpt><trkpt lat="42.1988148" lon="13.7270146"><ele>1107.3333333333333</ele><time>2026-05-02T11:12:24.647Z</time></trkpt><trkpt lat="42.1987439" lon="13.7269839"><ele>1107.0</ele><time>2026-05-02T11:12:25.642Z</time></trkpt><trkpt lat="42.1986668" lon="13.7269365"><ele>1106.6666666666667</ele><time>2026-05-02T11:12:26.643Z</time></trkpt><trkpt lat="42.198585" lon="13.7268766"><ele>1106.3333333333335</ele><time>2026-05-02T11:12:27.64Z</time></trkpt><trkpt lat="42.1985067" lon="13.726815"><ele>1106.0</ele><time>2026-05-02T11:12:28.645Z</time></trkpt><trkpt lat="42.1984269" lon="13.7267652"><ele>1104.1666666666667</ele><time>2026-05-02T11:12:29.64Z</time></trkpt><trkpt lat="42.1983444" lon="13.7267192"><ele>1102.3333333333335</ele><time>2026-05-02T11:12:30.643Z</time></trkpt><trkpt lat="42.1982666" lon="13.7266751"><ele>1100.5</ele><time>2026-05-02T11:12:31.642Z</time></trkpt><trkpt lat="42.1982036" lon="13.7266389"><ele>1098.6666666666667</ele><time>2026-05-02T11:12:32.645Z</time></trkpt><trkpt lat="42.1981098" lon="13.7265937"><ele>1096.8333333333333</ele><time>2026-05-02T11:12:34.647Z</time></trkpt><trkpt lat="42.1980351" lon="13.7265378"><ele>1095.0</ele><time>2026-05-02T11:12:36.642Z</time></trkpt><trkpt lat="42.1979802" lon="13.7264313"><ele>1093.8</ele><time>2026-05-02T11:12:38.64Z</time></trkpt><trkpt lat="42.1979189" lon="13.7263517"><ele>1092.6</ele><time>2026-05-02T11:12:40.64Z</time></trkpt><trkpt lat="42.1978204" lon="13.7263581"><ele>1091.4</ele><time>2026-05-02T11:12:42.64Z</time></trkpt><trkpt lat="42.1977231" lon="13.72645"><ele>1090.2</ele><time>2026-05-02T11:12:44.638Z</time></trkpt><trkpt lat="42.1976603" lon="13.7265924"><ele>1089.0</ele><time>2026-05-02T11:12:46.642Z</time></trkpt><trkpt lat="42.197639" lon="13.7266784"><ele>1089.0</ele><time>2026-05-02T11:12:47.646Z</time></trkpt><trkpt lat="42.1976158" lon="13.7267631"><ele>1089.0</ele><time>2026-05-02T11:12:48.643Z</time></trkpt><trkpt lat="42.1975335" lon="13.7268806"><ele>1089.0</ele><time>2026-05-02T11:12:50.641Z</time></trkpt><trkpt lat="42.1974644" lon="13.7269265"><ele>1089.0</ele><time>2026-05-02T11:12:51.645Z</time></trkpt><trkpt lat="42.1973813" lon="13.7269758"><ele>1089.0</ele><time>2026-05-02T11:12:52.643Z</time></trkpt><trkpt lat="42.1972857" lon="13.7270136"><ele>1087.5</ele><time>2026-05-02T11:12:53.638Z</time></trkpt><trkpt lat="42.1971744" lon="13.7270428"><ele>1086.0</ele><time>2026-05-02T11:12:54.643Z</time></trkpt><trkpt lat="42.1970569" lon="13.7270761"><ele>1084.5</ele><time>2026-05-02T11:12:55.641Z</time></trkpt><trkpt lat="42.1969409" lon="13.7271205"><ele>1083.0</ele><time>2026-05-02T11:12:56.643Z</time></trkpt><trkpt lat="42.1968297" lon="13.7271689"><ele>1083.0</ele><time>2026-05-02T11:12:57.643Z</time></trkpt><trkpt lat="42.1967261" lon="13.7272103"><ele>1083.0</ele><time>2026-05-02T11:12:58.641Z</time></trkpt><trkpt lat="42.1966298" lon="13.7272442"><ele>1083.0</ele><time>2026-05-02T11:12:59.64Z</time></trkpt><trkpt lat="42.1965454" lon="13.7272817"><ele>1083.0</ele><time>2026-05-02T11:13:00.641Z</time></trkpt><trkpt lat="42.1964859" lon="13.727312"><ele>1083.0</ele><time>2026-05-02T11:13:01.644Z</time></trkpt><trkpt lat="42.1964168" lon="13.7272913"><ele>1083.0</ele><time>2026-05-02T11:13:09.646Z</time></trkpt><trkpt lat="42.1964207" lon="13.7271785"><ele>1082.8333333333333</ele><time>2026-05-02T11:13:18.647Z</time></trkpt><trkpt lat="42.1964175" lon="13.7270683"><ele>1082.6666666666667</ele><time>2026-05-02T11:13:19.647Z</time></trkpt><trkpt lat="42.1964269" lon="13.7269523"><ele>1082.5</ele><time>2026-05-02T11:13:20.641Z</time></trkpt><trkpt lat="42.1964429" lon="13.7268512"><ele>1082.3333333333335</ele><time>2026-05-02T11:13:21.643Z</time></trkpt><trkpt lat="42.1964604" lon="13.7267375"><ele>1082.1666666666667</ele><time>2026-05-02T11:13:22.642Z</time></trkpt><trkpt lat="42.1964862" lon="13.7266302"><ele>1082.0</ele><time>2026-05-02T11:13:23.641Z</time></trkpt><trkpt lat="42.1965161" lon="13.7265353"><ele>1083.0</ele><time>2026-05-02T11:13:24.641Z</time></trkpt><trkpt lat="42.1965382" lon="13.7264313"><ele>1084.0</ele><time>2026-05-02T11:13:25.644Z</time></trkpt><trkpt lat="42.1965552" lon="13.7263194"><ele>1085.0</ele><time>2026-05-02T11:13:26.646Z</time></trkpt><trkpt lat="42.1965726" lon="13.7262003"><ele>1086.0</ele><time>2026-05-02T11:13:27.64Z</time></trkpt><trkpt lat="42.1965939" lon="13.7260828"><ele>1087.0</ele><time>2026-05-02T11:13:28.641Z</time></trkpt><trkpt lat="42.1966294" lon="13.7259819"><ele>1088.0</ele><time>2026-05-02T11:13:29.643Z</time></trkpt><trkpt lat="42.1966797" lon="13.7258986"><ele>1088.8333333333335</ele><time>2026-05-02T11:13:30.645Z</time></trkpt><trkpt lat="42.1967413" lon="13.7258265"><ele>1089.6666666666667</ele><time>2026-05-02T11:13:31.642Z</time></trkpt><trkpt lat="42.1968166" lon="13.7257714"><ele>1090.5</ele><time>2026-05-02T11:13:32.64Z</time></trkpt><trkpt lat="42.1968938" lon="13.7257285"><ele>1091.3333333333333</ele><time>2026-05-02T11:13:33.639Z</time></trkpt><trkpt lat="42.1969562" lon="13.7256768"><ele>1092.1666666666665</ele><time>2026-05-02T11:13:34.647Z</time></trkpt><trkpt lat="42.1969979" lon="13.725613"><ele>1093.0</ele><time>2026-05-02T11:13:35.645Z</time></trkpt><trkpt lat="42.19704" lon="13.7254533"><ele>1093.0</ele><time>2026-05-02T11:13:37.64Z</time></trkpt><trkpt lat="42.1970542" lon="13.7253636"><ele>1093.0</ele><time>2026-05-02T11:13:38.644Z</time></trkpt><trkpt lat="42.1970748" lon="13.7252799"><ele>1093.0</ele><time>2026-05-02T11:13:39.64Z</time></trkpt><trkpt lat="42.1971004" lon="13.7251971"><ele>1093.0</ele><time>2026-05-02T11:13:40.647Z</time></trkpt><trkpt lat="42.1971263" lon="13.7251102"><ele>1093.0</ele><time>2026-05-02T11:13:41.641Z</time></trkpt><trkpt lat="42.1971558" lon="13.7250204"><ele>1093.0</ele><time>2026-05-02T11:13:42.642Z</time></trkpt><trkpt lat="42.1971842" lon="13.7249302"><ele>1093.0</ele><time>2026-05-02T11:13:43.644Z</time></trkpt><trkpt lat="42.1972083" lon="13.72483"><ele>1093.1666666666665</ele><time>2026-05-02T11:13:44.646Z</time></trkpt><trkpt lat="42.1972269" lon="13.7247233"><ele>1093.3333333333333</ele><time>2026-05-02T11:13:45.64Z</time></trkpt><trkpt lat="42.1972375" lon="13.7246169"><ele>1093.5</ele><time>2026-05-02T11:13:46.645Z</time></trkpt><trkpt lat="42.1972436" lon="13.7245137"><ele>1093.6666666666667</ele><time>2026-05-02T11:13:47.641Z</time></trkpt><trkpt lat="42.1972445" lon="13.724408"><ele>1093.8333333333335</ele><time>2026-05-02T11:13:48.64Z</time></trkpt><trkpt lat="42.1972364" lon="13.7243005"><ele>1094.0</ele><time>2026-05-02T11:13:49.645Z</time></trkpt><trkpt lat="42.1972216" lon="13.7241914"><ele>1095.0</ele><time>2026-05-02T11:13:50.646Z</time></trkpt><trkpt lat="42.1972069" lon="13.7240897"><ele>1096.0</ele><time>2026-05-02T11:13:51.64Z</time></trkpt><trkpt lat="42.1971931" lon="13.7239943"><ele>1097.0</ele><time>2026-05-02T11:13:52.64Z</time></trkpt><trkpt lat="42.1971852" lon="13.7238955"><ele>1098.0</ele><time>2026-05-02T11:13:53.647Z</time></trkpt><trkpt lat="42.1971861" lon="13.7237842"><ele>1099.0</ele><time>2026-05-02T11:13:54.645Z</time></trkpt><trkpt lat="42.1971934" lon="13.7236645"><ele>1100.0</ele><time>2026-05-02T11:13:55.643Z</time></trkpt><trkpt lat="42.1972042" lon="13.7235471"><ele>1100.0</ele><time>2026-05-02T11:13:56.644Z</time></trkpt><trkpt lat="42.1972149" lon="13.7234442"><ele>1100.0</ele><time>2026-05-02T11:13:57.639Z</time></trkpt><trkpt lat="42.1972254" lon="13.723349"><ele>1100.0</ele><time>2026-05-02T11:13:58.644Z</time></trkpt><trkpt lat="42.1972397" lon="13.7232599"><ele>1100.0</ele><time>2026-05-02T11:13:59.638Z</time></trkpt><trkpt lat="42.1972599" lon="13.7231712"><ele>1100.0</ele><time>2026-05-02T11:14:00.641Z</time></trkpt><trkpt lat="42.1972864" lon="13.7230853"><ele>1100.0</ele><time>2026-05-02T11:14:01.642Z</time></trkpt><trkpt lat="42.1973226" lon="13.7230021"><ele>1100.0</ele><time>2026-05-02T11:14:02.641Z</time></trkpt><trkpt lat="42.1973656" lon="13.7229143"><ele>1099.4</ele><time>2026-05-02T11:14:03.641Z</time></trkpt><trkpt lat="42.197414" lon="13.7228217"><ele>1098.8</ele><time>2026-05-02T11:14:04.645Z</time></trkpt><trkpt lat="42.1974613" lon="13.7227353"><ele>1098.2</ele><time>2026-05-02T11:14:05.643Z</time></trkpt><trkpt lat="42.1975025" lon="13.7226607"><ele>1097.6</ele><time>2026-05-02T11:14:06.643Z</time></trkpt><trkpt lat="42.1975712" lon="13.7225318"><ele>1097.0</ele><time>2026-05-02T11:14:08.647Z</time></trkpt><trkpt lat="42.1976383" lon="13.7223809"><ele>1096.3333333333335</ele><time>2026-05-02T11:14:10.641Z</time></trkpt><trkpt lat="42.1976748" lon="13.7222966"><ele>1095.6666666666667</ele><time>2026-05-02T11:14:11.644Z</time></trkpt><trkpt lat="42.1977092" lon="13.7222222"><ele>1095.0</ele><time>2026-05-02T11:14:12.64Z</time></trkpt><trkpt lat="42.1977452" lon="13.7221522"><ele>1094.3333333333333</ele><time>2026-05-02T11:14:13.638Z</time></trkpt><trkpt lat="42.1977831" lon="13.7220763"><ele>1093.6666666666665</ele><time>2026-05-02T11:14:14.646Z</time></trkpt><trkpt lat="42.1978512" lon="13.7219464"><ele>1093.0</ele><time>2026-05-02T11:14:16.641Z</time></trkpt><trkpt lat="42.1979394" lon="13.7218284"><ele>1092.857142857143</ele><time>2026-05-02T11:14:18.644Z</time></trkpt><trkpt lat="42.1979909" lon="13.7217766"><ele>1092.7142857142858</ele><time>2026-05-02T11:14:19.641Z</time></trkpt><trkpt lat="42.1980449" lon="13.7217307"><ele>1092.5714285714284</ele><time>2026-05-02T11:14:20.639Z</time></trkpt><trkpt lat="42.1981001" lon="13.7216844"><ele>1092.4285714285716</ele><time>2026-05-02T11:14:21.647Z</time></trkpt><trkpt lat="42.198158" lon="13.7216333"><ele>1092.2857142857142</ele><time>2026-05-02T11:14:22.643Z</time></trkpt><trkpt lat="42.1982137" lon="13.7215737"><ele>1092.142857142857</ele><time>2026-05-02T11:14:23.642Z</time></trkpt><trkpt lat="42.1982671" lon="13.7215065"><ele>1092.0</ele><time>2026-05-02T11:14:24.642Z</time></trkpt><trkpt lat="42.1983155" lon="13.7214382"><ele>1091.3333333333333</ele><time>2026-05-02T11:14:25.642Z</time></trkpt><trkpt lat="42.1983579" lon="13.7213752"><ele>1090.6666666666667</ele><time>2026-05-02T11:14:26.644Z</time></trkpt><trkpt lat="42.1984462" lon="13.7212591"><ele>1090.0</ele><time>2026-05-02T11:14:28.64Z</time></trkpt><trkpt lat="42.1984963" lon="13.7211973"><ele>1089.3333333333335</ele><time>2026-05-02T11:14:29.644Z</time></trkpt><trkpt lat="42.1985522" lon="13.7211334"><ele>1088.6666666666667</ele><time>2026-05-02T11:14:30.644Z</time></trkpt><trkpt lat="42.1986171" lon="13.7210691"><ele>1088.0</ele><time>2026-05-02T11:14:31.644Z</time></trkpt><trkpt lat="42.1986826" lon="13.7210068"><ele>1086.5</ele><time>2026-05-02T11:14:32.641Z</time></trkpt><trkpt lat="42.1987579" lon="13.720946"><ele>1085.0</ele><time>2026-05-02T11:14:33.643Z</time></trkpt><trkpt lat="42.1988335" lon="13.7208975"><ele>1083.5</ele><time>2026-05-02T11:14:34.642Z</time></trkpt><trkpt lat="42.198896" lon="13.7208583"><ele>1082.0</ele><time>2026-05-02T11:14:35.641Z</time></trkpt><trkpt lat="42.1989541" lon="13.7208134"><ele>1080.5</ele><time>2026-05-02T11:14:36.64Z</time></trkpt><trkpt lat="42.1990098" lon="13.7207509"><ele>1079.0</ele><time>2026-05-02T11:14:37.647Z</time></trkpt><trkpt lat="42.1990655" lon="13.7206854"><ele>1077.1666666666667</ele><time>2026-05-02T11:14:38.64Z</time></trkpt><trkpt lat="42.1991242" lon="13.7206201"><ele>1075.3333333333335</ele><time>2026-05-02T11:14:39.647Z</time></trkpt><trkpt lat="42.1991759" lon="13.720554"><ele>1073.5</ele><time>2026-05-02T11:14:40.643Z</time></trkpt><trkpt lat="42.1992206" lon="13.7204925"><ele>1071.6666666666667</ele><time>2026-05-02T11:14:41.638Z</time></trkpt><trkpt lat="42.1993087" lon="13.7203688"><ele>1069.8333333333333</ele><time>2026-05-02T11:14:43.641Z</time></trkpt><trkpt lat="42.19935" lon="13.7203003"><ele>1068.0</ele><time>2026-05-02T11:14:44.643Z</time></trkpt><trkpt lat="42.1994123" lon="13.720178"><ele>1067.3333333333333</ele><time>2026-05-02T11:14:46.644Z</time></trkpt><trkpt lat="42.1994233" lon="13.7200601"><ele>1066.6666666666667</ele><time>2026-05-02T11:14:48.643Z</time></trkpt><trkpt lat="42.199427" lon="13.7199752"><ele>1066.0</ele><time>2026-05-02T11:14:49.64Z</time></trkpt><trkpt lat="42.1994409" lon="13.719883"><ele>1065.3333333333335</ele><time>2026-05-02T11:14:50.642Z</time></trkpt><trkpt lat="42.1994686" lon="13.7197754"><ele>1064.6666666666667</ele><time>2026-05-02T11:14:51.644Z</time></trkpt><trkpt lat="42.1995082" lon="13.7196568"><ele>1064.0</ele><time>2026-05-02T11:14:52.639Z</time></trkpt><trkpt lat="42.1995588" lon="13.7195336"><ele>1064.0</ele><time>2026-05-02T11:14:53.64Z</time></trkpt><trkpt lat="42.1996052" lon="13.7194068"><ele>1064.0</ele><time>2026-05-02T11:14:54.642Z</time></trkpt><trkpt lat="42.1996481" lon="13.7192724"><ele>1064.0</ele><time>2026-05-02T11:14:55.64Z</time></trkpt><trkpt lat="42.1996895" lon="13.7191406"><ele>1064.0</ele><time>2026-05-02T11:14:56.641Z</time></trkpt><trkpt lat="42.1997325" lon="13.7190221"><ele>1064.0</ele><time>2026-05-02T11:14:57.646Z</time></trkpt><trkpt lat="42.1997859" lon="13.718914"><ele>1063.0</ele><time>2026-05-02T11:14:58.644Z</time></trkpt><trkpt lat="42.1998492" lon="13.7188117"><ele>1062.0</ele><time>2026-05-02T11:14:59.641Z</time></trkpt><trkpt lat="42.1999166" lon="13.718718"><ele>1061.0</ele><time>2026-05-02T11:15:00.647Z</time></trkpt><trkpt lat="42.1999774" lon="13.7186271"><ele>1060.0</ele><time>2026-05-02T11:15:01.646Z</time></trkpt><trkpt lat="42.200032" lon="13.7185327"><ele>1059.0</ele><time>2026-05-02T11:15:02.641Z</time></trkpt><trkpt lat="42.2000833" lon="13.7184258"><ele>1059.0</ele><time>2026-05-02T11:15:03.64Z</time></trkpt><trkpt lat="42.200128" lon="13.7183191"><ele>1059.0</ele><time>2026-05-02T11:15:04.637Z</time></trkpt><trkpt lat="42.2001753" lon="13.7182273"><ele>1059.0</ele><time>2026-05-02T11:15:05.641Z</time></trkpt><trkpt lat="42.200224" lon="13.7181545"><ele>1059.0</ele><time>2026-05-02T11:15:06.642Z</time></trkpt><trkpt lat="42.200276" lon="13.718054"><ele>1059.0</ele><time>2026-05-02T11:15:08.647Z</time></trkpt><trkpt lat="42.2002952" lon="13.7179233"><ele>1059.0</ele><time>2026-05-02T11:15:10.646Z</time></trkpt><trkpt lat="42.2003233" lon="13.7177708"><ele>1058.8</ele><time>2026-05-02T11:15:12.642Z</time></trkpt><trkpt lat="42.200326" lon="13.7176257"><ele>1058.6000000000001</ele><time>2026-05-02T11:15:14.64Z</time></trkpt><trkpt lat="42.2002689" lon="13.7174744"><ele>1058.4</ele><time>2026-05-02T11:15:16.647Z</time></trkpt><trkpt lat="42.2002266" lon="13.7173893"><ele>1058.2</ele><time>2026-05-02T11:15:17.647Z</time></trkpt><trkpt lat="42.2001843" lon="13.7173018"><ele>1058.0</ele><time>2026-05-02T11:15:18.645Z</time></trkpt><trkpt lat="42.2001478" lon="13.7172158"><ele>1058.0</ele><time>2026-05-02T11:15:19.638Z</time></trkpt><trkpt lat="42.2001173" lon="13.7171273"><ele>1058.0</ele><time>2026-05-02T11:15:20.643Z</time></trkpt><trkpt lat="42.2000958" lon="13.7170292"><ele>1058.0</ele><time>2026-05-02T11:15:21.647Z</time></trkpt><trkpt lat="42.2000799" lon="13.7169245"><ele>1058.0</ele><time>2026-05-02T11:15:22.647Z</time></trkpt><trkpt lat="42.2000582" lon="13.7168226"><ele>1058.0</ele><time>2026-05-02T11:15:23.645Z</time></trkpt><trkpt lat="42.2000332" lon="13.7167225"><ele>1058.0</ele><time>2026-05-02T11:15:24.644Z</time></trkpt><trkpt lat="42.2000084" lon="13.7166268"><ele>1058.2</ele><time>2026-05-02T11:15:25.646Z</time></trkpt><trkpt lat="42.1999842" lon="13.7165383"><ele>1058.4</ele><time>2026-05-02T11:15:26.646Z</time></trkpt><trkpt lat="42.1999643" lon="13.7164544"><ele>1058.6000000000001</ele><time>2026-05-02T11:15:27.64Z</time></trkpt><trkpt lat="42.1999639" lon="13.7162955"><ele>1058.8</ele><time>2026-05-02T11:15:29.64Z</time></trkpt><trkpt lat="42.2000112" lon="13.716154"><ele>1059.0</ele><time>2026-05-02T11:15:31.644Z</time></trkpt><trkpt lat="42.2000657" lon="13.7160226"><ele>1059.2</ele><time>2026-05-02T11:15:33.643Z</time></trkpt><trkpt lat="42.200122" lon="13.7159018"><ele>1059.4</ele><time>2026-05-02T11:15:35.64Z</time></trkpt><trkpt lat="42.2001977" lon="13.7157337"><ele>1059.6</ele><time>2026-05-02T11:15:37.644Z</time></trkpt><trkpt lat="42.2002363" lon="13.7156148"><ele>1059.8</ele><time>2026-05-02T11:15:38.642Z</time></trkpt><trkpt lat="42.2002648" lon="13.7154925"><ele>1060.0</ele><time>2026-05-02T11:15:39.641Z</time></trkpt><trkpt lat="42.2002868" lon="13.7153736"><ele>1060.0</ele><time>2026-05-02T11:15:40.639Z</time></trkpt><trkpt lat="42.2003058" lon="13.7152598"><ele>1060.0</ele><time>2026-05-02T11:15:41.642Z</time></trkpt><trkpt lat="42.200318" lon="13.7151476"><ele>1060.0</ele><time>2026-05-02T11:15:42.641Z</time></trkpt><trkpt lat="42.200324" lon="13.7150365"><ele>1060.0</ele><time>2026-05-02T11:15:43.643Z</time></trkpt><trkpt lat="42.200338" lon="13.714938"><ele>1060.0</ele><time>2026-05-02T11:15:44.641Z</time></trkpt><trkpt lat="42.2003587" lon="13.7148466"><ele>1060.0</ele><time>2026-05-02T11:15:45.639Z</time></trkpt><trkpt lat="42.200401" lon="13.7147667"><ele>1060.0</ele><time>2026-05-02T11:15:46.647Z</time></trkpt><trkpt lat="42.2004381" lon="13.7146855"><ele>1060.0</ele><time>2026-05-02T11:15:47.64Z</time></trkpt><trkpt lat="42.2004651" lon="13.714592"><ele>1060.0</ele><time>2026-05-02T11:15:48.644Z</time></trkpt><trkpt lat="42.2004801" lon="13.7144851"><ele>1060.0</ele><time>2026-05-02T11:15:49.64Z</time></trkpt><trkpt lat="42.2004976" lon="13.7143632"><ele>1060.0</ele><time>2026-05-02T11:15:50.64Z</time></trkpt><trkpt lat="42.2005112" lon="13.7142202"><ele>1060.0</ele><time>2026-05-02T11:15:51.641Z</time></trkpt><trkpt lat="42.2005219" lon="13.7140711"><ele>1060.0</ele><time>2026-05-02T11:15:52.639Z</time></trkpt><trkpt lat="42.200534" lon="13.7139338"><ele>1060.0</ele><time>2026-05-02T11:15:53.64Z</time></trkpt><trkpt lat="42.2005466" lon="13.7138061"><ele>1060.0</ele><time>2026-05-02T11:15:54.639Z</time></trkpt><trkpt lat="42.2005637" lon="13.7136768"><ele>1060.0</ele><time>2026-05-02T11:15:55.639Z</time></trkpt><trkpt lat="42.2005932" lon="13.7135447"><ele>1060.0</ele><time>2026-05-02T11:15:56.647Z</time></trkpt><trkpt lat="42.2006223" lon="13.7134153"><ele>1059.4</ele><time>2026-05-02T11:15:57.641Z</time></trkpt><trkpt lat="42.2006443" lon="13.7132867"><ele>1058.8</ele><time>2026-05-02T11:15:58.645Z</time></trkpt><trkpt lat="42.2006729" lon="13.7131677"><ele>1058.2</ele><time>2026-05-02T11:15:59.646Z</time></trkpt><trkpt lat="42.2007092" lon="13.713051"><ele>1057.6</ele><time>2026-05-02T11:16:00.647Z</time></trkpt><trkpt lat="42.2007645" lon="13.7129302"><ele>1057.0</ele><time>2026-05-02T11:16:01.638Z</time></trkpt><trkpt lat="42.2008235" lon="13.7128021"><ele>1052.8</ele><time>2026-05-02T11:16:02.647Z</time></trkpt><trkpt lat="42.200872" lon="13.7126752"><ele>1048.6</ele><time>2026-05-02T11:16:03.644Z</time></trkpt><trkpt lat="42.2009177" lon="13.712559"><ele>1044.3999999999999</ele><time>2026-05-02T11:16:04.639Z</time></trkpt><trkpt lat="42.2009601" lon="13.712451"><ele>1040.2</ele><time>2026-05-02T11:16:05.643Z</time></trkpt><trkpt lat="42.2009979" lon="13.7123457"><ele>1036.0</ele><time>2026-05-02T11:16:06.643Z</time></trkpt><trkpt lat="42.2010242" lon="13.7122227"><ele>1036.0</ele><time>2026-05-02T11:16:07.642Z</time></trkpt><trkpt lat="42.201046" lon="13.7120934"><ele>1036.0</ele><time>2026-05-02T11:16:08.645Z</time></trkpt><trkpt lat="42.2010705" lon="13.7119752"><ele>1036.0</ele><time>2026-05-02T11:16:09.643Z</time></trkpt><trkpt lat="42.201098" lon="13.711861"><ele>1036.0</ele><time>2026-05-02T11:16:10.64Z</time></trkpt><trkpt lat="42.2011268" lon="13.7117555"><ele>1036.0</ele><time>2026-05-02T11:16:11.641Z</time></trkpt><trkpt lat="42.2011488" lon="13.7116544"><ele>1036.0</ele><time>2026-05-02T11:16:12.641Z</time></trkpt><trkpt lat="42.2011602" lon="13.7115546"><ele>1035.5</ele><time>2026-05-02T11:16:13.642Z</time></trkpt><trkpt lat="42.2011617" lon="13.7114547"><ele>1035.0</ele><time>2026-05-02T11:16:14.646Z</time></trkpt><trkpt lat="42.2011564" lon="13.7113539"><ele>1034.5</ele><time>2026-05-02T11:16:15.641Z</time></trkpt><trkpt lat="42.2011427" lon="13.711249"><ele>1034.0</ele><time>2026-05-02T11:16:16.641Z</time></trkpt><trkpt lat="42.2011242" lon="13.7111351"><ele>1033.5</ele><time>2026-05-02T11:16:17.641Z</time></trkpt><trkpt lat="42.2011088" lon="13.7110221"><ele>1033.0</ele><time>2026-05-02T11:16:18.64Z</time></trkpt><trkpt lat="42.2010987" lon="13.7109229"><ele>1032.4285714285716</ele><time>2026-05-02T11:16:19.641Z</time></trkpt><trkpt lat="42.201089" lon="13.7108335"><ele>1031.857142857143</ele><time>2026-05-02T11:16:20.642Z</time></trkpt><trkpt lat="42.2010812" lon="13.7107401"><ele>1031.2857142857142</ele><time>2026-05-02T11:16:21.64Z</time></trkpt><trkpt lat="42.2010791" lon="13.7106468"><ele>1030.7142857142858</ele><time>2026-05-02T11:16:22.647Z</time></trkpt><trkpt lat="42.2010872" lon="13.7105528"><ele>1030.142857142857</ele><time>2026-05-02T11:16:23.64Z</time></trkpt><trkpt lat="42.2011031" lon="13.710454"><ele>1029.5714285714287</ele><time>2026-05-02T11:16:24.639Z</time></trkpt><trkpt lat="42.2011178" lon="13.7103574"><ele>1029.0</ele><time>2026-05-02T11:16:25.64Z</time></trkpt><trkpt lat="42.2011336" lon="13.7102626"><ele>1028.8</ele><time>2026-05-02T11:16:26.641Z</time></trkpt><trkpt lat="42.2011512" lon="13.710171"><ele>1028.6000000000001</ele><time>2026-05-02T11:16:27.641Z</time></trkpt><trkpt lat="42.201187" lon="13.7100395"><ele>1028.4</ele><time>2026-05-02T11:16:29.64Z</time></trkpt><trkpt lat="42.2012188" lon="13.709877"><ele>1028.2</ele><time>2026-05-02T11:16:31.643Z</time></trkpt><trkpt lat="42.2012293" lon="13.7097741"><ele>1028.0</ele><time>2026-05-02T11:16:32.644Z</time></trkpt><trkpt lat="42.2012503" lon="13.7096689"><ele>1028.0</ele><time>2026-05-02T11:16:33.643Z</time></trkpt><trkpt lat="42.2012751" lon="13.7095625"><ele>1028.0</ele><time>2026-05-02T11:16:34.64Z</time></trkpt><trkpt lat="42.2012986" lon="13.7094589"><ele>1028.0</ele><time>2026-05-02T11:16:35.643Z</time></trkpt><trkpt lat="42.2013199" lon="13.7093589"><ele>1028.0</ele><time>2026-05-02T11:16:36.64Z</time></trkpt><trkpt lat="42.2013367" lon="13.7092605"><ele>1028.0</ele><time>2026-05-02T11:16:37.639Z</time></trkpt><trkpt lat="42.2013494" lon="13.7091611"><ele>1028.0</ele><time>2026-05-02T11:16:38.646Z</time></trkpt><trkpt lat="42.2013605" lon="13.7090613"><ele>1028.3333333333335</ele><time>2026-05-02T11:16:39.644Z</time></trkpt><trkpt lat="42.201377" lon="13.7089627"><ele>1028.6666666666667</ele><time>2026-05-02T11:16:40.64Z</time></trkpt><trkpt lat="42.2014063" lon="13.7088578"><ele>1029.0</ele><time>2026-05-02T11:16:41.647Z</time></trkpt><trkpt lat="42.201441" lon="13.7087467"><ele>1029.3333333333333</ele><time>2026-05-02T11:16:42.644Z</time></trkpt><trkpt lat="42.2014734" lon="13.708636"><ele>1029.6666666666665</ele><time>2026-05-02T11:16:43.642Z</time></trkpt><trkpt lat="42.2015031" lon="13.7085291"><ele>1030.0</ele><time>2026-05-02T11:16:44.637Z</time></trkpt><trkpt lat="42.2015284" lon="13.7084295"><ele>1026.5714285714287</ele><time>2026-05-02T11:16:45.641Z</time></trkpt><trkpt lat="42.2015488" lon="13.7083389"><ele>1023.1428571428571</ele><time>2026-05-02T11:16:46.644Z</time></trkpt><trkpt lat="42.2015649" lon="13.7082448"><ele>1019.7142857142858</ele><time>2026-05-02T11:16:47.641Z</time></trkpt><trkpt lat="42.2015757" lon="13.7081455"><ele>1016.2857142857143</ele><time>2026-05-02T11:16:48.646Z</time></trkpt><trkpt lat="42.2015853" lon="13.7080374"><ele>1012.8571428571429</ele><time>2026-05-02T11:16:49.642Z</time></trkpt><trkpt lat="42.2015968" lon="13.7079337"><ele>1009.4285714285714</ele><time>2026-05-02T11:16:50.641Z</time></trkpt><trkpt lat="42.2016078" lon="13.7078354"><ele>1006.0</ele><time>2026-05-02T11:16:51.641Z</time></trkpt><trkpt lat="42.2016271" lon="13.7077414"><ele>1004.6666666666666</ele><time>2026-05-02T11:16:52.64Z</time></trkpt><trkpt lat="42.2016537" lon="13.7076516"><ele>1003.3333333333333</ele><time>2026-05-02T11:16:53.639Z</time></trkpt><trkpt lat="42.2016835" lon="13.7075616"><ele>1002.0</ele><time>2026-05-02T11:16:54.644Z</time></trkpt><trkpt lat="42.2017101" lon="13.7074751"><ele>1000.6666666666667</ele><time>2026-05-02T11:16:55.642Z</time></trkpt><trkpt lat="42.2017287" lon="13.7073863"><ele>999.3333333333334</ele><time>2026-05-02T11:16:56.647Z</time></trkpt><trkpt lat="42.2017408" lon="13.7072963"><ele>998.0</ele><time>2026-05-02T11:16:57.642Z</time></trkpt><trkpt lat="42.2017462" lon="13.7071469"><ele>998.0000000000001</ele><time>2026-05-02T11:16:59.644Z</time></trkpt><trkpt lat="42.2017697" lon="13.707026"><ele>998.0</ele><time>2026-05-02T11:17:02.642Z</time></trkpt><trkpt lat="42.2018101" lon="13.7069033"><ele>998.0</ele><time>2026-05-02T11:17:04.643Z</time></trkpt><trkpt lat="42.2018596" lon="13.7067909"><ele>998.0</ele><time>2026-05-02T11:17:06.641Z</time></trkpt><trkpt lat="42.2018762" lon="13.7067062"><ele>998.0000000000001</ele><time>2026-05-02T11:17:08.639Z</time></trkpt><trkpt lat="42.2018769" lon="13.706607"><ele>998.0</ele><time>2026-05-02T11:17:10.647Z</time></trkpt><trkpt lat="42.2018558" lon="13.706472"><ele>996.8333333333334</ele><time>2026-05-02T11:17:12.644Z</time></trkpt><trkpt lat="42.2018352" lon="13.7063452"><ele>995.6666666666667</ele><time>2026-05-02T11:17:14.642Z</time></trkpt><trkpt lat="42.201808" lon="13.7062513"><ele>994.5</ele><time>2026-05-02T11:17:16.641Z</time></trkpt><trkpt lat="42.2017402" lon="13.7061613"><ele>993.3333333333333</ele><time>2026-05-02T11:17:19.642Z</time></trkpt><trkpt lat="42.2016683" lon="13.7061195"><ele>992.1666666666666</ele><time>2026-05-02T11:17:21.642Z</time></trkpt><trkpt lat="42.2015782" lon="13.7061012"><ele>991.0</ele><time>2026-05-02T11:17:23.642Z</time></trkpt><trkpt lat="42.2015396" lon="13.7060262"><ele>990.3333333333333</ele><time>2026-05-02T11:17:25.639Z</time></trkpt><trkpt lat="42.2015277" lon="13.7059184"><ele>989.6666666666666</ele><time>2026-05-02T11:17:27.639Z</time></trkpt><trkpt lat="42.2015406" lon="13.7058314"><ele>989.0</ele><time>2026-05-02T11:17:29.645Z</time></trkpt><trkpt lat="42.2015585" lon="13.7057404"><ele>988.3333333333333</ele><time>2026-05-02T11:17:31.644Z</time></trkpt><trkpt lat="42.201503" lon="13.7055981"><ele>987.6666666666666</ele><time>2026-05-02T11:17:33.648Z</time></trkpt><trkpt lat="42.2014703" lon="13.7055098"><ele>987.0</ele><time>2026-05-02T11:17:34.64Z</time></trkpt><trkpt lat="42.2014409" lon="13.7054252"><ele>985.5</ele><time>2026-05-02T11:17:35.641Z</time></trkpt><trkpt lat="42.2014126" lon="13.7053374"><ele>984.0</ele><time>2026-05-02T11:17:36.643Z</time></trkpt><trkpt lat="42.2013846" lon="13.705238"><ele>982.5</ele><time>2026-05-02T11:17:37.639Z</time></trkpt><trkpt lat="42.2013632" lon="13.705136"><ele>981.0</ele><time>2026-05-02T11:17:38.646Z</time></trkpt><trkpt lat="42.2013529" lon="13.7050244"><ele>979.5</ele><time>2026-05-02T11:17:39.645Z</time></trkpt><trkpt lat="42.2013543" lon="13.7048992"><ele>978.0</ele><time>2026-05-02T11:17:40.642Z</time></trkpt><trkpt lat="42.2013575" lon="13.7047754"><ele>978.0</ele><time>2026-05-02T11:17:41.641Z</time></trkpt><trkpt lat="42.2013574" lon="13.7046587"><ele>978.0</ele><time>2026-05-02T11:17:42.642Z</time></trkpt><trkpt lat="42.2013625" lon="13.7045452"><ele>978.0</ele><time>2026-05-02T11:17:43.643Z</time></trkpt><trkpt lat="42.2013718" lon="13.7044343"><ele>978.0</ele><time>2026-05-02T11:17:44.64Z</time></trkpt><trkpt lat="42.2013773" lon="13.7043306"><ele>978.0</ele><time>2026-05-02T11:17:45.64Z</time></trkpt><trkpt lat="42.201378" lon="13.7042384"><ele>978.0</ele><time>2026-05-02T11:17:46.645Z</time></trkpt><trkpt lat="42.2013841" lon="13.7040654"><ele>977.3333333333334</ele><time>2026-05-02T11:17:48.641Z</time></trkpt><trkpt lat="42.2013995" lon="13.7039651"><ele>976.6666666666667</ele><time>2026-05-02T11:17:49.64Z</time></trkpt><trkpt lat="42.2014216" lon="13.7038693"><ele>976.0</ele><time>2026-05-02T11:17:50.641Z</time></trkpt><trkpt lat="42.201445" lon="13.7037738"><ele>975.3333333333334</ele><time>2026-05-02T11:17:51.641Z</time></trkpt><trkpt lat="42.2014657" lon="13.7036725"><ele>974.6666666666667</ele><time>2026-05-02T11:17:52.642Z</time></trkpt><trkpt lat="42.2014842" lon="13.7035642"><ele>974.0</ele><time>2026-05-02T11:17:53.644Z</time></trkpt><trkpt lat="42.2014998" lon="13.703455"><ele>974.0</ele><time>2026-05-02T11:17:54.641Z</time></trkpt><trkpt lat="42.201509" lon="13.7033508"><ele>974.0000000000001</ele><time>2026-05-02T11:17:55.641Z</time></trkpt><trkpt lat="42.2015134" lon="13.7032538"><ele>974.0000000000001</ele><time>2026-05-02T11:17:56.642Z</time></trkpt><trkpt lat="42.2015061" lon="13.7031034"><ele>974.0</ele><time>2026-05-02T11:17:58.643Z</time></trkpt><trkpt lat="42.2014595" lon="13.702978"><ele>974.0</ele><time>2026-05-02T11:18:00.646Z</time></trkpt><trkpt lat="42.2013956" lon="13.7029001"><ele>966.6</ele><time>2026-05-02T11:18:02.645Z</time></trkpt><trkpt lat="42.2013105" lon="13.7028042"><ele>959.2</ele><time>2026-05-02T11:18:04.644Z</time></trkpt><trkpt lat="42.2012247" lon="13.7026952"><ele>951.8000000000001</ele><time>2026-05-02T11:18:06.64Z</time></trkpt><trkpt lat="42.2011418" lon="13.7026314"><ele>944.4000000000001</ele><time>2026-05-02T11:18:08.642Z</time></trkpt><trkpt lat="42.2010464" lon="13.7025537"><ele>937.0</ele><time>2026-05-02T11:18:10.645Z</time></trkpt><trkpt lat="42.2009909" lon="13.7024944"><ele>936.9999999999999</ele><time>2026-05-02T11:18:11.642Z</time></trkpt><trkpt lat="42.2009346" lon="13.7024408"><ele>937.0</ele><time>2026-05-02T11:18:12.647Z</time></trkpt><trkpt lat="42.2008191" lon="13.7023629"><ele>937.0</ele><time>2026-05-02T11:18:14.645Z</time></trkpt><trkpt lat="42.200753" lon="13.7023286"><ele>937.0</ele><time>2026-05-02T11:18:15.643Z</time></trkpt><trkpt lat="42.2006869" lon="13.7022968"><ele>936.9999999999999</ele><time>2026-05-02T11:18:16.64Z</time></trkpt><trkpt lat="42.2006262" lon="13.702272"><ele>937.0</ele><time>2026-05-02T11:18:17.64Z</time></trkpt><trkpt lat="42.2005153" lon="13.7022424"><ele>931.9999999999999</ele><time>2026-05-02T11:18:19.642Z</time></trkpt><trkpt lat="42.2004185" lon="13.7022182"><ele>927.0</ele><time>2026-05-02T11:18:21.644Z</time></trkpt><trkpt lat="42.2003236" lon="13.7022135"><ele>922.0</ele><time>2026-05-02T11:18:23.643Z</time></trkpt><trkpt lat="42.2002477" lon="13.7021982"><ele>917.0</ele><time>2026-05-02T11:18:25.641Z</time></trkpt><trkpt lat="42.200181" lon="13.7021355"><ele>911.9999999999999</ele><time>2026-05-02T11:18:28.647Z</time></trkpt><trkpt lat="42.2001545" lon="13.7020435"><ele>907.0</ele><time>2026-05-02T11:18:30.647Z</time></trkpt><trkpt lat="42.2001384" lon="13.7019234"><ele>907.4999999999999</ele><time>2026-05-02T11:18:32.64Z</time></trkpt><trkpt lat="42.200123" lon="13.7018342"><ele>908.0</ele><time>2026-05-02T11:18:33.643Z</time></trkpt><trkpt lat="42.2000954" lon="13.7017031"><ele>908.5</ele><time>2026-05-02T11:18:35.642Z</time></trkpt><trkpt lat="42.2000668" lon="13.7016118"><ele>909.0</ele><time>2026-05-02T11:18:37.642Z</time></trkpt><trkpt lat="42.2000276" lon="13.7015269"><ele>909.4999999999999</ele><time>2026-05-02T11:18:39.644Z</time></trkpt><trkpt lat="42.1999691" lon="13.7014767"><ele>910.0</ele><time>2026-05-02T11:18:43.642Z</time></trkpt><trkpt lat="42.2000247" lon="13.7014065"><ele>909.9999999999999</ele><time>2026-05-02T11:24:59.642Z</time></trkpt><trkpt lat="42.2000529" lon="13.7012797"><ele>910.0</ele><time>2026-05-02T11:25:02.646Z</time></trkpt><trkpt lat="42.2000564" lon="13.7011828"><ele>910.0</ele><time>2026-05-02T11:25:04.648Z</time></trkpt><trkpt lat="42.2000732" lon="13.7010897"><ele>910.0</ele><time>2026-05-02T11:25:41.639Z</time></trkpt><trkpt lat="42.2000857" lon="13.7010031"><ele>909.9999999999999</ele><time>2026-05-02T11:25:43.637Z</time></trkpt><trkpt lat="42.2001021" lon="13.7009037"><ele>910.0</ele><time>2026-05-02T11:25:45.641Z</time></trkpt><trkpt lat="42.2001115" lon="13.7007861"><ele>908.8</ele><time>2026-05-02T11:25:48.641Z</time></trkpt><trkpt lat="42.2001122" lon="13.700701"><ele>907.6</ele><time>2026-05-02T11:25:50.638Z</time></trkpt><trkpt lat="42.2000848" lon="13.700582"><ele>906.4000000000001</ele><time>2026-05-02T11:25:53.639Z</time></trkpt><trkpt lat="42.2000511" lon="13.7004644"><ele>905.2</ele><time>2026-05-02T11:25:55.641Z</time></trkpt><trkpt lat="42.2000463" lon="13.7003291"><ele>904.0</ele><time>2026-05-02T11:25:57.646Z</time></trkpt><trkpt lat="42.2000563" lon="13.7001897"><ele>903.8333333333333</ele><time>2026-05-02T11:25:59.64Z</time></trkpt><trkpt lat="42.2000761" lon="13.7000614"><ele>903.6666666666666</ele><time>2026-05-02T11:26:01.641Z</time></trkpt><trkpt lat="42.2000564" lon="13.699969"><ele>903.5</ele><time>2026-05-02T11:26:03.648Z</time></trkpt><trkpt lat="42.200004" lon="13.699903"><ele>903.3333333333333</ele><time>2026-05-02T11:26:05.641Z</time></trkpt><trkpt lat="42.1999401" lon="13.6998549"><ele>903.1666666666666</ele><time>2026-05-02T11:26:07.641Z</time></trkpt><trkpt lat="42.1998795" lon="13.6998162"><ele>903.0</ele><time>2026-05-02T11:26:09.642Z</time></trkpt><trkpt lat="42.1998116" lon="13.6997192"><ele>892.5999999999999</ele><time>2026-05-02T11:26:11.647Z</time></trkpt><trkpt lat="42.1997599" lon="13.6995843"><ele>882.1999999999999</ele><time>2026-05-02T11:26:13.644Z</time></trkpt><trkpt lat="42.1997212" lon="13.699449"><ele>871.8</ele><time>2026-05-02T11:26:15.642Z</time></trkpt><trkpt lat="42.1996968" lon="13.6993307"><ele>861.4</ele><time>2026-05-02T11:26:17.639Z</time></trkpt><trkpt lat="42.1996668" lon="13.6992349"><ele>851.0</ele><time>2026-05-02T11:26:19.642Z</time></trkpt><trkpt lat="42.1996171" lon="13.6991387"><ele>851.0</ele><time>2026-05-02T11:26:21.647Z</time></trkpt><trkpt lat="42.1995641" lon="13.6990209"><ele>851.0</ele><time>2026-05-02T11:26:23.642Z</time></trkpt><trkpt lat="42.1995342" lon="13.6988823"><ele>851.0</ele><time>2026-05-02T11:26:25.636Z</time></trkpt><trkpt lat="42.1995239" lon="13.6987451"><ele>851.0</ele><time>2026-05-02T11:26:27.643Z</time></trkpt><trkpt lat="42.1995265" lon="13.6986088"><ele>851.0</ele><time>2026-05-02T11:26:29.64Z</time></trkpt><trkpt lat="42.1995103" lon="13.6984688"><ele>851.8</ele><time>2026-05-02T11:26:31.64Z</time></trkpt><trkpt lat="42.1994864" lon="13.6983486"><ele>852.5999999999999</ele><time>2026-05-02T11:26:33.64Z</time></trkpt><trkpt lat="42.1994829" lon="13.6982165"><ele>853.4</ele><time>2026-05-02T11:26:35.647Z</time></trkpt><trkpt lat="42.1994969" lon="13.6980942"><ele>854.2</ele><time>2026-05-02T11:26:37.64Z</time></trkpt><trkpt lat="42.1995192" lon="13.6979763"><ele>855.0</ele><time>2026-05-02T11:26:39.642Z</time></trkpt><trkpt lat="42.1995512" lon="13.697851"><ele>852.6</ele><time>2026-05-02T11:26:41.64Z</time></trkpt><trkpt lat="42.199596" lon="13.6977234"><ele>850.2</ele><time>2026-05-02T11:26:43.642Z</time></trkpt><trkpt lat="42.1996356" lon="13.6976044"><ele>847.8</ele><time>2026-05-02T11:26:45.645Z</time></trkpt><trkpt lat="42.1996828" lon="13.6974976"><ele>845.4</ele><time>2026-05-02T11:26:47.642Z</time></trkpt><trkpt lat="42.1997383" lon="13.6974117"><ele>843.0</ele><time>2026-05-02T11:26:49.642Z</time></trkpt><trkpt lat="42.1997931" lon="13.6973128"><ele>848.8333333333334</ele><time>2026-05-02T11:26:51.643Z</time></trkpt><trkpt lat="42.1998339" lon="13.6972368"><ele>854.6666666666667</ele><time>2026-05-02T11:26:53.646Z</time></trkpt><trkpt lat="42.199891" lon="13.6971704"><ele>860.5</ele><time>2026-05-02T11:26:56.638Z</time></trkpt><trkpt lat="42.1999696" lon="13.6971385"><ele>866.3333333333334</ele><time>2026-05-02T11:26:59.638Z</time></trkpt><trkpt lat="42.2000432" lon="13.6971188"><ele>872.1666666666667</ele><time>2026-05-02T11:27:02.648Z</time></trkpt><trkpt lat="42.200147" lon="13.697098"><ele>878.0</ele><time>2026-05-02T11:27:05.646Z</time></trkpt><trkpt lat="42.2002489" lon="13.6970427"><ele>878.0</ele><time>2026-05-02T11:27:07.644Z</time></trkpt><trkpt lat="42.200345" lon="13.6969954"><ele>878.0</ele><time>2026-05-02T11:27:09.645Z</time></trkpt><trkpt lat="42.2004354" lon="13.6969842"><ele>878.0</ele><time>2026-05-02T11:27:11.642Z</time></trkpt><trkpt lat="42.2005226" lon="13.6969525"><ele>878.0</ele><time>2026-05-02T11:27:13.643Z</time></trkpt><trkpt lat="42.2006054" lon="13.6969068"><ele>878.0</ele><time>2026-05-02T11:27:15.647Z</time></trkpt><trkpt lat="42.2006772" lon="13.6968595"><ele>875.5000000000001</ele><time>2026-05-02T11:27:17.644Z</time></trkpt><trkpt lat="42.2007515" lon="13.6968051"><ele>873.0</ele><time>2026-05-02T11:27:19.639Z</time></trkpt><trkpt lat="42.2008229" lon="13.6967383"><ele>870.5</ele><time>2026-05-02T11:27:21.643Z</time></trkpt><trkpt lat="42.2008607" lon="13.6966624"><ele>868.0</ele><time>2026-05-02T11:27:23.64Z</time></trkpt><trkpt lat="42.2008463" lon="13.6965782"><ele>865.5000000000001</ele><time>2026-05-02T11:27:25.647Z</time></trkpt><trkpt lat="42.2007748" lon="13.6965454"><ele>863.0</ele><time>2026-05-02T11:27:28.638Z</time></trkpt><trkpt lat="42.2007095" lon="13.6965953"><ele>860.1666666666667</ele><time>2026-05-02T11:27:31.642Z</time></trkpt><trkpt lat="42.2006372" lon="13.6966202"><ele>857.3333333333334</ele><time>2026-05-02T11:27:34.574Z</time></trkpt><trkpt lat="42.2005768" lon="13.6965272"><ele>854.5</ele><time>2026-05-02T11:27:38.132Z</time></trkpt><trkpt lat="42.2005181" lon="13.6964682"><ele>851.6666666666667</ele><time>2026-05-02T11:27:41.633Z</time></trkpt><trkpt lat="42.2004544" lon="13.6965235"><ele>848.8333333333334</ele><time>2026-05-02T11:27:44.633Z</time></trkpt><trkpt lat="42.200373" lon="13.6965371"><ele>846.0</ele><time>2026-05-02T11:27:47.634Z</time></trkpt><trkpt lat="42.2003166" lon="13.6964833"><ele>846.0</ele><time>2026-05-02T11:27:49.633Z</time></trkpt><trkpt lat="42.2002478" lon="13.6963706"><ele>846.0</ele><time>2026-05-02T11:27:51.634Z</time></trkpt><trkpt lat="42.2001616" lon="13.696284"><ele>846.0</ele><time>2026-05-02T11:27:53.633Z</time></trkpt><trkpt lat="42.2000925" lon="13.6962466"><ele>846.0</ele><time>2026-05-02T11:27:55.633Z</time></trkpt><trkpt lat="42.2000205" lon="13.6962716"><ele>846.0</ele><time>2026-05-02T11:27:57.633Z</time></trkpt><trkpt lat="42.1999535" lon="13.6963413"><ele>846.0</ele><time>2026-05-02T11:27:59.633Z</time></trkpt><trkpt lat="42.1998806" lon="13.6963897"><ele>841.6666666666666</ele><time>2026-05-02T11:28:02.633Z</time></trkpt><trkpt lat="42.1998158" lon="13.6963858"><ele>837.3333333333333</ele><time>2026-05-02T11:28:04.633Z</time></trkpt><trkpt lat="42.199759" lon="13.6963431"><ele>833.0</ele><time>2026-05-02T11:28:10.633Z</time></trkpt><trkpt lat="42.1997032" lon="13.6963006"><ele>828.6666666666666</ele><time>2026-05-02T11:28:22.633Z</time></trkpt><trkpt lat="42.1996451" lon="13.6961656"><ele>824.3333333333333</ele><time>2026-05-02T11:28:24.633Z</time></trkpt><trkpt lat="42.1996031" lon="13.6960754"><ele>820.0</ele><time>2026-05-02T11:28:25.633Z</time></trkpt><trkpt lat="42.1995619" lon="13.6959953"><ele>817.7142857142858</ele><time>2026-05-02T11:28:26.633Z</time></trkpt><trkpt lat="42.1995216" lon="13.6959269"><ele>815.4285714285713</ele><time>2026-05-02T11:28:27.633Z</time></trkpt><trkpt lat="42.1994766" lon="13.6958617"><ele>813.1428571428571</ele><time>2026-05-02T11:28:28.633Z</time></trkpt><trkpt lat="42.1994319" lon="13.6957933"><ele>810.8571428571429</ele><time>2026-05-02T11:28:29.634Z</time></trkpt><trkpt lat="42.1993902" lon="13.6957202"><ele>808.5714285714287</ele><time>2026-05-02T11:28:30.633Z</time></trkpt><trkpt lat="42.1993512" lon="13.6956503"><ele>806.2857142857142</ele><time>2026-05-02T11:28:31.633Z</time></trkpt><trkpt lat="42.1993131" lon="13.6955813"><ele>804.0</ele><time>2026-05-02T11:28:32.633Z</time></trkpt><trkpt lat="42.1992795" lon="13.6955088"><ele>804.0</ele><time>2026-05-02T11:28:33.633Z</time></trkpt><trkpt lat="42.1992527" lon="13.6954309"><ele>804.0</ele><time>2026-05-02T11:28:34.633Z</time></trkpt><trkpt lat="42.1992288" lon="13.695339"><ele>804.0</ele><time>2026-05-02T11:28:35.633Z</time></trkpt><trkpt lat="42.1992055" lon="13.6952379"><ele>804.0</ele><time>2026-05-02T11:28:36.634Z</time></trkpt><trkpt lat="42.1991755" lon="13.6951415"><ele>804.0</ele><time>2026-05-02T11:28:37.633Z</time></trkpt><trkpt lat="42.1991349" lon="13.6950583"><ele>804.0</ele><time>2026-05-02T11:28:38.633Z</time></trkpt><trkpt lat="42.1990892" lon="13.6949889"><ele>804.0</ele><time>2026-05-02T11:28:39.634Z</time></trkpt><trkpt lat="42.1990099" lon="13.6949144"><ele>800.5</ele><time>2026-05-02T11:28:41.634Z</time></trkpt><trkpt lat="42.198928" lon="13.6949226"><ele>797.0</ele><time>2026-05-02T11:28:43.634Z</time></trkpt><trkpt lat="42.1988608" lon="13.695004"><ele>793.5</ele><time>2026-05-02T11:28:45.634Z</time></trkpt><trkpt lat="42.1988035" lon="13.6951537"><ele>790.0</ele><time>2026-05-02T11:28:47.633Z</time></trkpt><trkpt lat="42.1987672" lon="13.6952398"><ele>786.5</ele><time>2026-05-02T11:28:48.633Z</time></trkpt><trkpt lat="42.1987215" lon="13.6953249"><ele>783.0</ele><time>2026-05-02T11:28:49.633Z</time></trkpt><trkpt lat="42.198671" lon="13.6954057"><ele>783.0</ele><time>2026-05-02T11:28:50.633Z</time></trkpt><trkpt lat="42.1986277" lon="13.6954809"><ele>783.0</ele><time>2026-05-02T11:28:51.633Z</time></trkpt><trkpt lat="42.1985727" lon="13.6955788"><ele>783.0</ele><time>2026-05-02T11:28:53.634Z</time></trkpt><trkpt lat="42.1985014" lon="13.6955915"><ele>783.0</ele><time>2026-05-02T11:28:55.633Z</time></trkpt><trkpt lat="42.1984311" lon="13.695529"><ele>783.0</ele><time>2026-05-02T11:28:57.634Z</time></trkpt><trkpt lat="42.1983423" lon="13.6954804"><ele>783.0</ele><time>2026-05-02T11:28:59.633Z</time></trkpt><trkpt lat="42.1982543" lon="13.6954697"><ele>783.0</ele><time>2026-05-02T11:29:01.633Z</time></trkpt><trkpt lat="42.1981748" lon="13.6955037"><ele>783.0</ele><time>2026-05-02T11:29:03.633Z</time></trkpt><trkpt lat="42.198101" lon="13.6955726"><ele>783.0</ele><time>2026-05-02T11:29:05.634Z</time></trkpt><trkpt lat="42.1980309" lon="13.695636"><ele>783.0</ele><time>2026-05-02T11:29:07.633Z</time></trkpt><trkpt lat="42.1979133" lon="13.6956847"><ele>783.0</ele><time>2026-05-02T11:29:09.633Z</time></trkpt><trkpt lat="42.1978348" lon="13.6957088"><ele>779.2</ele><time>2026-05-02T11:29:10.633Z</time></trkpt><trkpt lat="42.1977491" lon="13.6957334"><ele>775.4</ele><time>2026-05-02T11:29:11.633Z</time></trkpt><trkpt lat="42.1976564" lon="13.6957617"><ele>771.6</ele><time>2026-05-02T11:29:12.634Z</time></trkpt><trkpt lat="42.1975624" lon="13.6957887"><ele>767.8000000000001</ele><time>2026-05-02T11:29:13.633Z</time></trkpt><trkpt lat="42.1974726" lon="13.6958151"><ele>764.0</ele><time>2026-05-02T11:29:14.633Z</time></trkpt><trkpt lat="42.1973842" lon="13.6958462"><ele>761.0</ele><time>2026-05-02T11:29:15.633Z</time></trkpt><trkpt lat="42.1973018" lon="13.6958757"><ele>758.0</ele><time>2026-05-02T11:29:16.634Z</time></trkpt><trkpt lat="42.1972327" lon="13.6959007"><ele>755.0</ele><time>2026-05-02T11:29:17.633Z</time></trkpt><trkpt lat="42.197152" lon="13.6959274"><ele>752.0</ele><time>2026-05-02T11:29:19.634Z</time></trkpt><trkpt lat="42.1970763" lon="13.6959424"><ele>749.0</ele><time>2026-05-02T11:29:22.634Z</time></trkpt><trkpt lat="42.1970139" lon="13.6959645"><ele>746.0</ele><time>2026-05-02T11:29:23.633Z</time></trkpt><trkpt lat="42.1969301" lon="13.6959916"><ele>746.0</ele><time>2026-05-02T11:29:24.634Z</time></trkpt><trkpt lat="42.1968358" lon="13.6960258"><ele>746.0</ele><time>2026-05-02T11:29:25.633Z</time></trkpt><trkpt lat="42.196743" lon="13.6960638"><ele>746.0</ele><time>2026-05-02T11:29:26.633Z</time></trkpt><trkpt lat="42.196657" lon="13.6960936"><ele>746.0</ele><time>2026-05-02T11:29:27.633Z</time></trkpt><trkpt lat="42.196592" lon="13.6961166"><ele>746.0</ele><time>2026-05-02T11:29:28.633Z</time></trkpt><trkpt lat="42.1965376" lon="13.6962029"><ele>746.0</ele><time>2026-05-02T11:29:30.633Z</time></trkpt><trkpt lat="42.1965387" lon="13.6962909"><ele>743.3333333333333</ele><time>2026-05-02T11:29:32.634Z</time></trkpt><trkpt lat="42.1964783" lon="13.6962252"><ele>740.6666666666666</ele><time>2026-05-02T11:29:40.633Z</time></trkpt><trkpt lat="42.1964606" lon="13.6961206"><ele>738.0</ele><time>2026-05-02T11:29:44.633Z</time></trkpt><trkpt lat="42.1964348" lon="13.6959708"><ele>735.3333333333334</ele><time>2026-05-02T11:29:46.634Z</time></trkpt><trkpt lat="42.1964245" lon="13.6958709"><ele>732.6666666666667</ele><time>2026-05-02T11:29:47.633Z</time></trkpt><trkpt lat="42.1964147" lon="13.6957673"><ele>730.0</ele><time>2026-05-02T11:29:48.633Z</time></trkpt><trkpt lat="42.1964029" lon="13.6956653"><ele>730.0</ele><time>2026-05-02T11:29:49.633Z</time></trkpt><trkpt lat="42.1963886" lon="13.6955477"><ele>730.0</ele><time>2026-05-02T11:29:51.633Z</time></trkpt><trkpt lat="42.1963453" lon="13.6954533"><ele>730.0</ele><time>2026-05-02T11:29:58.633Z</time></trkpt><trkpt lat="42.196342" lon="13.6953511"><ele>730.0</ele><time>2026-05-02T11:29:59.634Z</time></trkpt><trkpt lat="42.1963293" lon="13.6952585"><ele>730.0</ele><time>2026-05-02T11:30:00.633Z</time></trkpt><trkpt lat="42.1963166" lon="13.69517"><ele>730.0</ele><time>2026-05-02T11:30:01.633Z</time></trkpt><trkpt lat="42.1962961" lon="13.6950736"><ele>730.1666666666667</ele><time>2026-05-02T11:30:02.634Z</time></trkpt><trkpt lat="42.1962836" lon="13.6949584"><ele>730.3333333333334</ele><time>2026-05-02T11:30:03.633Z</time></trkpt><trkpt lat="42.1962768" lon="13.6948345"><ele>730.5</ele><time>2026-05-02T11:30:04.633Z</time></trkpt><trkpt lat="42.1962624" lon="13.6947206"><ele>730.6666666666666</ele><time>2026-05-02T11:30:05.633Z</time></trkpt><trkpt lat="42.196235" lon="13.6946103"><ele>730.8333333333333</ele><time>2026-05-02T11:30:06.633Z</time></trkpt><trkpt lat="42.1962088" lon="13.6945256"><ele>731.0</ele><time>2026-05-02T11:30:07.634Z</time></trkpt><trkpt lat="42.1961631" lon="13.694384"><ele>731.0</ele><time>2026-05-02T11:30:09.633Z</time></trkpt><trkpt lat="42.1961169" lon="13.6942226"><ele>731.0</ele><time>2026-05-02T11:30:11.633Z</time></trkpt><trkpt lat="42.1960943" lon="13.694136"><ele>731.0</ele><time>2026-05-02T11:30:12.633Z</time></trkpt><trkpt lat="42.1960745" lon="13.6940451"><ele>731.0</ele><time>2026-05-02T11:30:13.634Z</time></trkpt><trkpt lat="42.1960603" lon="13.693962"><ele>731.0</ele><time>2026-05-02T11:30:14.634Z</time></trkpt><trkpt lat="42.1960272" lon="13.6937966"><ele>731.0</ele><time>2026-05-02T11:30:16.634Z</time></trkpt><trkpt lat="42.1960144" lon="13.6937076"><ele>731.0</ele><time>2026-05-02T11:30:17.633Z</time></trkpt><trkpt lat="42.1959989" lon="13.6936164"><ele>731.0</ele><time>2026-05-02T11:30:18.633Z</time></trkpt><trkpt lat="42.1959826" lon="13.6935302"><ele>731.0</ele><time>2026-05-02T11:30:19.634Z</time></trkpt><trkpt lat="42.1959694" lon="13.69344"><ele>731.0</ele><time>2026-05-02T11:30:20.634Z</time></trkpt><trkpt lat="42.1959617" lon="13.6933521"><ele>731.0</ele><time>2026-05-02T11:30:21.633Z</time></trkpt><trkpt lat="42.1959512" lon="13.6932677"><ele>731.0</ele><time>2026-05-02T11:30:22.633Z</time></trkpt><trkpt lat="42.195941" lon="13.6931798"><ele>729.5999999999999</ele><time>2026-05-02T11:30:23.633Z</time></trkpt><trkpt lat="42.1959064" lon="13.6930286"><ele>728.2</ele><time>2026-05-02T11:30:25.634Z</time></trkpt><trkpt lat="42.1958755" lon="13.692865"><ele>726.8</ele><time>2026-05-02T11:30:27.633Z</time></trkpt><trkpt lat="42.195865" lon="13.6927782"><ele>725.4000000000001</ele><time>2026-05-02T11:30:28.634Z</time></trkpt><trkpt lat="42.1958528" lon="13.6926809"><ele>724.0</ele><time>2026-05-02T11:30:29.633Z</time></trkpt><trkpt lat="42.1958464" lon="13.6925852"><ele>722.3333333333334</ele><time>2026-05-02T11:30:30.634Z</time></trkpt><trkpt lat="42.195843" lon="13.6924746"><ele>720.6666666666667</ele><time>2026-05-02T11:30:31.633Z</time></trkpt><trkpt lat="42.1958451" lon="13.6923701"><ele>719.0</ele><time>2026-05-02T11:30:32.633Z</time></trkpt><trkpt lat="42.1958452" lon="13.6922446"><ele>717.3333333333334</ele><time>2026-05-02T11:30:33.633Z</time></trkpt><trkpt lat="42.1958414" lon="13.6921186"><ele>715.6666666666666</ele><time>2026-05-02T11:30:34.634Z</time></trkpt><trkpt lat="42.1958377" lon="13.691995"><ele>714.0</ele><time>2026-05-02T11:30:35.634Z</time></trkpt><trkpt lat="42.1958398" lon="13.6918799"><ele>712.8333333333334</ele><time>2026-05-02T11:30:36.633Z</time></trkpt><trkpt lat="42.1958447" lon="13.6917445"><ele>711.6666666666666</ele><time>2026-05-02T11:30:37.633Z</time></trkpt><trkpt lat="42.1958529" lon="13.6916479"><ele>710.5</ele><time>2026-05-02T11:30:38.634Z</time></trkpt><trkpt lat="42.1958485" lon="13.6915579"><ele>709.3333333333333</ele><time>2026-05-02T11:30:39.633Z</time></trkpt><trkpt lat="42.1958347" lon="13.6914442"><ele>708.1666666666666</ele><time>2026-05-02T11:30:41.633Z</time></trkpt><trkpt lat="42.1957672" lon="13.6913354"><ele>707.0</ele><time>2026-05-02T11:30:43.634Z</time></trkpt><trkpt lat="42.1957153" lon="13.6911911"><ele>704.5</ele><time>2026-05-02T11:30:45.634Z</time></trkpt><trkpt lat="42.1956657" lon="13.6910473"><ele>702.0</ele><time>2026-05-02T11:30:47.633Z</time></trkpt><trkpt lat="42.1955874" lon="13.6909196"><ele>699.5</ele><time>2026-05-02T11:30:49.634Z</time></trkpt><trkpt lat="42.195537" lon="13.6908677"><ele>697.0</ele><time>2026-05-02T11:30:50.633Z</time></trkpt><trkpt lat="42.1954823" lon="13.6908197"><ele>694.5</ele><time>2026-05-02T11:30:51.633Z</time></trkpt><trkpt lat="42.195421" lon="13.6907838"><ele>692.0</ele><time>2026-05-02T11:30:52.633Z</time></trkpt><trkpt lat="42.195351" lon="13.6907513"><ele>692.0</ele><time>2026-05-02T11:30:53.633Z</time></trkpt><trkpt lat="42.1952711" lon="13.6907213"><ele>692.0</ele><time>2026-05-02T11:30:54.634Z</time></trkpt><trkpt lat="42.1951936" lon="13.6906997"><ele>692.0</ele><time>2026-05-02T11:30:55.634Z</time></trkpt><trkpt lat="42.1951118" lon="13.6906689"><ele>692.0</ele><time>2026-05-02T11:30:56.633Z</time></trkpt><trkpt lat="42.1950302" lon="13.6906331"><ele>692.0</ele><time>2026-05-02T11:30:57.633Z</time></trkpt><trkpt lat="42.1949401" lon="13.6906019"><ele>692.0</ele><time>2026-05-02T11:30:58.633Z</time></trkpt><trkpt lat="42.1948518" lon="13.6905715"><ele>689.6</ele><time>2026-05-02T11:30:59.633Z</time></trkpt><trkpt lat="42.1947617" lon="13.6905452"><ele>687.2</ele><time>2026-05-02T11:31:00.633Z</time></trkpt><trkpt lat="42.1946711" lon="13.6905201"><ele>684.8</ele><time>2026-05-02T11:31:01.633Z</time></trkpt><trkpt lat="42.1945812" lon="13.6904953"><ele>682.4</ele><time>2026-05-02T11:31:02.633Z</time></trkpt><trkpt lat="42.1944932" lon="13.690459"><ele>680.0</ele><time>2026-05-02T11:31:03.633Z</time></trkpt><trkpt lat="42.1944105" lon="13.6904063"><ele>680.0</ele><time>2026-05-02T11:31:04.633Z</time></trkpt><trkpt lat="42.1943399" lon="13.6903434"><ele>680.0</ele><time>2026-05-02T11:31:05.633Z</time></trkpt><trkpt lat="42.1942721" lon="13.6902684"><ele>680.0</ele><time>2026-05-02T11:31:06.634Z</time></trkpt><trkpt lat="42.1942095" lon="13.6901811"><ele>680.0</ele><time>2026-05-02T11:31:07.633Z</time></trkpt><trkpt lat="42.1941525" lon="13.6900978"><ele>680.0</ele><time>2026-05-02T11:31:08.634Z</time></trkpt><trkpt lat="42.1940989" lon="13.6900176"><ele>680.0</ele><time>2026-05-02T11:31:09.633Z</time></trkpt><trkpt lat="42.1940485" lon="13.6899378"><ele>679.5</ele><time>2026-05-02T11:31:10.633Z</time></trkpt><trkpt lat="42.1940069" lon="13.6898458"><ele>679.0</ele><time>2026-05-02T11:31:11.633Z</time></trkpt><trkpt lat="42.1939743" lon="13.689746"><ele>678.5</ele><time>2026-05-02T11:31:12.634Z</time></trkpt><trkpt lat="42.1939459" lon="13.6896611"><ele>678.0</ele><time>2026-05-02T11:31:13.633Z</time></trkpt><trkpt lat="42.193914" lon="13.6895816"><ele>677.5</ele><time>2026-05-02T11:31:14.633Z</time></trkpt><trkpt lat="42.1938361" lon="13.6894909"><ele>677.0</ele><time>2026-05-02T11:31:16.633Z</time></trkpt><trkpt lat="42.1937275" lon="13.6894422"><ele>675.8</ele><time>2026-05-02T11:31:18.633Z</time></trkpt><trkpt lat="42.1936408" lon="13.6894278"><ele>674.6</ele><time>2026-05-02T11:31:20.633Z</time></trkpt><trkpt lat="42.1935418" lon="13.6894391"><ele>673.4</ele><time>2026-05-02T11:31:22.633Z</time></trkpt><trkpt lat="42.1934727" lon="13.6894284"><ele>672.1999999999999</ele><time>2026-05-02T11:31:24.633Z</time></trkpt><trkpt lat="42.1934147" lon="13.6893295"><ele>671.0</ele><time>2026-05-02T11:31:27.633Z</time></trkpt><trkpt lat="42.1933484" lon="13.6892001"><ele>671.0</ele><time>2026-05-02T11:31:29.633Z</time></trkpt><trkpt lat="42.1933036" lon="13.6891338"><ele>671.0</ele><time>2026-05-02T11:31:30.633Z</time></trkpt><trkpt lat="42.1932534" lon="13.6890724"><ele>671.0</ele><time>2026-05-02T11:31:31.633Z</time></trkpt><trkpt lat="42.1931769" lon="13.6889486"><ele>671.0</ele><time>2026-05-02T11:31:33.634Z</time></trkpt><trkpt lat="42.1931316" lon="13.6887925"><ele>671.0</ele><time>2026-05-02T11:31:35.634Z</time></trkpt><trkpt lat="42.1931083" lon="13.6886973"><ele>671.8333333333333</ele><time>2026-05-02T11:31:36.633Z</time></trkpt><trkpt lat="42.1930856" lon="13.6885928"><ele>672.6666666666666</ele><time>2026-05-02T11:31:37.633Z</time></trkpt><trkpt lat="42.1930617" lon="13.6884899"><ele>673.5</ele><time>2026-05-02T11:31:38.633Z</time></trkpt><trkpt lat="42.1930444" lon="13.6883908"><ele>674.3333333333334</ele><time>2026-05-02T11:31:39.634Z</time></trkpt><trkpt lat="42.1930396" lon="13.6882917"><ele>675.1666666666667</ele><time>2026-05-02T11:31:40.634Z</time></trkpt><trkpt lat="42.1930454" lon="13.6881971"><ele>676.0</ele><time>2026-05-02T11:31:41.634Z</time></trkpt><trkpt lat="42.1930571" lon="13.6881015"><ele>676.0</ele><time>2026-05-02T11:31:42.633Z</time></trkpt><trkpt lat="42.1930691" lon="13.6880082"><ele>676.0</ele><time>2026-05-02T11:31:43.633Z</time></trkpt><trkpt lat="42.1930815" lon="13.6879133"><ele>676.0</ele><time>2026-05-02T11:31:44.633Z</time></trkpt><trkpt lat="42.1930875" lon="13.6878151"><ele>676.0</ele><time>2026-05-02T11:31:45.633Z</time></trkpt><trkpt lat="42.1930793" lon="13.6877153"><ele>676.0</ele><time>2026-05-02T11:31:46.634Z</time></trkpt><trkpt lat="42.1930559" lon="13.6876134"><ele>676.0</ele><time>2026-05-02T11:31:47.633Z</time></trkpt><trkpt lat="42.1930261" lon="13.6875125"><ele>676.0</ele><time>2026-05-02T11:31:48.634Z</time></trkpt><trkpt lat="42.1929992" lon="13.6874177"><ele>676.1666666666667</ele><time>2026-05-02T11:31:49.633Z</time></trkpt><trkpt lat="42.1929813" lon="13.687327"><ele>676.3333333333334</ele><time>2026-05-02T11:31:50.634Z</time></trkpt><trkpt lat="42.1929701" lon="13.6872362"><ele>676.5</ele><time>2026-05-02T11:31:51.633Z</time></trkpt><trkpt lat="42.1929684" lon="13.6871428"><ele>676.6666666666666</ele><time>2026-05-02T11:31:52.634Z</time></trkpt><trkpt lat="42.1929796" lon="13.6870472"><ele>676.8333333333333</ele><time>2026-05-02T11:31:53.634Z</time></trkpt><trkpt lat="42.1930006" lon="13.6869307"><ele>677.0</ele><time>2026-05-02T11:31:54.634Z</time></trkpt><trkpt lat="42.1930275" lon="13.6868099"><ele>676.6666666666666</ele><time>2026-05-02T11:31:55.633Z</time></trkpt><trkpt lat="42.1930582" lon="13.6866993"><ele>676.3333333333333</ele><time>2026-05-02T11:31:56.633Z</time></trkpt><trkpt lat="42.1930896" lon="13.6865874"><ele>676.0</ele><time>2026-05-02T11:31:57.633Z</time></trkpt><trkpt lat="42.1931199" lon="13.6864758"><ele>675.6666666666666</ele><time>2026-05-02T11:31:58.633Z</time></trkpt><trkpt lat="42.193146" lon="13.6863655"><ele>675.3333333333334</ele><time>2026-05-02T11:31:59.634Z</time></trkpt><trkpt lat="42.1931702" lon="13.6862591"><ele>675.0</ele><time>2026-05-02T11:32:00.633Z</time></trkpt><trkpt lat="42.1931963" lon="13.6861558"><ele>675.0</ele><time>2026-05-02T11:32:01.634Z</time></trkpt><trkpt lat="42.1932243" lon="13.686055"><ele>675.0</ele><time>2026-05-02T11:32:02.633Z</time></trkpt><trkpt lat="42.1932456" lon="13.6859507"><ele>675.0</ele><time>2026-05-02T11:32:03.633Z</time></trkpt><trkpt lat="42.1932491" lon="13.6858446"><ele>675.0</ele><time>2026-05-02T11:32:04.633Z</time></trkpt><trkpt lat="42.1932322" lon="13.6857373"><ele>675.0</ele><time>2026-05-02T11:32:05.633Z</time></trkpt><trkpt lat="42.1932075" lon="13.6856221"><ele>675.0</ele><time>2026-05-02T11:32:06.633Z</time></trkpt><trkpt lat="42.1931905" lon="13.6855084"><ele>675.0</ele><time>2026-05-02T11:32:07.634Z</time></trkpt><trkpt lat="42.1931865" lon="13.6853953"><ele>675.0</ele><time>2026-05-02T11:32:08.634Z</time></trkpt><trkpt lat="42.1931939" lon="13.6852722"><ele>675.0</ele><time>2026-05-02T11:32:09.633Z</time></trkpt><trkpt lat="42.1932051" lon="13.6851443"><ele>675.0</ele><time>2026-05-02T11:32:10.633Z</time></trkpt><trkpt lat="42.1932142" lon="13.6850269"><ele>675.0</ele><time>2026-05-02T11:32:11.633Z</time></trkpt><trkpt lat="42.1932163" lon="13.6849147"><ele>675.0</ele><time>2026-05-02T11:32:12.634Z</time></trkpt><trkpt lat="42.1932104" lon="13.684793"><ele>674.8</ele><time>2026-05-02T11:32:13.633Z</time></trkpt><trkpt lat="42.19319" lon="13.6846649"><ele>674.6</ele><time>2026-05-02T11:32:14.633Z</time></trkpt><trkpt lat="42.193164" lon="13.6845387"><ele>674.4000000000001</ele><time>2026-05-02T11:32:15.633Z</time></trkpt><trkpt lat="42.1931373" lon="13.6844132"><ele>674.2</ele><time>2026-05-02T11:32:16.633Z</time></trkpt><trkpt lat="42.1931099" lon="13.6842856"><ele>674.0</ele><time>2026-05-02T11:32:17.633Z</time></trkpt><trkpt lat="42.1930776" lon="13.684163"><ele>672.3333333333333</ele><time>2026-05-02T11:32:18.633Z</time></trkpt><trkpt lat="42.1930484" lon="13.6840403"><ele>670.6666666666666</ele><time>2026-05-02T11:32:19.633Z</time></trkpt><trkpt lat="42.1930258" lon="13.6839213"><ele>669.0</ele><time>2026-05-02T11:32:20.633Z</time></trkpt><trkpt lat="42.1929992" lon="13.6838105"><ele>667.3333333333334</ele><time>2026-05-02T11:32:21.633Z</time></trkpt><trkpt lat="42.1929687" lon="13.6837015"><ele>665.6666666666667</ele><time>2026-05-02T11:32:22.633Z</time></trkpt><trkpt lat="42.1929395" lon="13.6835929"><ele>664.0</ele><time>2026-05-02T11:32:23.633Z</time></trkpt><trkpt lat="42.1929098" lon="13.6834791"><ele>664.0</ele><time>2026-05-02T11:32:24.633Z</time></trkpt><trkpt lat="42.1928829" lon="13.683358"><ele>664.0</ele><time>2026-05-02T11:32:25.633Z</time></trkpt><trkpt lat="42.1928639" lon="13.6832341"><ele>664.0</ele><time>2026-05-02T11:32:26.633Z</time></trkpt><trkpt lat="42.1928476" lon="13.6831049"><ele>664.0</ele><time>2026-05-02T11:32:27.633Z</time></trkpt><trkpt lat="42.1928309" lon="13.6829785"><ele>664.0</ele><time>2026-05-02T11:32:28.633Z</time></trkpt><trkpt lat="42.1928123" lon="13.6828578"><ele>664.8333333333334</ele><time>2026-05-02T11:32:29.633Z</time></trkpt><trkpt lat="42.1927927" lon="13.6827399"><ele>665.6666666666667</ele><time>2026-05-02T11:32:30.633Z</time></trkpt><trkpt lat="42.1927742" lon="13.6826342"><ele>666.5</ele><time>2026-05-02T11:32:31.634Z</time></trkpt><trkpt lat="42.1927573" lon="13.6825391"><ele>667.3333333333334</ele><time>2026-05-02T11:32:32.634Z</time></trkpt><trkpt lat="42.1927423" lon="13.6824511"><ele>668.1666666666666</ele><time>2026-05-02T11:32:33.634Z</time></trkpt><trkpt lat="42.1927102" lon="13.6823076"><ele>669.0</ele><time>2026-05-02T11:32:35.633Z</time></trkpt><trkpt lat="42.1926756" lon="13.6821734"><ele>669.0</ele><time>2026-05-02T11:32:37.633Z</time></trkpt><trkpt lat="42.192665" lon="13.6820637"><ele>669.0</ele><time>2026-05-02T11:32:39.634Z</time></trkpt><trkpt lat="42.1926936" lon="13.6819181"><ele>669.0</ele><time>2026-05-02T11:32:41.634Z</time></trkpt><trkpt lat="42.1927189" lon="13.681829"><ele>669.0</ele><time>2026-05-02T11:32:42.634Z</time></trkpt><trkpt lat="42.1927437" lon="13.6817382"><ele>669.0</ele><time>2026-05-02T11:32:43.633Z</time></trkpt><trkpt lat="42.1927655" lon="13.6816514"><ele>669.0</ele><time>2026-05-02T11:32:44.633Z</time></trkpt><trkpt lat="42.1927864" lon="13.681542"><ele>668.3333333333334</ele><time>2026-05-02T11:32:46.634Z</time></trkpt><trkpt lat="42.1927647" lon="13.6814355"><ele>667.6666666666666</ele><time>2026-05-02T11:32:48.633Z</time></trkpt><trkpt lat="42.1927639" lon="13.6812885"><ele>667.0</ele><time>2026-05-02T11:32:50.633Z</time></trkpt><trkpt lat="42.1927871" lon="13.6811486"><ele>666.3333333333333</ele><time>2026-05-02T11:32:52.634Z</time></trkpt><trkpt lat="42.1928226" lon="13.681075"><ele>665.6666666666666</ele><time>2026-05-02T11:32:54.633Z</time></trkpt><trkpt lat="42.1928769" lon="13.6810143"><ele>665.0</ele><time>2026-05-02T11:32:55.633Z</time></trkpt><trkpt lat="42.1929461" lon="13.6809471"><ele>662.4</ele><time>2026-05-02T11:32:56.634Z</time></trkpt><trkpt lat="42.1930135" lon="13.6808785"><ele>659.8</ele><time>2026-05-02T11:32:57.634Z</time></trkpt><trkpt lat="42.1930791" lon="13.6807886"><ele>657.2</ele><time>2026-05-02T11:32:59.633Z</time></trkpt><trkpt lat="42.1930835" lon="13.6806701"><ele>654.6</ele><time>2026-05-02T11:33:01.634Z</time></trkpt><trkpt lat="42.1930328" lon="13.6804966"><ele>652.0</ele><time>2026-05-02T11:33:03.634Z</time></trkpt><trkpt lat="42.1930054" lon="13.6803919"><ele>652.0</ele><time>2026-05-02T11:33:04.633Z</time></trkpt><trkpt lat="42.1929908" lon="13.6802829"><ele>652.0</ele><time>2026-05-02T11:33:05.633Z</time></trkpt><trkpt lat="42.1929802" lon="13.6801748"><ele>652.0</ele><time>2026-05-02T11:33:06.633Z</time></trkpt><trkpt lat="42.1929725" lon="13.6800723"><ele>652.0</ele><time>2026-05-02T11:33:07.634Z</time></trkpt><trkpt lat="42.1929653" lon="13.6799873"><ele>652.0</ele><time>2026-05-02T11:33:08.633Z</time></trkpt><trkpt lat="42.1929784" lon="13.6798207"><ele>652.0</ele><time>2026-05-02T11:33:10.633Z</time></trkpt><trkpt lat="42.1930179" lon="13.6796753"><ele>650.6666666666667</ele><time>2026-05-02T11:33:11.634Z</time></trkpt><trkpt lat="42.1930782" lon="13.6795057"><ele>649.3333333333334</ele><time>2026-05-02T11:33:12.633Z</time></trkpt><trkpt lat="42.1931644" lon="13.6793373"><ele>648.0</ele><time>2026-05-02T11:33:13.633Z</time></trkpt><trkpt lat="42.1932801" lon="13.6791551"><ele>648.0</ele><time>2026-05-02T11:33:14.633Z</time></trkpt><trkpt lat="42.1934235" lon="13.6789482"><ele>648.0</ele><time>2026-05-02T11:33:15.633Z</time></trkpt><trkpt lat="42.1935795" lon="13.6787192"><ele>648.0</ele><time>2026-05-02T11:33:16.634Z</time></trkpt><trkpt lat="42.1937397" lon="13.6784751"><ele>650.0</ele><time>2026-05-02T11:33:17.634Z</time></trkpt><trkpt lat="42.1939083" lon="13.6782179"><ele>652.0</ele><time>2026-05-02T11:33:18.634Z</time></trkpt><trkpt lat="42.1940766" lon="13.6779578"><ele>647.5</ele><time>2026-05-02T11:33:19.633Z</time></trkpt><trkpt lat="42.1942353" lon="13.6777122"><ele>643.0</ele><time>2026-05-02T11:33:20.633Z</time></trkpt><trkpt lat="42.1943908" lon="13.6774694"><ele>643.0</ele><time>2026-05-02T11:33:21.633Z</time></trkpt><trkpt lat="42.194543" lon="13.6772189"><ele>643.0</ele><time>2026-05-02T11:33:22.634Z</time></trkpt><trkpt lat="42.1946827" lon="13.6769586"><ele>645.5</ele><time>2026-05-02T11:33:23.633Z</time></trkpt><trkpt lat="42.1948107" lon="13.6766954"><ele>648.0</ele><time>2026-05-02T11:33:24.633Z</time></trkpt><trkpt lat="42.194926" lon="13.6764396"><ele>648.0</ele><time>2026-05-02T11:33:25.633Z</time></trkpt><trkpt lat="42.1950303" lon="13.6761969"><ele>648.0</ele><time>2026-05-02T11:33:26.633Z</time></trkpt><trkpt lat="42.1951385" lon="13.6759706"><ele>648.0</ele><time>2026-05-02T11:33:27.633Z</time></trkpt><trkpt lat="42.1952593" lon="13.6757694"><ele>649.0</ele><time>2026-05-02T11:33:28.634Z</time></trkpt><trkpt lat="42.1953959" lon="13.6756031"><ele>650.0</ele><time>2026-05-02T11:33:29.633Z</time></trkpt><trkpt lat="42.195553" lon="13.6754669"><ele>651.0</ele><time>2026-05-02T11:33:30.634Z</time></trkpt><trkpt lat="42.1957249" lon="13.6753325"><ele>647.0</ele><time>2026-05-02T11:33:31.633Z</time></trkpt><trkpt lat="42.1958896" lon="13.6751786"><ele>643.0</ele><time>2026-05-02T11:33:32.633Z</time></trkpt><trkpt lat="42.1960467" lon="13.6750131"><ele>639.0</ele><time>2026-05-02T11:33:33.633Z</time></trkpt><trkpt lat="42.196201" lon="13.6748172"><ele>639.0</ele><time>2026-05-02T11:33:34.633Z</time></trkpt><trkpt lat="42.1963572" lon="13.6745859"><ele>639.0</ele><time>2026-05-02T11:33:35.634Z</time></trkpt><trkpt lat="42.1965153" lon="13.6743292"><ele>637.5</ele><time>2026-05-02T11:33:36.634Z</time></trkpt><trkpt lat="42.1966742" lon="13.6740632"><ele>636.0</ele><time>2026-05-02T11:33:37.633Z</time></trkpt><trkpt lat="42.1968275" lon="13.6738046"><ele>633.0</ele><time>2026-05-02T11:33:38.634Z</time></trkpt><trkpt lat="42.1969677" lon="13.6735571"><ele>630.0</ele><time>2026-05-02T11:33:39.633Z</time></trkpt><trkpt lat="42.1970848" lon="13.6733092"><ele>627.0</ele><time>2026-05-02T11:33:40.633Z</time></trkpt><trkpt lat="42.197176" lon="13.6730597"><ele>627.0</ele><time>2026-05-02T11:33:41.633Z</time></trkpt><trkpt lat="42.1972453" lon="13.6728503"><ele>627.0</ele><time>2026-05-02T11:33:42.633Z</time></trkpt><trkpt lat="42.1973047" lon="13.6727007"><ele>627.0</ele><time>2026-05-02T11:33:43.634Z</time></trkpt><trkpt lat="42.1973761" lon="13.6725715"><ele>627.0</ele><time>2026-05-02T11:33:44.633Z</time></trkpt><trkpt lat="42.1974699" lon="13.6724584"><ele>628.0</ele><time>2026-05-02T11:33:45.634Z</time></trkpt><trkpt lat="42.1975854" lon="13.672376"><ele>629.0</ele><time>2026-05-02T11:33:46.633Z</time></trkpt><trkpt lat="42.1977119" lon="13.6723368"><ele>630.0</ele><time>2026-05-02T11:33:47.634Z</time></trkpt><trkpt lat="42.197833" lon="13.6723326"><ele>631.0</ele><time>2026-05-02T11:33:48.634Z</time></trkpt><trkpt lat="42.1979461" lon="13.6723699"><ele>631.0</ele><time>2026-05-02T11:33:49.633Z</time></trkpt><trkpt lat="42.1980603" lon="13.672427"><ele>631.0</ele><time>2026-05-02T11:33:50.634Z</time></trkpt><trkpt lat="42.198183" lon="13.672469"><ele>631.0</ele><time>2026-05-02T11:33:51.634Z</time></trkpt><trkpt lat="42.1983078" lon="13.6724934"><ele>631.0</ele><time>2026-05-02T11:33:52.634Z</time></trkpt><trkpt lat="42.1984277" lon="13.6724964"><ele>632.2</ele><time>2026-05-02T11:33:53.633Z</time></trkpt><trkpt lat="42.198541" lon="13.6724709"><ele>633.4000000000001</ele><time>2026-05-02T11:33:54.633Z</time></trkpt><trkpt lat="42.1986317" lon="13.6724159"><ele>634.6</ele><time>2026-05-02T11:33:55.633Z</time></trkpt><trkpt lat="42.1986981" lon="13.6723338"><ele>635.8000000000001</ele><time>2026-05-02T11:33:56.633Z</time></trkpt><trkpt lat="42.1987353" lon="13.672228"><ele>637.0</ele><time>2026-05-02T11:33:57.633Z</time></trkpt><trkpt lat="42.1987381" lon="13.6721119"><ele>637.0</ele><time>2026-05-02T11:33:58.634Z</time></trkpt><trkpt lat="42.1987159" lon="13.6719838"><ele>637.0</ele><time>2026-05-02T11:33:59.634Z</time></trkpt><trkpt lat="42.1987041" lon="13.6718396"><ele>637.0</ele><time>2026-05-02T11:34:00.633Z</time></trkpt><trkpt lat="42.1987156" lon="13.6716837"><ele>637.0</ele><time>2026-05-02T11:34:01.634Z</time></trkpt><trkpt lat="42.1987457" lon="13.6715204"><ele>637.0</ele><time>2026-05-02T11:34:02.633Z</time></trkpt><trkpt lat="42.1988024" lon="13.6713649"><ele>636.0</ele><time>2026-05-02T11:34:03.633Z</time></trkpt><trkpt lat="42.1988897" lon="13.6712177"><ele>635.0</ele><time>2026-05-02T11:34:04.634Z</time></trkpt><trkpt lat="42.1990063" lon="13.6710819"><ele>634.0</ele><time>2026-05-02T11:34:05.634Z</time></trkpt><trkpt lat="42.1991231" lon="13.6709395"><ele>634.0</ele><time>2026-05-02T11:34:06.633Z</time></trkpt><trkpt lat="42.1992356" lon="13.6707522"><ele>634.0</ele><time>2026-05-02T11:34:07.633Z</time></trkpt><trkpt lat="42.1993259" lon="13.6705285"><ele>634.0</ele><time>2026-05-02T11:34:08.633Z</time></trkpt><trkpt lat="42.199402" lon="13.6703079"><ele>629.3333333333334</ele><time>2026-05-02T11:34:09.634Z</time></trkpt><trkpt lat="42.1995005" lon="13.6700953"><ele>624.6666666666666</ele><time>2026-05-02T11:34:10.633Z</time></trkpt><trkpt lat="42.199634" lon="13.6698977"><ele>620.0</ele><time>2026-05-02T11:34:11.633Z</time></trkpt><trkpt lat="42.1997752" lon="13.66972"><ele>623.3333333333333</ele><time>2026-05-02T11:34:12.634Z</time></trkpt><trkpt lat="42.1999121" lon="13.6695588"><ele>626.6666666666666</ele><time>2026-05-02T11:34:13.633Z</time></trkpt><trkpt lat="42.2000471" lon="13.6694111"><ele>630.0</ele><time>2026-05-02T11:34:14.634Z</time></trkpt><trkpt lat="42.200165" lon="13.6692635"><ele>630.0</ele><time>2026-05-02T11:34:15.633Z</time></trkpt><trkpt lat="42.2002484" lon="13.6691212"><ele>630.0</ele><time>2026-05-02T11:34:16.633Z</time></trkpt><trkpt lat="42.2003137" lon="13.6689824"><ele>630.0</ele><time>2026-05-02T11:34:17.633Z</time></trkpt><trkpt lat="42.2003638" lon="13.6688599"><ele>630.0</ele><time>2026-05-02T11:34:18.634Z</time></trkpt><trkpt lat="42.2004017" lon="13.668751"><ele>630.0</ele><time>2026-05-02T11:34:19.634Z</time></trkpt><trkpt lat="42.2004355" lon="13.6686478"><ele>630.0</ele><time>2026-05-02T11:34:20.633Z</time></trkpt><trkpt lat="42.2004681" lon="13.6685576"><ele>630.0</ele><time>2026-05-02T11:34:21.633Z</time></trkpt><trkpt lat="42.2004496" lon="13.6684587"><ele>630.0</ele><time>2026-05-02T11:34:23.633Z</time></trkpt><trkpt lat="42.2003568" lon="13.6684704"><ele>630.0</ele><time>2026-05-02T11:34:25.634Z</time></trkpt><trkpt lat="42.2002821" lon="13.6685229"><ele>630.0</ele><time>2026-05-02T11:34:26.633Z</time></trkpt><trkpt lat="42.200198" lon="13.6685853"><ele>630.0</ele><time>2026-05-02T11:34:27.634Z</time></trkpt><trkpt lat="42.2001168" lon="13.6686492"><ele>630.0</ele><time>2026-05-02T11:34:28.633Z</time></trkpt><trkpt lat="42.2000382" lon="13.6687286"><ele>630.0</ele><time>2026-05-02T11:34:29.633Z</time></trkpt><trkpt lat="42.1999653" lon="13.6688226"><ele>630.0</ele><time>2026-05-02T11:34:30.634Z</time></trkpt><trkpt lat="42.1998938" lon="13.6689218"><ele>630.0</ele><time>2026-05-02T11:34:31.633Z</time></trkpt><trkpt lat="42.1998213" lon="13.6690169"><ele>630.0</ele><time>2026-05-02T11:34:32.633Z</time></trkpt><trkpt lat="42.1997523" lon="13.6691142"><ele>628.0</ele><time>2026-05-02T11:34:33.634Z</time></trkpt><trkpt lat="42.1996939" lon="13.6692188"><ele>626.0</ele><time>2026-05-02T11:34:34.633Z</time></trkpt><trkpt lat="42.1996418" lon="13.6693254"><ele>624.0</ele><time>2026-05-02T11:34:35.634Z</time></trkpt><trkpt lat="42.1995846" lon="13.669422"><ele>622.0</ele><time>2026-05-02T11:34:36.633Z</time></trkpt><trkpt lat="42.1995277" lon="13.6694888"><ele>620.0</ele><time>2026-05-02T11:34:37.633Z</time></trkpt><trkpt lat="42.1994337" lon="13.6694993"><ele>617.2</ele><time>2026-05-02T11:34:39.633Z</time></trkpt><trkpt lat="42.1994031" lon="13.669354"><ele>614.4</ele><time>2026-05-02T11:34:41.633Z</time></trkpt><trkpt lat="42.1994147" lon="13.6692564"><ele>611.6</ele><time>2026-05-02T11:34:42.633Z</time></trkpt><trkpt lat="42.1994336" lon="13.6691368"><ele>608.8</ele><time>2026-05-02T11:34:43.634Z</time></trkpt><trkpt lat="42.1994448" lon="13.6690113"><ele>606.0</ele><time>2026-05-02T11:34:44.634Z</time></trkpt><trkpt lat="42.1994509" lon="13.6688792"><ele>606.0</ele><time>2026-05-02T11:34:45.634Z</time></trkpt><trkpt lat="42.1994498" lon="13.6687421"><ele>606.0</ele><time>2026-05-02T11:34:46.634Z</time></trkpt><trkpt lat="42.1994396" lon="13.6686048"><ele>606.0</ele><time>2026-05-02T11:34:47.633Z</time></trkpt><trkpt lat="42.1994165" lon="13.6684714"><ele>606.0</ele><time>2026-05-02T11:34:48.634Z</time></trkpt><trkpt lat="42.1993872" lon="13.6683384"><ele>606.0</ele><time>2026-05-02T11:34:49.634Z</time></trkpt><trkpt lat="42.1993493" lon="13.6681999"><ele>606.4</ele><time>2026-05-02T11:34:50.634Z</time></trkpt><trkpt lat="42.1993107" lon="13.6680598"><ele>606.8</ele><time>2026-05-02T11:34:51.634Z</time></trkpt><trkpt lat="42.1992791" lon="13.6679271"><ele>607.1999999999999</ele><time>2026-05-02T11:34:52.633Z</time></trkpt><trkpt lat="42.1992494" lon="13.6677976"><ele>607.6</ele><time>2026-05-02T11:34:53.634Z</time></trkpt><trkpt lat="42.1992291" lon="13.6676854"><ele>608.0</ele><time>2026-05-02T11:34:54.634Z</time></trkpt><trkpt lat="42.1992121" lon="13.6675936"><ele>608.0</ele><time>2026-05-02T11:34:55.633Z</time></trkpt><trkpt lat="42.1991964" lon="13.667506"><ele>608.0</ele><time>2026-05-02T11:34:56.633Z</time></trkpt><trkpt lat="42.1992144" lon="13.6673407"><ele>608.0</ele><time>2026-05-02T11:34:58.633Z</time></trkpt><trkpt lat="42.1992296" lon="13.6672566"><ele>608.0</ele><time>2026-05-02T11:34:59.633Z</time></trkpt><trkpt lat="42.1992786" lon="13.6671055"><ele>608.0</ele><time>2026-05-02T11:35:01.633Z</time></trkpt><trkpt lat="42.1993024" lon="13.6670181"><ele>608.0</ele><time>2026-05-02T11:35:02.633Z</time></trkpt><trkpt lat="42.1993128" lon="13.6669313"><ele>608.1999999999999</ele><time>2026-05-02T11:35:03.634Z</time></trkpt><trkpt lat="42.1992955" lon="13.6668244"><ele>608.4</ele><time>2026-05-02T11:35:04.633Z</time></trkpt><trkpt lat="42.1992904" lon="13.6666495"><ele>608.5999999999999</ele><time>2026-05-02T11:35:06.634Z</time></trkpt><trkpt lat="42.1992783" lon="13.666548"><ele>608.8</ele><time>2026-05-02T11:35:07.633Z</time></trkpt><trkpt lat="42.1992573" lon="13.6664599"><ele>609.0</ele><time>2026-05-02T11:35:08.633Z</time></trkpt><trkpt lat="42.19926" lon="13.6662908"><ele>609.0</ele><time>2026-05-02T11:35:10.633Z</time></trkpt><trkpt lat="42.1992728" lon="13.6662001"><ele>609.0</ele><time>2026-05-02T11:35:11.633Z</time></trkpt><trkpt lat="42.1992755" lon="13.6661125"><ele>609.0</ele><time>2026-05-02T11:35:12.634Z</time></trkpt><trkpt lat="42.1992925" lon="13.6660253"><ele>609.0</ele><time>2026-05-02T11:35:13.633Z</time></trkpt><trkpt lat="42.1993275" lon="13.6659294"><ele>609.0</ele><time>2026-05-02T11:35:14.633Z</time></trkpt><trkpt lat="42.1993672" lon="13.6658366"><ele>609.0</ele><time>2026-05-02T11:35:15.634Z</time></trkpt><trkpt lat="42.1994223" lon="13.6657514"><ele>609.0</ele><time>2026-05-02T11:35:16.633Z</time></trkpt><trkpt lat="42.1994582" lon="13.6656721"><ele>608.3333333333334</ele><time>2026-05-02T11:35:17.634Z</time></trkpt><trkpt lat="42.1995121" lon="13.6655846"><ele>607.6666666666666</ele><time>2026-05-02T11:35:18.634Z</time></trkpt><trkpt lat="42.1995586" lon="13.6654954"><ele>607.0</ele><time>2026-05-02T11:35:19.633Z</time></trkpt><trkpt lat="42.1996015" lon="13.6654026"><ele>606.3333333333333</ele><time>2026-05-02T11:35:20.633Z</time></trkpt><trkpt lat="42.1996589" lon="13.6653151"><ele>605.6666666666666</ele><time>2026-05-02T11:35:21.633Z</time></trkpt><trkpt lat="42.1997195" lon="13.6652315"><ele>605.0</ele><time>2026-05-02T11:35:22.633Z</time></trkpt><trkpt lat="42.1997876" lon="13.6651513"><ele>605.0</ele><time>2026-05-02T11:35:23.633Z</time></trkpt><trkpt lat="42.1998556" lon="13.6650797"><ele>605.0</ele><time>2026-05-02T11:35:24.633Z</time></trkpt><trkpt lat="42.1999224" lon="13.6650246"><ele>605.0</ele><time>2026-05-02T11:35:25.633Z</time></trkpt><trkpt lat="42.1999909" lon="13.6649718"><ele>605.0</ele><time>2026-05-02T11:35:26.633Z</time></trkpt><trkpt lat="42.2000528" lon="13.6649194"><ele>605.0</ele><time>2026-05-02T11:35:27.633Z</time></trkpt><trkpt lat="42.2001198" lon="13.664869"><ele>605.0</ele><time>2026-05-02T11:35:28.633Z</time></trkpt><trkpt lat="42.2001865" lon="13.6648353"><ele>605.0</ele><time>2026-05-02T11:35:29.633Z</time></trkpt><trkpt lat="42.2002562" lon="13.6648089"><ele>605.0</ele><time>2026-05-02T11:35:30.634Z</time></trkpt><trkpt lat="42.2003177" lon="13.6647865"><ele>605.0</ele><time>2026-05-02T11:35:31.634Z</time></trkpt><trkpt lat="42.2004334" lon="13.6647442"><ele>605.0</ele><time>2026-05-02T11:35:33.634Z</time></trkpt><trkpt lat="42.2004957" lon="13.6647084"><ele>605.0</ele><time>2026-05-02T11:35:34.634Z</time></trkpt><trkpt lat="42.2005568" lon="13.6646752"><ele>605.0</ele><time>2026-05-02T11:35:35.633Z</time></trkpt><trkpt lat="42.200617" lon="13.6646371"><ele>604.0</ele><time>2026-05-02T11:35:36.633Z</time></trkpt><trkpt lat="42.2007354" lon="13.6645685"><ele>603.0</ele><time>2026-05-02T11:35:38.633Z</time></trkpt><trkpt lat="42.2008372" lon="13.664487"><ele>602.0</ele><time>2026-05-02T11:35:40.633Z</time></trkpt><trkpt lat="42.2008894" lon="13.6644367"><ele>601.0</ele><time>2026-05-02T11:35:41.633Z</time></trkpt><trkpt lat="42.2009418" lon="13.6643638"><ele>600.0</ele><time>2026-05-02T11:35:42.633Z</time></trkpt><trkpt lat="42.2009979" lon="13.6642883"><ele>597.0</ele><time>2026-05-02T11:35:43.634Z</time></trkpt><trkpt lat="42.2010579" lon="13.6642198"><ele>594.0</ele><time>2026-05-02T11:35:44.633Z</time></trkpt><trkpt lat="42.2011191" lon="13.6641592"><ele>591.0</ele><time>2026-05-02T11:35:45.633Z</time></trkpt><trkpt lat="42.2012423" lon="13.6640793"><ele>588.0</ele><time>2026-05-02T11:35:47.633Z</time></trkpt><trkpt lat="42.2013147" lon="13.6640442"><ele>585.0</ele><time>2026-05-02T11:35:48.633Z</time></trkpt><trkpt lat="42.201425" lon="13.6640184"><ele>584.2</ele><time>2026-05-02T11:35:49.633Z</time></trkpt><trkpt lat="42.2015184" lon="13.6639908"><ele>583.4</ele><time>2026-05-02T11:35:50.633Z</time></trkpt><trkpt lat="42.2016179" lon="13.6639614"><ele>582.6</ele><time>2026-05-02T11:35:51.634Z</time></trkpt><trkpt lat="42.2017011" lon="13.6639309"><ele>581.8</ele><time>2026-05-02T11:35:52.633Z</time></trkpt><trkpt lat="42.2017818" lon="13.6638955"><ele>581.0</ele><time>2026-05-02T11:35:53.633Z</time></trkpt><trkpt lat="42.2018742" lon="13.6638197"><ele>581.0</ele><time>2026-05-02T11:35:55.633Z</time></trkpt><trkpt lat="42.2019459" lon="13.6637011"><ele>581.0</ele><time>2026-05-02T11:35:57.634Z</time></trkpt><trkpt lat="42.201984" lon="13.6636239"><ele>581.0</ele><time>2026-05-02T11:35:58.633Z</time></trkpt><trkpt lat="42.2020197" lon="13.6635424"><ele>581.0</ele><time>2026-05-02T11:35:59.633Z</time></trkpt><trkpt lat="42.2020597" lon="13.6634562"><ele>581.0</ele><time>2026-05-02T11:36:00.633Z</time></trkpt><trkpt lat="42.2021" lon="13.6633597"><ele>581.0</ele><time>2026-05-02T11:36:01.634Z</time></trkpt><trkpt lat="42.2021461" lon="13.6632648"><ele>579.0</ele><time>2026-05-02T11:36:02.633Z</time></trkpt><trkpt lat="42.2021794" lon="13.6631645"><ele>577.0</ele><time>2026-05-02T11:36:03.633Z</time></trkpt><trkpt lat="42.2022244" lon="13.6630744"><ele>575.0</ele><time>2026-05-02T11:36:04.633Z</time></trkpt><trkpt lat="42.2022666" lon="13.6629696"><ele>573.0</ele><time>2026-05-02T11:36:05.633Z</time></trkpt><trkpt lat="42.2023041" lon="13.6628539"><ele>571.0</ele><time>2026-05-02T11:36:06.634Z</time></trkpt><trkpt lat="42.2023361" lon="13.6627237"><ele>569.0</ele><time>2026-05-02T11:36:07.634Z</time></trkpt><trkpt lat="42.2023753" lon="13.6625827"><ele>569.0</ele><time>2026-05-02T11:36:08.633Z</time></trkpt><trkpt lat="42.2024124" lon="13.6624515"><ele>569.0</ele><time>2026-05-02T11:36:09.634Z</time></trkpt><trkpt lat="42.2024525" lon="13.6623144"><ele>569.0</ele><time>2026-05-02T11:36:10.634Z</time></trkpt><trkpt lat="42.2024908" lon="13.6621903"><ele>569.0</ele><time>2026-05-02T11:36:11.633Z</time></trkpt><trkpt lat="42.2025299" lon="13.6620556"><ele>569.0</ele><time>2026-05-02T11:36:12.634Z</time></trkpt><trkpt lat="42.2025613" lon="13.6619248"><ele>568.2</ele><time>2026-05-02T11:36:13.633Z</time></trkpt><trkpt lat="42.2025914" lon="13.6617895"><ele>567.4</ele><time>2026-05-02T11:36:14.634Z</time></trkpt><trkpt lat="42.202618" lon="13.6616658"><ele>566.6</ele><time>2026-05-02T11:36:15.633Z</time></trkpt><trkpt lat="42.2026536" lon="13.6615474"><ele>565.8</ele><time>2026-05-02T11:36:16.633Z</time></trkpt><trkpt lat="42.2026982" lon="13.6614343"><ele>565.0</ele><time>2026-05-02T11:36:17.633Z</time></trkpt><trkpt lat="42.2027437" lon="13.6613179"><ele>565.0</ele><time>2026-05-02T11:36:18.633Z</time></trkpt><trkpt lat="42.2027854" lon="13.6612019"><ele>565.0</ele><time>2026-05-02T11:36:19.633Z</time></trkpt><trkpt lat="42.202823" lon="13.6610848"><ele>565.0</ele><time>2026-05-02T11:36:20.634Z</time></trkpt><trkpt lat="42.202858" lon="13.6609642"><ele>565.0</ele><time>2026-05-02T11:36:21.633Z</time></trkpt><trkpt lat="42.2028851" lon="13.660838"><ele>565.0</ele><time>2026-05-02T11:36:22.633Z</time></trkpt><trkpt lat="42.2029115" lon="13.660726"><ele>564.3333333333334</ele><time>2026-05-02T11:36:23.634Z</time></trkpt><trkpt lat="42.2029322" lon="13.6606141"><ele>563.6666666666667</ele><time>2026-05-02T11:36:24.633Z</time></trkpt><trkpt lat="42.2029501" lon="13.6605052"><ele>563.0</ele><time>2026-05-02T11:36:25.633Z</time></trkpt><trkpt lat="42.2029646" lon="13.660393"><ele>562.3333333333334</ele><time>2026-05-02T11:36:26.633Z</time></trkpt><trkpt lat="42.2029839" lon="13.6602815"><ele>561.6666666666666</ele><time>2026-05-02T11:36:27.634Z</time></trkpt><trkpt lat="42.2030082" lon="13.6601751"><ele>561.0</ele><time>2026-05-02T11:36:28.633Z</time></trkpt><trkpt lat="42.2030377" lon="13.6600653"><ele>560.0</ele><time>2026-05-02T11:36:29.633Z</time></trkpt><trkpt lat="42.2030718" lon="13.659956"><ele>559.0</ele><time>2026-05-02T11:36:30.633Z</time></trkpt><trkpt lat="42.2031104" lon="13.6598418"><ele>558.0</ele><time>2026-05-02T11:36:31.634Z</time></trkpt><trkpt lat="42.2031515" lon="13.6597268"><ele>557.0</ele><time>2026-05-02T11:36:32.633Z</time></trkpt><trkpt lat="42.2031861" lon="13.6596126"><ele>556.0</ele><time>2026-05-02T11:36:33.634Z</time></trkpt><trkpt lat="42.2032148" lon="13.6595012"><ele>554.0</ele><time>2026-05-02T11:36:34.633Z</time></trkpt><trkpt lat="42.2032477" lon="13.6594051"><ele>552.0</ele><time>2026-05-02T11:36:35.633Z</time></trkpt><trkpt lat="42.2032814" lon="13.659309"><ele>550.0</ele><time>2026-05-02T11:36:36.633Z</time></trkpt><trkpt lat="42.2033144" lon="13.6592139"><ele>548.0</ele><time>2026-05-02T11:36:37.633Z</time></trkpt><trkpt lat="42.203353" lon="13.6591271"><ele>546.0</ele><time>2026-05-02T11:36:38.633Z</time></trkpt><trkpt lat="42.2033921" lon="13.6590466"><ele>544.0</ele><time>2026-05-02T11:36:39.634Z</time></trkpt><trkpt lat="42.2034327" lon="13.6589677"><ele>544.0</ele><time>2026-05-02T11:36:40.634Z</time></trkpt><trkpt lat="42.2034716" lon="13.6588934"><ele>544.0</ele><time>2026-05-02T11:36:41.633Z</time></trkpt><trkpt lat="42.2035152" lon="13.6588137"><ele>544.0</ele><time>2026-05-02T11:36:42.634Z</time></trkpt><trkpt lat="42.2035579" lon="13.6586935"><ele>544.0</ele><time>2026-05-02T11:36:44.633Z</time></trkpt><trkpt lat="42.2035594" lon="13.6585886"><ele>544.0</ele><time>2026-05-02T11:36:47.633Z</time></trkpt><trkpt lat="42.2034536" lon="13.6585342"><ele>544.0</ele><time>2026-05-02T11:36:49.633Z</time></trkpt><trkpt lat="42.2033611" lon="13.6584947"><ele>541.6</ele><time>2026-05-02T11:36:50.633Z</time></trkpt><trkpt lat="42.203252" lon="13.6584542"><ele>539.2</ele><time>2026-05-02T11:36:51.633Z</time></trkpt><trkpt lat="42.2031497" lon="13.6584187"><ele>536.8000000000001</ele><time>2026-05-02T11:36:52.634Z</time></trkpt><trkpt lat="42.2030453" lon="13.6583757"><ele>534.4</ele><time>2026-05-02T11:36:53.634Z</time></trkpt><trkpt lat="42.2029422" lon="13.658327"><ele>532.0</ele><time>2026-05-02T11:36:54.633Z</time></trkpt><trkpt lat="42.2028393" lon="13.6582509"><ele>531.8000000000001</ele><time>2026-05-02T11:36:55.633Z</time></trkpt><trkpt lat="42.2027477" lon="13.6581602"><ele>531.6</ele><time>2026-05-02T11:36:56.634Z</time></trkpt><trkpt lat="42.2026585" lon="13.6580679"><ele>531.4000000000001</ele><time>2026-05-02T11:36:57.634Z</time></trkpt><trkpt lat="42.2025824" lon="13.657989"><ele>531.2</ele><time>2026-05-02T11:36:58.633Z</time></trkpt><trkpt lat="42.2025062" lon="13.6579105"><ele>531.0</ele><time>2026-05-02T11:36:59.633Z</time></trkpt><trkpt lat="42.2024262" lon="13.6578213"><ele>528.4</ele><time>2026-05-02T11:37:00.633Z</time></trkpt><trkpt lat="42.2023429" lon="13.6577349"><ele>525.8</ele><time>2026-05-02T11:37:01.634Z</time></trkpt><trkpt lat="42.2022585" lon="13.6576528"><ele>523.1999999999999</ele><time>2026-05-02T11:37:02.633Z</time></trkpt><trkpt lat="42.2021696" lon="13.6575715"><ele>520.6</ele><time>2026-05-02T11:37:03.633Z</time></trkpt><trkpt lat="42.2020603" lon="13.6575119"><ele>518.0</ele><time>2026-05-02T11:37:04.633Z</time></trkpt><trkpt lat="42.2019321" lon="13.6574819"><ele>517.75</ele><time>2026-05-02T11:37:05.633Z</time></trkpt><trkpt lat="42.201797" lon="13.6574778"><ele>517.5</ele><time>2026-05-02T11:37:06.633Z</time></trkpt><trkpt lat="42.201664" lon="13.6574938"><ele>517.25</ele><time>2026-05-02T11:37:07.633Z</time></trkpt><trkpt lat="42.2015344" lon="13.6575178"><ele>517.0</ele><time>2026-05-02T11:37:08.633Z</time></trkpt><trkpt lat="42.2014002" lon="13.657546"><ele>517.75</ele><time>2026-05-02T11:37:09.633Z</time></trkpt><trkpt lat="42.2012758" lon="13.6575801"><ele>518.5</ele><time>2026-05-02T11:37:10.633Z</time></trkpt><trkpt lat="42.2011585" lon="13.6576402"><ele>519.25</ele><time>2026-05-02T11:37:11.634Z</time></trkpt><trkpt lat="42.2010623" lon="13.6577374"><ele>520.0</ele><time>2026-05-02T11:37:12.634Z</time></trkpt><trkpt lat="42.2009729" lon="13.6578405"><ele>520.0</ele><time>2026-05-02T11:37:13.633Z</time></trkpt><trkpt lat="42.2008878" lon="13.6579452"><ele>520.0</ele><time>2026-05-02T11:37:14.633Z</time></trkpt><trkpt lat="42.2008039" lon="13.6580586"><ele>520.0</ele><time>2026-05-02T11:37:15.634Z</time></trkpt><trkpt lat="42.2007007" lon="13.6581469"><ele>520.0</ele><time>2026-05-02T11:37:16.634Z</time></trkpt><trkpt lat="42.2005773" lon="13.6582129"><ele>517.0</ele><time>2026-05-02T11:37:17.634Z</time></trkpt><trkpt lat="42.2004415" lon="13.6582657"><ele>514.0</ele><time>2026-05-02T11:37:18.634Z</time></trkpt><trkpt lat="42.2003015" lon="13.6582996"><ele>511.0</ele><time>2026-05-02T11:37:19.633Z</time></trkpt><trkpt lat="42.200166" lon="13.6583312"><ele>508.0</ele><time>2026-05-02T11:37:20.633Z</time></trkpt><trkpt lat="42.200038" lon="13.6583619"><ele>508.0</ele><time>2026-05-02T11:37:21.634Z</time></trkpt><trkpt lat="42.1999158" lon="13.6583867"><ele>508.0</ele><time>2026-05-02T11:37:22.634Z</time></trkpt><trkpt lat="42.1997934" lon="13.6584098"><ele>508.0</ele><time>2026-05-02T11:37:23.633Z</time></trkpt><trkpt lat="42.1996829" lon="13.6584706"><ele>508.0</ele><time>2026-05-02T11:37:24.633Z</time></trkpt><trkpt lat="42.1995796" lon="13.6585555"><ele>508.0</ele><time>2026-05-02T11:37:25.633Z</time></trkpt><trkpt lat="42.1994776" lon="13.658645"><ele>508.0</ele><time>2026-05-02T11:37:26.633Z</time></trkpt><trkpt lat="42.1993696" lon="13.6587552"><ele>508.0</ele><time>2026-05-02T11:37:27.634Z</time></trkpt><trkpt lat="42.1992472" lon="13.6588938"><ele>508.0</ele><time>2026-05-02T11:37:28.633Z</time></trkpt><trkpt lat="42.1991185" lon="13.6590301"><ele>504.33333333333337</ele><time>2026-05-02T11:37:29.633Z</time></trkpt><trkpt lat="42.198991" lon="13.6591543"><ele>500.66666666666663</ele><time>2026-05-02T11:37:30.633Z</time></trkpt><trkpt lat="42.198853" lon="13.659246"><ele>497.0</ele><time>2026-05-02T11:37:31.633Z</time></trkpt><trkpt lat="42.1987069" lon="13.6592903"><ele>497.0</ele><time>2026-05-02T11:37:32.633Z</time></trkpt><trkpt lat="42.19856" lon="13.6592827"><ele>497.0</ele><time>2026-05-02T11:37:33.633Z</time></trkpt><trkpt lat="42.1984207" lon="13.6592455"><ele>497.0</ele><time>2026-05-02T11:37:34.633Z</time></trkpt><trkpt lat="42.1982952" lon="13.6591894"><ele>497.0</ele><time>2026-05-02T11:37:35.634Z</time></trkpt><trkpt lat="42.1982137" lon="13.6591199"><ele>496.5</ele><time>2026-05-02T11:37:36.634Z</time></trkpt><trkpt lat="42.1981584" lon="13.6590209"><ele>496.0</ele><time>2026-05-02T11:37:37.633Z</time></trkpt><trkpt lat="42.1981157" lon="13.6588876"><ele>495.5</ele><time>2026-05-02T11:37:38.633Z</time></trkpt><trkpt lat="42.1980687" lon="13.658729"><ele>495.0</ele><time>2026-05-02T11:37:39.634Z</time></trkpt><trkpt lat="42.1980036" lon="13.658558"><ele>494.0</ele><time>2026-05-02T11:37:40.634Z</time></trkpt><trkpt lat="42.1979213" lon="13.6583877"><ele>493.0</ele><time>2026-05-02T11:37:41.634Z</time></trkpt><trkpt lat="42.197825" lon="13.6582213"><ele>492.0</ele><time>2026-05-02T11:37:42.634Z</time></trkpt><trkpt lat="42.1977196" lon="13.6580539"><ele>492.0</ele><time>2026-05-02T11:37:43.633Z</time></trkpt><trkpt lat="42.1976086" lon="13.6578777"><ele>492.0</ele><time>2026-05-02T11:37:44.633Z</time></trkpt><trkpt lat="42.197501" lon="13.6577021"><ele>492.0</ele><time>2026-05-02T11:37:45.633Z</time></trkpt><trkpt lat="42.1973962" lon="13.6575369"><ele>492.66666666666663</ele><time>2026-05-02T11:37:46.633Z</time></trkpt><trkpt lat="42.1972821" lon="13.6573636"><ele>493.3333333333333</ele><time>2026-05-02T11:37:47.633Z</time></trkpt><trkpt lat="42.1971553" lon="13.6571783"><ele>494.0</ele><time>2026-05-02T11:37:48.633Z</time></trkpt><trkpt lat="42.197016" lon="13.6569683"><ele>493.5</ele><time>2026-05-02T11:37:49.633Z</time></trkpt><trkpt lat="42.1968704" lon="13.6567467"><ele>493.0</ele><time>2026-05-02T11:37:50.633Z</time></trkpt><trkpt lat="42.1967134" lon="13.6565089"><ele>493.0</ele><time>2026-05-02T11:37:51.633Z</time></trkpt><trkpt lat="42.1965424" lon="13.6562471"><ele>493.0</ele><time>2026-05-02T11:37:52.633Z</time></trkpt><trkpt lat="42.196371" lon="13.6559757"><ele>497.0</ele><time>2026-05-02T11:37:53.633Z</time></trkpt><trkpt lat="42.1962182" lon="13.6557223"><ele>501.0</ele><time>2026-05-02T11:37:54.633Z</time></trkpt><trkpt lat="42.1960739" lon="13.6554852"><ele>502.33333333333337</ele><time>2026-05-02T11:37:55.633Z</time></trkpt><trkpt lat="42.195937" lon="13.6552685"><ele>503.6666666666667</ele><time>2026-05-02T11:37:56.634Z</time></trkpt><trkpt lat="42.1958146" lon="13.6550656"><ele>505.0</ele><time>2026-05-02T11:37:57.633Z</time></trkpt><trkpt lat="42.1957224" lon="13.6548701"><ele>508.25</ele><time>2026-05-02T11:37:58.633Z</time></trkpt><trkpt lat="42.1956615" lon="13.6546822"><ele>511.5</ele><time>2026-05-02T11:37:59.633Z</time></trkpt><trkpt lat="42.1956233" lon="13.6544962"><ele>514.75</ele><time>2026-05-02T11:38:00.633Z</time></trkpt><trkpt lat="42.1956059" lon="13.6542999"><ele>518.0</ele><time>2026-05-02T11:38:01.634Z</time></trkpt><trkpt lat="42.19562" lon="13.6540915"><ele>519.0</ele><time>2026-05-02T11:38:02.633Z</time></trkpt><trkpt lat="42.1956471" lon="13.6538667"><ele>520.0</ele><time>2026-05-02T11:38:03.633Z</time></trkpt><trkpt lat="42.1956809" lon="13.6536251"><ele>521.0</ele><time>2026-05-02T11:38:04.633Z</time></trkpt><trkpt lat="42.1957259" lon="13.6533695"><ele>521.0</ele><time>2026-05-02T11:38:05.634Z</time></trkpt><trkpt lat="42.1957722" lon="13.6530983"><ele>521.0</ele><time>2026-05-02T11:38:06.634Z</time></trkpt><trkpt lat="42.1958193" lon="13.65281"><ele>521.0</ele><time>2026-05-02T11:38:07.634Z</time></trkpt><trkpt lat="42.1958674" lon="13.6525094"><ele>523.5</ele><time>2026-05-02T11:38:08.633Z</time></trkpt><trkpt lat="42.195922" lon="13.6522002"><ele>526.0</ele><time>2026-05-02T11:38:09.634Z</time></trkpt><trkpt lat="42.1959813" lon="13.6518826"><ele>528.5</ele><time>2026-05-02T11:38:10.633Z</time></trkpt><trkpt lat="42.1960424" lon="13.6515612"><ele>531.0</ele><time>2026-05-02T11:38:11.633Z</time></trkpt><trkpt lat="42.1961007" lon="13.6512356"><ele>533.0</ele><time>2026-05-02T11:38:12.633Z</time></trkpt><trkpt lat="42.196153" lon="13.6509118"><ele>535.0</ele><time>2026-05-02T11:38:13.633Z</time></trkpt><trkpt lat="42.1962051" lon="13.6505782"><ele>538.5</ele><time>2026-05-02T11:38:14.634Z</time></trkpt><trkpt lat="42.1962577" lon="13.6502502"><ele>542.0</ele><time>2026-05-02T11:38:15.633Z</time></trkpt><trkpt lat="42.1963086" lon="13.6499511"><ele>542.0</ele><time>2026-05-02T11:38:16.633Z</time></trkpt><trkpt lat="42.196356" lon="13.6496611"><ele>542.0</ele><time>2026-05-02T11:38:17.633Z</time></trkpt><trkpt lat="42.1963973" lon="13.649396"><ele>542.0</ele><time>2026-05-02T11:38:18.633Z</time></trkpt><trkpt lat="42.1964384" lon="13.6491511"><ele>542.6666666666666</ele><time>2026-05-02T11:38:19.633Z</time></trkpt><trkpt lat="42.1964796" lon="13.6489257"><ele>543.3333333333334</ele><time>2026-05-02T11:38:20.633Z</time></trkpt><trkpt lat="42.1965192" lon="13.6487174"><ele>544.0</ele><time>2026-05-02T11:38:21.634Z</time></trkpt><trkpt lat="42.1965607" lon="13.6485257"><ele>544.6</ele><time>2026-05-02T11:38:22.634Z</time></trkpt><trkpt lat="42.1965988" lon="13.6483484"><ele>545.2</ele><time>2026-05-02T11:38:23.633Z</time></trkpt><trkpt lat="42.196619" lon="13.6481945"><ele>545.8000000000001</ele><time>2026-05-02T11:38:24.633Z</time></trkpt><trkpt lat="42.1966103" lon="13.6480964"><ele>546.4</ele><time>2026-05-02T11:38:25.634Z</time></trkpt><trkpt lat="42.1965791" lon="13.6480134"><ele>547.0</ele><time>2026-05-02T11:38:26.633Z</time></trkpt><trkpt lat="42.196486" lon="13.6479402"><ele>549.2</ele><time>2026-05-02T11:38:28.634Z</time></trkpt><trkpt lat="42.1963875" lon="13.6479322"><ele>551.4000000000001</ele><time>2026-05-02T11:38:30.634Z</time></trkpt><trkpt lat="42.196319" lon="13.6479736"><ele>553.5999999999999</ele><time>2026-05-02T11:38:31.634Z</time></trkpt><trkpt lat="42.196238" lon="13.6480655"><ele>555.8</ele><time>2026-05-02T11:38:32.633Z</time></trkpt><trkpt lat="42.1961378" lon="13.6481862"><ele>558.0</ele><time>2026-05-02T11:38:33.633Z</time></trkpt><trkpt lat="42.1960159" lon="13.6483083"><ele>558.0</ele><time>2026-05-02T11:38:34.633Z</time></trkpt><trkpt lat="42.1958855" lon="13.6484226"><ele>558.0</ele><time>2026-05-02T11:38:35.633Z</time></trkpt><trkpt lat="42.1957278" lon="13.6485372"><ele>558.0</ele><time>2026-05-02T11:38:36.634Z</time></trkpt><trkpt lat="42.1955645" lon="13.6486373"><ele>561.6666666666666</ele><time>2026-05-02T11:38:37.633Z</time></trkpt><trkpt lat="42.1954127" lon="13.6487469"><ele>565.3333333333333</ele><time>2026-05-02T11:38:38.633Z</time></trkpt><trkpt lat="42.1952835" lon="13.6488828"><ele>569.0</ele><time>2026-05-02T11:38:39.633Z</time></trkpt><trkpt lat="42.1951622" lon="13.6490651"><ele>569.0</ele><time>2026-05-02T11:38:40.633Z</time></trkpt><trkpt lat="42.1950526" lon="13.6492739"><ele>569.0</ele><time>2026-05-02T11:38:41.634Z</time></trkpt><trkpt lat="42.1949555" lon="13.6494887"><ele>569.0</ele><time>2026-05-02T11:38:42.633Z</time></trkpt><trkpt lat="42.1948532" lon="13.6496974"><ele>574.3333333333333</ele><time>2026-05-02T11:38:43.634Z</time></trkpt><trkpt lat="42.1947361" lon="13.6498806"><ele>579.6666666666666</ele><time>2026-05-02T11:38:44.633Z</time></trkpt><trkpt lat="42.1945966" lon="13.6500446"><ele>585.0</ele><time>2026-05-02T11:38:45.634Z</time></trkpt><trkpt lat="42.1944358" lon="13.6501923"><ele>587.3333333333334</ele><time>2026-05-02T11:38:46.634Z</time></trkpt><trkpt lat="42.1942607" lon="13.6503236"><ele>589.6666666666667</ele><time>2026-05-02T11:38:47.634Z</time></trkpt><trkpt lat="42.1940829" lon="13.6504467"><ele>592.0</ele><time>2026-05-02T11:38:48.633Z</time></trkpt><trkpt lat="42.1939083" lon="13.6505777"><ele>592.0</ele><time>2026-05-02T11:38:49.633Z</time></trkpt><trkpt lat="42.1937467" lon="13.6507185"><ele>592.0</ele><time>2026-05-02T11:38:50.633Z</time></trkpt><trkpt lat="42.1935976" lon="13.6508784"><ele>592.0</ele><time>2026-05-02T11:38:51.633Z</time></trkpt><trkpt lat="42.1934699" lon="13.6510516"><ele>589.25</ele><time>2026-05-02T11:38:52.633Z</time></trkpt><trkpt lat="42.1933731" lon="13.6512327"><ele>586.5</ele><time>2026-05-02T11:38:53.633Z</time></trkpt><trkpt lat="42.1933014" lon="13.6514118"><ele>583.75</ele><time>2026-05-02T11:38:54.633Z</time></trkpt><trkpt lat="42.1932644" lon="13.6515797"><ele>581.0</ele><time>2026-05-02T11:38:55.633Z</time></trkpt><trkpt lat="42.1932614" lon="13.6517503"><ele>581.0</ele><time>2026-05-02T11:38:56.634Z</time></trkpt><trkpt lat="42.1932893" lon="13.6519313"><ele>581.0</ele><time>2026-05-02T11:38:57.633Z</time></trkpt><trkpt lat="42.1933194" lon="13.6521207"><ele>581.0</ele><time>2026-05-02T11:38:58.634Z</time></trkpt><trkpt lat="42.1933297" lon="13.6523107"><ele>581.0</ele><time>2026-05-02T11:38:59.633Z</time></trkpt><trkpt lat="42.1933215" lon="13.6525166"><ele>581.25</ele><time>2026-05-02T11:39:00.633Z</time></trkpt><trkpt lat="42.1932987" lon="13.6527258"><ele>581.5</ele><time>2026-05-02T11:39:01.633Z</time></trkpt><trkpt lat="42.1932667" lon="13.6529116"><ele>581.75</ele><time>2026-05-02T11:39:02.634Z</time></trkpt><trkpt lat="42.1932192" lon="13.653066"><ele>582.0</ele><time>2026-05-02T11:39:03.633Z</time></trkpt><trkpt lat="42.1931655" lon="13.6531538"><ele>584.2</ele><time>2026-05-02T11:39:04.633Z</time></trkpt><trkpt lat="42.193096" lon="13.653191"><ele>586.4000000000001</ele><time>2026-05-02T11:39:05.633Z</time></trkpt><trkpt lat="42.1930324" lon="13.6531668"><ele>588.5999999999999</ele><time>2026-05-02T11:39:06.633Z</time></trkpt><trkpt lat="42.1929811" lon="13.6529989"><ele>590.8</ele><time>2026-05-02T11:39:08.633Z</time></trkpt><trkpt lat="42.1929966" lon="13.6528792"><ele>593.0</ele><time>2026-05-02T11:39:09.633Z</time></trkpt><trkpt lat="42.1930292" lon="13.6527378"><ele>597.0</ele><time>2026-05-02T11:39:10.633Z</time></trkpt><trkpt lat="42.19306" lon="13.6525848"><ele>601.0</ele><time>2026-05-02T11:39:11.634Z</time></trkpt><trkpt lat="42.1930779" lon="13.6524339"><ele>605.0</ele><time>2026-05-02T11:39:12.633Z</time></trkpt><trkpt lat="42.1930797" lon="13.6522978"><ele>609.0</ele><time>2026-05-02T11:39:13.634Z</time></trkpt><trkpt lat="42.1930439" lon="13.6521866"><ele>613.0</ele><time>2026-05-02T11:39:14.634Z</time></trkpt><trkpt lat="42.1929886" lon="13.6521301"><ele>613.0</ele><time>2026-05-02T11:39:15.633Z</time></trkpt><trkpt lat="42.1928762" lon="13.6521828"><ele>613.0</ele><time>2026-05-02T11:39:17.634Z</time></trkpt><trkpt lat="42.1928501" lon="13.6522793"><ele>613.0</ele><time>2026-05-02T11:39:18.633Z</time></trkpt><trkpt lat="42.1928354" lon="13.6524119"><ele>613.0</ele><time>2026-05-02T11:39:19.633Z</time></trkpt><trkpt lat="42.1928053" lon="13.6525561"><ele>613.0</ele><time>2026-05-02T11:39:20.633Z</time></trkpt><trkpt lat="42.1927403" lon="13.6526866"><ele>613.0</ele><time>2026-05-02T11:39:21.633Z</time></trkpt><trkpt lat="42.1926485" lon="13.6528011"><ele>613.0</ele><time>2026-05-02T11:39:22.633Z</time></trkpt><trkpt lat="42.1925446" lon="13.6528726"><ele>613.0</ele><time>2026-05-02T11:39:23.633Z</time></trkpt><trkpt lat="42.1924469" lon="13.652886"><ele>613.0</ele><time>2026-05-02T11:39:24.634Z</time></trkpt><trkpt lat="42.1923853" lon="13.6528485"><ele>613.0</ele><time>2026-05-02T11:39:25.633Z</time></trkpt><trkpt lat="42.1923842" lon="13.6527222"><ele>613.0</ele><time>2026-05-02T11:39:27.634Z</time></trkpt><trkpt lat="42.1924459" lon="13.6526512"><ele>613.0</ele><time>2026-05-02T11:39:28.633Z</time></trkpt><trkpt lat="42.1925422" lon="13.6525788"><ele>613.0</ele><time>2026-05-02T11:39:29.634Z</time></trkpt><trkpt lat="42.1926158" lon="13.6525051"><ele>613.0</ele><time>2026-05-02T11:39:30.634Z</time></trkpt><trkpt lat="42.192663" lon="13.6524175"><ele>613.0</ele><time>2026-05-02T11:39:31.633Z</time></trkpt><trkpt lat="42.1926738" lon="13.6523098"><ele>613.0</ele><time>2026-05-02T11:39:32.633Z</time></trkpt><trkpt lat="42.1926382" lon="13.6522177"><ele>613.0</ele><time>2026-05-02T11:39:33.633Z</time></trkpt><trkpt lat="42.1925736" lon="13.6521787"><ele>613.0</ele><time>2026-05-02T11:39:34.633Z</time></trkpt><trkpt lat="42.1925001" lon="13.6521895"><ele>613.0</ele><time>2026-05-02T11:39:35.634Z</time></trkpt><trkpt lat="42.1924372" lon="13.6522357"><ele>613.0</ele><time>2026-05-02T11:39:36.633Z</time></trkpt><trkpt lat="42.1923888" lon="13.6522922"><ele>613.0</ele><time>2026-05-02T11:39:37.633Z</time></trkpt><trkpt lat="42.1923286" lon="13.6523695"><ele>613.0</ele><time>2026-05-02T11:39:38.633Z</time></trkpt><trkpt lat="42.1922548" lon="13.6524594"><ele>616.5</ele><time>2026-05-02T11:39:39.633Z</time></trkpt><trkpt lat="42.1921698" lon="13.6525429"><ele>620.0</ele><time>2026-05-02T11:39:40.634Z</time></trkpt><trkpt lat="42.1920719" lon="13.6526174"><ele>623.5</ele><time>2026-05-02T11:39:41.634Z</time></trkpt><trkpt lat="42.1919624" lon="13.6526782"><ele>627.0</ele><time>2026-05-02T11:39:42.633Z</time></trkpt><trkpt lat="42.1918327" lon="13.6527197"><ele>627.0</ele><time>2026-05-02T11:39:43.633Z</time></trkpt><trkpt lat="42.1916914" lon="13.6527446"><ele>627.0</ele><time>2026-05-02T11:39:44.633Z</time></trkpt><trkpt lat="42.1915572" lon="13.6527614"><ele>627.0</ele><time>2026-05-02T11:39:45.633Z</time></trkpt><trkpt lat="42.1914225" lon="13.6528033"><ele>627.0</ele><time>2026-05-02T11:39:46.634Z</time></trkpt><trkpt lat="42.191277" lon="13.6528879"><ele>628.0</ele><time>2026-05-02T11:39:47.633Z</time></trkpt><trkpt lat="42.1911386" lon="13.6530062"><ele>629.0</ele><time>2026-05-02T11:39:48.633Z</time></trkpt><trkpt lat="42.1910119" lon="13.6531426"><ele>630.0</ele><time>2026-05-02T11:39:49.634Z</time></trkpt><trkpt lat="42.190867" lon="13.6532668"><ele>630.0</ele><time>2026-05-02T11:39:50.633Z</time></trkpt><trkpt lat="42.1907056" lon="13.653369"><ele>630.0</ele><time>2026-05-02T11:39:51.633Z</time></trkpt><trkpt lat="42.1905291" lon="13.6534675"><ele>630.0</ele><time>2026-05-02T11:39:52.633Z</time></trkpt><trkpt lat="42.1903383" lon="13.6535603"><ele>632.3333333333334</ele><time>2026-05-02T11:39:53.633Z</time></trkpt><trkpt lat="42.1901534" lon="13.6536302"><ele>634.6666666666667</ele><time>2026-05-02T11:39:54.634Z</time></trkpt><trkpt lat="42.1899849" lon="13.6536961"><ele>637.0</ele><time>2026-05-02T11:39:55.633Z</time></trkpt><trkpt lat="42.1898517" lon="13.6537727"><ele>640.0</ele><time>2026-05-02T11:39:56.634Z</time></trkpt><trkpt lat="42.1897692" lon="13.6538355"><ele>643.0</ele><time>2026-05-02T11:39:57.633Z</time></trkpt><trkpt lat="42.1897193" lon="13.6539223"><ele>646.0</ele><time>2026-05-02T11:39:58.634Z</time></trkpt><trkpt lat="42.189702" lon="13.6540355"><ele>649.0</ele><time>2026-05-02T11:39:59.633Z</time></trkpt><trkpt lat="42.1897223" lon="13.6541766"><ele>652.0</ele><time>2026-05-02T11:40:00.633Z</time></trkpt><trkpt lat="42.1897698" lon="13.6543312"><ele>652.25</ele><time>2026-05-02T11:40:01.633Z</time></trkpt><trkpt lat="42.1898336" lon="13.6544918"><ele>652.5</ele><time>2026-05-02T11:40:02.633Z</time></trkpt><trkpt lat="42.1898934" lon="13.6546609"><ele>652.75</ele><time>2026-05-02T11:40:03.633Z</time></trkpt><trkpt lat="42.1899499" lon="13.6548133"><ele>653.0</ele><time>2026-05-02T11:40:04.633Z</time></trkpt><trkpt lat="42.1899856" lon="13.6549508"><ele>652.8</ele><time>2026-05-02T11:40:05.634Z</time></trkpt><trkpt lat="42.1899867" lon="13.655062"><ele>652.5999999999999</ele><time>2026-05-02T11:40:06.634Z</time></trkpt><trkpt lat="42.1899548" lon="13.6551613"><ele>652.4000000000001</ele><time>2026-05-02T11:40:07.633Z</time></trkpt><trkpt lat="42.1898917" lon="13.6552399"><ele>652.2</ele><time>2026-05-02T11:40:08.633Z</time></trkpt><trkpt lat="42.1898035" lon="13.6552931"><ele>652.0</ele><time>2026-05-02T11:40:09.633Z</time></trkpt><trkpt lat="42.1896958" lon="13.6553468"><ele>652.0</ele><time>2026-05-02T11:40:10.634Z</time></trkpt><trkpt lat="42.1895684" lon="13.6554159"><ele>652.0</ele><time>2026-05-02T11:40:11.633Z</time></trkpt><trkpt lat="42.1894315" lon="13.6554981"><ele>652.0</ele><time>2026-05-02T11:40:12.633Z</time></trkpt><trkpt lat="42.1892809" lon="13.6555822"><ele>652.0</ele><time>2026-05-02T11:40:13.633Z</time></trkpt><trkpt lat="42.1891191" lon="13.655661"><ele>652.0</ele><time>2026-05-02T11:40:14.633Z</time></trkpt><trkpt lat="42.1889447" lon="13.6557373"><ele>652.0</ele><time>2026-05-02T11:40:15.633Z</time></trkpt><trkpt lat="42.1887646" lon="13.6558102"><ele>654.3333333333334</ele><time>2026-05-02T11:40:16.633Z</time></trkpt><trkpt lat="42.1885906" lon="13.655876"><ele>656.6666666666666</ele><time>2026-05-02T11:40:17.633Z</time></trkpt><trkpt lat="42.1884304" lon="13.6559395"><ele>659.0</ele><time>2026-05-02T11:40:18.633Z</time></trkpt><trkpt lat="42.1882938" lon="13.6560046"><ele>659.0</ele><time>2026-05-02T11:40:19.633Z</time></trkpt><trkpt lat="42.1882161" lon="13.6560638"><ele>659.0</ele><time>2026-05-02T11:40:20.633Z</time></trkpt><trkpt lat="42.1881771" lon="13.6561328"><ele>659.0</ele><time>2026-05-02T11:40:21.634Z</time></trkpt><trkpt lat="42.1881966" lon="13.6562927"><ele>659.0</ele><time>2026-05-02T11:40:23.633Z</time></trkpt><trkpt lat="42.1882564" lon="13.656341"><ele>659.0</ele><time>2026-05-02T11:40:24.633Z</time></trkpt><trkpt lat="42.1883452" lon="13.656359"><ele>659.0</ele><time>2026-05-02T11:40:25.633Z</time></trkpt><trkpt lat="42.1884563" lon="13.6563519"><ele>659.25</ele><time>2026-05-02T11:40:26.633Z</time></trkpt><trkpt lat="42.1885875" lon="13.6563308"><ele>659.5</ele><time>2026-05-02T11:40:27.633Z</time></trkpt><trkpt lat="42.1887343" lon="13.656326"><ele>659.75</ele><time>2026-05-02T11:40:28.633Z</time></trkpt><trkpt lat="42.1888878" lon="13.656319"><ele>660.0</ele><time>2026-05-02T11:40:29.633Z</time></trkpt><trkpt lat="42.1890416" lon="13.6562963"><ele>660.0</ele><time>2026-05-02T11:40:30.633Z</time></trkpt><trkpt lat="42.1891805" lon="13.6562748"><ele>660.0</ele><time>2026-05-02T11:40:31.633Z</time></trkpt><trkpt lat="42.1893079" lon="13.6562659"><ele>660.0</ele><time>2026-05-02T11:40:32.633Z</time></trkpt><trkpt lat="42.1894036" lon="13.6562752"><ele>660.0</ele><time>2026-05-02T11:40:33.633Z</time></trkpt><trkpt lat="42.1894735" lon="13.6563243"><ele>660.0</ele><time>2026-05-02T11:40:34.633Z</time></trkpt><trkpt lat="42.189507" lon="13.6563986"><ele>660.0</ele><time>2026-05-02T11:40:35.633Z</time></trkpt><trkpt lat="42.1894546" lon="13.6565203"><ele>660.0</ele><time>2026-05-02T11:40:37.633Z</time></trkpt><trkpt lat="42.1893891" lon="13.6565375"><ele>660.0</ele><time>2026-05-02T11:40:38.633Z</time></trkpt><trkpt lat="42.1893096" lon="13.6565377"><ele>660.0</ele><time>2026-05-02T11:40:39.633Z</time></trkpt><trkpt lat="42.1892179" lon="13.6565313"><ele>660.0</ele><time>2026-05-02T11:40:40.633Z</time></trkpt><trkpt lat="42.1891142" lon="13.6565305"><ele>660.0</ele><time>2026-05-02T11:40:41.633Z</time></trkpt><trkpt lat="42.1890016" lon="13.6565375"><ele>661.25</ele><time>2026-05-02T11:40:42.633Z</time></trkpt><trkpt lat="42.1888772" lon="13.6565426"><ele>662.5</ele><time>2026-05-02T11:40:43.634Z</time></trkpt><trkpt lat="42.1887488" lon="13.6565377"><ele>663.75</ele><time>2026-05-02T11:40:44.634Z</time></trkpt><trkpt lat="42.1886162" lon="13.6565341"><ele>665.0</ele><time>2026-05-02T11:40:45.634Z</time></trkpt><trkpt lat="42.1884763" lon="13.6565382"><ele>665.0</ele><time>2026-05-02T11:40:46.633Z</time></trkpt><trkpt lat="42.1883331" lon="13.6565511"><ele>665.0</ele><time>2026-05-02T11:40:47.634Z</time></trkpt><trkpt lat="42.1881851" lon="13.6565669"><ele>665.0</ele><time>2026-05-02T11:40:48.634Z</time></trkpt><trkpt lat="42.1880344" lon="13.6565844"><ele>665.0</ele><time>2026-05-02T11:40:49.633Z</time></trkpt><trkpt lat="42.1878829" lon="13.6566071"><ele>666.3333333333333</ele><time>2026-05-02T11:40:50.633Z</time></trkpt><trkpt lat="42.1877322" lon="13.6566365"><ele>667.6666666666666</ele><time>2026-05-02T11:40:51.633Z</time></trkpt><trkpt lat="42.1875794" lon="13.6566747"><ele>669.0</ele><time>2026-05-02T11:40:52.633Z</time></trkpt><trkpt lat="42.1874268" lon="13.6567137"><ele>671.3333333333334</ele><time>2026-05-02T11:40:53.633Z</time></trkpt><trkpt lat="42.1872735" lon="13.656752"><ele>673.6666666666667</ele><time>2026-05-02T11:40:54.633Z</time></trkpt><trkpt lat="42.1871184" lon="13.6567907"><ele>676.0</ele><time>2026-05-02T11:40:55.633Z</time></trkpt><trkpt lat="42.1869648" lon="13.6568314"><ele>676.0</ele><time>2026-05-02T11:40:56.633Z</time></trkpt><trkpt lat="42.1868067" lon="13.6568748"><ele>676.0</ele><time>2026-05-02T11:40:57.633Z</time></trkpt><trkpt lat="42.1866439" lon="13.6569215"><ele>676.0</ele><time>2026-05-02T11:40:58.634Z</time></trkpt><trkpt lat="42.1864746" lon="13.6569639"><ele>682.6666666666667</ele><time>2026-05-02T11:40:59.633Z</time></trkpt><trkpt lat="42.1862995" lon="13.6570041"><ele>689.3333333333334</ele><time>2026-05-02T11:41:00.633Z</time></trkpt><trkpt lat="42.1861203" lon="13.6570463"><ele>696.0</ele><time>2026-05-02T11:41:01.633Z</time></trkpt><trkpt lat="42.1859409" lon="13.6570913"><ele>696.0</ele><time>2026-05-02T11:41:02.634Z</time></trkpt><trkpt lat="42.1857609" lon="13.6571371"><ele>696.0</ele><time>2026-05-02T11:41:03.634Z</time></trkpt><trkpt lat="42.1855835" lon="13.6571819"><ele>696.0</ele><time>2026-05-02T11:41:04.633Z</time></trkpt><trkpt lat="42.18541" lon="13.6572374"><ele>694.0</ele><time>2026-05-02T11:41:05.634Z</time></trkpt><trkpt lat="42.1852437" lon="13.6573303"><ele>692.0</ele><time>2026-05-02T11:41:06.634Z</time></trkpt><trkpt lat="42.1850767" lon="13.6574647"><ele>690.0</ele><time>2026-05-02T11:41:07.633Z</time></trkpt><trkpt lat="42.1849144" lon="13.6576295"><ele>688.6666666666666</ele><time>2026-05-02T11:41:08.634Z</time></trkpt><trkpt lat="42.1847543" lon="13.6577964"><ele>687.3333333333333</ele><time>2026-05-02T11:41:09.634Z</time></trkpt><trkpt lat="42.1846174" lon="13.6579554"><ele>686.0</ele><time>2026-05-02T11:41:10.633Z</time></trkpt><trkpt lat="42.1844833" lon="13.6581022"><ele>686.0</ele><time>2026-05-02T11:41:11.633Z</time></trkpt><trkpt lat="42.1843437" lon="13.6582455"><ele>686.0</ele><time>2026-05-02T11:41:12.634Z</time></trkpt><trkpt lat="42.1841986" lon="13.658379"><ele>686.0</ele><time>2026-05-02T11:41:13.633Z</time></trkpt><trkpt lat="42.1840365" lon="13.658506"><ele>684.3333333333333</ele><time>2026-05-02T11:41:14.633Z</time></trkpt><trkpt lat="42.1838607" lon="13.6586242"><ele>682.6666666666666</ele><time>2026-05-02T11:41:15.633Z</time></trkpt><trkpt lat="42.1836756" lon="13.6587342"><ele>681.0</ele><time>2026-05-02T11:41:16.634Z</time></trkpt><trkpt lat="42.1834833" lon="13.6588384"><ele>681.0</ele><time>2026-05-02T11:41:17.633Z</time></trkpt><trkpt lat="42.1832785" lon="13.6589484"><ele>681.0</ele><time>2026-05-02T11:41:18.633Z</time></trkpt><trkpt lat="42.1830706" lon="13.6590603"><ele>681.0</ele><time>2026-05-02T11:41:19.633Z</time></trkpt><trkpt lat="42.182859" lon="13.6591735"><ele>684.5</ele><time>2026-05-02T11:41:20.633Z</time></trkpt><trkpt lat="42.1826457" lon="13.6592881"><ele>688.0</ele><time>2026-05-02T11:41:21.634Z</time></trkpt><trkpt lat="42.1824347" lon="13.6594082"><ele>686.5</ele><time>2026-05-02T11:41:22.633Z</time></trkpt><trkpt lat="42.1822282" lon="13.6595439"><ele>685.0</ele><time>2026-05-02T11:41:23.633Z</time></trkpt><trkpt lat="42.1820308" lon="13.6597093"><ele>685.0</ele><time>2026-05-02T11:41:24.633Z</time></trkpt><trkpt lat="42.181844" lon="13.6598943"><ele>685.0</ele><time>2026-05-02T11:41:25.634Z</time></trkpt><trkpt lat="42.1816618" lon="13.6600909"><ele>687.0</ele><time>2026-05-02T11:41:26.633Z</time></trkpt><trkpt lat="42.1814858" lon="13.6602934"><ele>689.0</ele><time>2026-05-02T11:41:27.633Z</time></trkpt><trkpt lat="42.1813159" lon="13.6605019"><ele>689.0</ele><time>2026-05-02T11:41:28.633Z</time></trkpt><trkpt lat="42.1811555" lon="13.6607137"><ele>689.0</ele><time>2026-05-02T11:41:29.634Z</time></trkpt><trkpt lat="42.181005" lon="13.6609262"><ele>689.0</ele><time>2026-05-02T11:41:30.633Z</time></trkpt><trkpt lat="42.1808628" lon="13.6611279"><ele>689.3333333333333</ele><time>2026-05-02T11:41:31.633Z</time></trkpt><trkpt lat="42.1807286" lon="13.6613176"><ele>689.6666666666666</ele><time>2026-05-02T11:41:32.633Z</time></trkpt><trkpt lat="42.1805885" lon="13.6614887"><ele>690.0</ele><time>2026-05-02T11:41:33.633Z</time></trkpt><trkpt lat="42.1804341" lon="13.6616426"><ele>690.0</ele><time>2026-05-02T11:41:34.633Z</time></trkpt><trkpt lat="42.1802729" lon="13.6617985"><ele>690.0</ele><time>2026-05-02T11:41:35.634Z</time></trkpt><trkpt lat="42.18011" lon="13.6619612"><ele>690.0</ele><time>2026-05-02T11:41:36.633Z</time></trkpt><trkpt lat="42.1799494" lon="13.6621329"><ele>688.6666666666666</ele><time>2026-05-02T11:41:37.633Z</time></trkpt><trkpt lat="42.1797922" lon="13.6623192"><ele>687.3333333333333</ele><time>2026-05-02T11:41:38.633Z</time></trkpt><trkpt lat="42.1796378" lon="13.6625145"><ele>686.0</ele><time>2026-05-02T11:41:39.633Z</time></trkpt><trkpt lat="42.1794861" lon="13.6627153"><ele>686.3333333333333</ele><time>2026-05-02T11:41:40.634Z</time></trkpt><trkpt lat="42.1793403" lon="13.6629168"><ele>686.6666666666666</ele><time>2026-05-02T11:41:41.634Z</time></trkpt><trkpt lat="42.1791972" lon="13.6631171"><ele>687.0</ele><time>2026-05-02T11:41:42.633Z</time></trkpt><trkpt lat="42.1790537" lon="13.6633131"><ele>688.6666666666666</ele><time>2026-05-02T11:41:43.633Z</time></trkpt><trkpt lat="42.1789059" lon="13.6635028"><ele>690.3333333333333</ele><time>2026-05-02T11:41:44.633Z</time></trkpt><trkpt lat="42.1787544" lon="13.6636841"><ele>692.0</ele><time>2026-05-02T11:41:45.633Z</time></trkpt><trkpt lat="42.1785905" lon="13.6638527"><ele>692.6666666666666</ele><time>2026-05-02T11:41:46.633Z</time></trkpt><trkpt lat="42.1784139" lon="13.6640075"><ele>693.3333333333334</ele><time>2026-05-02T11:41:47.634Z</time></trkpt><trkpt lat="42.1782278" lon="13.664148"><ele>694.0</ele><time>2026-05-02T11:41:48.633Z</time></trkpt><trkpt lat="42.1780371" lon="13.6642847"><ele>695.3333333333334</ele><time>2026-05-02T11:41:49.633Z</time></trkpt><trkpt lat="42.1778523" lon="13.6644236"><ele>696.6666666666666</ele><time>2026-05-02T11:41:50.633Z</time></trkpt><trkpt lat="42.1776757" lon="13.6645616"><ele>698.0</ele><time>2026-05-02T11:41:51.633Z</time></trkpt><trkpt lat="42.177507" lon="13.6647055"><ele>699.3333333333333</ele><time>2026-05-02T11:41:52.633Z</time></trkpt><trkpt lat="42.1773532" lon="13.6648656"><ele>700.6666666666666</ele><time>2026-05-02T11:41:53.634Z</time></trkpt><trkpt lat="42.1772177" lon="13.6650372"><ele>702.0</ele><time>2026-05-02T11:41:54.633Z</time></trkpt><trkpt lat="42.1770922" lon="13.6652134"><ele>706.0</ele><time>2026-05-02T11:41:55.633Z</time></trkpt><trkpt lat="42.1769655" lon="13.6653791"><ele>710.0</ele><time>2026-05-02T11:41:56.633Z</time></trkpt><trkpt lat="42.1768361" lon="13.6655322"><ele>714.0</ele><time>2026-05-02T11:41:57.633Z</time></trkpt><trkpt lat="42.1767065" lon="13.6656752"><ele>714.0</ele><time>2026-05-02T11:41:58.633Z</time></trkpt><trkpt lat="42.1765893" lon="13.665808"><ele>714.0</ele><time>2026-05-02T11:41:59.633Z</time></trkpt><trkpt lat="42.1764811" lon="13.6659273"><ele>714.0</ele><time>2026-05-02T11:42:00.633Z</time></trkpt><trkpt lat="42.1763746" lon="13.666019"><ele>714.0</ele><time>2026-05-02T11:42:01.634Z</time></trkpt><trkpt lat="42.1762768" lon="13.6660676"><ele>716.6</ele><time>2026-05-02T11:42:02.633Z</time></trkpt><trkpt lat="42.1761844" lon="13.6660832"><ele>719.2</ele><time>2026-05-02T11:42:03.633Z</time></trkpt><trkpt lat="42.176082" lon="13.6660632"><ele>721.8000000000001</ele><time>2026-05-02T11:42:04.633Z</time></trkpt><trkpt lat="42.1759722" lon="13.6660288"><ele>724.4000000000001</ele><time>2026-05-02T11:42:05.633Z</time></trkpt><trkpt lat="42.175851" lon="13.6659899"><ele>727.0</ele><time>2026-05-02T11:42:06.633Z</time></trkpt><trkpt lat="42.1757266" lon="13.6659518"><ele>729.25</ele><time>2026-05-02T11:42:07.634Z</time></trkpt><trkpt lat="42.1756062" lon="13.6659102"><ele>731.5</ele><time>2026-05-02T11:42:08.634Z</time></trkpt><trkpt lat="42.1754854" lon="13.6658509"><ele>733.75</ele><time>2026-05-02T11:42:09.633Z</time></trkpt><trkpt lat="42.175362" lon="13.6657748"><ele>736.0</ele><time>2026-05-02T11:42:10.633Z</time></trkpt><trkpt lat="42.1752307" lon="13.6656896"><ele>736.0</ele><time>2026-05-02T11:42:11.634Z</time></trkpt><trkpt lat="42.1750918" lon="13.6655987"><ele>736.0</ele><time>2026-05-02T11:42:12.633Z</time></trkpt><trkpt lat="42.1749451" lon="13.6655047"><ele>736.0</ele><time>2026-05-02T11:42:13.633Z</time></trkpt><trkpt lat="42.1747938" lon="13.6654052"><ele>739.0</ele><time>2026-05-02T11:42:14.634Z</time></trkpt><trkpt lat="42.1746374" lon="13.6652984"><ele>742.0</ele><time>2026-05-02T11:42:15.634Z</time></trkpt><trkpt lat="42.1744761" lon="13.6651901"><ele>745.0</ele><time>2026-05-02T11:42:16.633Z</time></trkpt><trkpt lat="42.1743128" lon="13.6650823"><ele>746.3333333333334</ele><time>2026-05-02T11:42:17.633Z</time></trkpt><trkpt lat="42.1741583" lon="13.6649784"><ele>747.6666666666666</ele><time>2026-05-02T11:42:18.633Z</time></trkpt><trkpt lat="42.1740099" lon="13.6648773"><ele>749.0</ele><time>2026-05-02T11:42:19.633Z</time></trkpt><trkpt lat="42.1738692" lon="13.664782"><ele>752.75</ele><time>2026-05-02T11:42:20.633Z</time></trkpt><trkpt lat="42.1737363" lon="13.6646918"><ele>756.5</ele><time>2026-05-02T11:42:21.634Z</time></trkpt><trkpt lat="42.1736082" lon="13.6646098"><ele>760.25</ele><time>2026-05-02T11:42:22.633Z</time></trkpt><trkpt lat="42.1734831" lon="13.6645317"><ele>764.0</ele><time>2026-05-02T11:42:23.633Z</time></trkpt><trkpt lat="42.1733593" lon="13.6644504"><ele>765.0</ele><time>2026-05-02T11:42:24.634Z</time></trkpt><trkpt lat="42.1732322" lon="13.6643629"><ele>766.0</ele><time>2026-05-02T11:42:25.633Z</time></trkpt><trkpt lat="42.173105" lon="13.6642693"><ele>767.0</ele><time>2026-05-02T11:42:26.633Z</time></trkpt><trkpt lat="42.1729764" lon="13.6641612"><ele>768.0</ele><time>2026-05-02T11:42:27.633Z</time></trkpt><trkpt lat="42.1728445" lon="13.66404"><ele>771.3333333333333</ele><time>2026-05-02T11:42:28.634Z</time></trkpt><trkpt lat="42.1727107" lon="13.6639159"><ele>774.6666666666666</ele><time>2026-05-02T11:42:29.634Z</time></trkpt><trkpt lat="42.1725787" lon="13.6637877"><ele>778.0</ele><time>2026-05-02T11:42:30.633Z</time></trkpt><trkpt lat="42.17246" lon="13.663663"><ele>780.75</ele><time>2026-05-02T11:42:31.633Z</time></trkpt><trkpt lat="42.1723525" lon="13.6635315"><ele>783.5</ele><time>2026-05-02T11:42:32.633Z</time></trkpt><trkpt lat="42.1722591" lon="13.6633853"><ele>786.25</ele><time>2026-05-02T11:42:33.633Z</time></trkpt><trkpt lat="42.1721806" lon="13.6632196"><ele>789.0</ele><time>2026-05-02T11:42:34.634Z</time></trkpt><trkpt lat="42.172113" lon="13.6630378"><ele>789.0</ele><time>2026-05-02T11:42:35.633Z</time></trkpt><trkpt lat="42.1720454" lon="13.6628626"><ele>789.0</ele><time>2026-05-02T11:42:36.633Z</time></trkpt><trkpt lat="42.1719718" lon="13.6626906"><ele>789.0</ele><time>2026-05-02T11:42:37.634Z</time></trkpt><trkpt lat="42.1718958" lon="13.6625211"><ele>789.0</ele><time>2026-05-02T11:42:38.634Z</time></trkpt><trkpt lat="42.1718183" lon="13.6623554"><ele>789.75</ele><time>2026-05-02T11:42:39.633Z</time></trkpt><trkpt lat="42.17174" lon="13.6621935"><ele>790.5</ele><time>2026-05-02T11:42:40.633Z</time></trkpt><trkpt lat="42.1716639" lon="13.6620305"><ele>791.25</ele><time>2026-05-02T11:42:41.633Z</time></trkpt><trkpt lat="42.1715902" lon="13.661868"><ele>792.0</ele><time>2026-05-02T11:42:42.633Z</time></trkpt><trkpt lat="42.1715185" lon="13.6617069"><ele>799.0</ele><time>2026-05-02T11:42:43.633Z</time></trkpt><trkpt lat="42.1714498" lon="13.661549"><ele>806.0</ele><time>2026-05-02T11:42:44.634Z</time></trkpt><trkpt lat="42.1713814" lon="13.6613989"><ele>813.0</ele><time>2026-05-02T11:42:45.634Z</time></trkpt><trkpt lat="42.1713232" lon="13.6612603"><ele>820.0</ele><time>2026-05-02T11:42:46.634Z</time></trkpt><trkpt lat="42.1712745" lon="13.6611423"><ele>819.75</ele><time>2026-05-02T11:42:47.634Z</time></trkpt><trkpt lat="42.1712149" lon="13.6610417"><ele>819.5</ele><time>2026-05-02T11:42:48.633Z</time></trkpt><trkpt lat="42.1711256" lon="13.6609551"><ele>819.25</ele><time>2026-05-02T11:42:49.633Z</time></trkpt><trkpt lat="42.1710125" lon="13.6608836"><ele>819.0</ele><time>2026-05-02T11:42:50.633Z</time></trkpt><trkpt lat="42.1708819" lon="13.6608274"><ele>819.0</ele><time>2026-05-02T11:42:51.633Z</time></trkpt><trkpt lat="42.1707402" lon="13.6607791"><ele>819.0</ele><time>2026-05-02T11:42:52.633Z</time></trkpt><trkpt lat="42.1705923" lon="13.6607229"><ele>819.0</ele><time>2026-05-02T11:42:53.633Z</time></trkpt><trkpt lat="42.1704442" lon="13.6606521"><ele>823.75</ele><time>2026-05-02T11:42:54.633Z</time></trkpt><trkpt lat="42.1702978" lon="13.66057"><ele>828.5</ele><time>2026-05-02T11:42:55.633Z</time></trkpt><trkpt lat="42.1701594" lon="13.6604887"><ele>833.25</ele><time>2026-05-02T11:42:56.633Z</time></trkpt><trkpt lat="42.1700385" lon="13.6604161"><ele>838.0</ele><time>2026-05-02T11:42:57.633Z</time></trkpt><trkpt lat="42.169941" lon="13.6603545"><ele>843.0</ele><time>2026-05-02T11:42:58.633Z</time></trkpt><trkpt lat="42.1698438" lon="13.6603073"><ele>848.0</ele><time>2026-05-02T11:42:59.633Z</time></trkpt><trkpt lat="42.1697241" lon="13.660278"><ele>853.0</ele><time>2026-05-02T11:43:00.633Z</time></trkpt><trkpt lat="42.1695915" lon="13.6602528"><ele>858.0</ele><time>2026-05-02T11:43:01.634Z</time></trkpt><trkpt lat="42.1694513" lon="13.6602045"><ele>858.0</ele><time>2026-05-02T11:43:02.634Z</time></trkpt><trkpt lat="42.1693052" lon="13.6601434"><ele>858.0</ele><time>2026-05-02T11:43:03.633Z</time></trkpt><trkpt lat="42.1691666" lon="13.6600876"><ele>858.0</ele><time>2026-05-02T11:43:04.633Z</time></trkpt><trkpt lat="42.1690479" lon="13.6600301"><ele>858.0</ele><time>2026-05-02T11:43:05.634Z</time></trkpt><trkpt lat="42.1689501" lon="13.6599798"><ele>860.8</ele><time>2026-05-02T11:43:06.633Z</time></trkpt><trkpt lat="42.1688614" lon="13.6599433"><ele>863.5999999999999</ele><time>2026-05-02T11:43:07.634Z</time></trkpt><trkpt lat="42.168774" lon="13.6599314"><ele>866.4000000000001</ele><time>2026-05-02T11:43:08.634Z</time></trkpt><trkpt lat="42.1686782" lon="13.6599586"><ele>869.2</ele><time>2026-05-02T11:43:09.633Z</time></trkpt><trkpt lat="42.168577" lon="13.6600126"><ele>872.0</ele><time>2026-05-02T11:43:10.633Z</time></trkpt><trkpt lat="42.1684724" lon="13.6600759"><ele>872.0</ele><time>2026-05-02T11:43:11.633Z</time></trkpt><trkpt lat="42.1683659" lon="13.660142"><ele>872.0</ele><time>2026-05-02T11:43:12.633Z</time></trkpt><trkpt lat="42.1682576" lon="13.6602123"><ele>872.0</ele><time>2026-05-02T11:43:13.633Z</time></trkpt><trkpt lat="42.1681472" lon="13.6603001"><ele>872.0</ele><time>2026-05-02T11:43:14.634Z</time></trkpt><trkpt lat="42.1680307" lon="13.6603988"><ele>875.25</ele><time>2026-05-02T11:43:15.634Z</time></trkpt><trkpt lat="42.167913" lon="13.6605021"><ele>878.5</ele><time>2026-05-02T11:43:16.633Z</time></trkpt><trkpt lat="42.1677935" lon="13.6606064"><ele>881.75</ele><time>2026-05-02T11:43:17.633Z</time></trkpt><trkpt lat="42.1676718" lon="13.6607148"><ele>885.0</ele><time>2026-05-02T11:43:18.633Z</time></trkpt><trkpt lat="42.1675504" lon="13.6608171"><ele>885.0</ele><time>2026-05-02T11:43:19.634Z</time></trkpt><trkpt lat="42.1674298" lon="13.6609108"><ele>885.0</ele><time>2026-05-02T11:43:20.634Z</time></trkpt><trkpt lat="42.1673043" lon="13.6609967"><ele>885.0</ele><time>2026-05-02T11:43:21.633Z</time></trkpt><trkpt lat="42.1671796" lon="13.6610809"><ele>885.0</ele><time>2026-05-02T11:43:22.633Z</time></trkpt><trkpt lat="42.1670587" lon="13.6611758"><ele>887.75</ele><time>2026-05-02T11:43:23.634Z</time></trkpt><trkpt lat="42.1669511" lon="13.661284"><ele>890.5</ele><time>2026-05-02T11:43:24.634Z</time></trkpt><trkpt lat="42.1668534" lon="13.661397"><ele>893.25</ele><time>2026-05-02T11:43:25.634Z</time></trkpt><trkpt lat="42.166762" lon="13.6615117"><ele>896.0</ele><time>2026-05-02T11:43:26.634Z</time></trkpt><trkpt lat="42.166678" lon="13.6616374"><ele>896.0</ele><time>2026-05-02T11:43:27.633Z</time></trkpt><trkpt lat="42.1665996" lon="13.6617774"><ele>896.0</ele><time>2026-05-02T11:43:28.633Z</time></trkpt><trkpt lat="42.1665198" lon="13.6619159"><ele>896.0</ele><time>2026-05-02T11:43:29.633Z</time></trkpt><trkpt lat="42.1664313" lon="13.6620516"><ele>896.0</ele><time>2026-05-02T11:43:30.633Z</time></trkpt><trkpt lat="42.16634" lon="13.6621847"><ele>897.0</ele><time>2026-05-02T11:43:31.633Z</time></trkpt><trkpt lat="42.1662604" lon="13.6623067"><ele>897.9999999999999</ele><time>2026-05-02T11:43:32.633Z</time></trkpt><trkpt lat="42.166187" lon="13.6624154"><ele>898.9999999999999</ele><time>2026-05-02T11:43:33.633Z</time></trkpt><trkpt lat="42.1661173" lon="13.6624958"><ele>900.0</ele><time>2026-05-02T11:43:34.634Z</time></trkpt><trkpt lat="42.1660603" lon="13.6625338"><ele>901.0</ele><time>2026-05-02T11:43:35.633Z</time></trkpt><trkpt lat="42.165984" lon="13.6625046"><ele>901.0</ele><time>2026-05-02T11:43:37.633Z</time></trkpt><trkpt lat="42.1659377" lon="13.6623766"><ele>900.9999999999999</ele><time>2026-05-02T11:43:39.634Z</time></trkpt><trkpt lat="42.1659342" lon="13.6622626"><ele>900.9999999999999</ele><time>2026-05-02T11:43:40.633Z</time></trkpt><trkpt lat="42.1659451" lon="13.6621182"><ele>901.0</ele><time>2026-05-02T11:43:41.634Z</time></trkpt><trkpt lat="42.1659736" lon="13.6619483"><ele>901.0</ele><time>2026-05-02T11:43:42.633Z</time></trkpt><trkpt lat="42.1660156" lon="13.661773"><ele>901.9999999999999</ele><time>2026-05-02T11:43:43.634Z</time></trkpt><trkpt lat="42.1660563" lon="13.6616276"><ele>903.0</ele><time>2026-05-02T11:43:44.634Z</time></trkpt><trkpt lat="42.1660961" lon="13.6615053"><ele>904.0</ele><time>2026-05-02T11:43:45.633Z</time></trkpt><trkpt lat="42.1661273" lon="13.6614143"><ele>905.0</ele><time>2026-05-02T11:43:46.633Z</time></trkpt><trkpt lat="42.1661565" lon="13.6613316"><ele>905.9999999999999</ele><time>2026-05-02T11:43:48.633Z</time></trkpt><trkpt lat="42.1660837" lon="13.6612948"><ele>907.0</ele><time>2026-05-02T11:43:53.633Z</time></trkpt><trkpt lat="42.1660645" lon="13.6613982"><ele>907.0</ele><time>2026-05-02T11:43:56.633Z</time></trkpt><trkpt lat="42.1660601" lon="13.6615365"><ele>907.0</ele><time>2026-05-02T11:43:59.633Z</time></trkpt><trkpt lat="42.1660051" lon="13.661708"><ele>907.0</ele><time>2026-05-02T11:44:01.633Z</time></trkpt><trkpt lat="42.1659734" lon="13.6618262"><ele>907.0</ele><time>2026-05-02T11:44:02.634Z</time></trkpt><trkpt lat="42.1659477" lon="13.6619484"><ele>907.0</ele><time>2026-05-02T11:44:03.633Z</time></trkpt><trkpt lat="42.1659297" lon="13.6620704"><ele>905.9999999999999</ele><time>2026-05-02T11:44:04.634Z</time></trkpt><trkpt lat="42.1659168" lon="13.6621913"><ele>905.0</ele><time>2026-05-02T11:44:05.634Z</time></trkpt><trkpt lat="42.1659139" lon="13.6622964"><ele>904.0</ele><time>2026-05-02T11:44:06.634Z</time></trkpt><trkpt lat="42.1659355" lon="13.662441"><ele>903.0</ele><time>2026-05-02T11:44:08.633Z</time></trkpt><trkpt lat="42.1659503" lon="13.6625267"><ele>901.9999999999999</ele><time>2026-05-02T11:44:11.633Z</time></trkpt><trkpt lat="42.165898" lon="13.6626266"><ele>901.0</ele><time>2026-05-02T11:44:22.633Z</time></trkpt><trkpt lat="42.1658204" lon="13.6627106"><ele>902.6666666666666</ele><time>2026-05-02T11:44:24.633Z</time></trkpt><trkpt lat="42.1657281" lon="13.6628089"><ele>904.3333333333333</ele><time>2026-05-02T11:44:26.634Z</time></trkpt><trkpt lat="42.1656674" lon="13.6628425"><ele>906.0</ele><time>2026-05-02T11:44:27.633Z</time></trkpt><trkpt lat="42.1655965" lon="13.6628607"><ele>907.6666666666667</ele><time>2026-05-02T11:44:28.634Z</time></trkpt><trkpt lat="42.1655225" lon="13.6628794"><ele>909.3333333333334</ele><time>2026-05-02T11:44:29.633Z</time></trkpt><trkpt lat="42.1654461" lon="13.6628865"><ele>911.0</ele><time>2026-05-02T11:44:30.633Z</time></trkpt><trkpt lat="42.1653653" lon="13.6628905"><ele>911.8333333333334</ele><time>2026-05-02T11:44:31.633Z</time></trkpt><trkpt lat="42.1652884" lon="13.6629097"><ele>912.6666666666667</ele><time>2026-05-02T11:44:32.633Z</time></trkpt><trkpt lat="42.1652078" lon="13.6629291"><ele>913.5</ele><time>2026-05-02T11:44:33.633Z</time></trkpt><trkpt lat="42.1651291" lon="13.6629538"><ele>914.3333333333333</ele><time>2026-05-02T11:44:34.633Z</time></trkpt><trkpt lat="42.1650505" lon="13.6629871"><ele>915.1666666666666</ele><time>2026-05-02T11:44:35.634Z</time></trkpt><trkpt lat="42.1649771" lon="13.6630318"><ele>916.0</ele><time>2026-05-02T11:44:36.634Z</time></trkpt><trkpt lat="42.1649147" lon="13.663089"><ele>916.8571428571429</ele><time>2026-05-02T11:44:37.633Z</time></trkpt><trkpt lat="42.1648571" lon="13.6631422"><ele>917.7142857142858</ele><time>2026-05-02T11:44:38.634Z</time></trkpt><trkpt lat="42.1647885" lon="13.6631831"><ele>918.5714285714287</ele><time>2026-05-02T11:44:39.633Z</time></trkpt><trkpt lat="42.1647181" lon="13.6632155"><ele>919.4285714285714</ele><time>2026-05-02T11:44:40.633Z</time></trkpt><trkpt lat="42.164655" lon="13.6632508"><ele>920.2857142857144</ele><time>2026-05-02T11:44:41.633Z</time></trkpt><trkpt lat="42.1645769" lon="13.6633135"><ele>921.1428571428572</ele><time>2026-05-02T11:44:43.634Z</time></trkpt><trkpt lat="42.1645368" lon="13.6633807"><ele>922.0</ele><time>2026-05-02T11:44:45.633Z</time></trkpt><trkpt lat="42.1644746" lon="13.6634633"><ele>921.9999999999999</ele><time>2026-05-02T11:44:47.633Z</time></trkpt><trkpt lat="42.1644245" lon="13.6635238"><ele>922.0</ele><time>2026-05-02T11:44:48.633Z</time></trkpt><trkpt lat="42.164367" lon="13.6635881"><ele>922.0</ele><time>2026-05-02T11:44:49.633Z</time></trkpt><trkpt lat="42.1643108" lon="13.6636426"><ele>922.0</ele><time>2026-05-02T11:44:50.633Z</time></trkpt><trkpt lat="42.1642473" lon="13.6636926"><ele>921.9999999999999</ele><time>2026-05-02T11:44:51.633Z</time></trkpt><trkpt lat="42.1641777" lon="13.6637431"><ele>922.0</ele><time>2026-05-02T11:44:52.633Z</time></trkpt><trkpt lat="42.1640989" lon="13.6637931"><ele>924.1666666666666</ele><time>2026-05-02T11:44:53.633Z</time></trkpt><trkpt lat="42.1640256" lon="13.6638487"><ele>926.3333333333333</ele><time>2026-05-02T11:44:54.633Z</time></trkpt><trkpt lat="42.1639641" lon="13.6639114"><ele>928.5</ele><time>2026-05-02T11:44:55.633Z</time></trkpt><trkpt lat="42.1639089" lon="13.6639839"><ele>930.6666666666667</ele><time>2026-05-02T11:44:56.633Z</time></trkpt><trkpt lat="42.1638536" lon="13.6640554"><ele>932.8333333333334</ele><time>2026-05-02T11:44:57.633Z</time></trkpt><trkpt lat="42.1637887" lon="13.6641161"><ele>935.0</ele><time>2026-05-02T11:44:58.633Z</time></trkpt><trkpt lat="42.163715" lon="13.6641683"><ele>935.0000000000001</ele><time>2026-05-02T11:44:59.633Z</time></trkpt><trkpt lat="42.163643" lon="13.6642237"><ele>935.0</ele><time>2026-05-02T11:45:00.634Z</time></trkpt><trkpt lat="42.1635818" lon="13.6642838"><ele>935.0</ele><time>2026-05-02T11:45:01.633Z</time></trkpt><trkpt lat="42.1635229" lon="13.6643515"><ele>935.0</ele><time>2026-05-02T11:45:02.633Z</time></trkpt><trkpt lat="42.1634672" lon="13.6644302"><ele>935.0000000000001</ele><time>2026-05-02T11:45:03.633Z</time></trkpt><trkpt lat="42.1634104" lon="13.6645188"><ele>935.0</ele><time>2026-05-02T11:45:04.633Z</time></trkpt><trkpt lat="42.1633457" lon="13.6646089"><ele>935.5000000000001</ele><time>2026-05-02T11:45:05.633Z</time></trkpt><trkpt lat="42.1632817" lon="13.6646893"><ele>936.0</ele><time>2026-05-02T11:45:06.634Z</time></trkpt><trkpt lat="42.1632246" lon="13.6647683"><ele>936.5</ele><time>2026-05-02T11:45:07.633Z</time></trkpt><trkpt lat="42.1631643" lon="13.6648484"><ele>937.0</ele><time>2026-05-02T11:45:08.633Z</time></trkpt><trkpt lat="42.1631052" lon="13.664924"><ele>937.5000000000001</ele><time>2026-05-02T11:45:09.634Z</time></trkpt><trkpt lat="42.1630506" lon="13.6650005"><ele>938.0</ele><time>2026-05-02T11:45:10.634Z</time></trkpt><trkpt lat="42.1630001" lon="13.6650813"><ele>937.8333333333334</ele><time>2026-05-02T11:45:11.634Z</time></trkpt><trkpt lat="42.1629557" lon="13.6651778"><ele>937.6666666666667</ele><time>2026-05-02T11:45:12.634Z</time></trkpt><trkpt lat="42.1629135" lon="13.6652825"><ele>937.5</ele><time>2026-05-02T11:45:13.633Z</time></trkpt><trkpt lat="42.1628726" lon="13.6653811"><ele>937.3333333333333</ele><time>2026-05-02T11:45:14.633Z</time></trkpt><trkpt lat="42.162825" lon="13.6654839"><ele>937.1666666666666</ele><time>2026-05-02T11:45:15.634Z</time></trkpt><trkpt lat="42.1627675" lon="13.6655886"><ele>937.0</ele><time>2026-05-02T11:45:16.633Z</time></trkpt><trkpt lat="42.1627176" lon="13.6656988"><ele>936.9999999999999</ele><time>2026-05-02T11:45:17.633Z</time></trkpt><trkpt lat="42.1626771" lon="13.6658153"><ele>937.0</ele><time>2026-05-02T11:45:18.633Z</time></trkpt><trkpt lat="42.1626405" lon="13.6659171"><ele>937.0</ele><time>2026-05-02T11:45:19.633Z</time></trkpt><trkpt lat="42.1625982" lon="13.6659958"><ele>937.0</ele><time>2026-05-02T11:45:20.633Z</time></trkpt><trkpt lat="42.162539" lon="13.6660674"><ele>936.9999999999999</ele><time>2026-05-02T11:45:21.633Z</time></trkpt><trkpt lat="42.1624625" lon="13.6661378"><ele>937.0</ele><time>2026-05-02T11:45:22.633Z</time></trkpt><trkpt lat="42.1623777" lon="13.6662023"><ele>939.2</ele><time>2026-05-02T11:45:23.633Z</time></trkpt><trkpt lat="42.162292" lon="13.6662604"><ele>941.4000000000001</ele><time>2026-05-02T11:45:24.634Z</time></trkpt><trkpt lat="42.1622043" lon="13.6663064"><ele>943.5999999999999</ele><time>2026-05-02T11:45:25.634Z</time></trkpt><trkpt lat="42.1621147" lon="13.6663433"><ele>945.8</ele><time>2026-05-02T11:45:26.633Z</time></trkpt><trkpt lat="42.1620286" lon="13.6663894"><ele>948.0</ele><time>2026-05-02T11:45:27.633Z</time></trkpt><trkpt lat="42.1619491" lon="13.6664495"><ele>948.0</ele><time>2026-05-02T11:45:28.634Z</time></trkpt><trkpt lat="42.1618739" lon="13.6665218"><ele>948.0</ele><time>2026-05-02T11:45:29.633Z</time></trkpt><trkpt lat="42.1618056" lon="13.6666005"><ele>948.0</ele><time>2026-05-02T11:45:30.634Z</time></trkpt><trkpt lat="42.1617374" lon="13.6666739"><ele>948.0</ele><time>2026-05-02T11:45:31.633Z</time></trkpt><trkpt lat="42.1616564" lon="13.6667405"><ele>948.0</ele><time>2026-05-02T11:45:32.633Z</time></trkpt><trkpt lat="42.1615713" lon="13.6668082"><ele>949.4</ele><time>2026-05-02T11:45:33.633Z</time></trkpt><trkpt lat="42.1614901" lon="13.6668777"><ele>950.8</ele><time>2026-05-02T11:45:34.634Z</time></trkpt><trkpt lat="42.161407" lon="13.6669441"><ele>952.2</ele><time>2026-05-02T11:45:35.633Z</time></trkpt><trkpt lat="42.1613233" lon="13.66701"><ele>953.6</ele><time>2026-05-02T11:45:36.634Z</time></trkpt><trkpt lat="42.1612476" lon="13.6670835"><ele>955.0</ele><time>2026-05-02T11:45:37.634Z</time></trkpt><trkpt lat="42.1611751" lon="13.667168"><ele>955.0</ele><time>2026-05-02T11:45:38.634Z</time></trkpt><trkpt lat="42.161105" lon="13.6672615"><ele>955.0</ele><time>2026-05-02T11:45:39.633Z</time></trkpt><trkpt lat="42.16104" lon="13.6673607"><ele>955.0</ele><time>2026-05-02T11:45:40.633Z</time></trkpt><trkpt lat="42.1609732" lon="13.6674576"><ele>955.0</ele><time>2026-05-02T11:45:41.634Z</time></trkpt><trkpt lat="42.1609004" lon="13.6675451"><ele>955.0</ele><time>2026-05-02T11:45:42.633Z</time></trkpt><trkpt lat="42.160832" lon="13.6676208"><ele>954.9999999999999</ele><time>2026-05-02T11:45:43.633Z</time></trkpt><trkpt lat="42.1607664" lon="13.6676939"><ele>955.0</ele><time>2026-05-02T11:45:44.634Z</time></trkpt><trkpt lat="42.1607006" lon="13.6677529"><ele>955.0</ele><time>2026-05-02T11:45:45.633Z</time></trkpt><trkpt lat="42.1606424" lon="13.6677944"><ele>955.0</ele><time>2026-05-02T11:45:46.633Z</time></trkpt><trkpt lat="42.1605638" lon="13.6678578"><ele>954.9999999999999</ele><time>2026-05-02T11:45:48.633Z</time></trkpt><trkpt lat="42.1604774" lon="13.6679455"><ele>955.0</ele><time>2026-05-02T11:45:50.633Z</time></trkpt><trkpt lat="42.1603876" lon="13.6680305"><ele>954.4999999999999</ele><time>2026-05-02T11:45:52.633Z</time></trkpt><trkpt lat="42.1602969" lon="13.6681157"><ele>954.0</ele><time>2026-05-02T11:45:54.634Z</time></trkpt><trkpt lat="42.1602435" lon="13.6681718"><ele>953.5</ele><time>2026-05-02T11:45:55.634Z</time></trkpt><trkpt lat="42.1601894" lon="13.6682338"><ele>953.0</ele><time>2026-05-02T11:45:56.633Z</time></trkpt><trkpt lat="42.1601375" lon="13.6683001"><ele>952.4999999999999</ele><time>2026-05-02T11:45:57.633Z</time></trkpt><trkpt lat="42.1600918" lon="13.6683648"><ele>952.0</ele><time>2026-05-02T11:45:58.633Z</time></trkpt><trkpt lat="42.1600433" lon="13.6684305"><ele>951.9999999999999</ele><time>2026-05-02T11:45:59.633Z</time></trkpt><trkpt lat="42.1599825" lon="13.6684956"><ele>952.0</ele><time>2026-05-02T11:46:00.633Z</time></trkpt><trkpt lat="42.1599089" lon="13.668563"><ele>952.0</ele><time>2026-05-02T11:46:01.633Z</time></trkpt><trkpt lat="42.1598324" lon="13.66863"><ele>952.0</ele><time>2026-05-02T11:46:02.633Z</time></trkpt><trkpt lat="42.1597572" lon="13.6687016"><ele>951.9999999999999</ele><time>2026-05-02T11:46:03.633Z</time></trkpt><trkpt lat="42.1596858" lon="13.6687741"><ele>952.0</ele><time>2026-05-02T11:46:04.633Z</time></trkpt><trkpt lat="42.1596258" lon="13.6688365"><ele>950.1666666666666</ele><time>2026-05-02T11:46:05.634Z</time></trkpt><trkpt lat="42.1595733" lon="13.6688988"><ele>948.3333333333333</ele><time>2026-05-02T11:46:06.633Z</time></trkpt><trkpt lat="42.159529" lon="13.6690226"><ele>946.5</ele><time>2026-05-02T11:46:08.633Z</time></trkpt><trkpt lat="42.1595258" lon="13.6691925"><ele>944.6666666666667</ele><time>2026-05-02T11:46:10.633Z</time></trkpt><trkpt lat="42.1595327" lon="13.6692873"><ele>942.8333333333334</ele><time>2026-05-02T11:46:11.634Z</time></trkpt><trkpt lat="42.1595369" lon="13.6693754"><ele>941.0</ele><time>2026-05-02T11:46:12.633Z</time></trkpt><trkpt lat="42.1595251" lon="13.6694644"><ele>939.9999999999999</ele><time>2026-05-02T11:46:13.633Z</time></trkpt><trkpt lat="42.1595034" lon="13.6695572"><ele>939.0</ele><time>2026-05-02T11:46:14.633Z</time></trkpt><trkpt lat="42.1594886" lon="13.6696494"><ele>937.9999999999999</ele><time>2026-05-02T11:46:15.634Z</time></trkpt><trkpt lat="42.159476" lon="13.6697455"><ele>936.9999999999999</ele><time>2026-05-02T11:46:16.633Z</time></trkpt><trkpt lat="42.1594524" lon="13.6698297"><ele>936.0</ele><time>2026-05-02T11:46:17.633Z</time></trkpt><trkpt lat="42.1594168" lon="13.6699112"><ele>934.9999999999999</ele><time>2026-05-02T11:46:18.633Z</time></trkpt><trkpt lat="42.1593736" lon="13.6699911"><ele>933.9999999999999</ele><time>2026-05-02T11:46:19.633Z</time></trkpt><trkpt lat="42.1593271" lon="13.670052"><ele>933.9999999999999</ele><time>2026-05-02T11:46:20.633Z</time></trkpt><trkpt lat="42.1592649" lon="13.6701853"><ele>934.0</ele><time>2026-05-02T11:46:22.633Z</time></trkpt><trkpt lat="42.1592362" lon="13.6702731"><ele>934.0</ele><time>2026-05-02T11:46:23.633Z</time></trkpt><trkpt lat="42.1592123" lon="13.6703619"><ele>934.0</ele><time>2026-05-02T11:46:24.633Z</time></trkpt><trkpt lat="42.1591967" lon="13.6704502"><ele>933.9999999999999</ele><time>2026-05-02T11:46:25.633Z</time></trkpt><trkpt lat="42.1591858" lon="13.6705343"><ele>934.0</ele><time>2026-05-02T11:46:26.634Z</time></trkpt><trkpt lat="42.1591845" lon="13.6706195"><ele>935.142857142857</ele><time>2026-05-02T11:46:27.633Z</time></trkpt><trkpt lat="42.1591874" lon="13.6707111"><ele>936.2857142857142</ele><time>2026-05-02T11:46:28.633Z</time></trkpt><trkpt lat="42.1591885" lon="13.6707999"><ele>937.4285714285714</ele><time>2026-05-02T11:46:29.633Z</time></trkpt><trkpt lat="42.1591892" lon="13.6708868"><ele>938.5714285714286</ele><time>2026-05-02T11:46:30.633Z</time></trkpt><trkpt lat="42.1591931" lon="13.6709789"><ele>939.7142857142858</ele><time>2026-05-02T11:46:31.633Z</time></trkpt><trkpt lat="42.1591992" lon="13.6710678"><ele>940.857142857143</ele><time>2026-05-02T11:46:32.633Z</time></trkpt><trkpt lat="42.1592003" lon="13.6711639"><ele>942.0000000000001</ele><time>2026-05-02T11:46:33.634Z</time></trkpt><trkpt lat="42.1592039" lon="13.6712615"><ele>942.2</ele><time>2026-05-02T11:46:34.633Z</time></trkpt><trkpt lat="42.1592105" lon="13.6713634"><ele>942.4000000000001</ele><time>2026-05-02T11:46:35.633Z</time></trkpt><trkpt lat="42.1592152" lon="13.671468"><ele>942.5999999999999</ele><time>2026-05-02T11:46:36.633Z</time></trkpt><trkpt lat="42.1592176" lon="13.6715624"><ele>942.8</ele><time>2026-05-02T11:46:37.633Z</time></trkpt><trkpt lat="42.159237" lon="13.6717248"><ele>943.0</ele><time>2026-05-02T11:46:39.633Z</time></trkpt><trkpt lat="42.1592982" lon="13.6718737"><ele>942.9999999999999</ele><time>2026-05-02T11:46:41.633Z</time></trkpt><trkpt lat="42.1593488" lon="13.671933"><ele>943.0</ele><time>2026-05-02T11:46:42.633Z</time></trkpt><trkpt lat="42.1594071" lon="13.6719707"><ele>943.0</ele><time>2026-05-02T11:46:43.633Z</time></trkpt><trkpt lat="42.159516" lon="13.6720364"><ele>943.0</ele><time>2026-05-02T11:46:45.633Z</time></trkpt><trkpt lat="42.1595792" lon="13.6721281"><ele>942.9999999999999</ele><time>2026-05-02T11:46:47.633Z</time></trkpt><trkpt lat="42.1596002" lon="13.6722618"><ele>943.0</ele><time>2026-05-02T11:46:49.633Z</time></trkpt><trkpt lat="42.1596108" lon="13.6723525"><ele>941.9999999999999</ele><time>2026-05-02T11:46:50.633Z</time></trkpt><trkpt lat="42.159628" lon="13.6724447"><ele>941.0</ele><time>2026-05-02T11:46:51.633Z</time></trkpt><trkpt lat="42.1596516" lon="13.6725428"><ele>940.0</ele><time>2026-05-02T11:46:52.634Z</time></trkpt><trkpt lat="42.1596828" lon="13.6726431"><ele>939.0</ele><time>2026-05-02T11:46:53.633Z</time></trkpt><trkpt lat="42.1597249" lon="13.6727514"><ele>937.9999999999999</ele><time>2026-05-02T11:46:54.634Z</time></trkpt><trkpt lat="42.1597692" lon="13.6728688"><ele>937.0</ele><time>2026-05-02T11:46:55.633Z</time></trkpt><trkpt lat="42.1598149" lon="13.6729861"><ele>935.2</ele><time>2026-05-02T11:46:56.633Z</time></trkpt><trkpt lat="42.1598624" lon="13.6731026"><ele>933.4000000000001</ele><time>2026-05-02T11:46:57.633Z</time></trkpt><trkpt lat="42.1599111" lon="13.6732167"><ele>931.5999999999999</ele><time>2026-05-02T11:46:58.634Z</time></trkpt><trkpt lat="42.1599634" lon="13.6733325"><ele>929.8</ele><time>2026-05-02T11:46:59.634Z</time></trkpt><trkpt lat="42.1600161" lon="13.673447"><ele>928.0</ele><time>2026-05-02T11:47:00.633Z</time></trkpt><trkpt lat="42.1600671" lon="13.6735683"><ele>932.4</ele><time>2026-05-02T11:47:01.633Z</time></trkpt><trkpt lat="42.1601175" lon="13.6737038"><ele>936.8</ele><time>2026-05-02T11:47:02.634Z</time></trkpt><trkpt lat="42.1601676" lon="13.673841"><ele>941.2</ele><time>2026-05-02T11:47:03.633Z</time></trkpt><trkpt lat="42.1602166" lon="13.6739665"><ele>945.6</ele><time>2026-05-02T11:47:04.633Z</time></trkpt><trkpt lat="42.1602619" lon="13.6740776"><ele>950.0</ele><time>2026-05-02T11:47:05.633Z</time></trkpt><trkpt lat="42.1603075" lon="13.6741749"><ele>950.0</ele><time>2026-05-02T11:47:06.634Z</time></trkpt><trkpt lat="42.1603521" lon="13.6742591"><ele>950.0</ele><time>2026-05-02T11:47:07.633Z</time></trkpt><trkpt lat="42.1604421" lon="13.6743534"><ele>950.0</ele><time>2026-05-02T11:47:09.634Z</time></trkpt><trkpt lat="42.1605196" lon="13.6743886"><ele>950.0</ele><time>2026-05-02T11:47:10.633Z</time></trkpt><trkpt lat="42.1606146" lon="13.6744254"><ele>950.0</ele><time>2026-05-02T11:47:11.633Z</time></trkpt><trkpt lat="42.1606989" lon="13.6744676"><ele>952.2</ele><time>2026-05-02T11:47:12.633Z</time></trkpt><trkpt lat="42.1607642" lon="13.6745268"><ele>954.4</ele><time>2026-05-02T11:47:13.633Z</time></trkpt><trkpt lat="42.1608241" lon="13.6746094"><ele>956.5999999999999</ele><time>2026-05-02T11:47:14.634Z</time></trkpt><trkpt lat="42.1608851" lon="13.6747089"><ele>958.8</ele><time>2026-05-02T11:47:15.633Z</time></trkpt><trkpt lat="42.1609465" lon="13.6748133"><ele>961.0</ele><time>2026-05-02T11:47:16.633Z</time></trkpt><trkpt lat="42.161016" lon="13.6749197"><ele>961.0</ele><time>2026-05-02T11:47:17.633Z</time></trkpt><trkpt lat="42.1610844" lon="13.6750279"><ele>960.9999999999999</ele><time>2026-05-02T11:47:18.634Z</time></trkpt><trkpt lat="42.1611459" lon="13.6751358"><ele>960.9999999999999</ele><time>2026-05-02T11:47:19.633Z</time></trkpt><trkpt lat="42.161198" lon="13.6752469"><ele>961.0</ele><time>2026-05-02T11:47:20.633Z</time></trkpt><trkpt lat="42.1612472" lon="13.6753525"><ele>961.0</ele><time>2026-05-02T11:47:21.634Z</time></trkpt><trkpt lat="42.1612995" lon="13.6754511"><ele>962.4</ele><time>2026-05-02T11:47:22.634Z</time></trkpt><trkpt lat="42.1613512" lon="13.675554"><ele>963.8</ele><time>2026-05-02T11:47:23.633Z</time></trkpt><trkpt lat="42.1614028" lon="13.6756649"><ele>965.1999999999999</ele><time>2026-05-02T11:47:24.634Z</time></trkpt><trkpt lat="42.161459" lon="13.6757757"><ele>966.5999999999999</ele><time>2026-05-02T11:47:25.633Z</time></trkpt><trkpt lat="42.1615088" lon="13.6758723"><ele>968.0</ele><time>2026-05-02T11:47:26.634Z</time></trkpt><trkpt lat="42.1615429" lon="13.6759667"><ele>968.0000000000001</ele><time>2026-05-02T11:47:27.633Z</time></trkpt><trkpt lat="42.1615705" lon="13.6760704"><ele>968.0</ele><time>2026-05-02T11:47:28.634Z</time></trkpt><trkpt lat="42.1615967" lon="13.6761692"><ele>968.0</ele><time>2026-05-02T11:47:29.634Z</time></trkpt><trkpt lat="42.1616186" lon="13.6762579"><ele>968.0</ele><time>2026-05-02T11:47:30.633Z</time></trkpt><trkpt lat="42.1616392" lon="13.6763594"><ele>968.0000000000001</ele><time>2026-05-02T11:47:31.633Z</time></trkpt><trkpt lat="42.1616672" lon="13.6764621"><ele>968.0</ele><time>2026-05-02T11:47:32.633Z</time></trkpt><trkpt lat="42.1616957" lon="13.6765589"><ele>968.0000000000001</ele><time>2026-05-02T11:47:33.634Z</time></trkpt><trkpt lat="42.1617203" lon="13.6766516"><ele>968.0</ele><time>2026-05-02T11:47:34.633Z</time></trkpt><trkpt lat="42.1617453" lon="13.6767346"><ele>968.0</ele><time>2026-05-02T11:47:35.633Z</time></trkpt><trkpt lat="42.1617821" lon="13.6768889"><ele>968.0</ele><time>2026-05-02T11:47:37.633Z</time></trkpt><trkpt lat="42.161791" lon="13.6769801"><ele>968.0000000000001</ele><time>2026-05-02T11:47:38.633Z</time></trkpt><trkpt lat="42.1617994" lon="13.6770836"><ele>968.0</ele><time>2026-05-02T11:47:39.633Z</time></trkpt><trkpt lat="42.1618105" lon="13.6771935"><ele>966.5999999999999</ele><time>2026-05-02T11:47:40.634Z</time></trkpt><trkpt lat="42.1618192" lon="13.6773094"><ele>965.1999999999999</ele><time>2026-05-02T11:47:41.634Z</time></trkpt><trkpt lat="42.16183" lon="13.6774293"><ele>963.8</ele><time>2026-05-02T11:47:42.633Z</time></trkpt><trkpt lat="42.1618408" lon="13.6775479"><ele>962.4</ele><time>2026-05-02T11:47:43.633Z</time></trkpt><trkpt lat="42.1618457" lon="13.6776702"><ele>961.0</ele><time>2026-05-02T11:47:44.633Z</time></trkpt><trkpt lat="42.161847" lon="13.6777977"><ele>958.4</ele><time>2026-05-02T11:47:45.633Z</time></trkpt><trkpt lat="42.1618499" lon="13.6779248"><ele>955.8</ele><time>2026-05-02T11:47:46.633Z</time></trkpt><trkpt lat="42.1618562" lon="13.678051"><ele>953.1999999999999</ele><time>2026-05-02T11:47:47.633Z</time></trkpt><trkpt lat="42.1618641" lon="13.6781759"><ele>950.5999999999999</ele><time>2026-05-02T11:47:48.634Z</time></trkpt><trkpt lat="42.1618726" lon="13.6782947"><ele>948.0</ele><time>2026-05-02T11:47:49.633Z</time></trkpt><trkpt lat="42.1618798" lon="13.6784091"><ele>948.0</ele><time>2026-05-02T11:47:50.633Z</time></trkpt><trkpt lat="42.1618858" lon="13.678524"><ele>948.0</ele><time>2026-05-02T11:47:51.633Z</time></trkpt><trkpt lat="42.1618924" lon="13.678641"><ele>948.0</ele><time>2026-05-02T11:47:52.633Z</time></trkpt><trkpt lat="42.1618992" lon="13.6787615"><ele>948.0</ele><time>2026-05-02T11:47:53.633Z</time></trkpt><trkpt lat="42.1619002" lon="13.6788835"><ele>948.0</ele><time>2026-05-02T11:47:54.634Z</time></trkpt><trkpt lat="42.1618955" lon="13.6790023"><ele>948.0</ele><time>2026-05-02T11:47:55.634Z</time></trkpt><trkpt lat="42.1618833" lon="13.6791226"><ele>946.3333333333334</ele><time>2026-05-02T11:47:56.633Z</time></trkpt><trkpt lat="42.1618659" lon="13.679241"><ele>944.6666666666667</ele><time>2026-05-02T11:47:57.633Z</time></trkpt><trkpt lat="42.1618449" lon="13.6793542"><ele>943.0</ele><time>2026-05-02T11:47:58.634Z</time></trkpt><trkpt lat="42.1618231" lon="13.6794652"><ele>941.3333333333334</ele><time>2026-05-02T11:47:59.633Z</time></trkpt><trkpt lat="42.1618042" lon="13.6795746"><ele>939.6666666666667</ele><time>2026-05-02T11:48:00.633Z</time></trkpt><trkpt lat="42.16179" lon="13.6796726"><ele>938.0</ele><time>2026-05-02T11:48:01.633Z</time></trkpt><trkpt lat="42.1617662" lon="13.6798239"><ele>936.6666666666667</ele><time>2026-05-02T11:48:03.633Z</time></trkpt><trkpt lat="42.1617492" lon="13.6799419"><ele>935.3333333333334</ele><time>2026-05-02T11:48:05.633Z</time></trkpt><trkpt lat="42.1617188" lon="13.680043"><ele>934.0</ele><time>2026-05-02T11:48:07.633Z</time></trkpt><trkpt lat="42.1616648" lon="13.680096"><ele>932.6666666666667</ele><time>2026-05-02T11:48:09.633Z</time></trkpt><trkpt lat="42.1616027" lon="13.6800721"><ele>931.3333333333334</ele><time>2026-05-02T11:48:11.633Z</time></trkpt><trkpt lat="42.1615698" lon="13.6799634"><ele>930.0</ele><time>2026-05-02T11:48:13.633Z</time></trkpt><trkpt lat="42.1615442" lon="13.6798226"><ele>931.2</ele><time>2026-05-02T11:48:15.633Z</time></trkpt><trkpt lat="42.1615286" lon="13.6796958"><ele>932.4</ele><time>2026-05-02T11:48:17.633Z</time></trkpt><trkpt lat="42.1615109" lon="13.6795635"><ele>933.5999999999999</ele><time>2026-05-02T11:48:19.633Z</time></trkpt><trkpt lat="42.1615018" lon="13.6794252"><ele>934.8</ele><time>2026-05-02T11:48:21.634Z</time></trkpt><trkpt lat="42.1614741" lon="13.6793"><ele>936.0</ele><time>2026-05-02T11:48:23.634Z</time></trkpt><trkpt lat="42.1613852" lon="13.6792419"><ele>936.0</ele><time>2026-05-02T11:48:25.633Z</time></trkpt><trkpt lat="42.1612527" lon="13.6792636"><ele>935.9999999999999</ele><time>2026-05-02T11:48:27.633Z</time></trkpt><trkpt lat="42.1611667" lon="13.6792967"><ele>935.9999999999999</ele><time>2026-05-02T11:48:28.634Z</time></trkpt><trkpt lat="42.1610774" lon="13.6793404"><ele>936.0</ele><time>2026-05-02T11:48:29.634Z</time></trkpt><trkpt lat="42.1609902" lon="13.6793785"><ele>936.0</ele><time>2026-05-02T11:48:30.633Z</time></trkpt><trkpt lat="42.1608979" lon="13.6794061"><ele>936.0</ele><time>2026-05-02T11:48:31.634Z</time></trkpt><trkpt lat="42.1607973" lon="13.6794209"><ele>935.9999999999999</ele><time>2026-05-02T11:48:32.633Z</time></trkpt><trkpt lat="42.1606877" lon="13.6794295"><ele>935.9999999999999</ele><time>2026-05-02T11:48:33.633Z</time></trkpt><trkpt lat="42.1605858" lon="13.679442"><ele>936.0</ele><time>2026-05-02T11:48:34.633Z</time></trkpt><trkpt lat="42.1604938" lon="13.6794707"><ele>936.0</ele><time>2026-05-02T11:48:35.634Z</time></trkpt><trkpt lat="42.160402" lon="13.6795187"><ele>931.4</ele><time>2026-05-02T11:48:36.634Z</time></trkpt><trkpt lat="42.1603077" lon="13.6795804"><ele>926.8</ele><time>2026-05-02T11:48:37.633Z</time></trkpt><trkpt lat="42.1602179" lon="13.6796383"><ele>922.1999999999999</ele><time>2026-05-02T11:48:38.633Z</time></trkpt><trkpt lat="42.1601306" lon="13.679686"><ele>917.5999999999999</ele><time>2026-05-02T11:48:39.633Z</time></trkpt><trkpt lat="42.1600485" lon="13.6797312"><ele>913.0</ele><time>2026-05-02T11:48:40.633Z</time></trkpt><trkpt lat="42.1599765" lon="13.6797797"><ele>912.9999999999999</ele><time>2026-05-02T11:48:41.634Z</time></trkpt><trkpt lat="42.1599107" lon="13.6798578"><ele>913.0</ele><time>2026-05-02T11:48:42.633Z</time></trkpt><trkpt lat="42.1598497" lon="13.6799492"><ele>913.0</ele><time>2026-05-02T11:48:43.633Z</time></trkpt><trkpt lat="42.1598057" lon="13.6800184"><ele>913.0</ele><time>2026-05-02T11:48:44.633Z</time></trkpt><trkpt lat="42.1597266" lon="13.680063"><ele>912.9999999999999</ele><time>2026-05-02T11:48:46.634Z</time></trkpt><trkpt lat="42.1596332" lon="13.6800069"><ele>913.0</ele><time>2026-05-02T11:48:48.633Z</time></trkpt><trkpt lat="42.159585" lon="13.6799458"><ele>909.8</ele><time>2026-05-02T11:48:49.633Z</time></trkpt><trkpt lat="42.1595156" lon="13.6798197"><ele>906.5999999999999</ele><time>2026-05-02T11:48:51.633Z</time></trkpt><trkpt lat="42.1594613" lon="13.6797108"><ele>903.4000000000001</ele><time>2026-05-02T11:48:53.633Z</time></trkpt><trkpt lat="42.1594003" lon="13.6795642"><ele>900.2</ele><time>2026-05-02T11:48:55.633Z</time></trkpt><trkpt lat="42.1593721" lon="13.6794852"><ele>897.0</ele><time>2026-05-02T11:48:56.634Z</time></trkpt><trkpt lat="42.1593268" lon="13.679326"><ele>897.0</ele><time>2026-05-02T11:48:58.633Z</time></trkpt><trkpt lat="42.1593034" lon="13.6792452"><ele>897.0</ele><time>2026-05-02T11:48:59.633Z</time></trkpt><trkpt lat="42.1592721" lon="13.6790906"><ele>897.0</ele><time>2026-05-02T11:49:01.633Z</time></trkpt><trkpt lat="42.1592384" lon="13.6789357"><ele>897.0</ele><time>2026-05-02T11:49:03.633Z</time></trkpt><trkpt lat="42.1592122" lon="13.678856"><ele>897.0</ele><time>2026-05-02T11:49:04.633Z</time></trkpt><trkpt lat="42.1591868" lon="13.6787754"><ele>897.0</ele><time>2026-05-02T11:49:05.633Z</time></trkpt><trkpt lat="42.1591616" lon="13.678691"><ele>897.0</ele><time>2026-05-02T11:49:06.633Z</time></trkpt><trkpt lat="42.1591338" lon="13.6786045"><ele>897.0</ele><time>2026-05-02T11:49:07.634Z</time></trkpt><trkpt lat="42.1591052" lon="13.6785227"><ele>897.0</ele><time>2026-05-02T11:49:08.633Z</time></trkpt><trkpt lat="42.1590758" lon="13.6784429"><ele>897.0</ele><time>2026-05-02T11:49:09.633Z</time></trkpt><trkpt lat="42.1590464" lon="13.6783503"><ele>897.0</ele><time>2026-05-02T11:49:10.633Z</time></trkpt><trkpt lat="42.1590186" lon="13.67825"><ele>897.0</ele><time>2026-05-02T11:49:11.633Z</time></trkpt><trkpt lat="42.1589912" lon="13.678145"><ele>897.0</ele><time>2026-05-02T11:49:12.633Z</time></trkpt><trkpt lat="42.1589636" lon="13.6780384"><ele>892.6666666666666</ele><time>2026-05-02T11:49:13.633Z</time></trkpt><trkpt lat="42.1589346" lon="13.6779338"><ele>888.3333333333333</ele><time>2026-05-02T11:49:14.634Z</time></trkpt><trkpt lat="42.1589055" lon="13.6778399"><ele>884.0</ele><time>2026-05-02T11:49:15.633Z</time></trkpt><trkpt lat="42.1588742" lon="13.6777532"><ele>879.6666666666666</ele><time>2026-05-02T11:49:16.633Z</time></trkpt><trkpt lat="42.1588413" lon="13.6776632"><ele>875.3333333333333</ele><time>2026-05-02T11:49:17.633Z</time></trkpt><trkpt lat="42.1588119" lon="13.6775684"><ele>871.0</ele><time>2026-05-02T11:49:18.634Z</time></trkpt><trkpt lat="42.1587821" lon="13.6774679"><ele>870.9999999999999</ele><time>2026-05-02T11:49:19.633Z</time></trkpt><trkpt lat="42.1587527" lon="13.6773747"><ele>871.0</ele><time>2026-05-02T11:49:20.633Z</time></trkpt><trkpt lat="42.1587192" lon="13.67729"><ele>871.0</ele><time>2026-05-02T11:49:21.634Z</time></trkpt><trkpt lat="42.1586786" lon="13.6771978"><ele>871.0</ele><time>2026-05-02T11:49:22.633Z</time></trkpt><trkpt lat="42.158636" lon="13.6770988"><ele>870.9999999999999</ele><time>2026-05-02T11:49:23.633Z</time></trkpt><trkpt lat="42.1585948" lon="13.6770087"><ele>871.0</ele><time>2026-05-02T11:49:24.633Z</time></trkpt><trkpt lat="42.1585519" lon="13.6769217"><ele>873.4999999999999</ele><time>2026-05-02T11:49:25.633Z</time></trkpt><trkpt lat="42.1585049" lon="13.6768321"><ele>876.0</ele><time>2026-05-02T11:49:26.634Z</time></trkpt><trkpt lat="42.1584578" lon="13.6767415"><ele>878.5</ele><time>2026-05-02T11:49:27.633Z</time></trkpt><trkpt lat="42.1584111" lon="13.6766493"><ele>881.0</ele><time>2026-05-02T11:49:28.633Z</time></trkpt><trkpt lat="42.1583624" lon="13.6765576"><ele>883.4999999999999</ele><time>2026-05-02T11:49:29.634Z</time></trkpt><trkpt lat="42.1583113" lon="13.6764673"><ele>886.0</ele><time>2026-05-02T11:49:30.633Z</time></trkpt><trkpt lat="42.1582585" lon="13.6763755"><ele>885.9999999999999</ele><time>2026-05-02T11:49:31.633Z</time></trkpt><trkpt lat="42.1582082" lon="13.6762814"><ele>886.0</ele><time>2026-05-02T11:49:32.633Z</time></trkpt><trkpt lat="42.1581604" lon="13.6761851"><ele>886.0</ele><time>2026-05-02T11:49:33.633Z</time></trkpt><trkpt lat="42.1581168" lon="13.6760886"><ele>886.0</ele><time>2026-05-02T11:49:34.633Z</time></trkpt><trkpt lat="42.1580733" lon="13.6759928"><ele>885.9999999999999</ele><time>2026-05-02T11:49:35.633Z</time></trkpt><trkpt lat="42.1580296" lon="13.6759004"><ele>886.0</ele><time>2026-05-02T11:49:36.633Z</time></trkpt><trkpt lat="42.1579888" lon="13.6758156"><ele>879.8333333333333</ele><time>2026-05-02T11:49:37.634Z</time></trkpt><trkpt lat="42.1579522" lon="13.6757336"><ele>873.6666666666666</ele><time>2026-05-02T11:49:38.633Z</time></trkpt><trkpt lat="42.1579143" lon="13.6756629"><ele>867.5</ele><time>2026-05-02T11:49:39.633Z</time></trkpt><trkpt lat="42.1578376" lon="13.6755261"><ele>861.3333333333333</ele><time>2026-05-02T11:49:41.633Z</time></trkpt><trkpt lat="42.157801" lon="13.6754519"><ele>855.1666666666666</ele><time>2026-05-02T11:49:42.634Z</time></trkpt><trkpt lat="42.1577683" lon="13.6753759"><ele>849.0</ele><time>2026-05-02T11:49:43.633Z</time></trkpt><trkpt lat="42.1577386" lon="13.6752962"><ele>850.0</ele><time>2026-05-02T11:49:44.634Z</time></trkpt><trkpt lat="42.1577046" lon="13.6752144"><ele>851.0</ele><time>2026-05-02T11:49:45.633Z</time></trkpt><trkpt lat="42.1576773" lon="13.6751343"><ele>852.0</ele><time>2026-05-02T11:49:46.634Z</time></trkpt><trkpt lat="42.1576476" lon="13.6749972"><ele>853.0</ele><time>2026-05-02T11:49:48.633Z</time></trkpt><trkpt lat="42.1576262" lon="13.6748609"><ele>854.0</ele><time>2026-05-02T11:49:50.633Z</time></trkpt><trkpt lat="42.157621" lon="13.6747284"><ele>855.0</ele><time>2026-05-02T11:49:53.633Z</time></trkpt><trkpt lat="42.1576174" lon="13.674603"><ele>855.0</ele><time>2026-05-02T11:49:55.633Z</time></trkpt><trkpt lat="42.1576175" lon="13.6745"><ele>855.0</ele><time>2026-05-02T11:49:57.633Z</time></trkpt><trkpt lat="42.1576544" lon="13.6744063"><ele>855.0</ele><time>2026-05-02T11:50:03.633Z</time></trkpt><trkpt lat="42.1576966" lon="13.6743381"><ele>855.0</ele><time>2026-05-02T11:50:05.634Z</time></trkpt><trkpt lat="42.1576815" lon="13.6742461"><ele>855.0</ele><time>2026-05-02T11:50:08.633Z</time></trkpt><trkpt lat="42.1576044" lon="13.6742737"><ele>855.0</ele><time>2026-05-02T11:50:11.634Z</time></trkpt><trkpt lat="42.1575446" lon="13.6743656"><ele>855.0</ele><time>2026-05-02T11:50:13.633Z</time></trkpt><trkpt lat="42.1574925" lon="13.6744718"><ele>855.0</ele><time>2026-05-02T11:50:15.633Z</time></trkpt><trkpt lat="42.1574524" lon="13.6745723"><ele>855.0</ele><time>2026-05-02T11:50:17.633Z</time></trkpt><trkpt lat="42.1574231" lon="13.6746708"><ele>855.0</ele><time>2026-05-02T11:50:19.634Z</time></trkpt><trkpt lat="42.1574067" lon="13.6747693"><ele>855.0</ele><time>2026-05-02T11:50:21.634Z</time></trkpt><trkpt lat="42.1573946" lon="13.6748758"><ele>855.0</ele><time>2026-05-02T11:50:23.633Z</time></trkpt><trkpt lat="42.1573862" lon="13.6749636"><ele>847.6666666666666</ele><time>2026-05-02T11:50:25.634Z</time></trkpt><trkpt lat="42.1573602" lon="13.6750609"><ele>840.3333333333333</ele><time>2026-05-02T11:50:28.633Z</time></trkpt><trkpt lat="42.1572897" lon="13.6750386"><ele>833.0</ele><time>2026-05-02T11:50:31.633Z</time></trkpt><trkpt lat="42.1572495" lon="13.6749391"><ele>825.6666666666666</ele><time>2026-05-02T11:50:34.633Z</time></trkpt><trkpt lat="42.1572324" lon="13.67483"><ele>818.3333333333333</ele><time>2026-05-02T11:50:36.634Z</time></trkpt><trkpt lat="42.157219" lon="13.6747016"><ele>811.0</ele><time>2026-05-02T11:50:38.633Z</time></trkpt><trkpt lat="42.1572128" lon="13.6745732"><ele>811.0</ele><time>2026-05-02T11:50:40.634Z</time></trkpt><trkpt lat="42.1572108" lon="13.6744574"><ele>811.0</ele><time>2026-05-02T11:50:42.634Z</time></trkpt><trkpt lat="42.1572122" lon="13.6743448"><ele>811.0</ele><time>2026-05-02T11:50:44.633Z</time></trkpt><trkpt lat="42.1572057" lon="13.6742533"><ele>811.0</ele><time>2026-05-02T11:50:46.633Z</time></trkpt><trkpt lat="42.1572031" lon="13.6741672"><ele>811.0</ele><time>2026-05-02T11:50:48.633Z</time></trkpt><trkpt lat="42.1572323" lon="13.6740695"><ele>811.0</ele><time>2026-05-02T11:50:50.634Z</time></trkpt><trkpt lat="42.1572321" lon="13.6739839"><ele>811.0</ele><time>2026-05-02T11:50:53.633Z</time></trkpt><trkpt lat="42.1571676" lon="13.6739153"><ele>812.4285714285714</ele><time>2026-05-02T11:50:56.633Z</time></trkpt><trkpt lat="42.1571162" lon="13.6738599"><ele>813.8571428571429</ele><time>2026-05-02T11:51:00.634Z</time></trkpt><trkpt lat="42.157055" lon="13.6739123"><ele>815.2857142857143</ele><time>2026-05-02T11:51:12.611Z</time></trkpt><trkpt lat="42.1569922" lon="13.6739861"><ele>816.7142857142858</ele><time>2026-05-02T11:51:15.633Z</time></trkpt><trkpt lat="42.15694" lon="13.67407"><ele>818.1428571428571</ele><time>2026-05-02T11:51:40.634Z</time></trkpt><trkpt lat="42.1569036" lon="13.6741464"><ele>819.5714285714287</ele><time>2026-05-02T11:51:42.633Z</time></trkpt><trkpt lat="42.1568691" lon="13.6742199"><ele>821.0</ele><time>2026-05-02T11:51:44.634Z</time></trkpt><trkpt lat="42.1568681" lon="13.6743149"><ele>821.0000000000001</ele><time>2026-05-02T11:51:47.634Z</time></trkpt><trkpt lat="42.1568769" lon="13.6743993"><ele>821.0</ele><time>2026-05-02T11:51:50.633Z</time></trkpt><trkpt lat="42.1568604" lon="13.6744814"><ele>821.0</ele><time>2026-05-02T11:52:02.633Z</time></trkpt><trkpt lat="42.1568354" lon="13.6745947"><ele>821.0</ele><time>2026-05-02T11:52:39.634Z</time></trkpt><trkpt lat="42.1567928" lon="13.6746999"><ele>821.0000000000001</ele><time>2026-05-02T11:52:41.633Z</time></trkpt><trkpt lat="42.1567664" lon="13.6748016"><ele>821.0</ele><time>2026-05-02T11:52:43.633Z</time></trkpt><trkpt lat="42.1567328" lon="13.6749011"><ele>820.6666666666667</ele><time>2026-05-02T11:52:45.633Z</time></trkpt><trkpt lat="42.1567023" lon="13.674989"><ele>820.3333333333334</ele><time>2026-05-02T11:52:47.634Z</time></trkpt><trkpt lat="42.1566677" lon="13.6750775"><ele>820.0</ele><time>2026-05-02T11:52:49.633Z</time></trkpt><trkpt lat="42.1566345" lon="13.6751585"><ele>819.6666666666667</ele><time>2026-05-02T11:52:51.633Z</time></trkpt><trkpt lat="42.1565827" lon="13.6753042"><ele>819.3333333333334</ele><time>2026-05-02T11:52:53.633Z</time></trkpt><trkpt lat="42.1565474" lon="13.6754273"><ele>819.0</ele><time>2026-05-02T11:52:55.633Z</time></trkpt><trkpt lat="42.1565154" lon="13.675562"><ele>819.0</ele><time>2026-05-02T11:52:57.634Z</time></trkpt><trkpt lat="42.1564892" lon="13.6756702"><ele>819.0</ele><time>2026-05-02T11:52:59.633Z</time></trkpt><trkpt lat="42.1564586" lon="13.6757669"><ele>819.0</ele><time>2026-05-02T11:53:01.633Z</time></trkpt><trkpt lat="42.1564201" lon="13.6758628"><ele>819.0</ele><time>2026-05-02T11:53:04.633Z</time></trkpt><trkpt lat="42.1563787" lon="13.6759295"><ele>819.0</ele><time>2026-05-02T11:53:07.634Z</time></trkpt><trkpt lat="42.156387" lon="13.6760546"><ele>819.0</ele><time>2026-05-02T11:53:10.633Z</time></trkpt><trkpt lat="42.156391" lon="13.6761508"><ele>818.5</ele><time>2026-05-02T11:53:12.633Z</time></trkpt><trkpt lat="42.1563956" lon="13.6762603"><ele>818.0</ele><time>2026-05-02T11:53:14.634Z</time></trkpt><trkpt lat="42.1564015" lon="13.6763469"><ele>817.5</ele><time>2026-05-02T11:53:15.633Z</time></trkpt><trkpt lat="42.1564141" lon="13.6764552"><ele>817.0</ele><time>2026-05-02T11:53:16.633Z</time></trkpt><trkpt lat="42.156432" lon="13.6765722"><ele>816.5</ele><time>2026-05-02T11:53:17.634Z</time></trkpt><trkpt lat="42.1564531" lon="13.6766918"><ele>816.0</ele><time>2026-05-02T11:53:18.633Z</time></trkpt><trkpt lat="42.1564713" lon="13.6767945"><ele>816.0</ele><time>2026-05-02T11:53:19.633Z</time></trkpt><trkpt lat="42.1564913" lon="13.6769218"><ele>816.0</ele><time>2026-05-02T11:53:21.633Z</time></trkpt><trkpt lat="42.1565013" lon="13.6770108"><ele>816.0</ele><time>2026-05-02T11:53:25.633Z</time></trkpt><trkpt lat="42.1565452" lon="13.6770824"><ele>816.0</ele><time>2026-05-02T11:53:30.633Z</time></trkpt><trkpt lat="42.1566081" lon="13.6771409"><ele>816.0</ele><time>2026-05-02T11:53:31.633Z</time></trkpt><trkpt lat="42.1566597" lon="13.6772303"><ele>816.0</ele><time>2026-05-02T11:53:32.634Z</time></trkpt><trkpt lat="42.1567088" lon="13.6773479"><ele>807.25</ele><time>2026-05-02T11:53:33.633Z</time></trkpt><trkpt lat="42.156752" lon="13.6774841"><ele>798.5</ele><time>2026-05-02T11:53:34.633Z</time></trkpt><trkpt lat="42.1567858" lon="13.6776312"><ele>789.75</ele><time>2026-05-02T11:53:35.633Z</time></trkpt><trkpt lat="42.1568117" lon="13.6777843"><ele>781.0</ele><time>2026-05-02T11:53:36.633Z</time></trkpt><trkpt lat="42.1568422" lon="13.6779427"><ele>779.5</ele><time>2026-05-02T11:53:37.633Z</time></trkpt><trkpt lat="42.1568889" lon="13.6780949"><ele>778.0</ele><time>2026-05-02T11:53:38.634Z</time></trkpt><trkpt lat="42.1569331" lon="13.6782507"><ele>776.5</ele><time>2026-05-02T11:53:39.634Z</time></trkpt><trkpt lat="42.1569742" lon="13.6784119"><ele>775.0</ele><time>2026-05-02T11:53:40.634Z</time></trkpt><trkpt lat="42.1570057" lon="13.6785469"><ele>775.75</ele><time>2026-05-02T11:53:41.634Z</time></trkpt><trkpt lat="42.1570438" lon="13.6786873"><ele>776.5</ele><time>2026-05-02T11:53:42.633Z</time></trkpt><trkpt lat="42.1570721" lon="13.6788434"><ele>777.25</ele><time>2026-05-02T11:53:43.633Z</time></trkpt><trkpt lat="42.1571012" lon="13.6789898"><ele>778.0</ele><time>2026-05-02T11:53:44.634Z</time></trkpt><trkpt lat="42.1571443" lon="13.6791258"><ele>778.0</ele><time>2026-05-02T11:53:45.634Z</time></trkpt><trkpt lat="42.157194" lon="13.6792361"><ele>778.0</ele><time>2026-05-02T11:53:46.633Z</time></trkpt><trkpt lat="42.1572276" lon="13.6793355"><ele>778.0</ele><time>2026-05-02T11:53:47.633Z</time></trkpt><trkpt lat="42.1572467" lon="13.6794389"><ele>778.0</ele><time>2026-05-02T11:53:48.633Z</time></trkpt><trkpt lat="42.1572424" lon="13.6795649"><ele>778.0</ele><time>2026-05-02T11:53:49.634Z</time></trkpt><trkpt lat="42.1572233" lon="13.6797078"><ele>774.5</ele><time>2026-05-02T11:53:50.633Z</time></trkpt><trkpt lat="42.1572003" lon="13.6798524"><ele>771.0</ele><time>2026-05-02T11:53:51.633Z</time></trkpt><trkpt lat="42.1571803" lon="13.6800074"><ele>767.5</ele><time>2026-05-02T11:53:52.633Z</time></trkpt><trkpt lat="42.1571587" lon="13.6801677"><ele>764.0</ele><time>2026-05-02T11:53:53.633Z</time></trkpt><trkpt lat="42.1571317" lon="13.6803309"><ele>759.25</ele><time>2026-05-02T11:53:54.633Z</time></trkpt><trkpt lat="42.1570911" lon="13.68049"><ele>754.5</ele><time>2026-05-02T11:53:55.633Z</time></trkpt><trkpt lat="42.157037" lon="13.6806443"><ele>749.75</ele><time>2026-05-02T11:53:56.633Z</time></trkpt><trkpt lat="42.1569802" lon="13.6807966"><ele>745.0</ele><time>2026-05-02T11:53:57.634Z</time></trkpt><trkpt lat="42.1569118" lon="13.6809378"><ele>745.0</ele><time>2026-05-02T11:53:58.633Z</time></trkpt><trkpt lat="42.1568355" lon="13.6810698"><ele>745.0</ele><time>2026-05-02T11:53:59.633Z</time></trkpt><trkpt lat="42.1567541" lon="13.6811939"><ele>745.0</ele><time>2026-05-02T11:54:00.634Z</time></trkpt><trkpt lat="42.1566682" lon="13.6813149"><ele>745.0</ele><time>2026-05-02T11:54:01.633Z</time></trkpt><trkpt lat="42.1565774" lon="13.6814323"><ele>741.75</ele><time>2026-05-02T11:54:02.633Z</time></trkpt><trkpt lat="42.1564845" lon="13.6815504"><ele>738.5</ele><time>2026-05-02T11:54:03.634Z</time></trkpt><trkpt lat="42.1563793" lon="13.6816731"><ele>735.25</ele><time>2026-05-02T11:54:04.634Z</time></trkpt><trkpt lat="42.1562626" lon="13.6817834"><ele>732.0</ele><time>2026-05-02T11:54:05.633Z</time></trkpt><trkpt lat="42.1561378" lon="13.6819028"><ele>731.0</ele><time>2026-05-02T11:54:06.633Z</time></trkpt><trkpt lat="42.1560174" lon="13.6820221"><ele>730.0</ele><time>2026-05-02T11:54:07.633Z</time></trkpt><trkpt lat="42.1558939" lon="13.682142"><ele>729.0</ele><time>2026-05-02T11:54:08.633Z</time></trkpt><trkpt lat="42.1557723" lon="13.6822604"><ele>725.5</ele><time>2026-05-02T11:54:09.634Z</time></trkpt><trkpt lat="42.1556489" lon="13.6823739"><ele>722.0</ele><time>2026-05-02T11:54:10.633Z</time></trkpt><trkpt lat="42.1555204" lon="13.6824775"><ele>718.5</ele><time>2026-05-02T11:54:11.633Z</time></trkpt><trkpt lat="42.1553965" lon="13.6825849"><ele>715.0</ele><time>2026-05-02T11:54:12.633Z</time></trkpt><trkpt lat="42.1552752" lon="13.6827019"><ele>715.0</ele><time>2026-05-02T11:54:13.633Z</time></trkpt><trkpt lat="42.1551573" lon="13.6828223"><ele>715.0</ele><time>2026-05-02T11:54:14.633Z</time></trkpt><trkpt lat="42.1550436" lon="13.6829474"><ele>715.0</ele><time>2026-05-02T11:54:15.633Z</time></trkpt><trkpt lat="42.1549372" lon="13.6830804"><ele>715.0</ele><time>2026-05-02T11:54:16.633Z</time></trkpt><trkpt lat="42.1548315" lon="13.6832116"><ele>712.25</ele><time>2026-05-02T11:54:17.633Z</time></trkpt><trkpt lat="42.1547237" lon="13.6833413"><ele>709.5</ele><time>2026-05-02T11:54:18.633Z</time></trkpt><trkpt lat="42.1546141" lon="13.6834651"><ele>706.75</ele><time>2026-05-02T11:54:19.633Z</time></trkpt><trkpt lat="42.1545229" lon="13.6835635"><ele>704.0</ele><time>2026-05-02T11:54:20.633Z</time></trkpt><trkpt lat="42.1544621" lon="13.6836329"><ele>702.8000000000001</ele><time>2026-05-02T11:54:21.633Z</time></trkpt><trkpt lat="42.1543994" lon="13.6837228"><ele>701.6</ele><time>2026-05-02T11:54:23.633Z</time></trkpt><trkpt lat="42.1543894" lon="13.6838624"><ele>700.4</ele><time>2026-05-02T11:54:25.633Z</time></trkpt><trkpt lat="42.154394" lon="13.6839702"><ele>699.2</ele><time>2026-05-02T11:54:26.634Z</time></trkpt><trkpt lat="42.1543958" lon="13.6841204"><ele>698.0</ele><time>2026-05-02T11:54:27.634Z</time></trkpt><trkpt lat="42.1543941" lon="13.6842909"><ele>697.3333333333333</ele><time>2026-05-02T11:54:28.633Z</time></trkpt><trkpt lat="42.1543853" lon="13.6844703"><ele>696.6666666666666</ele><time>2026-05-02T11:54:29.634Z</time></trkpt><trkpt lat="42.1543646" lon="13.6846835"><ele>696.0</ele><time>2026-05-02T11:54:30.633Z</time></trkpt><trkpt lat="42.1543359" lon="13.6849134"><ele>696.0</ele><time>2026-05-02T11:54:31.633Z</time></trkpt><trkpt lat="42.1543174" lon="13.6850815"><ele>696.0</ele><time>2026-05-02T11:54:32.633Z</time></trkpt><trkpt lat="42.1543045" lon="13.6851892"><ele>696.0</ele><time>2026-05-02T11:54:33.634Z</time></trkpt><trkpt lat="42.1542914" lon="13.6853052"><ele>696.0</ele><time>2026-05-02T11:54:35.634Z</time></trkpt><trkpt lat="42.1543494" lon="13.68517"><ele>696.0</ele><time>2026-05-02T11:54:41.633Z</time></trkpt><trkpt lat="42.1543586" lon="13.6850505"><ele>696.0</ele><time>2026-05-02T11:54:42.634Z</time></trkpt><trkpt lat="42.1543714" lon="13.6848982"><ele>696.0</ele><time>2026-05-02T11:54:43.633Z</time></trkpt><trkpt lat="42.1543892" lon="13.6847019"><ele>696.0</ele><time>2026-05-02T11:54:44.634Z</time></trkpt><trkpt lat="42.1544061" lon="13.6844899"><ele>696.0</ele><time>2026-05-02T11:54:45.634Z</time></trkpt><trkpt lat="42.1544195" lon="13.6842995"><ele>696.4</ele><time>2026-05-02T11:54:46.633Z</time></trkpt><trkpt lat="42.1544235" lon="13.6841162"><ele>696.8</ele><time>2026-05-02T11:54:47.633Z</time></trkpt><trkpt lat="42.1544196" lon="13.6839626"><ele>697.1999999999999</ele><time>2026-05-02T11:54:48.634Z</time></trkpt><trkpt lat="42.1544118" lon="13.6838493"><ele>697.5999999999999</ele><time>2026-05-02T11:54:49.634Z</time></trkpt><trkpt lat="42.1543771" lon="13.683718"><ele>698.0</ele><time>2026-05-02T11:54:51.633Z</time></trkpt><trkpt lat="42.1542742" lon="13.6836444"><ele>698.0</ele><time>2026-05-02T11:54:53.633Z</time></trkpt><trkpt lat="42.1542013" lon="13.6836393"><ele>698.0</ele><time>2026-05-02T11:54:54.634Z</time></trkpt><trkpt lat="42.1541306" lon="13.6836679"><ele>698.0</ele><time>2026-05-02T11:54:55.632Z</time></trkpt><trkpt lat="42.1540721" lon="13.6837302"><ele>698.0</ele><time>2026-05-02T11:54:56.634Z</time></trkpt><trkpt lat="42.1540357" lon="13.6838097"><ele>698.0</ele><time>2026-05-02T11:54:57.633Z</time></trkpt><trkpt lat="42.1540247" lon="13.6839291"><ele>698.0</ele><time>2026-05-02T11:54:59.633Z</time></trkpt><trkpt lat="42.1540537" lon="13.6840159"><ele>698.0</ele><time>2026-05-02T11:55:01.633Z</time></trkpt><trkpt lat="42.1541264" lon="13.6841396"><ele>698.0</ele><time>2026-05-02T11:55:03.633Z</time></trkpt><trkpt lat="42.1541438" lon="13.6842298"><ele>698.0</ele><time>2026-05-02T11:55:04.633Z</time></trkpt><trkpt lat="42.1541338" lon="13.6843462"><ele>698.0</ele><time>2026-05-02T11:55:05.633Z</time></trkpt><trkpt lat="42.154099" lon="13.6844844"><ele>698.0</ele><time>2026-05-02T11:55:06.634Z</time></trkpt><trkpt lat="42.1540572" lon="13.6846359"><ele>701.3333333333333</ele><time>2026-05-02T11:55:07.633Z</time></trkpt><trkpt lat="42.1540114" lon="13.6848149"><ele>704.6666666666666</ele><time>2026-05-02T11:55:08.633Z</time></trkpt><trkpt lat="42.153962" lon="13.685015"><ele>708.0</ele><time>2026-05-02T11:55:09.633Z</time></trkpt><trkpt lat="42.1539091" lon="13.6852294"><ele>703.0</ele><time>2026-05-02T11:55:10.633Z</time></trkpt><trkpt lat="42.1538493" lon="13.6854561"><ele>698.0</ele><time>2026-05-02T11:55:11.634Z</time></trkpt><trkpt lat="42.1537801" lon="13.6857185"><ele>693.0</ele><time>2026-05-02T11:55:12.633Z</time></trkpt><trkpt lat="42.1537116" lon="13.686"><ele>689.3333333333334</ele><time>2026-05-02T11:55:13.634Z</time></trkpt><trkpt lat="42.1536452" lon="13.6862838"><ele>685.6666666666667</ele><time>2026-05-02T11:55:14.633Z</time></trkpt><trkpt lat="42.1535802" lon="13.6865748"><ele>682.0</ele><time>2026-05-02T11:55:15.633Z</time></trkpt><trkpt lat="42.153517" lon="13.6868648"><ele>679.6666666666667</ele><time>2026-05-02T11:55:16.633Z</time></trkpt><trkpt lat="42.1534593" lon="13.6871548"><ele>677.3333333333334</ele><time>2026-05-02T11:55:17.633Z</time></trkpt><trkpt lat="42.1534051" lon="13.6874466"><ele>675.0</ele><time>2026-05-02T11:55:18.633Z</time></trkpt><trkpt lat="42.1533568" lon="13.6877399"><ele>673.6666666666666</ele><time>2026-05-02T11:55:19.634Z</time></trkpt><trkpt lat="42.1533155" lon="13.6880337"><ele>672.3333333333333</ele><time>2026-05-02T11:55:20.634Z</time></trkpt><trkpt lat="42.1532825" lon="13.6883271"><ele>671.0</ele><time>2026-05-02T11:55:21.633Z</time></trkpt><trkpt lat="42.1532539" lon="13.6886208"><ele>669.75</ele><time>2026-05-02T11:55:22.634Z</time></trkpt><trkpt lat="42.1532353" lon="13.6888887"><ele>668.5</ele><time>2026-05-02T11:55:23.633Z</time></trkpt><trkpt lat="42.1532219" lon="13.6890421"><ele>667.25</ele><time>2026-05-02T11:55:24.634Z</time></trkpt><trkpt lat="42.1532086" lon="13.6891663"><ele>666.0</ele><time>2026-05-02T11:55:25.634Z</time></trkpt><trkpt lat="42.1531977" lon="13.6892693"><ele>666.0</ele><time>2026-05-02T11:55:27.633Z</time></trkpt><trkpt lat="42.1532596" lon="13.6892059"><ele>666.0</ele><time>2026-05-02T11:55:38.634Z</time></trkpt><trkpt lat="42.1532615" lon="13.6891036"><ele>666.0</ele><time>2026-05-02T11:55:39.633Z</time></trkpt><trkpt lat="42.1532716" lon="13.6889721"><ele>666.0</ele><time>2026-05-02T11:55:40.633Z</time></trkpt><trkpt lat="42.1532813" lon="13.6888229"><ele>666.0</ele><time>2026-05-02T11:55:41.634Z</time></trkpt><trkpt lat="42.1532851" lon="13.6886376"><ele>667.25</ele><time>2026-05-02T11:55:42.634Z</time></trkpt><trkpt lat="42.1532972" lon="13.6884515"><ele>668.5</ele><time>2026-05-02T11:55:43.634Z</time></trkpt><trkpt lat="42.1533129" lon="13.6882751"><ele>669.75</ele><time>2026-05-02T11:55:44.633Z</time></trkpt><trkpt lat="42.1533292" lon="13.6881262"><ele>671.0</ele><time>2026-05-02T11:55:45.633Z</time></trkpt><trkpt lat="42.1533478" lon="13.6880029"><ele>671.0</ele><time>2026-05-02T11:55:46.634Z</time></trkpt><trkpt lat="42.153359" lon="13.6879064"><ele>671.0</ele><time>2026-05-02T11:55:47.633Z</time></trkpt><trkpt lat="42.1533398" lon="13.6877773"><ele>671.0</ele><time>2026-05-02T11:55:49.634Z</time></trkpt><trkpt lat="42.1532612" lon="13.6877189"><ele>671.0</ele><time>2026-05-02T11:55:51.633Z</time></trkpt><trkpt lat="42.1531274" lon="13.6877148"><ele>671.0</ele><time>2026-05-02T11:55:53.634Z</time></trkpt><trkpt lat="42.1530502" lon="13.6877464"><ele>670.1999999999999</ele><time>2026-05-02T11:55:54.633Z</time></trkpt><trkpt lat="42.1529656" lon="13.6878016"><ele>669.4</ele><time>2026-05-02T11:55:55.633Z</time></trkpt><trkpt lat="42.1528775" lon="13.6878631"><ele>668.6</ele><time>2026-05-02T11:55:56.633Z</time></trkpt><trkpt lat="42.1527865" lon="13.6879142"><ele>667.8</ele><time>2026-05-02T11:55:57.634Z</time></trkpt><trkpt lat="42.1526985" lon="13.6879618"><ele>667.0</ele><time>2026-05-02T11:55:58.633Z</time></trkpt><trkpt lat="42.1526178" lon="13.6880256"><ele>667.0</ele><time>2026-05-02T11:55:59.633Z</time></trkpt><trkpt lat="42.1525491" lon="13.688118"><ele>667.0</ele><time>2026-05-02T11:56:00.634Z</time></trkpt><trkpt lat="42.1524859" lon="13.6882345"><ele>667.0</ele><time>2026-05-02T11:56:01.633Z</time></trkpt><trkpt lat="42.1524319" lon="13.6883563"><ele>667.0</ele><time>2026-05-02T11:56:02.634Z</time></trkpt><trkpt lat="42.152376" lon="13.6884685"><ele>667.0</ele><time>2026-05-02T11:56:03.633Z</time></trkpt><trkpt lat="42.1523146" lon="13.6885799"><ele>666.2</ele><time>2026-05-02T11:56:04.633Z</time></trkpt><trkpt lat="42.152246" lon="13.6886877"><ele>665.4000000000001</ele><time>2026-05-02T11:56:05.633Z</time></trkpt><trkpt lat="42.1521698" lon="13.6887797"><ele>664.5999999999999</ele><time>2026-05-02T11:56:06.634Z</time></trkpt><trkpt lat="42.1520798" lon="13.6888616"><ele>663.8</ele><time>2026-05-02T11:56:07.633Z</time></trkpt><trkpt lat="42.1519805" lon="13.6889419"><ele>663.0</ele><time>2026-05-02T11:56:08.633Z</time></trkpt><trkpt lat="42.1518748" lon="13.6890285"><ele>663.0</ele><time>2026-05-02T11:56:09.633Z</time></trkpt><trkpt lat="42.1517636" lon="13.6891111"><ele>663.0</ele><time>2026-05-02T11:56:10.633Z</time></trkpt><trkpt lat="42.1516591" lon="13.689185"><ele>663.0</ele><time>2026-05-02T11:56:11.633Z</time></trkpt><trkpt lat="42.1515602" lon="13.6892539"><ele>663.0</ele><time>2026-05-02T11:56:12.633Z</time></trkpt><trkpt lat="42.1514661" lon="13.6893179"><ele>662.8</ele><time>2026-05-02T11:56:13.633Z</time></trkpt><trkpt lat="42.151385" lon="13.6893692"><ele>662.5999999999999</ele><time>2026-05-02T11:56:14.634Z</time></trkpt><trkpt lat="42.1513167" lon="13.6894163"><ele>662.4000000000001</ele><time>2026-05-02T11:56:15.633Z</time></trkpt><trkpt lat="42.1512307" lon="13.6894852"><ele>662.2</ele><time>2026-05-02T11:56:17.634Z</time></trkpt><trkpt lat="42.1511606" lon="13.6896314"><ele>662.0</ele><time>2026-05-02T11:56:19.633Z</time></trkpt><trkpt lat="42.1511317" lon="13.6897433"><ele>662.0</ele><time>2026-05-02T11:56:20.633Z</time></trkpt><trkpt lat="42.1510957" lon="13.6898563"><ele>662.0</ele><time>2026-05-02T11:56:21.633Z</time></trkpt><trkpt lat="42.1510709" lon="13.6900247"><ele>662.0</ele><time>2026-05-02T11:56:22.633Z</time></trkpt><trkpt lat="42.1510318" lon="13.6901784"><ele>662.0</ele><time>2026-05-02T11:56:23.633Z</time></trkpt><trkpt lat="42.1509953" lon="13.6903211"><ele>662.0</ele><time>2026-05-02T11:56:24.633Z</time></trkpt><trkpt lat="42.1509571" lon="13.6904561"><ele>662.0</ele><time>2026-05-02T11:56:25.633Z</time></trkpt><trkpt lat="42.1509154" lon="13.6905966"><ele>662.0</ele><time>2026-05-02T11:56:26.633Z</time></trkpt><trkpt lat="42.1508689" lon="13.6907391"><ele>662.0</ele><time>2026-05-02T11:56:27.633Z</time></trkpt><trkpt lat="42.1508239" lon="13.6908805"><ele>662.0</ele><time>2026-05-02T11:56:28.633Z</time></trkpt><trkpt lat="42.1507788" lon="13.691024"><ele>662.0</ele><time>2026-05-02T11:56:29.633Z</time></trkpt><trkpt lat="42.150734" lon="13.6911729"><ele>662.0</ele><time>2026-05-02T11:56:30.633Z</time></trkpt><trkpt lat="42.1506868" lon="13.6913204"><ele>662.0</ele><time>2026-05-02T11:56:31.634Z</time></trkpt><trkpt lat="42.1506394" lon="13.691467"><ele>662.0</ele><time>2026-05-02T11:56:32.633Z</time></trkpt><trkpt lat="42.1505931" lon="13.6916117"><ele>661.5</ele><time>2026-05-02T11:56:33.633Z</time></trkpt><trkpt lat="42.1505413" lon="13.6917471"><ele>661.0</ele><time>2026-05-02T11:56:34.633Z</time></trkpt><trkpt lat="42.1504789" lon="13.6918748"><ele>660.5</ele><time>2026-05-02T11:56:35.633Z</time></trkpt><trkpt lat="42.1504166" lon="13.6920081"><ele>660.0</ele><time>2026-05-02T11:56:36.633Z</time></trkpt><trkpt lat="42.1503604" lon="13.6921425"><ele>660.0</ele><time>2026-05-02T11:56:37.633Z</time></trkpt><trkpt lat="42.1503129" lon="13.6922741"><ele>660.0</ele><time>2026-05-02T11:56:38.633Z</time></trkpt><trkpt lat="42.1502684" lon="13.6924022"><ele>660.0</ele><time>2026-05-02T11:56:39.633Z</time></trkpt><trkpt lat="42.1502266" lon="13.6925273"><ele>660.0</ele><time>2026-05-02T11:56:40.634Z</time></trkpt><trkpt lat="42.1501816" lon="13.6926457"><ele>660.0</ele><time>2026-05-02T11:56:41.633Z</time></trkpt><trkpt lat="42.1501237" lon="13.6927313"><ele>659.6</ele><time>2026-05-02T11:56:42.633Z</time></trkpt><trkpt lat="42.150046" lon="13.6928136"><ele>659.2</ele><time>2026-05-02T11:56:43.633Z</time></trkpt><trkpt lat="42.1499697" lon="13.6928781"><ele>658.8</ele><time>2026-05-02T11:56:44.634Z</time></trkpt><trkpt lat="42.1499063" lon="13.6929414"><ele>658.4</ele><time>2026-05-02T11:56:45.633Z</time></trkpt><trkpt lat="42.1498466" lon="13.6930343"><ele>658.0</ele><time>2026-05-02T11:56:46.633Z</time></trkpt><trkpt lat="42.1497927" lon="13.6931382"><ele>656.4</ele><time>2026-05-02T11:56:47.633Z</time></trkpt><trkpt lat="42.1497435" lon="13.6932483"><ele>654.8</ele><time>2026-05-02T11:56:48.633Z</time></trkpt><trkpt lat="42.1496911" lon="13.6933642"><ele>653.2</ele><time>2026-05-02T11:56:49.633Z</time></trkpt><trkpt lat="42.1496385" lon="13.6934775"><ele>651.6</ele><time>2026-05-02T11:56:50.633Z</time></trkpt><trkpt lat="42.1495834" lon="13.6935976"><ele>650.0</ele><time>2026-05-02T11:56:51.633Z</time></trkpt><trkpt lat="42.149529" lon="13.6937142"><ele>650.0</ele><time>2026-05-02T11:56:52.633Z</time></trkpt><trkpt lat="42.1494731" lon="13.6938244"><ele>650.0</ele><time>2026-05-02T11:56:53.633Z</time></trkpt><trkpt lat="42.1494192" lon="13.6939333"><ele>650.0</ele><time>2026-05-02T11:56:54.633Z</time></trkpt><trkpt lat="42.1493701" lon="13.6940369"><ele>650.0</ele><time>2026-05-02T11:56:55.634Z</time></trkpt><trkpt lat="42.1493192" lon="13.6941401"><ele>650.0</ele><time>2026-05-02T11:56:56.634Z</time></trkpt><trkpt lat="42.1492678" lon="13.6942395"><ele>650.0</ele><time>2026-05-02T11:56:57.633Z</time></trkpt><trkpt lat="42.1492168" lon="13.6943379"><ele>650.0</ele><time>2026-05-02T11:56:58.634Z</time></trkpt><trkpt lat="42.1491598" lon="13.6944291"><ele>650.0</ele><time>2026-05-02T11:56:59.634Z</time></trkpt><trkpt lat="42.1490921" lon="13.6945215"><ele>650.0</ele><time>2026-05-02T11:57:00.634Z</time></trkpt><trkpt lat="42.1490254" lon="13.6946175"><ele>650.0</ele><time>2026-05-02T11:57:01.633Z</time></trkpt><trkpt lat="42.1489658" lon="13.694718"><ele>650.0</ele><time>2026-05-02T11:57:02.633Z</time></trkpt><trkpt lat="42.1489095" lon="13.6948247"><ele>650.0</ele><time>2026-05-02T11:57:03.634Z</time></trkpt><trkpt lat="42.1488575" lon="13.6949371"><ele>650.0</ele><time>2026-05-02T11:57:04.633Z</time></trkpt><trkpt lat="42.1487968" lon="13.6950376"><ele>650.0</ele><time>2026-05-02T11:57:05.633Z</time></trkpt><trkpt lat="42.1487241" lon="13.6951175"><ele>650.0</ele><time>2026-05-02T11:57:06.633Z</time></trkpt><trkpt lat="42.1486495" lon="13.6951886"><ele>650.4</ele><time>2026-05-02T11:57:07.634Z</time></trkpt><trkpt lat="42.1485573" lon="13.6952562"><ele>650.8</ele><time>2026-05-02T11:57:08.633Z</time></trkpt><trkpt lat="42.148475" lon="13.6953282"><ele>651.2</ele><time>2026-05-02T11:57:09.633Z</time></trkpt><trkpt lat="42.1484038" lon="13.695401"><ele>651.6</ele><time>2026-05-02T11:57:10.634Z</time></trkpt><trkpt lat="42.1483528" lon="13.6954865"><ele>652.0</ele><time>2026-05-02T11:57:11.633Z</time></trkpt><trkpt lat="42.1483089" lon="13.6955827"><ele>652.0</ele><time>2026-05-02T11:57:12.633Z</time></trkpt><trkpt lat="42.1482683" lon="13.6956728"><ele>652.0</ele><time>2026-05-02T11:57:13.634Z</time></trkpt><trkpt lat="42.1482291" lon="13.6957628"><ele>652.0</ele><time>2026-05-02T11:57:14.634Z</time></trkpt><trkpt lat="42.1481839" lon="13.6958454"><ele>652.0</ele><time>2026-05-02T11:57:15.633Z</time></trkpt><trkpt lat="42.1481193" lon="13.6959125"><ele>652.0</ele><time>2026-05-02T11:57:16.633Z</time></trkpt><trkpt lat="42.1480448" lon="13.6959575"><ele>652.0</ele><time>2026-05-02T11:57:17.633Z</time></trkpt><trkpt lat="42.1479699" lon="13.6959838"><ele>651.5</ele><time>2026-05-02T11:57:18.633Z</time></trkpt><trkpt lat="42.1478906" lon="13.696001"><ele>651.0</ele><time>2026-05-02T11:57:19.634Z</time></trkpt><trkpt lat="42.1478129" lon="13.6960221"><ele>650.5</ele><time>2026-05-02T11:57:20.633Z</time></trkpt><trkpt lat="42.1477393" lon="13.6960416"><ele>650.0</ele><time>2026-05-02T11:57:21.633Z</time></trkpt><trkpt lat="42.1476643" lon="13.6960569"><ele>649.5</ele><time>2026-05-02T11:57:22.634Z</time></trkpt><trkpt lat="42.1475795" lon="13.6960751"><ele>649.0</ele><time>2026-05-02T11:57:23.633Z</time></trkpt><trkpt lat="42.1474958" lon="13.6960899"><ele>648.8333333333334</ele><time>2026-05-02T11:57:24.634Z</time></trkpt><trkpt lat="42.1474065" lon="13.6961092"><ele>648.6666666666667</ele><time>2026-05-02T11:57:25.633Z</time></trkpt><trkpt lat="42.147325" lon="13.6961274"><ele>648.5</ele><time>2026-05-02T11:57:26.633Z</time></trkpt><trkpt lat="42.1472484" lon="13.6961432"><ele>648.3333333333334</ele><time>2026-05-02T11:57:27.634Z</time></trkpt><trkpt lat="42.1471693" lon="13.696146"><ele>648.1666666666666</ele><time>2026-05-02T11:57:28.633Z</time></trkpt><trkpt lat="42.1470977" lon="13.6961354"><ele>648.0</ele><time>2026-05-02T11:57:29.633Z</time></trkpt><trkpt lat="42.1470331" lon="13.6960991"><ele>647.3333333333334</ele><time>2026-05-02T11:57:30.634Z</time></trkpt><trkpt lat="42.1469671" lon="13.6960554"><ele>646.6666666666666</ele><time>2026-05-02T11:57:31.634Z</time></trkpt><trkpt lat="42.1468977" lon="13.6960186"><ele>646.0</ele><time>2026-05-02T11:57:32.633Z</time></trkpt><trkpt lat="42.1468238" lon="13.6959835"><ele>645.3333333333333</ele><time>2026-05-02T11:57:33.633Z</time></trkpt><trkpt lat="42.1467436" lon="13.6959498"><ele>644.6666666666666</ele><time>2026-05-02T11:57:34.633Z</time></trkpt><trkpt lat="42.1466632" lon="13.6959247"><ele>644.0</ele><time>2026-05-02T11:57:35.633Z</time></trkpt><trkpt lat="42.1465759" lon="13.6959012"><ele>642.0</ele><time>2026-05-02T11:57:36.634Z</time></trkpt><trkpt lat="42.1465015" lon="13.6958823"><ele>640.0</ele><time>2026-05-02T11:57:37.634Z</time></trkpt><trkpt lat="42.1464368" lon="13.6958591"><ele>638.0</ele><time>2026-05-02T11:57:38.633Z</time></trkpt><trkpt lat="42.1463631" lon="13.6958395"><ele>636.0</ele><time>2026-05-02T11:57:39.633Z</time></trkpt><trkpt lat="42.1462839" lon="13.6958351"><ele>634.0</ele><time>2026-05-02T11:57:40.633Z</time></trkpt><trkpt lat="42.1462003" lon="13.6958441"><ele>632.0</ele><time>2026-05-02T11:57:41.634Z</time></trkpt><trkpt lat="42.1461147" lon="13.6958658"><ele>632.0</ele><time>2026-05-02T11:57:42.634Z</time></trkpt><trkpt lat="42.1460266" lon="13.6958963"><ele>632.0</ele><time>2026-05-02T11:57:43.633Z</time></trkpt><trkpt lat="42.1459362" lon="13.6959342"><ele>632.0</ele><time>2026-05-02T11:57:44.634Z</time></trkpt><trkpt lat="42.1458466" lon="13.6959704"><ele>632.0</ele><time>2026-05-02T11:57:45.634Z</time></trkpt><trkpt lat="42.1457533" lon="13.696008"><ele>632.0</ele><time>2026-05-02T11:57:46.633Z</time></trkpt><trkpt lat="42.1456605" lon="13.6960446"><ele>629.6</ele><time>2026-05-02T11:57:47.633Z</time></trkpt><trkpt lat="42.1455679" lon="13.6960854"><ele>627.2</ele><time>2026-05-02T11:57:48.633Z</time></trkpt><trkpt lat="42.1454762" lon="13.6961296"><ele>624.8</ele><time>2026-05-02T11:57:49.634Z</time></trkpt><trkpt lat="42.1453837" lon="13.6961727"><ele>622.4</ele><time>2026-05-02T11:57:50.634Z</time></trkpt><trkpt lat="42.1452876" lon="13.6962074"><ele>620.0</ele><time>2026-05-02T11:57:51.634Z</time></trkpt><trkpt lat="42.1451852" lon="13.6962413"><ele>620.0</ele><time>2026-05-02T11:57:52.634Z</time></trkpt><trkpt lat="42.1450778" lon="13.6962698"><ele>620.0</ele><time>2026-05-02T11:57:53.633Z</time></trkpt><trkpt lat="42.1449647" lon="13.696291"><ele>620.0</ele><time>2026-05-02T11:57:54.633Z</time></trkpt><trkpt lat="42.1448491" lon="13.6963074"><ele>620.0</ele><time>2026-05-02T11:57:55.633Z</time></trkpt><trkpt lat="42.1447313" lon="13.6963236"><ele>617.25</ele><time>2026-05-02T11:57:56.633Z</time></trkpt><trkpt lat="42.1446153" lon="13.6963429"><ele>614.5</ele><time>2026-05-02T11:57:57.634Z</time></trkpt><trkpt lat="42.1444994" lon="13.6963632"><ele>611.75</ele><time>2026-05-02T11:57:58.634Z</time></trkpt><trkpt lat="42.1443866" lon="13.696397"><ele>609.0</ele><time>2026-05-02T11:57:59.633Z</time></trkpt><trkpt lat="42.1442828" lon="13.6964485"><ele>609.0</ele><time>2026-05-02T11:58:00.633Z</time></trkpt><trkpt lat="42.144186" lon="13.6965141"><ele>609.0</ele><time>2026-05-02T11:58:01.633Z</time></trkpt><trkpt lat="42.1440911" lon="13.696593"><ele>609.0</ele><time>2026-05-02T11:58:02.633Z</time></trkpt><trkpt lat="42.1439994" lon="13.6966829"><ele>609.0</ele><time>2026-05-02T11:58:03.633Z</time></trkpt><trkpt lat="42.1439053" lon="13.6967748"><ele>609.0</ele><time>2026-05-02T11:58:04.633Z</time></trkpt><trkpt lat="42.1438008" lon="13.696855"><ele>605.5</ele><time>2026-05-02T11:58:05.633Z</time></trkpt><trkpt lat="42.1436883" lon="13.6969216"><ele>602.0</ele><time>2026-05-02T11:58:06.633Z</time></trkpt><trkpt lat="42.1435731" lon="13.6969828"><ele>598.5</ele><time>2026-05-02T11:58:07.633Z</time></trkpt><trkpt lat="42.1434575" lon="13.6970465"><ele>595.0</ele><time>2026-05-02T11:58:08.634Z</time></trkpt><trkpt lat="42.1433446" lon="13.6971244"><ele>595.0</ele><time>2026-05-02T11:58:09.634Z</time></trkpt><trkpt lat="42.1432361" lon="13.6972155"><ele>595.0</ele><time>2026-05-02T11:58:10.634Z</time></trkpt><trkpt lat="42.14313" lon="13.6973079"><ele>595.0</ele><time>2026-05-02T11:58:11.633Z</time></trkpt><trkpt lat="42.143024" lon="13.6973975"><ele>595.0</ele><time>2026-05-02T11:58:12.633Z</time></trkpt><trkpt lat="42.1429179" lon="13.6974826"><ele>593.75</ele><time>2026-05-02T11:58:13.634Z</time></trkpt><trkpt lat="42.142811" lon="13.6975652"><ele>592.5</ele><time>2026-05-02T11:58:14.633Z</time></trkpt><trkpt lat="42.1427023" lon="13.6976448"><ele>591.25</ele><time>2026-05-02T11:58:15.633Z</time></trkpt><trkpt lat="42.1425963" lon="13.6977167"><ele>590.0</ele><time>2026-05-02T11:58:16.633Z</time></trkpt><trkpt lat="42.1424979" lon="13.6977823"><ele>588.8</ele><time>2026-05-02T11:58:17.634Z</time></trkpt><trkpt lat="42.1424042" lon="13.6978444"><ele>587.6</ele><time>2026-05-02T11:58:18.633Z</time></trkpt><trkpt lat="42.1423111" lon="13.6979048"><ele>586.4</ele><time>2026-05-02T11:58:19.633Z</time></trkpt><trkpt lat="42.1422187" lon="13.6979607"><ele>585.2</ele><time>2026-05-02T11:58:20.634Z</time></trkpt><trkpt lat="42.1421244" lon="13.6980107"><ele>584.0</ele><time>2026-05-02T11:58:21.633Z</time></trkpt><trkpt lat="42.1420295" lon="13.6980517"><ele>582.6</ele><time>2026-05-02T11:58:22.633Z</time></trkpt><trkpt lat="42.1419409" lon="13.6980791"><ele>581.2</ele><time>2026-05-02T11:58:23.634Z</time></trkpt><trkpt lat="42.1418523" lon="13.6980987"><ele>579.8000000000001</ele><time>2026-05-02T11:58:24.633Z</time></trkpt><trkpt lat="42.1417606" lon="13.698112"><ele>578.4</ele><time>2026-05-02T11:58:25.634Z</time></trkpt><trkpt lat="42.1416647" lon="13.6981202"><ele>577.0</ele><time>2026-05-02T11:58:26.633Z</time></trkpt><trkpt lat="42.1415751" lon="13.6981141"><ele>575.0</ele><time>2026-05-02T11:58:27.633Z</time></trkpt><trkpt lat="42.1415064" lon="13.6980942"><ele>573.0</ele><time>2026-05-02T11:58:28.634Z</time></trkpt><trkpt lat="42.1413764" lon="13.6980624"><ele>571.0</ele><time>2026-05-02T11:58:30.633Z</time></trkpt><trkpt lat="42.1412987" lon="13.6980362"><ele>569.0</ele><time>2026-05-02T11:58:31.634Z</time></trkpt><trkpt lat="42.1412206" lon="13.6980013"><ele>567.0</ele><time>2026-05-02T11:58:32.633Z</time></trkpt><trkpt lat="42.1411471" lon="13.6979591"><ele>565.0</ele><time>2026-05-02T11:58:33.633Z</time></trkpt><trkpt lat="42.1410828" lon="13.6979094"><ele>565.0</ele><time>2026-05-02T11:58:34.633Z</time></trkpt><trkpt lat="42.1410051" lon="13.6978191"><ele>565.0</ele><time>2026-05-02T11:58:36.633Z</time></trkpt><trkpt lat="42.1409483" lon="13.6977079"><ele>565.0</ele><time>2026-05-02T11:58:38.633Z</time></trkpt><trkpt lat="42.1409103" lon="13.6976245"><ele>565.0</ele><time>2026-05-02T11:58:42.633Z</time></trkpt><trkpt lat="42.1408432" lon="13.6976574"><ele>565.0</ele><time>2026-05-02T11:58:45.634Z</time></trkpt><trkpt lat="42.1407924" lon="13.6978007"><ele>565.0</ele><time>2026-05-02T11:58:47.633Z</time></trkpt><trkpt lat="42.1407552" lon="13.6978904"><ele>565.0</ele><time>2026-05-02T11:58:48.633Z</time></trkpt><trkpt lat="42.1407161" lon="13.6979754"><ele>565.0</ele><time>2026-05-02T11:58:49.633Z</time></trkpt><trkpt lat="42.140677" lon="13.6980559"><ele>565.0</ele><time>2026-05-02T11:58:50.634Z</time></trkpt><trkpt lat="42.1406128" lon="13.6981484"><ele>565.0</ele><time>2026-05-02T11:58:52.633Z</time></trkpt><trkpt lat="42.1405261" lon="13.6981247"><ele>565.0</ele><time>2026-05-02T11:58:55.633Z</time></trkpt><trkpt lat="42.1404765" lon="13.6980124"><ele>565.3333333333334</ele><time>2026-05-02T11:58:57.633Z</time></trkpt><trkpt lat="42.1404418" lon="13.6979323"><ele>565.6666666666667</ele><time>2026-05-02T11:58:58.633Z</time></trkpt><trkpt lat="42.140404" lon="13.6978529"><ele>566.0</ele><time>2026-05-02T11:58:59.634Z</time></trkpt><trkpt lat="42.1403619" lon="13.6977726"><ele>566.3333333333334</ele><time>2026-05-02T11:59:00.634Z</time></trkpt><trkpt lat="42.1403124" lon="13.6976915"><ele>566.6666666666666</ele><time>2026-05-02T11:59:01.634Z</time></trkpt><trkpt lat="42.1402502" lon="13.6976038"><ele>567.0</ele><time>2026-05-02T11:59:02.633Z</time></trkpt><trkpt lat="42.1401858" lon="13.6975241"><ele>567.0</ele><time>2026-05-02T11:59:03.633Z</time></trkpt><trkpt lat="42.1401273" lon="13.6974614"><ele>567.0</ele><time>2026-05-02T11:59:04.633Z</time></trkpt><trkpt lat="42.1400715" lon="13.697416"><ele>567.0</ele><time>2026-05-02T11:59:05.634Z</time></trkpt><trkpt lat="42.1399691" lon="13.6973951"><ele>567.0</ele><time>2026-05-02T11:59:07.633Z</time></trkpt><trkpt lat="42.1398473" lon="13.6974138"><ele>567.0</ele><time>2026-05-02T11:59:09.633Z</time></trkpt><trkpt lat="42.1397728" lon="13.6974289"><ele>567.0</ele><time>2026-05-02T11:59:10.633Z</time></trkpt><trkpt lat="42.1397083" lon="13.6974378"><ele>568.1666666666666</ele><time>2026-05-02T11:59:11.633Z</time></trkpt><trkpt lat="42.1396105" lon="13.6973979"><ele>569.3333333333334</ele><time>2026-05-02T11:59:13.634Z</time></trkpt><trkpt lat="42.1395473" lon="13.6973629"><ele>570.5</ele><time>2026-05-02T11:59:14.633Z</time></trkpt><trkpt lat="42.1394822" lon="13.6973315"><ele>571.6666666666667</ele><time>2026-05-02T11:59:15.633Z</time></trkpt><trkpt lat="42.139418" lon="13.6973086"><ele>572.8333333333334</ele><time>2026-05-02T11:59:16.633Z</time></trkpt><trkpt lat="42.1392979" lon="13.6973078"><ele>574.0</ele><time>2026-05-02T11:59:18.633Z</time></trkpt><trkpt lat="42.1392238" lon="13.6973029"><ele>574.0</ele><time>2026-05-02T11:59:19.633Z</time></trkpt><trkpt lat="42.1391441" lon="13.6972834"><ele>574.0</ele><time>2026-05-02T11:59:20.634Z</time></trkpt><trkpt lat="42.1390794" lon="13.6972493"><ele>574.0</ele><time>2026-05-02T11:59:21.633Z</time></trkpt><trkpt lat="42.1390197" lon="13.6972083"><ele>574.0</ele><time>2026-05-02T11:59:22.633Z</time></trkpt><trkpt lat="42.1389597" lon="13.6971591"><ele>574.0</ele><time>2026-05-02T11:59:23.634Z</time></trkpt><trkpt lat="42.1388995" lon="13.6971028"><ele>574.0</ele><time>2026-05-02T11:59:24.634Z</time></trkpt><trkpt lat="42.1388442" lon="13.6970359"><ele>574.0</ele><time>2026-05-02T11:59:25.633Z</time></trkpt><trkpt lat="42.1387971" lon="13.6969587"><ele>575.8333333333334</ele><time>2026-05-02T11:59:26.634Z</time></trkpt><trkpt lat="42.1387515" lon="13.696888"><ele>577.6666666666667</ele><time>2026-05-02T11:59:27.634Z</time></trkpt><trkpt lat="42.1386966" lon="13.6968271"><ele>579.5</ele><time>2026-05-02T11:59:28.634Z</time></trkpt><trkpt lat="42.1386332" lon="13.696777"><ele>581.3333333333334</ele><time>2026-05-02T11:59:29.634Z</time></trkpt><trkpt lat="42.138557" lon="13.6967327"><ele>583.1666666666666</ele><time>2026-05-02T11:59:30.634Z</time></trkpt><trkpt lat="42.1384809" lon="13.6966875"><ele>585.0</ele><time>2026-05-02T11:59:31.634Z</time></trkpt><trkpt lat="42.1383967" lon="13.6966446"><ele>585.0</ele><time>2026-05-02T11:59:32.634Z</time></trkpt><trkpt lat="42.1383043" lon="13.6965957"><ele>585.0</ele><time>2026-05-02T11:59:33.633Z</time></trkpt><trkpt lat="42.1382086" lon="13.6965497"><ele>585.0</ele><time>2026-05-02T11:59:34.634Z</time></trkpt><trkpt lat="42.1381096" lon="13.6965077"><ele>585.0</ele><time>2026-05-02T11:59:35.633Z</time></trkpt><trkpt lat="42.1380071" lon="13.6964692"><ele>585.0</ele><time>2026-05-02T11:59:36.633Z</time></trkpt><trkpt lat="42.1379133" lon="13.6964296"><ele>586.0</ele><time>2026-05-02T11:59:37.633Z</time></trkpt><trkpt lat="42.1378296" lon="13.6963934"><ele>587.0</ele><time>2026-05-02T11:59:38.633Z</time></trkpt><trkpt lat="42.1377606" lon="13.6963535"><ele>588.0</ele><time>2026-05-02T11:59:39.633Z</time></trkpt><trkpt lat="42.1376932" lon="13.6963029"><ele>589.0</ele><time>2026-05-02T11:59:40.633Z</time></trkpt><trkpt lat="42.1376236" lon="13.6962441"><ele>590.0</ele><time>2026-05-02T11:59:41.633Z</time></trkpt><trkpt lat="42.1375146" lon="13.6961384"><ele>590.0</ele><time>2026-05-02T11:59:43.633Z</time></trkpt><trkpt lat="42.1374297" lon="13.6961024"><ele>590.0</ele><time>2026-05-02T11:59:45.633Z</time></trkpt><trkpt lat="42.1373421" lon="13.6960749"><ele>590.0</ele><time>2026-05-02T11:59:47.633Z</time></trkpt><trkpt lat="42.1372652" lon="13.6960594"><ele>590.0</ele><time>2026-05-02T11:59:49.634Z</time></trkpt><trkpt lat="42.1371988" lon="13.696066"><ele>590.0</ele><time>2026-05-02T11:59:51.633Z</time></trkpt><trkpt lat="42.1371151" lon="13.6960884"><ele>590.0</ele><time>2026-05-02T11:59:53.634Z</time></trkpt><trkpt lat="42.1370185" lon="13.6961159"><ele>591.0</ele><time>2026-05-02T11:59:55.634Z</time></trkpt><trkpt lat="42.1369094" lon="13.6961309"><ele>592.0</ele><time>2026-05-02T11:59:57.633Z</time></trkpt><trkpt lat="42.1368455" lon="13.6961386"><ele>593.0</ele><time>2026-05-02T11:59:58.633Z</time></trkpt><trkpt lat="42.136782" lon="13.6961428"><ele>594.0</ele><time>2026-05-02T11:59:59.634Z</time></trkpt><trkpt lat="42.1367174" lon="13.6961474"><ele>595.0</ele><time>2026-05-02T12:02:42.633Z</time></trkpt><trkpt lat="42.1366443" lon="13.6961355"><ele>596.0</ele><time>2026-05-02T12:02:47.633Z</time></trkpt><trkpt lat="42.1365465" lon="13.6961208"><ele>597.1666666666666</ele><time>2026-05-02T12:02:50.634Z</time></trkpt><trkpt lat="42.1364418" lon="13.696096"><ele>598.3333333333333</ele><time>2026-05-02T12:02:52.634Z</time></trkpt><trkpt lat="42.1363738" lon="13.6960993"><ele>599.5</ele><time>2026-05-02T12:02:53.634Z</time></trkpt><trkpt lat="42.1363037" lon="13.6961059"><ele>600.6666666666666</ele><time>2026-05-02T12:02:54.633Z</time></trkpt><trkpt lat="42.1362296" lon="13.6961156"><ele>601.8333333333334</ele><time>2026-05-02T12:02:55.634Z</time></trkpt><trkpt lat="42.1361474" lon="13.6961145"><ele>603.0</ele><time>2026-05-02T12:02:56.633Z</time></trkpt><trkpt lat="42.1360658" lon="13.6961217"><ele>603.0</ele><time>2026-05-02T12:02:57.633Z</time></trkpt><trkpt lat="42.1359885" lon="13.6961238"><ele>603.0</ele><time>2026-05-02T12:02:58.633Z</time></trkpt><trkpt lat="42.1358605" lon="13.6960968"><ele>603.0</ele><time>2026-05-02T12:03:00.633Z</time></trkpt><trkpt lat="42.1357875" lon="13.6960736"><ele>603.0</ele><time>2026-05-02T12:03:01.633Z</time></trkpt><trkpt lat="42.1357162" lon="13.6960545"><ele>603.0</ele><time>2026-05-02T12:03:02.633Z</time></trkpt><trkpt lat="42.1356372" lon="13.6960124"><ele>603.0</ele><time>2026-05-02T12:03:03.633Z</time></trkpt><trkpt lat="42.1355637" lon="13.6959787"><ele>605.0</ele><time>2026-05-02T12:03:04.633Z</time></trkpt><trkpt lat="42.1354966" lon="13.6959493"><ele>607.0</ele><time>2026-05-02T12:03:05.633Z</time></trkpt><trkpt lat="42.1354276" lon="13.6959237"><ele>609.0</ele><time>2026-05-02T12:03:06.633Z</time></trkpt><trkpt lat="42.1352975" lon="13.6958794"><ele>611.0</ele><time>2026-05-02T12:03:08.633Z</time></trkpt><trkpt lat="42.1351848" lon="13.6958847"><ele>613.0</ele><time>2026-05-02T12:03:10.633Z</time></trkpt><trkpt lat="42.1350417" lon="13.6959164"><ele>613.0</ele><time>2026-05-02T12:03:12.632Z</time></trkpt><trkpt lat="42.1349554" lon="13.6959343"><ele>613.0</ele><time>2026-05-02T12:03:13.633Z</time></trkpt><trkpt lat="42.134875" lon="13.6959553"><ele>613.0</ele><time>2026-05-02T12:03:14.632Z</time></trkpt><trkpt lat="42.1347779" lon="13.6959595"><ele>613.0</ele><time>2026-05-02T12:03:15.633Z</time></trkpt><trkpt lat="42.1346732" lon="13.6959657"><ele>613.0</ele><time>2026-05-02T12:03:16.633Z</time></trkpt><trkpt lat="42.1345933" lon="13.6959736"><ele>613.0</ele><time>2026-05-02T12:03:17.633Z</time></trkpt><trkpt lat="42.1344824" lon="13.6960062"><ele>613.0</ele><time>2026-05-02T12:03:19.633Z</time></trkpt><trkpt lat="42.1343849" lon="13.6960926"><ele>613.0</ele><time>2026-05-02T12:03:21.633Z</time></trkpt><trkpt lat="42.1343333" lon="13.6961518"><ele>613.0</ele><time>2026-05-02T12:03:22.634Z</time></trkpt><trkpt lat="42.1342826" lon="13.6962236"><ele>613.0</ele><time>2026-05-02T12:03:23.634Z</time></trkpt><trkpt lat="42.1342362" lon="13.6963068"><ele>613.0</ele><time>2026-05-02T12:03:24.633Z</time></trkpt><trkpt lat="42.1341833" lon="13.6963926"><ele>613.0</ele><time>2026-05-02T12:03:25.633Z</time></trkpt><trkpt lat="42.134123" lon="13.6964809"><ele>613.0</ele><time>2026-05-02T12:03:26.634Z</time></trkpt><trkpt lat="42.1340618" lon="13.6965629"><ele>613.0</ele><time>2026-05-02T12:03:27.634Z</time></trkpt><trkpt lat="42.133995" lon="13.6966423"><ele>613.0</ele><time>2026-05-02T12:03:28.633Z</time></trkpt><trkpt lat="42.1339233" lon="13.6967117"><ele>613.0</ele><time>2026-05-02T12:03:29.634Z</time></trkpt><trkpt lat="42.1338551" lon="13.6967784"><ele>613.0</ele><time>2026-05-02T12:03:30.633Z</time></trkpt><trkpt lat="42.1337953" lon="13.6968526"><ele>611.8333333333334</ele><time>2026-05-02T12:03:31.633Z</time></trkpt><trkpt lat="42.1337376" lon="13.6969244"><ele>610.6666666666667</ele><time>2026-05-02T12:03:32.633Z</time></trkpt><trkpt lat="42.1336761" lon="13.6970063"><ele>609.5</ele><time>2026-05-02T12:03:33.634Z</time></trkpt><trkpt lat="42.1336173" lon="13.6970827"><ele>608.3333333333334</ele><time>2026-05-02T12:03:34.633Z</time></trkpt><trkpt lat="42.1335676" lon="13.6971504"><ele>607.1666666666666</ele><time>2026-05-02T12:03:35.634Z</time></trkpt><trkpt lat="42.133511" lon="13.6972326"><ele>606.0</ele><time>2026-05-02T12:03:36.632Z</time></trkpt><trkpt lat="42.1334278" lon="13.6973442"><ele>606.0</ele><time>2026-05-02T12:03:37.634Z</time></trkpt><trkpt lat="42.1333397" lon="13.6974636"><ele>606.0</ele><time>2026-05-02T12:03:38.633Z</time></trkpt><trkpt lat="42.1332548" lon="13.697569"><ele>606.0</ele><time>2026-05-02T12:03:39.633Z</time></trkpt><trkpt lat="42.1331613" lon="13.6976747"><ele>606.0</ele><time>2026-05-02T12:03:40.633Z</time></trkpt><trkpt lat="42.1330752" lon="13.6977787"><ele>607.4</ele><time>2026-05-02T12:03:41.634Z</time></trkpt><trkpt lat="42.1329887" lon="13.6978864"><ele>608.8</ele><time>2026-05-02T12:03:42.633Z</time></trkpt><trkpt lat="42.1329077" lon="13.6979876"><ele>610.1999999999999</ele><time>2026-05-02T12:03:43.634Z</time></trkpt><trkpt lat="42.1328292" lon="13.6980869"><ele>611.6</ele><time>2026-05-02T12:03:44.633Z</time></trkpt><trkpt lat="42.1327487" lon="13.6981744"><ele>613.0</ele><time>2026-05-02T12:03:45.634Z</time></trkpt><trkpt lat="42.1326701" lon="13.6982589"><ele>613.0</ele><time>2026-05-02T12:03:46.632Z</time></trkpt><trkpt lat="42.1325532" lon="13.6984766"><ele>613.0</ele><time>2026-05-02T12:03:48.827Z</time></trkpt><trkpt lat="42.1324809" lon="13.698693"><ele>613.0</ele><time>2026-05-02T12:03:50.622Z</time></trkpt><trkpt lat="42.1324421" lon="13.6988217"><ele>612.75</ele><time>2026-05-02T12:03:51.622Z</time></trkpt><trkpt lat="42.1323984" lon="13.6989499"><ele>612.5</ele><time>2026-05-02T12:03:52.622Z</time></trkpt><trkpt lat="42.132341" lon="13.6990891"><ele>612.25</ele><time>2026-05-02T12:03:53.623Z</time></trkpt><trkpt lat="42.1322679" lon="13.6992236"><ele>612.0</ele><time>2026-05-02T12:03:54.622Z</time></trkpt><trkpt lat="42.1321889" lon="13.6993518"><ele>612.75</ele><time>2026-05-02T12:03:55.622Z</time></trkpt><trkpt lat="42.1321132" lon="13.6994711"><ele>613.5</ele><time>2026-05-02T12:03:56.622Z</time></trkpt><trkpt lat="42.1320315" lon="13.6995889"><ele>614.25</ele><time>2026-05-02T12:03:57.623Z</time></trkpt><trkpt lat="42.1319513" lon="13.6997013"><ele>615.0</ele><time>2026-05-02T12:03:58.622Z</time></trkpt><trkpt lat="42.1318706" lon="13.6998117"><ele>615.0</ele><time>2026-05-02T12:03:59.623Z</time></trkpt><trkpt lat="42.1317933" lon="13.6999226"><ele>615.0</ele><time>2026-05-02T12:04:00.622Z</time></trkpt><trkpt lat="42.1317071" lon="13.7000231"><ele>615.0</ele><time>2026-05-02T12:04:01.622Z</time></trkpt><trkpt lat="42.1316182" lon="13.7001114"><ele>615.0</ele><time>2026-05-02T12:04:02.622Z</time></trkpt><trkpt lat="42.1315244" lon="13.700183"><ele>615.0</ele><time>2026-05-02T12:04:03.622Z</time></trkpt><trkpt lat="42.1314381" lon="13.7002563"><ele>615.4</ele><time>2026-05-02T12:04:04.623Z</time></trkpt><trkpt lat="42.1313598" lon="13.7003447"><ele>615.8</ele><time>2026-05-02T12:04:05.622Z</time></trkpt><trkpt lat="42.1312844" lon="13.7004588"><ele>616.2</ele><time>2026-05-02T12:04:06.622Z</time></trkpt><trkpt lat="42.1312158" lon="13.7005864"><ele>616.6</ele><time>2026-05-02T12:04:07.622Z</time></trkpt><trkpt lat="42.1311474" lon="13.7007071"><ele>617.0</ele><time>2026-05-02T12:04:08.622Z</time></trkpt><trkpt lat="42.1310681" lon="13.7008161"><ele>617.0</ele><time>2026-05-02T12:04:09.623Z</time></trkpt><trkpt lat="42.1309747" lon="13.7009143"><ele>617.0</ele><time>2026-05-02T12:04:10.622Z</time></trkpt><trkpt lat="42.1308828" lon="13.7009987"><ele>617.0</ele><time>2026-05-02T12:04:11.622Z</time></trkpt><trkpt lat="42.1307905" lon="13.7010816"><ele>617.0</ele><time>2026-05-02T12:04:12.623Z</time></trkpt><trkpt lat="42.1307014" lon="13.701167"><ele>619.4</ele><time>2026-05-02T12:04:13.622Z</time></trkpt><trkpt lat="42.1306172" lon="13.7012588"><ele>621.8000000000001</ele><time>2026-05-02T12:04:14.623Z</time></trkpt><trkpt lat="42.1305389" lon="13.7013527"><ele>624.2</ele><time>2026-05-02T12:04:15.623Z</time></trkpt><trkpt lat="42.1304664" lon="13.7014465"><ele>626.6</ele><time>2026-05-02T12:04:16.623Z</time></trkpt><trkpt lat="42.1303942" lon="13.7015324"><ele>629.0</ele><time>2026-05-02T12:04:17.622Z</time></trkpt><trkpt lat="42.1303221" lon="13.7016064"><ele>629.0</ele><time>2026-05-02T12:04:18.622Z</time></trkpt><trkpt lat="42.1302528" lon="13.7016667"><ele>629.0</ele><time>2026-05-02T12:04:19.623Z</time></trkpt><trkpt lat="42.1301691" lon="13.7017235"><ele>629.0</ele><time>2026-05-02T12:04:21.622Z</time></trkpt><trkpt lat="42.1301186" lon="13.7016525"><ele>629.0</ele><time>2026-05-02T12:04:24.623Z</time></trkpt><trkpt lat="42.1300631" lon="13.7015281"><ele>629.0</ele><time>2026-05-02T12:04:26.622Z</time></trkpt><trkpt lat="42.1300164" lon="13.7014432"><ele>629.0</ele><time>2026-05-02T12:04:27.622Z</time></trkpt><trkpt lat="42.1299667" lon="13.7013439"><ele>629.0</ele><time>2026-05-02T12:04:28.623Z</time></trkpt><trkpt lat="42.1299213" lon="13.7012406"><ele>629.0</ele><time>2026-05-02T12:04:29.622Z</time></trkpt><trkpt lat="42.1298739" lon="13.7011267"><ele>629.0</ele><time>2026-05-02T12:04:30.622Z</time></trkpt><trkpt lat="42.1298257" lon="13.7010066"><ele>629.0</ele><time>2026-05-02T12:04:31.622Z</time></trkpt><trkpt lat="42.1297773" lon="13.7008826"><ele>629.0</ele><time>2026-05-02T12:04:32.623Z</time></trkpt><trkpt lat="42.1297267" lon="13.7007639"><ele>631.6666666666666</ele><time>2026-05-02T12:04:33.622Z</time></trkpt><trkpt lat="42.1296748" lon="13.7006512"><ele>634.3333333333333</ele><time>2026-05-02T12:04:34.623Z</time></trkpt><trkpt lat="42.1296219" lon="13.7005413"><ele>637.0</ele><time>2026-05-02T12:04:35.622Z</time></trkpt><trkpt lat="42.1295734" lon="13.7004446"><ele>639.6666666666666</ele><time>2026-05-02T12:04:36.622Z</time></trkpt><trkpt lat="42.1295346" lon="13.7003754"><ele>642.3333333333334</ele><time>2026-05-02T12:04:37.622Z</time></trkpt><trkpt lat="42.1294647" lon="13.700342"><ele>645.0</ele><time>2026-05-02T12:04:39.623Z</time></trkpt><trkpt lat="42.1293677" lon="13.7003558"><ele>645.0</ele><time>2026-05-02T12:04:41.623Z</time></trkpt><trkpt lat="42.129302" lon="13.7003355"><ele>645.0</ele><time>2026-05-02T12:04:42.623Z</time></trkpt><trkpt lat="42.1292262" lon="13.7002958"><ele>645.0</ele><time>2026-05-02T12:04:43.622Z</time></trkpt><trkpt lat="42.1291498" lon="13.700246"><ele>645.0</ele><time>2026-05-02T12:04:44.623Z</time></trkpt><trkpt lat="42.12908" lon="13.7001863"><ele>645.0</ele><time>2026-05-02T12:04:45.622Z</time></trkpt><trkpt lat="42.1290295" lon="13.7001239"><ele>645.0</ele><time>2026-05-02T12:04:46.622Z</time></trkpt><trkpt lat="42.1289785" lon="13.7000411"><ele>646.6</ele><time>2026-05-02T12:04:48.622Z</time></trkpt><trkpt lat="42.1288972" lon="13.7000218"><ele>648.2</ele><time>2026-05-02T12:04:51.622Z</time></trkpt><trkpt lat="42.1287888" lon="13.7001338"><ele>649.8</ele><time>2026-05-02T12:04:53.622Z</time></trkpt><trkpt lat="42.1287243" lon="13.7002129"><ele>651.4</ele><time>2026-05-02T12:04:54.623Z</time></trkpt><trkpt lat="42.1286444" lon="13.7003043"><ele>653.0</ele><time>2026-05-02T12:04:55.622Z</time></trkpt><trkpt lat="42.1285538" lon="13.7004048"><ele>653.0</ele><time>2026-05-02T12:04:56.622Z</time></trkpt><trkpt lat="42.128454" lon="13.7005127"><ele>653.0</ele><time>2026-05-02T12:04:57.622Z</time></trkpt><trkpt lat="42.1283633" lon="13.7006122"><ele>653.0</ele><time>2026-05-02T12:04:58.622Z</time></trkpt><trkpt lat="42.1282904" lon="13.7006825"><ele>653.0</ele><time>2026-05-02T12:04:59.622Z</time></trkpt><trkpt lat="42.1282229" lon="13.7007469"><ele>653.0</ele><time>2026-05-02T12:05:00.622Z</time></trkpt><trkpt lat="42.1281366" lon="13.7008347"><ele>653.0</ele><time>2026-05-02T12:05:02.622Z</time></trkpt><trkpt lat="42.1280802" lon="13.700893"><ele>653.0</ele><time>2026-05-02T12:05:05.622Z</time></trkpt><trkpt lat="42.1281419" lon="13.7009232"><ele>653.0</ele><time>2026-05-02T12:05:16.622Z</time></trkpt><trkpt lat="42.1282149" lon="13.7008217"><ele>653.0</ele><time>2026-05-02T12:05:19.622Z</time></trkpt><trkpt lat="42.1282668" lon="13.7007681"><ele>653.0</ele><time>2026-05-02T12:05:20.622Z</time></trkpt><trkpt lat="42.1283257" lon="13.7007047"><ele>653.0</ele><time>2026-05-02T12:05:21.623Z</time></trkpt><trkpt lat="42.1283875" lon="13.700632"><ele>653.0</ele><time>2026-05-02T12:05:22.622Z</time></trkpt><trkpt lat="42.128452" lon="13.7005539"><ele>653.0</ele><time>2026-05-02T12:05:23.622Z</time></trkpt><trkpt lat="42.1285145" lon="13.7004842"><ele>653.0</ele><time>2026-05-02T12:05:24.622Z</time></trkpt><trkpt lat="42.1285701" lon="13.7004227"><ele>653.0</ele><time>2026-05-02T12:05:25.622Z</time></trkpt><trkpt lat="42.1286199" lon="13.7003668"><ele>653.0</ele><time>2026-05-02T12:05:26.622Z</time></trkpt><trkpt lat="42.1287076" lon="13.7002679"><ele>653.0</ele><time>2026-05-02T12:05:28.622Z</time></trkpt><trkpt lat="42.1287639" lon="13.7001894"><ele>655.0</ele><time>2026-05-02T12:05:30.623Z</time></trkpt><trkpt lat="42.1287608" lon="13.7000759"><ele>657.0</ele><time>2026-05-02T12:05:33.622Z</time></trkpt><trkpt lat="42.1287267" lon="13.6999965"><ele>659.0</ele><time>2026-05-02T12:05:35.622Z</time></trkpt><trkpt lat="42.1286663" lon="13.6999262"><ele>661.0</ele><time>2026-05-02T12:05:37.622Z</time></trkpt><trkpt lat="42.1285703" lon="13.6999364"><ele>663.0</ele><time>2026-05-02T12:05:39.622Z</time></trkpt><trkpt lat="42.1284406" lon="13.6999852"><ele>663.0</ele><time>2026-05-02T12:05:41.622Z</time></trkpt><trkpt lat="42.128362" lon="13.7000152"><ele>663.0</ele><time>2026-05-02T12:05:42.622Z</time></trkpt><trkpt lat="42.1282799" lon="13.7000467"><ele>663.0</ele><time>2026-05-02T12:05:43.622Z</time></trkpt><trkpt lat="42.1281982" lon="13.7000812"><ele>663.0</ele><time>2026-05-02T12:05:44.622Z</time></trkpt><trkpt lat="42.1281124" lon="13.7001074"><ele>663.0</ele><time>2026-05-02T12:05:45.622Z</time></trkpt><trkpt lat="42.1280256" lon="13.7001219"><ele>663.0</ele><time>2026-05-02T12:05:46.623Z</time></trkpt><trkpt lat="42.1279441" lon="13.7001398"><ele>665.1666666666666</ele><time>2026-05-02T12:05:47.622Z</time></trkpt><trkpt lat="42.1278599" lon="13.7001549"><ele>667.3333333333334</ele><time>2026-05-02T12:05:48.622Z</time></trkpt><trkpt lat="42.1277826" lon="13.7001699"><ele>669.5</ele><time>2026-05-02T12:05:49.622Z</time></trkpt><trkpt lat="42.1277056" lon="13.7001801"><ele>671.6666666666667</ele><time>2026-05-02T12:05:50.623Z</time></trkpt><trkpt lat="42.1276246" lon="13.7001728"><ele>673.8333333333334</ele><time>2026-05-02T12:05:51.622Z</time></trkpt><trkpt lat="42.1275519" lon="13.700174"><ele>676.0</ele><time>2026-05-02T12:05:52.622Z</time></trkpt><trkpt lat="42.1274786" lon="13.7001726"><ele>676.0</ele><time>2026-05-02T12:05:53.623Z</time></trkpt><trkpt lat="42.127409" lon="13.7001725"><ele>676.0</ele><time>2026-05-02T12:05:54.623Z</time></trkpt><trkpt lat="42.1273455" lon="13.7001773"><ele>676.0</ele><time>2026-05-02T12:05:55.623Z</time></trkpt><trkpt lat="42.1272344" lon="13.7001995"><ele>676.0</ele><time>2026-05-02T12:05:57.622Z</time></trkpt><trkpt lat="42.1271307" lon="13.7002043"><ele>676.0</ele><time>2026-05-02T12:05:59.623Z</time></trkpt><trkpt lat="42.1270198" lon="13.7001577"><ele>673.5</ele><time>2026-05-02T12:06:01.622Z</time></trkpt><trkpt lat="42.1269356" lon="13.7000827"><ele>671.0</ele><time>2026-05-02T12:06:03.622Z</time></trkpt><trkpt lat="42.1268639" lon="13.6999585"><ele>668.5</ele><time>2026-05-02T12:06:05.622Z</time></trkpt><trkpt lat="42.1268034" lon="13.6998192"><ele>666.0</ele><time>2026-05-02T12:06:07.622Z</time></trkpt><trkpt lat="42.1267606" lon="13.6996753"><ele>666.0</ele><time>2026-05-02T12:06:09.622Z</time></trkpt><trkpt lat="42.1267415" lon="13.6995602"><ele>666.0</ele><time>2026-05-02T12:06:11.623Z</time></trkpt><trkpt lat="42.1267285" lon="13.6994398"><ele>666.0</ele><time>2026-05-02T12:06:14.623Z</time></trkpt><trkpt lat="42.1266233" lon="13.6994144"><ele>666.0</ele><time>2026-05-02T12:06:17.622Z</time></trkpt><trkpt lat="42.1265099" lon="13.6994291"><ele>666.0</ele><time>2026-05-02T12:06:19.623Z</time></trkpt><trkpt lat="42.1264133" lon="13.6994168"><ele>664.8</ele><time>2026-05-02T12:06:21.622Z</time></trkpt><trkpt lat="42.12632" lon="13.6993816"><ele>663.5999999999999</ele><time>2026-05-02T12:06:23.622Z</time></trkpt><trkpt lat="42.126265" lon="13.6992423"><ele>662.4</ele><time>2026-05-02T12:06:25.622Z</time></trkpt><trkpt lat="42.1262431" lon="13.6991592"><ele>661.2</ele><time>2026-05-02T12:06:26.622Z</time></trkpt><trkpt lat="42.1262044" lon="13.6990865"><ele>660.0</ele><time>2026-05-02T12:06:27.622Z</time></trkpt><trkpt lat="42.1261221" lon="13.6989825"><ele>660.0</ele><time>2026-05-02T12:06:29.622Z</time></trkpt><trkpt lat="42.1261037" lon="13.698896"><ele>660.0</ele><time>2026-05-02T12:06:30.622Z</time></trkpt><trkpt lat="42.1260903" lon="13.6988088"><ele>660.0</ele><time>2026-05-02T12:06:31.622Z</time></trkpt><trkpt lat="42.1260896" lon="13.6986993"><ele>660.0</ele><time>2026-05-02T12:06:32.622Z</time></trkpt><trkpt lat="42.1261029" lon="13.6985652"><ele>660.0</ele><time>2026-05-02T12:06:33.623Z</time></trkpt><trkpt lat="42.1261165" lon="13.6984133"><ele>660.0</ele><time>2026-05-02T12:06:34.622Z</time></trkpt><trkpt lat="42.1261281" lon="13.6982629"><ele>661.2</ele><time>2026-05-02T12:06:35.622Z</time></trkpt><trkpt lat="42.1261337" lon="13.69811"><ele>662.4</ele><time>2026-05-02T12:06:36.622Z</time></trkpt><trkpt lat="42.1261302" lon="13.6979612"><ele>663.5999999999999</ele><time>2026-05-02T12:06:37.622Z</time></trkpt><trkpt lat="42.1261248" lon="13.6978203"><ele>664.8</ele><time>2026-05-02T12:06:38.622Z</time></trkpt><trkpt lat="42.1261127" lon="13.6976853"><ele>666.0</ele><time>2026-05-02T12:06:39.623Z</time></trkpt><trkpt lat="42.1260952" lon="13.697553"><ele>668.1999999999999</ele><time>2026-05-02T12:06:40.622Z</time></trkpt><trkpt lat="42.1260717" lon="13.6974197"><ele>670.4</ele><time>2026-05-02T12:06:41.622Z</time></trkpt><trkpt lat="42.1260432" lon="13.6972916"><ele>672.6</ele><time>2026-05-02T12:06:42.622Z</time></trkpt><trkpt lat="42.1260115" lon="13.6971581"><ele>674.8</ele><time>2026-05-02T12:06:43.622Z</time></trkpt><trkpt lat="42.1259781" lon="13.6970188"><ele>677.0</ele><time>2026-05-02T12:06:44.623Z</time></trkpt><trkpt lat="42.1259406" lon="13.696878"><ele>680.0</ele><time>2026-05-02T12:06:45.622Z</time></trkpt><trkpt lat="42.1259041" lon="13.6967354"><ele>683.0</ele><time>2026-05-02T12:06:46.622Z</time></trkpt><trkpt lat="42.125869" lon="13.6965802"><ele>686.0</ele><time>2026-05-02T12:06:47.622Z</time></trkpt><trkpt lat="42.1258419" lon="13.6964161"><ele>689.0</ele><time>2026-05-02T12:06:48.622Z</time></trkpt><trkpt lat="42.125818" lon="13.6962467"><ele>692.5</ele><time>2026-05-02T12:06:49.623Z</time></trkpt><trkpt lat="42.1257909" lon="13.6960822"><ele>696.0</ele><time>2026-05-02T12:06:50.622Z</time></trkpt><trkpt lat="42.1257588" lon="13.6959165"><ele>699.5</ele><time>2026-05-02T12:06:51.623Z</time></trkpt><trkpt lat="42.1257232" lon="13.6957484"><ele>703.0</ele><time>2026-05-02T12:06:52.622Z</time></trkpt><trkpt lat="42.1256881" lon="13.695578"><ele>704.75</ele><time>2026-05-02T12:06:53.622Z</time></trkpt><trkpt lat="42.1256561" lon="13.6954067"><ele>706.5</ele><time>2026-05-02T12:06:54.622Z</time></trkpt><trkpt lat="42.1256266" lon="13.695234"><ele>708.25</ele><time>2026-05-02T12:06:55.623Z</time></trkpt><trkpt lat="42.125596" lon="13.6950618"><ele>710.0</ele><time>2026-05-02T12:06:56.622Z</time></trkpt><trkpt lat="42.1255653" lon="13.6948933"><ele>714.75</ele><time>2026-05-02T12:06:57.623Z</time></trkpt><trkpt lat="42.1255344" lon="13.6947265"><ele>719.5</ele><time>2026-05-02T12:06:58.622Z</time></trkpt><trkpt lat="42.1254981" lon="13.6945651"><ele>724.25</ele><time>2026-05-02T12:06:59.622Z</time></trkpt><trkpt lat="42.1254554" lon="13.6944096"><ele>729.0</ele><time>2026-05-02T12:07:00.622Z</time></trkpt><trkpt lat="42.1254129" lon="13.6942673"><ele>729.8333333333334</ele><time>2026-05-02T12:07:01.622Z</time></trkpt><trkpt lat="42.1253701" lon="13.6941533"><ele>730.6666666666666</ele><time>2026-05-02T12:07:02.623Z</time></trkpt><trkpt lat="42.1253269" lon="13.6940493"><ele>731.5</ele><time>2026-05-02T12:07:03.622Z</time></trkpt><trkpt lat="42.1252841" lon="13.6939477"><ele>732.3333333333333</ele><time>2026-05-02T12:07:04.623Z</time></trkpt><trkpt lat="42.1252418" lon="13.6938548"><ele>733.1666666666666</ele><time>2026-05-02T12:07:05.623Z</time></trkpt><trkpt lat="42.1252032" lon="13.6937633"><ele>734.0</ele><time>2026-05-02T12:07:06.622Z</time></trkpt><trkpt lat="42.1251726" lon="13.6936728"><ele>734.0</ele><time>2026-05-02T12:07:07.623Z</time></trkpt><trkpt lat="42.12514" lon="13.6935969"><ele>734.0</ele><time>2026-05-02T12:07:08.622Z</time></trkpt><trkpt lat="42.1250954" lon="13.6934831"><ele>734.0</ele><time>2026-05-02T12:07:10.622Z</time></trkpt><trkpt lat="42.1250586" lon="13.6934093"><ele>734.0</ele><time>2026-05-02T12:07:12.622Z</time></trkpt><trkpt lat="42.1250182" lon="13.6933287"><ele>734.0</ele><time>2026-05-02T12:07:14.622Z</time></trkpt><trkpt lat="42.1249801" lon="13.6932516"><ele>734.0</ele><time>2026-05-02T12:07:16.622Z</time></trkpt><trkpt lat="42.1249191" lon="13.6931801"><ele>734.0</ele><time>2026-05-02T12:07:18.622Z</time></trkpt><trkpt lat="42.1248554" lon="13.6931099"><ele>740.4000000000001</ele><time>2026-05-02T12:07:20.622Z</time></trkpt><trkpt lat="42.1247906" lon="13.6930194"><ele>746.8</ele><time>2026-05-02T12:07:22.622Z</time></trkpt><trkpt lat="42.1247341" lon="13.6929368"><ele>753.2</ele><time>2026-05-02T12:07:24.622Z</time></trkpt><trkpt lat="42.1246806" lon="13.692859"><ele>759.5999999999999</ele><time>2026-05-02T12:07:26.622Z</time></trkpt><trkpt lat="42.1246084" lon="13.6927701"><ele>766.0</ele><time>2026-05-02T12:07:28.623Z</time></trkpt><trkpt lat="42.1245399" lon="13.6926572"><ele>766.25</ele><time>2026-05-02T12:07:30.622Z</time></trkpt><trkpt lat="42.124465" lon="13.6925427"><ele>766.5</ele><time>2026-05-02T12:07:32.623Z</time></trkpt><trkpt lat="42.1244078" lon="13.6924004"><ele>766.75</ele><time>2026-05-02T12:07:34.623Z</time></trkpt><trkpt lat="42.1243553" lon="13.6922597"><ele>767.0</ele><time>2026-05-02T12:07:36.622Z</time></trkpt><trkpt lat="42.1243162" lon="13.692117"><ele>767.0</ele><time>2026-05-02T12:07:38.623Z</time></trkpt><trkpt lat="42.1242778" lon="13.6920173"><ele>767.0</ele><time>2026-05-02T12:07:40.623Z</time></trkpt><trkpt lat="42.1242092" lon="13.6920058"><ele>767.0</ele><time>2026-05-02T12:07:43.622Z</time></trkpt><trkpt lat="42.1241243" lon="13.6920549"><ele>767.0</ele><time>2026-05-02T12:07:45.623Z</time></trkpt><trkpt lat="42.1240819" lon="13.6921581"><ele>767.0</ele><time>2026-05-02T12:07:47.622Z</time></trkpt><trkpt lat="42.124073" lon="13.6923195"><ele>767.0</ele><time>2026-05-02T12:07:49.622Z</time></trkpt><trkpt lat="42.1240784" lon="13.6924298"><ele>767.0</ele><time>2026-05-02T12:07:50.622Z</time></trkpt><trkpt lat="42.1240777" lon="13.6925513"><ele>767.0</ele><time>2026-05-02T12:07:51.622Z</time></trkpt><trkpt lat="42.1240749" lon="13.6926852"><ele>767.0</ele><time>2026-05-02T12:07:52.622Z</time></trkpt><trkpt lat="42.1240722" lon="13.6928196"><ele>767.0</ele><time>2026-05-02T12:07:53.622Z</time></trkpt><trkpt lat="42.1240688" lon="13.6929372"><ele>766.8333333333333</ele><time>2026-05-02T12:07:54.622Z</time></trkpt><trkpt lat="42.124066" lon="13.6930402"><ele>766.6666666666666</ele><time>2026-05-02T12:07:55.622Z</time></trkpt><trkpt lat="42.1240737" lon="13.6931276"><ele>766.5</ele><time>2026-05-02T12:07:56.622Z</time></trkpt><trkpt lat="42.1240758" lon="13.6932165"><ele>766.3333333333334</ele><time>2026-05-02T12:07:57.623Z</time></trkpt><trkpt lat="42.1240639" lon="13.6933737"><ele>766.1666666666667</ele><time>2026-05-02T12:07:59.622Z</time></trkpt><trkpt lat="42.1240067" lon="13.6935198"><ele>766.0</ele><time>2026-05-02T12:08:01.623Z</time></trkpt><trkpt lat="42.1239657" lon="13.6935879"><ele>767.5</ele><time>2026-05-02T12:08:02.622Z</time></trkpt><trkpt lat="42.1239159" lon="13.6936502"><ele>769.0</ele><time>2026-05-02T12:08:03.622Z</time></trkpt><trkpt lat="42.1238578" lon="13.6937046"><ele>770.5</ele><time>2026-05-02T12:08:04.622Z</time></trkpt><trkpt lat="42.1237943" lon="13.6937545"><ele>772.0</ele><time>2026-05-02T12:08:05.622Z</time></trkpt><trkpt lat="42.1237239" lon="13.6937959"><ele>773.4999999999999</ele><time>2026-05-02T12:08:06.622Z</time></trkpt><trkpt lat="42.1236446" lon="13.6938298"><ele>775.0</ele><time>2026-05-02T12:08:07.622Z</time></trkpt><trkpt lat="42.1235688" lon="13.6938595"><ele>774.9999999999999</ele><time>2026-05-02T12:08:08.622Z</time></trkpt><trkpt lat="42.123499" lon="13.6938838"><ele>775.0</ele><time>2026-05-02T12:08:09.622Z</time></trkpt><trkpt lat="42.1234305" lon="13.6939109"><ele>775.0</ele><time>2026-05-02T12:08:10.622Z</time></trkpt><trkpt lat="42.123365" lon="13.6939424"><ele>775.0</ele><time>2026-05-02T12:08:11.622Z</time></trkpt><trkpt lat="42.1233029" lon="13.6939845"><ele>775.0</ele><time>2026-05-02T12:08:12.622Z</time></trkpt><trkpt lat="42.12324" lon="13.6940406"><ele>774.9999999999999</ele><time>2026-05-02T12:08:13.622Z</time></trkpt><trkpt lat="42.1231759" lon="13.6941053"><ele>775.0</ele><time>2026-05-02T12:08:14.622Z</time></trkpt><trkpt lat="42.1231186" lon="13.6941756"><ele>777.2857142857142</ele><time>2026-05-02T12:08:15.623Z</time></trkpt><trkpt lat="42.1230677" lon="13.6942471"><ele>779.5714285714286</ele><time>2026-05-02T12:08:16.623Z</time></trkpt><trkpt lat="42.1230211" lon="13.6943202"><ele>781.8571428571429</ele><time>2026-05-02T12:08:17.622Z</time></trkpt><trkpt lat="42.1229681" lon="13.6943785"><ele>784.1428571428571</ele><time>2026-05-02T12:08:18.622Z</time></trkpt><trkpt lat="42.1229078" lon="13.6944237"><ele>786.4285714285714</ele><time>2026-05-02T12:08:19.622Z</time></trkpt><trkpt lat="42.1228431" lon="13.6944666"><ele>788.7142857142857</ele><time>2026-05-02T12:08:20.623Z</time></trkpt><trkpt lat="42.1227796" lon="13.694514"><ele>791.0</ele><time>2026-05-02T12:08:21.623Z</time></trkpt><trkpt lat="42.122716" lon="13.6945583"><ele>791.0000000000001</ele><time>2026-05-02T12:08:22.622Z</time></trkpt><trkpt lat="42.1226441" lon="13.6945895"><ele>791.0</ele><time>2026-05-02T12:08:23.622Z</time></trkpt><trkpt lat="42.1225697" lon="13.6946084"><ele>791.0</ele><time>2026-05-02T12:08:24.623Z</time></trkpt><trkpt lat="42.1224962" lon="13.6946256"><ele>791.0</ele><time>2026-05-02T12:08:25.622Z</time></trkpt><trkpt lat="42.1224292" lon="13.6946459"><ele>791.0000000000001</ele><time>2026-05-02T12:08:26.622Z</time></trkpt><trkpt lat="42.1223655" lon="13.6946535"><ele>791.0</ele><time>2026-05-02T12:08:27.622Z</time></trkpt><trkpt lat="42.1222553" lon="13.6946488"><ele>791.8333333333334</ele><time>2026-05-02T12:08:29.622Z</time></trkpt><trkpt lat="42.1221569" lon="13.6946192"><ele>792.6666666666667</ele><time>2026-05-02T12:08:31.622Z</time></trkpt><trkpt lat="42.1220613" lon="13.6945961"><ele>793.5</ele><time>2026-05-02T12:08:33.623Z</time></trkpt><trkpt lat="42.1220092" lon="13.6945471"><ele>794.3333333333333</ele><time>2026-05-02T12:08:37.622Z</time></trkpt><trkpt lat="42.1219508" lon="13.6945816"><ele>795.1666666666666</ele><time>2026-05-02T12:08:42.623Z</time></trkpt><trkpt lat="42.1220295" lon="13.6945576"><ele>796.0</ele><time>2026-05-02T12:08:59.622Z</time></trkpt><trkpt lat="42.122112" lon="13.6944187"><ele>799.5</ele><time>2026-05-02T12:09:01.623Z</time></trkpt><trkpt lat="42.1221581" lon="13.6943225"><ele>803.0</ele><time>2026-05-02T12:09:02.622Z</time></trkpt><trkpt lat="42.1222122" lon="13.6941946"><ele>806.5</ele><time>2026-05-02T12:09:03.623Z</time></trkpt><trkpt lat="42.1222671" lon="13.6940447"><ele>810.0</ele><time>2026-05-02T12:09:04.622Z</time></trkpt><trkpt lat="42.1223307" lon="13.693861"><ele>809.0</ele><time>2026-05-02T12:09:05.623Z</time></trkpt><trkpt lat="42.1224027" lon="13.6936499"><ele>808.0</ele><time>2026-05-02T12:09:06.623Z</time></trkpt><trkpt lat="42.1224659" lon="13.6934699"><ele>807.0</ele><time>2026-05-02T12:09:07.623Z</time></trkpt><trkpt lat="42.1225244" lon="13.693312"><ele>807.0</ele><time>2026-05-02T12:09:08.622Z</time></trkpt><trkpt lat="42.122572" lon="13.6931754"><ele>807.0</ele><time>2026-05-02T12:09:09.622Z</time></trkpt><trkpt lat="42.1225987" lon="13.6930545"><ele>807.0</ele><time>2026-05-02T12:09:10.622Z</time></trkpt><trkpt lat="42.1226014" lon="13.6929508"><ele>807.0</ele><time>2026-05-02T12:09:11.622Z</time></trkpt><trkpt lat="42.1225793" lon="13.692867"><ele>807.0</ele><time>2026-05-02T12:09:12.622Z</time></trkpt><trkpt lat="42.1224786" lon="13.6927892"><ele>807.0</ele><time>2026-05-02T12:09:14.623Z</time></trkpt><trkpt lat="42.1224077" lon="13.6928197"><ele>807.0</ele><time>2026-05-02T12:09:15.622Z</time></trkpt><trkpt lat="42.1223237" lon="13.6928722"><ele>807.0</ele><time>2026-05-02T12:09:16.622Z</time></trkpt><trkpt lat="42.1222253" lon="13.6929402"><ele>807.0</ele><time>2026-05-02T12:09:17.622Z</time></trkpt><trkpt lat="42.1221216" lon="13.6930138"><ele>807.0</ele><time>2026-05-02T12:09:18.622Z</time></trkpt><trkpt lat="42.1220107" lon="13.6930926"><ele>812.0</ele><time>2026-05-02T12:09:19.623Z</time></trkpt><trkpt lat="42.1219031" lon="13.6931646"><ele>817.0</ele><time>2026-05-02T12:09:20.623Z</time></trkpt><trkpt lat="42.1217992" lon="13.6932337"><ele>822.0</ele><time>2026-05-02T12:09:21.622Z</time></trkpt><trkpt lat="42.1216974" lon="13.6933012"><ele>827.0</ele><time>2026-05-02T12:09:22.623Z</time></trkpt><trkpt lat="42.121593" lon="13.6933625"><ele>832.25</ele><time>2026-05-02T12:09:23.622Z</time></trkpt><trkpt lat="42.1214852" lon="13.693418"><ele>837.5</ele><time>2026-05-02T12:09:24.623Z</time></trkpt><trkpt lat="42.1213721" lon="13.6934683"><ele>842.75</ele><time>2026-05-02T12:09:25.622Z</time></trkpt><trkpt lat="42.1212503" lon="13.6935159"><ele>848.0</ele><time>2026-05-02T12:09:26.622Z</time></trkpt><trkpt lat="42.1211281" lon="13.6935614"><ele>845.75</ele><time>2026-05-02T12:09:27.622Z</time></trkpt><trkpt lat="42.1210088" lon="13.6936043"><ele>843.5</ele><time>2026-05-02T12:09:28.622Z</time></trkpt><trkpt lat="42.1208989" lon="13.6936481"><ele>841.25</ele><time>2026-05-02T12:09:29.622Z</time></trkpt><trkpt lat="42.1207996" lon="13.6936906"><ele>839.0</ele><time>2026-05-02T12:09:30.622Z</time></trkpt><trkpt lat="42.1206957" lon="13.6937354"><ele>839.0</ele><time>2026-05-02T12:09:31.622Z</time></trkpt><trkpt lat="42.1205697" lon="13.6937764"><ele>839.0</ele><time>2026-05-02T12:09:32.622Z</time></trkpt><trkpt lat="42.1204234" lon="13.6938287"><ele>839.0</ele><time>2026-05-02T12:09:33.622Z</time></trkpt><trkpt lat="42.1202781" lon="13.6938899"><ele>839.0</ele><time>2026-05-02T12:09:34.622Z</time></trkpt><trkpt lat="42.1201443" lon="13.6939503"><ele>839.0</ele><time>2026-05-02T12:09:35.623Z</time></trkpt><trkpt lat="42.1200138" lon="13.6940126"><ele>839.0</ele><time>2026-05-02T12:09:36.622Z</time></trkpt><trkpt lat="42.1198867" lon="13.6940673"><ele>839.0</ele><time>2026-05-02T12:09:37.623Z</time></trkpt><trkpt lat="42.1197655" lon="13.6941189"><ele>839.0</ele><time>2026-05-02T12:09:38.623Z</time></trkpt><trkpt lat="42.1196497" lon="13.694169"><ele>845.25</ele><time>2026-05-02T12:09:39.623Z</time></trkpt><trkpt lat="42.1195324" lon="13.6942209"><ele>851.5</ele><time>2026-05-02T12:09:40.622Z</time></trkpt><trkpt lat="42.1194111" lon="13.6942646"><ele>857.75</ele><time>2026-05-02T12:09:41.622Z</time></trkpt><trkpt lat="42.1192897" lon="13.6942914"><ele>864.0</ele><time>2026-05-02T12:09:42.623Z</time></trkpt><trkpt lat="42.1191695" lon="13.6943111"><ele>862.25</ele><time>2026-05-02T12:09:43.623Z</time></trkpt><trkpt lat="42.1190568" lon="13.694341"><ele>860.5</ele><time>2026-05-02T12:09:44.622Z</time></trkpt><trkpt lat="42.1189472" lon="13.6943835"><ele>858.75</ele><time>2026-05-02T12:09:45.622Z</time></trkpt><trkpt lat="42.1188419" lon="13.6944399"><ele>857.0</ele><time>2026-05-02T12:09:46.622Z</time></trkpt><trkpt lat="42.1187354" lon="13.6945051"><ele>857.0</ele><time>2026-05-02T12:09:47.622Z</time></trkpt><trkpt lat="42.1186247" lon="13.6945735"><ele>857.0</ele><time>2026-05-02T12:09:48.622Z</time></trkpt><trkpt lat="42.1185095" lon="13.6946435"><ele>857.0</ele><time>2026-05-02T12:09:49.622Z</time></trkpt><trkpt lat="42.118392" lon="13.6947163"><ele>857.0</ele><time>2026-05-02T12:09:50.622Z</time></trkpt><trkpt lat="42.1182721" lon="13.6947905"><ele>864.5</ele><time>2026-05-02T12:09:51.622Z</time></trkpt><trkpt lat="42.1181532" lon="13.6948677"><ele>872.0</ele><time>2026-05-02T12:09:52.623Z</time></trkpt><trkpt lat="42.1180326" lon="13.6949489"><ele>879.5</ele><time>2026-05-02T12:09:53.622Z</time></trkpt><trkpt lat="42.1179131" lon="13.6950269"><ele>887.0</ele><time>2026-05-02T12:09:54.623Z</time></trkpt><trkpt lat="42.1177907" lon="13.6950959"><ele>887.0</ele><time>2026-05-02T12:09:55.623Z</time></trkpt><trkpt lat="42.1176649" lon="13.6951566"><ele>887.0</ele><time>2026-05-02T12:09:56.623Z</time></trkpt><trkpt lat="42.1175254" lon="13.6952056"><ele>887.0</ele><time>2026-05-02T12:09:57.622Z</time></trkpt><trkpt lat="42.117375" lon="13.6952385"><ele>887.0</ele><time>2026-05-02T12:09:58.622Z</time></trkpt><trkpt lat="42.1172272" lon="13.6952645"><ele>881.0</ele><time>2026-05-02T12:09:59.622Z</time></trkpt><trkpt lat="42.1170869" lon="13.6952916"><ele>875.0</ele><time>2026-05-02T12:10:00.622Z</time></trkpt><trkpt lat="42.116951" lon="13.6953197"><ele>869.0</ele><time>2026-05-02T12:10:01.622Z</time></trkpt><trkpt lat="42.1168228" lon="13.6953477"><ele>863.0</ele><time>2026-05-02T12:10:02.622Z</time></trkpt><trkpt lat="42.1166994" lon="13.6953732"><ele>863.0</ele><time>2026-05-02T12:10:03.622Z</time></trkpt><trkpt lat="42.1165793" lon="13.6953971"><ele>863.0</ele><time>2026-05-02T12:10:04.623Z</time></trkpt><trkpt lat="42.1164638" lon="13.6954211"><ele>863.0</ele><time>2026-05-02T12:10:05.622Z</time></trkpt><trkpt lat="42.1163527" lon="13.6954483"><ele>863.0</ele><time>2026-05-02T12:10:06.622Z</time></trkpt><trkpt lat="42.1162456" lon="13.6954802"><ele>867.2</ele><time>2026-05-02T12:10:07.622Z</time></trkpt><trkpt lat="42.1161406" lon="13.6955146"><ele>871.4</ele><time>2026-05-02T12:10:08.623Z</time></trkpt><trkpt lat="42.1160361" lon="13.6955457"><ele>875.6000000000001</ele><time>2026-05-02T12:10:09.622Z</time></trkpt><trkpt lat="42.1159312" lon="13.6955774"><ele>879.8000000000001</ele><time>2026-05-02T12:10:10.622Z</time></trkpt><trkpt lat="42.115824" lon="13.6956095"><ele>884.0</ele><time>2026-05-02T12:10:11.622Z</time></trkpt><trkpt lat="42.1157118" lon="13.6956401"><ele>889.0</ele><time>2026-05-02T12:10:12.622Z</time></trkpt><trkpt lat="42.1155953" lon="13.6956688"><ele>894.0</ele><time>2026-05-02T12:10:13.622Z</time></trkpt><trkpt lat="42.1154763" lon="13.6956975"><ele>899.0</ele><time>2026-05-02T12:10:14.622Z</time></trkpt><trkpt lat="42.1153546" lon="13.6957282"><ele>904.0</ele><time>2026-05-02T12:10:15.622Z</time></trkpt><trkpt lat="42.1152319" lon="13.6957597"><ele>904.0</ele><time>2026-05-02T12:10:16.623Z</time></trkpt><trkpt lat="42.1150956" lon="13.6957921"><ele>904.0</ele><time>2026-05-02T12:10:17.622Z</time></trkpt><trkpt lat="42.1149402" lon="13.6958278"><ele>904.0</ele><time>2026-05-02T12:10:18.622Z</time></trkpt><trkpt lat="42.11478" lon="13.695866"><ele>910.0</ele><time>2026-05-02T12:10:19.622Z</time></trkpt><trkpt lat="42.1146212" lon="13.6959005"><ele>916.0</ele><time>2026-05-02T12:10:20.622Z</time></trkpt><trkpt lat="42.1144644" lon="13.6959347"><ele>922.0</ele><time>2026-05-02T12:10:21.623Z</time></trkpt><trkpt lat="42.1143157" lon="13.6959727"><ele>922.0</ele><time>2026-05-02T12:10:22.622Z</time></trkpt><trkpt lat="42.1141744" lon="13.6960096"><ele>922.0</ele><time>2026-05-02T12:10:23.622Z</time></trkpt><trkpt lat="42.1140373" lon="13.6960459"><ele>922.0</ele><time>2026-05-02T12:10:24.623Z</time></trkpt><trkpt lat="42.1139044" lon="13.696084"><ele>922.0</ele><time>2026-05-02T12:10:25.622Z</time></trkpt><trkpt lat="42.1137716" lon="13.6961241"><ele>915.25</ele><time>2026-05-02T12:10:26.622Z</time></trkpt><trkpt lat="42.1136413" lon="13.6961679"><ele>908.5</ele><time>2026-05-02T12:10:27.623Z</time></trkpt><trkpt lat="42.1135104" lon="13.6962096"><ele>901.75</ele><time>2026-05-02T12:10:28.622Z</time></trkpt><trkpt lat="42.1133818" lon="13.6962437"><ele>895.0</ele><time>2026-05-02T12:10:29.622Z</time></trkpt><trkpt lat="42.1132614" lon="13.6962738"><ele>900.75</ele><time>2026-05-02T12:10:30.623Z</time></trkpt><trkpt lat="42.1131435" lon="13.6963067"><ele>906.5</ele><time>2026-05-02T12:10:31.623Z</time></trkpt><trkpt lat="42.1130234" lon="13.6963524"><ele>912.25</ele><time>2026-05-02T12:10:32.622Z</time></trkpt><trkpt lat="42.1129091" lon="13.6964154"><ele>918.0</ele><time>2026-05-02T12:10:33.622Z</time></trkpt><trkpt lat="42.1127837" lon="13.6964791"><ele>918.0</ele><time>2026-05-02T12:10:34.622Z</time></trkpt><trkpt lat="42.1126504" lon="13.6965546"><ele>918.0</ele><time>2026-05-02T12:10:35.622Z</time></trkpt><trkpt lat="42.1125139" lon="13.6966345"><ele>918.0</ele><time>2026-05-02T12:10:36.622Z</time></trkpt><trkpt lat="42.112373" lon="13.6967246"><ele>918.0</ele><time>2026-05-02T12:10:37.622Z</time></trkpt><trkpt lat="42.1122258" lon="13.6968091"><ele>914.6666666666667</ele><time>2026-05-02T12:10:38.622Z</time></trkpt><trkpt lat="42.1120771" lon="13.6968915"><ele>911.3333333333334</ele><time>2026-05-02T12:10:39.622Z</time></trkpt><trkpt lat="42.1119358" lon="13.6969778"><ele>908.0</ele><time>2026-05-02T12:10:40.623Z</time></trkpt><trkpt lat="42.1118074" lon="13.6970575"><ele>908.0</ele><time>2026-05-02T12:10:41.622Z</time></trkpt><trkpt lat="42.1116856" lon="13.6971273"><ele>908.0</ele><time>2026-05-02T12:10:42.622Z</time></trkpt><trkpt lat="42.1115625" lon="13.6971907"><ele>908.0</ele><time>2026-05-02T12:10:43.623Z</time></trkpt><trkpt lat="42.1114429" lon="13.6972481"><ele>908.0</ele><time>2026-05-02T12:10:44.623Z</time></trkpt><trkpt lat="42.1113214" lon="13.6973039"><ele>915.5</ele><time>2026-05-02T12:10:45.622Z</time></trkpt><trkpt lat="42.1112001" lon="13.6973602"><ele>923.0</ele><time>2026-05-02T12:10:46.623Z</time></trkpt><trkpt lat="42.1110785" lon="13.6974176"><ele>930.5</ele><time>2026-05-02T12:10:47.622Z</time></trkpt><trkpt lat="42.1109552" lon="13.6974811"><ele>938.0</ele><time>2026-05-02T12:10:48.622Z</time></trkpt><trkpt lat="42.1108325" lon="13.6975578"><ele>936.75</ele><time>2026-05-02T12:10:49.622Z</time></trkpt><trkpt lat="42.1107076" lon="13.6976451"><ele>935.5</ele><time>2026-05-02T12:10:50.622Z</time></trkpt><trkpt lat="42.110584" lon="13.6977399"><ele>934.25</ele><time>2026-05-02T12:10:51.623Z</time></trkpt><trkpt lat="42.1104625" lon="13.6978273"><ele>933.0</ele><time>2026-05-02T12:10:52.623Z</time></trkpt><trkpt lat="42.1103329" lon="13.6979095"><ele>933.0</ele><time>2026-05-02T12:10:53.622Z</time></trkpt><trkpt lat="42.1101924" lon="13.6979845"><ele>933.0</ele><time>2026-05-02T12:10:54.623Z</time></trkpt><trkpt lat="42.1100456" lon="13.6980533"><ele>933.0</ele><time>2026-05-02T12:10:55.622Z</time></trkpt><trkpt lat="42.1098981" lon="13.698119"><ele>939.25</ele><time>2026-05-02T12:10:56.623Z</time></trkpt><trkpt lat="42.1097552" lon="13.6981872"><ele>945.5</ele><time>2026-05-02T12:10:57.623Z</time></trkpt><trkpt lat="42.1096163" lon="13.6982574"><ele>951.75</ele><time>2026-05-02T12:10:58.622Z</time></trkpt><trkpt lat="42.1094822" lon="13.6983255"><ele>958.0</ele><time>2026-05-02T12:10:59.622Z</time></trkpt><trkpt lat="42.1093508" lon="13.6983835"><ele>958.0</ele><time>2026-05-02T12:11:00.622Z</time></trkpt><trkpt lat="42.1092225" lon="13.6984281"><ele>958.0</ele><time>2026-05-02T12:11:01.622Z</time></trkpt><trkpt lat="42.1090958" lon="13.6984652"><ele>958.0</ele><time>2026-05-02T12:11:02.622Z</time></trkpt><trkpt lat="42.1089733" lon="13.6984988"><ele>958.0</ele><time>2026-05-02T12:11:03.622Z</time></trkpt><trkpt lat="42.1088625" lon="13.698528"><ele>957.8333333333333</ele><time>2026-05-02T12:11:04.623Z</time></trkpt><trkpt lat="42.108764" lon="13.698555"><ele>957.6666666666666</ele><time>2026-05-02T12:11:05.623Z</time></trkpt><trkpt lat="42.1086777" lon="13.6985724"><ele>957.5</ele><time>2026-05-02T12:11:06.622Z</time></trkpt><trkpt lat="42.108599" lon="13.6985742"><ele>957.3333333333333</ele><time>2026-05-02T12:11:07.622Z</time></trkpt><trkpt lat="42.1085326" lon="13.6985611"><ele>957.1666666666666</ele><time>2026-05-02T12:11:08.622Z</time></trkpt><trkpt lat="42.1084702" lon="13.6985314"><ele>957.0</ele><time>2026-05-02T12:11:09.622Z</time></trkpt><trkpt lat="42.1084131" lon="13.6984734"><ele>957.0</ele><time>2026-05-02T12:11:10.622Z</time></trkpt><trkpt lat="42.1083674" lon="13.6983806"><ele>957.0</ele><time>2026-05-02T12:11:11.623Z</time></trkpt><trkpt lat="42.1083333" lon="13.6982581"><ele>957.0</ele><time>2026-05-02T12:11:12.622Z</time></trkpt><trkpt lat="42.1083005" lon="13.6981253"><ele>957.0</ele><time>2026-05-02T12:11:13.622Z</time></trkpt><trkpt lat="42.108266" lon="13.6980137"><ele>957.0</ele><time>2026-05-02T12:11:14.622Z</time></trkpt><trkpt lat="42.1082258" lon="13.697918"><ele>955.8</ele><time>2026-05-02T12:11:15.623Z</time></trkpt><trkpt lat="42.1081869" lon="13.6978387"><ele>954.6</ele><time>2026-05-02T12:11:16.622Z</time></trkpt><trkpt lat="42.1081214" lon="13.6977069"><ele>953.3999999999999</ele><time>2026-05-02T12:11:18.622Z</time></trkpt><trkpt lat="42.1080706" lon="13.6975838"><ele>952.1999999999999</ele><time>2026-05-02T12:11:20.623Z</time></trkpt><trkpt lat="42.1080475" lon="13.6974845"><ele>951.0</ele><time>2026-05-02T12:11:23.623Z</time></trkpt><trkpt lat="42.1079729" lon="13.6974286"><ele>951.0</ele><time>2026-05-02T12:11:41.622Z</time></trkpt><trkpt lat="42.107942" lon="13.6972939"><ele>951.0</ele><time>2026-05-02T12:11:43.623Z</time></trkpt><trkpt lat="42.1079285" lon="13.697204"><ele>951.0</ele><time>2026-05-02T12:11:44.622Z</time></trkpt><trkpt lat="42.1079034" lon="13.6970397"><ele>951.0</ele><time>2026-05-02T12:11:46.623Z</time></trkpt><trkpt lat="42.1078879" lon="13.6969573"><ele>951.0</ele><time>2026-05-02T12:11:47.622Z</time></trkpt><trkpt lat="42.1078718" lon="13.6968725"><ele>951.0</ele><time>2026-05-02T12:11:48.622Z</time></trkpt><trkpt lat="42.1078573" lon="13.6967837"><ele>950.6666666666666</ele><time>2026-05-02T12:11:49.622Z</time></trkpt><trkpt lat="42.1078418" lon="13.6966904"><ele>950.3333333333333</ele><time>2026-05-02T12:11:50.623Z</time></trkpt><trkpt lat="42.1078252" lon="13.6965943"><ele>950.0</ele><time>2026-05-02T12:11:51.622Z</time></trkpt><trkpt lat="42.1078077" lon="13.696493"><ele>949.6666666666666</ele><time>2026-05-02T12:11:52.622Z</time></trkpt><trkpt lat="42.1077904" lon="13.6963893"><ele>949.3333333333333</ele><time>2026-05-02T12:11:53.622Z</time></trkpt><trkpt lat="42.1077722" lon="13.6962809"><ele>949.0</ele><time>2026-05-02T12:11:54.622Z</time></trkpt><trkpt lat="42.107751" lon="13.6961679"><ele>948.2</ele><time>2026-05-02T12:11:55.622Z</time></trkpt><trkpt lat="42.1077314" lon="13.6960514"><ele>947.4000000000001</ele><time>2026-05-02T12:11:56.622Z</time></trkpt><trkpt lat="42.1077102" lon="13.6959302"><ele>946.6</ele><time>2026-05-02T12:11:57.623Z</time></trkpt><trkpt lat="42.1076887" lon="13.6958076"><ele>945.8</ele><time>2026-05-02T12:11:58.623Z</time></trkpt><trkpt lat="42.1076693" lon="13.6956831"><ele>945.0</ele><time>2026-05-02T12:11:59.622Z</time></trkpt><trkpt lat="42.1076508" lon="13.6955578"><ele>945.0</ele><time>2026-05-02T12:12:00.622Z</time></trkpt><trkpt lat="42.1076295" lon="13.6954329"><ele>945.0</ele><time>2026-05-02T12:12:01.622Z</time></trkpt><trkpt lat="42.1076075" lon="13.6953123"><ele>945.0</ele><time>2026-05-02T12:12:02.623Z</time></trkpt><trkpt lat="42.107585" lon="13.6951891"><ele>945.0</ele><time>2026-05-02T12:12:03.622Z</time></trkpt><trkpt lat="42.1075662" lon="13.6950687"><ele>945.0</ele><time>2026-05-02T12:12:04.623Z</time></trkpt><trkpt lat="42.1075458" lon="13.6949498"><ele>944.6666666666666</ele><time>2026-05-02T12:12:05.623Z</time></trkpt><trkpt lat="42.1075256" lon="13.6948342"><ele>944.3333333333333</ele><time>2026-05-02T12:12:06.622Z</time></trkpt><trkpt lat="42.1075081" lon="13.6947192"><ele>944.0</ele><time>2026-05-02T12:12:07.622Z</time></trkpt><trkpt lat="42.1074876" lon="13.6946162"><ele>943.6666666666666</ele><time>2026-05-02T12:12:08.623Z</time></trkpt><trkpt lat="42.1074613" lon="13.6945323"><ele>943.3333333333333</ele><time>2026-05-02T12:12:09.622Z</time></trkpt><trkpt lat="42.1073727" lon="13.694416"><ele>943.0</ele><time>2026-05-02T12:12:11.622Z</time></trkpt><trkpt lat="42.107299" lon="13.6943811"><ele>938.75</ele><time>2026-05-02T12:12:12.622Z</time></trkpt><trkpt lat="42.1072018" lon="13.6943629"><ele>934.5</ele><time>2026-05-02T12:12:13.622Z</time></trkpt><trkpt lat="42.1070895" lon="13.6943539"><ele>930.25</ele><time>2026-05-02T12:12:14.622Z</time></trkpt><trkpt lat="42.106973" lon="13.6943413"><ele>926.0</ele><time>2026-05-02T12:12:15.622Z</time></trkpt><trkpt lat="42.1068485" lon="13.694326"><ele>926.0</ele><time>2026-05-02T12:12:16.622Z</time></trkpt><trkpt lat="42.1067242" lon="13.6942967"><ele>926.0</ele><time>2026-05-02T12:12:17.622Z</time></trkpt><trkpt lat="42.1065992" lon="13.6942545"><ele>926.0</ele><time>2026-05-02T12:12:18.623Z</time></trkpt><trkpt lat="42.1064734" lon="13.6942192"><ele>926.0</ele><time>2026-05-02T12:12:19.623Z</time></trkpt><trkpt lat="42.1063475" lon="13.6941907"><ele>923.0</ele><time>2026-05-02T12:12:20.623Z</time></trkpt><trkpt lat="42.1062198" lon="13.694161"><ele>920.0</ele><time>2026-05-02T12:12:21.622Z</time></trkpt><trkpt lat="42.1060817" lon="13.694131"><ele>917.0</ele><time>2026-05-02T12:12:22.623Z</time></trkpt><trkpt lat="42.1059443" lon="13.6940998"><ele>914.0</ele><time>2026-05-02T12:12:23.622Z</time></trkpt><trkpt lat="42.1058072" lon="13.6940738"><ele>912.0</ele><time>2026-05-02T12:12:24.622Z</time></trkpt><trkpt lat="42.1056758" lon="13.6940394"><ele>910.0</ele><time>2026-05-02T12:12:25.622Z</time></trkpt><trkpt lat="42.1055479" lon="13.6940006"><ele>908.0</ele><time>2026-05-02T12:12:26.622Z</time></trkpt><trkpt lat="42.1054276" lon="13.6939681"><ele>906.0</ele><time>2026-05-02T12:12:27.622Z</time></trkpt><trkpt lat="42.1053199" lon="13.6939343"><ele>906.0</ele><time>2026-05-02T12:12:28.622Z</time></trkpt><trkpt lat="42.1052379" lon="13.6939052"><ele>906.0</ele><time>2026-05-02T12:12:29.622Z</time></trkpt><trkpt lat="42.1051721" lon="13.6938681"><ele>906.0</ele><time>2026-05-02T12:12:30.622Z</time></trkpt><trkpt lat="42.1051172" lon="13.6938119"><ele>906.0</ele><time>2026-05-02T12:12:31.622Z</time></trkpt><trkpt lat="42.1050685" lon="13.6937367"><ele>906.0</ele><time>2026-05-02T12:12:32.622Z</time></trkpt><trkpt lat="42.1050192" lon="13.6936433"><ele>906.0</ele><time>2026-05-02T12:12:33.622Z</time></trkpt><trkpt lat="42.104969" lon="13.6935483"><ele>907.1666666666666</ele><time>2026-05-02T12:12:34.622Z</time></trkpt><trkpt lat="42.1049246" lon="13.6934595"><ele>908.3333333333333</ele><time>2026-05-02T12:12:35.622Z</time></trkpt><trkpt lat="42.1048834" lon="13.6933799"><ele>909.5</ele><time>2026-05-02T12:12:36.622Z</time></trkpt><trkpt lat="42.1047958" lon="13.6932911"><ele>910.6666666666666</ele><time>2026-05-02T12:12:38.622Z</time></trkpt><trkpt lat="42.1046798" lon="13.6932907"><ele>911.8333333333333</ele><time>2026-05-02T12:12:40.622Z</time></trkpt><trkpt lat="42.1046099" lon="13.6933029"><ele>913.0</ele><time>2026-05-02T12:12:41.623Z</time></trkpt><trkpt lat="42.1045342" lon="13.693302"><ele>913.9999999999999</ele><time>2026-05-02T12:12:42.623Z</time></trkpt><trkpt lat="42.1044522" lon="13.6932871"><ele>915.0</ele><time>2026-05-02T12:12:43.622Z</time></trkpt><trkpt lat="42.1043715" lon="13.6932655"><ele>916.0</ele><time>2026-05-02T12:12:44.622Z</time></trkpt><trkpt lat="42.1042948" lon="13.6932568"><ele>917.0</ele><time>2026-05-02T12:12:45.622Z</time></trkpt><trkpt lat="42.1042253" lon="13.6932576"><ele>917.9999999999999</ele><time>2026-05-02T12:12:46.623Z</time></trkpt><trkpt lat="42.1041354" lon="13.6933548"><ele>919.0</ele><time>2026-05-02T12:12:48.622Z</time></trkpt><trkpt lat="42.1040977" lon="13.693432"><ele>919.6666666666666</ele><time>2026-05-02T12:12:49.622Z</time></trkpt><trkpt lat="42.1040721" lon="13.6935182"><ele>920.3333333333333</ele><time>2026-05-02T12:12:50.622Z</time></trkpt><trkpt lat="42.1040558" lon="13.6936129"><ele>921.0</ele><time>2026-05-02T12:12:51.622Z</time></trkpt><trkpt lat="42.1040375" lon="13.6937087"><ele>921.6666666666667</ele><time>2026-05-02T12:12:52.623Z</time></trkpt><trkpt lat="42.1040157" lon="13.6937947"><ele>922.3333333333334</ele><time>2026-05-02T12:12:53.623Z</time></trkpt><trkpt lat="42.1039551" lon="13.6939356"><ele>923.0</ele><time>2026-05-02T12:12:55.622Z</time></trkpt><trkpt lat="42.1038724" lon="13.6940462"><ele>923.0</ele><time>2026-05-02T12:12:57.622Z</time></trkpt><trkpt lat="42.1037569" lon="13.6941102"><ele>923.0</ele><time>2026-05-02T12:12:59.622Z</time></trkpt><trkpt lat="42.1036263" lon="13.6941142"><ele>923.0</ele><time>2026-05-02T12:13:01.622Z</time></trkpt><trkpt lat="42.1035497" lon="13.6941031"><ele>923.0</ele><time>2026-05-02T12:13:02.622Z</time></trkpt><trkpt lat="42.1034732" lon="13.6940844"><ele>923.0</ele><time>2026-05-02T12:13:03.622Z</time></trkpt><trkpt lat="42.1034014" lon="13.6940687"><ele>923.0000000000001</ele><time>2026-05-02T12:13:04.622Z</time></trkpt><trkpt lat="42.1033336" lon="13.6940619"><ele>923.0</ele><time>2026-05-02T12:13:05.622Z</time></trkpt><trkpt lat="42.1032556" lon="13.694072"><ele>923.0</ele><time>2026-05-02T12:13:06.622Z</time></trkpt><trkpt lat="42.1031591" lon="13.694093"><ele>923.0</ele><time>2026-05-02T12:13:07.622Z</time></trkpt><trkpt lat="42.1030618" lon="13.694115"><ele>923.0000000000001</ele><time>2026-05-02T12:13:08.622Z</time></trkpt><trkpt lat="42.1029745" lon="13.6941317"><ele>923.0</ele><time>2026-05-02T12:13:09.622Z</time></trkpt><trkpt lat="42.1029002" lon="13.6941429"><ele>923.5714285714286</ele><time>2026-05-02T12:13:10.622Z</time></trkpt><trkpt lat="42.102832" lon="13.6941523"><ele>924.1428571428571</ele><time>2026-05-02T12:13:11.622Z</time></trkpt><trkpt lat="42.1027658" lon="13.6941575"><ele>924.7142857142857</ele><time>2026-05-02T12:13:12.622Z</time></trkpt><trkpt lat="42.1026956" lon="13.6941559"><ele>925.2857142857142</ele><time>2026-05-02T12:13:13.623Z</time></trkpt><trkpt lat="42.1026184" lon="13.694146"><ele>925.8571428571429</ele><time>2026-05-02T12:13:14.623Z</time></trkpt><trkpt lat="42.1025368" lon="13.6941282"><ele>926.4285714285713</ele><time>2026-05-02T12:13:15.622Z</time></trkpt><trkpt lat="42.1024549" lon="13.694108"><ele>926.9999999999999</ele><time>2026-05-02T12:13:16.622Z</time></trkpt><trkpt lat="42.1023731" lon="13.6940894"><ele>928.0</ele><time>2026-05-02T12:13:17.622Z</time></trkpt><trkpt lat="42.1022873" lon="13.6940757"><ele>929.0</ele><time>2026-05-02T12:13:18.622Z</time></trkpt><trkpt lat="42.1021986" lon="13.6940641"><ele>930.0</ele><time>2026-05-02T12:13:19.622Z</time></trkpt><trkpt lat="42.1021181" lon="13.6940511"><ele>931.0</ele><time>2026-05-02T12:13:20.623Z</time></trkpt><trkpt lat="42.1020511" lon="13.6940321"><ele>932.0</ele><time>2026-05-02T12:13:21.622Z</time></trkpt><trkpt lat="42.1019381" lon="13.6939666"><ele>933.0</ele><time>2026-05-02T12:13:23.623Z</time></trkpt><trkpt lat="42.101844" lon="13.6938468"><ele>933.0</ele><time>2026-05-02T12:13:25.622Z</time></trkpt><trkpt lat="42.1018039" lon="13.69377"><ele>933.0</ele><time>2026-05-02T12:13:26.622Z</time></trkpt><trkpt lat="42.1017328" lon="13.6936699"><ele>933.0</ele><time>2026-05-02T12:13:28.622Z</time></trkpt><trkpt lat="42.1016462" lon="13.6935903"><ele>933.0</ele><time>2026-05-02T12:13:30.622Z</time></trkpt><trkpt lat="42.1015333" lon="13.6935253"><ele>933.0</ele><time>2026-05-02T12:13:32.623Z</time></trkpt><trkpt lat="42.101471" lon="13.6934995"><ele>935.3333333333334</ele><time>2026-05-02T12:13:33.623Z</time></trkpt><trkpt lat="42.1013748" lon="13.6934971"><ele>937.6666666666667</ele><time>2026-05-02T12:13:35.622Z</time></trkpt><trkpt lat="42.101295" lon="13.6935654"><ele>940.0</ele><time>2026-05-02T12:13:37.623Z</time></trkpt><trkpt lat="42.1012273" lon="13.6936792"><ele>942.3333333333334</ele><time>2026-05-02T12:13:39.622Z</time></trkpt><trkpt lat="42.1011939" lon="13.6937607"><ele>944.6666666666667</ele><time>2026-05-02T12:13:40.623Z</time></trkpt><trkpt lat="42.10115" lon="13.6938443"><ele>947.0</ele><time>2026-05-02T12:13:41.622Z</time></trkpt><trkpt lat="42.1010975" lon="13.6939243"><ele>947.0000000000001</ele><time>2026-05-02T12:13:42.623Z</time></trkpt><trkpt lat="42.1010468" lon="13.6939908"><ele>947.0</ele><time>2026-05-02T12:13:43.623Z</time></trkpt><trkpt lat="42.1009453" lon="13.6940887"><ele>947.0</ele><time>2026-05-02T12:13:45.622Z</time></trkpt><trkpt lat="42.1008863" lon="13.694141"><ele>947.0</ele><time>2026-05-02T12:13:46.622Z</time></trkpt><trkpt lat="42.1008274" lon="13.6942049"><ele>947.0000000000001</ele><time>2026-05-02T12:13:47.622Z</time></trkpt><trkpt lat="42.1007699" lon="13.6942697"><ele>947.0</ele><time>2026-05-02T12:13:48.623Z</time></trkpt><trkpt lat="42.1007108" lon="13.6943284"><ele>949.8</ele><time>2026-05-02T12:13:49.623Z</time></trkpt><trkpt lat="42.1006501" lon="13.6943642"><ele>952.6</ele><time>2026-05-02T12:13:50.622Z</time></trkpt><trkpt lat="42.1005308" lon="13.6943764"><ele>955.3999999999999</ele><time>2026-05-02T12:13:52.622Z</time></trkpt><trkpt lat="42.1004169" lon="13.6943147"><ele>958.1999999999999</ele><time>2026-05-02T12:13:54.623Z</time></trkpt><trkpt lat="42.1003541" lon="13.6942761"><ele>961.0</ele><time>2026-05-02T12:13:55.622Z</time></trkpt><trkpt lat="42.1002496" lon="13.6942411"><ele>961.0</ele><time>2026-05-02T12:13:57.622Z</time></trkpt><trkpt lat="42.1001604" lon="13.6942702"><ele>960.9999999999999</ele><time>2026-05-02T12:13:59.623Z</time></trkpt><trkpt lat="42.1000465" lon="13.6942203"><ele>960.9999999999999</ele><time>2026-05-02T12:14:01.622Z</time></trkpt><trkpt lat="42.099971" lon="13.694182"><ele>961.0</ele><time>2026-05-02T12:14:02.622Z</time></trkpt><trkpt lat="42.0998894" lon="13.6941442"><ele>961.0</ele><time>2026-05-02T12:14:03.622Z</time></trkpt><trkpt lat="42.099819" lon="13.6941068"><ele>963.8333333333333</ele><time>2026-05-02T12:14:04.623Z</time></trkpt><trkpt lat="42.0997323" lon="13.6939941"><ele>966.6666666666666</ele><time>2026-05-02T12:14:06.623Z</time></trkpt><trkpt lat="42.0996939" lon="13.6938374"><ele>969.5</ele><time>2026-05-02T12:14:08.622Z</time></trkpt><trkpt lat="42.0996701" lon="13.6937546"><ele>972.3333333333333</ele><time>2026-05-02T12:14:09.623Z</time></trkpt><trkpt lat="42.099639" lon="13.6936709"><ele>975.1666666666666</ele><time>2026-05-02T12:14:10.623Z</time></trkpt><trkpt lat="42.0996097" lon="13.69359"><ele>978.0</ele><time>2026-05-02T12:14:11.623Z</time></trkpt><trkpt lat="42.0995858" lon="13.6935076"><ele>980.25</ele><time>2026-05-02T12:14:12.622Z</time></trkpt><trkpt lat="42.0995219" lon="13.6933714"><ele>982.5</ele><time>2026-05-02T12:14:14.622Z</time></trkpt><trkpt lat="42.099417" lon="13.6932725"><ele>984.75</ele><time>2026-05-02T12:14:16.623Z</time></trkpt><trkpt lat="42.0993177" lon="13.693191"><ele>987.0</ele><time>2026-05-02T12:14:18.622Z</time></trkpt><trkpt lat="42.0992186" lon="13.6931823"><ele>987.0</ele><time>2026-05-02T12:14:20.622Z</time></trkpt><trkpt lat="42.0991248" lon="13.6932276"><ele>987.0</ele><time>2026-05-02T12:14:22.623Z</time></trkpt><trkpt lat="42.0990281" lon="13.6932861"><ele>987.0</ele><time>2026-05-02T12:14:24.623Z</time></trkpt><trkpt lat="42.0989574" lon="13.6933696"><ele>987.0</ele><time>2026-05-02T12:14:26.622Z</time></trkpt><trkpt lat="42.0989229" lon="13.6935364"><ele>987.0</ele><time>2026-05-02T12:14:28.622Z</time></trkpt><trkpt lat="42.0989191" lon="13.6936282"><ele>989.8333333333334</ele><time>2026-05-02T12:14:29.622Z</time></trkpt><trkpt lat="42.098925" lon="13.6937254"><ele>992.6666666666667</ele><time>2026-05-02T12:14:30.623Z</time></trkpt><trkpt lat="42.0989298" lon="13.693825"><ele>995.5</ele><time>2026-05-02T12:14:31.622Z</time></trkpt><trkpt lat="42.0989236" lon="13.6939186"><ele>998.3333333333334</ele><time>2026-05-02T12:14:32.622Z</time></trkpt><trkpt lat="42.0989051" lon="13.6940074"><ele>1001.1666666666667</ele><time>2026-05-02T12:14:33.622Z</time></trkpt><trkpt lat="42.0988407" lon="13.694128"><ele>1004.0</ele><time>2026-05-02T12:14:35.623Z</time></trkpt><trkpt lat="42.09874" lon="13.6941914"><ele>1004.0000000000001</ele><time>2026-05-02T12:14:37.622Z</time></trkpt><trkpt lat="42.0986786" lon="13.6942186"><ele>1004.0</ele><time>2026-05-02T12:14:38.623Z</time></trkpt><trkpt lat="42.0986159" lon="13.6942626"><ele>1004.0</ele><time>2026-05-02T12:14:39.622Z</time></trkpt><trkpt lat="42.0985503" lon="13.6943326"><ele>1004.0</ele><time>2026-05-02T12:14:40.622Z</time></trkpt><trkpt lat="42.0984803" lon="13.6944125"><ele>1004.0000000000001</ele><time>2026-05-02T12:14:41.622Z</time></trkpt><trkpt lat="42.0984151" lon="13.6944958"><ele>1004.0</ele><time>2026-05-02T12:14:42.622Z</time></trkpt><trkpt lat="42.0983569" lon="13.69459"><ele>1004.0</ele><time>2026-05-02T12:14:43.623Z</time></trkpt><trkpt lat="42.0983072" lon="13.6946988"><ele>1004.0000000000001</ele><time>2026-05-02T12:14:44.622Z</time></trkpt><trkpt lat="42.0982667" lon="13.6948124"><ele>1004.0000000000001</ele><time>2026-05-02T12:14:45.622Z</time></trkpt><trkpt lat="42.0982234" lon="13.6949165"><ele>1004.0</ele><time>2026-05-02T12:14:46.623Z</time></trkpt><trkpt lat="42.098168" lon="13.6950159"><ele>1004.0</ele><time>2026-05-02T12:14:47.622Z</time></trkpt><trkpt lat="42.0981037" lon="13.6951213"><ele>1004.0000000000001</ele><time>2026-05-02T12:14:48.622Z</time></trkpt><trkpt lat="42.0980405" lon="13.6952334"><ele>1004.0</ele><time>2026-05-02T12:14:49.623Z</time></trkpt><trkpt lat="42.0979861" lon="13.6953303"><ele>1004.0</ele><time>2026-05-02T12:14:50.622Z</time></trkpt><trkpt lat="42.0979386" lon="13.6954076"><ele>1004.0</ele><time>2026-05-02T12:14:51.622Z</time></trkpt><trkpt lat="42.0978846" lon="13.6954697"><ele>1004.0000000000001</ele><time>2026-05-02T12:14:52.622Z</time></trkpt><trkpt lat="42.0978105" lon="13.6955186"><ele>1004.0</ele><time>2026-05-02T12:14:53.622Z</time></trkpt><trkpt lat="42.0977047" lon="13.6955632"><ele>1002.5</ele><time>2026-05-02T12:14:54.623Z</time></trkpt><trkpt lat="42.097587" lon="13.6956063"><ele>1001.0</ele><time>2026-05-02T12:14:55.622Z</time></trkpt><trkpt lat="42.097474" lon="13.6956441"><ele>999.5</ele><time>2026-05-02T12:14:56.622Z</time></trkpt><trkpt lat="42.0973651" lon="13.6956844"><ele>998.0</ele><time>2026-05-02T12:14:57.622Z</time></trkpt><trkpt lat="42.0972657" lon="13.6957425"><ele>998.0</ele><time>2026-05-02T12:14:58.622Z</time></trkpt><trkpt lat="42.0971713" lon="13.6958067"><ele>998.0</ele><time>2026-05-02T12:14:59.622Z</time></trkpt><trkpt lat="42.097073" lon="13.6958506"><ele>998.0</ele><time>2026-05-02T12:15:00.622Z</time></trkpt><trkpt lat="42.0969753" lon="13.6958728"><ele>998.0</ele><time>2026-05-02T12:15:01.622Z</time></trkpt><trkpt lat="42.0968824" lon="13.6958836"><ele>998.0</ele><time>2026-05-02T12:15:02.623Z</time></trkpt><trkpt lat="42.096792" lon="13.695881"><ele>998.0000000000001</ele><time>2026-05-02T12:15:03.623Z</time></trkpt><trkpt lat="42.096715" lon="13.6958591"><ele>998.0</ele><time>2026-05-02T12:15:04.622Z</time></trkpt><trkpt lat="42.0966518" lon="13.6958162"><ele>998.0</ele><time>2026-05-02T12:15:05.622Z</time></trkpt><trkpt lat="42.0965925" lon="13.6957578"><ele>998.0</ele><time>2026-05-02T12:15:06.622Z</time></trkpt><trkpt lat="42.0965392" lon="13.6957054"><ele>998.0000000000001</ele><time>2026-05-02T12:15:07.622Z</time></trkpt><trkpt lat="42.0964435" lon="13.6956515"><ele>998.0</ele><time>2026-05-02T12:15:09.623Z</time></trkpt><trkpt lat="42.0963431" lon="13.6956818"><ele>997.7142857142858</ele><time>2026-05-02T12:15:11.622Z</time></trkpt><trkpt lat="42.0962804" lon="13.6957308"><ele>997.4285714285714</ele><time>2026-05-02T12:15:12.623Z</time></trkpt><trkpt lat="42.0962121" lon="13.6957905"><ele>997.1428571428571</ele><time>2026-05-02T12:15:13.622Z</time></trkpt><trkpt lat="42.0961412" lon="13.6958362"><ele>996.8571428571429</ele><time>2026-05-02T12:15:14.623Z</time></trkpt><trkpt lat="42.0960705" lon="13.6958752"><ele>996.5714285714284</ele><time>2026-05-02T12:15:15.623Z</time></trkpt><trkpt lat="42.096001" lon="13.695906"><ele>996.2857142857142</ele><time>2026-05-02T12:15:16.623Z</time></trkpt><trkpt lat="42.0959338" lon="13.6959135"><ele>996.0</ele><time>2026-05-02T12:15:17.622Z</time></trkpt><trkpt lat="42.0958128" lon="13.6958582"><ele>997.0</ele><time>2026-05-02T12:15:19.622Z</time></trkpt><trkpt lat="42.0957371" lon="13.6958103"><ele>997.9999999999999</ele><time>2026-05-02T12:15:20.622Z</time></trkpt><trkpt lat="42.0956639" lon="13.6957651"><ele>999.0</ele><time>2026-05-02T12:15:21.622Z</time></trkpt><trkpt lat="42.0955977" lon="13.6957318"><ele>1000.0</ele><time>2026-05-02T12:15:22.622Z</time></trkpt><trkpt lat="42.0955302" lon="13.6957182"><ele>1000.9999999999999</ele><time>2026-05-02T12:15:23.622Z</time></trkpt><trkpt lat="42.0954594" lon="13.6957222"><ele>1002.0</ele><time>2026-05-02T12:15:24.623Z</time></trkpt><trkpt lat="42.0953844" lon="13.6957337"><ele>1003.0</ele><time>2026-05-02T12:15:25.623Z</time></trkpt><trkpt lat="42.0953107" lon="13.6957506"><ele>1002.9999999999999</ele><time>2026-05-02T12:15:26.622Z</time></trkpt><trkpt lat="42.0952429" lon="13.695779"><ele>1003.0</ele><time>2026-05-02T12:15:27.622Z</time></trkpt><trkpt lat="42.0951788" lon="13.6958171"><ele>1003.0</ele><time>2026-05-02T12:15:28.622Z</time></trkpt><trkpt lat="42.0950741" lon="13.6958957"><ele>1003.0</ele><time>2026-05-02T12:15:30.623Z</time></trkpt><trkpt lat="42.0950145" lon="13.6959294"><ele>1002.9999999999999</ele><time>2026-05-02T12:15:31.622Z</time></trkpt><trkpt lat="42.0949439" lon="13.6959615"><ele>1003.0</ele><time>2026-05-02T12:15:32.622Z</time></trkpt><trkpt lat="42.0948675" lon="13.6959929"><ele>1003.6666666666666</ele><time>2026-05-02T12:15:33.623Z</time></trkpt><trkpt lat="42.0947874" lon="13.6960244"><ele>1004.3333333333333</ele><time>2026-05-02T12:15:34.623Z</time></trkpt><trkpt lat="42.0947063" lon="13.6960554"><ele>1005.0</ele><time>2026-05-02T12:15:35.623Z</time></trkpt><trkpt lat="42.0946265" lon="13.6960946"><ele>1005.6666666666667</ele><time>2026-05-02T12:15:36.622Z</time></trkpt><trkpt lat="42.0945494" lon="13.6961424"><ele>1006.3333333333334</ele><time>2026-05-02T12:15:37.622Z</time></trkpt><trkpt lat="42.0944756" lon="13.696193"><ele>1007.0</ele><time>2026-05-02T12:15:38.623Z</time></trkpt><trkpt lat="42.0944042" lon="13.6962381"><ele>1007.1666666666667</ele><time>2026-05-02T12:15:39.622Z</time></trkpt><trkpt lat="42.0943288" lon="13.6962723"><ele>1007.3333333333334</ele><time>2026-05-02T12:15:40.622Z</time></trkpt><trkpt lat="42.0942473" lon="13.6962925"><ele>1007.5</ele><time>2026-05-02T12:15:41.623Z</time></trkpt><trkpt lat="42.0941634" lon="13.6963151"><ele>1007.6666666666667</ele><time>2026-05-02T12:15:42.623Z</time></trkpt><trkpt lat="42.0940815" lon="13.696351"><ele>1007.8333333333334</ele><time>2026-05-02T12:15:43.622Z</time></trkpt><trkpt lat="42.0940022" lon="13.6963762"><ele>1008.0</ele><time>2026-05-02T12:15:44.622Z</time></trkpt><trkpt lat="42.0939253" lon="13.6963908"><ele>1008.0</ele><time>2026-05-02T12:15:45.623Z</time></trkpt><trkpt lat="42.093853" lon="13.6964183"><ele>1008.0</ele><time>2026-05-02T12:15:46.622Z</time></trkpt><trkpt lat="42.0937848" lon="13.6964641"><ele>1008.0</ele><time>2026-05-02T12:15:47.623Z</time></trkpt><trkpt lat="42.0937213" lon="13.6965228"><ele>1008.0</ele><time>2026-05-02T12:15:48.622Z</time></trkpt><trkpt lat="42.0936632" lon="13.6965873"><ele>1008.0</ele><time>2026-05-02T12:15:49.623Z</time></trkpt><trkpt lat="42.0936082" lon="13.6966544"><ele>1008.0</ele><time>2026-05-02T12:15:50.622Z</time></trkpt><trkpt lat="42.0935597" lon="13.6967285"><ele>1008.0</ele><time>2026-05-02T12:15:51.622Z</time></trkpt><trkpt lat="42.0935139" lon="13.6968073"><ele>1008.0</ele><time>2026-05-02T12:15:52.622Z</time></trkpt><trkpt lat="42.0934687" lon="13.6968857"><ele>1008.0</ele><time>2026-05-02T12:15:53.622Z</time></trkpt><trkpt lat="42.0934244" lon="13.6969627"><ele>1008.0</ele><time>2026-05-02T12:15:54.623Z</time></trkpt><trkpt lat="42.0933799" lon="13.697043"><ele>1008.0</ele><time>2026-05-02T12:15:55.622Z</time></trkpt><trkpt lat="42.0933335" lon="13.6971299"><ele>1008.0</ele><time>2026-05-02T12:15:56.622Z</time></trkpt><trkpt lat="42.0932838" lon="13.6972215"><ele>1007.1666666666666</ele><time>2026-05-02T12:15:57.622Z</time></trkpt><trkpt lat="42.0932353" lon="13.6973173"><ele>1006.3333333333333</ele><time>2026-05-02T12:15:58.622Z</time></trkpt><trkpt lat="42.09319" lon="13.6974129"><ele>1005.5</ele><time>2026-05-02T12:15:59.622Z</time></trkpt><trkpt lat="42.0931483" lon="13.6975123"><ele>1004.6666666666666</ele><time>2026-05-02T12:16:00.622Z</time></trkpt><trkpt lat="42.0931029" lon="13.6976124"><ele>1003.8333333333333</ele><time>2026-05-02T12:16:01.622Z</time></trkpt><trkpt lat="42.0930478" lon="13.6976995"><ele>1003.0</ele><time>2026-05-02T12:16:02.622Z</time></trkpt><trkpt lat="42.0929816" lon="13.6977656"><ele>1002.9999999999999</ele><time>2026-05-02T12:16:03.623Z</time></trkpt><trkpt lat="42.0929056" lon="13.6978049"><ele>1003.0</ele><time>2026-05-02T12:16:04.622Z</time></trkpt><trkpt lat="42.092834" lon="13.6978111"><ele>1003.0</ele><time>2026-05-02T12:16:05.622Z</time></trkpt><trkpt lat="42.092731" lon="13.6977713"><ele>1003.0</ele><time>2026-05-02T12:16:07.622Z</time></trkpt><trkpt lat="42.092667" lon="13.6977315"><ele>1002.9999999999999</ele><time>2026-05-02T12:16:08.622Z</time></trkpt><trkpt lat="42.092598" lon="13.6977042"><ele>1003.0</ele><time>2026-05-02T12:16:09.622Z</time></trkpt><trkpt lat="42.0925242" lon="13.6977018"><ele>1002.9999999999999</ele><time>2026-05-02T12:16:10.623Z</time></trkpt><trkpt lat="42.092439" lon="13.6977185"><ele>1003.0</ele><time>2026-05-02T12:16:11.622Z</time></trkpt><trkpt lat="42.0923553" lon="13.6977454"><ele>1003.0</ele><time>2026-05-02T12:16:12.623Z</time></trkpt><trkpt lat="42.0922762" lon="13.6977739"><ele>1003.0</ele><time>2026-05-02T12:16:13.622Z</time></trkpt><trkpt lat="42.0921972" lon="13.6978047"><ele>1002.9999999999999</ele><time>2026-05-02T12:16:14.622Z</time></trkpt><trkpt lat="42.0921176" lon="13.6978303"><ele>1003.0</ele><time>2026-05-02T12:16:15.622Z</time></trkpt><trkpt lat="42.0920347" lon="13.6978411"><ele>1001.6666666666666</ele><time>2026-05-02T12:16:16.622Z</time></trkpt><trkpt lat="42.0919468" lon="13.6978309"><ele>1000.3333333333333</ele><time>2026-05-02T12:16:17.623Z</time></trkpt><trkpt lat="42.0918552" lon="13.697821"><ele>999.0</ele><time>2026-05-02T12:16:18.622Z</time></trkpt><trkpt lat="42.0917708" lon="13.69783"><ele>997.6666666666667</ele><time>2026-05-02T12:16:19.622Z</time></trkpt><trkpt lat="42.0916925" lon="13.697857"><ele>996.3333333333334</ele><time>2026-05-02T12:16:20.622Z</time></trkpt><trkpt lat="42.0916104" lon="13.6979083"><ele>995.0</ele><time>2026-05-02T12:16:21.622Z</time></trkpt><trkpt lat="42.091528" lon="13.6979754"><ele>994.4</ele><time>2026-05-02T12:16:22.623Z</time></trkpt><trkpt lat="42.0914412" lon="13.6980474"><ele>993.8</ele><time>2026-05-02T12:16:23.622Z</time></trkpt><trkpt lat="42.0913475" lon="13.6981097"><ele>993.2</ele><time>2026-05-02T12:16:24.623Z</time></trkpt><trkpt lat="42.0912579" lon="13.698163"><ele>992.6</ele><time>2026-05-02T12:16:25.622Z</time></trkpt><trkpt lat="42.0911733" lon="13.6982202"><ele>992.0</ele><time>2026-05-02T12:16:26.623Z</time></trkpt><trkpt lat="42.0910926" lon="13.6982669"><ele>992.0000000000001</ele><time>2026-05-02T12:16:27.622Z</time></trkpt><trkpt lat="42.0910126" lon="13.6982973"><ele>992.0</ele><time>2026-05-02T12:16:28.622Z</time></trkpt><trkpt lat="42.0909488" lon="13.6983332"><ele>992.0</ele><time>2026-05-02T12:16:29.622Z</time></trkpt><trkpt lat="42.090878" lon="13.698461"><ele>992.0</ele><time>2026-05-02T12:16:31.622Z</time></trkpt><trkpt lat="42.0908593" lon="13.6985477"><ele>992.0000000000001</ele><time>2026-05-02T12:16:32.622Z</time></trkpt><trkpt lat="42.0908534" lon="13.698651"><ele>992.0</ele><time>2026-05-02T12:16:33.623Z</time></trkpt><trkpt lat="42.090847" lon="13.6987556"><ele>992.5000000000001</ele><time>2026-05-02T12:16:34.622Z</time></trkpt><trkpt lat="42.0908256" lon="13.6988512"><ele>993.0</ele><time>2026-05-02T12:16:35.622Z</time></trkpt><trkpt lat="42.0907859" lon="13.6989404"><ele>993.5</ele><time>2026-05-02T12:16:36.623Z</time></trkpt><trkpt lat="42.0907377" lon="13.6990072"><ele>994.0</ele><time>2026-05-02T12:16:37.622Z</time></trkpt><trkpt lat="42.0906536" lon="13.6990613"><ele>994.5000000000001</ele><time>2026-05-02T12:16:39.623Z</time></trkpt><trkpt lat="42.090561" lon="13.6991641"><ele>995.0</ele><time>2026-05-02T12:16:41.622Z</time></trkpt><trkpt lat="42.0904998" lon="13.6992206"><ele>995.3333333333334</ele><time>2026-05-02T12:16:42.622Z</time></trkpt><trkpt lat="42.0904279" lon="13.6992651"><ele>995.6666666666667</ele><time>2026-05-02T12:16:43.622Z</time></trkpt><trkpt lat="42.0903521" lon="13.6993085"><ele>996.0</ele><time>2026-05-02T12:16:44.622Z</time></trkpt><trkpt lat="42.0902754" lon="13.6993532"><ele>996.3333333333333</ele><time>2026-05-02T12:16:45.622Z</time></trkpt><trkpt lat="42.0901998" lon="13.6994069"><ele>996.6666666666666</ele><time>2026-05-02T12:16:46.623Z</time></trkpt><trkpt lat="42.0901294" lon="13.6994721"><ele>997.0</ele><time>2026-05-02T12:16:47.622Z</time></trkpt><trkpt lat="42.0900622" lon="13.6995328"><ele>997.4999999999999</ele><time>2026-05-02T12:16:48.622Z</time></trkpt><trkpt lat="42.0899938" lon="13.6995844"><ele>998.0</ele><time>2026-05-02T12:16:49.622Z</time></trkpt><trkpt lat="42.0899253" lon="13.6996242"><ele>998.5</ele><time>2026-05-02T12:16:50.623Z</time></trkpt><trkpt lat="42.0898604" lon="13.6996467"><ele>999.0</ele><time>2026-05-02T12:16:51.623Z</time></trkpt><trkpt lat="42.0897538" lon="13.6996162"><ele>999.4999999999999</ele><time>2026-05-02T12:16:53.622Z</time></trkpt><trkpt lat="42.0896873" lon="13.6995189"><ele>1000.0</ele><time>2026-05-02T12:16:55.623Z</time></trkpt><trkpt lat="42.0896378" lon="13.699364"><ele>999.9999999999999</ele><time>2026-05-02T12:16:57.622Z</time></trkpt><trkpt lat="42.0896052" lon="13.6992652"><ele>1000.0</ele><time>2026-05-02T12:16:58.622Z</time></trkpt><trkpt lat="42.089578" lon="13.6991585"><ele>1000.0</ele><time>2026-05-02T12:16:59.623Z</time></trkpt><trkpt lat="42.0895587" lon="13.6990445"><ele>1000.0</ele><time>2026-05-02T12:17:00.623Z</time></trkpt><trkpt lat="42.0895452" lon="13.6989257"><ele>999.9999999999999</ele><time>2026-05-02T12:17:01.623Z</time></trkpt><trkpt lat="42.0895425" lon="13.6988135"><ele>1000.0</ele><time>2026-05-02T12:17:02.622Z</time></trkpt><trkpt lat="42.0895464" lon="13.6987047"><ele>999.9999999999999</ele><time>2026-05-02T12:17:03.622Z</time></trkpt><trkpt lat="42.0895544" lon="13.6985959"><ele>1000.0</ele><time>2026-05-02T12:17:04.622Z</time></trkpt><trkpt lat="42.0895592" lon="13.698491"><ele>1000.0</ele><time>2026-05-02T12:17:05.622Z</time></trkpt><trkpt lat="42.0895503" lon="13.6983904"><ele>1000.0</ele><time>2026-05-02T12:17:06.622Z</time></trkpt><trkpt lat="42.0895224" lon="13.698295"><ele>999.9999999999999</ele><time>2026-05-02T12:17:07.622Z</time></trkpt><trkpt lat="42.0894789" lon="13.6982052"><ele>1000.0</ele><time>2026-05-02T12:17:08.622Z</time></trkpt><trkpt lat="42.0894332" lon="13.6981209"><ele>999.0</ele><time>2026-05-02T12:17:09.622Z</time></trkpt><trkpt lat="42.0893475" lon="13.69803"><ele>998.0</ele><time>2026-05-02T12:17:11.622Z</time></trkpt><trkpt lat="42.0892164" lon="13.6980434"><ele>997.0</ele><time>2026-05-02T12:17:13.623Z</time></trkpt><trkpt lat="42.0891271" lon="13.6980896"><ele>996.0</ele><time>2026-05-02T12:17:14.622Z</time></trkpt><trkpt lat="42.0890379" lon="13.6981479"><ele>995.0</ele><time>2026-05-02T12:17:15.622Z</time></trkpt><trkpt lat="42.0889601" lon="13.6982171"><ele>995.0000000000001</ele><time>2026-05-02T12:17:16.623Z</time></trkpt><trkpt lat="42.0888936" lon="13.6982967"><ele>995.0</ele><time>2026-05-02T12:17:17.623Z</time></trkpt><trkpt lat="42.0888369" lon="13.6983589"><ele>995.0</ele><time>2026-05-02T12:17:18.623Z</time></trkpt><trkpt lat="42.0887673" lon="13.698402"><ele>995.0</ele><time>2026-05-02T12:17:19.622Z</time></trkpt><trkpt lat="42.0886788" lon="13.6984519"><ele>995.0000000000001</ele><time>2026-05-02T12:17:20.622Z</time></trkpt><trkpt lat="42.0885834" lon="13.6985093"><ele>995.0</ele><time>2026-05-02T12:17:21.622Z</time></trkpt><trkpt lat="42.0884944" lon="13.6985673"><ele>994.8</ele><time>2026-05-02T12:17:22.622Z</time></trkpt><trkpt lat="42.0884135" lon="13.6986185"><ele>994.6</ele><time>2026-05-02T12:17:23.622Z</time></trkpt><trkpt lat="42.0883353" lon="13.6986657"><ele>994.4000000000001</ele><time>2026-05-02T12:17:24.622Z</time></trkpt><trkpt lat="42.0882542" lon="13.6987159"><ele>994.2</ele><time>2026-05-02T12:17:25.622Z</time></trkpt><trkpt lat="42.0881728" lon="13.698794"><ele>994.0</ele><time>2026-05-02T12:17:26.622Z</time></trkpt><trkpt lat="42.0880979" lon="13.6988913"><ele>993.4999999999999</ele><time>2026-05-02T12:17:27.622Z</time></trkpt><trkpt lat="42.08803" lon="13.6989915"><ele>993.0</ele><time>2026-05-02T12:17:28.622Z</time></trkpt><trkpt lat="42.0879713" lon="13.6990915"><ele>992.5</ele><time>2026-05-02T12:17:29.623Z</time></trkpt><trkpt lat="42.0879225" lon="13.6991918"><ele>992.0</ele><time>2026-05-02T12:17:30.622Z</time></trkpt><trkpt lat="42.0878886" lon="13.6992898"><ele>991.4999999999999</ele><time>2026-05-02T12:17:31.622Z</time></trkpt><trkpt lat="42.0878735" lon="13.6993916"><ele>991.0</ele><time>2026-05-02T12:17:32.623Z</time></trkpt><trkpt lat="42.0878778" lon="13.6995055"><ele>989.3333333333333</ele><time>2026-05-02T12:17:33.623Z</time></trkpt><trkpt lat="42.0878888" lon="13.6996328"><ele>987.6666666666666</ele><time>2026-05-02T12:17:34.622Z</time></trkpt><trkpt lat="42.0878898" lon="13.699758"><ele>986.0</ele><time>2026-05-02T12:17:35.623Z</time></trkpt><trkpt lat="42.0878741" lon="13.6998717"><ele>984.3333333333333</ele><time>2026-05-02T12:17:36.623Z</time></trkpt><trkpt lat="42.0878424" lon="13.6999796"><ele>982.6666666666666</ele><time>2026-05-02T12:17:37.622Z</time></trkpt><trkpt lat="42.0877887" lon="13.7000591"><ele>981.0</ele><time>2026-05-02T12:17:38.623Z</time></trkpt><trkpt lat="42.0877146" lon="13.7001152"><ele>981.0</ele><time>2026-05-02T12:17:39.622Z</time></trkpt><trkpt lat="42.0876236" lon="13.7001577"><ele>980.9999999999999</ele><time>2026-05-02T12:17:40.622Z</time></trkpt><trkpt lat="42.0875225" lon="13.7001838"><ele>980.9999999999999</ele><time>2026-05-02T12:17:41.622Z</time></trkpt><trkpt lat="42.0874299" lon="13.7002062"><ele>981.0</ele><time>2026-05-02T12:17:42.623Z</time></trkpt><trkpt lat="42.0873462" lon="13.7002424"><ele>981.0</ele><time>2026-05-02T12:17:43.622Z</time></trkpt><trkpt lat="42.0872586" lon="13.7003086"><ele>980.4</ele><time>2026-05-02T12:17:44.622Z</time></trkpt><trkpt lat="42.0871669" lon="13.7003886"><ele>979.8</ele><time>2026-05-02T12:17:45.622Z</time></trkpt><trkpt lat="42.087081" lon="13.7004624"><ele>979.1999999999999</ele><time>2026-05-02T12:17:46.622Z</time></trkpt><trkpt lat="42.0870008" lon="13.7005312"><ele>978.5999999999999</ele><time>2026-05-02T12:17:47.622Z</time></trkpt><trkpt lat="42.0869284" lon="13.7005975"><ele>978.0</ele><time>2026-05-02T12:17:48.622Z</time></trkpt><trkpt lat="42.0868568" lon="13.7006575"><ele>978.0</ele><time>2026-05-02T12:17:49.622Z</time></trkpt><trkpt lat="42.0867854" lon="13.7007163"><ele>978.0</ele><time>2026-05-02T12:17:50.622Z</time></trkpt><trkpt lat="42.086716" lon="13.7007787"><ele>978.0</ele><time>2026-05-02T12:17:51.622Z</time></trkpt><trkpt lat="42.0866477" lon="13.700855"><ele>978.0</ele><time>2026-05-02T12:17:52.623Z</time></trkpt><trkpt lat="42.0865814" lon="13.700938"><ele>978.0</ele><time>2026-05-02T12:17:53.622Z</time></trkpt><trkpt lat="42.0865211" lon="13.7010215"><ele>978.0</ele><time>2026-05-02T12:17:54.622Z</time></trkpt><trkpt lat="42.0864709" lon="13.7011074"><ele>977.2</ele><time>2026-05-02T12:17:55.622Z</time></trkpt><trkpt lat="42.0864308" lon="13.7012039"><ele>976.4</ele><time>2026-05-02T12:17:56.622Z</time></trkpt><trkpt lat="42.0863953" lon="13.7013179"><ele>975.6000000000001</ele><time>2026-05-02T12:17:57.623Z</time></trkpt><trkpt lat="42.0863582" lon="13.7014332"><ele>974.8000000000001</ele><time>2026-05-02T12:17:58.623Z</time></trkpt><trkpt lat="42.086313" lon="13.7015423"><ele>974.0</ele><time>2026-05-02T12:17:59.622Z</time></trkpt><trkpt lat="42.0862607" lon="13.7016484"><ele>974.0</ele><time>2026-05-02T12:18:00.622Z</time></trkpt><trkpt lat="42.0862023" lon="13.7017528"><ele>974.0000000000001</ele><time>2026-05-02T12:18:01.622Z</time></trkpt><trkpt lat="42.0861453" lon="13.7018595"><ele>974.0000000000001</ele><time>2026-05-02T12:18:02.622Z</time></trkpt><trkpt lat="42.0860952" lon="13.7019715"><ele>974.0</ele><time>2026-05-02T12:18:03.623Z</time></trkpt><trkpt lat="42.0860498" lon="13.7020907"><ele>974.0</ele><time>2026-05-02T12:18:04.623Z</time></trkpt><trkpt lat="42.0860003" lon="13.7022106"><ele>974.2</ele><time>2026-05-02T12:18:05.622Z</time></trkpt><trkpt lat="42.0859448" lon="13.7023285"><ele>974.4000000000001</ele><time>2026-05-02T12:18:06.622Z</time></trkpt><trkpt lat="42.085893" lon="13.7024438"><ele>974.6</ele><time>2026-05-02T12:18:07.622Z</time></trkpt><trkpt lat="42.0858498" lon="13.7025529"><ele>974.8</ele><time>2026-05-02T12:18:08.622Z</time></trkpt><trkpt lat="42.0858107" lon="13.7026563"><ele>975.0</ele><time>2026-05-02T12:18:09.622Z</time></trkpt><trkpt lat="42.08577" lon="13.7027601"><ele>973.0</ele><time>2026-05-02T12:18:10.622Z</time></trkpt><trkpt lat="42.0857192" lon="13.7028619"><ele>971.0</ele><time>2026-05-02T12:18:11.622Z</time></trkpt><trkpt lat="42.085659" lon="13.7029623"><ele>969.0</ele><time>2026-05-02T12:18:12.622Z</time></trkpt><trkpt lat="42.0855912" lon="13.7030619"><ele>967.0</ele><time>2026-05-02T12:18:13.623Z</time></trkpt><trkpt lat="42.0855239" lon="13.7031609"><ele>965.0</ele><time>2026-05-02T12:18:14.623Z</time></trkpt><trkpt lat="42.0854549" lon="13.7032598"><ele>965.0</ele><time>2026-05-02T12:18:15.622Z</time></trkpt><trkpt lat="42.085382" lon="13.7033514"><ele>965.0</ele><time>2026-05-02T12:18:16.622Z</time></trkpt><trkpt lat="42.0853101" lon="13.7034313"><ele>965.0</ele><time>2026-05-02T12:18:17.623Z</time></trkpt><trkpt lat="42.0852407" lon="13.7035068"><ele>965.0</ele><time>2026-05-02T12:18:18.622Z</time></trkpt><trkpt lat="42.0851612" lon="13.7035823"><ele>965.0</ele><time>2026-05-02T12:18:19.623Z</time></trkpt><trkpt lat="42.0850709" lon="13.703655"><ele>965.2</ele><time>2026-05-02T12:18:20.623Z</time></trkpt><trkpt lat="42.08498" lon="13.7037242"><ele>965.4</ele><time>2026-05-02T12:18:21.622Z</time></trkpt><trkpt lat="42.0848946" lon="13.7037998"><ele>965.5999999999999</ele><time>2026-05-02T12:18:22.623Z</time></trkpt><trkpt lat="42.0848061" lon="13.7038792"><ele>965.8</ele><time>2026-05-02T12:18:23.622Z</time></trkpt><trkpt lat="42.0847172" lon="13.7039535"><ele>966.0</ele><time>2026-05-02T12:18:24.623Z</time></trkpt><trkpt lat="42.0846377" lon="13.7040292"><ele>966.0</ele><time>2026-05-02T12:18:25.622Z</time></trkpt><trkpt lat="42.0845702" lon="13.704101"><ele>966.0</ele><time>2026-05-02T12:18:26.623Z</time></trkpt><trkpt lat="42.0845054" lon="13.7041769"><ele>966.0</ele><time>2026-05-02T12:18:27.622Z</time></trkpt><trkpt lat="42.0844389" lon="13.7042543"><ele>966.0</ele><time>2026-05-02T12:18:28.622Z</time></trkpt><trkpt lat="42.0843723" lon="13.704325"><ele>966.0</ele><time>2026-05-02T12:18:29.622Z</time></trkpt><trkpt lat="42.0843077" lon="13.7043911"><ele>966.0</ele><time>2026-05-02T12:18:30.623Z</time></trkpt><trkpt lat="42.0842408" lon="13.7044618"><ele>966.3333333333334</ele><time>2026-05-02T12:18:31.623Z</time></trkpt><trkpt lat="42.0841732" lon="13.704536"><ele>966.6666666666667</ele><time>2026-05-02T12:18:32.623Z</time></trkpt><trkpt lat="42.0841085" lon="13.7046139"><ele>967.0</ele><time>2026-05-02T12:18:33.623Z</time></trkpt><trkpt lat="42.084047" lon="13.7046919"><ele>967.3333333333334</ele><time>2026-05-02T12:18:34.623Z</time></trkpt><trkpt lat="42.0839865" lon="13.7047732"><ele>967.6666666666667</ele><time>2026-05-02T12:18:35.622Z</time></trkpt><trkpt lat="42.0839253" lon="13.7048565"><ele>968.0</ele><time>2026-05-02T12:18:36.622Z</time></trkpt><trkpt lat="42.0838587" lon="13.7049299"><ele>968.0000000000001</ele><time>2026-05-02T12:18:37.622Z</time></trkpt><trkpt lat="42.0837823" lon="13.7050022"><ele>968.0</ele><time>2026-05-02T12:18:38.623Z</time></trkpt><trkpt lat="42.0837052" lon="13.7050693"><ele>968.0</ele><time>2026-05-02T12:18:39.622Z</time></trkpt><trkpt lat="42.083633" lon="13.705127"><ele>968.0</ele><time>2026-05-02T12:18:40.623Z</time></trkpt><trkpt lat="42.0835631" lon="13.7051833"><ele>968.0000000000001</ele><time>2026-05-02T12:18:41.623Z</time></trkpt><trkpt lat="42.0835004" lon="13.7052363"><ele>968.0</ele><time>2026-05-02T12:18:42.623Z</time></trkpt><trkpt lat="42.0834029" lon="13.7053352"><ele>967.0</ele><time>2026-05-02T12:18:44.623Z</time></trkpt><trkpt lat="42.0833129" lon="13.7054435"><ele>966.0</ele><time>2026-05-02T12:18:46.622Z</time></trkpt><trkpt lat="42.0832364" lon="13.7055676"><ele>965.0</ele><time>2026-05-02T12:18:48.623Z</time></trkpt><trkpt lat="42.0831701" lon="13.7057065"><ele>964.0</ele><time>2026-05-02T12:18:50.622Z</time></trkpt><trkpt lat="42.0831158" lon="13.7058313"><ele>964.8333333333333</ele><time>2026-05-02T12:18:52.622Z</time></trkpt><trkpt lat="42.0830723" lon="13.7059421"><ele>965.6666666666666</ele><time>2026-05-02T12:18:54.622Z</time></trkpt><trkpt lat="42.0830086" lon="13.706013"><ele>966.5</ele><time>2026-05-02T12:19:01.623Z</time></trkpt><trkpt lat="42.0829584" lon="13.7060906"><ele>967.3333333333333</ele><time>2026-05-02T12:19:03.623Z</time></trkpt><trkpt lat="42.082917" lon="13.7061836"><ele>968.1666666666666</ele><time>2026-05-02T12:19:05.623Z</time></trkpt><trkpt lat="42.0828693" lon="13.7062599"><ele>969.0</ele><time>2026-05-02T12:19:07.622Z</time></trkpt><trkpt lat="42.082811" lon="13.7063103"><ele>969.0</ele><time>2026-05-02T12:19:11.622Z</time></trkpt><trkpt lat="42.0827509" lon="13.7063941"><ele>969.0</ele><time>2026-05-02T12:19:16.623Z</time></trkpt><trkpt lat="42.0826744" lon="13.7065046"><ele>969.0</ele><time>2026-05-02T12:19:17.622Z</time></trkpt><trkpt lat="42.0825881" lon="13.7066374"><ele>969.0</ele><time>2026-05-02T12:19:18.623Z</time></trkpt><trkpt lat="42.0824981" lon="13.7067885"><ele>974.6666666666667</ele><time>2026-05-02T12:19:19.622Z</time></trkpt><trkpt lat="42.0824043" lon="13.7069499"><ele>980.3333333333334</ele><time>2026-05-02T12:19:20.622Z</time></trkpt><trkpt lat="42.0823057" lon="13.7071257"><ele>986.0</ele><time>2026-05-02T12:19:21.622Z</time></trkpt><trkpt lat="42.082196" lon="13.707317"><ele>986.0</ele><time>2026-05-02T12:19:22.622Z</time></trkpt><trkpt lat="42.0820751" lon="13.7075096"><ele>986.0</ele><time>2026-05-02T12:19:23.622Z</time></trkpt><trkpt lat="42.0819499" lon="13.7076914"><ele>986.0</ele><time>2026-05-02T12:19:24.622Z</time></trkpt><trkpt lat="42.0818224" lon="13.7078748"><ele>987.3333333333334</ele><time>2026-05-02T12:19:25.622Z</time></trkpt><trkpt lat="42.0816911" lon="13.7080514"><ele>988.6666666666667</ele><time>2026-05-02T12:19:26.623Z</time></trkpt><trkpt lat="42.0815673" lon="13.7082051"><ele>990.0</ele><time>2026-05-02T12:19:27.623Z</time></trkpt><trkpt lat="42.081431" lon="13.708337"><ele>990.0</ele><time>2026-05-02T12:19:28.622Z</time></trkpt><trkpt lat="42.0812747" lon="13.7084479"><ele>990.0</ele><time>2026-05-02T12:19:29.623Z</time></trkpt><trkpt lat="42.0811004" lon="13.7085507"><ele>990.0</ele><time>2026-05-02T12:19:30.622Z</time></trkpt><trkpt lat="42.0809179" lon="13.7086561"><ele>985.6666666666667</ele><time>2026-05-02T12:19:31.623Z</time></trkpt><trkpt lat="42.080727" lon="13.7087771"><ele>981.3333333333334</ele><time>2026-05-02T12:19:32.622Z</time></trkpt><trkpt lat="42.080523" lon="13.7089022"><ele>977.0</ele><time>2026-05-02T12:19:33.623Z</time></trkpt><trkpt lat="42.0803141" lon="13.7090253"><ele>977.0</ele><time>2026-05-02T12:19:34.622Z</time></trkpt><trkpt lat="42.0801073" lon="13.709143"><ele>977.0</ele><time>2026-05-02T12:19:35.623Z</time></trkpt><trkpt lat="42.0799163" lon="13.7092558"><ele>977.0</ele><time>2026-05-02T12:19:36.622Z</time></trkpt><trkpt lat="42.0797433" lon="13.7093574"><ele>973.25</ele><time>2026-05-02T12:19:37.622Z</time></trkpt><trkpt lat="42.0796077" lon="13.7094325"><ele>969.5</ele><time>2026-05-02T12:19:38.622Z</time></trkpt><trkpt lat="42.0794842" lon="13.7094867"><ele>965.75</ele><time>2026-05-02T12:19:39.622Z</time></trkpt><trkpt lat="42.079364" lon="13.7094945"><ele>962.0</ele><time>2026-05-02T12:19:40.622Z</time></trkpt><trkpt lat="42.0792341" lon="13.7094696"><ele>962.0</ele><time>2026-05-02T12:19:41.622Z</time></trkpt><trkpt lat="42.0791231" lon="13.7094108"><ele>962.0</ele><time>2026-05-02T12:19:42.622Z</time></trkpt><trkpt lat="42.0790303" lon="13.7093104"><ele>962.0</ele><time>2026-05-02T12:19:43.622Z</time></trkpt><trkpt lat="42.0789479" lon="13.7091713"><ele>962.0</ele><time>2026-05-02T12:19:44.622Z</time></trkpt><trkpt lat="42.0788721" lon="13.7090047"><ele>960.6666666666667</ele><time>2026-05-02T12:19:45.623Z</time></trkpt><trkpt lat="42.0788" lon="13.7088186"><ele>959.3333333333333</ele><time>2026-05-02T12:19:46.623Z</time></trkpt><trkpt lat="42.0787355" lon="13.708625"><ele>958.0</ele><time>2026-05-02T12:19:47.622Z</time></trkpt><trkpt lat="42.0786816" lon="13.7084306"><ele>963.6666666666666</ele><time>2026-05-02T12:19:48.622Z</time></trkpt><trkpt lat="42.0786354" lon="13.7082324"><ele>969.3333333333333</ele><time>2026-05-02T12:19:49.622Z</time></trkpt><trkpt lat="42.0785928" lon="13.7080341"><ele>975.0</ele><time>2026-05-02T12:19:50.622Z</time></trkpt><trkpt lat="42.0785514" lon="13.707837"><ele>978.5</ele><time>2026-05-02T12:19:51.622Z</time></trkpt><trkpt lat="42.0785137" lon="13.7076375"><ele>982.0</ele><time>2026-05-02T12:19:52.622Z</time></trkpt><trkpt lat="42.0784831" lon="13.7074348"><ele>985.5</ele><time>2026-05-02T12:19:53.622Z</time></trkpt><trkpt lat="42.0784573" lon="13.7072466"><ele>989.0</ele><time>2026-05-02T12:19:54.623Z</time></trkpt><trkpt lat="42.078428" lon="13.7070763"><ele>989.0</ele><time>2026-05-02T12:19:55.623Z</time></trkpt><trkpt lat="42.078385" lon="13.7069363"><ele>989.0000000000001</ele><time>2026-05-02T12:19:56.622Z</time></trkpt><trkpt lat="42.0783316" lon="13.7068386"><ele>989.0000000000001</ele><time>2026-05-02T12:19:57.622Z</time></trkpt><trkpt lat="42.0782608" lon="13.7067814"><ele>989.0</ele><time>2026-05-02T12:19:58.623Z</time></trkpt><trkpt lat="42.0781791" lon="13.7067755"><ele>989.0</ele><time>2026-05-02T12:19:59.623Z</time></trkpt><trkpt lat="42.0780991" lon="13.7068196"><ele>992.0</ele><time>2026-05-02T12:20:00.622Z</time></trkpt><trkpt lat="42.0780195" lon="13.7069145"><ele>995.0</ele><time>2026-05-02T12:20:01.623Z</time></trkpt><trkpt lat="42.0779391" lon="13.7070545"><ele>998.0</ele><time>2026-05-02T12:20:02.622Z</time></trkpt><trkpt lat="42.077844" lon="13.7072119"><ele>1001.0</ele><time>2026-05-02T12:20:03.622Z</time></trkpt><trkpt lat="42.0777387" lon="13.7073818"><ele>1001.0</ele><time>2026-05-02T12:20:04.623Z</time></trkpt><trkpt lat="42.0776374" lon="13.707551"><ele>1001.0</ele><time>2026-05-02T12:20:05.622Z</time></trkpt><trkpt lat="42.0775475" lon="13.7077012"><ele>1001.0</ele><time>2026-05-02T12:20:06.622Z</time></trkpt><trkpt lat="42.077458" lon="13.7078298"><ele>1001.0</ele><time>2026-05-02T12:20:07.622Z</time></trkpt><trkpt lat="42.0773617" lon="13.7079207"><ele>995.75</ele><time>2026-05-02T12:20:08.622Z</time></trkpt><trkpt lat="42.0772577" lon="13.7079688"><ele>990.5</ele><time>2026-05-02T12:20:09.622Z</time></trkpt><trkpt lat="42.0771372" lon="13.7079817"><ele>985.25</ele><time>2026-05-02T12:20:10.623Z</time></trkpt><trkpt lat="42.0769981" lon="13.7079586"><ele>980.0</ele><time>2026-05-02T12:20:11.622Z</time></trkpt><trkpt lat="42.0768434" lon="13.7079054"><ele>980.0</ele><time>2026-05-02T12:20:12.622Z</time></trkpt><trkpt lat="42.0766729" lon="13.7078408"><ele>980.0</ele><time>2026-05-02T12:20:13.622Z</time></trkpt><trkpt lat="42.0764866" lon="13.7077817"><ele>980.0</ele><time>2026-05-02T12:20:14.622Z</time></trkpt><trkpt lat="42.076299" lon="13.7077255"><ele>985.3333333333334</ele><time>2026-05-02T12:20:15.622Z</time></trkpt><trkpt lat="42.0761137" lon="13.7076706"><ele>990.6666666666667</ele><time>2026-05-02T12:20:16.622Z</time></trkpt><trkpt lat="42.0759349" lon="13.7076198"><ele>996.0</ele><time>2026-05-02T12:20:17.622Z</time></trkpt><trkpt lat="42.0757626" lon="13.7075619"><ele>996.0</ele><time>2026-05-02T12:20:18.622Z</time></trkpt><trkpt lat="42.0755838" lon="13.7074744"><ele>996.0</ele><time>2026-05-02T12:20:19.622Z</time></trkpt><trkpt lat="42.0753972" lon="13.7073479"><ele>996.0</ele><time>2026-05-02T12:20:20.623Z</time></trkpt><trkpt lat="42.0752213" lon="13.707196"><ele>996.0</ele><time>2026-05-02T12:20:21.622Z</time></trkpt><trkpt lat="42.0750469" lon="13.7070387"><ele>996.0</ele><time>2026-05-02T12:20:22.623Z</time></trkpt><trkpt lat="42.0748751" lon="13.7068858"><ele>996.0</ele><time>2026-05-02T12:20:23.622Z</time></trkpt><trkpt lat="42.0747139" lon="13.7067143"><ele>998.3333333333333</ele><time>2026-05-02T12:20:24.622Z</time></trkpt><trkpt lat="42.0745558" lon="13.7065194"><ele>1000.6666666666666</ele><time>2026-05-02T12:20:25.622Z</time></trkpt><trkpt lat="42.0743933" lon="13.7062974"><ele>1003.0</ele><time>2026-05-02T12:20:26.622Z</time></trkpt><trkpt lat="42.0742229" lon="13.7060569"><ele>1006.6666666666666</ele><time>2026-05-02T12:20:27.622Z</time></trkpt><trkpt lat="42.0740631" lon="13.7058353"><ele>1010.3333333333333</ele><time>2026-05-02T12:20:28.622Z</time></trkpt><trkpt lat="42.0739154" lon="13.705627"><ele>1014.0</ele><time>2026-05-02T12:20:29.622Z</time></trkpt><trkpt lat="42.0737842" lon="13.7054422"><ele>1014.0</ele><time>2026-05-02T12:20:30.622Z</time></trkpt><trkpt lat="42.073679" lon="13.7053147"><ele>1014.0</ele><time>2026-05-02T12:20:31.622Z</time></trkpt><trkpt lat="42.0735737" lon="13.7052316"><ele>1014.0</ele><time>2026-05-02T12:20:32.622Z</time></trkpt><trkpt lat="42.0734562" lon="13.7051984"><ele>1014.0</ele><time>2026-05-02T12:20:33.623Z</time></trkpt><trkpt lat="42.0733175" lon="13.7052042"><ele>1014.0</ele><time>2026-05-02T12:20:34.622Z</time></trkpt><trkpt lat="42.0731628" lon="13.7052217"><ele>1014.0</ele><time>2026-05-02T12:20:35.622Z</time></trkpt><trkpt lat="42.0729921" lon="13.7052382"><ele>1014.0</ele><time>2026-05-02T12:20:36.622Z</time></trkpt><trkpt lat="42.0728075" lon="13.7052548"><ele>1014.0</ele><time>2026-05-02T12:20:37.623Z</time></trkpt><trkpt lat="42.072621" lon="13.7052678"><ele>1014.0</ele><time>2026-05-02T12:20:38.622Z</time></trkpt><trkpt lat="42.0724365" lon="13.7052825"><ele>1014.0</ele><time>2026-05-02T12:20:39.622Z</time></trkpt><trkpt lat="42.0722555" lon="13.7052979"><ele>1017.6666666666667</ele><time>2026-05-02T12:20:40.622Z</time></trkpt><trkpt lat="42.0720761" lon="13.7053146"><ele>1021.3333333333334</ele><time>2026-05-02T12:20:41.622Z</time></trkpt><trkpt lat="42.0719006" lon="13.7053486"><ele>1025.0</ele><time>2026-05-02T12:20:42.622Z</time></trkpt><trkpt lat="42.0717327" lon="13.7054187"><ele>1030.3333333333335</ele><time>2026-05-02T12:20:43.623Z</time></trkpt><trkpt lat="42.0715944" lon="13.7055282"><ele>1035.6666666666667</ele><time>2026-05-02T12:20:44.622Z</time></trkpt><trkpt lat="42.07148" lon="13.7056681"><ele>1041.0</ele><time>2026-05-02T12:20:45.622Z</time></trkpt><trkpt lat="42.071386" lon="13.7058266"><ele>1041.0</ele><time>2026-05-02T12:20:46.622Z</time></trkpt><trkpt lat="42.0712968" lon="13.7059672"><ele>1041.0</ele><time>2026-05-02T12:20:47.623Z</time></trkpt><trkpt lat="42.0711942" lon="13.7060848"><ele>1041.0</ele><time>2026-05-02T12:20:48.622Z</time></trkpt><trkpt lat="42.0710751" lon="13.7061839"><ele>1041.0</ele><time>2026-05-02T12:20:49.622Z</time></trkpt><trkpt lat="42.0709423" lon="13.7062539"><ele>1036.6666666666667</ele><time>2026-05-02T12:20:50.623Z</time></trkpt><trkpt lat="42.070791" lon="13.7062992"><ele>1032.3333333333335</ele><time>2026-05-02T12:20:51.622Z</time></trkpt><trkpt lat="42.0706269" lon="13.7063169"><ele>1028.0</ele><time>2026-05-02T12:20:52.622Z</time></trkpt><trkpt lat="42.0704651" lon="13.7063147"><ele>1028.0</ele><time>2026-05-02T12:20:53.622Z</time></trkpt><trkpt lat="42.0703316" lon="13.7062985"><ele>1028.0</ele><time>2026-05-02T12:20:54.622Z</time></trkpt><trkpt lat="42.0702481" lon="13.7062676"><ele>1028.0</ele><time>2026-05-02T12:20:55.622Z</time></trkpt><trkpt lat="42.0701874" lon="13.7062124"><ele>1028.0</ele><time>2026-05-02T12:20:56.622Z</time></trkpt><trkpt lat="42.0701493" lon="13.706107"><ele>1028.0</ele><time>2026-05-02T12:20:58.622Z</time></trkpt><trkpt lat="42.0701196" lon="13.7060239"><ele>1028.0</ele><time>2026-05-02T12:21:00.623Z</time></trkpt><trkpt lat="42.0700304" lon="13.7060192"><ele>1028.0</ele><time>2026-05-02T12:21:03.622Z</time></trkpt><trkpt lat="42.0699512" lon="13.7060944"><ele>1028.0</ele><time>2026-05-02T12:21:06.622Z</time></trkpt><trkpt lat="42.0699145" lon="13.7061644"><ele>1028.0</ele><time>2026-05-02T12:21:13.622Z</time></trkpt><trkpt lat="42.0699983" lon="13.7061699"><ele>1028.0</ele><time>2026-05-02T12:21:16.622Z</time></trkpt><trkpt lat="42.0700761" lon="13.7060973"><ele>1028.0</ele><time>2026-05-02T12:21:18.622Z</time></trkpt><trkpt lat="42.0701241" lon="13.7060184"><ele>1028.0</ele><time>2026-05-02T12:21:21.622Z</time></trkpt><trkpt lat="42.0702078" lon="13.7059077"><ele>1031.8</ele><time>2026-05-02T12:21:23.622Z</time></trkpt><trkpt lat="42.0702825" lon="13.7058726"><ele>1035.6</ele><time>2026-05-02T12:21:24.622Z</time></trkpt><trkpt lat="42.0703715" lon="13.7058632"><ele>1039.4</ele><time>2026-05-02T12:21:25.622Z</time></trkpt><trkpt lat="42.070469" lon="13.7058684"><ele>1043.2</ele><time>2026-05-02T12:21:26.622Z</time></trkpt><trkpt lat="42.0705732" lon="13.7058755"><ele>1047.0</ele><time>2026-05-02T12:21:27.622Z</time></trkpt><trkpt lat="42.0706818" lon="13.7058782"><ele>1045.5</ele><time>2026-05-02T12:21:28.622Z</time></trkpt><trkpt lat="42.0707932" lon="13.7058755"><ele>1044.0</ele><time>2026-05-02T12:21:29.622Z</time></trkpt><trkpt lat="42.0709056" lon="13.7058566"><ele>1042.5</ele><time>2026-05-02T12:21:30.623Z</time></trkpt><trkpt lat="42.0710154" lon="13.7057943"><ele>1041.0</ele><time>2026-05-02T12:21:31.622Z</time></trkpt><trkpt lat="42.0711273" lon="13.7056698"><ele>1041.0</ele><time>2026-05-02T12:21:32.622Z</time></trkpt><trkpt lat="42.0712263" lon="13.7055042"><ele>1041.0</ele><time>2026-05-02T12:21:33.623Z</time></trkpt><trkpt lat="42.0713305" lon="13.7053434"><ele>1041.0</ele><time>2026-05-02T12:21:34.622Z</time></trkpt><trkpt lat="42.0714645" lon="13.7052015"><ele>1042.6666666666667</ele><time>2026-05-02T12:21:35.622Z</time></trkpt><trkpt lat="42.0716055" lon="13.7050632"><ele>1044.3333333333335</ele><time>2026-05-02T12:21:36.623Z</time></trkpt><trkpt lat="42.0717466" lon="13.7049275"><ele>1046.0</ele><time>2026-05-02T12:21:37.623Z</time></trkpt><trkpt lat="42.0718817" lon="13.7047977"><ele>1046.0</ele><time>2026-05-02T12:21:38.622Z</time></trkpt><trkpt lat="42.072012" lon="13.7046682"><ele>1046.0</ele><time>2026-05-02T12:21:39.622Z</time></trkpt><trkpt lat="42.0721356" lon="13.7045475"><ele>1046.0</ele><time>2026-05-02T12:21:40.622Z</time></trkpt><trkpt lat="42.0722551" lon="13.7044169"><ele>1047.5</ele><time>2026-05-02T12:21:41.623Z</time></trkpt><trkpt lat="42.0723553" lon="13.704265"><ele>1049.0</ele><time>2026-05-02T12:21:42.622Z</time></trkpt><trkpt lat="42.0724418" lon="13.7041097"><ele>1050.5</ele><time>2026-05-02T12:21:43.622Z</time></trkpt><trkpt lat="42.0725232" lon="13.7039696"><ele>1052.0</ele><time>2026-05-02T12:21:44.623Z</time></trkpt><trkpt lat="42.0725988" lon="13.7038384"><ele>1052.0</ele><time>2026-05-02T12:21:45.622Z</time></trkpt><trkpt lat="42.0726614" lon="13.7037258"><ele>1052.0</ele><time>2026-05-02T12:21:46.623Z</time></trkpt><trkpt lat="42.0727" lon="13.7036213"><ele>1052.0</ele><time>2026-05-02T12:21:47.622Z</time></trkpt><trkpt lat="42.0727024" lon="13.7035163"><ele>1052.0</ele><time>2026-05-02T12:21:48.622Z</time></trkpt><trkpt lat="42.0726721" lon="13.703431"><ele>1052.0</ele><time>2026-05-02T12:21:49.623Z</time></trkpt><trkpt lat="42.0726133" lon="13.7033725"><ele>1052.0</ele><time>2026-05-02T12:21:50.622Z</time></trkpt><trkpt lat="42.0725367" lon="13.7033588"><ele>1055.0</ele><time>2026-05-02T12:21:51.622Z</time></trkpt><trkpt lat="42.0724545" lon="13.7034017"><ele>1058.0</ele><time>2026-05-02T12:21:52.622Z</time></trkpt><trkpt lat="42.0723661" lon="13.7034969"><ele>1061.0</ele><time>2026-05-02T12:21:53.623Z</time></trkpt><trkpt lat="42.0722785" lon="13.7036237"><ele>1064.0</ele><time>2026-05-02T12:21:54.623Z</time></trkpt><trkpt lat="42.0721828" lon="13.703753"><ele>1064.0</ele><time>2026-05-02T12:21:55.622Z</time></trkpt><trkpt lat="42.0720805" lon="13.7038797"><ele>1064.0</ele><time>2026-05-02T12:21:56.622Z</time></trkpt><trkpt lat="42.0719749" lon="13.7040086"><ele>1064.0</ele><time>2026-05-02T12:21:57.623Z</time></trkpt><trkpt lat="42.0718658" lon="13.7041235"><ele>1064.0</ele><time>2026-05-02T12:21:58.622Z</time></trkpt><trkpt lat="42.0717669" lon="13.7042252"><ele>1064.0</ele><time>2026-05-02T12:21:59.622Z</time></trkpt><trkpt lat="42.0716571" lon="13.7043112"><ele>1064.0</ele><time>2026-05-02T12:22:00.622Z</time></trkpt><trkpt lat="42.0715316" lon="13.7043678"><ele>1064.0</ele><time>2026-05-02T12:22:01.622Z</time></trkpt><trkpt lat="42.0714008" lon="13.7043917"><ele>1064.0</ele><time>2026-05-02T12:22:02.622Z</time></trkpt><trkpt lat="42.0712681" lon="13.7043961"><ele>1066.5</ele><time>2026-05-02T12:22:03.623Z</time></trkpt><trkpt lat="42.0711325" lon="13.7043894"><ele>1069.0</ele><time>2026-05-02T12:22:04.622Z</time></trkpt><trkpt lat="42.0709967" lon="13.7043788"><ele>1071.5</ele><time>2026-05-02T12:22:05.622Z</time></trkpt><trkpt lat="42.070861" lon="13.7043688"><ele>1074.0</ele><time>2026-05-02T12:22:06.622Z</time></trkpt><trkpt lat="42.070724" lon="13.7043602"><ele>1072.75</ele><time>2026-05-02T12:22:07.623Z</time></trkpt><trkpt lat="42.0705867" lon="13.7043538"><ele>1071.5</ele><time>2026-05-02T12:22:08.622Z</time></trkpt><trkpt lat="42.0704482" lon="13.7043587"><ele>1070.25</ele><time>2026-05-02T12:22:09.623Z</time></trkpt><trkpt lat="42.0703121" lon="13.7043978"><ele>1069.0</ele><time>2026-05-02T12:22:10.622Z</time></trkpt><trkpt lat="42.0701849" lon="13.7044772"><ele>1069.0</ele><time>2026-05-02T12:22:11.622Z</time></trkpt><trkpt lat="42.0700605" lon="13.7045919"><ele>1069.0</ele><time>2026-05-02T12:22:12.623Z</time></trkpt><trkpt lat="42.0699332" lon="13.7047342"><ele>1069.0</ele><time>2026-05-02T12:22:13.622Z</time></trkpt><trkpt lat="42.0698086" lon="13.7048843"><ele>1069.6666666666665</ele><time>2026-05-02T12:22:14.623Z</time></trkpt><trkpt lat="42.0696835" lon="13.7050359"><ele>1070.3333333333333</ele><time>2026-05-02T12:22:15.622Z</time></trkpt><trkpt lat="42.0695554" lon="13.7051828"><ele>1071.0</ele><time>2026-05-02T12:22:16.622Z</time></trkpt><trkpt lat="42.069421" lon="13.7053198"><ele>1071.0</ele><time>2026-05-02T12:22:17.623Z</time></trkpt><trkpt lat="42.0692783" lon="13.7054396"><ele>1071.0</ele><time>2026-05-02T12:22:18.623Z</time></trkpt><trkpt lat="42.0691282" lon="13.7055444"><ele>1071.0</ele><time>2026-05-02T12:22:19.622Z</time></trkpt><trkpt lat="42.068973" lon="13.705635"><ele>1077.0</ele><time>2026-05-02T12:22:20.622Z</time></trkpt><trkpt lat="42.0688161" lon="13.7057183"><ele>1083.0</ele><time>2026-05-02T12:22:21.622Z</time></trkpt><trkpt lat="42.0686564" lon="13.7057883"><ele>1089.0</ele><time>2026-05-02T12:22:22.622Z</time></trkpt><trkpt lat="42.068493" lon="13.705842"><ele>1089.0</ele><time>2026-05-02T12:22:23.622Z</time></trkpt><trkpt lat="42.0683221" lon="13.7058818"><ele>1089.0</ele><time>2026-05-02T12:22:24.622Z</time></trkpt><trkpt lat="42.0681511" lon="13.7059134"><ele>1089.0</ele><time>2026-05-02T12:22:25.623Z</time></trkpt><trkpt lat="42.0679743" lon="13.7059547"><ele>1093.6666666666667</ele><time>2026-05-02T12:22:26.623Z</time></trkpt><trkpt lat="42.0677986" lon="13.7060019"><ele>1098.3333333333335</ele><time>2026-05-02T12:22:27.622Z</time></trkpt><trkpt lat="42.0676202" lon="13.7060386"><ele>1103.0</ele><time>2026-05-02T12:22:28.623Z</time></trkpt><trkpt lat="42.0674356" lon="13.7060524"><ele>1105.0</ele><time>2026-05-02T12:22:29.622Z</time></trkpt><trkpt lat="42.0672511" lon="13.7060631"><ele>1107.0</ele><time>2026-05-02T12:22:30.622Z</time></trkpt><trkpt lat="42.0670676" lon="13.7060751"><ele>1109.0</ele><time>2026-05-02T12:22:31.622Z</time></trkpt><trkpt lat="42.0668882" lon="13.7060761"><ele>1109.0</ele><time>2026-05-02T12:22:32.622Z</time></trkpt><trkpt lat="42.0667147" lon="13.7060713"><ele>1109.0</ele><time>2026-05-02T12:22:33.622Z</time></trkpt><trkpt lat="42.066539" lon="13.7060866"><ele>1109.0</ele><time>2026-05-02T12:22:34.623Z</time></trkpt><trkpt lat="42.066367" lon="13.7061189"><ele>1100.3333333333335</ele><time>2026-05-02T12:22:35.622Z</time></trkpt><trkpt lat="42.0661969" lon="13.7061577"><ele>1091.6666666666667</ele><time>2026-05-02T12:22:36.622Z</time></trkpt><trkpt lat="42.0660282" lon="13.7062047"><ele>1083.0</ele><time>2026-05-02T12:22:37.622Z</time></trkpt><trkpt lat="42.0658649" lon="13.7062405"><ele>1086.6666666666667</ele><time>2026-05-02T12:22:38.622Z</time></trkpt><trkpt lat="42.0657057" lon="13.7062466"><ele>1090.3333333333335</ele><time>2026-05-02T12:22:39.623Z</time></trkpt><trkpt lat="42.0655442" lon="13.7062358"><ele>1094.0</ele><time>2026-05-02T12:22:40.622Z</time></trkpt><trkpt lat="42.0653818" lon="13.7062206"><ele>1094.0</ele><time>2026-05-02T12:22:41.622Z</time></trkpt><trkpt lat="42.0652218" lon="13.7061996"><ele>1094.0</ele><time>2026-05-02T12:22:42.622Z</time></trkpt><trkpt lat="42.0650648" lon="13.7061783"><ele>1094.0</ele><time>2026-05-02T12:22:43.622Z</time></trkpt><trkpt lat="42.0649117" lon="13.7061608"><ele>1099.5</ele><time>2026-05-02T12:22:44.622Z</time></trkpt><trkpt lat="42.0647676" lon="13.7061466"><ele>1105.0</ele><time>2026-05-02T12:22:45.622Z</time></trkpt><trkpt lat="42.0646326" lon="13.7061341"><ele>1110.5</ele><time>2026-05-02T12:22:46.623Z</time></trkpt><trkpt lat="42.0645049" lon="13.7061264"><ele>1116.0</ele><time>2026-05-02T12:22:47.622Z</time></trkpt><trkpt lat="42.0643874" lon="13.7061218"><ele>1116.0</ele><time>2026-05-02T12:22:48.622Z</time></trkpt><trkpt lat="42.0642806" lon="13.7061126"><ele>1116.0</ele><time>2026-05-02T12:22:49.623Z</time></trkpt><trkpt lat="42.064181" lon="13.7060897"><ele>1116.0</ele><time>2026-05-02T12:22:50.622Z</time></trkpt><trkpt lat="42.0640966" lon="13.706048"><ele>1116.0</ele><time>2026-05-02T12:22:51.622Z</time></trkpt><trkpt lat="42.0640273" lon="13.705993"><ele>1116.0</ele><time>2026-05-02T12:22:52.622Z</time></trkpt><trkpt lat="42.0639718" lon="13.7059319"><ele>1115.3333333333333</ele><time>2026-05-02T12:22:53.623Z</time></trkpt><trkpt lat="42.0639257" lon="13.7058692"><ele>1114.6666666666667</ele><time>2026-05-02T12:22:54.622Z</time></trkpt><trkpt lat="42.0638452" lon="13.7057389"><ele>1114.0</ele><time>2026-05-02T12:22:56.623Z</time></trkpt><trkpt lat="42.0638002" lon="13.7056705"><ele>1113.3333333333335</ele><time>2026-05-02T12:22:57.623Z</time></trkpt><trkpt lat="42.0637556" lon="13.705608"><ele>1112.6666666666667</ele><time>2026-05-02T12:22:58.623Z</time></trkpt><trkpt lat="42.0636888" lon="13.7055124"><ele>1112.0</ele><time>2026-05-02T12:23:00.622Z</time></trkpt><trkpt lat="42.0636391" lon="13.7054189"><ele>1112.0</ele><time>2026-05-02T12:23:02.622Z</time></trkpt><trkpt lat="42.0635696" lon="13.7052944"><ele>1112.0</ele><time>2026-05-02T12:23:04.622Z</time></trkpt><trkpt lat="42.0635251" lon="13.7052206"><ele>1112.0</ele><time>2026-05-02T12:23:05.622Z</time></trkpt><trkpt lat="42.0634795" lon="13.7051361"><ele>1112.0</ele><time>2026-05-02T12:23:06.623Z</time></trkpt><trkpt lat="42.0634303" lon="13.7050435"><ele>1112.0</ele><time>2026-05-02T12:23:07.622Z</time></trkpt><trkpt lat="42.0633803" lon="13.7049458"><ele>1112.0</ele><time>2026-05-02T12:23:08.622Z</time></trkpt><trkpt lat="42.0633298" lon="13.7048446"><ele>1110.6</ele><time>2026-05-02T12:23:09.622Z</time></trkpt><trkpt lat="42.0632808" lon="13.704735"><ele>1109.2</ele><time>2026-05-02T12:23:10.622Z</time></trkpt><trkpt lat="42.0632411" lon="13.7046173"><ele>1107.8</ele><time>2026-05-02T12:23:11.623Z</time></trkpt><trkpt lat="42.0632105" lon="13.7044862"><ele>1106.4</ele><time>2026-05-02T12:23:12.622Z</time></trkpt><trkpt lat="42.0631857" lon="13.7043444"><ele>1105.0</ele><time>2026-05-02T12:23:13.622Z</time></trkpt><trkpt lat="42.0631644" lon="13.7041984"><ele>1100.8</ele><time>2026-05-02T12:23:14.622Z</time></trkpt><trkpt lat="42.063142" lon="13.7040506"><ele>1096.6</ele><time>2026-05-02T12:23:15.622Z</time></trkpt><trkpt lat="42.0631268" lon="13.7039283"><ele>1092.4</ele><time>2026-05-02T12:23:16.622Z</time></trkpt><trkpt lat="42.0631101" lon="13.7038047"><ele>1088.2</ele><time>2026-05-02T12:23:18.622Z</time></trkpt><trkpt lat="42.0630796" lon="13.7039253"><ele>1084.0</ele><time>2026-05-02T12:23:24.623Z</time></trkpt><trkpt lat="42.0631029" lon="13.7040503"><ele>1084.0</ele><time>2026-05-02T12:23:25.622Z</time></trkpt><trkpt lat="42.0631262" lon="13.7041908"><ele>1084.0</ele><time>2026-05-02T12:23:26.622Z</time></trkpt><trkpt lat="42.0631547" lon="13.7043684"><ele>1084.0</ele><time>2026-05-02T12:23:27.622Z</time></trkpt><trkpt lat="42.0631945" lon="13.7045522"><ele>1084.0</ele><time>2026-05-02T12:23:28.623Z</time></trkpt><trkpt lat="42.0632494" lon="13.7047407"><ele>1089.25</ele><time>2026-05-02T12:23:29.622Z</time></trkpt><trkpt lat="42.0633268" lon="13.7049196"><ele>1094.5</ele><time>2026-05-02T12:23:30.622Z</time></trkpt><trkpt lat="42.0634163" lon="13.7050842"><ele>1099.75</ele><time>2026-05-02T12:23:31.622Z</time></trkpt><trkpt lat="42.0634959" lon="13.7052277"><ele>1105.0</ele><time>2026-05-02T12:23:32.622Z</time></trkpt><trkpt lat="42.0635683" lon="13.7053598"><ele>1106.4</ele><time>2026-05-02T12:23:33.623Z</time></trkpt><trkpt lat="42.0636365" lon="13.705473"><ele>1107.8</ele><time>2026-05-02T12:23:34.622Z</time></trkpt><trkpt lat="42.0637013" lon="13.7055702"><ele>1109.2</ele><time>2026-05-02T12:23:35.623Z</time></trkpt><trkpt lat="42.0637588" lon="13.7056562"><ele>1110.6</ele><time>2026-05-02T12:23:36.622Z</time></trkpt><trkpt lat="42.0637895" lon="13.7057728"><ele>1112.0</ele><time>2026-05-02T12:23:38.623Z</time></trkpt><trkpt lat="42.063727" lon="13.7058298"><ele>1112.0</ele><time>2026-05-02T12:23:41.622Z</time></trkpt><trkpt lat="42.0636502" lon="13.7057669"><ele>1112.0</ele><time>2026-05-02T12:26:11.622Z</time></trkpt><trkpt lat="42.0635806" lon="13.7056877"><ele>1112.0</ele><time>2026-05-02T12:26:13.622Z</time></trkpt><trkpt lat="42.0634882" lon="13.7055729"><ele>1112.0</ele><time>2026-05-02T12:26:15.622Z</time></trkpt><trkpt lat="42.0634389" lon="13.7055139"><ele>1112.0</ele><time>2026-05-02T12:26:16.623Z</time></trkpt><trkpt lat="42.0633893" lon="13.7054556"><ele>1112.0</ele><time>2026-05-02T12:26:17.622Z</time></trkpt><trkpt lat="42.0633361" lon="13.7054043"><ele>1112.0</ele><time>2026-05-02T12:26:18.623Z</time></trkpt><trkpt lat="42.0632829" lon="13.7053526"><ele>1112.0</ele><time>2026-05-02T12:26:19.623Z</time></trkpt><trkpt lat="42.0632313" lon="13.7053028"><ele>1112.0</ele><time>2026-05-02T12:26:20.622Z</time></trkpt><trkpt lat="42.0631798" lon="13.7052537"><ele>1112.0</ele><time>2026-05-02T12:26:21.622Z</time></trkpt><trkpt lat="42.0631246" lon="13.7052047"><ele>1112.0</ele><time>2026-05-02T12:26:22.623Z</time></trkpt><trkpt lat="42.063022" lon="13.7051386"><ele>1112.0</ele><time>2026-05-02T12:26:24.623Z</time></trkpt><trkpt lat="42.0629651" lon="13.7050964"><ele>1112.0</ele><time>2026-05-02T12:26:25.623Z</time></trkpt><trkpt lat="42.0628652" lon="13.7050301"><ele>1106.4</ele><time>2026-05-02T12:26:27.622Z</time></trkpt><trkpt lat="42.0627435" lon="13.7049832"><ele>1100.8000000000002</ele><time>2026-05-02T12:26:29.623Z</time></trkpt><trkpt lat="42.0626687" lon="13.7049711"><ele>1095.2</ele><time>2026-05-02T12:26:30.622Z</time></trkpt><trkpt lat="42.0625825" lon="13.7049572"><ele>1089.6000000000001</ele><time>2026-05-02T12:26:31.623Z</time></trkpt><trkpt lat="42.0624941" lon="13.7049457"><ele>1084.0</ele><time>2026-05-02T12:26:32.623Z</time></trkpt><trkpt lat="42.0624065" lon="13.7049394"><ele>1082.3333333333333</ele><time>2026-05-02T12:26:33.622Z</time></trkpt><trkpt lat="42.0623231" lon="13.7049361"><ele>1080.6666666666665</ele><time>2026-05-02T12:26:34.623Z</time></trkpt><trkpt lat="42.0622447" lon="13.7049283"><ele>1079.0</ele><time>2026-05-02T12:26:35.622Z</time></trkpt><trkpt lat="42.0621631" lon="13.7049219"><ele>1077.3333333333333</ele><time>2026-05-02T12:26:36.622Z</time></trkpt><trkpt lat="42.0620783" lon="13.7049122"><ele>1075.6666666666667</ele><time>2026-05-02T12:26:37.623Z</time></trkpt><trkpt lat="42.0619942" lon="13.7049063"><ele>1074.0</ele><time>2026-05-02T12:26:38.623Z</time></trkpt><trkpt lat="42.0619185" lon="13.7048912"><ele>1074.0</ele><time>2026-05-02T12:26:39.622Z</time></trkpt><trkpt lat="42.0618147" lon="13.7048659"><ele>1074.0</ele><time>2026-05-02T12:26:41.623Z</time></trkpt><trkpt lat="42.0617264" lon="13.7047778"><ele>1074.0</ele><time>2026-05-02T12:26:43.622Z</time></trkpt><trkpt lat="42.061669" lon="13.7047117"><ele>1074.0</ele><time>2026-05-02T12:26:44.622Z</time></trkpt><trkpt lat="42.0616107" lon="13.7046403"><ele>1074.0</ele><time>2026-05-02T12:26:45.622Z</time></trkpt><trkpt lat="42.0615579" lon="13.7045626"><ele>1074.0</ele><time>2026-05-02T12:26:46.622Z</time></trkpt><trkpt lat="42.0615077" lon="13.7044816"><ele>1073.0</ele><time>2026-05-02T12:26:47.622Z</time></trkpt><trkpt lat="42.0614578" lon="13.704401"><ele>1072.0</ele><time>2026-05-02T12:26:48.623Z</time></trkpt><trkpt lat="42.0614119" lon="13.7043177"><ele>1071.0</ele><time>2026-05-02T12:26:49.622Z</time></trkpt><trkpt lat="42.0613666" lon="13.7042359"><ele>1070.0</ele><time>2026-05-02T12:26:50.623Z</time></trkpt><trkpt lat="42.0613231" lon="13.7041549"><ele>1069.0</ele><time>2026-05-02T12:26:51.622Z</time></trkpt><trkpt lat="42.0612779" lon="13.7040768"><ele>1068.0</ele><time>2026-05-02T12:26:52.622Z</time></trkpt><trkpt lat="42.0612315" lon="13.7040007"><ele>1068.0000000000002</ele><time>2026-05-02T12:26:53.622Z</time></trkpt><trkpt lat="42.0611939" lon="13.7039254"><ele>1068.0</ele><time>2026-05-02T12:26:54.622Z</time></trkpt><trkpt lat="42.0611472" lon="13.703809"><ele>1068.0</ele><time>2026-05-02T12:26:56.622Z</time></trkpt><trkpt lat="42.0611157" lon="13.7037351"><ele>1068.0</ele><time>2026-05-02T12:27:05.622Z</time></trkpt><trkpt lat="42.061065" lon="13.7036722"><ele>1068.0</ele><time>2026-05-02T12:27:09.623Z</time></trkpt><trkpt lat="42.0609903" lon="13.7036433"><ele>1068.0000000000002</ele><time>2026-05-02T12:27:12.622Z</time></trkpt><trkpt lat="42.0609412" lon="13.7035846"><ele>1068.0</ele><time>2026-05-02T12:37:18.626Z</time></trkpt><trkpt lat="42.0609089" lon="13.7035033"><ele>1068.6</ele><time>2026-05-02T12:37:20.627Z</time></trkpt><trkpt lat="42.0608437" lon="13.7033728"><ele>1069.1999999999998</ele><time>2026-05-02T12:37:22.627Z</time></trkpt><trkpt lat="42.060774" lon="13.7032435"><ele>1069.8</ele><time>2026-05-02T12:37:24.626Z</time></trkpt><trkpt lat="42.0607081" lon="13.7031192"><ele>1070.3999999999999</ele><time>2026-05-02T12:37:26.626Z</time></trkpt><trkpt lat="42.0606487" lon="13.7030124"><ele>1071.0</ele><time>2026-05-02T12:37:28.626Z</time></trkpt><trkpt lat="42.0605942" lon="13.7029155"><ele>1071.0</ele><time>2026-05-02T12:37:30.626Z</time></trkpt><trkpt lat="42.0605404" lon="13.7028156"><ele>1071.0</ele><time>2026-05-02T12:37:32.626Z</time></trkpt><trkpt lat="42.0604774" lon="13.7026894"><ele>1071.0</ele><time>2026-05-02T12:37:34.626Z</time></trkpt><trkpt lat="42.0604221" lon="13.702583"><ele>1071.0</ele><time>2026-05-02T12:37:36.626Z</time></trkpt><trkpt lat="42.0603446" lon="13.7024382"><ele>1071.0</ele><time>2026-05-02T12:37:38.626Z</time></trkpt><trkpt lat="42.0602716" lon="13.7023128"><ele>1070.0</ele><time>2026-05-02T12:37:40.626Z</time></trkpt><trkpt lat="42.0602013" lon="13.7021966"><ele>1069.0</ele><time>2026-05-02T12:37:42.627Z</time></trkpt><trkpt lat="42.0601593" lon="13.7021291"><ele>1068.0</ele><time>2026-05-02T12:37:43.626Z</time></trkpt><trkpt lat="42.0601131" lon="13.7020555"><ele>1067.0</ele><time>2026-05-02T12:37:44.626Z</time></trkpt><trkpt lat="42.0600611" lon="13.7019747"><ele>1066.0</ele><time>2026-05-02T12:37:45.626Z</time></trkpt><trkpt lat="42.0600111" lon="13.7018856"><ele>1065.0</ele><time>2026-05-02T12:37:46.626Z</time></trkpt><trkpt lat="42.0599633" lon="13.7017949"><ele>1066.8333333333333</ele><time>2026-05-02T12:37:47.627Z</time></trkpt><trkpt lat="42.059914" lon="13.7017029"><ele>1068.6666666666667</ele><time>2026-05-02T12:37:48.626Z</time></trkpt><trkpt lat="42.0598668" lon="13.7016171"><ele>1070.5</ele><time>2026-05-02T12:37:49.626Z</time></trkpt><trkpt lat="42.0598218" lon="13.7015368"><ele>1072.3333333333335</ele><time>2026-05-02T12:37:50.626Z</time></trkpt><trkpt lat="42.0597753" lon="13.7014608"><ele>1074.1666666666667</ele><time>2026-05-02T12:37:51.627Z</time></trkpt><trkpt lat="42.0597261" lon="13.7013774"><ele>1076.0</ele><time>2026-05-02T12:37:52.626Z</time></trkpt><trkpt lat="42.059681" lon="13.7013004"><ele>1076.0</ele><time>2026-05-02T12:37:53.626Z</time></trkpt><trkpt lat="42.0596375" lon="13.7012269"><ele>1076.0</ele><time>2026-05-02T12:37:54.626Z</time></trkpt><trkpt lat="42.0595933" lon="13.7011503"><ele>1076.0</ele><time>2026-05-02T12:37:55.626Z</time></trkpt><trkpt lat="42.0595465" lon="13.7010694"><ele>1076.0</ele><time>2026-05-02T12:37:56.626Z</time></trkpt><trkpt lat="42.0594997" lon="13.7009891"><ele>1076.0</ele><time>2026-05-02T12:37:57.626Z</time></trkpt><trkpt lat="42.0594516" lon="13.7009159"><ele>1076.0</ele><time>2026-05-02T12:37:58.626Z</time></trkpt><trkpt lat="42.0594026" lon="13.7008482"><ele>1076.0</ele><time>2026-05-02T12:37:59.626Z</time></trkpt><trkpt lat="42.0593534" lon="13.7007845"><ele>1073.5</ele><time>2026-05-02T12:38:00.627Z</time></trkpt><trkpt lat="42.0592984" lon="13.7007218"><ele>1071.0</ele><time>2026-05-02T12:38:01.626Z</time></trkpt><trkpt lat="42.059235" lon="13.7006665"><ele>1068.5</ele><time>2026-05-02T12:38:02.627Z</time></trkpt><trkpt lat="42.0591682" lon="13.700619"><ele>1066.0</ele><time>2026-05-02T12:38:03.627Z</time></trkpt><trkpt lat="42.0590953" lon="13.7005719"><ele>1063.5</ele><time>2026-05-02T12:38:04.626Z</time></trkpt><trkpt lat="42.0590201" lon="13.7005333"><ele>1061.0</ele><time>2026-05-02T12:38:05.626Z</time></trkpt><trkpt lat="42.0589459" lon="13.7004971"><ele>1060.4285714285716</ele><time>2026-05-02T12:38:06.626Z</time></trkpt><trkpt lat="42.0588719" lon="13.7004682"><ele>1059.857142857143</ele><time>2026-05-02T12:38:07.626Z</time></trkpt><trkpt lat="42.0588012" lon="13.7004469"><ele>1059.2857142857142</ele><time>2026-05-02T12:38:08.626Z</time></trkpt><trkpt lat="42.0587359" lon="13.7004305"><ele>1058.7142857142858</ele><time>2026-05-02T12:38:09.626Z</time></trkpt><trkpt lat="42.0586694" lon="13.7004226"><ele>1058.142857142857</ele><time>2026-05-02T12:38:10.627Z</time></trkpt><trkpt lat="42.0585969" lon="13.7004139"><ele>1057.5714285714287</ele><time>2026-05-02T12:38:11.627Z</time></trkpt><trkpt lat="42.0585243" lon="13.7004073"><ele>1057.0</ele><time>2026-05-02T12:38:12.626Z</time></trkpt><trkpt lat="42.0584504" lon="13.7003978"><ele>1057.0</ele><time>2026-05-02T12:38:13.627Z</time></trkpt><trkpt lat="42.0583754" lon="13.7003905"><ele>1057.0</ele><time>2026-05-02T12:38:14.626Z</time></trkpt><trkpt lat="42.0582947" lon="13.7003828"><ele>1057.0</ele><time>2026-05-02T12:38:15.627Z</time></trkpt><trkpt lat="42.0582162" lon="13.7003767"><ele>1057.0</ele><time>2026-05-02T12:38:16.627Z</time></trkpt><trkpt lat="42.0581306" lon="13.7003731"><ele>1057.0</ele><time>2026-05-02T12:38:17.626Z</time></trkpt><trkpt lat="42.0580466" lon="13.7003682"><ele>1057.0</ele><time>2026-05-02T12:38:18.627Z</time></trkpt><trkpt lat="42.0579702" lon="13.7003638"><ele>1056.0</ele><time>2026-05-02T12:38:19.626Z</time></trkpt><trkpt lat="42.057864" lon="13.7003545"><ele>1055.0</ele><time>2026-05-02T12:38:21.627Z</time></trkpt><trkpt lat="42.0577717" lon="13.7003443"><ele>1054.0</ele><time>2026-05-02T12:38:23.627Z</time></trkpt><trkpt lat="42.057669" lon="13.7003242"><ele>1053.0</ele><time>2026-05-02T12:38:25.626Z</time></trkpt><trkpt lat="42.057566" lon="13.7003118"><ele>1052.0</ele><time>2026-05-02T12:38:27.626Z</time></trkpt><trkpt lat="42.0574678" lon="13.7003011"><ele>1051.8333333333335</ele><time>2026-05-02T12:38:29.626Z</time></trkpt><trkpt lat="42.0573734" lon="13.7002863"><ele>1051.6666666666667</ele><time>2026-05-02T12:38:31.627Z</time></trkpt><trkpt lat="42.0572984" lon="13.700285"><ele>1051.5</ele><time>2026-05-02T12:38:33.626Z</time></trkpt><trkpt lat="42.057231" lon="13.7002659"><ele>1051.3333333333333</ele><time>2026-05-02T12:38:35.627Z</time></trkpt><trkpt lat="42.0571622" lon="13.7002511"><ele>1051.1666666666665</ele><time>2026-05-02T12:38:38.627Z</time></trkpt><trkpt lat="42.0570741" lon="13.7002462"><ele>1051.0</ele><time>2026-05-02T12:38:40.627Z</time></trkpt><trkpt lat="42.0569859" lon="13.7002239"><ele>1051.0</ele><time>2026-05-02T12:38:42.626Z</time></trkpt><trkpt lat="42.0568815" lon="13.7001983"><ele>1051.0</ele><time>2026-05-02T12:38:44.626Z</time></trkpt><trkpt lat="42.0567604" lon="13.700176"><ele>1051.0</ele><time>2026-05-02T12:38:46.626Z</time></trkpt><trkpt lat="42.0566337" lon="13.7001614"><ele>1051.0</ele><time>2026-05-02T12:38:48.626Z</time></trkpt><trkpt lat="42.0565701" lon="13.7001527"><ele>1051.0</ele><time>2026-05-02T12:38:49.626Z</time></trkpt><trkpt lat="42.0564459" lon="13.7001339"><ele>1051.1666666666665</ele><time>2026-05-02T12:38:51.627Z</time></trkpt><trkpt lat="42.0563824" lon="13.7001228"><ele>1051.3333333333333</ele><time>2026-05-02T12:38:52.626Z</time></trkpt><trkpt lat="42.0563192" lon="13.7001135"><ele>1051.5</ele><time>2026-05-02T12:38:53.627Z</time></trkpt><trkpt lat="42.0562546" lon="13.7001042"><ele>1051.6666666666667</ele><time>2026-05-02T12:38:54.626Z</time></trkpt><trkpt lat="42.0561368" lon="13.700081"><ele>1051.8333333333335</ele><time>2026-05-02T12:38:56.627Z</time></trkpt><trkpt lat="42.056027" lon="13.700058"><ele>1052.0</ele><time>2026-05-02T12:38:58.627Z</time></trkpt><trkpt lat="42.0559169" lon="13.7000383"><ele>1052.0</ele><time>2026-05-02T12:39:00.626Z</time></trkpt><trkpt lat="42.0557986" lon="13.7000108"><ele>1052.0</ele><time>2026-05-02T12:39:02.627Z</time></trkpt><trkpt lat="42.0557316" lon="13.6999995"><ele>1052.0</ele><time>2026-05-02T12:39:03.626Z</time></trkpt><trkpt lat="42.0556635" lon="13.6999886"><ele>1052.0</ele><time>2026-05-02T12:39:04.626Z</time></trkpt><trkpt lat="42.0555948" lon="13.6999796"><ele>1052.0</ele><time>2026-05-02T12:39:05.627Z</time></trkpt><trkpt lat="42.0555259" lon="13.6999714"><ele>1052.0</ele><time>2026-05-02T12:39:06.626Z</time></trkpt><trkpt lat="42.0554622" lon="13.6999644"><ele>1051.6</ele><time>2026-05-02T12:39:07.626Z</time></trkpt><trkpt lat="42.055398" lon="13.6999568"><ele>1051.2</ele><time>2026-05-02T12:39:08.626Z</time></trkpt><trkpt lat="42.0552771" lon="13.6999334"><ele>1050.8</ele><time>2026-05-02T12:39:10.627Z</time></trkpt><trkpt lat="42.0551535" lon="13.6998918"><ele>1050.4</ele><time>2026-05-02T12:39:12.626Z</time></trkpt><trkpt lat="42.0550876" lon="13.6998632"><ele>1050.0</ele><time>2026-05-02T12:39:13.626Z</time></trkpt><trkpt lat="42.0550212" lon="13.6998359"><ele>1050.0</ele><time>2026-05-02T12:39:14.626Z</time></trkpt><trkpt lat="42.0549577" lon="13.6998056"><ele>1050.0</ele><time>2026-05-02T12:39:15.626Z</time></trkpt><trkpt lat="42.0548954" lon="13.699774"><ele>1050.0</ele><time>2026-05-02T12:39:16.627Z</time></trkpt><trkpt lat="42.0548307" lon="13.6997403"><ele>1050.0</ele><time>2026-05-02T12:39:17.626Z</time></trkpt><trkpt lat="42.0547655" lon="13.6997055"><ele>1050.0</ele><time>2026-05-02T12:39:18.626Z</time></trkpt><trkpt lat="42.054702" lon="13.6996654"><ele>1050.0</ele><time>2026-05-02T12:39:19.627Z</time></trkpt><trkpt lat="42.0546357" lon="13.6996304"><ele>1050.0</ele><time>2026-05-02T12:39:20.626Z</time></trkpt><trkpt lat="42.0545666" lon="13.6996053"><ele>1049.6666666666667</ele><time>2026-05-02T12:39:21.627Z</time></trkpt><trkpt lat="42.0544956" lon="13.6995868"><ele>1049.3333333333333</ele><time>2026-05-02T12:39:22.626Z</time></trkpt><trkpt lat="42.0544287" lon="13.69957"><ele>1049.0</ele><time>2026-05-02T12:39:23.626Z</time></trkpt><trkpt lat="42.0543589" lon="13.6995442"><ele>1048.6666666666665</ele><time>2026-05-02T12:39:24.627Z</time></trkpt><trkpt lat="42.0542856" lon="13.6995165"><ele>1048.3333333333333</ele><time>2026-05-02T12:39:25.627Z</time></trkpt><trkpt lat="42.0542077" lon="13.6994824"><ele>1048.0</ele><time>2026-05-02T12:39:26.626Z</time></trkpt><trkpt lat="42.0541291" lon="13.699445"><ele>1048.6666666666665</ele><time>2026-05-02T12:39:27.626Z</time></trkpt><trkpt lat="42.0540498" lon="13.6994026"><ele>1049.3333333333333</ele><time>2026-05-02T12:39:28.626Z</time></trkpt><trkpt lat="42.0539738" lon="13.6993611"><ele>1050.0</ele><time>2026-05-02T12:39:29.627Z</time></trkpt><trkpt lat="42.0538986" lon="13.6993234"><ele>1050.6666666666667</ele><time>2026-05-02T12:39:30.626Z</time></trkpt><trkpt lat="42.0538246" lon="13.6992882"><ele>1051.3333333333335</ele><time>2026-05-02T12:39:31.627Z</time></trkpt><trkpt lat="42.0537519" lon="13.6992498"><ele>1052.0</ele><time>2026-05-02T12:39:32.626Z</time></trkpt><trkpt lat="42.0536834" lon="13.6992135"><ele>1052.0</ele><time>2026-05-02T12:39:33.626Z</time></trkpt><trkpt lat="42.0536137" lon="13.6991786"><ele>1052.0</ele><time>2026-05-02T12:39:34.626Z</time></trkpt><trkpt lat="42.0535449" lon="13.6991456"><ele>1052.0</ele><time>2026-05-02T12:39:35.626Z</time></trkpt><trkpt lat="42.0534774" lon="13.6991131"><ele>1052.0</ele><time>2026-05-02T12:39:36.627Z</time></trkpt><trkpt lat="42.0534131" lon="13.6990785"><ele>1052.0</ele><time>2026-05-02T12:39:37.626Z</time></trkpt><trkpt lat="42.0532928" lon="13.6990248"><ele>1052.0</ele><time>2026-05-02T12:39:39.627Z</time></trkpt><trkpt lat="42.0532301" lon="13.6989872"><ele>1052.2857142857142</ele><time>2026-05-02T12:39:40.626Z</time></trkpt><trkpt lat="42.0531702" lon="13.6989429"><ele>1052.5714285714284</ele><time>2026-05-02T12:39:41.626Z</time></trkpt><trkpt lat="42.0531127" lon="13.6988977"><ele>1052.857142857143</ele><time>2026-05-02T12:39:42.627Z</time></trkpt><trkpt lat="42.0530573" lon="13.6988488"><ele>1053.142857142857</ele><time>2026-05-02T12:39:43.626Z</time></trkpt><trkpt lat="42.0530032" lon="13.698793"><ele>1053.4285714285716</ele><time>2026-05-02T12:39:44.626Z</time></trkpt><trkpt lat="42.0529461" lon="13.698731"><ele>1053.7142857142858</ele><time>2026-05-02T12:39:45.626Z</time></trkpt><trkpt lat="42.0528864" lon="13.6986613"><ele>1054.0</ele><time>2026-05-02T12:39:46.626Z</time></trkpt><trkpt lat="42.0528264" lon="13.698589"><ele>1054.3333333333333</ele><time>2026-05-02T12:39:47.626Z</time></trkpt><trkpt lat="42.0527635" lon="13.698517"><ele>1054.6666666666665</ele><time>2026-05-02T12:39:48.627Z</time></trkpt><trkpt lat="42.0526988" lon="13.698448"><ele>1055.0</ele><time>2026-05-02T12:39:49.626Z</time></trkpt><trkpt lat="42.052634" lon="13.6983824"><ele>1055.3333333333333</ele><time>2026-05-02T12:39:50.627Z</time></trkpt><trkpt lat="42.0525679" lon="13.6983183"><ele>1055.6666666666667</ele><time>2026-05-02T12:39:51.626Z</time></trkpt><trkpt lat="42.0525017" lon="13.69825"><ele>1056.0</ele><time>2026-05-02T12:39:52.626Z</time></trkpt><trkpt lat="42.05244" lon="13.698189"><ele>1058.1666666666667</ele><time>2026-05-02T12:39:53.626Z</time></trkpt><trkpt lat="42.052383" lon="13.6981314"><ele>1060.3333333333333</ele><time>2026-05-02T12:39:54.626Z</time></trkpt><trkpt lat="42.0523291" lon="13.6980732"><ele>1062.5</ele><time>2026-05-02T12:39:55.627Z</time></trkpt><trkpt lat="42.0522691" lon="13.6980075"><ele>1064.6666666666665</ele><time>2026-05-02T12:39:56.627Z</time></trkpt><trkpt lat="42.0522089" lon="13.6979382"><ele>1066.8333333333333</ele><time>2026-05-02T12:39:57.627Z</time></trkpt><trkpt lat="42.0521476" lon="13.6978634"><ele>1069.0</ele><time>2026-05-02T12:39:58.626Z</time></trkpt><trkpt lat="42.0520896" lon="13.6977925"><ele>1066.8333333333333</ele><time>2026-05-02T12:39:59.627Z</time></trkpt><trkpt lat="42.0520373" lon="13.6977226"><ele>1064.6666666666665</ele><time>2026-05-02T12:40:00.626Z</time></trkpt><trkpt lat="42.0519893" lon="13.6976597"><ele>1062.5</ele><time>2026-05-02T12:40:01.627Z</time></trkpt><trkpt lat="42.0519036" lon="13.6975513"><ele>1060.3333333333333</ele><time>2026-05-02T12:40:03.627Z</time></trkpt><trkpt lat="42.0518538" lon="13.6974936"><ele>1058.1666666666667</ele><time>2026-05-02T12:40:04.627Z</time></trkpt><trkpt lat="42.0518026" lon="13.6974388"><ele>1056.0</ele><time>2026-05-02T12:40:05.626Z</time></trkpt><trkpt lat="42.0517489" lon="13.6973835"><ele>1056.0</ele><time>2026-05-02T12:40:06.626Z</time></trkpt><trkpt lat="42.0516934" lon="13.6973265"><ele>1056.0</ele><time>2026-05-02T12:40:07.626Z</time></trkpt><trkpt lat="42.0516376" lon="13.6972673"><ele>1056.0</ele><time>2026-05-02T12:40:08.626Z</time></trkpt><trkpt lat="42.0515757" lon="13.6971958"><ele>1056.0</ele><time>2026-05-02T12:40:09.626Z</time></trkpt><trkpt lat="42.0515126" lon="13.6971206"><ele>1056.0</ele><time>2026-05-02T12:40:10.627Z</time></trkpt><trkpt lat="42.0514457" lon="13.6970426"><ele>1056.0</ele><time>2026-05-02T12:40:11.626Z</time></trkpt><trkpt lat="42.0513775" lon="13.696966"><ele>1055.8</ele><time>2026-05-02T12:40:12.626Z</time></trkpt><trkpt lat="42.0513046" lon="13.6968876"><ele>1055.6</ele><time>2026-05-02T12:40:13.626Z</time></trkpt><trkpt lat="42.0512272" lon="13.6967997"><ele>1055.4</ele><time>2026-05-02T12:40:14.626Z</time></trkpt><trkpt lat="42.0511515" lon="13.6967049"><ele>1055.2</ele><time>2026-05-02T12:40:15.627Z</time></trkpt><trkpt lat="42.0510732" lon="13.6966086"><ele>1055.0</ele><time>2026-05-02T12:40:16.626Z</time></trkpt><trkpt lat="42.0509962" lon="13.6965175"><ele>1055.0</ele><time>2026-05-02T12:40:17.626Z</time></trkpt><trkpt lat="42.0509191" lon="13.6964307"><ele>1055.0</ele><time>2026-05-02T12:40:18.626Z</time></trkpt><trkpt lat="42.0508464" lon="13.6963451"><ele>1055.0</ele><time>2026-05-02T12:40:19.626Z</time></trkpt><trkpt lat="42.0507832" lon="13.6962538"><ele>1055.0</ele><time>2026-05-02T12:40:20.626Z</time></trkpt><trkpt lat="42.0507194" lon="13.6961649"><ele>1055.0</ele><time>2026-05-02T12:40:21.626Z</time></trkpt><trkpt lat="42.0506571" lon="13.6960785"><ele>1054.3333333333335</ele><time>2026-05-02T12:40:22.626Z</time></trkpt><trkpt lat="42.050596" lon="13.6959939"><ele>1053.6666666666667</ele><time>2026-05-02T12:40:23.626Z</time></trkpt><trkpt lat="42.0505368" lon="13.6959112"><ele>1053.0</ele><time>2026-05-02T12:40:24.627Z</time></trkpt><trkpt lat="42.0504787" lon="13.6958291"><ele>1052.3333333333333</ele><time>2026-05-02T12:40:25.627Z</time></trkpt><trkpt lat="42.0504162" lon="13.6957544"><ele>1051.6666666666665</ele><time>2026-05-02T12:40:26.626Z</time></trkpt><trkpt lat="42.0503509" lon="13.6956808"><ele>1051.0</ele><time>2026-05-02T12:40:27.627Z</time></trkpt><trkpt lat="42.0502882" lon="13.6956005"><ele>1051.0</ele><time>2026-05-02T12:40:28.626Z</time></trkpt><trkpt lat="42.0502211" lon="13.6955099"><ele>1051.0</ele><time>2026-05-02T12:40:29.626Z</time></trkpt><trkpt lat="42.0501522" lon="13.6954173"><ele>1051.0</ele><time>2026-05-02T12:40:30.627Z</time></trkpt><trkpt lat="42.0500811" lon="13.6953231"><ele>1051.0</ele><time>2026-05-02T12:40:31.626Z</time></trkpt><trkpt lat="42.0500105" lon="13.6952305"><ele>1051.0</ele><time>2026-05-02T12:40:32.626Z</time></trkpt><trkpt lat="42.0499442" lon="13.6951361"><ele>1052.0</ele><time>2026-05-02T12:40:33.626Z</time></trkpt><trkpt lat="42.0498765" lon="13.6950384"><ele>1053.0</ele><time>2026-05-02T12:40:34.626Z</time></trkpt><trkpt lat="42.0498073" lon="13.6949397"><ele>1054.0</ele><time>2026-05-02T12:40:35.626Z</time></trkpt><trkpt lat="42.0497431" lon="13.6948472"><ele>1055.0</ele><time>2026-05-02T12:40:36.626Z</time></trkpt><trkpt lat="42.0496802" lon="13.6947563"><ele>1056.0</ele><time>2026-05-02T12:40:37.626Z</time></trkpt><trkpt lat="42.0496178" lon="13.6946727"><ele>1056.0</ele><time>2026-05-02T12:40:38.627Z</time></trkpt><trkpt lat="42.0495635" lon="13.6945897"><ele>1056.0</ele><time>2026-05-02T12:40:39.626Z</time></trkpt><trkpt lat="42.0495085" lon="13.6945084"><ele>1056.0</ele><time>2026-05-02T12:40:40.627Z</time></trkpt><trkpt lat="42.04945" lon="13.6944289"><ele>1056.0</ele><time>2026-05-02T12:40:41.626Z</time></trkpt><trkpt lat="42.0493894" lon="13.6943516"><ele>1056.0</ele><time>2026-05-02T12:40:42.626Z</time></trkpt><trkpt lat="42.0493214" lon="13.6942731"><ele>1056.0</ele><time>2026-05-02T12:40:43.626Z</time></trkpt><trkpt lat="42.0492501" lon="13.6941926"><ele>1055.8</ele><time>2026-05-02T12:40:44.626Z</time></trkpt><trkpt lat="42.0491752" lon="13.6941158"><ele>1055.6</ele><time>2026-05-02T12:40:45.627Z</time></trkpt><trkpt lat="42.0490981" lon="13.6940371"><ele>1055.4</ele><time>2026-05-02T12:40:46.627Z</time></trkpt><trkpt lat="42.0490239" lon="13.6939603"><ele>1055.2</ele><time>2026-05-02T12:40:47.626Z</time></trkpt><trkpt lat="42.0489501" lon="13.6938789"><ele>1055.0</ele><time>2026-05-02T12:40:48.627Z</time></trkpt><trkpt lat="42.0488804" lon="13.6937978"><ele>1055.0</ele><time>2026-05-02T12:40:49.626Z</time></trkpt><trkpt lat="42.048814" lon="13.6937192"><ele>1055.0</ele><time>2026-05-02T12:40:50.627Z</time></trkpt><trkpt lat="42.0487504" lon="13.6936414"><ele>1055.0</ele><time>2026-05-02T12:40:51.626Z</time></trkpt><trkpt lat="42.0486864" lon="13.6935681"><ele>1055.0</ele><time>2026-05-02T12:40:52.626Z</time></trkpt><trkpt lat="42.0486185" lon="13.6935005"><ele>1055.0</ele><time>2026-05-02T12:40:53.626Z</time></trkpt><trkpt lat="42.0485507" lon="13.693436"><ele>1055.0</ele><time>2026-05-02T12:40:54.626Z</time></trkpt><trkpt lat="42.0484789" lon="13.6933683"><ele>1054.6</ele><time>2026-05-02T12:40:55.627Z</time></trkpt><trkpt lat="42.0484056" lon="13.6932955"><ele>1054.2</ele><time>2026-05-02T12:40:56.627Z</time></trkpt><trkpt lat="42.0483303" lon="13.6932199"><ele>1053.8</ele><time>2026-05-02T12:40:57.627Z</time></trkpt><trkpt lat="42.0482543" lon="13.6931402"><ele>1053.4</ele><time>2026-05-02T12:40:58.626Z</time></trkpt><trkpt lat="42.0481783" lon="13.6930556"><ele>1053.0</ele><time>2026-05-02T12:40:59.626Z</time></trkpt><trkpt lat="42.0481009" lon="13.6929623"><ele>1053.0</ele><time>2026-05-02T12:41:00.627Z</time></trkpt><trkpt lat="42.048025" lon="13.6928696"><ele>1053.0</ele><time>2026-05-02T12:41:01.626Z</time></trkpt><trkpt lat="42.0479475" lon="13.6927791"><ele>1053.0</ele><time>2026-05-02T12:41:02.626Z</time></trkpt><trkpt lat="42.0478688" lon="13.6926927"><ele>1053.0</ele><time>2026-05-02T12:41:03.626Z</time></trkpt><trkpt lat="42.0477897" lon="13.6926071"><ele>1053.0</ele><time>2026-05-02T12:41:04.626Z</time></trkpt><trkpt lat="42.0477096" lon="13.6925257"><ele>1050.2</ele><time>2026-05-02T12:41:05.626Z</time></trkpt><trkpt lat="42.0476299" lon="13.6924436"><ele>1047.4</ele><time>2026-05-02T12:41:06.627Z</time></trkpt><trkpt lat="42.0475505" lon="13.6923655"><ele>1044.6000000000001</ele><time>2026-05-02T12:41:07.626Z</time></trkpt><trkpt lat="42.0474694" lon="13.6922903"><ele>1041.8</ele><time>2026-05-02T12:41:08.626Z</time></trkpt><trkpt lat="42.0473914" lon="13.692215"><ele>1039.0</ele><time>2026-05-02T12:41:09.626Z</time></trkpt><trkpt lat="42.0473147" lon="13.6921398"><ele>1039.0</ele><time>2026-05-02T12:41:10.626Z</time></trkpt><trkpt lat="42.0472379" lon="13.692067"><ele>1039.0</ele><time>2026-05-02T12:41:11.627Z</time></trkpt><trkpt lat="42.0471599" lon="13.6919963"><ele>1039.0</ele><time>2026-05-02T12:41:12.627Z</time></trkpt><trkpt lat="42.0470812" lon="13.6919305"><ele>1039.0</ele><time>2026-05-02T12:41:13.626Z</time></trkpt><trkpt lat="42.0470016" lon="13.6918681"><ele>1039.0</ele><time>2026-05-02T12:41:14.627Z</time></trkpt><trkpt lat="42.0469215" lon="13.6918091"><ele>1036.3333333333333</ele><time>2026-05-02T12:41:15.627Z</time></trkpt><trkpt lat="42.0468413" lon="13.6917512"><ele>1033.6666666666665</ele><time>2026-05-02T12:41:16.626Z</time></trkpt><trkpt lat="42.0467643" lon="13.6916928"><ele>1031.0</ele><time>2026-05-02T12:41:17.626Z</time></trkpt><trkpt lat="42.0466887" lon="13.6916359"><ele>1028.3333333333333</ele><time>2026-05-02T12:41:18.626Z</time></trkpt><trkpt lat="42.0466158" lon="13.6915781"><ele>1025.6666666666667</ele><time>2026-05-02T12:41:19.626Z</time></trkpt><trkpt lat="42.0465461" lon="13.6915204"><ele>1023.0</ele><time>2026-05-02T12:41:20.627Z</time></trkpt><trkpt lat="42.0464777" lon="13.6914665"><ele>1023.0</ele><time>2026-05-02T12:41:21.626Z</time></trkpt><trkpt lat="42.0464057" lon="13.6914116"><ele>1023.0</ele><time>2026-05-02T12:41:22.627Z</time></trkpt><trkpt lat="42.0463337" lon="13.6913585"><ele>1023.0</ele><time>2026-05-02T12:41:23.626Z</time></trkpt><trkpt lat="42.0462573" lon="13.691301"><ele>1023.0</ele><time>2026-05-02T12:41:24.627Z</time></trkpt><trkpt lat="42.0461801" lon="13.6912368"><ele>1023.0</ele><time>2026-05-02T12:41:25.626Z</time></trkpt><trkpt lat="42.0461029" lon="13.691168"><ele>1023.0</ele><time>2026-05-02T12:41:26.626Z</time></trkpt><trkpt lat="42.046029" lon="13.6910926"><ele>1021.8</ele><time>2026-05-02T12:41:27.627Z</time></trkpt><trkpt lat="42.0459586" lon="13.6910152"><ele>1020.5999999999999</ele><time>2026-05-02T12:41:28.626Z</time></trkpt><trkpt lat="42.0458845" lon="13.6909384"><ele>1019.4000000000001</ele><time>2026-05-02T12:41:29.626Z</time></trkpt><trkpt lat="42.045811" lon="13.6908679"><ele>1018.2</ele><time>2026-05-02T12:41:30.626Z</time></trkpt><trkpt lat="42.045738" lon="13.6907888"><ele>1017.0</ele><time>2026-05-02T12:41:31.626Z</time></trkpt><trkpt lat="42.0456659" lon="13.6907087"><ele>1017.0</ele><time>2026-05-02T12:41:32.627Z</time></trkpt><trkpt lat="42.0455969" lon="13.6906257"><ele>1017.0</ele><time>2026-05-02T12:41:33.626Z</time></trkpt><trkpt lat="42.045531" lon="13.6905403"><ele>1017.0</ele><time>2026-05-02T12:41:34.627Z</time></trkpt><trkpt lat="42.0454676" lon="13.6904524"><ele>1017.0</ele><time>2026-05-02T12:41:35.626Z</time></trkpt><trkpt lat="42.0454068" lon="13.6903601"><ele>1017.0</ele><time>2026-05-02T12:41:36.626Z</time></trkpt><trkpt lat="42.0453537" lon="13.6902619"><ele>1014.8333333333334</ele><time>2026-05-02T12:41:37.626Z</time></trkpt><trkpt lat="42.0453043" lon="13.6901626"><ele>1012.6666666666667</ele><time>2026-05-02T12:41:38.626Z</time></trkpt><trkpt lat="42.0452542" lon="13.690063"><ele>1010.5</ele><time>2026-05-02T12:41:39.626Z</time></trkpt><trkpt lat="42.0452039" lon="13.689966"><ele>1008.3333333333334</ele><time>2026-05-02T12:41:40.627Z</time></trkpt><trkpt lat="42.0451555" lon="13.6898689"><ele>1006.1666666666667</ele><time>2026-05-02T12:41:41.626Z</time></trkpt><trkpt lat="42.0451117" lon="13.689774"><ele>1004.0</ele><time>2026-05-02T12:41:42.626Z</time></trkpt><trkpt lat="42.0450719" lon="13.68968"><ele>1004.0000000000001</ele><time>2026-05-02T12:41:43.627Z</time></trkpt><trkpt lat="42.0450333" lon="13.6895815"><ele>1004.0</ele><time>2026-05-02T12:41:44.627Z</time></trkpt><trkpt lat="42.0449958" lon="13.6894785"><ele>1004.0</ele><time>2026-05-02T12:41:45.626Z</time></trkpt><trkpt lat="42.0449615" lon="13.6893714"><ele>1004.0</ele><time>2026-05-02T12:41:46.626Z</time></trkpt><trkpt lat="42.0449316" lon="13.6892606"><ele>1004.0000000000001</ele><time>2026-05-02T12:41:47.626Z</time></trkpt><trkpt lat="42.0448972" lon="13.6891524"><ele>1004.0</ele><time>2026-05-02T12:41:48.627Z</time></trkpt><trkpt lat="42.0448582" lon="13.6890497"><ele>1003.0000000000001</ele><time>2026-05-02T12:41:49.627Z</time></trkpt><trkpt lat="42.0448208" lon="13.6889476"><ele>1002.0</ele><time>2026-05-02T12:41:50.626Z</time></trkpt><trkpt lat="42.044784" lon="13.6888475"><ele>1001.0</ele><time>2026-05-02T12:41:51.626Z</time></trkpt><trkpt lat="42.0447444" lon="13.6887496"><ele>1000.0</ele><time>2026-05-02T12:41:52.626Z</time></trkpt><trkpt lat="42.0447017" lon="13.6886576"><ele>999.0000000000001</ele><time>2026-05-02T12:41:53.626Z</time></trkpt><trkpt lat="42.0446594" lon="13.6885619"><ele>998.0</ele><time>2026-05-02T12:41:54.626Z</time></trkpt><trkpt lat="42.0446213" lon="13.6884615"><ele>998.0000000000001</ele><time>2026-05-02T12:41:55.626Z</time></trkpt><trkpt lat="42.0445868" lon="13.6883609"><ele>998.0</ele><time>2026-05-02T12:41:56.626Z</time></trkpt><trkpt lat="42.0445489" lon="13.6882628"><ele>998.0</ele><time>2026-05-02T12:41:57.626Z</time></trkpt><trkpt lat="42.0445046" lon="13.6881681"><ele>998.0</ele><time>2026-05-02T12:41:58.627Z</time></trkpt><trkpt lat="42.0444546" lon="13.6880774"><ele>998.0000000000001</ele><time>2026-05-02T12:41:59.627Z</time></trkpt><trkpt lat="42.0444032" lon="13.6879872"><ele>998.0</ele><time>2026-05-02T12:42:00.627Z</time></trkpt><trkpt lat="42.0443508" lon="13.6878991"><ele>998.0000000000001</ele><time>2026-05-02T12:42:01.627Z</time></trkpt><trkpt lat="42.0443" lon="13.6878253"><ele>998.0</ele><time>2026-05-02T12:42:02.627Z</time></trkpt><trkpt lat="42.0442511" lon="13.6877412"><ele>998.0</ele><time>2026-05-02T12:42:03.626Z</time></trkpt><trkpt lat="42.0442127" lon="13.6876451"><ele>998.0</ele><time>2026-05-02T12:42:04.626Z</time></trkpt><trkpt lat="42.0441766" lon="13.6875439"><ele>998.0000000000001</ele><time>2026-05-02T12:42:05.626Z</time></trkpt><trkpt lat="42.0441408" lon="13.6874512"><ele>998.0</ele><time>2026-05-02T12:42:06.626Z</time></trkpt><trkpt lat="42.0441024" lon="13.6873707"><ele>997.6666666666667</ele><time>2026-05-02T12:42:07.626Z</time></trkpt><trkpt lat="42.044063" lon="13.6873033"><ele>997.3333333333334</ele><time>2026-05-02T12:42:08.627Z</time></trkpt><trkpt lat="42.0440196" lon="13.6872311"><ele>997.0</ele><time>2026-05-02T12:42:09.626Z</time></trkpt><trkpt lat="42.0439542" lon="13.6871192"><ele>996.6666666666667</ele><time>2026-05-02T12:42:11.627Z</time></trkpt><trkpt lat="42.0438975" lon="13.6870389"><ele>996.3333333333334</ele><time>2026-05-02T12:42:13.626Z</time></trkpt><trkpt lat="42.0438417" lon="13.6869667"><ele>996.0</ele><time>2026-05-02T12:42:16.627Z</time></trkpt><trkpt lat="42.0438004" lon="13.6868853"><ele>992.5714285714286</ele><time>2026-05-02T12:42:20.627Z</time></trkpt><trkpt lat="42.0437546" lon="13.6868134"><ele>989.1428571428571</ele><time>2026-05-02T12:42:24.627Z</time></trkpt><trkpt lat="42.0437094" lon="13.6867536"><ele>985.7142857142857</ele><time>2026-05-02T12:42:27.627Z</time></trkpt><trkpt lat="42.0436616" lon="13.6866807"><ele>982.2857142857142</ele><time>2026-05-02T12:42:30.626Z</time></trkpt><trkpt lat="42.0436056" lon="13.686611"><ele>978.8571428571429</ele><time>2026-05-02T12:42:38.626Z</time></trkpt><trkpt lat="42.0435536" lon="13.6865412"><ele>975.4285714285713</ele><time>2026-05-02T12:42:41.627Z</time></trkpt><trkpt lat="42.0435234" lon="13.686447"><ele>972.0</ele><time>2026-05-02T12:42:45.627Z</time></trkpt><trkpt lat="42.0434976" lon="13.6863648"><ele>972.0</ele><time>2026-05-02T12:42:47.627Z</time></trkpt><trkpt lat="42.043467" lon="13.6862632"><ele>972.0</ele><time>2026-05-02T12:42:49.626Z</time></trkpt><trkpt lat="42.0434215" lon="13.6861525"><ele>972.0</ele><time>2026-05-02T12:42:51.626Z</time></trkpt><trkpt lat="42.0433875" lon="13.6860449"><ele>972.0</ele><time>2026-05-02T12:42:53.626Z</time></trkpt><trkpt lat="42.0433614" lon="13.6859654"><ele>972.0</ele><time>2026-05-02T12:42:55.626Z</time></trkpt><trkpt lat="42.0433182" lon="13.6858805"><ele>972.0</ele><time>2026-05-02T12:42:57.626Z</time></trkpt><trkpt lat="42.0432757" lon="13.685803"><ele>973.0</ele><time>2026-05-02T12:42:59.626Z</time></trkpt><trkpt lat="42.0432285" lon="13.6857044"><ele>974.0</ele><time>2026-05-02T12:43:02.626Z</time></trkpt><trkpt lat="42.0431644" lon="13.6856139"><ele>975.0</ele><time>2026-05-02T12:43:05.626Z</time></trkpt><trkpt lat="42.043119" lon="13.6855338"><ele>976.0</ele><time>2026-05-02T12:43:07.626Z</time></trkpt><trkpt lat="42.0430978" lon="13.6854426"><ele>977.0</ele><time>2026-05-02T12:43:09.627Z</time></trkpt><trkpt lat="42.0430389" lon="13.6853598"><ele>978.0</ele><time>2026-05-02T12:43:12.626Z</time></trkpt><trkpt lat="42.0429739" lon="13.6852805"><ele>974.0</ele><time>2026-05-02T12:43:15.626Z</time></trkpt><trkpt lat="42.0429289" lon="13.6852069"><ele>970.0000000000001</ele><time>2026-05-02T12:43:17.627Z</time></trkpt><trkpt lat="42.0428797" lon="13.6851168"><ele>966.0</ele><time>2026-05-02T12:43:19.627Z</time></trkpt><trkpt lat="42.0428337" lon="13.6850254"><ele>962.0</ele><time>2026-05-02T12:43:21.626Z</time></trkpt><trkpt lat="42.0427932" lon="13.6849407"><ele>958.0000000000001</ele><time>2026-05-02T12:43:23.627Z</time></trkpt><trkpt lat="42.0427562" lon="13.6848694"><ele>954.0</ele><time>2026-05-02T12:43:25.626Z</time></trkpt><trkpt lat="42.0427224" lon="13.6847952"><ele>950.0</ele><time>2026-05-02T12:43:27.626Z</time></trkpt><trkpt lat="42.0426864" lon="13.6847141"><ele>950.0</ele><time>2026-05-02T12:43:29.627Z</time></trkpt><trkpt lat="42.0426274" lon="13.6846273"><ele>950.0</ele><time>2026-05-02T12:43:31.627Z</time></trkpt><trkpt lat="42.0425523" lon="13.6845345"><ele>950.0</ele><time>2026-05-02T12:43:33.627Z</time></trkpt><trkpt lat="42.0424782" lon="13.6844418"><ele>950.0</ele><time>2026-05-02T12:43:35.626Z</time></trkpt><trkpt lat="42.0424094" lon="13.6843391"><ele>950.0</ele><time>2026-05-02T12:43:37.626Z</time></trkpt><trkpt lat="42.0423506" lon="13.6842259"><ele>948.2</ele><time>2026-05-02T12:43:39.626Z</time></trkpt><trkpt lat="42.0422681" lon="13.6841141"><ele>946.4</ele><time>2026-05-02T12:43:41.626Z</time></trkpt><trkpt lat="42.0421946" lon="13.6840128"><ele>944.5999999999999</ele><time>2026-05-02T12:43:43.626Z</time></trkpt><trkpt lat="42.0421379" lon="13.683928"><ele>942.8</ele><time>2026-05-02T12:43:45.626Z</time></trkpt><trkpt lat="42.0420586" lon="13.6838376"><ele>941.0</ele><time>2026-05-02T12:43:47.626Z</time></trkpt><trkpt lat="42.0419872" lon="13.6837272"><ele>941.0</ele><time>2026-05-02T12:43:49.627Z</time></trkpt><trkpt lat="42.0419152" lon="13.6835975"><ele>941.0</ele><time>2026-05-02T12:43:51.626Z</time></trkpt><trkpt lat="42.0418384" lon="13.6834681"><ele>941.0</ele><time>2026-05-02T12:43:53.626Z</time></trkpt><trkpt lat="42.0417599" lon="13.6833464"><ele>941.0</ele><time>2026-05-02T12:43:55.626Z</time></trkpt><trkpt lat="42.0416844" lon="13.6832233"><ele>938.8333333333334</ele><time>2026-05-02T12:43:57.626Z</time></trkpt><trkpt lat="42.041614" lon="13.683096"><ele>936.6666666666667</ele><time>2026-05-02T12:43:59.627Z</time></trkpt><trkpt lat="42.0415374" lon="13.6829701"><ele>934.5</ele><time>2026-05-02T12:44:01.627Z</time></trkpt><trkpt lat="42.0414969" lon="13.6829051"><ele>932.3333333333333</ele><time>2026-05-02T12:44:02.626Z</time></trkpt><trkpt lat="42.0414545" lon="13.6828344"><ele>930.1666666666666</ele><time>2026-05-02T12:44:03.626Z</time></trkpt><trkpt lat="42.0414107" lon="13.6827609"><ele>928.0</ele><time>2026-05-02T12:44:04.627Z</time></trkpt><trkpt lat="42.041365" lon="13.6826858"><ele>923.8333333333333</ele><time>2026-05-02T12:44:05.626Z</time></trkpt><trkpt lat="42.0413177" lon="13.68261"><ele>919.6666666666666</ele><time>2026-05-02T12:44:06.627Z</time></trkpt><trkpt lat="42.0412723" lon="13.6825354"><ele>915.5</ele><time>2026-05-02T12:44:07.627Z</time></trkpt><trkpt lat="42.0412327" lon="13.6824619"><ele>911.3333333333333</ele><time>2026-05-02T12:44:08.626Z</time></trkpt><trkpt lat="42.0412028" lon="13.682385"><ele>907.1666666666666</ele><time>2026-05-02T12:44:09.627Z</time></trkpt><trkpt lat="42.0411533" lon="13.6822593"><ele>903.0</ele><time>2026-05-02T12:44:11.626Z</time></trkpt><trkpt lat="42.0410802" lon="13.6821271"><ele>903.0</ele><time>2026-05-02T12:44:13.626Z</time></trkpt><trkpt lat="42.0410372" lon="13.6820624"><ele>903.0</ele><time>2026-05-02T12:44:14.626Z</time></trkpt><trkpt lat="42.0409948" lon="13.6819929"><ele>903.0</ele><time>2026-05-02T12:44:15.626Z</time></trkpt><trkpt lat="42.0409491" lon="13.6819224"><ele>903.0</ele><time>2026-05-02T12:44:16.627Z</time></trkpt><trkpt lat="42.0409012" lon="13.6818493"><ele>903.0</ele><time>2026-05-02T12:44:17.626Z</time></trkpt><trkpt lat="42.0408458" lon="13.6817782"><ele>903.0</ele><time>2026-05-02T12:44:18.626Z</time></trkpt><trkpt lat="42.0407844" lon="13.6817097"><ele>903.0</ele><time>2026-05-02T12:44:19.626Z</time></trkpt><trkpt lat="42.0407254" lon="13.681633"><ele>902.0</ele><time>2026-05-02T12:44:20.626Z</time></trkpt><trkpt lat="42.0406712" lon="13.6815465"><ele>901.0</ele><time>2026-05-02T12:44:21.626Z</time></trkpt><trkpt lat="42.0406195" lon="13.6814567"><ele>900.0</ele><time>2026-05-02T12:44:22.626Z</time></trkpt><trkpt lat="42.0405652" lon="13.6813679"><ele>899.0</ele><time>2026-05-02T12:44:23.626Z</time></trkpt><trkpt lat="42.0405063" lon="13.6812829"><ele>898.0</ele><time>2026-05-02T12:44:24.627Z</time></trkpt><trkpt lat="42.0404444" lon="13.6812001"><ele>897.0</ele><time>2026-05-02T12:44:25.626Z</time></trkpt><trkpt lat="42.0403851" lon="13.6811138"><ele>894.3333333333334</ele><time>2026-05-02T12:44:26.626Z</time></trkpt><trkpt lat="42.0403281" lon="13.6810252"><ele>891.6666666666667</ele><time>2026-05-02T12:44:27.626Z</time></trkpt><trkpt lat="42.0402716" lon="13.6809375"><ele>889.0</ele><time>2026-05-02T12:44:28.626Z</time></trkpt><trkpt lat="42.0402215" lon="13.6808549"><ele>886.3333333333334</ele><time>2026-05-02T12:44:29.627Z</time></trkpt><trkpt lat="42.0401774" lon="13.6807764"><ele>883.6666666666667</ele><time>2026-05-02T12:44:30.626Z</time></trkpt><trkpt lat="42.0401376" lon="13.6806991"><ele>881.0</ele><time>2026-05-02T12:44:31.627Z</time></trkpt><trkpt lat="42.0400981" lon="13.6806196"><ele>881.0</ele><time>2026-05-02T12:44:32.626Z</time></trkpt><trkpt lat="42.0400564" lon="13.6805387"><ele>881.0</ele><time>2026-05-02T12:44:33.626Z</time></trkpt><trkpt lat="42.0400155" lon="13.6804588"><ele>881.0</ele><time>2026-05-02T12:44:34.626Z</time></trkpt><trkpt lat="42.0399769" lon="13.6803838"><ele>881.0</ele><time>2026-05-02T12:44:35.626Z</time></trkpt><trkpt lat="42.0399358" lon="13.6803102"><ele>881.0</ele><time>2026-05-02T12:44:36.626Z</time></trkpt><trkpt lat="42.0398911" lon="13.6802366"><ele>881.0</ele><time>2026-05-02T12:44:37.626Z</time></trkpt><trkpt lat="42.0398447" lon="13.6801615"><ele>881.0</ele><time>2026-05-02T12:44:38.626Z</time></trkpt><trkpt lat="42.0398001" lon="13.680084"><ele>881.8333333333334</ele><time>2026-05-02T12:44:39.626Z</time></trkpt><trkpt lat="42.0397552" lon="13.6800042"><ele>882.6666666666667</ele><time>2026-05-02T12:44:40.626Z</time></trkpt><trkpt lat="42.0397074" lon="13.6799275"><ele>883.5</ele><time>2026-05-02T12:44:41.627Z</time></trkpt><trkpt lat="42.0396612" lon="13.6798473"><ele>884.3333333333333</ele><time>2026-05-02T12:44:42.627Z</time></trkpt><trkpt lat="42.0396144" lon="13.6797629"><ele>885.1666666666666</ele><time>2026-05-02T12:44:43.626Z</time></trkpt><trkpt lat="42.0395714" lon="13.679681"><ele>886.0</ele><time>2026-05-02T12:44:44.626Z</time></trkpt><trkpt lat="42.0395284" lon="13.6795993"><ele>885.9999999999999</ele><time>2026-05-02T12:44:45.626Z</time></trkpt><trkpt lat="42.0394864" lon="13.6795192"><ele>886.0</ele><time>2026-05-02T12:44:46.626Z</time></trkpt><trkpt lat="42.0394455" lon="13.6794467"><ele>886.0</ele><time>2026-05-02T12:44:47.627Z</time></trkpt><trkpt lat="42.0394073" lon="13.6793753"><ele>886.0</ele><time>2026-05-02T12:44:48.627Z</time></trkpt><trkpt lat="42.0393693" lon="13.6793059"><ele>885.9999999999999</ele><time>2026-05-02T12:44:49.627Z</time></trkpt><trkpt lat="42.0393022" lon="13.6791673"><ele>886.0</ele><time>2026-05-02T12:44:51.626Z</time></trkpt><trkpt lat="42.0392631" lon="13.6790948"><ele>886.4285714285714</ele><time>2026-05-02T12:44:52.626Z</time></trkpt><trkpt lat="42.0392235" lon="13.6790208"><ele>886.8571428571429</ele><time>2026-05-02T12:44:53.626Z</time></trkpt><trkpt lat="42.03918" lon="13.6789405"><ele>887.2857142857142</ele><time>2026-05-02T12:44:54.627Z</time></trkpt><trkpt lat="42.0391373" lon="13.6788612"><ele>887.7142857142858</ele><time>2026-05-02T12:44:55.626Z</time></trkpt><trkpt lat="42.0390935" lon="13.6787796"><ele>888.1428571428571</ele><time>2026-05-02T12:44:56.627Z</time></trkpt><trkpt lat="42.039049" lon="13.6786996"><ele>888.5714285714286</ele><time>2026-05-02T12:44:57.627Z</time></trkpt><trkpt lat="42.0390043" lon="13.6786204"><ele>889.0</ele><time>2026-05-02T12:44:58.626Z</time></trkpt><trkpt lat="42.0389594" lon="13.6785425"><ele>886.1666666666666</ele><time>2026-05-02T12:44:59.626Z</time></trkpt><trkpt lat="42.0389175" lon="13.678461"><ele>883.3333333333333</ele><time>2026-05-02T12:45:00.626Z</time></trkpt><trkpt lat="42.0388726" lon="13.6783809"><ele>880.5</ele><time>2026-05-02T12:45:01.627Z</time></trkpt><trkpt lat="42.0388268" lon="13.6783015"><ele>877.6666666666667</ele><time>2026-05-02T12:45:02.627Z</time></trkpt><trkpt lat="42.0387795" lon="13.6782203"><ele>874.8333333333334</ele><time>2026-05-02T12:45:03.626Z</time></trkpt><trkpt lat="42.0387296" lon="13.6781372"><ele>872.0</ele><time>2026-05-02T12:45:04.626Z</time></trkpt><trkpt lat="42.0386793" lon="13.6780549"><ele>872.0000000000001</ele><time>2026-05-02T12:45:05.626Z</time></trkpt><trkpt lat="42.0386305" lon="13.6779717"><ele>872.0</ele><time>2026-05-02T12:45:06.626Z</time></trkpt><trkpt lat="42.0385796" lon="13.677888"><ele>872.0</ele><time>2026-05-02T12:45:07.626Z</time></trkpt><trkpt lat="42.038528" lon="13.6778067"><ele>872.0</ele><time>2026-05-02T12:45:08.626Z</time></trkpt><trkpt lat="42.0384763" lon="13.6777238"><ele>872.0000000000001</ele><time>2026-05-02T12:45:09.626Z</time></trkpt><trkpt lat="42.0384272" lon="13.6776362"><ele>872.0</ele><time>2026-05-02T12:45:10.627Z</time></trkpt><trkpt lat="42.0383751" lon="13.6775522"><ele>870.3333333333334</ele><time>2026-05-02T12:45:11.627Z</time></trkpt><trkpt lat="42.0383253" lon="13.6774656"><ele>868.6666666666667</ele><time>2026-05-02T12:45:12.626Z</time></trkpt><trkpt lat="42.0382752" lon="13.6773822"><ele>867.0</ele><time>2026-05-02T12:45:13.626Z</time></trkpt><trkpt lat="42.0382173" lon="13.6773071"><ele>865.3333333333333</ele><time>2026-05-02T12:45:14.627Z</time></trkpt><trkpt lat="42.0381511" lon="13.6772361"><ele>863.6666666666666</ele><time>2026-05-02T12:45:15.626Z</time></trkpt><trkpt lat="42.0380859" lon="13.6771703"><ele>862.0</ele><time>2026-05-02T12:45:16.626Z</time></trkpt><trkpt lat="42.0380264" lon="13.6771048"><ele>862.0</ele><time>2026-05-02T12:45:17.626Z</time></trkpt><trkpt lat="42.037971" lon="13.6770336"><ele>862.0</ele><time>2026-05-02T12:45:18.626Z</time></trkpt><trkpt lat="42.0379153" lon="13.6769647"><ele>862.0</ele><time>2026-05-02T12:45:19.627Z</time></trkpt><trkpt lat="42.0378601" lon="13.6768993"><ele>862.0</ele><time>2026-05-02T12:45:20.626Z</time></trkpt><trkpt lat="42.0378071" lon="13.6768311"><ele>862.0</ele><time>2026-05-02T12:45:21.626Z</time></trkpt><trkpt lat="42.0377497" lon="13.676767"><ele>862.0</ele><time>2026-05-02T12:45:22.626Z</time></trkpt><trkpt lat="42.0376941" lon="13.6767016"><ele>862.0</ele><time>2026-05-02T12:45:23.626Z</time></trkpt><trkpt lat="42.0376443" lon="13.6766266"><ele>860.1428571428572</ele><time>2026-05-02T12:45:24.626Z</time></trkpt><trkpt lat="42.0375891" lon="13.6765572"><ele>858.2857142857142</ele><time>2026-05-02T12:45:25.626Z</time></trkpt><trkpt lat="42.0375308" lon="13.6764971"><ele>856.4285714285714</ele><time>2026-05-02T12:45:26.627Z</time></trkpt><trkpt lat="42.0374747" lon="13.6764376"><ele>854.5714285714287</ele><time>2026-05-02T12:45:27.626Z</time></trkpt><trkpt lat="42.0374225" lon="13.6763667"><ele>852.7142857142858</ele><time>2026-05-02T12:45:28.626Z</time></trkpt><trkpt lat="42.0373777" lon="13.676284"><ele>850.8571428571429</ele><time>2026-05-02T12:45:29.626Z</time></trkpt><trkpt lat="42.0373357" lon="13.6762004"><ele>849.0</ele><time>2026-05-02T12:45:30.626Z</time></trkpt><trkpt lat="42.0372913" lon="13.6761254"><ele>847.2857142857143</ele><time>2026-05-02T12:45:31.627Z</time></trkpt><trkpt lat="42.0372371" lon="13.6760561"><ele>845.5714285714286</ele><time>2026-05-02T12:45:32.626Z</time></trkpt><trkpt lat="42.0371767" lon="13.6759982"><ele>843.8571428571429</ele><time>2026-05-02T12:45:33.626Z</time></trkpt><trkpt lat="42.0371154" lon="13.6759436"><ele>842.1428571428571</ele><time>2026-05-02T12:45:34.627Z</time></trkpt><trkpt lat="42.0370589" lon="13.6758797"><ele>840.4285714285714</ele><time>2026-05-02T12:45:35.626Z</time></trkpt><trkpt lat="42.0370012" lon="13.6758209"><ele>838.7142857142858</ele><time>2026-05-02T12:45:36.626Z</time></trkpt><trkpt lat="42.0369443" lon="13.6757628"><ele>837.0</ele><time>2026-05-02T12:45:37.626Z</time></trkpt><trkpt lat="42.0368868" lon="13.6757081"><ele>837.0</ele><time>2026-05-02T12:45:38.627Z</time></trkpt><trkpt lat="42.0368338" lon="13.6756602"><ele>837.0</ele><time>2026-05-02T12:45:39.627Z</time></trkpt><trkpt lat="42.0367335" lon="13.6755736"><ele>837.0</ele><time>2026-05-02T12:45:41.626Z</time></trkpt><trkpt lat="42.0366777" lon="13.6755274"><ele>837.0</ele><time>2026-05-02T12:45:42.626Z</time></trkpt><trkpt lat="42.0366213" lon="13.6754852"><ele>837.0</ele><time>2026-05-02T12:45:43.627Z</time></trkpt><trkpt lat="42.0365657" lon="13.6754442"><ele>837.0</ele><time>2026-05-02T12:45:44.626Z</time></trkpt><trkpt lat="42.036509" lon="13.6754005"><ele>837.0</ele><time>2026-05-02T12:45:45.627Z</time></trkpt><trkpt lat="42.0364535" lon="13.6753554"><ele>837.2</ele><time>2026-05-02T12:45:46.626Z</time></trkpt><trkpt lat="42.0363589" lon="13.6752711"><ele>837.4000000000001</ele><time>2026-05-02T12:45:48.626Z</time></trkpt><trkpt lat="42.0362768" lon="13.6752095"><ele>837.5999999999999</ele><time>2026-05-02T12:45:50.626Z</time></trkpt><trkpt lat="42.0361986" lon="13.6752415"><ele>837.8</ele><time>2026-05-02T12:48:24.615Z</time></trkpt><trkpt lat="42.0360792" lon="13.6752813"><ele>838.0</ele><time>2026-05-02T12:48:26.614Z</time></trkpt><trkpt lat="42.0360074" lon="13.6752665"><ele>836.4999999999999</ele><time>2026-05-02T12:48:27.614Z</time></trkpt><trkpt lat="42.0359289" lon="13.6752462"><ele>835.0</ele><time>2026-05-02T12:48:28.614Z</time></trkpt><trkpt lat="42.0358494" lon="13.6752324"><ele>833.5</ele><time>2026-05-02T12:48:29.614Z</time></trkpt><trkpt lat="42.0357704" lon="13.6752177"><ele>832.0</ele><time>2026-05-02T12:48:30.614Z</time></trkpt><trkpt lat="42.0356975" lon="13.6751977"><ele>830.4999999999999</ele><time>2026-05-02T12:48:31.614Z</time></trkpt><trkpt lat="42.0355984" lon="13.6751465"><ele>829.0</ele><time>2026-05-02T12:48:33.614Z</time></trkpt><trkpt lat="42.0355191" lon="13.6750331"><ele>828.4000000000001</ele><time>2026-05-02T12:48:35.614Z</time></trkpt><trkpt lat="42.0354819" lon="13.6749598"><ele>827.8</ele><time>2026-05-02T12:48:36.614Z</time></trkpt><trkpt lat="42.0354428" lon="13.6748844"><ele>827.2</ele><time>2026-05-02T12:48:37.615Z</time></trkpt><trkpt lat="42.0353623" lon="13.6747759"><ele>826.5999999999999</ele><time>2026-05-02T12:48:39.614Z</time></trkpt><trkpt lat="42.0352633" lon="13.6747259"><ele>826.0</ele><time>2026-05-02T12:48:41.614Z</time></trkpt><trkpt lat="42.0351638" lon="13.6747002"><ele>825.9999999999999</ele><time>2026-05-02T12:48:43.614Z</time></trkpt><trkpt lat="42.035081" lon="13.6746865"><ele>826.0</ele><time>2026-05-02T12:48:45.614Z</time></trkpt><trkpt lat="42.0349943" lon="13.6746596"><ele>826.0</ele><time>2026-05-02T12:48:47.614Z</time></trkpt><trkpt lat="42.0349192" lon="13.6746183"><ele>826.0</ele><time>2026-05-02T12:48:49.614Z</time></trkpt><trkpt lat="42.0348392" lon="13.6745647"><ele>825.9999999999999</ele><time>2026-05-02T12:48:52.614Z</time></trkpt><trkpt lat="42.0347779" lon="13.674487"><ele>826.0</ele><time>2026-05-02T12:48:55.614Z</time></trkpt><trkpt lat="42.0347294" lon="13.6744056"><ele>822.8333333333333</ele><time>2026-05-02T12:48:58.615Z</time></trkpt><trkpt lat="42.0347217" lon="13.6743039"><ele>819.6666666666666</ele><time>2026-05-02T12:49:00.614Z</time></trkpt><trkpt lat="42.0347122" lon="13.6741484"><ele>816.5</ele><time>2026-05-02T12:49:02.614Z</time></trkpt><trkpt lat="42.0347049" lon="13.6740287"><ele>813.3333333333333</ele><time>2026-05-02T12:49:04.614Z</time></trkpt><trkpt lat="42.0346949" lon="13.6739258"><ele>810.1666666666666</ele><time>2026-05-02T12:49:06.614Z</time></trkpt><trkpt lat="42.034695" lon="13.6738108"><ele>807.0</ele><time>2026-05-02T12:49:08.614Z</time></trkpt><trkpt lat="42.0347149" lon="13.6737017"><ele>808.5</ele><time>2026-05-02T12:49:10.614Z</time></trkpt><trkpt lat="42.0347782" lon="13.6735501"><ele>810.0</ele><time>2026-05-02T12:49:13.614Z</time></trkpt><trkpt lat="42.0348018" lon="13.6734596"><ele>811.5</ele><time>2026-05-02T12:49:14.614Z</time></trkpt><trkpt lat="42.0348239" lon="13.673371"><ele>813.0</ele><time>2026-05-02T12:49:15.615Z</time></trkpt><trkpt lat="42.0348438" lon="13.6732825"><ele>814.5</ele><time>2026-05-02T12:49:16.615Z</time></trkpt><trkpt lat="42.0348665" lon="13.6731902"><ele>816.0</ele><time>2026-05-02T12:49:17.615Z</time></trkpt><trkpt lat="42.0348944" lon="13.6730978"><ele>816.0</ele><time>2026-05-02T12:49:18.614Z</time></trkpt><trkpt lat="42.0349301" lon="13.6729981"><ele>816.0</ele><time>2026-05-02T12:49:19.614Z</time></trkpt><trkpt lat="42.0349721" lon="13.6728913"><ele>816.0</ele><time>2026-05-02T12:49:20.614Z</time></trkpt><trkpt lat="42.0350153" lon="13.6727898"><ele>816.0</ele><time>2026-05-02T12:49:21.614Z</time></trkpt><trkpt lat="42.0350504" lon="13.672704"><ele>816.0</ele><time>2026-05-02T12:49:22.614Z</time></trkpt><trkpt lat="42.0350936" lon="13.672584"><ele>816.0</ele><time>2026-05-02T12:49:24.615Z</time></trkpt><trkpt lat="42.0351387" lon="13.6724825"><ele>818.8</ele><time>2026-05-02T12:49:26.614Z</time></trkpt><trkpt lat="42.0351683" lon="13.6723955"><ele>821.5999999999999</ele><time>2026-05-02T12:49:28.614Z</time></trkpt><trkpt lat="42.0352031" lon="13.6722975"><ele>824.4</ele><time>2026-05-02T12:49:30.614Z</time></trkpt><trkpt lat="42.0352528" lon="13.6721644"><ele>827.2</ele><time>2026-05-02T12:49:32.614Z</time></trkpt><trkpt lat="42.0353056" lon="13.6720155"><ele>830.0</ele><time>2026-05-02T12:49:34.614Z</time></trkpt><trkpt lat="42.0353254" lon="13.6719317"><ele>830.8333333333334</ele><time>2026-05-02T12:49:35.614Z</time></trkpt><trkpt lat="42.0353444" lon="13.6718422"><ele>831.6666666666667</ele><time>2026-05-02T12:49:36.615Z</time></trkpt><trkpt lat="42.0353664" lon="13.6717465"><ele>832.5</ele><time>2026-05-02T12:49:37.615Z</time></trkpt><trkpt lat="42.0353904" lon="13.6716401"><ele>833.3333333333333</ele><time>2026-05-02T12:49:38.615Z</time></trkpt><trkpt lat="42.0354188" lon="13.6715262"><ele>834.1666666666666</ele><time>2026-05-02T12:49:39.614Z</time></trkpt><trkpt lat="42.0354484" lon="13.6714131"><ele>835.0</ele><time>2026-05-02T12:49:40.614Z</time></trkpt><trkpt lat="42.0354766" lon="13.6712963"><ele>835.0</ele><time>2026-05-02T12:49:41.614Z</time></trkpt><trkpt lat="42.0355052" lon="13.6711719"><ele>835.0</ele><time>2026-05-02T12:49:42.614Z</time></trkpt><trkpt lat="42.035533" lon="13.6710388"><ele>835.0</ele><time>2026-05-02T12:49:43.615Z</time></trkpt><trkpt lat="42.0355562" lon="13.6708957"><ele>835.0</ele><time>2026-05-02T12:49:44.614Z</time></trkpt><trkpt lat="42.0355736" lon="13.6707495"><ele>835.0</ele><time>2026-05-02T12:49:45.614Z</time></trkpt><trkpt lat="42.0355896" lon="13.6706108"><ele>835.9999999999999</ele><time>2026-05-02T12:49:46.614Z</time></trkpt><trkpt lat="42.035604" lon="13.6704812"><ele>837.0</ele><time>2026-05-02T12:49:47.615Z</time></trkpt><trkpt lat="42.0356163" lon="13.6703583"><ele>838.0</ele><time>2026-05-02T12:49:48.614Z</time></trkpt><trkpt lat="42.0356272" lon="13.6702438"><ele>839.0</ele><time>2026-05-02T12:49:49.614Z</time></trkpt><trkpt lat="42.0356307" lon="13.6701332"><ele>839.9999999999999</ele><time>2026-05-02T12:49:50.614Z</time></trkpt><trkpt lat="42.0356255" lon="13.6700208"><ele>841.0</ele><time>2026-05-02T12:49:51.614Z</time></trkpt><trkpt lat="42.035612" lon="13.6699061"><ele>841.3333333333333</ele><time>2026-05-02T12:49:52.614Z</time></trkpt><trkpt lat="42.0355936" lon="13.6697914"><ele>841.6666666666666</ele><time>2026-05-02T12:49:53.614Z</time></trkpt><trkpt lat="42.0355727" lon="13.6696799"><ele>842.0</ele><time>2026-05-02T12:49:54.615Z</time></trkpt><trkpt lat="42.0355586" lon="13.6695745"><ele>842.3333333333333</ele><time>2026-05-02T12:49:55.614Z</time></trkpt><trkpt lat="42.0355537" lon="13.6694777"><ele>842.6666666666666</ele><time>2026-05-02T12:49:56.614Z</time></trkpt><trkpt lat="42.0355626" lon="13.6693916"><ele>843.0</ele><time>2026-05-02T12:49:57.615Z</time></trkpt><trkpt lat="42.0356216" lon="13.6692538"><ele>843.1666666666666</ele><time>2026-05-02T12:49:59.614Z</time></trkpt><trkpt lat="42.0356731" lon="13.6691885"><ele>843.3333333333333</ele><time>2026-05-02T12:50:00.614Z</time></trkpt><trkpt lat="42.0357352" lon="13.6691246"><ele>843.5</ele><time>2026-05-02T12:50:01.614Z</time></trkpt><trkpt lat="42.0357991" lon="13.669063"><ele>843.6666666666666</ele><time>2026-05-02T12:50:02.614Z</time></trkpt><trkpt lat="42.0358584" lon="13.6689998"><ele>843.8333333333333</ele><time>2026-05-02T12:50:03.614Z</time></trkpt><trkpt lat="42.0359154" lon="13.6689371"><ele>844.0</ele><time>2026-05-02T12:50:04.614Z</time></trkpt><trkpt lat="42.0359743" lon="13.6688778"><ele>843.8333333333333</ele><time>2026-05-02T12:50:05.614Z</time></trkpt><trkpt lat="42.0360352" lon="13.6688207"><ele>843.6666666666666</ele><time>2026-05-02T12:50:06.614Z</time></trkpt><trkpt lat="42.0360981" lon="13.6687707"><ele>843.5</ele><time>2026-05-02T12:50:07.614Z</time></trkpt><trkpt lat="42.0361614" lon="13.668727"><ele>843.3333333333333</ele><time>2026-05-02T12:50:08.614Z</time></trkpt><trkpt lat="42.0362232" lon="13.6686873"><ele>843.1666666666666</ele><time>2026-05-02T12:50:09.614Z</time></trkpt><trkpt lat="42.03631" lon="13.6686251"><ele>843.0</ele><time>2026-05-02T12:50:11.614Z</time></trkpt><trkpt lat="42.0363992" lon="13.6686006"><ele>842.5</ele><time>2026-05-02T12:50:18.614Z</time></trkpt><trkpt lat="42.0365373" lon="13.6686498"><ele>842.0</ele><time>2026-05-02T12:50:20.614Z</time></trkpt><trkpt lat="42.0366421" lon="13.6686883"><ele>841.5</ele><time>2026-05-02T12:50:21.614Z</time></trkpt><trkpt lat="42.0367729" lon="13.6687324"><ele>841.0</ele><time>2026-05-02T12:50:22.614Z</time></trkpt><trkpt lat="42.0369129" lon="13.6687857"><ele>842.4999999999999</ele><time>2026-05-02T12:50:23.614Z</time></trkpt><trkpt lat="42.0370343" lon="13.6688322"><ele>844.0</ele><time>2026-05-02T12:50:24.614Z</time></trkpt><trkpt lat="42.0371286" lon="13.6688639"><ele>845.5</ele><time>2026-05-02T12:50:25.614Z</time></trkpt><trkpt lat="42.0371919" lon="13.6688837"><ele>847.0</ele><time>2026-05-02T12:50:27.615Z</time></trkpt><trkpt lat="42.0372215" lon="13.6688086"><ele>848.4999999999999</ele><time>2026-05-02T12:50:30.614Z</time></trkpt><trkpt lat="42.0372443" lon="13.6687198"><ele>850.0</ele><time>2026-05-02T12:50:33.615Z</time></trkpt><trkpt lat="42.0372516" lon="13.6686257"><ele>850.2</ele><time>2026-05-02T12:50:35.614Z</time></trkpt><trkpt lat="42.0372675" lon="13.6685157"><ele>850.4</ele><time>2026-05-02T12:50:37.614Z</time></trkpt><trkpt lat="42.0373009" lon="13.6683883"><ele>850.5999999999999</ele><time>2026-05-02T12:50:39.614Z</time></trkpt><trkpt lat="42.0373295" lon="13.6682488"><ele>850.8</ele><time>2026-05-02T12:50:41.614Z</time></trkpt><trkpt lat="42.0373595" lon="13.6680973"><ele>851.0</ele><time>2026-05-02T12:50:43.614Z</time></trkpt><trkpt lat="42.037392" lon="13.6679366"><ele>851.0</ele><time>2026-05-02T12:50:45.614Z</time></trkpt><trkpt lat="42.0374096" lon="13.6678474"><ele>851.0</ele><time>2026-05-02T12:50:46.614Z</time></trkpt><trkpt lat="42.0374251" lon="13.6677538"><ele>851.0</ele><time>2026-05-02T12:50:47.614Z</time></trkpt><trkpt lat="42.0374372" lon="13.667668"><ele>851.0</ele><time>2026-05-02T12:50:48.614Z</time></trkpt><trkpt lat="42.0374467" lon="13.6675835"><ele>851.0</ele><time>2026-05-02T12:50:49.615Z</time></trkpt><trkpt lat="42.0374544" lon="13.667494"><ele>851.0</ele><time>2026-05-02T12:50:50.614Z</time></trkpt><trkpt lat="42.0374633" lon="13.6673993"><ele>851.0</ele><time>2026-05-02T12:50:51.614Z</time></trkpt><trkpt lat="42.0374756" lon="13.6672963"><ele>851.3333333333334</ele><time>2026-05-02T12:50:52.614Z</time></trkpt><trkpt lat="42.0374957" lon="13.6671944"><ele>851.6666666666667</ele><time>2026-05-02T12:50:53.614Z</time></trkpt><trkpt lat="42.0375244" lon="13.6670988"><ele>852.0</ele><time>2026-05-02T12:50:54.615Z</time></trkpt><trkpt lat="42.0375549" lon="13.667004"><ele>852.3333333333333</ele><time>2026-05-02T12:50:55.615Z</time></trkpt><trkpt lat="42.0375917" lon="13.666912"><ele>852.6666666666666</ele><time>2026-05-02T12:50:56.615Z</time></trkpt><trkpt lat="42.0376375" lon="13.6668279"><ele>853.0</ele><time>2026-05-02T12:50:57.614Z</time></trkpt><trkpt lat="42.0376891" lon="13.6667443"><ele>853.0</ele><time>2026-05-02T12:50:58.614Z</time></trkpt><trkpt lat="42.0377432" lon="13.6666542"><ele>853.0</ele><time>2026-05-02T12:50:59.615Z</time></trkpt><trkpt lat="42.0377921" lon="13.6665493"><ele>853.0</ele><time>2026-05-02T12:51:00.614Z</time></trkpt><trkpt lat="42.0378321" lon="13.666425"><ele>853.0</ele><time>2026-05-02T12:51:01.615Z</time></trkpt><trkpt lat="42.0378684" lon="13.6662895"><ele>853.0</ele><time>2026-05-02T12:51:02.615Z</time></trkpt><trkpt lat="42.0379025" lon="13.6661524"><ele>853.0</ele><time>2026-05-02T12:51:03.614Z</time></trkpt><trkpt lat="42.0379319" lon="13.6660201"><ele>853.0</ele><time>2026-05-02T12:51:04.614Z</time></trkpt><trkpt lat="42.0379563" lon="13.6658949"><ele>853.0</ele><time>2026-05-02T12:51:05.614Z</time></trkpt><trkpt lat="42.0379791" lon="13.6657623"><ele>853.0</ele><time>2026-05-02T12:51:06.614Z</time></trkpt><trkpt lat="42.0379994" lon="13.6656196"><ele>853.0</ele><time>2026-05-02T12:51:07.615Z</time></trkpt><trkpt lat="42.0380184" lon="13.6654743"><ele>853.0</ele><time>2026-05-02T12:51:08.614Z</time></trkpt><trkpt lat="42.0380393" lon="13.6653298"><ele>853.0</ele><time>2026-05-02T12:51:09.614Z</time></trkpt><trkpt lat="42.038065" lon="13.6651876"><ele>853.0</ele><time>2026-05-02T12:51:10.614Z</time></trkpt><trkpt lat="42.0380932" lon="13.6650468"><ele>853.0</ele><time>2026-05-02T12:51:11.615Z</time></trkpt><trkpt lat="42.0381244" lon="13.6649004"><ele>853.0</ele><time>2026-05-02T12:51:12.614Z</time></trkpt><trkpt lat="42.0381598" lon="13.6647486"><ele>853.25</ele><time>2026-05-02T12:51:13.615Z</time></trkpt><trkpt lat="42.0381977" lon="13.6645938"><ele>853.5</ele><time>2026-05-02T12:51:14.614Z</time></trkpt><trkpt lat="42.0382369" lon="13.6644286"><ele>853.75</ele><time>2026-05-02T12:51:15.614Z</time></trkpt><trkpt lat="42.038277" lon="13.6642585"><ele>854.0</ele><time>2026-05-02T12:51:16.614Z</time></trkpt><trkpt lat="42.0383132" lon="13.664096"><ele>854.4000000000001</ele><time>2026-05-02T12:51:17.614Z</time></trkpt><trkpt lat="42.0383393" lon="13.663946"><ele>854.8000000000001</ele><time>2026-05-02T12:51:18.614Z</time></trkpt><trkpt lat="42.0383586" lon="13.6638026"><ele>855.1999999999999</ele><time>2026-05-02T12:51:19.614Z</time></trkpt><trkpt lat="42.0383795" lon="13.6636626"><ele>855.5999999999999</ele><time>2026-05-02T12:51:20.615Z</time></trkpt><trkpt lat="42.0383981" lon="13.6635269"><ele>856.0</ele><time>2026-05-02T12:51:21.614Z</time></trkpt><trkpt lat="42.0384179" lon="13.6633915"><ele>856.1999999999999</ele><time>2026-05-02T12:51:22.614Z</time></trkpt><trkpt lat="42.038451" lon="13.6632566"><ele>856.3999999999999</ele><time>2026-05-02T12:51:23.614Z</time></trkpt><trkpt lat="42.0384918" lon="13.6631236"><ele>856.6</ele><time>2026-05-02T12:51:24.614Z</time></trkpt><trkpt lat="42.0385279" lon="13.6630032"><ele>856.8</ele><time>2026-05-02T12:51:25.615Z</time></trkpt><trkpt lat="42.0385651" lon="13.6628872"><ele>857.0</ele><time>2026-05-02T12:51:26.614Z</time></trkpt><trkpt lat="42.0386094" lon="13.662765"><ele>857.6</ele><time>2026-05-02T12:51:27.614Z</time></trkpt><trkpt lat="42.0386525" lon="13.6626371"><ele>858.2</ele><time>2026-05-02T12:51:28.615Z</time></trkpt><trkpt lat="42.0386915" lon="13.6625022"><ele>858.8</ele><time>2026-05-02T12:51:29.614Z</time></trkpt><trkpt lat="42.0387251" lon="13.6623609"><ele>859.4</ele><time>2026-05-02T12:51:30.614Z</time></trkpt><trkpt lat="42.0387578" lon="13.662224"><ele>860.0</ele><time>2026-05-02T12:51:31.614Z</time></trkpt><trkpt lat="42.0387937" lon="13.6620891"><ele>860.0</ele><time>2026-05-02T12:51:32.614Z</time></trkpt><trkpt lat="42.0388286" lon="13.6619526"><ele>860.0</ele><time>2026-05-02T12:51:33.614Z</time></trkpt><trkpt lat="42.0388642" lon="13.6618238"><ele>860.0</ele><time>2026-05-02T12:51:34.614Z</time></trkpt><trkpt lat="42.0389053" lon="13.6616915"><ele>860.0</ele><time>2026-05-02T12:51:35.615Z</time></trkpt><trkpt lat="42.0389537" lon="13.6615628"><ele>860.0</ele><time>2026-05-02T12:51:36.614Z</time></trkpt><trkpt lat="42.0390025" lon="13.6614392"><ele>859.8</ele><time>2026-05-02T12:51:37.615Z</time></trkpt><trkpt lat="42.0390483" lon="13.6613124"><ele>859.6</ele><time>2026-05-02T12:51:38.614Z</time></trkpt><trkpt lat="42.0390953" lon="13.6611841"><ele>859.4000000000001</ele><time>2026-05-02T12:51:39.614Z</time></trkpt><trkpt lat="42.0391418" lon="13.6610555"><ele>859.2</ele><time>2026-05-02T12:51:40.614Z</time></trkpt><trkpt lat="42.0391849" lon="13.6609265"><ele>859.0</ele><time>2026-05-02T12:51:41.614Z</time></trkpt><trkpt lat="42.0392256" lon="13.660795"><ele>859.0</ele><time>2026-05-02T12:51:42.615Z</time></trkpt><trkpt lat="42.0392696" lon="13.6606554"><ele>859.0</ele><time>2026-05-02T12:51:43.615Z</time></trkpt><trkpt lat="42.0393179" lon="13.6605056"><ele>859.0</ele><time>2026-05-02T12:51:44.614Z</time></trkpt><trkpt lat="42.0393639" lon="13.6603472"><ele>859.0</ele><time>2026-05-02T12:51:45.614Z</time></trkpt><trkpt lat="42.0394068" lon="13.6601827"><ele>859.0</ele><time>2026-05-02T12:51:46.615Z</time></trkpt><trkpt lat="42.0394526" lon="13.660014"><ele>859.0</ele><time>2026-05-02T12:51:47.614Z</time></trkpt><trkpt lat="42.0395047" lon="13.6598427"><ele>859.0</ele><time>2026-05-02T12:51:48.615Z</time></trkpt><trkpt lat="42.0395627" lon="13.6596744"><ele>859.0</ele><time>2026-05-02T12:51:49.615Z</time></trkpt><trkpt lat="42.0396198" lon="13.6595206"><ele>859.2</ele><time>2026-05-02T12:51:50.615Z</time></trkpt><trkpt lat="42.0396758" lon="13.6593813"><ele>859.4000000000001</ele><time>2026-05-02T12:51:51.615Z</time></trkpt><trkpt lat="42.0397334" lon="13.6592469"><ele>859.6</ele><time>2026-05-02T12:51:52.614Z</time></trkpt><trkpt lat="42.0397902" lon="13.6591183"><ele>859.8</ele><time>2026-05-02T12:51:53.614Z</time></trkpt><trkpt lat="42.0398445" lon="13.659002"><ele>860.0</ele><time>2026-05-02T12:51:54.614Z</time></trkpt><trkpt lat="42.0398937" lon="13.6589043"><ele>860.0</ele><time>2026-05-02T12:51:55.614Z</time></trkpt><trkpt lat="42.0399388" lon="13.6588307"><ele>860.0</ele><time>2026-05-02T12:51:56.614Z</time></trkpt><trkpt lat="42.0400224" lon="13.6587349"><ele>860.0</ele><time>2026-05-02T12:51:58.614Z</time></trkpt><trkpt lat="42.0401097" lon="13.6586426"><ele>860.0</ele><time>2026-05-02T12:52:00.614Z</time></trkpt><trkpt lat="42.040201" lon="13.6585586"><ele>860.0</ele><time>2026-05-02T12:52:02.614Z</time></trkpt><trkpt lat="42.0403051" lon="13.6584803"><ele>859.4</ele><time>2026-05-02T12:52:04.614Z</time></trkpt><trkpt lat="42.0404197" lon="13.6583959"><ele>858.8</ele><time>2026-05-02T12:52:06.615Z</time></trkpt><trkpt lat="42.0404849" lon="13.6583456"><ele>858.2</ele><time>2026-05-02T12:52:07.615Z</time></trkpt><trkpt lat="42.0405545" lon="13.6582949"><ele>857.6</ele><time>2026-05-02T12:52:08.614Z</time></trkpt><trkpt lat="42.0406339" lon="13.6582429"><ele>857.0</ele><time>2026-05-02T12:52:09.615Z</time></trkpt><trkpt lat="42.040727" lon="13.6581788"><ele>857.75</ele><time>2026-05-02T12:52:10.614Z</time></trkpt><trkpt lat="42.0408288" lon="13.6581069"><ele>858.5</ele><time>2026-05-02T12:52:11.614Z</time></trkpt><trkpt lat="42.0409306" lon="13.6580354"><ele>859.25</ele><time>2026-05-02T12:52:12.614Z</time></trkpt><trkpt lat="42.0410343" lon="13.657962"><ele>860.0</ele><time>2026-05-02T12:52:13.614Z</time></trkpt><trkpt lat="42.0411385" lon="13.6578861"><ele>860.0</ele><time>2026-05-02T12:52:14.614Z</time></trkpt><trkpt lat="42.0412384" lon="13.6578141"><ele>860.0</ele><time>2026-05-02T12:52:15.614Z</time></trkpt><trkpt lat="42.0413372" lon="13.6577457"><ele>860.0</ele><time>2026-05-02T12:52:16.615Z</time></trkpt><trkpt lat="42.041441" lon="13.6576772"><ele>860.0</ele><time>2026-05-02T12:52:17.615Z</time></trkpt><trkpt lat="42.0415516" lon="13.6576098"><ele>860.0</ele><time>2026-05-02T12:52:18.615Z</time></trkpt><trkpt lat="42.0416706" lon="13.6575455"><ele>860.0</ele><time>2026-05-02T12:52:19.614Z</time></trkpt><trkpt lat="42.0417953" lon="13.657485"><ele>860.0</ele><time>2026-05-02T12:52:20.614Z</time></trkpt><trkpt lat="42.0419191" lon="13.6574257"><ele>860.0</ele><time>2026-05-02T12:52:21.615Z</time></trkpt><trkpt lat="42.0420335" lon="13.6573685"><ele>860.0000000000001</ele><time>2026-05-02T12:52:22.614Z</time></trkpt><trkpt lat="42.0421367" lon="13.6573159"><ele>860.0</ele><time>2026-05-02T12:52:23.614Z</time></trkpt><trkpt lat="42.0422206" lon="13.6572738"><ele>860.0</ele><time>2026-05-02T12:52:24.615Z</time></trkpt><trkpt lat="42.0422819" lon="13.6572434"><ele>860.0</ele><time>2026-05-02T12:52:25.614Z</time></trkpt><trkpt lat="42.0423637" lon="13.6572115"><ele>860.0000000000001</ele><time>2026-05-02T12:52:27.614Z</time></trkpt><trkpt lat="42.0424495" lon="13.6572509"><ele>860.0</ele><time>2026-05-02T12:52:30.614Z</time></trkpt><trkpt lat="42.0424942" lon="13.6573419"><ele>859.8</ele><time>2026-05-02T12:52:32.614Z</time></trkpt><trkpt lat="42.0425238" lon="13.6574233"><ele>859.6</ele><time>2026-05-02T12:52:35.614Z</time></trkpt><trkpt lat="42.0425435" lon="13.6575275"><ele>859.4000000000001</ele><time>2026-05-02T12:55:50.614Z</time></trkpt><trkpt lat="42.04256" lon="13.657644"><ele>859.2</ele><time>2026-05-02T12:55:52.614Z</time></trkpt><trkpt lat="42.0425948" lon="13.6577902"><ele>859.0</ele><time>2026-05-02T12:55:54.614Z</time></trkpt><trkpt lat="42.0426396" lon="13.6579519"><ele>858.9999999999999</ele><time>2026-05-02T12:55:56.614Z</time></trkpt><trkpt lat="42.0426637" lon="13.6580514"><ele>859.0</ele><time>2026-05-02T12:55:57.614Z</time></trkpt><trkpt lat="42.0426825" lon="13.6581404"><ele>859.0</ele><time>2026-05-02T12:55:58.614Z</time></trkpt><trkpt lat="42.0427093" lon="13.6582949"><ele>859.0</ele><time>2026-05-02T12:56:00.614Z</time></trkpt><trkpt lat="42.0427319" lon="13.6583871"><ele>858.9999999999999</ele><time>2026-05-02T12:56:01.614Z</time></trkpt><trkpt lat="42.0427548" lon="13.6584937"><ele>859.0</ele><time>2026-05-02T12:56:02.615Z</time></trkpt><trkpt lat="42.042777" lon="13.6586044"><ele>859.6</ele><time>2026-05-02T12:56:03.614Z</time></trkpt><trkpt lat="42.0428109" lon="13.6587264"><ele>860.2</ele><time>2026-05-02T12:56:04.615Z</time></trkpt><trkpt lat="42.0428474" lon="13.6588392"><ele>860.8000000000001</ele><time>2026-05-02T12:56:05.615Z</time></trkpt><trkpt lat="42.0428877" lon="13.6589549"><ele>861.4000000000001</ele><time>2026-05-02T12:56:06.614Z</time></trkpt><trkpt lat="42.0429346" lon="13.6590605"><ele>862.0</ele><time>2026-05-02T12:56:07.615Z</time></trkpt><trkpt lat="42.0429872" lon="13.6591661"><ele>861.9999999999999</ele><time>2026-05-02T12:56:08.614Z</time></trkpt><trkpt lat="42.0430377" lon="13.659259"><ele>862.0</ele><time>2026-05-02T12:56:09.614Z</time></trkpt><trkpt lat="42.0430903" lon="13.6593415"><ele>862.0</ele><time>2026-05-02T12:56:10.614Z</time></trkpt><trkpt lat="42.0431379" lon="13.6594045"><ele>862.0</ele><time>2026-05-02T12:56:11.614Z</time></trkpt><trkpt lat="42.0431955" lon="13.6594656"><ele>861.9999999999999</ele><time>2026-05-02T12:56:13.614Z</time></trkpt><trkpt lat="42.0431091" lon="13.6593762"><ele>862.0</ele><time>2026-05-02T12:56:32.614Z</time></trkpt><trkpt lat="42.0430583" lon="13.6592936"><ele>862.0</ele><time>2026-05-02T12:56:33.615Z</time></trkpt><trkpt lat="42.0430092" lon="13.6592059"><ele>862.0</ele><time>2026-05-02T12:56:34.614Z</time></trkpt><trkpt lat="42.0429637" lon="13.6591112"><ele>862.0</ele><time>2026-05-02T12:56:35.614Z</time></trkpt><trkpt lat="42.0428667" lon="13.6588889"><ele>862.0</ele><time>2026-05-02T12:56:37.614Z</time></trkpt><trkpt lat="42.0428288" lon="13.6587681"><ele>861.9999999999999</ele><time>2026-05-02T12:56:38.615Z</time></trkpt><trkpt lat="42.0427976" lon="13.6586538"><ele>862.0</ele><time>2026-05-02T12:56:39.614Z</time></trkpt><trkpt lat="42.0427722" lon="13.6585425"><ele>862.0</ele><time>2026-05-02T12:56:40.614Z</time></trkpt><trkpt lat="42.04275" lon="13.6584382"><ele>862.0</ele><time>2026-05-02T12:56:41.614Z</time></trkpt><trkpt lat="42.0427321" lon="13.6583495"><ele>861.9999999999999</ele><time>2026-05-02T12:56:42.614Z</time></trkpt><trkpt lat="42.0427057" lon="13.6582234"><ele>862.0</ele><time>2026-05-02T12:56:44.615Z</time></trkpt><trkpt lat="42.0427771" lon="13.6581471"><ele>861.4000000000001</ele><time>2026-05-02T12:56:50.615Z</time></trkpt><trkpt lat="42.0428464" lon="13.6581154"><ele>860.8000000000001</ele><time>2026-05-02T12:56:51.614Z</time></trkpt><trkpt lat="42.0429384" lon="13.6580561"><ele>860.2</ele><time>2026-05-02T12:56:52.614Z</time></trkpt><trkpt lat="42.0430293" lon="13.6579967"><ele>859.6</ele><time>2026-05-02T12:56:53.614Z</time></trkpt><trkpt lat="42.0431162" lon="13.6579422"><ele>859.0</ele><time>2026-05-02T12:56:54.614Z</time></trkpt><trkpt lat="42.0432028" lon="13.6578865"><ele>859.0</ele><time>2026-05-02T12:56:55.614Z</time></trkpt><trkpt lat="42.0432877" lon="13.657834"><ele>859.0000000000001</ele><time>2026-05-02T12:56:56.614Z</time></trkpt><trkpt lat="42.0433795" lon="13.6577832"><ele>859.0000000000001</ele><time>2026-05-02T12:56:57.614Z</time></trkpt><trkpt lat="42.0434802" lon="13.6577283"><ele>859.0</ele><time>2026-05-02T12:56:58.614Z</time></trkpt><trkpt lat="42.0435838" lon="13.657672"><ele>859.0</ele><time>2026-05-02T12:56:59.614Z</time></trkpt><trkpt lat="42.0436914" lon="13.65762"><ele>858.8000000000001</ele><time>2026-05-02T12:57:00.614Z</time></trkpt><trkpt lat="42.0437945" lon="13.6575695"><ele>858.6000000000001</ele><time>2026-05-02T12:57:01.614Z</time></trkpt><trkpt lat="42.0438805" lon="13.6575279"><ele>858.4</ele><time>2026-05-02T12:57:02.614Z</time></trkpt><trkpt lat="42.0439473" lon="13.6574997"><ele>858.2</ele><time>2026-05-02T12:57:03.615Z</time></trkpt><trkpt lat="42.0440528" lon="13.6574911"><ele>858.0</ele><time>2026-05-02T12:57:05.614Z</time></trkpt><trkpt lat="42.0441904" lon="13.6575439"><ele>858.5999999999999</ele><time>2026-05-02T12:57:07.614Z</time></trkpt><trkpt lat="42.0442762" lon="13.6575486"><ele>859.1999999999999</ele><time>2026-05-02T12:57:08.615Z</time></trkpt><trkpt lat="42.0443778" lon="13.6575225"><ele>859.8</ele><time>2026-05-02T12:57:09.615Z</time></trkpt><trkpt lat="42.0444808" lon="13.6574803"><ele>860.4</ele><time>2026-05-02T12:57:10.614Z</time></trkpt><trkpt lat="42.0445643" lon="13.6574408"><ele>861.0</ele><time>2026-05-02T12:57:11.614Z</time></trkpt><trkpt lat="42.0446426" lon="13.6574065"><ele>861.0</ele><time>2026-05-02T12:57:12.614Z</time></trkpt><trkpt lat="42.0447139" lon="13.6573742"><ele>861.0</ele><time>2026-05-02T12:57:13.614Z</time></trkpt><trkpt lat="42.0448621" lon="13.657325"><ele>861.0</ele><time>2026-05-02T12:57:15.655Z</time></trkpt><trkpt lat="42.0450263" lon="13.6572903"><ele>861.0</ele><time>2026-05-02T12:57:17.617Z</time></trkpt><trkpt lat="42.0451026" lon="13.6572707"><ele>861.4</ele><time>2026-05-02T12:57:18.618Z</time></trkpt><trkpt lat="42.0451819" lon="13.6572543"><ele>861.8</ele><time>2026-05-02T12:57:19.617Z</time></trkpt><trkpt lat="42.0452653" lon="13.6572446"><ele>862.1999999999999</ele><time>2026-05-02T12:57:20.618Z</time></trkpt><trkpt lat="42.0453581" lon="13.6572322"><ele>862.5999999999999</ele><time>2026-05-02T12:57:21.617Z</time></trkpt><trkpt lat="42.0454622" lon="13.6572004"><ele>863.0</ele><time>2026-05-02T12:57:22.617Z</time></trkpt><trkpt lat="42.0455679" lon="13.6571577"><ele>863.0</ele><time>2026-05-02T12:57:23.617Z</time></trkpt><trkpt lat="42.0456683" lon="13.6571084"><ele>863.0</ele><time>2026-05-02T12:57:24.618Z</time></trkpt><trkpt lat="42.0457569" lon="13.6570601"><ele>863.0</ele><time>2026-05-02T12:57:25.618Z</time></trkpt><trkpt lat="42.0458368" lon="13.6570216"><ele>863.0</ele><time>2026-05-02T12:57:26.617Z</time></trkpt><trkpt lat="42.0459198" lon="13.6569757"><ele>863.0</ele><time>2026-05-02T12:57:27.617Z</time></trkpt><trkpt lat="42.0460013" lon="13.656908"><ele>862.0</ele><time>2026-05-02T12:57:28.618Z</time></trkpt><trkpt lat="42.0460796" lon="13.6568323"><ele>861.0</ele><time>2026-05-02T12:57:29.617Z</time></trkpt><trkpt lat="42.0461553" lon="13.6567643"><ele>860.0</ele><time>2026-05-02T12:57:30.617Z</time></trkpt><trkpt lat="42.0462362" lon="13.6567023"><ele>859.0</ele><time>2026-05-02T12:57:31.618Z</time></trkpt><trkpt lat="42.0463243" lon="13.6566484"><ele>858.0</ele><time>2026-05-02T12:57:32.618Z</time></trkpt><trkpt lat="42.0464069" lon="13.6565899"><ele>858.0</ele><time>2026-05-02T12:57:33.617Z</time></trkpt><trkpt lat="42.046483" lon="13.6565129"><ele>858.0</ele><time>2026-05-02T12:57:34.617Z</time></trkpt><trkpt lat="42.0465541" lon="13.6564336"><ele>858.0</ele><time>2026-05-02T12:57:35.617Z</time></trkpt><trkpt lat="42.0466286" lon="13.6563663"><ele>858.0</ele><time>2026-05-02T12:57:36.617Z</time></trkpt><trkpt lat="42.0467092" lon="13.6563069"><ele>858.0</ele><time>2026-05-02T12:57:37.617Z</time></trkpt><trkpt lat="42.04679" lon="13.656251"><ele>857.8</ele><time>2026-05-02T12:57:38.617Z</time></trkpt><trkpt lat="42.0468717" lon="13.6561932"><ele>857.5999999999999</ele><time>2026-05-02T12:57:39.618Z</time></trkpt><trkpt lat="42.0469517" lon="13.6561493"><ele>857.4000000000001</ele><time>2026-05-02T12:57:40.617Z</time></trkpt><trkpt lat="42.0470315" lon="13.6561111"><ele>857.2</ele><time>2026-05-02T12:57:41.617Z</time></trkpt><trkpt lat="42.0471143" lon="13.6560621"><ele>857.0</ele><time>2026-05-02T12:57:42.617Z</time></trkpt><trkpt lat="42.0472008" lon="13.6559933"><ele>857.0</ele><time>2026-05-02T12:57:43.618Z</time></trkpt><trkpt lat="42.0472834" lon="13.6559194"><ele>857.0</ele><time>2026-05-02T12:57:44.617Z</time></trkpt><trkpt lat="42.0473639" lon="13.6558469"><ele>857.0</ele><time>2026-05-02T12:57:45.618Z</time></trkpt><trkpt lat="42.0474392" lon="13.6557747"><ele>857.0</ele><time>2026-05-02T12:57:46.618Z</time></trkpt><trkpt lat="42.0475065" lon="13.6557052"><ele>857.0</ele><time>2026-05-02T12:57:47.617Z</time></trkpt><trkpt lat="42.047576" lon="13.6556379"><ele>857.0</ele><time>2026-05-02T12:57:48.618Z</time></trkpt><trkpt lat="42.0476518" lon="13.6555755"><ele>857.0</ele><time>2026-05-02T12:57:49.617Z</time></trkpt><trkpt lat="42.0477252" lon="13.6555006"><ele>857.0</ele><time>2026-05-02T12:57:50.617Z</time></trkpt><trkpt lat="42.0477944" lon="13.6554009"><ele>857.0</ele><time>2026-05-02T12:57:51.618Z</time></trkpt><trkpt lat="42.0478646" lon="13.6552899"><ele>857.0</ele><time>2026-05-02T12:57:52.618Z</time></trkpt><trkpt lat="42.0479308" lon="13.6551899"><ele>857.0000000000001</ele><time>2026-05-02T12:57:53.617Z</time></trkpt><trkpt lat="42.0479876" lon="13.655104"><ele>857.0</ele><time>2026-05-02T12:57:54.618Z</time></trkpt><trkpt lat="42.0480466" lon="13.6550247"><ele>857.0</ele><time>2026-05-02T12:57:55.617Z</time></trkpt><trkpt lat="42.0481099" lon="13.6549443"><ele>857.0</ele><time>2026-05-02T12:57:56.617Z</time></trkpt><trkpt lat="42.0481752" lon="13.654858"><ele>857.0000000000001</ele><time>2026-05-02T12:57:57.617Z</time></trkpt><trkpt lat="42.0482395" lon="13.6547701"><ele>857.0</ele><time>2026-05-02T12:57:58.617Z</time></trkpt><trkpt lat="42.0482912" lon="13.6546773"><ele>857.3333333333334</ele><time>2026-05-02T12:57:59.617Z</time></trkpt><trkpt lat="42.0483365" lon="13.6545779"><ele>857.6666666666667</ele><time>2026-05-02T12:58:00.617Z</time></trkpt><trkpt lat="42.0483872" lon="13.6544875"><ele>858.0</ele><time>2026-05-02T12:58:01.617Z</time></trkpt><trkpt lat="42.0484434" lon="13.6544059"><ele>858.3333333333333</ele><time>2026-05-02T12:58:02.617Z</time></trkpt><trkpt lat="42.0485065" lon="13.6543275"><ele>858.6666666666666</ele><time>2026-05-02T12:58:03.618Z</time></trkpt><trkpt lat="42.0485778" lon="13.654258"><ele>859.0</ele><time>2026-05-02T12:58:04.617Z</time></trkpt><trkpt lat="42.0486562" lon="13.6541887"><ele>859.0</ele><time>2026-05-02T12:58:05.617Z</time></trkpt><trkpt lat="42.0487289" lon="13.6541091"><ele>859.0000000000001</ele><time>2026-05-02T12:58:06.617Z</time></trkpt><trkpt lat="42.0488011" lon="13.6540118"><ele>859.0000000000001</ele><time>2026-05-02T12:58:07.618Z</time></trkpt><trkpt lat="42.0488687" lon="13.6539302"><ele>859.0</ele><time>2026-05-02T12:58:08.617Z</time></trkpt><trkpt lat="42.0489414" lon="13.6538531"><ele>859.0</ele><time>2026-05-02T12:58:09.618Z</time></trkpt><trkpt lat="42.049017" lon="13.6537824"><ele>859.0</ele><time>2026-05-02T12:58:10.617Z</time></trkpt><trkpt lat="42.0490927" lon="13.6537086"><ele>859.0000000000001</ele><time>2026-05-02T12:58:11.617Z</time></trkpt><trkpt lat="42.0491662" lon="13.6536407"><ele>859.0000000000001</ele><time>2026-05-02T12:58:12.617Z</time></trkpt><trkpt lat="42.0492326" lon="13.653566"><ele>859.0</ele><time>2026-05-02T12:58:13.617Z</time></trkpt><trkpt lat="42.0492967" lon="13.6534662"><ele>859.0</ele><time>2026-05-02T12:58:14.617Z</time></trkpt><trkpt lat="42.0493625" lon="13.6533695"><ele>858.6666666666666</ele><time>2026-05-02T12:58:15.617Z</time></trkpt><trkpt lat="42.0494323" lon="13.6532684"><ele>858.3333333333333</ele><time>2026-05-02T12:58:16.617Z</time></trkpt><trkpt lat="42.0494996" lon="13.6531861"><ele>858.0</ele><time>2026-05-02T12:58:17.618Z</time></trkpt><trkpt lat="42.0495647" lon="13.6531088"><ele>857.6666666666667</ele><time>2026-05-02T12:58:18.617Z</time></trkpt><trkpt lat="42.0496183" lon="13.6530328"><ele>857.3333333333334</ele><time>2026-05-02T12:58:19.617Z</time></trkpt><trkpt lat="42.0496582" lon="13.6529551"><ele>857.0</ele><time>2026-05-02T12:58:20.618Z</time></trkpt><trkpt lat="42.0496923" lon="13.6528712"><ele>856.5000000000001</ele><time>2026-05-02T12:58:21.617Z</time></trkpt><trkpt lat="42.0497233" lon="13.6527846"><ele>856.0</ele><time>2026-05-02T12:58:22.617Z</time></trkpt><trkpt lat="42.0497569" lon="13.6526931"><ele>855.5</ele><time>2026-05-02T12:58:23.618Z</time></trkpt><trkpt lat="42.0497919" lon="13.6526072"><ele>855.0</ele><time>2026-05-02T12:58:24.617Z</time></trkpt><trkpt lat="42.0498374" lon="13.6525238"><ele>854.5000000000001</ele><time>2026-05-02T12:58:25.617Z</time></trkpt><trkpt lat="42.0498889" lon="13.652443"><ele>854.0</ele><time>2026-05-02T12:58:26.617Z</time></trkpt><trkpt lat="42.0499475" lon="13.6523635"><ele>854.1428571428571</ele><time>2026-05-02T12:58:27.617Z</time></trkpt><trkpt lat="42.0500076" lon="13.652287"><ele>854.2857142857142</ele><time>2026-05-02T12:58:28.617Z</time></trkpt><trkpt lat="42.050064" lon="13.6522151"><ele>854.4285714285714</ele><time>2026-05-02T12:58:29.618Z</time></trkpt><trkpt lat="42.0501173" lon="13.6521523"><ele>854.5714285714286</ele><time>2026-05-02T12:58:30.618Z</time></trkpt><trkpt lat="42.0501731" lon="13.6520965"><ele>854.7142857142857</ele><time>2026-05-02T12:58:31.618Z</time></trkpt><trkpt lat="42.0502368" lon="13.6520494"><ele>854.8571428571429</ele><time>2026-05-02T12:58:32.617Z</time></trkpt><trkpt lat="42.0502991" lon="13.652"><ele>855.0</ele><time>2026-05-02T12:58:33.618Z</time></trkpt><trkpt lat="42.0503603" lon="13.6519498"><ele>855.0</ele><time>2026-05-02T12:58:34.617Z</time></trkpt><trkpt lat="42.050421" lon="13.6519085"><ele>855.0</ele><time>2026-05-02T12:58:35.617Z</time></trkpt><trkpt lat="42.0504968" lon="13.6518649"><ele>855.0</ele><time>2026-05-02T12:58:36.618Z</time></trkpt><trkpt lat="42.0505726" lon="13.6518271"><ele>855.0</ele><time>2026-05-02T12:58:37.618Z</time></trkpt><trkpt lat="42.0506474" lon="13.6517835"><ele>855.0</ele><time>2026-05-02T12:58:38.617Z</time></trkpt><trkpt lat="42.0507167" lon="13.6517323"><ele>855.0</ele><time>2026-05-02T12:58:39.618Z</time></trkpt><trkpt lat="42.0507801" lon="13.6516705"><ele>855.5</ele><time>2026-05-02T12:58:40.618Z</time></trkpt><trkpt lat="42.0508592" lon="13.6515446"><ele>856.0</ele><time>2026-05-02T12:58:42.617Z</time></trkpt><trkpt lat="42.050889" lon="13.6514683"><ele>856.5</ele><time>2026-05-02T12:58:43.617Z</time></trkpt><trkpt lat="42.0509162" lon="13.651374"><ele>857.0</ele><time>2026-05-02T12:58:44.617Z</time></trkpt><trkpt lat="42.0509363" lon="13.6512807"><ele>857.5</ele><time>2026-05-02T12:58:45.617Z</time></trkpt><trkpt lat="42.0509489" lon="13.6511725"><ele>858.0</ele><time>2026-05-02T12:58:46.618Z</time></trkpt><trkpt lat="42.0509423" lon="13.6510479"><ele>858.0</ele><time>2026-05-02T12:58:47.617Z</time></trkpt><trkpt lat="42.0509156" lon="13.6509079"><ele>858.0</ele><time>2026-05-02T12:58:48.618Z</time></trkpt><trkpt lat="42.0508863" lon="13.6507917"><ele>858.0</ele><time>2026-05-02T12:58:49.617Z</time></trkpt><trkpt lat="42.0508655" lon="13.6506797"><ele>858.0</ele><time>2026-05-02T12:58:50.617Z</time></trkpt><trkpt lat="42.0508497" lon="13.6505748"><ele>858.0</ele><time>2026-05-02T12:58:51.618Z</time></trkpt><trkpt lat="42.0508439" lon="13.6504836"><ele>858.0</ele><time>2026-05-02T12:58:52.618Z</time></trkpt><trkpt lat="42.0508745" lon="13.6503223"><ele>857.1666666666666</ele><time>2026-05-02T12:58:54.617Z</time></trkpt><trkpt lat="42.0509144" lon="13.6502311"><ele>856.3333333333333</ele><time>2026-05-02T12:58:55.617Z</time></trkpt><trkpt lat="42.0509689" lon="13.6501406"><ele>855.5</ele><time>2026-05-02T12:58:56.618Z</time></trkpt><trkpt lat="42.051028" lon="13.6500508"><ele>854.6666666666666</ele><time>2026-05-02T12:58:57.618Z</time></trkpt><trkpt lat="42.0510861" lon="13.6499601"><ele>853.8333333333333</ele><time>2026-05-02T12:58:58.618Z</time></trkpt><trkpt lat="42.0511466" lon="13.6498659"><ele>853.0</ele><time>2026-05-02T12:58:59.617Z</time></trkpt><trkpt lat="42.0512083" lon="13.6497725"><ele>853.0</ele><time>2026-05-02T12:59:00.617Z</time></trkpt><trkpt lat="42.0512739" lon="13.6496771"><ele>853.0</ele><time>2026-05-02T12:59:01.618Z</time></trkpt><trkpt lat="42.0513407" lon="13.6495785"><ele>853.0</ele><time>2026-05-02T12:59:02.617Z</time></trkpt><trkpt lat="42.0514055" lon="13.6494737"><ele>853.0</ele><time>2026-05-02T12:59:03.617Z</time></trkpt><trkpt lat="42.0514646" lon="13.6493573"><ele>853.0</ele><time>2026-05-02T12:59:04.617Z</time></trkpt><trkpt lat="42.0515147" lon="13.6492449"><ele>852.8333333333333</ele><time>2026-05-02T12:59:05.618Z</time></trkpt><trkpt lat="42.051555" lon="13.6491245"><ele>852.6666666666666</ele><time>2026-05-02T12:59:06.618Z</time></trkpt><trkpt lat="42.0515893" lon="13.6490056"><ele>852.5</ele><time>2026-05-02T12:59:07.617Z</time></trkpt><trkpt lat="42.0516174" lon="13.6488952"><ele>852.3333333333333</ele><time>2026-05-02T12:59:08.618Z</time></trkpt><trkpt lat="42.0516514" lon="13.6488019"><ele>852.1666666666666</ele><time>2026-05-02T12:59:09.618Z</time></trkpt><trkpt lat="42.0516973" lon="13.6487065"><ele>852.0</ele><time>2026-05-02T12:59:10.617Z</time></trkpt><trkpt lat="42.0517583" lon="13.6486086"><ele>852.0</ele><time>2026-05-02T12:59:11.618Z</time></trkpt><trkpt lat="42.0518306" lon="13.6485102"><ele>852.0</ele><time>2026-05-02T12:59:12.618Z</time></trkpt><trkpt lat="42.0519106" lon="13.6484104"><ele>852.0</ele><time>2026-05-02T12:59:13.617Z</time></trkpt><trkpt lat="42.0519955" lon="13.6483091"><ele>852.0</ele><time>2026-05-02T12:59:14.618Z</time></trkpt><trkpt lat="42.0520842" lon="13.6482028"><ele>852.0</ele><time>2026-05-02T12:59:15.618Z</time></trkpt><trkpt lat="42.0521711" lon="13.6481004"><ele>852.0</ele><time>2026-05-02T12:59:16.617Z</time></trkpt><trkpt lat="42.0522562" lon="13.6480026"><ele>852.0</ele><time>2026-05-02T12:59:17.617Z</time></trkpt><trkpt lat="42.052343" lon="13.6479087"><ele>852.0</ele><time>2026-05-02T12:59:18.617Z</time></trkpt><trkpt lat="42.0524301" lon="13.6478224"><ele>852.0</ele><time>2026-05-02T12:59:19.617Z</time></trkpt><trkpt lat="42.052505" lon="13.6477277"><ele>852.0</ele><time>2026-05-02T12:59:20.618Z</time></trkpt><trkpt lat="42.0525776" lon="13.6476256"><ele>852.2</ele><time>2026-05-02T12:59:21.618Z</time></trkpt><trkpt lat="42.0526536" lon="13.647526"><ele>852.4000000000001</ele><time>2026-05-02T12:59:22.618Z</time></trkpt><trkpt lat="42.0527291" lon="13.6474282"><ele>852.5999999999999</ele><time>2026-05-02T12:59:23.618Z</time></trkpt><trkpt lat="42.0528061" lon="13.6473373"><ele>852.8</ele><time>2026-05-02T12:59:24.617Z</time></trkpt><trkpt lat="42.0528819" lon="13.6472522"><ele>853.0</ele><time>2026-05-02T12:59:25.617Z</time></trkpt><trkpt lat="42.0529574" lon="13.6471699"><ele>853.0</ele><time>2026-05-02T12:59:26.617Z</time></trkpt><trkpt lat="42.053034" lon="13.6470972"><ele>853.0</ele><time>2026-05-02T12:59:27.617Z</time></trkpt><trkpt lat="42.0531141" lon="13.6470285"><ele>853.0</ele><time>2026-05-02T12:59:28.617Z</time></trkpt><trkpt lat="42.0531941" lon="13.6469583"><ele>853.0</ele><time>2026-05-02T12:59:29.617Z</time></trkpt><trkpt lat="42.0532735" lon="13.6468816"><ele>853.0</ele><time>2026-05-02T12:59:30.617Z</time></trkpt><trkpt lat="42.0533559" lon="13.6467983"><ele>853.4</ele><time>2026-05-02T12:59:31.617Z</time></trkpt><trkpt lat="42.0534386" lon="13.6467105"><ele>853.8</ele><time>2026-05-02T12:59:32.617Z</time></trkpt><trkpt lat="42.0535249" lon="13.6466198"><ele>854.2</ele><time>2026-05-02T12:59:33.617Z</time></trkpt><trkpt lat="42.0536126" lon="13.6465258"><ele>854.6</ele><time>2026-05-02T12:59:34.617Z</time></trkpt><trkpt lat="42.0536966" lon="13.6464314"><ele>855.0</ele><time>2026-05-02T12:59:35.617Z</time></trkpt><trkpt lat="42.0537753" lon="13.6463402"><ele>855.0</ele><time>2026-05-02T12:59:36.618Z</time></trkpt><trkpt lat="42.0538502" lon="13.6462519"><ele>855.0</ele><time>2026-05-02T12:59:37.618Z</time></trkpt><trkpt lat="42.0539223" lon="13.646167"><ele>855.0</ele><time>2026-05-02T12:59:38.617Z</time></trkpt><trkpt lat="42.0539924" lon="13.646082"><ele>855.0</ele><time>2026-05-02T12:59:39.618Z</time></trkpt><trkpt lat="42.0540643" lon="13.6459958"><ele>855.0</ele><time>2026-05-02T12:59:40.617Z</time></trkpt><trkpt lat="42.0541385" lon="13.6459114"><ele>854.6</ele><time>2026-05-02T12:59:41.618Z</time></trkpt><trkpt lat="42.0542161" lon="13.6458263"><ele>854.2</ele><time>2026-05-02T12:59:42.617Z</time></trkpt><trkpt lat="42.0542946" lon="13.6457424"><ele>853.8</ele><time>2026-05-02T12:59:43.617Z</time></trkpt><trkpt lat="42.0543696" lon="13.6456611"><ele>853.4</ele><time>2026-05-02T12:59:44.617Z</time></trkpt><trkpt lat="42.0544407" lon="13.6455829"><ele>853.0</ele><time>2026-05-02T12:59:45.617Z</time></trkpt><trkpt lat="42.0545157" lon="13.6454976"><ele>853.0</ele><time>2026-05-02T12:59:46.617Z</time></trkpt><trkpt lat="42.0545924" lon="13.6454025"><ele>853.0</ele><time>2026-05-02T12:59:47.617Z</time></trkpt><trkpt lat="42.0546637" lon="13.6453031"><ele>853.0</ele><time>2026-05-02T12:59:48.617Z</time></trkpt><trkpt lat="42.0547314" lon="13.6452042"><ele>853.0</ele><time>2026-05-02T12:59:49.617Z</time></trkpt><trkpt lat="42.0547905" lon="13.6451061"><ele>853.0</ele><time>2026-05-02T12:59:50.617Z</time></trkpt><trkpt lat="42.0548405" lon="13.6450112"><ele>853.2</ele><time>2026-05-02T12:59:51.617Z</time></trkpt><trkpt lat="42.0548837" lon="13.6449084"><ele>853.4</ele><time>2026-05-02T12:59:52.617Z</time></trkpt><trkpt lat="42.0549196" lon="13.6447977"><ele>853.6000000000001</ele><time>2026-05-02T12:59:53.617Z</time></trkpt><trkpt lat="42.0549507" lon="13.6446819"><ele>853.8000000000001</ele><time>2026-05-02T12:59:54.617Z</time></trkpt><trkpt lat="42.0549765" lon="13.6445605"><ele>854.0</ele><time>2026-05-02T12:59:55.618Z</time></trkpt><trkpt lat="42.0549981" lon="13.6444388"><ele>853.5000000000001</ele><time>2026-05-02T12:59:56.617Z</time></trkpt><trkpt lat="42.0550165" lon="13.6443269"><ele>853.0</ele><time>2026-05-02T12:59:57.617Z</time></trkpt><trkpt lat="42.0550357" lon="13.6442341"><ele>852.5</ele><time>2026-05-02T12:59:58.618Z</time></trkpt><trkpt lat="42.0550596" lon="13.6441545"><ele>852.0</ele><time>2026-05-02T12:59:59.617Z</time></trkpt><trkpt lat="42.055126" lon="13.644007"><ele>851.5000000000001</ele><time>2026-05-02T13:00:01.618Z</time></trkpt><trkpt lat="42.0551598" lon="13.6439172"><ele>851.0</ele><time>2026-05-02T13:00:02.618Z</time></trkpt><trkpt lat="42.0551882" lon="13.6438205"><ele>851.0</ele><time>2026-05-02T13:00:03.618Z</time></trkpt><trkpt lat="42.0552123" lon="13.6437305"><ele>851.0</ele><time>2026-05-02T13:00:04.617Z</time></trkpt><trkpt lat="42.0552393" lon="13.6435776"><ele>851.0</ele><time>2026-05-02T13:00:06.617Z</time></trkpt><trkpt lat="42.0552654" lon="13.6434153"><ele>851.0</ele><time>2026-05-02T13:00:08.617Z</time></trkpt><trkpt lat="42.0552912" lon="13.643253"><ele>851.0</ele><time>2026-05-02T13:00:10.617Z</time></trkpt><trkpt lat="42.055305" lon="13.6431633"><ele>851.0000000000001</ele><time>2026-05-02T13:00:11.617Z</time></trkpt><trkpt lat="42.0553235" lon="13.6430752"><ele>851.0</ele><time>2026-05-02T13:00:12.618Z</time></trkpt><trkpt lat="42.0553471" lon="13.6429852"><ele>851.0</ele><time>2026-05-02T13:00:13.617Z</time></trkpt><trkpt lat="42.0553737" lon="13.6428919"><ele>851.0</ele><time>2026-05-02T13:00:14.617Z</time></trkpt><trkpt lat="42.055405" lon="13.6427955"><ele>851.0000000000001</ele><time>2026-05-02T13:00:15.618Z</time></trkpt><trkpt lat="42.0554457" lon="13.6426887"><ele>851.0</ele><time>2026-05-02T13:00:16.618Z</time></trkpt><trkpt lat="42.0554883" lon="13.6425846"><ele>851.0000000000001</ele><time>2026-05-02T13:00:17.617Z</time></trkpt><trkpt lat="42.0555264" lon="13.6424942"><ele>851.0</ele><time>2026-05-02T13:00:18.618Z</time></trkpt><trkpt lat="42.0555623" lon="13.642412"><ele>851.0</ele><time>2026-05-02T13:00:19.617Z</time></trkpt><trkpt lat="42.0556527" lon="13.6422968"><ele>851.0</ele><time>2026-05-02T13:00:21.618Z</time></trkpt><trkpt lat="42.0557225" lon="13.6422505"><ele>851.0000000000001</ele><time>2026-05-02T13:00:22.618Z</time></trkpt><trkpt lat="42.0558021" lon="13.6422075"><ele>851.0</ele><time>2026-05-02T13:00:23.617Z</time></trkpt><trkpt lat="42.0558976" lon="13.6421662"><ele>851.5</ele><time>2026-05-02T13:00:24.617Z</time></trkpt><trkpt lat="42.0560047" lon="13.6421281"><ele>852.0</ele><time>2026-05-02T13:00:25.618Z</time></trkpt><trkpt lat="42.0561144" lon="13.6420839"><ele>852.5</ele><time>2026-05-02T13:00:26.617Z</time></trkpt><trkpt lat="42.0562214" lon="13.6420261"><ele>853.0</ele><time>2026-05-02T13:00:27.617Z</time></trkpt><trkpt lat="42.0563301" lon="13.6419649"><ele>853.0</ele><time>2026-05-02T13:00:28.617Z</time></trkpt><trkpt lat="42.0564433" lon="13.6419124"><ele>853.0</ele><time>2026-05-02T13:00:29.618Z</time></trkpt><trkpt lat="42.0565539" lon="13.6418676"><ele>853.0</ele><time>2026-05-02T13:00:30.617Z</time></trkpt><trkpt lat="42.0566552" lon="13.6418294"><ele>853.0</ele><time>2026-05-02T13:00:31.618Z</time></trkpt><trkpt lat="42.0567502" lon="13.6417946"><ele>853.0</ele><time>2026-05-02T13:00:32.617Z</time></trkpt><trkpt lat="42.0568348" lon="13.6417605"><ele>853.0</ele><time>2026-05-02T13:00:33.617Z</time></trkpt><trkpt lat="42.0569154" lon="13.6417321"><ele>853.0</ele><time>2026-05-02T13:00:34.617Z</time></trkpt><trkpt lat="42.0570009" lon="13.6417209"><ele>853.0</ele><time>2026-05-02T13:00:35.618Z</time></trkpt><trkpt lat="42.0570959" lon="13.6417323"><ele>853.0</ele><time>2026-05-02T13:00:36.617Z</time></trkpt><trkpt lat="42.0571978" lon="13.6417598"><ele>853.0</ele><time>2026-05-02T13:00:37.617Z</time></trkpt><trkpt lat="42.0573032" lon="13.641779"><ele>853.0</ele><time>2026-05-02T13:00:38.617Z</time></trkpt><trkpt lat="42.0574056" lon="13.6417806"><ele>853.0</ele><time>2026-05-02T13:00:39.617Z</time></trkpt><trkpt lat="42.0575037" lon="13.6417758"><ele>853.0</ele><time>2026-05-02T13:00:40.617Z</time></trkpt><trkpt lat="42.0576011" lon="13.6417604"><ele>853.0</ele><time>2026-05-02T13:00:41.617Z</time></trkpt><trkpt lat="42.057706" lon="13.6417244"><ele>853.0</ele><time>2026-05-02T13:00:42.617Z</time></trkpt><trkpt lat="42.0578173" lon="13.6416696"><ele>853.4</ele><time>2026-05-02T13:00:43.617Z</time></trkpt><trkpt lat="42.0579245" lon="13.6416141"><ele>853.8</ele><time>2026-05-02T13:00:44.617Z</time></trkpt><trkpt lat="42.0580286" lon="13.6415645"><ele>854.2</ele><time>2026-05-02T13:00:45.617Z</time></trkpt><trkpt lat="42.0581314" lon="13.6415178"><ele>854.6</ele><time>2026-05-02T13:00:46.617Z</time></trkpt><trkpt lat="42.0582302" lon="13.6414684"><ele>855.0</ele><time>2026-05-02T13:00:47.617Z</time></trkpt><trkpt lat="42.0583276" lon="13.6414154"><ele>855.4</ele><time>2026-05-02T13:00:48.618Z</time></trkpt><trkpt lat="42.0584254" lon="13.6413653"><ele>855.8</ele><time>2026-05-02T13:00:49.617Z</time></trkpt><trkpt lat="42.0585252" lon="13.6413182"><ele>856.2</ele><time>2026-05-02T13:00:50.618Z</time></trkpt><trkpt lat="42.0586249" lon="13.6412757"><ele>856.6</ele><time>2026-05-02T13:00:51.617Z</time></trkpt><trkpt lat="42.0587268" lon="13.6412426"><ele>857.0</ele><time>2026-05-02T13:00:52.617Z</time></trkpt><trkpt lat="42.0588331" lon="13.6412204"><ele>857.0</ele><time>2026-05-02T13:00:53.617Z</time></trkpt><trkpt lat="42.058944" lon="13.6412046"><ele>857.0</ele><time>2026-05-02T13:00:54.617Z</time></trkpt><trkpt lat="42.0590554" lon="13.641196"><ele>857.0</ele><time>2026-05-02T13:00:55.617Z</time></trkpt><trkpt lat="42.059169" lon="13.6411968"><ele>857.0</ele><time>2026-05-02T13:00:56.617Z</time></trkpt><trkpt lat="42.0592869" lon="13.6411954"><ele>857.5</ele><time>2026-05-02T13:00:57.617Z</time></trkpt><trkpt lat="42.0594087" lon="13.6411822"><ele>858.0</ele><time>2026-05-02T13:00:58.618Z</time></trkpt><trkpt lat="42.0595281" lon="13.6411675"><ele>858.5</ele><time>2026-05-02T13:00:59.617Z</time></trkpt><trkpt lat="42.0596376" lon="13.6411591"><ele>859.0</ele><time>2026-05-02T13:01:00.617Z</time></trkpt><trkpt lat="42.0597456" lon="13.6411532"><ele>859.0</ele><time>2026-05-02T13:01:01.618Z</time></trkpt><trkpt lat="42.0598533" lon="13.6411489"><ele>859.0000000000001</ele><time>2026-05-02T13:01:02.617Z</time></trkpt><trkpt lat="42.0599585" lon="13.6411523"><ele>859.0000000000001</ele><time>2026-05-02T13:01:03.618Z</time></trkpt><trkpt lat="42.0600626" lon="13.6411641"><ele>859.0</ele><time>2026-05-02T13:01:04.618Z</time></trkpt><trkpt lat="42.0601628" lon="13.6411844"><ele>859.0</ele><time>2026-05-02T13:01:05.617Z</time></trkpt><trkpt lat="42.0602632" lon="13.6412045"><ele>859.2</ele><time>2026-05-02T13:01:06.618Z</time></trkpt><trkpt lat="42.0603658" lon="13.6412184"><ele>859.4000000000001</ele><time>2026-05-02T13:01:07.617Z</time></trkpt><trkpt lat="42.0604709" lon="13.6412226"><ele>859.6</ele><time>2026-05-02T13:01:08.617Z</time></trkpt><trkpt lat="42.0605764" lon="13.6412178"><ele>859.8</ele><time>2026-05-02T13:01:09.617Z</time></trkpt><trkpt lat="42.0606818" lon="13.6412091"><ele>860.0</ele><time>2026-05-02T13:01:10.617Z</time></trkpt><trkpt lat="42.0607899" lon="13.6411965"><ele>860.0</ele><time>2026-05-02T13:01:11.617Z</time></trkpt><trkpt lat="42.0608981" lon="13.6411828"><ele>860.0</ele><time>2026-05-02T13:01:12.617Z</time></trkpt><trkpt lat="42.0609953" lon="13.6411665"><ele>860.0</ele><time>2026-05-02T13:01:13.618Z</time></trkpt><trkpt lat="42.0610823" lon="13.6411422"><ele>860.0</ele><time>2026-05-02T13:01:14.617Z</time></trkpt><trkpt lat="42.0611764" lon="13.6411113"><ele>860.0</ele><time>2026-05-02T13:01:15.617Z</time></trkpt><trkpt lat="42.0612788" lon="13.6410776"><ele>860.0</ele><time>2026-05-02T13:01:16.617Z</time></trkpt><trkpt lat="42.061381" lon="13.6410441"><ele>860.0</ele><time>2026-05-02T13:01:17.618Z</time></trkpt><trkpt lat="42.0614845" lon="13.641014"><ele>860.0</ele><time>2026-05-02T13:01:18.617Z</time></trkpt><trkpt lat="42.0615872" lon="13.6409801"><ele>860.0</ele><time>2026-05-02T13:01:19.617Z</time></trkpt><trkpt lat="42.0616806" lon="13.6409356"><ele>860.0</ele><time>2026-05-02T13:01:20.617Z</time></trkpt><trkpt lat="42.0617679" lon="13.6408806"><ele>861.4</ele><time>2026-05-02T13:01:21.617Z</time></trkpt><trkpt lat="42.061855" lon="13.6408159"><ele>862.8</ele><time>2026-05-02T13:01:22.617Z</time></trkpt><trkpt lat="42.0619429" lon="13.6407379"><ele>864.2</ele><time>2026-05-02T13:01:23.617Z</time></trkpt><trkpt lat="42.0620335" lon="13.6406456"><ele>865.6</ele><time>2026-05-02T13:01:24.617Z</time></trkpt><trkpt lat="42.0621212" lon="13.6405493"><ele>867.0</ele><time>2026-05-02T13:01:25.617Z</time></trkpt><trkpt lat="42.0622001" lon="13.6404609"><ele>867.0</ele><time>2026-05-02T13:01:26.617Z</time></trkpt><trkpt lat="42.062275" lon="13.6403756"><ele>867.0</ele><time>2026-05-02T13:01:27.617Z</time></trkpt><trkpt lat="42.0623496" lon="13.6402862"><ele>867.0</ele><time>2026-05-02T13:01:28.618Z</time></trkpt><trkpt lat="42.0624202" lon="13.6401983"><ele>867.0</ele><time>2026-05-02T13:01:29.617Z</time></trkpt><trkpt lat="42.0624848" lon="13.6401153"><ele>867.0</ele><time>2026-05-02T13:01:30.617Z</time></trkpt><trkpt lat="42.0625527" lon="13.6400286"><ele>867.0</ele><time>2026-05-02T13:01:31.617Z</time></trkpt><trkpt lat="42.0626291" lon="13.6399424"><ele>867.0</ele><time>2026-05-02T13:01:32.618Z</time></trkpt><trkpt lat="42.0627172" lon="13.6398591"><ele>867.0</ele><time>2026-05-02T13:01:33.618Z</time></trkpt><trkpt lat="42.062818" lon="13.6397813"><ele>867.0</ele><time>2026-05-02T13:01:34.617Z</time></trkpt><trkpt lat="42.0629229" lon="13.639711"><ele>867.0</ele><time>2026-05-02T13:01:35.617Z</time></trkpt><trkpt lat="42.0630286" lon="13.6396407"><ele>867.0</ele><time>2026-05-02T13:01:36.617Z</time></trkpt><trkpt lat="42.0631316" lon="13.639567"><ele>867.0</ele><time>2026-05-02T13:01:37.618Z</time></trkpt><trkpt lat="42.0632306" lon="13.6394961"><ele>867.0</ele><time>2026-05-02T13:01:38.617Z</time></trkpt><trkpt lat="42.063327" lon="13.6394217"><ele>867.0</ele><time>2026-05-02T13:01:39.618Z</time></trkpt><trkpt lat="42.0634177" lon="13.6393494"><ele>867.0</ele><time>2026-05-02T13:01:40.617Z</time></trkpt><trkpt lat="42.0635058" lon="13.639279"><ele>866.6</ele><time>2026-05-02T13:01:41.618Z</time></trkpt><trkpt lat="42.0635967" lon="13.6392056"><ele>866.2</ele><time>2026-05-02T13:01:42.617Z</time></trkpt><trkpt lat="42.0636861" lon="13.6391305"><ele>865.8</ele><time>2026-05-02T13:01:43.618Z</time></trkpt><trkpt lat="42.0637738" lon="13.6390496"><ele>865.4</ele><time>2026-05-02T13:01:44.617Z</time></trkpt><trkpt lat="42.0638589" lon="13.6389606"><ele>865.0</ele><time>2026-05-02T13:01:45.617Z</time></trkpt><trkpt lat="42.0639419" lon="13.6388733"><ele>864.9999999999999</ele><time>2026-05-02T13:01:46.618Z</time></trkpt><trkpt lat="42.0640258" lon="13.6387978"><ele>865.0</ele><time>2026-05-02T13:01:47.617Z</time></trkpt><trkpt lat="42.0641088" lon="13.6387317"><ele>865.0</ele><time>2026-05-02T13:01:48.618Z</time></trkpt><trkpt lat="42.064184" lon="13.638667"><ele>865.0</ele><time>2026-05-02T13:01:49.617Z</time></trkpt><trkpt lat="42.0642514" lon="13.6386007"><ele>864.9999999999999</ele><time>2026-05-02T13:01:50.618Z</time></trkpt><trkpt lat="42.0643066" lon="13.6385395"><ele>865.0</ele><time>2026-05-02T13:01:51.618Z</time></trkpt><trkpt lat="42.0643725" lon="13.638435"><ele>864.8333333333333</ele><time>2026-05-02T13:01:53.617Z</time></trkpt><trkpt lat="42.0643843" lon="13.6383347"><ele>864.6666666666666</ele><time>2026-05-02T13:01:55.618Z</time></trkpt><trkpt lat="42.0643848" lon="13.6382075"><ele>864.5</ele><time>2026-05-02T13:01:57.617Z</time></trkpt><trkpt lat="42.0643984" lon="13.6381181"><ele>864.3333333333333</ele><time>2026-05-02T13:01:58.618Z</time></trkpt><trkpt lat="42.0644151" lon="13.6380071"><ele>864.1666666666666</ele><time>2026-05-02T13:01:59.617Z</time></trkpt><trkpt lat="42.0644289" lon="13.6378819"><ele>864.0</ele><time>2026-05-02T13:02:00.617Z</time></trkpt><trkpt lat="42.064441" lon="13.637754"><ele>863.2</ele><time>2026-05-02T13:02:01.618Z</time></trkpt><trkpt lat="42.064454" lon="13.6376225"><ele>862.4000000000001</ele><time>2026-05-02T13:02:02.618Z</time></trkpt><trkpt lat="42.0644696" lon="13.6374948"><ele>861.6</ele><time>2026-05-02T13:02:03.617Z</time></trkpt><trkpt lat="42.0644852" lon="13.6373714"><ele>860.8</ele><time>2026-05-02T13:02:04.617Z</time></trkpt><trkpt lat="42.0645024" lon="13.6372429"><ele>860.0</ele><time>2026-05-02T13:02:05.617Z</time></trkpt><trkpt lat="42.0645247" lon="13.6371086"><ele>860.0</ele><time>2026-05-02T13:02:06.618Z</time></trkpt><trkpt lat="42.0645526" lon="13.6369757"><ele>860.0</ele><time>2026-05-02T13:02:07.617Z</time></trkpt><trkpt lat="42.0645862" lon="13.6368492"><ele>860.0</ele><time>2026-05-02T13:02:08.617Z</time></trkpt><trkpt lat="42.0646253" lon="13.6367363"><ele>860.0</ele><time>2026-05-02T13:02:09.617Z</time></trkpt><trkpt lat="42.0646667" lon="13.6366312"><ele>860.0</ele><time>2026-05-02T13:02:10.617Z</time></trkpt><trkpt lat="42.0647067" lon="13.6365358"><ele>859.5714285714286</ele><time>2026-05-02T13:02:11.617Z</time></trkpt><trkpt lat="42.0647446" lon="13.6364548"><ele>859.1428571428572</ele><time>2026-05-02T13:02:12.618Z</time></trkpt><trkpt lat="42.0647813" lon="13.6363763"><ele>858.7142857142858</ele><time>2026-05-02T13:02:13.617Z</time></trkpt><trkpt lat="42.0648143" lon="13.6362961"><ele>858.2857142857142</ele><time>2026-05-02T13:02:14.617Z</time></trkpt><trkpt lat="42.0648482" lon="13.6362208"><ele>857.8571428571429</ele><time>2026-05-02T13:02:15.617Z</time></trkpt><trkpt lat="42.0648886" lon="13.6361537"><ele>857.4285714285714</ele><time>2026-05-02T13:02:16.617Z</time></trkpt><trkpt lat="42.0649363" lon="13.6360932"><ele>857.0</ele><time>2026-05-02T13:02:17.617Z</time></trkpt><trkpt lat="42.0649897" lon="13.636035"><ele>856.5714285714286</ele><time>2026-05-02T13:02:18.617Z</time></trkpt><trkpt lat="42.0650449" lon="13.6359766"><ele>856.1428571428571</ele><time>2026-05-02T13:02:19.617Z</time></trkpt><trkpt lat="42.0650978" lon="13.6359166"><ele>855.7142857142858</ele><time>2026-05-02T13:02:20.617Z</time></trkpt><trkpt lat="42.0651476" lon="13.6358547"><ele>855.2857142857142</ele><time>2026-05-02T13:02:21.617Z</time></trkpt><trkpt lat="42.0651913" lon="13.6357858"><ele>854.8571428571429</ele><time>2026-05-02T13:02:22.617Z</time></trkpt><trkpt lat="42.0652333" lon="13.6357137"><ele>854.4285714285714</ele><time>2026-05-02T13:02:23.618Z</time></trkpt><trkpt lat="42.0652767" lon="13.6356423"><ele>854.0</ele><time>2026-05-02T13:02:24.618Z</time></trkpt><trkpt lat="42.0653171" lon="13.6355669"><ele>854.0000000000001</ele><time>2026-05-02T13:02:25.617Z</time></trkpt><trkpt lat="42.065352" lon="13.6354863"><ele>854.0</ele><time>2026-05-02T13:02:26.617Z</time></trkpt><trkpt lat="42.0653794" lon="13.6353995"><ele>854.0</ele><time>2026-05-02T13:02:27.618Z</time></trkpt><trkpt lat="42.0653992" lon="13.6352967"><ele>854.0</ele><time>2026-05-02T13:02:28.617Z</time></trkpt><trkpt lat="42.0654099" lon="13.6351816"><ele>854.0000000000001</ele><time>2026-05-02T13:02:29.617Z</time></trkpt><trkpt lat="42.0654082" lon="13.6350728"><ele>854.0</ele><time>2026-05-02T13:02:30.617Z</time></trkpt><trkpt lat="42.0654003" lon="13.6349717"><ele>853.8000000000001</ele><time>2026-05-02T13:02:31.617Z</time></trkpt><trkpt lat="42.0653822" lon="13.6348758"><ele>853.6000000000001</ele><time>2026-05-02T13:02:32.617Z</time></trkpt><trkpt lat="42.0653493" lon="13.6347761"><ele>853.4</ele><time>2026-05-02T13:02:33.617Z</time></trkpt><trkpt lat="42.0652997" lon="13.634661"><ele>853.2</ele><time>2026-05-02T13:02:34.618Z</time></trkpt><trkpt lat="42.0652333" lon="13.6345277"><ele>853.0</ele><time>2026-05-02T13:02:35.617Z</time></trkpt><trkpt lat="42.0651627" lon="13.6343944"><ele>853.0</ele><time>2026-05-02T13:02:36.617Z</time></trkpt><trkpt lat="42.0651" lon="13.6342767"><ele>853.0</ele><time>2026-05-02T13:02:37.618Z</time></trkpt><trkpt lat="42.0650422" lon="13.6341649"><ele>853.0</ele><time>2026-05-02T13:02:38.618Z</time></trkpt><trkpt lat="42.0649884" lon="13.634053"><ele>853.0</ele><time>2026-05-02T13:02:39.618Z</time></trkpt><trkpt lat="42.0649408" lon="13.633941"><ele>853.0</ele><time>2026-05-02T13:02:40.618Z</time></trkpt><trkpt lat="42.0649015" lon="13.6338344"><ele>850.9999999999999</ele><time>2026-05-02T13:02:41.617Z</time></trkpt><trkpt lat="42.0648764" lon="13.6337373"><ele>849.0</ele><time>2026-05-02T13:02:42.618Z</time></trkpt><trkpt lat="42.0648617" lon="13.6336371"><ele>847.0</ele><time>2026-05-02T13:02:43.617Z</time></trkpt><trkpt lat="42.0648506" lon="13.6335252"><ele>845.0</ele><time>2026-05-02T13:02:44.618Z</time></trkpt><trkpt lat="42.0648477" lon="13.6334025"><ele>842.9999999999999</ele><time>2026-05-02T13:02:45.617Z</time></trkpt><trkpt lat="42.064855" lon="13.6332701"><ele>841.0</ele><time>2026-05-02T13:02:46.617Z</time></trkpt><trkpt lat="42.0648682" lon="13.6331308"><ele>841.0</ele><time>2026-05-02T13:02:47.617Z</time></trkpt><trkpt lat="42.0648843" lon="13.6329853"><ele>841.0</ele><time>2026-05-02T13:02:48.617Z</time></trkpt><trkpt lat="42.0648981" lon="13.6328317"><ele>841.0</ele><time>2026-05-02T13:02:49.617Z</time></trkpt><trkpt lat="42.0649098" lon="13.6326695"><ele>841.0</ele><time>2026-05-02T13:02:50.618Z</time></trkpt><trkpt lat="42.0649218" lon="13.6325085"><ele>841.0</ele><time>2026-05-02T13:02:51.617Z</time></trkpt><trkpt lat="42.0649312" lon="13.6323547"><ele>841.0</ele><time>2026-05-02T13:02:52.617Z</time></trkpt><trkpt lat="42.0649343" lon="13.632206"><ele>841.0</ele><time>2026-05-02T13:02:53.618Z</time></trkpt><trkpt lat="42.064926" lon="13.6320633"><ele>841.0</ele><time>2026-05-02T13:02:54.617Z</time></trkpt><trkpt lat="42.0649104" lon="13.6319263"><ele>841.0</ele><time>2026-05-02T13:02:55.617Z</time></trkpt><trkpt lat="42.0648896" lon="13.6317975"><ele>841.1666666666666</ele><time>2026-05-02T13:02:56.618Z</time></trkpt><trkpt lat="42.0648695" lon="13.6316913"><ele>841.3333333333333</ele><time>2026-05-02T13:02:57.617Z</time></trkpt><trkpt lat="42.0648533" lon="13.6315729"><ele>841.5</ele><time>2026-05-02T13:02:59.617Z</time></trkpt><trkpt lat="42.0649266" lon="13.6315511"><ele>841.6666666666667</ele><time>2026-05-02T13:03:04.618Z</time></trkpt><trkpt lat="42.0649703" lon="13.6316271"><ele>841.8333333333334</ele><time>2026-05-02T13:03:06.618Z</time></trkpt><trkpt lat="42.0650201" lon="13.6317607"><ele>842.0</ele><time>2026-05-02T13:03:08.617Z</time></trkpt><trkpt lat="42.0650537" lon="13.6318377"><ele>843.3333333333334</ele><time>2026-05-02T13:03:09.617Z</time></trkpt><trkpt lat="42.0651014" lon="13.6319605"><ele>844.6666666666667</ele><time>2026-05-02T13:03:11.618Z</time></trkpt><trkpt lat="42.0651369" lon="13.6320609"><ele>846.0</ele><time>2026-05-02T13:03:14.618Z</time></trkpt><trkpt lat="42.0650947" lon="13.631956"><ele>847.3333333333333</ele><time>2026-05-02T13:03:22.618Z</time></trkpt><trkpt lat="42.0650585" lon="13.631872"><ele>848.6666666666666</ele><time>2026-05-02T13:03:23.617Z</time></trkpt><trkpt lat="42.0650188" lon="13.6317669"><ele>850.0</ele><time>2026-05-02T13:03:24.617Z</time></trkpt><trkpt lat="42.0649792" lon="13.6316565"><ele>848.4</ele><time>2026-05-02T13:03:25.617Z</time></trkpt><trkpt lat="42.0649352" lon="13.6315539"><ele>846.8</ele><time>2026-05-02T13:03:26.618Z</time></trkpt><trkpt lat="42.0648865" lon="13.6314538"><ele>845.2</ele><time>2026-05-02T13:03:27.617Z</time></trkpt><trkpt lat="42.0648421" lon="13.6313543"><ele>843.6</ele><time>2026-05-02T13:03:28.617Z</time></trkpt><trkpt lat="42.0648019" lon="13.6312386"><ele>842.0</ele><time>2026-05-02T13:03:29.618Z</time></trkpt><trkpt lat="42.0647635" lon="13.6311228"><ele>842.0000000000001</ele><time>2026-05-02T13:03:30.618Z</time></trkpt><trkpt lat="42.0647261" lon="13.6310124"><ele>842.0</ele><time>2026-05-02T13:03:31.617Z</time></trkpt><trkpt lat="42.0646958" lon="13.6309024"><ele>842.0</ele><time>2026-05-02T13:03:32.617Z</time></trkpt><trkpt lat="42.0646761" lon="13.6307911"><ele>842.0</ele><time>2026-05-02T13:03:33.618Z</time></trkpt><trkpt lat="42.064658" lon="13.6306801"><ele>842.0000000000001</ele><time>2026-05-02T13:03:34.617Z</time></trkpt><trkpt lat="42.0646423" lon="13.6305732"><ele>842.0</ele><time>2026-05-02T13:03:35.618Z</time></trkpt><trkpt lat="42.0646238" lon="13.630468"><ele>842.0</ele><time>2026-05-02T13:03:36.617Z</time></trkpt><trkpt lat="42.0646026" lon="13.6303496"><ele>842.0</ele><time>2026-05-02T13:03:37.618Z</time></trkpt><trkpt lat="42.0645784" lon="13.6302297"><ele>842.0</ele><time>2026-05-02T13:03:38.617Z</time></trkpt><trkpt lat="42.0645524" lon="13.6301103"><ele>842.0</ele><time>2026-05-02T13:03:39.617Z</time></trkpt><trkpt lat="42.0645243" lon="13.629996"><ele>842.0</ele><time>2026-05-02T13:03:40.617Z</time></trkpt><trkpt lat="42.0644914" lon="13.6298815"><ele>841.8333333333334</ele><time>2026-05-02T13:03:41.617Z</time></trkpt><trkpt lat="42.0644519" lon="13.6297704"><ele>841.6666666666667</ele><time>2026-05-02T13:03:42.618Z</time></trkpt><trkpt lat="42.0644126" lon="13.6296665"><ele>841.5</ele><time>2026-05-02T13:03:43.617Z</time></trkpt><trkpt lat="42.0643705" lon="13.6295624"><ele>841.3333333333333</ele><time>2026-05-02T13:03:44.617Z</time></trkpt><trkpt lat="42.0643195" lon="13.6294649"><ele>841.1666666666666</ele><time>2026-05-02T13:03:45.617Z</time></trkpt><trkpt lat="42.0642637" lon="13.6293811"><ele>841.0</ele><time>2026-05-02T13:03:46.618Z</time></trkpt><trkpt lat="42.0642089" lon="13.6293075"><ele>841.1999999999999</ele><time>2026-05-02T13:03:47.617Z</time></trkpt><trkpt lat="42.0641559" lon="13.6292426"><ele>841.4</ele><time>2026-05-02T13:03:48.617Z</time></trkpt><trkpt lat="42.064105" lon="13.6291376"><ele>841.6</ele><time>2026-05-02T13:03:50.618Z</time></trkpt><trkpt lat="42.0641586" lon="13.6290696"><ele>841.8</ele><time>2026-05-02T13:03:53.617Z</time></trkpt><trkpt lat="42.0642971" lon="13.6291166"><ele>842.0</ele><time>2026-05-02T13:03:55.617Z</time></trkpt><trkpt lat="42.0643861" lon="13.6291427"><ele>842.5000000000001</ele><time>2026-05-02T13:03:56.617Z</time></trkpt><trkpt lat="42.064485" lon="13.6291659"><ele>843.0</ele><time>2026-05-02T13:03:57.618Z</time></trkpt><trkpt lat="42.0645672" lon="13.6291803"><ele>843.5</ele><time>2026-05-02T13:03:58.617Z</time></trkpt><trkpt lat="42.0646654" lon="13.6291922"><ele>844.0</ele><time>2026-05-02T13:04:00.617Z</time></trkpt><trkpt lat="42.0647348" lon="13.629172"><ele>844.5000000000001</ele><time>2026-05-02T13:04:04.617Z</time></trkpt><trkpt lat="42.0647246" lon="13.6290732"><ele>845.0</ele><time>2026-05-02T13:04:06.617Z</time></trkpt><trkpt lat="42.0646779" lon="13.6289722"><ele>845.0</ele><time>2026-05-02T13:04:07.617Z</time></trkpt><trkpt lat="42.0646194" lon="13.6288604"><ele>845.0</ele><time>2026-05-02T13:04:08.617Z</time></trkpt><trkpt lat="42.0645615" lon="13.6287562"><ele>845.0</ele><time>2026-05-02T13:04:09.617Z</time></trkpt><trkpt lat="42.0644997" lon="13.6286587"><ele>845.0</ele><time>2026-05-02T13:04:10.617Z</time></trkpt><trkpt lat="42.0644368" lon="13.6285736"><ele>845.0</ele><time>2026-05-02T13:04:11.617Z</time></trkpt><trkpt lat="42.0643739" lon="13.6285044"><ele>845.0000000000001</ele><time>2026-05-02T13:04:12.617Z</time></trkpt><trkpt lat="42.0643191" lon="13.6284593"><ele>845.0</ele><time>2026-05-02T13:04:13.617Z</time></trkpt><trkpt lat="42.0642571" lon="13.6284135"><ele>845.0</ele><time>2026-05-02T13:04:15.617Z</time></trkpt><trkpt lat="42.0643198" lon="13.628519"><ele>845.0</ele><time>2026-05-02T13:04:23.617Z</time></trkpt><trkpt lat="42.0643789" lon="13.6285654"><ele>845.0000000000001</ele><time>2026-05-02T13:04:24.617Z</time></trkpt><trkpt lat="42.0644287" lon="13.628624"><ele>845.0</ele><time>2026-05-02T13:04:25.617Z</time></trkpt><trkpt lat="42.0645154" lon="13.628762"><ele>845.0</ele><time>2026-05-02T13:04:27.618Z</time></trkpt><trkpt lat="42.0645786" lon="13.628873"><ele>845.0</ele><time>2026-05-02T13:04:28.618Z</time></trkpt><trkpt lat="42.0646511" lon="13.6290124"><ele>845.0</ele><time>2026-05-02T13:04:29.618Z</time></trkpt><trkpt lat="42.0647424" lon="13.629182"><ele>845.0</ele><time>2026-05-02T13:04:30.618Z</time></trkpt><trkpt lat="42.0648454" lon="13.6293744"><ele>846.0</ele><time>2026-05-02T13:04:31.617Z</time></trkpt><trkpt lat="42.0649553" lon="13.6295858"><ele>847.0</ele><time>2026-05-02T13:04:32.617Z</time></trkpt><trkpt lat="42.0650662" lon="13.6298004"><ele>848.0</ele><time>2026-05-02T13:04:33.618Z</time></trkpt><trkpt lat="42.0651811" lon="13.6300252"><ele>848.0</ele><time>2026-05-02T13:04:34.617Z</time></trkpt><trkpt lat="42.0653002" lon="13.6302635"><ele>848.0</ele><time>2026-05-02T13:04:35.617Z</time></trkpt><trkpt lat="42.065421" lon="13.6305045"><ele>848.0</ele><time>2026-05-02T13:04:36.617Z</time></trkpt><trkpt lat="42.0655398" lon="13.6307369"><ele>848.3333333333334</ele><time>2026-05-02T13:04:37.617Z</time></trkpt><trkpt lat="42.0656529" lon="13.6309575"><ele>848.6666666666667</ele><time>2026-05-02T13:04:38.617Z</time></trkpt><trkpt lat="42.0657584" lon="13.6311656"><ele>849.0</ele><time>2026-05-02T13:04:39.618Z</time></trkpt><trkpt lat="42.0658523" lon="13.6313524"><ele>851.5</ele><time>2026-05-02T13:04:40.617Z</time></trkpt><trkpt lat="42.0659381" lon="13.6315097"><ele>854.0</ele><time>2026-05-02T13:04:41.618Z</time></trkpt><trkpt lat="42.0660249" lon="13.6316309"><ele>856.5</ele><time>2026-05-02T13:04:42.617Z</time></trkpt><trkpt lat="42.0661206" lon="13.631711"><ele>859.0</ele><time>2026-05-02T13:04:43.617Z</time></trkpt><trkpt lat="42.0662266" lon="13.6317523"><ele>859.0</ele><time>2026-05-02T13:04:44.617Z</time></trkpt><trkpt lat="42.0663377" lon="13.6317536"><ele>859.0</ele><time>2026-05-02T13:04:45.617Z</time></trkpt><trkpt lat="42.0664514" lon="13.6317326"><ele>859.0</ele><time>2026-05-02T13:04:46.618Z</time></trkpt><trkpt lat="42.0665671" lon="13.6316995"><ele>859.0</ele><time>2026-05-02T13:04:47.617Z</time></trkpt><trkpt lat="42.0666856" lon="13.6316609"><ele>860.25</ele><time>2026-05-02T13:04:48.617Z</time></trkpt><trkpt lat="42.0668079" lon="13.6316288"><ele>861.5</ele><time>2026-05-02T13:04:49.617Z</time></trkpt><trkpt lat="42.0669321" lon="13.6316014"><ele>862.75</ele><time>2026-05-02T13:04:50.617Z</time></trkpt><trkpt lat="42.0670502" lon="13.6315713"><ele>864.0</ele><time>2026-05-02T13:04:51.617Z</time></trkpt><trkpt lat="42.0671568" lon="13.6315395"><ele>864.0</ele><time>2026-05-02T13:04:52.617Z</time></trkpt><trkpt lat="42.0672543" lon="13.6315089"><ele>864.0</ele><time>2026-05-02T13:04:53.618Z</time></trkpt><trkpt lat="42.0673496" lon="13.6314776"><ele>864.0</ele><time>2026-05-02T13:04:54.617Z</time></trkpt><trkpt lat="42.067465" lon="13.6314401"><ele>864.0</ele><time>2026-05-02T13:04:55.617Z</time></trkpt><trkpt lat="42.067596" lon="13.6313968"><ele>865.0</ele><time>2026-05-02T13:04:56.618Z</time></trkpt><trkpt lat="42.0677108" lon="13.6313591"><ele>866.0000000000001</ele><time>2026-05-02T13:04:57.618Z</time></trkpt><trkpt lat="42.0678124" lon="13.63133"><ele>867.0000000000001</ele><time>2026-05-02T13:04:58.618Z</time></trkpt><trkpt lat="42.0678968" lon="13.6312912"><ele>868.0</ele><time>2026-05-02T13:05:00.618Z</time></trkpt><trkpt lat="42.0679707" lon="13.6312316"><ele>869.0</ele><time>2026-05-02T13:05:32.618Z</time></trkpt><trkpt lat="42.0680514" lon="13.6311655"><ele>868.5</ele><time>2026-05-02T13:05:33.617Z</time></trkpt><trkpt lat="42.0681527" lon="13.6310915"><ele>868.0</ele><time>2026-05-02T13:05:34.617Z</time></trkpt><trkpt lat="42.068272" lon="13.6310096"><ele>867.5</ele><time>2026-05-02T13:05:35.617Z</time></trkpt><trkpt lat="42.0684023" lon="13.6309446"><ele>867.0</ele><time>2026-05-02T13:05:36.618Z</time></trkpt><trkpt lat="42.0685363" lon="13.6309399"><ele>867.0</ele><time>2026-05-02T13:05:37.618Z</time></trkpt><trkpt lat="42.0686716" lon="13.630971"><ele>867.0</ele><time>2026-05-02T13:05:38.617Z</time></trkpt><trkpt lat="42.0688028" lon="13.6310307"><ele>867.0</ele><time>2026-05-02T13:05:39.617Z</time></trkpt><trkpt lat="42.0689068" lon="13.6311382"><ele>867.0</ele><time>2026-05-02T13:05:40.614Z</time></trkpt><trkpt lat="42.0690059" lon="13.6312865"><ele>868.3333333333333</ele><time>2026-05-02T13:05:41.598Z</time></trkpt><trkpt lat="42.0690786" lon="13.6314681"><ele>869.6666666666666</ele><time>2026-05-02T13:05:42.606Z</time></trkpt><trkpt lat="42.0691422" lon="13.6316933"><ele>871.0</ele><time>2026-05-02T13:05:43.598Z</time></trkpt><trkpt lat="42.0692035" lon="13.631941"><ele>873.3333333333333</ele><time>2026-05-02T13:05:44.6Z</time></trkpt><trkpt lat="42.0692694" lon="13.6322039"><ele>875.6666666666667</ele><time>2026-05-02T13:05:45.601Z</time></trkpt><trkpt lat="42.0693418" lon="13.6324731"><ele>878.0</ele><time>2026-05-02T13:05:46.602Z</time></trkpt><trkpt lat="42.0694119" lon="13.6327388"><ele>880.0</ele><time>2026-05-02T13:05:47.601Z</time></trkpt><trkpt lat="42.0694802" lon="13.6329922"><ele>882.0</ele><time>2026-05-02T13:05:48.617Z</time></trkpt><trkpt lat="42.0695403" lon="13.6332484"><ele>884.0</ele><time>2026-05-02T13:05:49.617Z</time></trkpt><trkpt lat="42.0695923" lon="13.6334923"><ele>884.8000000000001</ele><time>2026-05-02T13:05:50.617Z</time></trkpt><trkpt lat="42.0696227" lon="13.6336918"><ele>885.6000000000001</ele><time>2026-05-02T13:05:51.617Z</time></trkpt><trkpt lat="42.0696352" lon="13.6338319"><ele>886.4</ele><time>2026-05-02T13:05:52.617Z</time></trkpt><trkpt lat="42.0696323" lon="13.6339189"><ele>887.2</ele><time>2026-05-02T13:05:53.617Z</time></trkpt><trkpt lat="42.0695623" lon="13.6339354"><ele>888.0</ele><time>2026-05-02T13:05:56.618Z</time></trkpt><trkpt lat="42.0694961" lon="13.6338905"><ele>888.0</ele><time>2026-05-02T13:05:58.617Z</time></trkpt><trkpt lat="42.0694224" lon="13.6338512"><ele>888.0</ele><time>2026-05-02T13:06:00.617Z</time></trkpt><trkpt lat="42.0693318" lon="13.6338271"><ele>888.0</ele><time>2026-05-02T13:06:02.618Z</time></trkpt><trkpt lat="42.0692515" lon="13.6338836"><ele>888.0</ele><time>2026-05-02T13:06:05.617Z</time></trkpt><trkpt lat="42.0691722" lon="13.6339978"><ele>888.0</ele><time>2026-05-02T13:06:07.617Z</time></trkpt><trkpt lat="42.0691229" lon="13.634075"><ele>887.5</ele><time>2026-05-02T13:06:08.618Z</time></trkpt><trkpt lat="42.0690651" lon="13.6341573"><ele>887.0</ele><time>2026-05-02T13:06:09.617Z</time></trkpt><trkpt lat="42.0690032" lon="13.6342368"><ele>886.5</ele><time>2026-05-02T13:06:10.617Z</time></trkpt><trkpt lat="42.0689381" lon="13.6343098"><ele>886.0</ele><time>2026-05-02T13:06:11.618Z</time></trkpt><trkpt lat="42.0688746" lon="13.6343732"><ele>885.5</ele><time>2026-05-02T13:06:12.618Z</time></trkpt><trkpt lat="42.0688092" lon="13.6344438"><ele>885.0</ele><time>2026-05-02T13:06:13.617Z</time></trkpt><trkpt lat="42.0687463" lon="13.6345168"><ele>885.0</ele><time>2026-05-02T13:06:14.617Z</time></trkpt><trkpt lat="42.0686814" lon="13.6345925"><ele>885.0</ele><time>2026-05-02T13:06:15.618Z</time></trkpt><trkpt lat="42.0686167" lon="13.6346706"><ele>885.0</ele><time>2026-05-02T13:06:16.617Z</time></trkpt><trkpt lat="42.0685551" lon="13.6347436"><ele>885.0</ele><time>2026-05-02T13:06:17.617Z</time></trkpt><trkpt lat="42.0684933" lon="13.6348111"><ele>885.0</ele><time>2026-05-02T13:06:18.618Z</time></trkpt><trkpt lat="42.0684273" lon="13.6348789"><ele>885.0</ele><time>2026-05-02T13:06:19.617Z</time></trkpt><trkpt lat="42.0683583" lon="13.6349489"><ele>885.0</ele><time>2026-05-02T13:06:20.617Z</time></trkpt><trkpt lat="42.0682945" lon="13.6350146"><ele>885.0</ele><time>2026-05-02T13:06:21.617Z</time></trkpt><trkpt lat="42.068232" lon="13.6350813"><ele>885.0</ele><time>2026-05-02T13:06:22.617Z</time></trkpt><trkpt lat="42.0681755" lon="13.635147"><ele>885.0</ele><time>2026-05-02T13:06:23.618Z</time></trkpt><trkpt lat="42.0681181" lon="13.6352106"><ele>885.0</ele><time>2026-05-02T13:06:24.618Z</time></trkpt><trkpt lat="42.0680633" lon="13.6352704"><ele>885.0</ele><time>2026-05-02T13:06:25.617Z</time></trkpt><trkpt lat="42.0680114" lon="13.6353292"><ele>885.0</ele><time>2026-05-02T13:06:26.617Z</time></trkpt><trkpt lat="42.0679593" lon="13.6353843"><ele>884.1428571428571</ele><time>2026-05-02T13:06:27.617Z</time></trkpt><trkpt lat="42.0679047" lon="13.6354347"><ele>883.2857142857142</ele><time>2026-05-02T13:06:28.617Z</time></trkpt><trkpt lat="42.0678442" lon="13.6354933"><ele>882.4285714285714</ele><time>2026-05-02T13:06:29.618Z</time></trkpt><trkpt lat="42.0677838" lon="13.6355504"><ele>881.5714285714286</ele><time>2026-05-02T13:06:30.617Z</time></trkpt><trkpt lat="42.0677265" lon="13.6356043"><ele>880.7142857142858</ele><time>2026-05-02T13:06:31.618Z</time></trkpt><trkpt lat="42.067669" lon="13.6356571"><ele>879.8571428571429</ele><time>2026-05-02T13:06:32.618Z</time></trkpt><trkpt lat="42.0676119" lon="13.635704"><ele>879.0</ele><time>2026-05-02T13:06:33.617Z</time></trkpt><trkpt lat="42.0675567" lon="13.6357485"><ele>879.0</ele><time>2026-05-02T13:06:34.618Z</time></trkpt><trkpt lat="42.067454" lon="13.6358138"><ele>879.0000000000001</ele><time>2026-05-02T13:06:36.617Z</time></trkpt><trkpt lat="42.0673548" lon="13.6358304"><ele>879.0000000000001</ele><time>2026-05-02T13:06:38.618Z</time></trkpt><trkpt lat="42.0672714" lon="13.6357773"><ele>879.0</ele><time>2026-05-02T13:06:40.617Z</time></trkpt><trkpt lat="42.0672146" lon="13.6356693"><ele>879.0</ele><time>2026-05-02T13:06:42.617Z</time></trkpt><trkpt lat="42.0671834" lon="13.6355434"><ele>877.4000000000001</ele><time>2026-05-02T13:06:44.618Z</time></trkpt><trkpt lat="42.0671415" lon="13.6353618"><ele>875.8000000000001</ele><time>2026-05-02T13:06:46.617Z</time></trkpt><trkpt lat="42.0671127" lon="13.635247"><ele>874.1999999999999</ele><time>2026-05-02T13:06:47.617Z</time></trkpt><trkpt lat="42.0670769" lon="13.6351267"><ele>872.5999999999999</ele><time>2026-05-02T13:06:48.617Z</time></trkpt><trkpt lat="42.0670354" lon="13.6350084"><ele>871.0</ele><time>2026-05-02T13:06:49.617Z</time></trkpt><trkpt lat="42.0669916" lon="13.634897"><ele>870.6666666666666</ele><time>2026-05-02T13:06:50.618Z</time></trkpt><trkpt lat="42.0669395" lon="13.6347865"><ele>870.3333333333333</ele><time>2026-05-02T13:06:51.618Z</time></trkpt><trkpt lat="42.0668807" lon="13.6346865"><ele>870.0</ele><time>2026-05-02T13:06:52.618Z</time></trkpt><trkpt lat="42.0668238" lon="13.6346002"><ele>869.6666666666667</ele><time>2026-05-02T13:06:53.618Z</time></trkpt><trkpt lat="42.0667696" lon="13.6345175"><ele>869.3333333333334</ele><time>2026-05-02T13:06:54.617Z</time></trkpt><trkpt lat="42.0667152" lon="13.6344333"><ele>869.0</ele><time>2026-05-02T13:06:55.617Z</time></trkpt><trkpt lat="42.0666556" lon="13.634349"><ele>868.2</ele><time>2026-05-02T13:06:56.617Z</time></trkpt><trkpt lat="42.0665863" lon="13.6342696"><ele>867.4000000000001</ele><time>2026-05-02T13:06:57.617Z</time></trkpt><trkpt lat="42.066507" lon="13.6341933"><ele>866.6</ele><time>2026-05-02T13:06:58.618Z</time></trkpt><trkpt lat="42.0664124" lon="13.6341019"><ele>865.8</ele><time>2026-05-02T13:06:59.617Z</time></trkpt><trkpt lat="42.0663168" lon="13.6339922"><ele>865.0</ele><time>2026-05-02T13:07:00.617Z</time></trkpt><trkpt lat="42.0662361" lon="13.6338844"><ele>865.0</ele><time>2026-05-02T13:07:01.618Z</time></trkpt><trkpt lat="42.0661564" lon="13.6337897"><ele>865.0</ele><time>2026-05-02T13:07:02.618Z</time></trkpt><trkpt lat="42.0660655" lon="13.6337076"><ele>865.0</ele><time>2026-05-02T13:07:03.617Z</time></trkpt><trkpt lat="42.0659674" lon="13.6336316"><ele>865.0</ele><time>2026-05-02T13:07:04.618Z</time></trkpt><trkpt lat="42.0658719" lon="13.633564"><ele>865.0</ele><time>2026-05-02T13:07:05.618Z</time></trkpt><trkpt lat="42.0657898" lon="13.6335083"><ele>863.5714285714286</ele><time>2026-05-02T13:07:06.618Z</time></trkpt><trkpt lat="42.0657208" lon="13.633467"><ele>862.1428571428571</ele><time>2026-05-02T13:07:07.617Z</time></trkpt><trkpt lat="42.0656558" lon="13.6334259"><ele>860.7142857142858</ele><time>2026-05-02T13:07:08.618Z</time></trkpt><trkpt lat="42.0655952" lon="13.6333688"><ele>859.2857142857142</ele><time>2026-05-02T13:07:09.617Z</time></trkpt><trkpt lat="42.0655462" lon="13.6332975"><ele>857.8571428571428</ele><time>2026-05-02T13:07:10.617Z</time></trkpt><trkpt lat="42.0655058" lon="13.6332187"><ele>856.4285714285714</ele><time>2026-05-02T13:07:11.617Z</time></trkpt><trkpt lat="42.0654732" lon="13.633133"><ele>855.0</ele><time>2026-05-02T13:07:12.618Z</time></trkpt><trkpt lat="42.0654456" lon="13.6330371"><ele>855.0</ele><time>2026-05-02T13:07:13.617Z</time></trkpt><trkpt lat="42.0654194" lon="13.6329351"><ele>855.0</ele><time>2026-05-02T13:07:14.618Z</time></trkpt><trkpt lat="42.0653916" lon="13.6328302"><ele>855.0</ele><time>2026-05-02T13:07:15.618Z</time></trkpt><trkpt lat="42.0653584" lon="13.6327251"><ele>855.0</ele><time>2026-05-02T13:07:16.618Z</time></trkpt><trkpt lat="42.065323" lon="13.6326206"><ele>855.0</ele><time>2026-05-02T13:07:17.617Z</time></trkpt><trkpt lat="42.0652891" lon="13.6325139"><ele>855.0</ele><time>2026-05-02T13:07:18.618Z</time></trkpt><trkpt lat="42.0652558" lon="13.6324057"><ele>854.3333333333334</ele><time>2026-05-02T13:07:19.617Z</time></trkpt><trkpt lat="42.0652204" lon="13.6323004"><ele>853.6666666666667</ele><time>2026-05-02T13:07:20.617Z</time></trkpt><trkpt lat="42.0651848" lon="13.6321984"><ele>853.0</ele><time>2026-05-02T13:07:21.617Z</time></trkpt><trkpt lat="42.0651499" lon="13.6320985"><ele>852.3333333333334</ele><time>2026-05-02T13:07:22.617Z</time></trkpt><trkpt lat="42.0651134" lon="13.6320015"><ele>851.6666666666667</ele><time>2026-05-02T13:07:23.617Z</time></trkpt><trkpt lat="42.0650753" lon="13.6319072"><ele>851.0</ele><time>2026-05-02T13:07:24.617Z</time></trkpt><trkpt lat="42.0650389" lon="13.6318157"><ele>850.8333333333334</ele><time>2026-05-02T13:07:25.617Z</time></trkpt><trkpt lat="42.0650027" lon="13.6317244"><ele>850.6666666666667</ele><time>2026-05-02T13:07:26.617Z</time></trkpt><trkpt lat="42.0649644" lon="13.6316296"><ele>850.5</ele><time>2026-05-02T13:07:27.618Z</time></trkpt><trkpt lat="42.0649257" lon="13.6315382"><ele>850.3333333333333</ele><time>2026-05-02T13:07:28.617Z</time></trkpt><trkpt lat="42.0648867" lon="13.6314532"><ele>850.1666666666666</ele><time>2026-05-02T13:07:29.618Z</time></trkpt><trkpt lat="42.0648499" lon="13.6313695"><ele>850.0</ele><time>2026-05-02T13:07:30.617Z</time></trkpt><trkpt lat="42.0648149" lon="13.6312841"><ele>848.4</ele><time>2026-05-02T13:07:31.617Z</time></trkpt><trkpt lat="42.0647814" lon="13.6311827"><ele>846.8</ele><time>2026-05-02T13:07:32.617Z</time></trkpt><trkpt lat="42.0647459" lon="13.6310663"><ele>845.2</ele><time>2026-05-02T13:07:33.617Z</time></trkpt><trkpt lat="42.0647127" lon="13.6309444"><ele>843.6</ele><time>2026-05-02T13:07:34.617Z</time></trkpt><trkpt lat="42.0646853" lon="13.6308077"><ele>842.0</ele><time>2026-05-02T13:07:35.617Z</time></trkpt><trkpt lat="42.0646589" lon="13.6306535"><ele>842.0</ele><time>2026-05-02T13:07:36.617Z</time></trkpt><trkpt lat="42.0646249" lon="13.6304777"><ele>842.0</ele><time>2026-05-02T13:07:37.617Z</time></trkpt><trkpt lat="42.0645866" lon="13.6303051"><ele>842.0</ele><time>2026-05-02T13:07:38.617Z</time></trkpt><trkpt lat="42.0645471" lon="13.6301537"><ele>842.0</ele><time>2026-05-02T13:07:39.618Z</time></trkpt><trkpt lat="42.0645072" lon="13.6300091"><ele>841.8</ele><time>2026-05-02T13:07:40.618Z</time></trkpt><trkpt lat="42.064468" lon="13.6298664"><ele>841.6</ele><time>2026-05-02T13:07:41.617Z</time></trkpt><trkpt lat="42.0644272" lon="13.6297254"><ele>841.4</ele><time>2026-05-02T13:07:42.617Z</time></trkpt><trkpt lat="42.0643815" lon="13.6295948"><ele>841.1999999999999</ele><time>2026-05-02T13:07:43.617Z</time></trkpt><trkpt lat="42.0643281" lon="13.6294786"><ele>841.0</ele><time>2026-05-02T13:07:44.618Z</time></trkpt><trkpt lat="42.0642659" lon="13.6293785"><ele>841.1999999999999</ele><time>2026-05-02T13:07:45.617Z</time></trkpt><trkpt lat="42.0642003" lon="13.6292933"><ele>841.4</ele><time>2026-05-02T13:07:46.617Z</time></trkpt><trkpt lat="42.0641428" lon="13.6292197"><ele>841.6</ele><time>2026-05-02T13:07:47.617Z</time></trkpt><trkpt lat="42.0641008" lon="13.6291152"><ele>841.8</ele><time>2026-05-02T13:07:49.617Z</time></trkpt><trkpt lat="42.0641868" lon="13.6290743"><ele>842.0</ele><time>2026-05-02T13:07:52.617Z</time></trkpt><trkpt lat="42.0643241" lon="13.6291166"><ele>842.6</ele><time>2026-05-02T13:07:54.617Z</time></trkpt><trkpt lat="42.0644135" lon="13.629133"><ele>843.2</ele><time>2026-05-02T13:07:55.618Z</time></trkpt><trkpt lat="42.0645083" lon="13.6291507"><ele>843.8</ele><time>2026-05-02T13:07:56.617Z</time></trkpt><trkpt lat="42.0646007" lon="13.6291744"><ele>844.4</ele><time>2026-05-02T13:07:57.618Z</time></trkpt><trkpt lat="42.0646765" lon="13.6292037"><ele>845.0</ele><time>2026-05-02T13:07:58.617Z</time></trkpt><trkpt lat="42.0647673" lon="13.6292638"><ele>845.0000000000001</ele><time>2026-05-02T13:08:00.617Z</time></trkpt><trkpt lat="42.0648491" lon="13.6293711"><ele>845.0</ele><time>2026-05-02T13:08:02.617Z</time></trkpt><trkpt lat="42.0648974" lon="13.6294511"><ele>845.0</ele><time>2026-05-02T13:08:03.617Z</time></trkpt><trkpt lat="42.0649598" lon="13.6295304"><ele>845.0</ele><time>2026-05-02T13:08:04.618Z</time></trkpt><trkpt lat="42.0650275" lon="13.6295983"><ele>845.0000000000001</ele><time>2026-05-02T13:08:05.617Z</time></trkpt><trkpt lat="42.0650888" lon="13.6296599"><ele>845.0</ele><time>2026-05-02T13:08:06.618Z</time></trkpt><trkpt lat="42.0651456" lon="13.6297169"><ele>845.5000000000001</ele><time>2026-05-02T13:08:07.618Z</time></trkpt><trkpt lat="42.0652046" lon="13.6297645"><ele>846.0</ele><time>2026-05-02T13:08:08.618Z</time></trkpt><trkpt lat="42.065275" lon="13.6297911"><ele>846.5</ele><time>2026-05-02T13:08:09.618Z</time></trkpt><trkpt lat="42.0653522" lon="13.6297961"><ele>847.0</ele><time>2026-05-02T13:08:10.617Z</time></trkpt><trkpt lat="42.0654246" lon="13.6297887"><ele>847.5000000000001</ele><time>2026-05-02T13:08:11.617Z</time></trkpt><trkpt lat="42.0654907" lon="13.6297814"><ele>848.0</ele><time>2026-05-02T13:08:12.617Z</time></trkpt><trkpt lat="42.0656124" lon="13.629751"><ele>848.0000000000001</ele><time>2026-05-02T13:08:14.617Z</time></trkpt><trkpt lat="42.0657389" lon="13.6297309"><ele>848.0</ele><time>2026-05-02T13:08:16.617Z</time></trkpt><trkpt lat="42.0658544" lon="13.6296965"><ele>848.0</ele><time>2026-05-02T13:08:18.617Z</time></trkpt><trkpt lat="42.0659159" lon="13.6296767"><ele>848.0</ele><time>2026-05-02T13:08:19.617Z</time></trkpt><trkpt lat="42.0659827" lon="13.6296508"><ele>848.0000000000001</ele><time>2026-05-02T13:08:20.617Z</time></trkpt><trkpt lat="42.0660508" lon="13.6296355"><ele>848.0</ele><time>2026-05-02T13:08:21.617Z</time></trkpt><trkpt lat="42.0661233" lon="13.6296311"><ele>848.1666666666667</ele><time>2026-05-02T13:08:22.617Z</time></trkpt><trkpt lat="42.0662001" lon="13.6296254"><ele>848.3333333333334</ele><time>2026-05-02T13:08:23.617Z</time></trkpt><trkpt lat="42.0662787" lon="13.629617"><ele>848.5</ele><time>2026-05-02T13:08:24.617Z</time></trkpt><trkpt lat="42.066359" lon="13.6296118"><ele>848.6666666666667</ele><time>2026-05-02T13:08:25.618Z</time></trkpt><trkpt lat="42.0664423" lon="13.6296027"><ele>848.8333333333334</ele><time>2026-05-02T13:08:26.618Z</time></trkpt><trkpt lat="42.0665304" lon="13.629581"><ele>849.0</ele><time>2026-05-02T13:08:27.617Z</time></trkpt><trkpt lat="42.0666222" lon="13.6295504"><ele>848.2</ele><time>2026-05-02T13:08:28.617Z</time></trkpt><trkpt lat="42.0667168" lon="13.6295123"><ele>847.4000000000001</ele><time>2026-05-02T13:08:29.617Z</time></trkpt><trkpt lat="42.0668084" lon="13.6294695"><ele>846.6</ele><time>2026-05-02T13:08:30.618Z</time></trkpt><trkpt lat="42.0668957" lon="13.6294253"><ele>845.8</ele><time>2026-05-02T13:08:31.617Z</time></trkpt><trkpt lat="42.0669795" lon="13.6293793"><ele>845.0</ele><time>2026-05-02T13:08:32.617Z</time></trkpt><trkpt lat="42.0670599" lon="13.6293346"><ele>843.3333333333334</ele><time>2026-05-02T13:08:33.617Z</time></trkpt><trkpt lat="42.0671344" lon="13.6292833"><ele>841.6666666666667</ele><time>2026-05-02T13:08:34.617Z</time></trkpt><trkpt lat="42.0672039" lon="13.6292278"><ele>840.0</ele><time>2026-05-02T13:08:35.617Z</time></trkpt><trkpt lat="42.0672712" lon="13.6291753"><ele>838.3333333333333</ele><time>2026-05-02T13:08:36.617Z</time></trkpt><trkpt lat="42.0673401" lon="13.6291346"><ele>836.6666666666666</ele><time>2026-05-02T13:08:37.617Z</time></trkpt><trkpt lat="42.0674182" lon="13.6291071"><ele>835.0</ele><time>2026-05-02T13:08:38.618Z</time></trkpt><trkpt lat="42.0675038" lon="13.629087"><ele>834.1666666666666</ele><time>2026-05-02T13:08:39.617Z</time></trkpt><trkpt lat="42.0675954" lon="13.629064"><ele>833.3333333333333</ele><time>2026-05-02T13:08:40.617Z</time></trkpt><trkpt lat="42.0676864" lon="13.6290309"><ele>832.5</ele><time>2026-05-02T13:08:41.617Z</time></trkpt><trkpt lat="42.0677706" lon="13.6289936"><ele>831.6666666666667</ele><time>2026-05-02T13:08:42.617Z</time></trkpt><trkpt lat="42.0678523" lon="13.6289548"><ele>830.8333333333334</ele><time>2026-05-02T13:08:43.617Z</time></trkpt><trkpt lat="42.0679313" lon="13.628912"><ele>830.0</ele><time>2026-05-02T13:08:44.618Z</time></trkpt><trkpt lat="42.068007" lon="13.6288721"><ele>830.0000000000001</ele><time>2026-05-02T13:08:45.617Z</time></trkpt><trkpt lat="42.0680786" lon="13.6288371"><ele>830.0</ele><time>2026-05-02T13:08:46.618Z</time></trkpt><trkpt lat="42.0681468" lon="13.628806"><ele>830.0</ele><time>2026-05-02T13:08:47.618Z</time></trkpt><trkpt lat="42.0682152" lon="13.6287718"><ele>830.0</ele><time>2026-05-02T13:08:48.618Z</time></trkpt><trkpt lat="42.0682799" lon="13.6287236"><ele>830.0000000000001</ele><time>2026-05-02T13:08:49.617Z</time></trkpt><trkpt lat="42.0683419" lon="13.6286552"><ele>830.0</ele><time>2026-05-02T13:08:50.617Z</time></trkpt><trkpt lat="42.0684022" lon="13.6285724"><ele>829.3333333333334</ele><time>2026-05-02T13:08:51.617Z</time></trkpt><trkpt lat="42.0684604" lon="13.628484"><ele>828.6666666666667</ele><time>2026-05-02T13:08:52.617Z</time></trkpt><trkpt lat="42.0685143" lon="13.6283871"><ele>828.0</ele><time>2026-05-02T13:08:53.617Z</time></trkpt><trkpt lat="42.0685638" lon="13.628288"><ele>827.3333333333333</ele><time>2026-05-02T13:08:54.617Z</time></trkpt><trkpt lat="42.0686123" lon="13.6281927"><ele>826.6666666666666</ele><time>2026-05-02T13:08:55.618Z</time></trkpt><trkpt lat="42.0686627" lon="13.6280974"><ele>826.0</ele><time>2026-05-02T13:08:56.617Z</time></trkpt><trkpt lat="42.0687076" lon="13.6279948"><ele>825.9999999999999</ele><time>2026-05-02T13:08:57.617Z</time></trkpt><trkpt lat="42.0687465" lon="13.6278907"><ele>826.0</ele><time>2026-05-02T13:08:58.618Z</time></trkpt><trkpt lat="42.0687876" lon="13.6277866"><ele>826.0</ele><time>2026-05-02T13:08:59.618Z</time></trkpt><trkpt lat="42.0688291" lon="13.627682"><ele>826.0</ele><time>2026-05-02T13:09:00.617Z</time></trkpt><trkpt lat="42.0688695" lon="13.6275799"><ele>825.9999999999999</ele><time>2026-05-02T13:09:01.617Z</time></trkpt><trkpt lat="42.06891" lon="13.6274771"><ele>826.0</ele><time>2026-05-02T13:09:02.618Z</time></trkpt><trkpt lat="42.0689527" lon="13.6273721"><ele>824.9999999999999</ele><time>2026-05-02T13:09:03.617Z</time></trkpt><trkpt lat="42.0689984" lon="13.6272674"><ele>824.0</ele><time>2026-05-02T13:09:04.617Z</time></trkpt><trkpt lat="42.0690496" lon="13.6271684"><ele>823.0</ele><time>2026-05-02T13:09:05.618Z</time></trkpt><trkpt lat="42.0691035" lon="13.627072"><ele>822.0</ele><time>2026-05-02T13:09:06.617Z</time></trkpt><trkpt lat="42.0691529" lon="13.626973"><ele>820.9999999999999</ele><time>2026-05-02T13:09:07.617Z</time></trkpt><trkpt lat="42.0692012" lon="13.6268737"><ele>820.0</ele><time>2026-05-02T13:09:08.617Z</time></trkpt><trkpt lat="42.0692547" lon="13.6267761"><ele>822.0</ele><time>2026-05-02T13:09:09.618Z</time></trkpt><trkpt lat="42.0693057" lon="13.6266838"><ele>824.0</ele><time>2026-05-02T13:09:10.618Z</time></trkpt><trkpt lat="42.0693487" lon="13.6266016"><ele>826.0</ele><time>2026-05-02T13:09:11.617Z</time></trkpt><trkpt lat="42.0693845" lon="13.6265281"><ele>828.0</ele><time>2026-05-02T13:09:12.617Z</time></trkpt><trkpt lat="42.0694195" lon="13.6264488"><ele>830.0</ele><time>2026-05-02T13:09:13.617Z</time></trkpt><trkpt lat="42.0694528" lon="13.6263643"><ele>832.0</ele><time>2026-05-02T13:09:14.618Z</time></trkpt><trkpt lat="42.0694826" lon="13.6262838"><ele>834.0</ele><time>2026-05-02T13:09:15.617Z</time></trkpt><trkpt lat="42.0695059" lon="13.6262036"><ele>834.2</ele><time>2026-05-02T13:09:16.617Z</time></trkpt><trkpt lat="42.069535" lon="13.6260372"><ele>834.4000000000001</ele><time>2026-05-02T13:09:18.617Z</time></trkpt><trkpt lat="42.0695411" lon="13.6259459"><ele>834.6</ele><time>2026-05-02T13:09:19.617Z</time></trkpt><trkpt lat="42.0695483" lon="13.6258594"><ele>834.8</ele><time>2026-05-02T13:09:20.618Z</time></trkpt><trkpt lat="42.0695942" lon="13.625718"><ele>835.0</ele><time>2026-05-02T13:09:22.618Z</time></trkpt><trkpt lat="42.0696718" lon="13.6256048"><ele>835.0000000000001</ele><time>2026-05-02T13:09:24.617Z</time></trkpt><trkpt lat="42.0697196" lon="13.6255409"><ele>835.0</ele><time>2026-05-02T13:09:25.617Z</time></trkpt><trkpt lat="42.0697686" lon="13.6254737"><ele>835.0</ele><time>2026-05-02T13:09:26.617Z</time></trkpt><trkpt lat="42.0698147" lon="13.6254058"><ele>835.0</ele><time>2026-05-02T13:09:27.617Z</time></trkpt><trkpt lat="42.0698589" lon="13.6253329"><ele>835.0</ele><time>2026-05-02T13:09:28.617Z</time></trkpt><trkpt lat="42.0699014" lon="13.6252545"><ele>835.0000000000001</ele><time>2026-05-02T13:09:29.617Z</time></trkpt><trkpt lat="42.0699441" lon="13.6251736"><ele>835.0</ele><time>2026-05-02T13:09:30.617Z</time></trkpt><trkpt lat="42.0699877" lon="13.6250876"><ele>836.9999999999999</ele><time>2026-05-02T13:09:31.617Z</time></trkpt><trkpt lat="42.070029" lon="13.6249995"><ele>839.0</ele><time>2026-05-02T13:09:32.617Z</time></trkpt><trkpt lat="42.0700694" lon="13.6249156"><ele>841.0</ele><time>2026-05-02T13:09:33.617Z</time></trkpt><trkpt lat="42.0701106" lon="13.624825"><ele>843.0</ele><time>2026-05-02T13:09:34.617Z</time></trkpt><trkpt lat="42.0701536" lon="13.6247247"><ele>844.9999999999999</ele><time>2026-05-02T13:09:35.617Z</time></trkpt><trkpt lat="42.0701973" lon="13.6246204"><ele>847.0</ele><time>2026-05-02T13:09:36.617Z</time></trkpt><trkpt lat="42.0702432" lon="13.6245102"><ele>847.4000000000001</ele><time>2026-05-02T13:09:37.618Z</time></trkpt><trkpt lat="42.0702875" lon="13.6243955"><ele>847.8000000000001</ele><time>2026-05-02T13:09:38.617Z</time></trkpt><trkpt lat="42.0703321" lon="13.62428"><ele>848.2</ele><time>2026-05-02T13:09:39.617Z</time></trkpt><trkpt lat="42.0703768" lon="13.6241638"><ele>848.6</ele><time>2026-05-02T13:09:40.617Z</time></trkpt><trkpt lat="42.0704159" lon="13.6240568"><ele>849.0</ele><time>2026-05-02T13:09:41.618Z</time></trkpt><trkpt lat="42.0704477" lon="13.6239572"><ele>849.0</ele><time>2026-05-02T13:09:42.617Z</time></trkpt><trkpt lat="42.0704754" lon="13.6238586"><ele>849.0</ele><time>2026-05-02T13:09:43.617Z</time></trkpt><trkpt lat="42.0704997" lon="13.6237673"><ele>849.0</ele><time>2026-05-02T13:09:44.617Z</time></trkpt><trkpt lat="42.070519" lon="13.6236836"><ele>849.0</ele><time>2026-05-02T13:09:45.618Z</time></trkpt><trkpt lat="42.0705516" lon="13.6235197"><ele>849.0</ele><time>2026-05-02T13:09:47.617Z</time></trkpt><trkpt lat="42.0705713" lon="13.6234283"><ele>849.0</ele><time>2026-05-02T13:09:48.617Z</time></trkpt><trkpt lat="42.070595" lon="13.6233353"><ele>849.1428571428572</ele><time>2026-05-02T13:09:49.617Z</time></trkpt><trkpt lat="42.0706186" lon="13.6232433"><ele>849.2857142857143</ele><time>2026-05-02T13:09:50.618Z</time></trkpt><trkpt lat="42.0706464" lon="13.623154"><ele>849.4285714285714</ele><time>2026-05-02T13:09:51.617Z</time></trkpt><trkpt lat="42.0706777" lon="13.6230654"><ele>849.5714285714287</ele><time>2026-05-02T13:09:52.617Z</time></trkpt><trkpt lat="42.0707117" lon="13.6229831"><ele>849.7142857142857</ele><time>2026-05-02T13:09:53.617Z</time></trkpt><trkpt lat="42.0707498" lon="13.6229107"><ele>849.8571428571429</ele><time>2026-05-02T13:09:54.617Z</time></trkpt><trkpt lat="42.0707943" lon="13.6228405"><ele>850.0</ele><time>2026-05-02T13:09:55.617Z</time></trkpt><trkpt lat="42.0708436" lon="13.6227711"><ele>850.1428571428571</ele><time>2026-05-02T13:09:56.617Z</time></trkpt><trkpt lat="42.0708941" lon="13.6227042"><ele>850.2857142857142</ele><time>2026-05-02T13:09:57.617Z</time></trkpt><trkpt lat="42.0709385" lon="13.6226284"><ele>850.4285714285714</ele><time>2026-05-02T13:09:58.617Z</time></trkpt><trkpt lat="42.0709714" lon="13.6225459"><ele>850.5714285714286</ele><time>2026-05-02T13:09:59.617Z</time></trkpt><trkpt lat="42.0710017" lon="13.6224571"><ele>850.7142857142858</ele><time>2026-05-02T13:10:00.617Z</time></trkpt><trkpt lat="42.0710295" lon="13.6223688"><ele>850.8571428571429</ele><time>2026-05-02T13:10:01.617Z</time></trkpt><trkpt lat="42.071054" lon="13.6222812"><ele>851.0</ele><time>2026-05-02T13:10:02.617Z</time></trkpt><trkpt lat="42.0710746" lon="13.6221892"><ele>851.0000000000001</ele><time>2026-05-02T13:10:03.617Z</time></trkpt><trkpt lat="42.0710877" lon="13.6220952"><ele>851.0</ele><time>2026-05-02T13:10:04.618Z</time></trkpt><trkpt lat="42.0710963" lon="13.6219986"><ele>851.0</ele><time>2026-05-02T13:10:05.618Z</time></trkpt><trkpt lat="42.0711006" lon="13.6218935"><ele>851.0</ele><time>2026-05-02T13:10:06.617Z</time></trkpt><trkpt lat="42.0711034" lon="13.6217808"><ele>851.0000000000001</ele><time>2026-05-02T13:10:07.617Z</time></trkpt><trkpt lat="42.0711081" lon="13.6216597"><ele>851.0</ele><time>2026-05-02T13:10:08.617Z</time></trkpt><trkpt lat="42.0711104" lon="13.6215387"><ele>850.1999999999999</ele><time>2026-05-02T13:10:09.617Z</time></trkpt><trkpt lat="42.0711122" lon="13.6214234"><ele>849.4</ele><time>2026-05-02T13:10:10.617Z</time></trkpt><trkpt lat="42.0711178" lon="13.6213087"><ele>848.6</ele><time>2026-05-02T13:10:11.617Z</time></trkpt><trkpt lat="42.0711256" lon="13.6211884"><ele>847.8</ele><time>2026-05-02T13:10:12.617Z</time></trkpt><trkpt lat="42.0711365" lon="13.6210622"><ele>847.0</ele><time>2026-05-02T13:10:13.617Z</time></trkpt><trkpt lat="42.0711491" lon="13.6209346"><ele>846.8333333333333</ele><time>2026-05-02T13:10:14.617Z</time></trkpt><trkpt lat="42.071162" lon="13.6208096"><ele>846.6666666666666</ele><time>2026-05-02T13:10:15.617Z</time></trkpt><trkpt lat="42.0711795" lon="13.620689"><ele>846.5</ele><time>2026-05-02T13:10:16.617Z</time></trkpt><trkpt lat="42.0711964" lon="13.6205709"><ele>846.3333333333333</ele><time>2026-05-02T13:10:17.617Z</time></trkpt><trkpt lat="42.071211" lon="13.6204572"><ele>846.1666666666666</ele><time>2026-05-02T13:10:18.618Z</time></trkpt><trkpt lat="42.0712267" lon="13.6203529"><ele>846.0</ele><time>2026-05-02T13:10:19.617Z</time></trkpt><trkpt lat="42.0712426" lon="13.6202579"><ele>845.7142857142857</ele><time>2026-05-02T13:10:20.618Z</time></trkpt><trkpt lat="42.0712617" lon="13.6201649"><ele>845.4285714285714</ele><time>2026-05-02T13:10:21.617Z</time></trkpt><trkpt lat="42.0712867" lon="13.620075"><ele>845.1428571428571</ele><time>2026-05-02T13:10:22.618Z</time></trkpt><trkpt lat="42.0713176" lon="13.619983"><ele>844.8571428571429</ele><time>2026-05-02T13:10:23.618Z</time></trkpt><trkpt lat="42.0713543" lon="13.6198912"><ele>844.5714285714287</ele><time>2026-05-02T13:10:24.618Z</time></trkpt><trkpt lat="42.0713944" lon="13.619802"><ele>844.2857142857143</ele><time>2026-05-02T13:10:25.617Z</time></trkpt><trkpt lat="42.0714307" lon="13.6197199"><ele>844.0</ele><time>2026-05-02T13:10:26.617Z</time></trkpt><trkpt lat="42.0714716" lon="13.619576"><ele>844.0</ele><time>2026-05-02T13:10:28.618Z</time></trkpt><trkpt lat="42.0715062" lon="13.6194871"><ele>844.0</ele><time>2026-05-02T13:10:30.617Z</time></trkpt><trkpt lat="42.071549" lon="13.6193798"><ele>844.0</ele><time>2026-05-02T13:10:32.617Z</time></trkpt><trkpt lat="42.0715898" lon="13.619254"><ele>844.0</ele><time>2026-05-02T13:10:34.618Z</time></trkpt><trkpt lat="42.0716316" lon="13.6191061"><ele>844.0</ele><time>2026-05-02T13:10:36.617Z</time></trkpt><trkpt lat="42.0716623" lon="13.6189751"><ele>846.4000000000001</ele><time>2026-05-02T13:10:38.617Z</time></trkpt><trkpt lat="42.0717031" lon="13.618837"><ele>848.8</ele><time>2026-05-02T13:10:40.617Z</time></trkpt><trkpt lat="42.0717505" lon="13.6186961"><ele>851.1999999999999</ele><time>2026-05-02T13:10:42.617Z</time></trkpt><trkpt lat="42.0717986" lon="13.6185331"><ele>853.5999999999999</ele><time>2026-05-02T13:10:44.617Z</time></trkpt><trkpt lat="42.0718294" lon="13.6184511"><ele>856.0</ele><time>2026-05-02T13:10:45.617Z</time></trkpt><trkpt lat="42.0718602" lon="13.6183679"><ele>856.0</ele><time>2026-05-02T13:10:46.617Z</time></trkpt><trkpt lat="42.0718845" lon="13.6182851"><ele>855.9999999999999</ele><time>2026-05-02T13:10:47.618Z</time></trkpt><trkpt lat="42.0719186" lon="13.6181387"><ele>855.9999999999999</ele><time>2026-05-02T13:10:49.617Z</time></trkpt><trkpt lat="42.0719525" lon="13.6179848"><ele>856.0</ele><time>2026-05-02T13:10:51.617Z</time></trkpt><trkpt lat="42.071991" lon="13.617836"><ele>856.0</ele><time>2026-05-02T13:10:53.617Z</time></trkpt><trkpt lat="42.0720137" lon="13.6177535"><ele>856.1666666666666</ele><time>2026-05-02T13:10:54.618Z</time></trkpt><trkpt lat="42.0720397" lon="13.6176652"><ele>856.3333333333333</ele><time>2026-05-02T13:10:55.617Z</time></trkpt><trkpt lat="42.0720675" lon="13.6175714"><ele>856.5</ele><time>2026-05-02T13:10:56.617Z</time></trkpt><trkpt lat="42.0720923" lon="13.6174722"><ele>856.6666666666667</ele><time>2026-05-02T13:10:57.617Z</time></trkpt><trkpt lat="42.0721174" lon="13.6173661"><ele>856.8333333333334</ele><time>2026-05-02T13:10:58.617Z</time></trkpt><trkpt lat="42.0721453" lon="13.6172579"><ele>857.0</ele><time>2026-05-02T13:10:59.617Z</time></trkpt><trkpt lat="42.0721732" lon="13.6171489"><ele>857.0</ele><time>2026-05-02T13:11:00.617Z</time></trkpt><trkpt lat="42.0721981" lon="13.6170397"><ele>857.0</ele><time>2026-05-02T13:11:01.617Z</time></trkpt><trkpt lat="42.07222" lon="13.6169338"><ele>857.0</ele><time>2026-05-02T13:11:02.618Z</time></trkpt><trkpt lat="42.0722376" lon="13.6168366"><ele>857.0</ele><time>2026-05-02T13:11:03.618Z</time></trkpt><trkpt lat="42.0722587" lon="13.6166811"><ele>857.0</ele><time>2026-05-02T13:11:05.618Z</time></trkpt><trkpt lat="42.0722816" lon="13.6165235"><ele>856.8571428571429</ele><time>2026-05-02T13:11:07.618Z</time></trkpt><trkpt lat="42.0722984" lon="13.6164353"><ele>856.7142857142857</ele><time>2026-05-02T13:11:08.617Z</time></trkpt><trkpt lat="42.0723216" lon="13.6163496"><ele>856.5714285714287</ele><time>2026-05-02T13:11:09.617Z</time></trkpt><trkpt lat="42.0723523" lon="13.6162682"><ele>856.4285714285714</ele><time>2026-05-02T13:11:10.617Z</time></trkpt><trkpt lat="42.0723916" lon="13.6161933"><ele>856.2857142857143</ele><time>2026-05-02T13:11:11.617Z</time></trkpt><trkpt lat="42.0724322" lon="13.6161201"><ele>856.1428571428572</ele><time>2026-05-02T13:11:12.618Z</time></trkpt><trkpt lat="42.0724712" lon="13.6160513"><ele>856.0</ele><time>2026-05-02T13:11:13.617Z</time></trkpt><trkpt lat="42.0725111" lon="13.6159857"><ele>858.4</ele><time>2026-05-02T13:11:14.617Z</time></trkpt><trkpt lat="42.0725494" lon="13.615917"><ele>860.8</ele><time>2026-05-02T13:11:15.618Z</time></trkpt><trkpt lat="42.0725873" lon="13.6158478"><ele>863.1999999999999</ele><time>2026-05-02T13:11:16.618Z</time></trkpt><trkpt lat="42.0726566" lon="13.6157216"><ele>865.5999999999999</ele><time>2026-05-02T13:11:18.617Z</time></trkpt><trkpt lat="42.0727208" lon="13.6155951"><ele>868.0</ele><time>2026-05-02T13:11:20.617Z</time></trkpt><trkpt lat="42.0727924" lon="13.6154698"><ele>868.0</ele><time>2026-05-02T13:11:22.617Z</time></trkpt><trkpt lat="42.0728676" lon="13.6153446"><ele>868.0</ele><time>2026-05-02T13:11:24.617Z</time></trkpt><trkpt lat="42.0729391" lon="13.6152221"><ele>868.0</ele><time>2026-05-02T13:11:26.618Z</time></trkpt><trkpt lat="42.0730132" lon="13.6151004"><ele>868.0</ele><time>2026-05-02T13:11:28.618Z</time></trkpt><trkpt lat="42.0731005" lon="13.6149745"><ele>868.3333333333333</ele><time>2026-05-02T13:11:30.618Z</time></trkpt><trkpt lat="42.0731452" lon="13.6149117"><ele>868.6666666666666</ele><time>2026-05-02T13:11:31.617Z</time></trkpt><trkpt lat="42.0732192" lon="13.6148032"><ele>869.0</ele><time>2026-05-02T13:11:33.617Z</time></trkpt><trkpt lat="42.0732646" lon="13.614717"><ele>869.3333333333333</ele><time>2026-05-02T13:11:35.617Z</time></trkpt><trkpt lat="42.0732986" lon="13.6146363"><ele>869.6666666666666</ele><time>2026-05-02T13:11:37.618Z</time></trkpt><trkpt lat="42.0733283" lon="13.6145454"><ele>870.0</ele><time>2026-05-02T13:11:39.617Z</time></trkpt><trkpt lat="42.0733347" lon="13.6144555"><ele>871.8</ele><time>2026-05-02T13:11:41.617Z</time></trkpt><trkpt lat="42.0733142" lon="13.6143513"><ele>873.6</ele><time>2026-05-02T13:11:43.617Z</time></trkpt><trkpt lat="42.073245" lon="13.6142677"><ele>875.4000000000001</ele><time>2026-05-02T13:11:45.617Z</time></trkpt><trkpt lat="42.0731674" lon="13.6142003"><ele>877.2</ele><time>2026-05-02T13:11:47.617Z</time></trkpt><trkpt lat="42.0730902" lon="13.6141411"><ele>879.0</ele><time>2026-05-02T13:11:49.617Z</time></trkpt><trkpt lat="42.0730097" lon="13.6140293"><ele>879.0</ele><time>2026-05-02T13:11:51.618Z</time></trkpt><trkpt lat="42.0729397" lon="13.6138929"><ele>879.0000000000001</ele><time>2026-05-02T13:11:53.617Z</time></trkpt><trkpt lat="42.0728894" lon="13.6137275"><ele>879.0000000000001</ele><time>2026-05-02T13:11:55.617Z</time></trkpt><trkpt lat="42.0728557" lon="13.6136294"><ele>879.0</ele><time>2026-05-02T13:11:56.617Z</time></trkpt><trkpt lat="42.0728226" lon="13.6135305"><ele>879.0</ele><time>2026-05-02T13:11:57.617Z</time></trkpt><trkpt lat="42.0727967" lon="13.6134352"><ele>880.2</ele><time>2026-05-02T13:11:58.617Z</time></trkpt><trkpt lat="42.0727798" lon="13.6133495"><ele>881.4000000000001</ele><time>2026-05-02T13:11:59.617Z</time></trkpt><trkpt lat="42.0727694" lon="13.6131972"><ele>882.6</ele><time>2026-05-02T13:12:01.617Z</time></trkpt><trkpt lat="42.0727688" lon="13.6130868"><ele>883.8</ele><time>2026-05-02T13:12:02.617Z</time></trkpt><trkpt lat="42.0727707" lon="13.6129395"><ele>885.0</ele><time>2026-05-02T13:12:03.618Z</time></trkpt><trkpt lat="42.0727797" lon="13.6127827"><ele>886.0</ele><time>2026-05-02T13:12:04.617Z</time></trkpt><trkpt lat="42.0727953" lon="13.6126242"><ele>887.0</ele><time>2026-05-02T13:12:05.617Z</time></trkpt><trkpt lat="42.0728156" lon="13.6124834"><ele>888.0</ele><time>2026-05-02T13:12:06.618Z</time></trkpt><trkpt lat="42.0728401" lon="13.6123614"><ele>889.0</ele><time>2026-05-02T13:12:07.618Z</time></trkpt><trkpt lat="42.0728737" lon="13.6122467"><ele>890.0</ele><time>2026-05-02T13:12:08.618Z</time></trkpt><trkpt lat="42.0729133" lon="13.6121412"><ele>890.0000000000001</ele><time>2026-05-02T13:12:09.618Z</time></trkpt><trkpt lat="42.0729567" lon="13.6120383"><ele>890.0</ele><time>2026-05-02T13:12:10.617Z</time></trkpt><trkpt lat="42.0730026" lon="13.6119395"><ele>890.0</ele><time>2026-05-02T13:12:11.618Z</time></trkpt><trkpt lat="42.0730527" lon="13.6118469"><ele>890.0</ele><time>2026-05-02T13:12:12.618Z</time></trkpt><trkpt lat="42.0731028" lon="13.6117574"><ele>890.0000000000001</ele><time>2026-05-02T13:12:13.617Z</time></trkpt><trkpt lat="42.0731515" lon="13.6116685"><ele>890.0</ele><time>2026-05-02T13:12:14.618Z</time></trkpt><trkpt lat="42.0731955" lon="13.6115789"><ele>890.3333333333334</ele><time>2026-05-02T13:12:15.618Z</time></trkpt><trkpt lat="42.0732373" lon="13.6114856"><ele>890.6666666666667</ele><time>2026-05-02T13:12:16.618Z</time></trkpt><trkpt lat="42.073282" lon="13.6113958"><ele>891.0</ele><time>2026-05-02T13:12:17.618Z</time></trkpt><trkpt lat="42.0733234" lon="13.6113052"><ele>891.3333333333333</ele><time>2026-05-02T13:12:18.617Z</time></trkpt><trkpt lat="42.0733633" lon="13.6112103"><ele>891.6666666666666</ele><time>2026-05-02T13:12:19.617Z</time></trkpt><trkpt lat="42.0734052" lon="13.6111155"><ele>892.0</ele><time>2026-05-02T13:12:20.617Z</time></trkpt><trkpt lat="42.0734418" lon="13.6110223"><ele>894.0</ele><time>2026-05-02T13:12:21.618Z</time></trkpt><trkpt lat="42.073473" lon="13.6109429"><ele>896.0</ele><time>2026-05-02T13:12:22.617Z</time></trkpt><trkpt lat="42.0735262" lon="13.6108184"><ele>898.0</ele><time>2026-05-02T13:12:24.618Z</time></trkpt><trkpt lat="42.073554" lon="13.6107175"><ele>900.0</ele><time>2026-05-02T13:12:26.618Z</time></trkpt><trkpt lat="42.073527" lon="13.6105955"><ele>902.0</ele><time>2026-05-02T13:12:29.617Z</time></trkpt><trkpt lat="42.0734276" lon="13.610449"><ele>902.0</ele><time>2026-05-02T13:12:31.618Z</time></trkpt><trkpt lat="42.0733284" lon="13.6103422"><ele>902.0</ele><time>2026-05-02T13:12:32.618Z</time></trkpt><trkpt lat="42.0732138" lon="13.6102291"><ele>902.0</ele><time>2026-05-02T13:12:33.617Z</time></trkpt><trkpt lat="42.0730975" lon="13.6101081"><ele>902.0</ele><time>2026-05-02T13:12:34.617Z</time></trkpt><trkpt lat="42.072983" lon="13.6099727"><ele>899.25</ele><time>2026-05-02T13:12:35.617Z</time></trkpt><trkpt lat="42.0728752" lon="13.6098366"><ele>896.5</ele><time>2026-05-02T13:12:36.617Z</time></trkpt><trkpt lat="42.0727699" lon="13.6097029"><ele>893.75</ele><time>2026-05-02T13:12:37.617Z</time></trkpt><trkpt lat="42.072663" lon="13.6095715"><ele>891.0</ele><time>2026-05-02T13:12:38.618Z</time></trkpt><trkpt lat="42.0725559" lon="13.6094451"><ele>890.5</ele><time>2026-05-02T13:12:39.617Z</time></trkpt><trkpt lat="42.072453" lon="13.6093219"><ele>890.0</ele><time>2026-05-02T13:12:40.617Z</time></trkpt><trkpt lat="42.07236" lon="13.6092154"><ele>889.5</ele><time>2026-05-02T13:12:41.617Z</time></trkpt><trkpt lat="42.0722826" lon="13.6091268"><ele>889.0</ele><time>2026-05-02T13:12:42.618Z</time></trkpt><trkpt lat="42.0722282" lon="13.609025"><ele>887.0</ele><time>2026-05-02T13:12:43.617Z</time></trkpt><trkpt lat="42.0721923" lon="13.6089018"><ele>885.0</ele><time>2026-05-02T13:12:44.617Z</time></trkpt><trkpt lat="42.0721697" lon="13.6087409"><ele>883.0</ele><time>2026-05-02T13:12:45.617Z</time></trkpt><trkpt lat="42.0721464" lon="13.6085541"><ele>881.0</ele><time>2026-05-02T13:12:46.617Z</time></trkpt><trkpt lat="42.0721163" lon="13.6083661"><ele>880.25</ele><time>2026-05-02T13:12:47.618Z</time></trkpt><trkpt lat="42.0720893" lon="13.608191"><ele>879.5</ele><time>2026-05-02T13:12:48.617Z</time></trkpt><trkpt lat="42.072075" lon="13.6080163"><ele>878.75</ele><time>2026-05-02T13:12:49.618Z</time></trkpt><trkpt lat="42.0720741" lon="13.6078314"><ele>878.0</ele><time>2026-05-02T13:12:50.617Z</time></trkpt><trkpt lat="42.0720785" lon="13.6076478"><ele>876.5</ele><time>2026-05-02T13:12:51.618Z</time></trkpt><trkpt lat="42.0720794" lon="13.6074683"><ele>875.0</ele><time>2026-05-02T13:12:52.617Z</time></trkpt><trkpt lat="42.0720791" lon="13.6072968"><ele>873.5</ele><time>2026-05-02T13:12:53.617Z</time></trkpt><trkpt lat="42.0720749" lon="13.6071378"><ele>872.0</ele><time>2026-05-02T13:12:54.617Z</time></trkpt><trkpt lat="42.0720583" lon="13.6069935"><ele>869.75</ele><time>2026-05-02T13:12:55.617Z</time></trkpt><trkpt lat="42.0720252" lon="13.6068561"><ele>867.5</ele><time>2026-05-02T13:12:56.617Z</time></trkpt><trkpt lat="42.0719704" lon="13.6067186"><ele>865.25</ele><time>2026-05-02T13:12:57.617Z</time></trkpt><trkpt lat="42.0718911" lon="13.6065838"><ele>863.0</ele><time>2026-05-02T13:12:58.617Z</time></trkpt><trkpt lat="42.0717931" lon="13.6064585"><ele>863.0</ele><time>2026-05-02T13:12:59.617Z</time></trkpt><trkpt lat="42.0716911" lon="13.6063437"><ele>863.0</ele><time>2026-05-02T13:13:00.617Z</time></trkpt><trkpt lat="42.0715921" lon="13.6062379"><ele>863.0</ele><time>2026-05-02T13:13:01.617Z</time></trkpt><trkpt lat="42.0714993" lon="13.60616"><ele>863.0</ele><time>2026-05-02T13:13:02.618Z</time></trkpt><trkpt lat="42.0714018" lon="13.6061022"><ele>859.25</ele><time>2026-05-02T13:13:03.617Z</time></trkpt><trkpt lat="42.0712955" lon="13.6060505"><ele>855.5</ele><time>2026-05-02T13:13:04.618Z</time></trkpt><trkpt lat="42.0711885" lon="13.6059908"><ele>851.75</ele><time>2026-05-02T13:13:05.618Z</time></trkpt><trkpt lat="42.0710835" lon="13.6059052"><ele>848.0</ele><time>2026-05-02T13:13:06.617Z</time></trkpt><trkpt lat="42.0709697" lon="13.6057932"><ele>848.0</ele><time>2026-05-02T13:13:07.617Z</time></trkpt><trkpt lat="42.0708502" lon="13.6056751"><ele>848.0</ele><time>2026-05-02T13:13:08.617Z</time></trkpt><trkpt lat="42.0707329" lon="13.605561"><ele>848.0</ele><time>2026-05-02T13:13:09.617Z</time></trkpt><trkpt lat="42.0706111" lon="13.6054474"><ele>848.0</ele><time>2026-05-02T13:13:10.617Z</time></trkpt><trkpt lat="42.0704858" lon="13.6053353"><ele>844.0</ele><time>2026-05-02T13:13:11.618Z</time></trkpt><trkpt lat="42.0703601" lon="13.6052243"><ele>840.0</ele><time>2026-05-02T13:13:12.618Z</time></trkpt><trkpt lat="42.0702372" lon="13.605111"><ele>836.0</ele><time>2026-05-02T13:13:13.617Z</time></trkpt><trkpt lat="42.070118" lon="13.6049929"><ele>832.0</ele><time>2026-05-02T13:13:14.617Z</time></trkpt><trkpt lat="42.0699991" lon="13.6048714"><ele>828.0</ele><time>2026-05-02T13:13:15.617Z</time></trkpt><trkpt lat="42.0698754" lon="13.6047504"><ele>824.0</ele><time>2026-05-02T13:13:16.618Z</time></trkpt><trkpt lat="42.0697455" lon="13.6046326"><ele>820.0</ele><time>2026-05-02T13:13:17.618Z</time></trkpt><trkpt lat="42.0696096" lon="13.6045108"><ele>817.6666666666666</ele><time>2026-05-02T13:13:18.617Z</time></trkpt><trkpt lat="42.0694726" lon="13.6043815"><ele>815.3333333333333</ele><time>2026-05-02T13:13:19.618Z</time></trkpt><trkpt lat="42.0693365" lon="13.6042431"><ele>813.0</ele><time>2026-05-02T13:13:20.618Z</time></trkpt><trkpt lat="42.0692048" lon="13.604099"><ele>809.6666666666667</ele><time>2026-05-02T13:13:21.617Z</time></trkpt><trkpt lat="42.0690762" lon="13.6039563"><ele>806.3333333333334</ele><time>2026-05-02T13:13:22.617Z</time></trkpt><trkpt lat="42.0689472" lon="13.603818"><ele>803.0</ele><time>2026-05-02T13:13:23.618Z</time></trkpt><trkpt lat="42.0688224" lon="13.6036819"><ele>804.0</ele><time>2026-05-02T13:13:24.617Z</time></trkpt><trkpt lat="42.0687189" lon="13.6035733"><ele>805.0</ele><time>2026-05-02T13:13:25.617Z</time></trkpt><trkpt lat="42.0686384" lon="13.6034886"><ele>806.0</ele><time>2026-05-02T13:13:26.618Z</time></trkpt><trkpt lat="42.0685825" lon="13.60342"><ele>807.0</ele><time>2026-05-02T13:13:27.618Z</time></trkpt><trkpt lat="42.0684866" lon="13.6033661"><ele>808.0</ele><time>2026-05-02T13:13:29.617Z</time></trkpt><trkpt lat="42.0683674" lon="13.6033867"><ele>808.0</ele><time>2026-05-02T13:13:31.617Z</time></trkpt><trkpt lat="42.0683052" lon="13.6034335"><ele>808.0</ele><time>2026-05-02T13:13:32.617Z</time></trkpt><trkpt lat="42.0682331" lon="13.6034953"><ele>808.0</ele><time>2026-05-02T13:13:33.617Z</time></trkpt><trkpt lat="42.0681228" lon="13.6035333"><ele>808.0</ele><time>2026-05-02T13:13:35.618Z</time></trkpt><trkpt lat="42.0680422" lon="13.6035438"><ele>808.0</ele><time>2026-05-02T13:13:36.618Z</time></trkpt><trkpt lat="42.0679396" lon="13.6035445"><ele>810.25</ele><time>2026-05-02T13:13:37.617Z</time></trkpt><trkpt lat="42.0678327" lon="13.603542"><ele>812.5</ele><time>2026-05-02T13:13:38.617Z</time></trkpt><trkpt lat="42.0677172" lon="13.6035375"><ele>814.75</ele><time>2026-05-02T13:13:39.617Z</time></trkpt><trkpt lat="42.0675984" lon="13.603533"><ele>817.0</ele><time>2026-05-02T13:13:40.617Z</time></trkpt><trkpt lat="42.0674786" lon="13.6035281"><ele>818.0</ele><time>2026-05-02T13:13:41.617Z</time></trkpt><trkpt lat="42.0673483" lon="13.6035213"><ele>819.0</ele><time>2026-05-02T13:13:42.618Z</time></trkpt><trkpt lat="42.0672081" lon="13.6035036"><ele>820.0</ele><time>2026-05-02T13:13:43.617Z</time></trkpt><trkpt lat="42.0670786" lon="13.6034802"><ele>821.0</ele><time>2026-05-02T13:13:44.617Z</time></trkpt><trkpt lat="42.0669447" lon="13.6034489"><ele>821.0</ele><time>2026-05-02T13:13:45.617Z</time></trkpt><trkpt lat="42.0668067" lon="13.6033991"><ele>821.0</ele><time>2026-05-02T13:13:46.618Z</time></trkpt><trkpt lat="42.0666722" lon="13.6033511"><ele>821.0</ele><time>2026-05-02T13:13:47.617Z</time></trkpt><trkpt lat="42.0665494" lon="13.6033167"><ele>821.0</ele><time>2026-05-02T13:13:48.618Z</time></trkpt><trkpt lat="42.0664444" lon="13.6032941"><ele>822.1666666666667</ele><time>2026-05-02T13:13:49.617Z</time></trkpt><trkpt lat="42.0663492" lon="13.6032842"><ele>823.3333333333334</ele><time>2026-05-02T13:13:50.618Z</time></trkpt><trkpt lat="42.0662655" lon="13.6032894"><ele>824.5</ele><time>2026-05-02T13:13:51.618Z</time></trkpt><trkpt lat="42.06618" lon="13.603296"><ele>825.6666666666667</ele><time>2026-05-02T13:13:52.617Z</time></trkpt><trkpt lat="42.0660973" lon="13.6033091"><ele>826.8333333333334</ele><time>2026-05-02T13:13:53.617Z</time></trkpt><trkpt lat="42.0660149" lon="13.6033241"><ele>828.0</ele><time>2026-05-02T13:13:54.617Z</time></trkpt><trkpt lat="42.0659334" lon="13.6033318"><ele>828.0</ele><time>2026-05-02T13:13:55.617Z</time></trkpt><trkpt lat="42.0658625" lon="13.6033344"><ele>828.0</ele><time>2026-05-02T13:13:56.617Z</time></trkpt><trkpt lat="42.065774" lon="13.6033012"><ele>828.0</ele><time>2026-05-02T13:13:58.617Z</time></trkpt><trkpt lat="42.0657325" lon="13.6031827"><ele>828.0</ele><time>2026-05-02T13:14:00.617Z</time></trkpt><trkpt lat="42.0657217" lon="13.6030748"><ele>828.0</ele><time>2026-05-02T13:14:01.618Z</time></trkpt><trkpt lat="42.0656965" lon="13.6029469"><ele>828.0</ele><time>2026-05-02T13:14:02.617Z</time></trkpt><trkpt lat="42.065677" lon="13.6028323"><ele>828.5999999999999</ele><time>2026-05-02T13:14:03.617Z</time></trkpt><trkpt lat="42.0656859" lon="13.602731"><ele>829.1999999999999</ele><time>2026-05-02T13:14:04.617Z</time></trkpt><trkpt lat="42.0657217" lon="13.6026516"><ele>829.8</ele><time>2026-05-02T13:14:05.617Z</time></trkpt><trkpt lat="42.0658286" lon="13.6025694"><ele>830.4</ele><time>2026-05-02T13:14:07.618Z</time></trkpt><trkpt lat="42.0659137" lon="13.6025401"><ele>831.0</ele><time>2026-05-02T13:14:08.617Z</time></trkpt><trkpt lat="42.0660198" lon="13.6025041"><ele>831.0</ele><time>2026-05-02T13:14:09.617Z</time></trkpt><trkpt lat="42.0661244" lon="13.6024593"><ele>831.0</ele><time>2026-05-02T13:14:10.617Z</time></trkpt><trkpt lat="42.0662143" lon="13.6024122"><ele>831.0</ele><time>2026-05-02T13:14:11.617Z</time></trkpt><trkpt lat="42.0662876" lon="13.6023633"><ele>831.0</ele><time>2026-05-02T13:14:12.617Z</time></trkpt><trkpt lat="42.0663635" lon="13.6023046"><ele>831.0</ele><time>2026-05-02T13:14:14.617Z</time></trkpt><trkpt lat="42.0662956" lon="13.6023237"><ele>831.0</ele><time>2026-05-02T13:14:22.617Z</time></trkpt><trkpt lat="42.066229" lon="13.6023757"><ele>831.0</ele><time>2026-05-02T13:14:23.617Z</time></trkpt><trkpt lat="42.0661436" lon="13.6024152"><ele>831.0</ele><time>2026-05-02T13:14:24.617Z</time></trkpt><trkpt lat="42.0660566" lon="13.6024466"><ele>831.0</ele><time>2026-05-02T13:14:25.618Z</time></trkpt><trkpt lat="42.0659835" lon="13.6024668"><ele>831.0</ele><time>2026-05-02T13:14:26.618Z</time></trkpt><trkpt lat="42.0658979" lon="13.602426"><ele>831.0</ele><time>2026-05-02T13:14:28.617Z</time></trkpt><trkpt lat="42.065886" lon="13.6022763"><ele>831.0</ele><time>2026-05-02T13:14:30.617Z</time></trkpt><trkpt lat="42.0659104" lon="13.6021548"><ele>831.0</ele><time>2026-05-02T13:14:31.618Z</time></trkpt><trkpt lat="42.0659422" lon="13.6020078"><ele>831.0</ele><time>2026-05-02T13:14:32.617Z</time></trkpt><trkpt lat="42.065975" lon="13.6018507"><ele>831.0</ele><time>2026-05-02T13:14:33.617Z</time></trkpt><trkpt lat="42.0660051" lon="13.6016897"><ele>830.5</ele><time>2026-05-02T13:14:34.617Z</time></trkpt><trkpt lat="42.0660313" lon="13.6015332"><ele>830.0</ele><time>2026-05-02T13:14:35.617Z</time></trkpt><trkpt lat="42.0660514" lon="13.6013741"><ele>829.5</ele><time>2026-05-02T13:14:36.617Z</time></trkpt><trkpt lat="42.0660609" lon="13.6012052"><ele>829.0</ele><time>2026-05-02T13:14:37.617Z</time></trkpt><trkpt lat="42.0660665" lon="13.6010336"><ele>829.0</ele><time>2026-05-02T13:14:38.617Z</time></trkpt><trkpt lat="42.0660751" lon="13.6008646"><ele>829.0</ele><time>2026-05-02T13:14:39.617Z</time></trkpt><trkpt lat="42.0660897" lon="13.6007089"><ele>829.0</ele><time>2026-05-02T13:14:40.617Z</time></trkpt><trkpt lat="42.0661067" lon="13.6005601"><ele>829.0</ele><time>2026-05-02T13:14:41.617Z</time></trkpt><trkpt lat="42.0661263" lon="13.6004366"><ele>829.0</ele><time>2026-05-02T13:14:42.618Z</time></trkpt><trkpt lat="42.0661397" lon="13.6003486"><ele>828.8571428571429</ele><time>2026-05-02T13:14:43.617Z</time></trkpt><trkpt lat="42.0661559" lon="13.6002613"><ele>828.7142857142857</ele><time>2026-05-02T13:14:44.618Z</time></trkpt><trkpt lat="42.0661702" lon="13.6001664"><ele>828.5714285714287</ele><time>2026-05-02T13:14:45.617Z</time></trkpt><trkpt lat="42.0661806" lon="13.600069"><ele>828.4285714285714</ele><time>2026-05-02T13:14:46.617Z</time></trkpt><trkpt lat="42.0661915" lon="13.599978"><ele>828.2857142857143</ele><time>2026-05-02T13:14:47.617Z</time></trkpt><trkpt lat="42.0662151" lon="13.5998762"><ele>828.1428571428572</ele><time>2026-05-02T13:14:48.618Z</time></trkpt><trkpt lat="42.0662466" lon="13.5997639"><ele>828.0</ele><time>2026-05-02T13:14:49.617Z</time></trkpt><trkpt lat="42.0662776" lon="13.5996433"><ele>828.0</ele><time>2026-05-02T13:14:50.617Z</time></trkpt><trkpt lat="42.0663096" lon="13.5995155"><ele>828.0</ele><time>2026-05-02T13:14:51.617Z</time></trkpt><trkpt lat="42.0663419" lon="13.5993823"><ele>828.0</ele><time>2026-05-02T13:14:52.617Z</time></trkpt><trkpt lat="42.066374" lon="13.599244"><ele>828.0</ele><time>2026-05-02T13:14:53.618Z</time></trkpt><trkpt lat="42.0664067" lon="13.5991113"><ele>828.0</ele><time>2026-05-02T13:14:54.617Z</time></trkpt><trkpt lat="42.0664399" lon="13.5989818"><ele>828.2</ele><time>2026-05-02T13:14:55.617Z</time></trkpt><trkpt lat="42.0664754" lon="13.5988554"><ele>828.4</ele><time>2026-05-02T13:14:56.618Z</time></trkpt><trkpt lat="42.0665088" lon="13.5987334"><ele>828.6</ele><time>2026-05-02T13:14:57.618Z</time></trkpt><trkpt lat="42.0665448" lon="13.5986137"><ele>828.8000000000001</ele><time>2026-05-02T13:14:58.618Z</time></trkpt><trkpt lat="42.0665935" lon="13.598499"><ele>829.0</ele><time>2026-05-02T13:14:59.618Z</time></trkpt><trkpt lat="42.0666433" lon="13.5983971"><ele>829.0</ele><time>2026-05-02T13:15:00.617Z</time></trkpt><trkpt lat="42.0666852" lon="13.5983272"><ele>829.0</ele><time>2026-05-02T13:15:01.617Z</time></trkpt><trkpt lat="42.0667421" lon="13.5982327"><ele>829.0</ele><time>2026-05-02T13:15:03.618Z</time></trkpt><trkpt lat="42.0667985" lon="13.5980793"><ele>829.0</ele><time>2026-05-02T13:15:05.617Z</time></trkpt><trkpt lat="42.0668442" lon="13.5979482"><ele>829.0</ele><time>2026-05-02T13:15:07.618Z</time></trkpt><trkpt lat="42.06692" lon="13.5979247"><ele>829.0</ele><time>2026-05-02T13:15:09.618Z</time></trkpt><trkpt lat="42.0670629" lon="13.5979298"><ele>829.0</ele><time>2026-05-02T13:15:11.617Z</time></trkpt><trkpt lat="42.0671581" lon="13.5979283"><ele>829.0</ele><time>2026-05-02T13:15:12.618Z</time></trkpt><trkpt lat="42.0672688" lon="13.5979325"><ele>829.0</ele><time>2026-05-02T13:15:13.617Z</time></trkpt><trkpt lat="42.0673881" lon="13.5979557"><ele>831.75</ele><time>2026-05-02T13:15:14.617Z</time></trkpt><trkpt lat="42.0675265" lon="13.5980002"><ele>834.5</ele><time>2026-05-02T13:15:15.617Z</time></trkpt><trkpt lat="42.067666" lon="13.5980437"><ele>837.25</ele><time>2026-05-02T13:15:16.617Z</time></trkpt><trkpt lat="42.0678213" lon="13.5980878"><ele>840.0</ele><time>2026-05-02T13:15:17.617Z</time></trkpt><trkpt lat="42.0679869" lon="13.5981335"><ele>840.0</ele><time>2026-05-02T13:15:18.617Z</time></trkpt><trkpt lat="42.0681477" lon="13.59818"><ele>840.0</ele><time>2026-05-02T13:15:19.617Z</time></trkpt><trkpt lat="42.0682972" lon="13.5982247"><ele>840.0</ele><time>2026-05-02T13:15:20.617Z</time></trkpt><trkpt lat="42.0684421" lon="13.5982627"><ele>842.0</ele><time>2026-05-02T13:15:21.617Z</time></trkpt><trkpt lat="42.0685835" lon="13.598295"><ele>844.0</ele><time>2026-05-02T13:15:22.617Z</time></trkpt><trkpt lat="42.0687231" lon="13.5983281"><ele>846.0</ele><time>2026-05-02T13:15:23.618Z</time></trkpt><trkpt lat="42.0688595" lon="13.5983625"><ele>848.0</ele><time>2026-05-02T13:15:24.617Z</time></trkpt><trkpt lat="42.068989" lon="13.5984013"><ele>848.0</ele><time>2026-05-02T13:15:25.618Z</time></trkpt><trkpt lat="42.0691007" lon="13.5984346"><ele>848.0</ele><time>2026-05-02T13:15:26.617Z</time></trkpt><trkpt lat="42.0692034" lon="13.5984606"><ele>848.0</ele><time>2026-05-02T13:15:27.617Z</time></trkpt><trkpt lat="42.069278" lon="13.5984929"><ele>848.0</ele><time>2026-05-02T13:15:28.617Z</time></trkpt><trkpt lat="42.0693437" lon="13.598591"><ele>848.0</ele><time>2026-05-02T13:15:30.617Z</time></trkpt><trkpt lat="42.0693348" lon="13.5987263"><ele>850.5999999999999</ele><time>2026-05-02T13:15:32.617Z</time></trkpt><trkpt lat="42.0693077" lon="13.59884"><ele>853.1999999999999</ele><time>2026-05-02T13:15:33.617Z</time></trkpt><trkpt lat="42.0692855" lon="13.5989921"><ele>855.8</ele><time>2026-05-02T13:15:34.617Z</time></trkpt><trkpt lat="42.0692828" lon="13.5991517"><ele>858.4</ele><time>2026-05-02T13:15:35.617Z</time></trkpt><trkpt lat="42.0692851" lon="13.5993025"><ele>861.0</ele><time>2026-05-02T13:15:36.618Z</time></trkpt><trkpt lat="42.0692869" lon="13.5994318"><ele>861.3333333333334</ele><time>2026-05-02T13:15:37.617Z</time></trkpt><trkpt lat="42.0692962" lon="13.5995432"><ele>861.6666666666667</ele><time>2026-05-02T13:15:38.618Z</time></trkpt><trkpt lat="42.0693189" lon="13.5996525"><ele>862.0</ele><time>2026-05-02T13:15:39.617Z</time></trkpt><trkpt lat="42.0693463" lon="13.5997427"><ele>862.3333333333334</ele><time>2026-05-02T13:15:40.617Z</time></trkpt><trkpt lat="42.0693701" lon="13.5998223"><ele>862.6666666666667</ele><time>2026-05-02T13:15:41.618Z</time></trkpt><trkpt lat="42.069408" lon="13.5999002"><ele>863.0</ele><time>2026-05-02T13:15:43.617Z</time></trkpt><trkpt lat="42.0694929" lon="13.5999254"><ele>863.0</ele><time>2026-05-02T13:15:45.617Z</time></trkpt><trkpt lat="42.0695675" lon="13.5998959"><ele>863.0</ele><time>2026-05-02T13:15:46.618Z</time></trkpt><trkpt lat="42.0696612" lon="13.5998341"><ele>863.0</ele><time>2026-05-02T13:15:47.617Z</time></trkpt><trkpt lat="42.0697672" lon="13.5997878"><ele>863.0</ele><time>2026-05-02T13:15:48.617Z</time></trkpt><trkpt lat="42.0698886" lon="13.5997627"><ele>863.0</ele><time>2026-05-02T13:15:49.617Z</time></trkpt><trkpt lat="42.070016" lon="13.5997486"><ele>864.75</ele><time>2026-05-02T13:15:50.618Z</time></trkpt><trkpt lat="42.0701476" lon="13.5997416"><ele>866.5</ele><time>2026-05-02T13:15:51.617Z</time></trkpt><trkpt lat="42.0702826" lon="13.5997329"><ele>868.25</ele><time>2026-05-02T13:15:52.618Z</time></trkpt><trkpt lat="42.0704174" lon="13.5997167"><ele>870.0</ele><time>2026-05-02T13:15:53.617Z</time></trkpt><trkpt lat="42.0705336" lon="13.5997003"><ele>870.0</ele><time>2026-05-02T13:15:54.617Z</time></trkpt><trkpt lat="42.0706176" lon="13.5996867"><ele>870.0</ele><time>2026-05-02T13:15:55.618Z</time></trkpt><trkpt lat="42.0706861" lon="13.5996605"><ele>870.0</ele><time>2026-05-02T13:15:57.618Z</time></trkpt><trkpt lat="42.0707442" lon="13.5996272"><ele>870.0</ele><time>2026-05-02T13:16:17.617Z</time></trkpt><trkpt lat="42.0708143" lon="13.5995908"><ele>870.0</ele><time>2026-05-02T13:16:18.617Z</time></trkpt><trkpt lat="42.0709069" lon="13.5995496"><ele>870.0</ele><time>2026-05-02T13:16:19.617Z</time></trkpt><trkpt lat="42.0710306" lon="13.5994966"><ele>872.0</ele><time>2026-05-02T13:16:20.617Z</time></trkpt><trkpt lat="42.0711696" lon="13.5994368"><ele>874.0</ele><time>2026-05-02T13:16:21.618Z</time></trkpt><trkpt lat="42.0713117" lon="13.5993755"><ele>876.0</ele><time>2026-05-02T13:16:22.617Z</time></trkpt><trkpt lat="42.0714698" lon="13.5993058"><ele>878.3333333333333</ele><time>2026-05-02T13:16:23.618Z</time></trkpt><trkpt lat="42.0716356" lon="13.5992301"><ele>880.6666666666666</ele><time>2026-05-02T13:16:24.617Z</time></trkpt><trkpt lat="42.0718057" lon="13.5991516"><ele>883.0</ele><time>2026-05-02T13:16:25.618Z</time></trkpt><trkpt lat="42.0719766" lon="13.5990719"><ele>883.0</ele><time>2026-05-02T13:16:26.617Z</time></trkpt><trkpt lat="42.0721524" lon="13.5989923"><ele>883.0</ele><time>2026-05-02T13:16:27.618Z</time></trkpt><trkpt lat="42.0723296" lon="13.5989101"><ele>883.0</ele><time>2026-05-02T13:16:28.618Z</time></trkpt><trkpt lat="42.0725034" lon="13.5988316"><ele>885.3333333333333</ele><time>2026-05-02T13:16:29.617Z</time></trkpt><trkpt lat="42.0726757" lon="13.5987577"><ele>887.6666666666667</ele><time>2026-05-02T13:16:30.617Z</time></trkpt><trkpt lat="42.0728429" lon="13.5986826"><ele>890.0</ele><time>2026-05-02T13:16:31.617Z</time></trkpt><trkpt lat="42.0730056" lon="13.5986088"><ele>892.0</ele><time>2026-05-02T13:16:32.617Z</time></trkpt><trkpt lat="42.073168" lon="13.598534"><ele>894.0</ele><time>2026-05-02T13:16:33.617Z</time></trkpt><trkpt lat="42.0733295" lon="13.5984567"><ele>896.0</ele><time>2026-05-02T13:16:34.618Z</time></trkpt><trkpt lat="42.0734882" lon="13.5983807"><ele>898.6666666666667</ele><time>2026-05-02T13:16:35.617Z</time></trkpt><trkpt lat="42.0736454" lon="13.5983083"><ele>901.3333333333333</ele><time>2026-05-02T13:16:36.617Z</time></trkpt><trkpt lat="42.0738056" lon="13.5982412"><ele>904.0</ele><time>2026-05-02T13:16:37.617Z</time></trkpt><trkpt lat="42.0739755" lon="13.5981889"><ele>907.0</ele><time>2026-05-02T13:16:38.618Z</time></trkpt><trkpt lat="42.0741578" lon="13.5981571"><ele>910.0</ele><time>2026-05-02T13:16:39.617Z</time></trkpt><trkpt lat="42.0743451" lon="13.5981478"><ele>913.0</ele><time>2026-05-02T13:16:40.618Z</time></trkpt><trkpt lat="42.0745335" lon="13.5981557"><ele>913.0</ele><time>2026-05-02T13:16:41.617Z</time></trkpt><trkpt lat="42.0747212" lon="13.5981643"><ele>913.0</ele><time>2026-05-02T13:16:42.617Z</time></trkpt><trkpt lat="42.0749033" lon="13.5981749"><ele>913.0</ele><time>2026-05-02T13:16:43.617Z</time></trkpt><trkpt lat="42.07509" lon="13.5981897"><ele>916.6666666666666</ele><time>2026-05-02T13:16:44.618Z</time></trkpt><trkpt lat="42.075273" lon="13.5982009"><ele>920.3333333333333</ele><time>2026-05-02T13:16:45.618Z</time></trkpt><trkpt lat="42.0754596" lon="13.59821"><ele>924.0</ele><time>2026-05-02T13:16:46.618Z</time></trkpt><trkpt lat="42.0756424" lon="13.5982188"><ele>927.3333333333333</ele><time>2026-05-02T13:16:47.617Z</time></trkpt><trkpt lat="42.0758213" lon="13.5982181"><ele>930.6666666666666</ele><time>2026-05-02T13:16:48.617Z</time></trkpt><trkpt lat="42.0759925" lon="13.5982005"><ele>934.0</ele><time>2026-05-02T13:16:49.617Z</time></trkpt><trkpt lat="42.0761445" lon="13.5981659"><ele>934.0</ele><time>2026-05-02T13:16:50.618Z</time></trkpt><trkpt lat="42.0762777" lon="13.5981147"><ele>934.0</ele><time>2026-05-02T13:16:51.618Z</time></trkpt><trkpt lat="42.0763915" lon="13.5980321"><ele>934.0</ele><time>2026-05-02T13:16:52.618Z</time></trkpt><trkpt lat="42.0764925" lon="13.5979109"><ele>934.0</ele><time>2026-05-02T13:16:53.617Z</time></trkpt><trkpt lat="42.0765823" lon="13.5977592"><ele>937.5</ele><time>2026-05-02T13:16:54.617Z</time></trkpt><trkpt lat="42.0766647" lon="13.5976061"><ele>941.0</ele><time>2026-05-02T13:16:55.617Z</time></trkpt><trkpt lat="42.076749" lon="13.5974703"><ele>944.5</ele><time>2026-05-02T13:16:56.618Z</time></trkpt><trkpt lat="42.0768447" lon="13.5973786"><ele>948.0</ele><time>2026-05-02T13:16:57.617Z</time></trkpt><trkpt lat="42.0769465" lon="13.5973219"><ele>948.0</ele><time>2026-05-02T13:16:58.617Z</time></trkpt><trkpt lat="42.0770472" lon="13.5972985"><ele>948.0</ele><time>2026-05-02T13:16:59.617Z</time></trkpt><trkpt lat="42.0771325" lon="13.5973195"><ele>948.0</ele><time>2026-05-02T13:17:00.618Z</time></trkpt><trkpt lat="42.077202" lon="13.5973842"><ele>948.0</ele><time>2026-05-02T13:17:01.617Z</time></trkpt><trkpt lat="42.0772609" lon="13.5974941"><ele>948.0</ele><time>2026-05-02T13:17:02.617Z</time></trkpt><trkpt lat="42.0773069" lon="13.5976433"><ele>948.0</ele><time>2026-05-02T13:17:03.617Z</time></trkpt><trkpt lat="42.0773563" lon="13.5977967"><ele>948.0</ele><time>2026-05-02T13:17:04.617Z</time></trkpt><trkpt lat="42.0774126" lon="13.5979146"><ele>948.0</ele><time>2026-05-02T13:17:05.617Z</time></trkpt><trkpt lat="42.0774702" lon="13.5979863"><ele>948.0</ele><time>2026-05-02T13:17:06.618Z</time></trkpt><trkpt lat="42.077532" lon="13.598015"><ele>948.0</ele><time>2026-05-02T13:17:07.618Z</time></trkpt><trkpt lat="42.0776331" lon="13.5979333"><ele>948.0</ele><time>2026-05-02T13:17:09.617Z</time></trkpt><trkpt lat="42.0776484" lon="13.5978322"><ele>948.0</ele><time>2026-05-02T13:17:10.617Z</time></trkpt><trkpt lat="42.0776277" lon="13.5977077"><ele>948.0</ele><time>2026-05-02T13:17:11.617Z</time></trkpt><trkpt lat="42.0775702" lon="13.5975597"><ele>948.0</ele><time>2026-05-02T13:17:12.618Z</time></trkpt><trkpt lat="42.0775063" lon="13.5973972"><ele>948.0</ele><time>2026-05-02T13:17:13.618Z</time></trkpt><trkpt lat="42.0774334" lon="13.5972056"><ele>950.6666666666667</ele><time>2026-05-02T13:17:14.618Z</time></trkpt><trkpt lat="42.0773506" lon="13.5969975"><ele>953.3333333333334</ele><time>2026-05-02T13:17:15.617Z</time></trkpt><trkpt lat="42.077268" lon="13.5967887"><ele>956.0</ele><time>2026-05-02T13:17:16.617Z</time></trkpt><trkpt lat="42.0771886" lon="13.5965965"><ele>956.0</ele><time>2026-05-02T13:17:17.618Z</time></trkpt><trkpt lat="42.0771236" lon="13.5964197"><ele>956.0</ele><time>2026-05-02T13:17:18.618Z</time></trkpt><trkpt lat="42.0770842" lon="13.5962512"><ele>956.0</ele><time>2026-05-02T13:17:19.617Z</time></trkpt><trkpt lat="42.077082" lon="13.5960953"><ele>956.0</ele><time>2026-05-02T13:17:20.617Z</time></trkpt><trkpt lat="42.077109" lon="13.5959502"><ele>955.75</ele><time>2026-05-02T13:17:21.617Z</time></trkpt><trkpt lat="42.0771646" lon="13.5958031"><ele>955.5</ele><time>2026-05-02T13:17:22.617Z</time></trkpt><trkpt lat="42.0772451" lon="13.5956612"><ele>955.25</ele><time>2026-05-02T13:17:23.617Z</time></trkpt><trkpt lat="42.0773491" lon="13.5955195"><ele>955.0</ele><time>2026-05-02T13:17:24.617Z</time></trkpt><trkpt lat="42.0774729" lon="13.595374"><ele>959.6666666666666</ele><time>2026-05-02T13:17:25.617Z</time></trkpt><trkpt lat="42.0776073" lon="13.5952206"><ele>964.3333333333333</ele><time>2026-05-02T13:17:26.618Z</time></trkpt><trkpt lat="42.0777361" lon="13.5950674"><ele>969.0</ele><time>2026-05-02T13:17:27.617Z</time></trkpt><trkpt lat="42.0778581" lon="13.5949198"><ele>969.0</ele><time>2026-05-02T13:17:28.617Z</time></trkpt><trkpt lat="42.0779818" lon="13.5948011"><ele>969.0</ele><time>2026-05-02T13:17:29.617Z</time></trkpt><trkpt lat="42.0781035" lon="13.5947168"><ele>969.0</ele><time>2026-05-02T13:17:30.617Z</time></trkpt><trkpt lat="42.0782115" lon="13.5946298"><ele>969.0</ele><time>2026-05-02T13:17:31.617Z</time></trkpt><trkpt lat="42.0782841" lon="13.5945185"><ele>972.4000000000001</ele><time>2026-05-02T13:17:32.618Z</time></trkpt><trkpt lat="42.0783221" lon="13.5943906"><ele>975.8000000000001</ele><time>2026-05-02T13:17:33.617Z</time></trkpt><trkpt lat="42.0783283" lon="13.5942457"><ele>979.1999999999999</ele><time>2026-05-02T13:17:34.617Z</time></trkpt><trkpt lat="42.0783094" lon="13.5940871"><ele>982.5999999999999</ele><time>2026-05-02T13:17:35.618Z</time></trkpt><trkpt lat="42.0783042" lon="13.5939329"><ele>986.0</ele><time>2026-05-02T13:17:36.617Z</time></trkpt><trkpt lat="42.078335" lon="13.5937909"><ele>986.0</ele><time>2026-05-02T13:17:37.617Z</time></trkpt><trkpt lat="42.0783956" lon="13.5936737"><ele>986.0</ele><time>2026-05-02T13:17:38.618Z</time></trkpt><trkpt lat="42.0784876" lon="13.593562"><ele>986.0</ele><time>2026-05-02T13:17:39.617Z</time></trkpt><trkpt lat="42.0785965" lon="13.5934466"><ele>986.0</ele><time>2026-05-02T13:17:40.618Z</time></trkpt><trkpt lat="42.0787139" lon="13.5933268"><ele>982.6666666666667</ele><time>2026-05-02T13:17:41.617Z</time></trkpt><trkpt lat="42.0788366" lon="13.5932072"><ele>979.3333333333333</ele><time>2026-05-02T13:17:42.618Z</time></trkpt><trkpt lat="42.07896" lon="13.5930883"><ele>976.0</ele><time>2026-05-02T13:17:43.617Z</time></trkpt><trkpt lat="42.0790845" lon="13.5929746"><ele>979.5</ele><time>2026-05-02T13:17:44.617Z</time></trkpt><trkpt lat="42.0792072" lon="13.5928631"><ele>983.0</ele><time>2026-05-02T13:17:45.617Z</time></trkpt><trkpt lat="42.0793264" lon="13.5927589"><ele>986.5</ele><time>2026-05-02T13:17:46.617Z</time></trkpt><trkpt lat="42.0794398" lon="13.5926579"><ele>990.0</ele><time>2026-05-02T13:17:47.618Z</time></trkpt><trkpt lat="42.0795473" lon="13.5925648"><ele>990.0</ele><time>2026-05-02T13:17:48.617Z</time></trkpt><trkpt lat="42.0796467" lon="13.5924716"><ele>990.0</ele><time>2026-05-02T13:17:49.617Z</time></trkpt><trkpt lat="42.079741" lon="13.5923856"><ele>990.0</ele><time>2026-05-02T13:17:50.617Z</time></trkpt><trkpt lat="42.0798346" lon="13.5923017"><ele>990.0</ele><time>2026-05-02T13:17:51.617Z</time></trkpt><trkpt lat="42.0799196" lon="13.5922236"><ele>992.3333333333334</ele><time>2026-05-02T13:17:52.618Z</time></trkpt><trkpt lat="42.0799981" lon="13.5921552"><ele>994.6666666666667</ele><time>2026-05-02T13:17:53.618Z</time></trkpt><trkpt lat="42.0800723" lon="13.5920924"><ele>997.0</ele><time>2026-05-02T13:17:54.617Z</time></trkpt><trkpt lat="42.0801465" lon="13.5920291"><ele>999.3333333333334</ele><time>2026-05-02T13:17:55.617Z</time></trkpt><trkpt lat="42.0802172" lon="13.5919697"><ele>1001.6666666666667</ele><time>2026-05-02T13:17:56.617Z</time></trkpt><trkpt lat="42.0802863" lon="13.5919144"><ele>1004.0</ele><time>2026-05-02T13:17:57.617Z</time></trkpt><trkpt lat="42.0803538" lon="13.5918615"><ele>1004.0000000000001</ele><time>2026-05-02T13:17:58.617Z</time></trkpt><trkpt lat="42.0804197" lon="13.5918125"><ele>1004.0</ele><time>2026-05-02T13:17:59.618Z</time></trkpt><trkpt lat="42.0804832" lon="13.591763"><ele>1004.0</ele><time>2026-05-02T13:18:00.617Z</time></trkpt><trkpt lat="42.080547" lon="13.5917122"><ele>1004.0</ele><time>2026-05-02T13:18:01.617Z</time></trkpt><trkpt lat="42.080603" lon="13.5916562"><ele>1004.0000000000001</ele><time>2026-05-02T13:18:02.618Z</time></trkpt><trkpt lat="42.0806718" lon="13.5915411"><ele>1004.0</ele><time>2026-05-02T13:18:04.617Z</time></trkpt><trkpt lat="42.080706" lon="13.5914374"><ele>1004.0000000000001</ele><time>2026-05-02T13:18:06.618Z</time></trkpt><trkpt lat="42.0807288" lon="13.591319"><ele>1004.0</ele><time>2026-05-02T13:18:09.617Z</time></trkpt><trkpt lat="42.0806848" lon="13.5912378"><ele>1004.0</ele><time>2026-05-02T13:18:11.618Z</time></trkpt><trkpt lat="42.0805969" lon="13.5911643"><ele>1004.0</ele><time>2026-05-02T13:18:13.618Z</time></trkpt><trkpt lat="42.0805358" lon="13.5911206"><ele>1004.0000000000001</ele><time>2026-05-02T13:18:14.617Z</time></trkpt><trkpt lat="42.0804661" lon="13.5910728"><ele>1004.0</ele><time>2026-05-02T13:18:15.617Z</time></trkpt><trkpt lat="42.0803956" lon="13.5910246"><ele>1004.8333333333334</ele><time>2026-05-02T13:18:16.617Z</time></trkpt><trkpt lat="42.0803249" lon="13.5909742"><ele>1005.6666666666667</ele><time>2026-05-02T13:18:17.617Z</time></trkpt><trkpt lat="42.080257" lon="13.5909225"><ele>1006.5</ele><time>2026-05-02T13:18:18.617Z</time></trkpt><trkpt lat="42.0801969" lon="13.5908751"><ele>1007.3333333333333</ele><time>2026-05-02T13:18:19.617Z</time></trkpt><trkpt lat="42.080143" lon="13.5908295"><ele>1008.1666666666666</ele><time>2026-05-02T13:18:20.618Z</time></trkpt><trkpt lat="42.0800344" lon="13.5907491"><ele>1009.0</ele><time>2026-05-02T13:18:22.617Z</time></trkpt><trkpt lat="42.0799298" lon="13.5906659"><ele>1002.0</ele><time>2026-05-02T13:18:24.617Z</time></trkpt><trkpt lat="42.0798262" lon="13.5905781"><ele>995.0</ele><time>2026-05-02T13:18:26.617Z</time></trkpt><trkpt lat="42.0797427" lon="13.5904633"><ele>988.0</ele><time>2026-05-02T13:18:28.617Z</time></trkpt><trkpt lat="42.0797004" lon="13.590312"><ele>981.0</ele><time>2026-05-02T13:18:30.617Z</time></trkpt><trkpt lat="42.0796786" lon="13.5901491"><ele>980.8</ele><time>2026-05-02T13:18:32.618Z</time></trkpt><trkpt lat="42.0796762" lon="13.5899904"><ele>980.5999999999999</ele><time>2026-05-02T13:18:34.617Z</time></trkpt><trkpt lat="42.0797094" lon="13.5898342"><ele>980.4</ele><time>2026-05-02T13:18:36.617Z</time></trkpt><trkpt lat="42.0797526" lon="13.5896842"><ele>980.2</ele><time>2026-05-02T13:18:38.617Z</time></trkpt><trkpt lat="42.0797816" lon="13.5896043"><ele>980.0</ele><time>2026-05-02T13:18:39.618Z</time></trkpt><trkpt lat="42.0798164" lon="13.5895231"><ele>978.5714285714286</ele><time>2026-05-02T13:18:40.617Z</time></trkpt><trkpt lat="42.0798523" lon="13.5894373"><ele>977.1428571428571</ele><time>2026-05-02T13:18:41.618Z</time></trkpt><trkpt lat="42.0798894" lon="13.5893576"><ele>975.7142857142858</ele><time>2026-05-02T13:18:42.618Z</time></trkpt><trkpt lat="42.0799241" lon="13.5892783"><ele>974.2857142857143</ele><time>2026-05-02T13:18:43.618Z</time></trkpt><trkpt lat="42.0799568" lon="13.5891993"><ele>972.8571428571429</ele><time>2026-05-02T13:18:44.618Z</time></trkpt><trkpt lat="42.0799906" lon="13.5891217"><ele>971.4285714285716</ele><time>2026-05-02T13:18:45.618Z</time></trkpt><trkpt lat="42.0800344" lon="13.5890569"><ele>970.0000000000001</ele><time>2026-05-02T13:18:46.617Z</time></trkpt><trkpt lat="42.0800895" lon="13.5890118"><ele>974.2857142857144</ele><time>2026-05-02T13:18:47.617Z</time></trkpt><trkpt lat="42.0801457" lon="13.5889734"><ele>978.5714285714287</ele><time>2026-05-02T13:18:48.618Z</time></trkpt><trkpt lat="42.0802008" lon="13.5889301"><ele>982.8571428571429</ele><time>2026-05-02T13:18:49.617Z</time></trkpt><trkpt lat="42.0802601" lon="13.5888787"><ele>987.1428571428572</ele><time>2026-05-02T13:18:50.617Z</time></trkpt><trkpt lat="42.0803231" lon="13.5888261"><ele>991.4285714285716</ele><time>2026-05-02T13:18:51.618Z</time></trkpt><trkpt lat="42.0803865" lon="13.5887759"><ele>995.7142857142857</ele><time>2026-05-02T13:18:52.618Z</time></trkpt><trkpt lat="42.0804483" lon="13.5887294"><ele>1000.0</ele><time>2026-05-02T13:18:53.617Z</time></trkpt><trkpt lat="42.0805099" lon="13.588682"><ele>999.1666666666666</ele><time>2026-05-02T13:18:54.618Z</time></trkpt><trkpt lat="42.0805702" lon="13.5886398"><ele>998.3333333333333</ele><time>2026-05-02T13:18:55.617Z</time></trkpt><trkpt lat="42.0806267" lon="13.5885978"><ele>997.5</ele><time>2026-05-02T13:18:56.617Z</time></trkpt><trkpt lat="42.0807407" lon="13.5885476"><ele>996.6666666666667</ele><time>2026-05-02T13:18:58.618Z</time></trkpt><trkpt lat="42.0808645" lon="13.5885421"><ele>995.8333333333334</ele><time>2026-05-02T13:19:00.617Z</time></trkpt><trkpt lat="42.0809294" lon="13.5885527"><ele>995.0</ele><time>2026-05-02T13:19:01.618Z</time></trkpt><trkpt lat="42.0809952" lon="13.5885743"><ele>995.0000000000001</ele><time>2026-05-02T13:19:02.617Z</time></trkpt><trkpt lat="42.0810608" lon="13.5886006"><ele>995.0</ele><time>2026-05-02T13:19:03.617Z</time></trkpt><trkpt lat="42.0811269" lon="13.5886334"><ele>995.0</ele><time>2026-05-02T13:19:04.617Z</time></trkpt><trkpt lat="42.0812293" lon="13.588688"><ele>995.0</ele><time>2026-05-02T13:19:06.618Z</time></trkpt><trkpt lat="42.0813237" lon="13.5887412"><ele>995.0000000000001</ele><time>2026-05-02T13:19:08.617Z</time></trkpt><trkpt lat="42.0813901" lon="13.5887727"><ele>995.0</ele><time>2026-05-02T13:19:09.618Z</time></trkpt><trkpt lat="42.0814664" lon="13.5888103"><ele>997.0</ele><time>2026-05-02T13:19:10.617Z</time></trkpt><trkpt lat="42.0815535" lon="13.5888523"><ele>999.0</ele><time>2026-05-02T13:19:11.617Z</time></trkpt><trkpt lat="42.0816486" lon="13.5888976"><ele>1001.0</ele><time>2026-05-02T13:19:12.617Z</time></trkpt><trkpt lat="42.0817484" lon="13.5889402"><ele>1003.0</ele><time>2026-05-02T13:19:13.618Z</time></trkpt><trkpt lat="42.0818507" lon="13.5889826"><ele>1005.0</ele><time>2026-05-02T13:19:14.617Z</time></trkpt><trkpt lat="42.0819537" lon="13.5890293"><ele>1005.0</ele><time>2026-05-02T13:19:15.618Z</time></trkpt><trkpt lat="42.0820568" lon="13.5890711"><ele>1005.0</ele><time>2026-05-02T13:19:16.617Z</time></trkpt><trkpt lat="42.0821507" lon="13.5891101"><ele>1005.0</ele><time>2026-05-02T13:19:17.617Z</time></trkpt><trkpt lat="42.0822339" lon="13.5891403"><ele>1005.0</ele><time>2026-05-02T13:19:18.617Z</time></trkpt><trkpt lat="42.0823175" lon="13.5891674"><ele>1005.0</ele><time>2026-05-02T13:19:19.617Z</time></trkpt><trkpt lat="42.0824011" lon="13.5891905"><ele>1005.5</ele><time>2026-05-02T13:19:20.618Z</time></trkpt><trkpt lat="42.0824836" lon="13.5892071"><ele>1006.0</ele><time>2026-05-02T13:19:21.618Z</time></trkpt><trkpt lat="42.0825587" lon="13.5892216"><ele>1006.5</ele><time>2026-05-02T13:19:22.617Z</time></trkpt><trkpt lat="42.082627" lon="13.5892335"><ele>1007.0</ele><time>2026-05-02T13:19:24.617Z</time></trkpt><trkpt lat="42.0826255" lon="13.5891272"><ele>1007.5</ele><time>2026-05-02T13:19:36.618Z</time></trkpt><trkpt lat="42.0826067" lon="13.5889776"><ele>1008.0</ele><time>2026-05-02T13:19:38.617Z</time></trkpt><trkpt lat="42.0825868" lon="13.5888566"><ele>1008.0</ele><time>2026-05-02T13:19:40.617Z</time></trkpt><trkpt lat="42.0826453" lon="13.5888125"><ele>1008.0</ele><time>2026-05-02T13:19:44.618Z</time></trkpt><trkpt lat="42.0827308" lon="13.5888935"><ele>1008.0</ele><time>2026-05-02T13:19:46.617Z</time></trkpt><trkpt lat="42.0827896" lon="13.5889558"><ele>1008.0</ele><time>2026-05-02T13:19:47.617Z</time></trkpt><trkpt lat="42.0828559" lon="13.5890213"><ele>1008.0</ele><time>2026-05-02T13:19:48.618Z</time></trkpt><trkpt lat="42.0829295" lon="13.5890875"><ele>1008.0</ele><time>2026-05-02T13:19:49.618Z</time></trkpt><trkpt lat="42.0829988" lon="13.5891441"><ele>1008.0</ele><time>2026-05-02T13:19:50.618Z</time></trkpt><trkpt lat="42.0830777" lon="13.5891859"><ele>1008.0</ele><time>2026-05-02T13:19:51.617Z</time></trkpt><trkpt lat="42.0831683" lon="13.5892155"><ele>1008.0</ele><time>2026-05-02T13:19:52.618Z</time></trkpt><trkpt lat="42.0832356" lon="13.5892434"><ele>1008.0</ele><time>2026-05-02T13:19:54.617Z</time></trkpt><trkpt lat="42.0831643" lon="13.589182"><ele>1008.0</ele><time>2026-05-02T13:20:00.618Z</time></trkpt><trkpt lat="42.0830584" lon="13.5891539"><ele>1008.0</ele><time>2026-05-02T13:20:02.617Z</time></trkpt><trkpt lat="42.0829524" lon="13.5890924"><ele>1008.0</ele><time>2026-05-02T13:20:04.617Z</time></trkpt><trkpt lat="42.0828932" lon="13.589045"><ele>1008.0</ele><time>2026-05-02T13:20:05.617Z</time></trkpt><trkpt lat="42.0828305" lon="13.5889912"><ele>1008.0</ele><time>2026-05-02T13:20:06.617Z</time></trkpt><trkpt lat="42.0827708" lon="13.5889388"><ele>1008.0</ele><time>2026-05-02T13:20:07.618Z</time></trkpt><trkpt lat="42.082712" lon="13.5888826"><ele>1008.0</ele><time>2026-05-02T13:20:08.617Z</time></trkpt><trkpt lat="42.0826533" lon="13.5888244"><ele>1008.0</ele><time>2026-05-02T13:20:09.617Z</time></trkpt><trkpt lat="42.0825632" lon="13.5887476"><ele>1008.0</ele><time>2026-05-02T13:20:11.617Z</time></trkpt><trkpt lat="42.0825993" lon="13.5886766"><ele>1008.0</ele><time>2026-05-02T13:20:16.617Z</time></trkpt><trkpt lat="42.0826732" lon="13.5886768"><ele>1008.0</ele><time>2026-05-02T13:20:18.617Z</time></trkpt><trkpt lat="42.0827573" lon="13.5886964"><ele>1008.0</ele><time>2026-05-02T13:20:20.617Z</time></trkpt><trkpt lat="42.0828624" lon="13.5887283"><ele>1008.0</ele><time>2026-05-02T13:20:22.617Z</time></trkpt><trkpt lat="42.0829814" lon="13.5887614"><ele>1008.0</ele><time>2026-05-02T13:20:24.618Z</time></trkpt><trkpt lat="42.0831028" lon="13.5887814"><ele>1008.0</ele><time>2026-05-02T13:20:26.617Z</time></trkpt><trkpt lat="42.083228" lon="13.5888012"><ele>1008.0</ele><time>2026-05-02T13:20:28.617Z</time></trkpt><trkpt lat="42.083293" lon="13.5888098"><ele>1008.0</ele><time>2026-05-02T13:20:29.618Z</time></trkpt><trkpt lat="42.0833583" lon="13.5888151"><ele>1008.0</ele><time>2026-05-02T13:20:30.617Z</time></trkpt><trkpt lat="42.0834713" lon="13.5888219"><ele>1005.75</ele><time>2026-05-02T13:20:32.617Z</time></trkpt><trkpt lat="42.0835925" lon="13.5888206"><ele>1003.5</ele><time>2026-05-02T13:20:34.617Z</time></trkpt><trkpt lat="42.0837114" lon="13.5888216"><ele>1001.25</ele><time>2026-05-02T13:20:36.618Z</time></trkpt><trkpt lat="42.0838265" lon="13.5888329"><ele>999.0</ele><time>2026-05-02T13:20:38.618Z</time></trkpt><trkpt lat="42.0839315" lon="13.5888457"><ele>999.0</ele><time>2026-05-02T13:20:40.617Z</time></trkpt><trkpt lat="42.0840374" lon="13.5888502"><ele>999.0000000000001</ele><time>2026-05-02T13:20:42.617Z</time></trkpt><trkpt lat="42.0841225" lon="13.5888437"><ele>999.0000000000001</ele><time>2026-05-02T13:20:44.618Z</time></trkpt><trkpt lat="42.0841925" lon="13.5888212"><ele>999.0</ele><time>2026-05-02T13:20:47.617Z</time></trkpt><trkpt lat="42.0842826" lon="13.5888242"><ele>999.0</ele><time>2026-05-02T13:20:50.617Z</time></trkpt><trkpt lat="42.0843899" lon="13.5888236"><ele>997.0</ele><time>2026-05-02T13:20:52.618Z</time></trkpt><trkpt lat="42.0845071" lon="13.588798"><ele>995.0000000000001</ele><time>2026-05-02T13:20:54.618Z</time></trkpt><trkpt lat="42.0846248" lon="13.5887858"><ele>993.0000000000001</ele><time>2026-05-02T13:20:56.617Z</time></trkpt><trkpt lat="42.0847298" lon="13.5887904"><ele>991.0</ele><time>2026-05-02T13:20:58.617Z</time></trkpt><trkpt lat="42.0847897" lon="13.5887402"><ele>989.0</ele><time>2026-05-02T13:21:00.617Z</time></trkpt><trkpt lat="42.084761" lon="13.5886272"><ele>984.8000000000001</ele><time>2026-05-02T13:21:03.618Z</time></trkpt><trkpt lat="42.084681" lon="13.5886103"><ele>980.6000000000001</ele><time>2026-05-02T13:21:05.617Z</time></trkpt><trkpt lat="42.0845847" lon="13.5886337"><ele>976.4</ele><time>2026-05-02T13:21:07.617Z</time></trkpt><trkpt lat="42.0844909" lon="13.5886003"><ele>972.2</ele><time>2026-05-02T13:21:09.617Z</time></trkpt><trkpt lat="42.0844036" lon="13.5885042"><ele>968.0</ele><time>2026-05-02T13:21:11.618Z</time></trkpt><trkpt lat="42.0843106" lon="13.5884173"><ele>968.0000000000001</ele><time>2026-05-02T13:21:13.618Z</time></trkpt><trkpt lat="42.0842169" lon="13.5883058"><ele>968.0</ele><time>2026-05-02T13:21:15.617Z</time></trkpt><trkpt lat="42.0841709" lon="13.5882089"><ele>968.0</ele><time>2026-05-02T13:21:17.617Z</time></trkpt><trkpt lat="42.0841709" lon="13.5881016"><ele>968.0</ele><time>2026-05-02T13:21:20.617Z</time></trkpt><trkpt lat="42.0842169" lon="13.5880346"><ele>968.0000000000001</ele><time>2026-05-02T13:21:22.617Z</time></trkpt><trkpt lat="42.0842976" lon="13.5879774"><ele>968.0</ele><time>2026-05-02T13:21:24.617Z</time></trkpt><trkpt lat="42.0843712" lon="13.5879187"><ele>968.0000000000001</ele><time>2026-05-02T13:21:26.617Z</time></trkpt><trkpt lat="42.0844255" lon="13.5878539"><ele>968.0</ele><time>2026-05-02T13:21:28.617Z</time></trkpt><trkpt lat="42.0844928" lon="13.5877772"><ele>968.0</ele><time>2026-05-02T13:21:31.618Z</time></trkpt><trkpt lat="42.0845557" lon="13.5876707"><ele>968.0</ele><time>2026-05-02T13:21:34.617Z</time></trkpt><trkpt lat="42.0845865" lon="13.5875943"><ele>968.0000000000001</ele><time>2026-05-02T13:21:35.617Z</time></trkpt><trkpt lat="42.0846642" lon="13.5874816"><ele>968.0</ele><time>2026-05-02T13:21:37.617Z</time></trkpt><trkpt lat="42.0847493" lon="13.5873679"><ele>965.8333333333334</ele><time>2026-05-02T13:21:39.618Z</time></trkpt><trkpt lat="42.0848015" lon="13.5873095"><ele>963.6666666666667</ele><time>2026-05-02T13:21:40.617Z</time></trkpt><trkpt lat="42.0848607" lon="13.587252"><ele>961.5</ele><time>2026-05-02T13:21:41.618Z</time></trkpt><trkpt lat="42.0849299" lon="13.5871981"><ele>959.3333333333333</ele><time>2026-05-02T13:21:42.617Z</time></trkpt><trkpt lat="42.0850072" lon="13.5871491"><ele>957.1666666666666</ele><time>2026-05-02T13:21:43.617Z</time></trkpt><trkpt lat="42.0850831" lon="13.5871129"><ele>955.0</ele><time>2026-05-02T13:21:44.617Z</time></trkpt><trkpt lat="42.0851574" lon="13.587083"><ele>954.3333333333333</ele><time>2026-05-02T13:21:45.617Z</time></trkpt><trkpt lat="42.0852329" lon="13.5870596"><ele>953.6666666666666</ele><time>2026-05-02T13:21:46.617Z</time></trkpt><trkpt lat="42.0853076" lon="13.5870463"><ele>953.0</ele><time>2026-05-02T13:21:47.617Z</time></trkpt><trkpt lat="42.0853704" lon="13.587029"><ele>952.3333333333333</ele><time>2026-05-02T13:21:48.617Z</time></trkpt><trkpt lat="42.0854508" lon="13.5869519"><ele>951.6666666666666</ele><time>2026-05-02T13:21:50.617Z</time></trkpt><trkpt lat="42.085517" lon="13.5868301"><ele>951.0</ele><time>2026-05-02T13:21:52.618Z</time></trkpt><trkpt lat="42.0855265" lon="13.5866719"><ele>950.0</ele><time>2026-05-02T13:21:54.617Z</time></trkpt><trkpt lat="42.0854785" lon="13.5865159"><ele>949.0</ele><time>2026-05-02T13:21:56.617Z</time></trkpt><trkpt lat="42.0854431" lon="13.5864404"><ele>948.0</ele><time>2026-05-02T13:21:57.617Z</time></trkpt><trkpt lat="42.0854138" lon="13.5863611"><ele>947.0</ele><time>2026-05-02T13:21:58.617Z</time></trkpt><trkpt lat="42.0853926" lon="13.5862718"><ele>946.0</ele><time>2026-05-02T13:21:59.617Z</time></trkpt><trkpt lat="42.0853755" lon="13.5861739"><ele>945.0</ele><time>2026-05-02T13:22:00.617Z</time></trkpt><trkpt lat="42.0853611" lon="13.5860755"><ele>944.8333333333334</ele><time>2026-05-02T13:22:01.617Z</time></trkpt><trkpt lat="42.0853527" lon="13.5859815"><ele>944.6666666666667</ele><time>2026-05-02T13:22:02.617Z</time></trkpt><trkpt lat="42.0853579" lon="13.5858923"><ele>944.5</ele><time>2026-05-02T13:22:03.617Z</time></trkpt><trkpt lat="42.0853876" lon="13.5857502"><ele>944.3333333333334</ele><time>2026-05-02T13:22:05.617Z</time></trkpt><trkpt lat="42.0854078" lon="13.5856441"><ele>944.1666666666667</ele><time>2026-05-02T13:22:07.617Z</time></trkpt><trkpt lat="42.0854515" lon="13.5855619"><ele>944.0</ele><time>2026-05-02T13:22:13.617Z</time></trkpt><trkpt lat="42.0854861" lon="13.5854613"><ele>943.6</ele><time>2026-05-02T13:22:15.618Z</time></trkpt><trkpt lat="42.085534" lon="13.5853332"><ele>943.2</ele><time>2026-05-02T13:22:17.618Z</time></trkpt><trkpt lat="42.0855812" lon="13.5851891"><ele>942.8000000000001</ele><time>2026-05-02T13:22:19.617Z</time></trkpt><trkpt lat="42.0856431" lon="13.5850358"><ele>942.4000000000001</ele><time>2026-05-02T13:22:21.617Z</time></trkpt><trkpt lat="42.0856783" lon="13.5849457"><ele>942.0</ele><time>2026-05-02T13:22:22.618Z</time></trkpt><trkpt lat="42.0857107" lon="13.5848577"><ele>942.0</ele><time>2026-05-02T13:22:23.617Z</time></trkpt><trkpt lat="42.0857444" lon="13.5847696"><ele>942.0</ele><time>2026-05-02T13:22:24.617Z</time></trkpt><trkpt lat="42.0857777" lon="13.5846853"><ele>942.0</ele><time>2026-05-02T13:22:25.617Z</time></trkpt><trkpt lat="42.0858347" lon="13.584559"><ele>942.0</ele><time>2026-05-02T13:22:27.617Z</time></trkpt><trkpt lat="42.0858979" lon="13.584478"><ele>942.0</ele><time>2026-05-02T13:22:29.617Z</time></trkpt><trkpt lat="42.085966" lon="13.5843935"><ele>942.0</ele><time>2026-05-02T13:22:31.617Z</time></trkpt><trkpt lat="42.086035" lon="13.5843349"><ele>945.6666666666666</ele><time>2026-05-02T13:22:33.617Z</time></trkpt><trkpt lat="42.0861077" lon="13.5843296"><ele>949.3333333333333</ele><time>2026-05-02T13:22:36.618Z</time></trkpt><trkpt lat="42.0861244" lon="13.5842078"><ele>953.0</ele><time>2026-05-02T13:22:42.618Z</time></trkpt><trkpt lat="42.0860891" lon="13.5840927"><ele>956.6666666666666</ele><time>2026-05-02T13:22:44.617Z</time></trkpt><trkpt lat="42.0860686" lon="13.5839475"><ele>960.3333333333333</ele><time>2026-05-02T13:22:46.617Z</time></trkpt><trkpt lat="42.0860556" lon="13.5838554"><ele>964.0</ele><time>2026-05-02T13:22:47.618Z</time></trkpt><trkpt lat="42.0860295" lon="13.583748"><ele>964.6</ele><time>2026-05-02T13:22:48.617Z</time></trkpt><trkpt lat="42.0859935" lon="13.5836245"><ele>965.2</ele><time>2026-05-02T13:22:49.617Z</time></trkpt><trkpt lat="42.0859535" lon="13.5835054"><ele>965.8000000000001</ele><time>2026-05-02T13:22:50.618Z</time></trkpt><trkpt lat="42.0859067" lon="13.5833889"><ele>966.4000000000001</ele><time>2026-05-02T13:22:51.617Z</time></trkpt><trkpt lat="42.0858511" lon="13.5832712"><ele>967.0</ele><time>2026-05-02T13:22:52.617Z</time></trkpt><trkpt lat="42.0857932" lon="13.5831549"><ele>965.6</ele><time>2026-05-02T13:22:53.617Z</time></trkpt><trkpt lat="42.0857354" lon="13.5830454"><ele>964.2</ele><time>2026-05-02T13:22:54.618Z</time></trkpt><trkpt lat="42.0856833" lon="13.5829456"><ele>962.8</ele><time>2026-05-02T13:22:55.617Z</time></trkpt><trkpt lat="42.0856343" lon="13.5828486"><ele>961.4</ele><time>2026-05-02T13:22:56.617Z</time></trkpt><trkpt lat="42.0855858" lon="13.5827453"><ele>960.0</ele><time>2026-05-02T13:22:57.617Z</time></trkpt><trkpt lat="42.0855395" lon="13.5826413"><ele>960.0</ele><time>2026-05-02T13:22:58.618Z</time></trkpt><trkpt lat="42.085502" lon="13.5825183"><ele>960.0</ele><time>2026-05-02T13:22:59.617Z</time></trkpt><trkpt lat="42.0854564" lon="13.5824007"><ele>960.0</ele><time>2026-05-02T13:23:00.617Z</time></trkpt><trkpt lat="42.0854182" lon="13.5822834"><ele>960.0</ele><time>2026-05-02T13:23:01.617Z</time></trkpt><trkpt lat="42.0853823" lon="13.582145"><ele>960.0</ele><time>2026-05-02T13:23:02.617Z</time></trkpt><trkpt lat="42.0853435" lon="13.5820146"><ele>961.8</ele><time>2026-05-02T13:23:03.618Z</time></trkpt><trkpt lat="42.0853046" lon="13.5818857"><ele>963.6</ele><time>2026-05-02T13:23:04.617Z</time></trkpt><trkpt lat="42.0852583" lon="13.5817671"><ele>965.4000000000001</ele><time>2026-05-02T13:23:05.617Z</time></trkpt><trkpt lat="42.0852161" lon="13.5816435"><ele>967.2</ele><time>2026-05-02T13:23:06.617Z</time></trkpt><trkpt lat="42.0851771" lon="13.5815221"><ele>969.0</ele><time>2026-05-02T13:23:07.617Z</time></trkpt><trkpt lat="42.0851367" lon="13.5814021"><ele>969.0</ele><time>2026-05-02T13:23:08.618Z</time></trkpt><trkpt lat="42.0850943" lon="13.5812874"><ele>969.0000000000001</ele><time>2026-05-02T13:23:09.618Z</time></trkpt><trkpt lat="42.0850547" lon="13.5811723"><ele>969.0000000000001</ele><time>2026-05-02T13:23:10.617Z</time></trkpt><trkpt lat="42.0850199" lon="13.581049"><ele>969.0</ele><time>2026-05-02T13:23:11.617Z</time></trkpt><trkpt lat="42.0849846" lon="13.5809269"><ele>969.0</ele><time>2026-05-02T13:23:12.617Z</time></trkpt><trkpt lat="42.0849535" lon="13.5808171"><ele>970.2</ele><time>2026-05-02T13:23:13.617Z</time></trkpt><trkpt lat="42.0849258" lon="13.5807262"><ele>971.4000000000001</ele><time>2026-05-02T13:23:14.618Z</time></trkpt><trkpt lat="42.0849021" lon="13.5806428"><ele>972.6</ele><time>2026-05-02T13:23:15.617Z</time></trkpt><trkpt lat="42.0848686" lon="13.5805047"><ele>973.8</ele><time>2026-05-02T13:23:17.617Z</time></trkpt><trkpt lat="42.0848471" lon="13.5803712"><ele>975.0</ele><time>2026-05-02T13:23:19.617Z</time></trkpt><trkpt lat="42.0848397" lon="13.5802277"><ele>975.6</ele><time>2026-05-02T13:23:21.617Z</time></trkpt><trkpt lat="42.0848326" lon="13.5800819"><ele>976.2</ele><time>2026-05-02T13:23:23.617Z</time></trkpt><trkpt lat="42.0848385" lon="13.579929"><ele>976.8</ele><time>2026-05-02T13:23:25.617Z</time></trkpt><trkpt lat="42.0848599" lon="13.5798115"><ele>977.4</ele><time>2026-05-02T13:23:27.617Z</time></trkpt><trkpt lat="42.0848877" lon="13.5797072"><ele>978.0</ele><time>2026-05-02T13:23:29.617Z</time></trkpt><trkpt lat="42.0849406" lon="13.5795941"><ele>975.2</ele><time>2026-05-02T13:23:31.617Z</time></trkpt><trkpt lat="42.0850069" lon="13.5794647"><ele>972.4</ele><time>2026-05-02T13:23:33.618Z</time></trkpt><trkpt lat="42.0850718" lon="13.5793604"><ele>969.6000000000001</ele><time>2026-05-02T13:23:35.617Z</time></trkpt><trkpt lat="42.0851541" lon="13.5792521"><ele>966.8000000000001</ele><time>2026-05-02T13:23:37.618Z</time></trkpt><trkpt lat="42.0851987" lon="13.5791902"><ele>964.0</ele><time>2026-05-02T13:23:38.617Z</time></trkpt><trkpt lat="42.0852483" lon="13.5791278"><ele>963.9999999999999</ele><time>2026-05-02T13:23:39.617Z</time></trkpt><trkpt lat="42.0853017" lon="13.579063"><ele>964.0</ele><time>2026-05-02T13:23:40.618Z</time></trkpt><trkpt lat="42.0853593" lon="13.578997"><ele>964.0</ele><time>2026-05-02T13:23:41.617Z</time></trkpt><trkpt lat="42.0854152" lon="13.578923"><ele>964.0</ele><time>2026-05-02T13:23:42.617Z</time></trkpt><trkpt lat="42.085468" lon="13.5788358"><ele>963.9999999999999</ele><time>2026-05-02T13:23:43.617Z</time></trkpt><trkpt lat="42.085519" lon="13.5787513"><ele>964.0</ele><time>2026-05-02T13:23:44.617Z</time></trkpt><trkpt lat="42.0855676" lon="13.578679"><ele>963.6666666666666</ele><time>2026-05-02T13:23:45.617Z</time></trkpt><trkpt lat="42.0856166" lon="13.5786066"><ele>963.3333333333333</ele><time>2026-05-02T13:23:46.617Z</time></trkpt><trkpt lat="42.0856684" lon="13.5785282"><ele>963.0</ele><time>2026-05-02T13:23:47.618Z</time></trkpt><trkpt lat="42.0857195" lon="13.5784446"><ele>962.6666666666667</ele><time>2026-05-02T13:23:48.617Z</time></trkpt><trkpt lat="42.0857634" lon="13.5783508"><ele>962.3333333333334</ele><time>2026-05-02T13:23:49.617Z</time></trkpt><trkpt lat="42.0858056" lon="13.5782582"><ele>962.0</ele><time>2026-05-02T13:23:50.617Z</time></trkpt><trkpt lat="42.0858528" lon="13.5781703"><ele>962.0</ele><time>2026-05-02T13:23:51.617Z</time></trkpt><trkpt lat="42.0858924" lon="13.5780826"><ele>962.0</ele><time>2026-05-02T13:23:52.617Z</time></trkpt><trkpt lat="42.0859289" lon="13.5779335"><ele>962.0</ele><time>2026-05-02T13:23:54.617Z</time></trkpt><trkpt lat="42.0859515" lon="13.5777702"><ele>962.0</ele><time>2026-05-02T13:23:56.617Z</time></trkpt><trkpt lat="42.085992" lon="13.5776173"><ele>962.0</ele><time>2026-05-02T13:23:58.618Z</time></trkpt><trkpt lat="42.0860259" lon="13.5775283"><ele>959.5000000000001</ele><time>2026-05-02T13:24:00.618Z</time></trkpt><trkpt lat="42.0860279" lon="13.5774396"><ele>957.0</ele><time>2026-05-02T13:24:05.617Z</time></trkpt><trkpt lat="42.0859711" lon="13.5773782"><ele>954.5</ele><time>2026-05-02T13:24:08.618Z</time></trkpt><trkpt lat="42.0858874" lon="13.5773543"><ele>952.0</ele><time>2026-05-02T13:24:10.617Z</time></trkpt><trkpt lat="42.0857785" lon="13.5773667"><ele>949.5000000000001</ele><time>2026-05-02T13:24:12.617Z</time></trkpt><trkpt lat="42.0856761" lon="13.5773616"><ele>947.0</ele><time>2026-05-02T13:24:14.617Z</time></trkpt><trkpt lat="42.0855974" lon="13.5773569"><ele>944.6666666666667</ele><time>2026-05-02T13:24:16.617Z</time></trkpt><trkpt lat="42.0855284" lon="13.577353"><ele>942.3333333333334</ele><time>2026-05-02T13:24:18.617Z</time></trkpt><trkpt lat="42.085439" lon="13.5773516"><ele>940.0</ele><time>2026-05-02T13:24:20.617Z</time></trkpt><trkpt lat="42.085356" lon="13.5773545"><ele>937.6666666666667</ele><time>2026-05-02T13:24:22.618Z</time></trkpt><trkpt lat="42.0852653" lon="13.5773541"><ele>935.3333333333334</ele><time>2026-05-02T13:24:24.618Z</time></trkpt><trkpt lat="42.0851555" lon="13.5773486"><ele>933.0</ele><time>2026-05-02T13:24:26.617Z</time></trkpt><trkpt lat="42.0850743" lon="13.5773566"><ele>933.0</ele><time>2026-05-02T13:24:28.617Z</time></trkpt><trkpt lat="42.0849935" lon="13.5772913"><ele>933.0</ele><time>2026-05-02T13:24:30.617Z</time></trkpt><trkpt lat="42.0849683" lon="13.577168"><ele>933.0</ele><time>2026-05-02T13:24:32.617Z</time></trkpt><trkpt lat="42.0850109" lon="13.5770466"><ele>933.0</ele><time>2026-05-02T13:24:34.618Z</time></trkpt><trkpt lat="42.0850784" lon="13.5769725"><ele>933.0</ele><time>2026-05-02T13:24:36.617Z</time></trkpt><trkpt lat="42.0851532" lon="13.5768994"><ele>930.5</ele><time>2026-05-02T13:24:38.617Z</time></trkpt><trkpt lat="42.0852195" lon="13.576837"><ele>928.0</ele><time>2026-05-02T13:24:40.617Z</time></trkpt><trkpt lat="42.0852949" lon="13.5768028"><ele>925.5</ele><time>2026-05-02T13:24:42.618Z</time></trkpt><trkpt lat="42.0853861" lon="13.5767497"><ele>923.0</ele><time>2026-05-02T13:24:44.617Z</time></trkpt><trkpt lat="42.08543" lon="13.5766556"><ele>920.5</ele><time>2026-05-02T13:24:46.617Z</time></trkpt><trkpt lat="42.0854311" lon="13.5765556"><ele>918.0</ele><time>2026-05-02T13:24:48.618Z</time></trkpt><trkpt lat="42.0853846" lon="13.5764624"><ele>918.0</ele><time>2026-05-02T13:24:51.617Z</time></trkpt><trkpt lat="42.0853061" lon="13.5764257"><ele>918.0</ele><time>2026-05-02T13:24:54.617Z</time></trkpt><trkpt lat="42.0852402" lon="13.5764454"><ele>918.0</ele><time>2026-05-02T13:24:57.618Z</time></trkpt><trkpt lat="42.0851474" lon="13.5764554"><ele>918.0</ele><time>2026-05-02T13:25:00.617Z</time></trkpt><trkpt lat="42.0850814" lon="13.5764565"><ele>918.0</ele><time>2026-05-02T13:25:02.569Z</time></trkpt><trkpt lat="42.0850028" lon="13.5764174"><ele>918.0</ele><time>2026-05-02T13:25:04.617Z</time></trkpt><trkpt lat="42.0849119" lon="13.5763506"><ele>916.5999999999999</ele><time>2026-05-02T13:25:06.618Z</time></trkpt><trkpt lat="42.0848082" lon="13.5763052"><ele>915.1999999999999</ele><time>2026-05-02T13:25:08.618Z</time></trkpt><trkpt lat="42.0847066" lon="13.5762574"><ele>913.8</ele><time>2026-05-02T13:25:10.618Z</time></trkpt><trkpt lat="42.0845962" lon="13.5762213"><ele>912.4</ele><time>2026-05-02T13:25:12.617Z</time></trkpt><trkpt lat="42.0844951" lon="13.5761997"><ele>911.0</ele><time>2026-05-02T13:25:14.617Z</time></trkpt><trkpt lat="42.0843879" lon="13.5762014"><ele>908.5000000000001</ele><time>2026-05-02T13:25:16.617Z</time></trkpt><trkpt lat="42.0842838" lon="13.5761781"><ele>906.0</ele><time>2026-05-02T13:25:18.618Z</time></trkpt><trkpt lat="42.0842027" lon="13.5761498"><ele>903.5</ele><time>2026-05-02T13:25:20.617Z</time></trkpt><trkpt lat="42.0841326" lon="13.5761237"><ele>901.0</ele><time>2026-05-02T13:25:22.618Z</time></trkpt><trkpt lat="42.0840571" lon="13.5761049"><ele>898.5000000000001</ele><time>2026-05-02T13:25:24.618Z</time></trkpt><trkpt lat="42.0839517" lon="13.5760726"><ele>896.0</ele><time>2026-05-02T13:25:28.618Z</time></trkpt><trkpt lat="42.0838676" lon="13.5760664"><ele>895.4</ele><time>2026-05-02T13:25:30.618Z</time></trkpt><trkpt lat="42.0837673" lon="13.5760803"><ele>894.8</ele><time>2026-05-02T13:25:32.617Z</time></trkpt><trkpt lat="42.0836725" lon="13.5760567"><ele>894.1999999999999</ele><time>2026-05-02T13:25:34.617Z</time></trkpt><trkpt lat="42.0835907" lon="13.5759933"><ele>893.5999999999999</ele><time>2026-05-02T13:25:36.618Z</time></trkpt><trkpt lat="42.0835179" lon="13.5759134"><ele>893.0</ele><time>2026-05-02T13:25:38.617Z</time></trkpt><trkpt lat="42.0834491" lon="13.5758213"><ele>893.0000000000001</ele><time>2026-05-02T13:25:40.617Z</time></trkpt><trkpt lat="42.0833961" lon="13.5757495"><ele>893.0</ele><time>2026-05-02T13:25:42.617Z</time></trkpt><trkpt lat="42.083355" lon="13.575665"><ele>893.0</ele><time>2026-05-02T13:25:44.618Z</time></trkpt><trkpt lat="42.0833142" lon="13.5755552"><ele>893.0</ele><time>2026-05-02T13:25:46.617Z</time></trkpt><trkpt lat="42.083242" lon="13.5754281"><ele>893.0000000000001</ele><time>2026-05-02T13:25:48.617Z</time></trkpt><trkpt lat="42.0832058" lon="13.5753582"><ele>893.0</ele><time>2026-05-02T13:25:49.617Z</time></trkpt><trkpt lat="42.0831449" lon="13.5752204"><ele>891.6666666666667</ele><time>2026-05-02T13:25:51.618Z</time></trkpt><trkpt lat="42.0830988" lon="13.5750986"><ele>890.3333333333334</ele><time>2026-05-02T13:25:53.617Z</time></trkpt><trkpt lat="42.0830466" lon="13.5749571"><ele>889.0</ele><time>2026-05-02T13:25:55.617Z</time></trkpt><trkpt lat="42.0830226" lon="13.5748734"><ele>887.6666666666667</ele><time>2026-05-02T13:25:56.617Z</time></trkpt><trkpt lat="42.0830016" lon="13.5747916"><ele>886.3333333333334</ele><time>2026-05-02T13:25:57.617Z</time></trkpt><trkpt lat="42.0829784" lon="13.5747119"><ele>885.0</ele><time>2026-05-02T13:25:58.617Z</time></trkpt><trkpt lat="42.0829446" lon="13.5746351"><ele>885.0</ele><time>2026-05-02T13:25:59.617Z</time></trkpt><trkpt lat="42.0829066" lon="13.5745574"><ele>885.0</ele><time>2026-05-02T13:26:00.618Z</time></trkpt><trkpt lat="42.0828732" lon="13.5744834"><ele>885.0</ele><time>2026-05-02T13:26:01.618Z</time></trkpt><trkpt lat="42.0828336" lon="13.5744066"><ele>885.0</ele><time>2026-05-02T13:26:02.617Z</time></trkpt><trkpt lat="42.0827939" lon="13.5743287"><ele>885.0</ele><time>2026-05-02T13:26:03.618Z</time></trkpt><trkpt lat="42.0827284" lon="13.5741877"><ele>885.0</ele><time>2026-05-02T13:26:05.617Z</time></trkpt><trkpt lat="42.0826692" lon="13.5740512"><ele>884.0</ele><time>2026-05-02T13:26:07.617Z</time></trkpt><trkpt lat="42.0825994" lon="13.5739156"><ele>883.0</ele><time>2026-05-02T13:26:09.617Z</time></trkpt><trkpt lat="42.0825232" lon="13.5737931"><ele>882.0</ele><time>2026-05-02T13:26:11.617Z</time></trkpt><trkpt lat="42.0824834" lon="13.5737235"><ele>881.0</ele><time>2026-05-02T13:26:12.617Z</time></trkpt><trkpt lat="42.0824401" lon="13.5736513"><ele>880.0</ele><time>2026-05-02T13:26:13.617Z</time></trkpt><trkpt lat="42.0824016" lon="13.573582"><ele>879.0</ele><time>2026-05-02T13:26:14.618Z</time></trkpt><trkpt lat="42.0823334" lon="13.5734636"><ele>878.2</ele><time>2026-05-02T13:26:16.617Z</time></trkpt><trkpt lat="42.0822691" lon="13.5733359"><ele>877.4000000000001</ele><time>2026-05-02T13:26:18.617Z</time></trkpt><trkpt lat="42.0821995" lon="13.5732268"><ele>876.6</ele><time>2026-05-02T13:26:20.617Z</time></trkpt><trkpt lat="42.0821264" lon="13.5731382"><ele>875.8</ele><time>2026-05-02T13:26:22.617Z</time></trkpt><trkpt lat="42.0820596" lon="13.5730559"><ele>875.0</ele><time>2026-05-02T13:26:24.618Z</time></trkpt><trkpt lat="42.0819823" lon="13.5729666"><ele>875.0</ele><time>2026-05-02T13:26:26.617Z</time></trkpt><trkpt lat="42.0818918" lon="13.5728829"><ele>875.0</ele><time>2026-05-02T13:26:28.617Z</time></trkpt><trkpt lat="42.0818128" lon="13.572777"><ele>875.0</ele><time>2026-05-02T13:26:30.618Z</time></trkpt><trkpt lat="42.0817376" lon="13.5726742"><ele>875.0</ele><time>2026-05-02T13:26:32.618Z</time></trkpt><trkpt lat="42.0816728" lon="13.572557"><ele>875.0</ele><time>2026-05-02T13:26:34.618Z</time></trkpt><trkpt lat="42.0816016" lon="13.5724514"><ele>874.6666666666667</ele><time>2026-05-02T13:26:36.617Z</time></trkpt><trkpt lat="42.0815446" lon="13.5723523"><ele>874.3333333333334</ele><time>2026-05-02T13:26:38.617Z</time></trkpt><trkpt lat="42.0814705" lon="13.5722791"><ele>874.0</ele><time>2026-05-02T13:26:40.617Z</time></trkpt><trkpt lat="42.0814154" lon="13.5722011"><ele>873.6666666666667</ele><time>2026-05-02T13:26:42.618Z</time></trkpt><trkpt lat="42.0814044" lon="13.5721064"><ele>873.3333333333334</ele><time>2026-05-02T13:26:44.617Z</time></trkpt><trkpt lat="42.0814409" lon="13.5720095"><ele>873.0</ele><time>2026-05-02T13:26:46.617Z</time></trkpt><trkpt lat="42.0814906" lon="13.5719475"><ele>871.4</ele><time>2026-05-02T13:26:48.617Z</time></trkpt><trkpt lat="42.0815053" lon="13.5718575"><ele>869.8</ele><time>2026-05-02T13:26:51.617Z</time></trkpt><trkpt lat="42.0814566" lon="13.5717396"><ele>868.2</ele><time>2026-05-02T13:26:53.617Z</time></trkpt><trkpt lat="42.0813925" lon="13.5716474"><ele>866.6</ele><time>2026-05-02T13:26:55.617Z</time></trkpt><trkpt lat="42.0813163" lon="13.5715844"><ele>865.0</ele><time>2026-05-02T13:26:57.618Z</time></trkpt><trkpt lat="42.081237" lon="13.5714994"><ele>865.0</ele><time>2026-05-02T13:26:59.617Z</time></trkpt><trkpt lat="42.0811735" lon="13.571422"><ele>865.0</ele><time>2026-05-02T13:27:01.618Z</time></trkpt><trkpt lat="42.0810845" lon="13.571344"><ele>865.0</ele><time>2026-05-02T13:27:03.617Z</time></trkpt><trkpt lat="42.0809856" lon="13.5712635"><ele>865.0</ele><time>2026-05-02T13:27:05.617Z</time></trkpt><trkpt lat="42.0808988" lon="13.57115"><ele>865.0</ele><time>2026-05-02T13:27:07.617Z</time></trkpt><trkpt lat="42.0808206" lon="13.571062"><ele>863.0</ele><time>2026-05-02T13:27:09.618Z</time></trkpt><trkpt lat="42.0807663" lon="13.5709344"><ele>861.0</ele><time>2026-05-02T13:27:11.618Z</time></trkpt><trkpt lat="42.0807367" lon="13.5708302"><ele>859.0</ele><time>2026-05-02T13:27:12.617Z</time></trkpt><trkpt lat="42.0806935" lon="13.5707211"><ele>857.0</ele><time>2026-05-02T13:27:13.617Z</time></trkpt><trkpt lat="42.0806511" lon="13.5706188"><ele>855.0</ele><time>2026-05-02T13:27:14.617Z</time></trkpt><trkpt lat="42.0806115" lon="13.5705208"><ele>857.1666666666666</ele><time>2026-05-02T13:27:15.618Z</time></trkpt><trkpt lat="42.0805787" lon="13.5704259"><ele>859.3333333333333</ele><time>2026-05-02T13:27:16.617Z</time></trkpt><trkpt lat="42.0805424" lon="13.5703318"><ele>861.5</ele><time>2026-05-02T13:27:17.617Z</time></trkpt><trkpt lat="42.080506" lon="13.5702325"><ele>863.6666666666666</ele><time>2026-05-02T13:27:18.617Z</time></trkpt><trkpt lat="42.0804755" lon="13.5701327"><ele>865.8333333333333</ele><time>2026-05-02T13:27:19.617Z</time></trkpt><trkpt lat="42.0804494" lon="13.5700175"><ele>868.0</ele><time>2026-05-02T13:27:20.617Z</time></trkpt><trkpt lat="42.0804261" lon="13.5699109"><ele>867.9999999999999</ele><time>2026-05-02T13:27:21.617Z</time></trkpt><trkpt lat="42.0804033" lon="13.5698096"><ele>868.0</ele><time>2026-05-02T13:27:22.617Z</time></trkpt><trkpt lat="42.0803842" lon="13.5697162"><ele>868.0</ele><time>2026-05-02T13:27:23.617Z</time></trkpt><trkpt lat="42.0803706" lon="13.5696291"><ele>868.0</ele><time>2026-05-02T13:27:24.618Z</time></trkpt><trkpt lat="42.0803509" lon="13.5694601"><ele>867.9999999999999</ele><time>2026-05-02T13:27:26.618Z</time></trkpt><trkpt lat="42.0803441" lon="13.5693743"><ele>868.0</ele><time>2026-05-02T13:27:27.617Z</time></trkpt><trkpt lat="42.0803292" lon="13.5692304"><ele>866.1666666666666</ele><time>2026-05-02T13:27:29.617Z</time></trkpt><trkpt lat="42.0802948" lon="13.5691057"><ele>864.3333333333333</ele><time>2026-05-02T13:27:31.617Z</time></trkpt><trkpt lat="42.0802259" lon="13.5689665"><ele>862.5</ele><time>2026-05-02T13:27:33.618Z</time></trkpt><trkpt lat="42.0801871" lon="13.5688859"><ele>860.6666666666667</ele><time>2026-05-02T13:27:34.617Z</time></trkpt><trkpt lat="42.0801538" lon="13.5687981"><ele>858.8333333333334</ele><time>2026-05-02T13:27:35.617Z</time></trkpt><trkpt lat="42.0801268" lon="13.5687117"><ele>857.0</ele><time>2026-05-02T13:27:36.618Z</time></trkpt><trkpt lat="42.0800983" lon="13.5686187"><ele>854.8333333333334</ele><time>2026-05-02T13:27:37.617Z</time></trkpt><trkpt lat="42.0800759" lon="13.5685143"><ele>852.6666666666667</ele><time>2026-05-02T13:27:38.618Z</time></trkpt><trkpt lat="42.0800566" lon="13.568405"><ele>850.5</ele><time>2026-05-02T13:27:39.617Z</time></trkpt><trkpt lat="42.0800337" lon="13.5682928"><ele>848.3333333333333</ele><time>2026-05-02T13:27:40.618Z</time></trkpt><trkpt lat="42.0800095" lon="13.5681889"><ele>846.1666666666666</ele><time>2026-05-02T13:27:41.618Z</time></trkpt><trkpt lat="42.0799964" lon="13.5680821"><ele>844.0</ele><time>2026-05-02T13:27:42.617Z</time></trkpt><trkpt lat="42.0799946" lon="13.5679858"><ele>844.0</ele><time>2026-05-02T13:27:43.618Z</time></trkpt><trkpt lat="42.0800094" lon="13.5678934"><ele>844.0</ele><time>2026-05-02T13:27:44.617Z</time></trkpt><trkpt lat="42.080026" lon="13.5677993"><ele>844.0</ele><time>2026-05-02T13:27:45.617Z</time></trkpt><trkpt lat="42.0800477" lon="13.5677062"><ele>844.0</ele><time>2026-05-02T13:27:46.618Z</time></trkpt><trkpt lat="42.0800825" lon="13.5676185"><ele>844.0</ele><time>2026-05-02T13:27:47.617Z</time></trkpt><trkpt lat="42.0801125" lon="13.5675291"><ele>844.0</ele><time>2026-05-02T13:27:48.618Z</time></trkpt><trkpt lat="42.0801452" lon="13.5674456"><ele>844.0</ele><time>2026-05-02T13:27:49.617Z</time></trkpt><trkpt lat="42.080183" lon="13.56737"><ele>843.1428571428571</ele><time>2026-05-02T13:27:50.617Z</time></trkpt><trkpt lat="42.0802204" lon="13.5672978"><ele>842.2857142857143</ele><time>2026-05-02T13:27:51.617Z</time></trkpt><trkpt lat="42.0802583" lon="13.5672253"><ele>841.4285714285713</ele><time>2026-05-02T13:27:52.617Z</time></trkpt><trkpt lat="42.0802961" lon="13.5671552"><ele>840.5714285714286</ele><time>2026-05-02T13:27:53.617Z</time></trkpt><trkpt lat="42.080339" lon="13.5670851"><ele>839.7142857142857</ele><time>2026-05-02T13:27:54.617Z</time></trkpt><trkpt lat="42.0803849" lon="13.5670223"><ele>838.8571428571428</ele><time>2026-05-02T13:27:55.617Z</time></trkpt><trkpt lat="42.0804415" lon="13.5669617"><ele>838.0</ele><time>2026-05-02T13:27:56.617Z</time></trkpt><trkpt lat="42.080522" lon="13.5668799"><ele>837.9999999999999</ele><time>2026-05-02T13:27:58.618Z</time></trkpt><trkpt lat="42.0805663" lon="13.5667955"><ele>838.0</ele><time>2026-05-02T13:28:00.617Z</time></trkpt><trkpt lat="42.0805809" lon="13.5666914"><ele>838.0</ele><time>2026-05-02T13:28:02.617Z</time></trkpt><trkpt lat="42.0805666" lon="13.5665871"><ele>838.0</ele><time>2026-05-02T13:28:04.617Z</time></trkpt><trkpt lat="42.0805299" lon="13.5664273"><ele>837.9999999999999</ele><time>2026-05-02T13:28:07.617Z</time></trkpt><trkpt lat="42.0804996" lon="13.5663216"><ele>838.0</ele><time>2026-05-02T13:28:08.617Z</time></trkpt><trkpt lat="42.0804859" lon="13.5662065"><ele>837.9999999999999</ele><time>2026-05-02T13:28:09.618Z</time></trkpt><trkpt lat="42.0804792" lon="13.5661008"><ele>838.0</ele><time>2026-05-02T13:28:10.618Z</time></trkpt><trkpt lat="42.0804755" lon="13.5660104"><ele>838.0</ele><time>2026-05-02T13:28:11.617Z</time></trkpt><trkpt lat="42.0804761" lon="13.5658481"><ele>838.0</ele><time>2026-05-02T13:28:13.618Z</time></trkpt><trkpt lat="42.0804722" lon="13.5657597"><ele>837.9999999999999</ele><time>2026-05-02T13:28:14.617Z</time></trkpt><trkpt lat="42.0804599" lon="13.5656693"><ele>838.0</ele><time>2026-05-02T13:28:15.617Z</time></trkpt><trkpt lat="42.080439" lon="13.5655814"><ele>837.9999999999999</ele><time>2026-05-02T13:28:16.617Z</time></trkpt><trkpt lat="42.080411" lon="13.5654963"><ele>838.0</ele><time>2026-05-02T13:28:17.617Z</time></trkpt><trkpt lat="42.0803608" lon="13.5654066"><ele>838.0</ele><time>2026-05-02T13:28:18.617Z</time></trkpt><trkpt lat="42.0803135" lon="13.5653113"><ele>838.0</ele><time>2026-05-02T13:28:19.617Z</time></trkpt><trkpt lat="42.0802731" lon="13.5652167"><ele>837.9999999999999</ele><time>2026-05-02T13:28:20.617Z</time></trkpt><trkpt lat="42.0802352" lon="13.565118"><ele>838.0</ele><time>2026-05-02T13:28:21.617Z</time></trkpt><trkpt lat="42.0802025" lon="13.5650173"><ele>835.9999999999999</ele><time>2026-05-02T13:28:22.617Z</time></trkpt><trkpt lat="42.0801699" lon="13.5649229"><ele>834.0</ele><time>2026-05-02T13:28:23.617Z</time></trkpt><trkpt lat="42.0801374" lon="13.5648283"><ele>832.0</ele><time>2026-05-02T13:28:24.617Z</time></trkpt><trkpt lat="42.0801096" lon="13.5647353"><ele>830.0</ele><time>2026-05-02T13:28:25.617Z</time></trkpt><trkpt lat="42.0800835" lon="13.5646363"><ele>827.9999999999999</ele><time>2026-05-02T13:28:26.617Z</time></trkpt><trkpt lat="42.0800645" lon="13.5645283"><ele>826.0</ele><time>2026-05-02T13:28:27.617Z</time></trkpt><trkpt lat="42.0800551" lon="13.5644204"><ele>824.6666666666666</ele><time>2026-05-02T13:28:28.617Z</time></trkpt><trkpt lat="42.0800473" lon="13.5643103"><ele>823.3333333333333</ele><time>2026-05-02T13:28:29.617Z</time></trkpt><trkpt lat="42.0800462" lon="13.5642008"><ele>822.0</ele><time>2026-05-02T13:28:30.617Z</time></trkpt><trkpt lat="42.0800486" lon="13.5640896"><ele>820.6666666666667</ele><time>2026-05-02T13:28:31.617Z</time></trkpt><trkpt lat="42.0800505" lon="13.5639782"><ele>819.3333333333334</ele><time>2026-05-02T13:28:32.618Z</time></trkpt><trkpt lat="42.0800502" lon="13.5638682"><ele>818.0</ele><time>2026-05-02T13:28:33.617Z</time></trkpt><trkpt lat="42.0800471" lon="13.5637568"><ele>817.8333333333334</ele><time>2026-05-02T13:28:34.618Z</time></trkpt><trkpt lat="42.0800436" lon="13.563647"><ele>817.6666666666667</ele><time>2026-05-02T13:28:35.617Z</time></trkpt><trkpt lat="42.0800408" lon="13.5635393"><ele>817.5</ele><time>2026-05-02T13:28:36.617Z</time></trkpt><trkpt lat="42.080037" lon="13.563434"><ele>817.3333333333333</ele><time>2026-05-02T13:28:37.618Z</time></trkpt><trkpt lat="42.0800365" lon="13.5633314"><ele>817.1666666666666</ele><time>2026-05-02T13:28:38.617Z</time></trkpt><trkpt lat="42.0800337" lon="13.5632304"><ele>817.0</ele><time>2026-05-02T13:28:39.617Z</time></trkpt><trkpt lat="42.0800251" lon="13.5631358"><ele>816.9999999999999</ele><time>2026-05-02T13:28:40.618Z</time></trkpt><trkpt lat="42.0800208" lon="13.563045"><ele>817.0</ele><time>2026-05-02T13:28:41.617Z</time></trkpt><trkpt lat="42.080024" lon="13.5629568"><ele>817.0</ele><time>2026-05-02T13:28:42.618Z</time></trkpt><trkpt lat="42.0800322" lon="13.5628708"><ele>817.0</ele><time>2026-05-02T13:28:43.617Z</time></trkpt><trkpt lat="42.0800441" lon="13.5627851"><ele>816.9999999999999</ele><time>2026-05-02T13:28:44.618Z</time></trkpt><trkpt lat="42.0800595" lon="13.5626427"><ele>817.0</ele><time>2026-05-02T13:28:46.618Z</time></trkpt><trkpt lat="42.0800545" lon="13.5625151"><ele>815.2</ele><time>2026-05-02T13:28:48.617Z</time></trkpt><trkpt lat="42.0800197" lon="13.5623848"><ele>813.4000000000001</ele><time>2026-05-02T13:28:50.617Z</time></trkpt><trkpt lat="42.0799616" lon="13.5622542"><ele>811.5999999999999</ele><time>2026-05-02T13:28:52.618Z</time></trkpt><trkpt lat="42.0799035" lon="13.5621185"><ele>809.8</ele><time>2026-05-02T13:28:54.617Z</time></trkpt><trkpt lat="42.0798688" lon="13.5619716"><ele>808.0</ele><time>2026-05-02T13:28:56.617Z</time></trkpt><trkpt lat="42.079856" lon="13.5618008"><ele>806.6666666666666</ele><time>2026-05-02T13:28:58.618Z</time></trkpt><trkpt lat="42.079857" lon="13.5616984"><ele>805.3333333333333</ele><time>2026-05-02T13:28:59.617Z</time></trkpt><trkpt lat="42.0798597" lon="13.5615956"><ele>804.0</ele><time>2026-05-02T13:29:00.617Z</time></trkpt><trkpt lat="42.0798653" lon="13.5615075"><ele>802.6666666666667</ele><time>2026-05-02T13:29:01.618Z</time></trkpt><trkpt lat="42.0798917" lon="13.5613572"><ele>801.3333333333334</ele><time>2026-05-02T13:29:03.617Z</time></trkpt><trkpt lat="42.0799572" lon="13.5612516"><ele>800.0</ele><time>2026-05-02T13:29:05.617Z</time></trkpt><trkpt lat="42.0800504" lon="13.5611394"><ele>798.8</ele><time>2026-05-02T13:29:07.617Z</time></trkpt><trkpt lat="42.0801123" lon="13.5610067"><ele>797.6</ele><time>2026-05-02T13:29:09.618Z</time></trkpt><trkpt lat="42.080143" lon="13.5608642"><ele>796.4000000000001</ele><time>2026-05-02T13:29:11.617Z</time></trkpt><trkpt lat="42.0801207" lon="13.5607038"><ele>795.2</ele><time>2026-05-02T13:29:13.618Z</time></trkpt><trkpt lat="42.0800985" lon="13.5606136"><ele>794.0</ele><time>2026-05-02T13:29:14.618Z</time></trkpt><trkpt lat="42.0800733" lon="13.5605203"><ele>794.0</ele><time>2026-05-02T13:29:15.617Z</time></trkpt><trkpt lat="42.0800435" lon="13.5604289"><ele>794.0</ele><time>2026-05-02T13:29:16.617Z</time></trkpt><trkpt lat="42.0800118" lon="13.5603494"><ele>794.0</ele><time>2026-05-02T13:29:17.617Z</time></trkpt><trkpt lat="42.0799562" lon="13.5602042"><ele>794.0</ele><time>2026-05-02T13:29:19.617Z</time></trkpt><trkpt lat="42.0798981" lon="13.5600714"><ele>794.0</ele><time>2026-05-02T13:29:21.617Z</time></trkpt><trkpt lat="42.0798363" lon="13.5599597"><ele>796.4000000000001</ele><time>2026-05-02T13:29:23.617Z</time></trkpt><trkpt lat="42.0797635" lon="13.5598463"><ele>798.8</ele><time>2026-05-02T13:29:25.617Z</time></trkpt><trkpt lat="42.0796965" lon="13.5597282"><ele>801.2</ele><time>2026-05-02T13:29:27.617Z</time></trkpt><trkpt lat="42.0796287" lon="13.5595909"><ele>803.5999999999999</ele><time>2026-05-02T13:29:29.618Z</time></trkpt><trkpt lat="42.0795931" lon="13.5595209"><ele>806.0</ele><time>2026-05-02T13:29:30.617Z</time></trkpt><trkpt lat="42.0795334" lon="13.559403"><ele>800.0</ele><time>2026-05-02T13:29:32.617Z</time></trkpt><trkpt lat="42.0794821" lon="13.559297"><ele>794.0</ele><time>2026-05-02T13:29:34.618Z</time></trkpt><trkpt lat="42.0794166" lon="13.5591628"><ele>788.0</ele><time>2026-05-02T13:29:36.618Z</time></trkpt><trkpt lat="42.0793551" lon="13.5590149"><ele>782.0</ele><time>2026-05-02T13:29:38.618Z</time></trkpt><trkpt lat="42.0792898" lon="13.5588768"><ele>782.0000000000001</ele><time>2026-05-02T13:29:40.617Z</time></trkpt><trkpt lat="42.0792157" lon="13.5587436"><ele>782.0</ele><time>2026-05-02T13:29:42.618Z</time></trkpt><trkpt lat="42.0791738" lon="13.558676"><ele>782.0</ele><time>2026-05-02T13:29:43.617Z</time></trkpt><trkpt lat="42.0791282" lon="13.5586063"><ele>782.0</ele><time>2026-05-02T13:29:44.617Z</time></trkpt><trkpt lat="42.0790802" lon="13.558535"><ele>782.0000000000001</ele><time>2026-05-02T13:29:45.617Z</time></trkpt><trkpt lat="42.0790337" lon="13.5584617"><ele>782.0</ele><time>2026-05-02T13:29:46.617Z</time></trkpt><trkpt lat="42.0789909" lon="13.5583876"><ele>782.3333333333334</ele><time>2026-05-02T13:29:47.617Z</time></trkpt><trkpt lat="42.0789499" lon="13.5583141"><ele>782.6666666666667</ele><time>2026-05-02T13:29:48.618Z</time></trkpt><trkpt lat="42.0789104" lon="13.5582438"><ele>783.0</ele><time>2026-05-02T13:29:49.617Z</time></trkpt><trkpt lat="42.0788712" lon="13.5581727"><ele>783.3333333333333</ele><time>2026-05-02T13:29:50.617Z</time></trkpt><trkpt lat="42.0788355" lon="13.558099"><ele>783.6666666666666</ele><time>2026-05-02T13:29:51.617Z</time></trkpt><trkpt lat="42.0787722" lon="13.5579562"><ele>784.0</ele><time>2026-05-02T13:29:53.617Z</time></trkpt><trkpt lat="42.0787008" lon="13.5578215"><ele>781.1428571428571</ele><time>2026-05-02T13:29:55.617Z</time></trkpt><trkpt lat="42.0786675" lon="13.5577474"><ele>778.2857142857142</ele><time>2026-05-02T13:29:56.617Z</time></trkpt><trkpt lat="42.0786364" lon="13.5576687"><ele>775.4285714285714</ele><time>2026-05-02T13:29:57.618Z</time></trkpt><trkpt lat="42.0786053" lon="13.5575882"><ele>772.5714285714286</ele><time>2026-05-02T13:29:58.617Z</time></trkpt><trkpt lat="42.0785744" lon="13.5575083"><ele>769.7142857142857</ele><time>2026-05-02T13:29:59.618Z</time></trkpt><trkpt lat="42.0785439" lon="13.5574279"><ele>766.8571428571429</ele><time>2026-05-02T13:30:00.617Z</time></trkpt><trkpt lat="42.0785107" lon="13.5573419"><ele>764.0</ele><time>2026-05-02T13:30:01.618Z</time></trkpt><trkpt lat="42.0784761" lon="13.5572553"><ele>764.0</ele><time>2026-05-02T13:30:02.617Z</time></trkpt><trkpt lat="42.0784442" lon="13.557174"><ele>764.0</ele><time>2026-05-02T13:30:03.618Z</time></trkpt><trkpt lat="42.0784135" lon="13.5570998"><ele>764.0</ele><time>2026-05-02T13:30:04.618Z</time></trkpt><trkpt lat="42.0783446" lon="13.5569765"><ele>764.0</ele><time>2026-05-02T13:30:06.617Z</time></trkpt><trkpt lat="42.0783059" lon="13.5568978"><ele>764.0</ele><time>2026-05-02T13:30:08.617Z</time></trkpt><trkpt lat="42.0782613" lon="13.5568042"><ele>764.0</ele><time>2026-05-02T13:30:10.617Z</time></trkpt><trkpt lat="42.0782289" lon="13.5566944"><ele>765.5</ele><time>2026-05-02T13:30:12.617Z</time></trkpt><trkpt lat="42.0782097" lon="13.5565624"><ele>767.0</ele><time>2026-05-02T13:30:14.618Z</time></trkpt><trkpt lat="42.0781854" lon="13.5564026"><ele>768.5</ele><time>2026-05-02T13:30:16.617Z</time></trkpt><trkpt lat="42.0781688" lon="13.5563131"><ele>770.0</ele><time>2026-05-02T13:30:17.617Z</time></trkpt><trkpt lat="42.0781616" lon="13.5562164"><ele>771.5000000000001</ele><time>2026-05-02T13:30:18.617Z</time></trkpt><trkpt lat="42.0781499" lon="13.5561201"><ele>773.0</ele><time>2026-05-02T13:30:19.617Z</time></trkpt><trkpt lat="42.0781285" lon="13.556028"><ele>773.0000000000001</ele><time>2026-05-02T13:30:20.617Z</time></trkpt><trkpt lat="42.078094" lon="13.5559331"><ele>773.0</ele><time>2026-05-02T13:30:21.617Z</time></trkpt><trkpt lat="42.0780422" lon="13.5558315"><ele>773.0</ele><time>2026-05-02T13:30:22.617Z</time></trkpt><trkpt lat="42.0779872" lon="13.5557352"><ele>773.0</ele><time>2026-05-02T13:30:23.618Z</time></trkpt><trkpt lat="42.0779377" lon="13.5556445"><ele>773.0000000000001</ele><time>2026-05-02T13:30:24.618Z</time></trkpt><trkpt lat="42.0778949" lon="13.555555"><ele>773.0</ele><time>2026-05-02T13:30:25.617Z</time></trkpt><trkpt lat="42.0778589" lon="13.5554689"><ele>773.0000000000001</ele><time>2026-05-02T13:30:26.617Z</time></trkpt><trkpt lat="42.0778336" lon="13.5553829"><ele>773.0</ele><time>2026-05-02T13:30:27.617Z</time></trkpt><trkpt lat="42.0778202" lon="13.5552894"><ele>773.0</ele><time>2026-05-02T13:30:28.617Z</time></trkpt><trkpt lat="42.0778206" lon="13.5551952"><ele>773.0</ele><time>2026-05-02T13:30:29.618Z</time></trkpt><trkpt lat="42.0778289" lon="13.5551019"><ele>773.0000000000001</ele><time>2026-05-02T13:30:30.617Z</time></trkpt><trkpt lat="42.0778328" lon="13.555013"><ele>773.0</ele><time>2026-05-02T13:30:31.617Z</time></trkpt><trkpt lat="42.0778107" lon="13.5548583"><ele>770.5000000000001</ele><time>2026-05-02T13:30:33.617Z</time></trkpt><trkpt lat="42.0777815" lon="13.554778"><ele>768.0</ele><time>2026-05-02T13:30:34.618Z</time></trkpt><trkpt lat="42.0777371" lon="13.554694"><ele>765.5</ele><time>2026-05-02T13:30:35.618Z</time></trkpt><trkpt lat="42.0776926" lon="13.5546108"><ele>763.0</ele><time>2026-05-02T13:30:36.617Z</time></trkpt><trkpt lat="42.0776503" lon="13.5545373"><ele>760.5</ele><time>2026-05-02T13:30:37.617Z</time></trkpt><trkpt lat="42.0776038" lon="13.5544748"><ele>758.0</ele><time>2026-05-02T13:30:38.618Z</time></trkpt><trkpt lat="42.0775039" lon="13.5543642"><ele>758.5714285714287</ele><time>2026-05-02T13:30:40.617Z</time></trkpt><trkpt lat="42.0774355" lon="13.5543075"><ele>759.1428571428571</ele><time>2026-05-02T13:30:41.617Z</time></trkpt><trkpt lat="42.077368" lon="13.5542464"><ele>759.7142857142858</ele><time>2026-05-02T13:30:42.617Z</time></trkpt><trkpt lat="42.0773108" lon="13.554186"><ele>760.2857142857143</ele><time>2026-05-02T13:30:43.617Z</time></trkpt><trkpt lat="42.0772639" lon="13.5541252"><ele>760.8571428571429</ele><time>2026-05-02T13:30:44.617Z</time></trkpt><trkpt lat="42.0772221" lon="13.5540583"><ele>761.4285714285714</ele><time>2026-05-02T13:30:45.617Z</time></trkpt><trkpt lat="42.0771871" lon="13.5539851"><ele>762.0</ele><time>2026-05-02T13:30:46.617Z</time></trkpt><trkpt lat="42.0771622" lon="13.5538985"><ele>762.0</ele><time>2026-05-02T13:30:47.617Z</time></trkpt><trkpt lat="42.0771475" lon="13.5538058"><ele>762.0</ele><time>2026-05-02T13:30:48.617Z</time></trkpt><trkpt lat="42.077135" lon="13.5537184"><ele>762.0</ele><time>2026-05-02T13:30:49.617Z</time></trkpt><trkpt lat="42.0770922" lon="13.5535717"><ele>762.0</ele><time>2026-05-02T13:30:51.617Z</time></trkpt><trkpt lat="42.0770348" lon="13.5534688"><ele>762.0</ele><time>2026-05-02T13:30:53.617Z</time></trkpt><trkpt lat="42.0770634" lon="13.5533809"><ele>762.0</ele><time>2026-05-02T13:30:57.618Z</time></trkpt><trkpt lat="42.0772072" lon="13.5533382"><ele>759.0</ele><time>2026-05-02T13:30:59.617Z</time></trkpt><trkpt lat="42.0773042" lon="13.5533013"><ele>756.0</ele><time>2026-05-02T13:31:00.617Z</time></trkpt><trkpt lat="42.0773893" lon="13.5532628"><ele>753.0</ele><time>2026-05-02T13:31:01.617Z</time></trkpt><trkpt lat="42.077463" lon="13.553209"><ele>750.0</ele><time>2026-05-02T13:31:02.617Z</time></trkpt><trkpt lat="42.0775258" lon="13.5531253"><ele>747.0</ele><time>2026-05-02T13:31:03.617Z</time></trkpt><trkpt lat="42.0775687" lon="13.5530114"><ele>747.0</ele><time>2026-05-02T13:31:04.618Z</time></trkpt><trkpt lat="42.0775852" lon="13.5528784"><ele>747.0</ele><time>2026-05-02T13:31:05.618Z</time></trkpt><trkpt lat="42.0775751" lon="13.5527385"><ele>747.0</ele><time>2026-05-02T13:31:06.618Z</time></trkpt><trkpt lat="42.0775348" lon="13.5525933"><ele>747.0</ele><time>2026-05-02T13:31:07.617Z</time></trkpt><trkpt lat="42.077494" lon="13.5524417"><ele>747.0</ele><time>2026-05-02T13:31:08.617Z</time></trkpt><trkpt lat="42.0774578" lon="13.5522793"><ele>747.0</ele><time>2026-05-02T13:31:09.617Z</time></trkpt><trkpt lat="42.0774171" lon="13.5521112"><ele>747.0</ele><time>2026-05-02T13:31:10.617Z</time></trkpt><trkpt lat="42.0773734" lon="13.5519427"><ele>747.0</ele><time>2026-05-02T13:31:11.617Z</time></trkpt><trkpt lat="42.077319" lon="13.5517729"><ele>747.0</ele><time>2026-05-02T13:31:12.617Z</time></trkpt><trkpt lat="42.0772521" lon="13.5516165"><ele>747.0</ele><time>2026-05-02T13:31:13.617Z</time></trkpt><trkpt lat="42.0771764" lon="13.5514646"><ele>747.0</ele><time>2026-05-02T13:31:14.618Z</time></trkpt><trkpt lat="42.0770857" lon="13.5513256"><ele>747.0</ele><time>2026-05-02T13:31:15.617Z</time></trkpt><trkpt lat="42.0769797" lon="13.5512062"><ele>747.0</ele><time>2026-05-02T13:31:16.618Z</time></trkpt><trkpt lat="42.0768665" lon="13.5511099"><ele>745.8</ele><time>2026-05-02T13:31:17.617Z</time></trkpt><trkpt lat="42.0767592" lon="13.5510267"><ele>744.6</ele><time>2026-05-02T13:31:18.617Z</time></trkpt><trkpt lat="42.0766644" lon="13.5509369"><ele>743.4</ele><time>2026-05-02T13:31:19.618Z</time></trkpt><trkpt lat="42.0765965" lon="13.5508347"><ele>742.1999999999999</ele><time>2026-05-02T13:31:20.617Z</time></trkpt><trkpt lat="42.0765671" lon="13.550721"><ele>741.0</ele><time>2026-05-02T13:31:21.618Z</time></trkpt><trkpt lat="42.0765695" lon="13.5506109"><ele>741.0</ele><time>2026-05-02T13:31:22.618Z</time></trkpt><trkpt lat="42.0766017" lon="13.5505078"><ele>741.0</ele><time>2026-05-02T13:31:23.618Z</time></trkpt><trkpt lat="42.0766667" lon="13.5504251"><ele>741.0</ele><time>2026-05-02T13:31:24.617Z</time></trkpt><trkpt lat="42.0767503" lon="13.5503669"><ele>741.0</ele><time>2026-05-02T13:31:25.616Z</time></trkpt><trkpt lat="42.0768377" lon="13.5503291"><ele>741.0</ele><time>2026-05-02T13:31:26.617Z</time></trkpt><trkpt lat="42.0769358" lon="13.5502909"><ele>743.25</ele><time>2026-05-02T13:31:27.617Z</time></trkpt><trkpt lat="42.0770408" lon="13.5502478"><ele>745.5</ele><time>2026-05-02T13:31:28.618Z</time></trkpt><trkpt lat="42.0771533" lon="13.550198"><ele>747.75</ele><time>2026-05-02T13:31:29.618Z</time></trkpt><trkpt lat="42.0772685" lon="13.550148"><ele>750.0</ele><time>2026-05-02T13:31:30.618Z</time></trkpt><trkpt lat="42.0773841" lon="13.5501004"><ele>752.6</ele><time>2026-05-02T13:31:31.617Z</time></trkpt><trkpt lat="42.0774993" lon="13.5500544"><ele>755.2</ele><time>2026-05-02T13:31:32.617Z</time></trkpt><trkpt lat="42.0776047" lon="13.5500098"><ele>757.8</ele><time>2026-05-02T13:31:33.617Z</time></trkpt><trkpt lat="42.0776996" lon="13.5499665"><ele>760.4</ele><time>2026-05-02T13:31:34.617Z</time></trkpt><trkpt lat="42.077774" lon="13.5499248"><ele>763.0</ele><time>2026-05-02T13:31:35.618Z</time></trkpt><trkpt lat="42.0778303" lon="13.549885"><ele>763.0</ele><time>2026-05-02T13:31:36.617Z</time></trkpt><trkpt lat="42.0778975" lon="13.5498248"><ele>763.0</ele><time>2026-05-02T13:31:38.617Z</time></trkpt><trkpt lat="42.0779547" lon="13.5497808"><ele>763.0</ele><time>2026-05-02T13:31:49.617Z</time></trkpt><trkpt lat="42.078005" lon="13.549636"><ele>763.0</ele><time>2026-05-02T13:31:52.617Z</time></trkpt><trkpt lat="42.0780454" lon="13.549483"><ele>763.0</ele><time>2026-05-02T13:31:54.617Z</time></trkpt><trkpt lat="42.0780763" lon="13.5493461"><ele>763.0</ele><time>2026-05-02T13:31:56.617Z</time></trkpt><trkpt lat="42.0781082" lon="13.5492412"><ele>763.0</ele><time>2026-05-02T13:31:58.618Z</time></trkpt><trkpt lat="42.0781101" lon="13.5491531"><ele>763.0</ele><time>2026-05-02T13:32:04.618Z</time></trkpt><trkpt lat="42.0780632" lon="13.5492429"><ele>763.0</ele><time>2026-05-02T13:32:07.617Z</time></trkpt><trkpt lat="42.078034" lon="13.5494123"><ele>763.0</ele><time>2026-05-02T13:32:09.617Z</time></trkpt><trkpt lat="42.0780139" lon="13.5495139"><ele>763.0</ele><time>2026-05-02T13:32:10.618Z</time></trkpt><trkpt lat="42.0779807" lon="13.549612"><ele>763.0</ele><time>2026-05-02T13:32:11.618Z</time></trkpt><trkpt lat="42.0779356" lon="13.5496975"><ele>763.0</ele><time>2026-05-02T13:32:12.617Z</time></trkpt><trkpt lat="42.0778783" lon="13.5497681"><ele>763.0</ele><time>2026-05-02T13:32:13.617Z</time></trkpt><trkpt lat="42.0778146" lon="13.5498324"><ele>763.0</ele><time>2026-05-02T13:32:14.617Z</time></trkpt><trkpt lat="42.077746" lon="13.5498858"><ele>763.0</ele><time>2026-05-02T13:32:15.618Z</time></trkpt><trkpt lat="42.0776757" lon="13.5499292"><ele>763.0</ele><time>2026-05-02T13:32:16.617Z</time></trkpt><trkpt lat="42.0775976" lon="13.5499677"><ele>763.0</ele><time>2026-05-02T13:32:17.617Z</time></trkpt><trkpt lat="42.0775095" lon="13.5500038"><ele>763.0</ele><time>2026-05-02T13:32:18.618Z</time></trkpt><trkpt lat="42.0774131" lon="13.5500429"><ele>763.0</ele><time>2026-05-02T13:32:19.618Z</time></trkpt><trkpt lat="42.077312" lon="13.5500855"><ele>763.0</ele><time>2026-05-02T13:32:20.617Z</time></trkpt><trkpt lat="42.0772065" lon="13.5501311"><ele>763.0</ele><time>2026-05-02T13:32:21.617Z</time></trkpt><trkpt lat="42.0770967" lon="13.5501749"><ele>761.4</ele><time>2026-05-02T13:32:22.618Z</time></trkpt><trkpt lat="42.0769864" lon="13.5502185"><ele>759.8</ele><time>2026-05-02T13:32:23.617Z</time></trkpt><trkpt lat="42.0768733" lon="13.5502608"><ele>758.2</ele><time>2026-05-02T13:32:24.617Z</time></trkpt><trkpt lat="42.0767698" lon="13.5503047"><ele>756.6</ele><time>2026-05-02T13:32:25.617Z</time></trkpt><trkpt lat="42.0766791" lon="13.5503546"><ele>755.0</ele><time>2026-05-02T13:32:26.617Z</time></trkpt><trkpt lat="42.076612" lon="13.5504042"><ele>755.0</ele><time>2026-05-02T13:32:27.618Z</time></trkpt><trkpt lat="42.0765531" lon="13.5505204"><ele>755.0</ele><time>2026-05-02T13:32:29.618Z</time></trkpt><trkpt lat="42.0765321" lon="13.5506245"><ele>755.0</ele><time>2026-05-02T13:32:32.617Z</time></trkpt><trkpt lat="42.0766209" lon="13.5506746"><ele>755.0</ele><time>2026-05-02T13:32:34.618Z</time></trkpt><trkpt lat="42.0766848" lon="13.5506784"><ele>755.0</ele><time>2026-05-02T13:32:35.617Z</time></trkpt><trkpt lat="42.0767574" lon="13.5506765"><ele>755.0</ele><time>2026-05-02T13:32:36.617Z</time></trkpt><trkpt lat="42.0768355" lon="13.5506567"><ele>755.0</ele><time>2026-05-02T13:32:37.617Z</time></trkpt><trkpt lat="42.076915" lon="13.550628"><ele>755.0</ele><time>2026-05-02T13:32:38.618Z</time></trkpt><trkpt lat="42.0770082" lon="13.5505878"><ele>755.0</ele><time>2026-05-02T13:32:39.617Z</time></trkpt><trkpt lat="42.0771104" lon="13.5505427"><ele>755.0</ele><time>2026-05-02T13:32:40.618Z</time></trkpt><trkpt lat="42.0772313" lon="13.5504948"><ele>755.0</ele><time>2026-05-02T13:32:41.617Z</time></trkpt><trkpt lat="42.0773574" lon="13.5504448"><ele>757.0</ele><time>2026-05-02T13:32:42.617Z</time></trkpt><trkpt lat="42.0774892" lon="13.5503901"><ele>759.0</ele><time>2026-05-02T13:32:43.617Z</time></trkpt><trkpt lat="42.0776329" lon="13.5503301"><ele>761.0</ele><time>2026-05-02T13:32:44.617Z</time></trkpt><trkpt lat="42.0777827" lon="13.5502642"><ele>763.0</ele><time>2026-05-02T13:32:45.617Z</time></trkpt><trkpt lat="42.0779302" lon="13.5501973"><ele>763.0</ele><time>2026-05-02T13:32:46.617Z</time></trkpt><trkpt lat="42.0780764" lon="13.5501331"><ele>763.0</ele><time>2026-05-02T13:32:47.618Z</time></trkpt><trkpt lat="42.0782209" lon="13.5500727"><ele>763.0</ele><time>2026-05-02T13:32:48.618Z</time></trkpt><trkpt lat="42.0783637" lon="13.5500104"><ele>766.5</ele><time>2026-05-02T13:32:49.617Z</time></trkpt><trkpt lat="42.0785054" lon="13.549951"><ele>770.0</ele><time>2026-05-02T13:32:50.617Z</time></trkpt><trkpt lat="42.07865" lon="13.5498942"><ele>773.5</ele><time>2026-05-02T13:32:51.617Z</time></trkpt><trkpt lat="42.0787856" lon="13.549839"><ele>777.0</ele><time>2026-05-02T13:32:52.618Z</time></trkpt><trkpt lat="42.0789157" lon="13.5497838"><ele>777.0</ele><time>2026-05-02T13:32:53.617Z</time></trkpt><trkpt lat="42.0790449" lon="13.5497286"><ele>777.0</ele><time>2026-05-02T13:32:54.618Z</time></trkpt><trkpt lat="42.0791679" lon="13.5496738"><ele>777.0</ele><time>2026-05-02T13:32:55.617Z</time></trkpt><trkpt lat="42.0792767" lon="13.5496211"><ele>777.0</ele><time>2026-05-02T13:32:56.617Z</time></trkpt><trkpt lat="42.0793751" lon="13.549571"><ele>777.5</ele><time>2026-05-02T13:32:57.618Z</time></trkpt><trkpt lat="42.0794555" lon="13.5495373"><ele>778.0</ele><time>2026-05-02T13:32:58.617Z</time></trkpt><trkpt lat="42.0795449" lon="13.5495079"><ele>778.5</ele><time>2026-05-02T13:33:00.618Z</time></trkpt><trkpt lat="42.0796457" lon="13.5494728"><ele>779.0</ele><time>2026-05-02T13:33:03.618Z</time></trkpt><trkpt lat="42.0797026" lon="13.5494316"><ele>779.5</ele><time>2026-05-02T13:33:04.618Z</time></trkpt><trkpt lat="42.0797651" lon="13.5493769"><ele>780.0</ele><time>2026-05-02T13:33:05.617Z</time></trkpt><trkpt lat="42.0798351" lon="13.5493089"><ele>780.0</ele><time>2026-05-02T13:33:06.617Z</time></trkpt><trkpt lat="42.079911" lon="13.5492316"><ele>780.0</ele><time>2026-05-02T13:33:07.617Z</time></trkpt><trkpt lat="42.0799958" lon="13.549146"><ele>780.0</ele><time>2026-05-02T13:33:08.617Z</time></trkpt><trkpt lat="42.0800886" lon="13.5490489"><ele>780.0</ele><time>2026-05-02T13:33:09.617Z</time></trkpt><trkpt lat="42.0801881" lon="13.5489422"><ele>780.0</ele><time>2026-05-02T13:33:10.618Z</time></trkpt><trkpt lat="42.0802931" lon="13.548828"><ele>779.75</ele><time>2026-05-02T13:33:11.617Z</time></trkpt><trkpt lat="42.080406" lon="13.5487073"><ele>779.5</ele><time>2026-05-02T13:33:12.618Z</time></trkpt><trkpt lat="42.0805157" lon="13.548595"><ele>779.25</ele><time>2026-05-02T13:33:13.618Z</time></trkpt><trkpt lat="42.0806186" lon="13.5484891"><ele>779.0</ele><time>2026-05-02T13:33:14.617Z</time></trkpt><trkpt lat="42.0807174" lon="13.5483797"><ele>780.5</ele><time>2026-05-02T13:33:15.617Z</time></trkpt><trkpt lat="42.0808131" lon="13.5482709"><ele>782.0</ele><time>2026-05-02T13:33:16.617Z</time></trkpt><trkpt lat="42.0809097" lon="13.5481652"><ele>783.5</ele><time>2026-05-02T13:33:17.618Z</time></trkpt><trkpt lat="42.0810042" lon="13.5480635"><ele>785.0</ele><time>2026-05-02T13:33:18.617Z</time></trkpt><trkpt lat="42.081098" lon="13.5479631"><ele>781.5</ele><time>2026-05-02T13:33:19.617Z</time></trkpt><trkpt lat="42.0811925" lon="13.5478607"><ele>778.0</ele><time>2026-05-02T13:33:20.617Z</time></trkpt><trkpt lat="42.0812892" lon="13.547757"><ele>774.5</ele><time>2026-05-02T13:33:21.617Z</time></trkpt><trkpt lat="42.0813864" lon="13.5476522"><ele>771.0</ele><time>2026-05-02T13:33:22.618Z</time></trkpt><trkpt lat="42.0814875" lon="13.5475582"><ele>771.0</ele><time>2026-05-02T13:33:23.618Z</time></trkpt><trkpt lat="42.081592" lon="13.5474824"><ele>771.0</ele><time>2026-05-02T13:33:24.617Z</time></trkpt><trkpt lat="42.0817026" lon="13.5474241"><ele>771.0</ele><time>2026-05-02T13:33:25.617Z</time></trkpt><trkpt lat="42.0818139" lon="13.5473758"><ele>771.0</ele><time>2026-05-02T13:33:26.617Z</time></trkpt><trkpt lat="42.0819222" lon="13.5473284"><ele>771.4</ele><time>2026-05-02T13:33:27.617Z</time></trkpt><trkpt lat="42.082026" lon="13.5472755"><ele>771.8</ele><time>2026-05-02T13:33:28.618Z</time></trkpt><trkpt lat="42.0821248" lon="13.5472121"><ele>772.1999999999999</ele><time>2026-05-02T13:33:29.617Z</time></trkpt><trkpt lat="42.0822111" lon="13.5471272"><ele>772.5999999999999</ele><time>2026-05-02T13:33:30.617Z</time></trkpt><trkpt lat="42.0822818" lon="13.5470166"><ele>773.0</ele><time>2026-05-02T13:33:31.617Z</time></trkpt><trkpt lat="42.0823425" lon="13.5468825"><ele>773.75</ele><time>2026-05-02T13:33:32.618Z</time></trkpt><trkpt lat="42.0823951" lon="13.5467346"><ele>774.5</ele><time>2026-05-02T13:33:33.618Z</time></trkpt><trkpt lat="42.0824387" lon="13.5465835"><ele>775.25</ele><time>2026-05-02T13:33:34.617Z</time></trkpt><trkpt lat="42.0824791" lon="13.5464248"><ele>776.0</ele><time>2026-05-02T13:33:35.617Z</time></trkpt><trkpt lat="42.0825122" lon="13.5462639"><ele>774.5</ele><time>2026-05-02T13:33:36.618Z</time></trkpt><trkpt lat="42.0825374" lon="13.5461018"><ele>773.0</ele><time>2026-05-02T13:33:37.617Z</time></trkpt><trkpt lat="42.0825559" lon="13.5459381"><ele>771.5</ele><time>2026-05-02T13:33:38.617Z</time></trkpt><trkpt lat="42.082566" lon="13.5457716"><ele>770.0</ele><time>2026-05-02T13:33:39.617Z</time></trkpt><trkpt lat="42.0825663" lon="13.5456034"><ele>770.0</ele><time>2026-05-02T13:33:40.617Z</time></trkpt><trkpt lat="42.0825536" lon="13.5454331"><ele>770.0</ele><time>2026-05-02T13:33:41.618Z</time></trkpt><trkpt lat="42.082531" lon="13.5452625"><ele>770.0</ele><time>2026-05-02T13:33:42.618Z</time></trkpt><trkpt lat="42.0825014" lon="13.5450898"><ele>770.0</ele><time>2026-05-02T13:33:43.617Z</time></trkpt><trkpt lat="42.0824719" lon="13.5449207"><ele>769.5</ele><time>2026-05-02T13:33:44.617Z</time></trkpt><trkpt lat="42.0824406" lon="13.5447511"><ele>769.0</ele><time>2026-05-02T13:33:45.618Z</time></trkpt><trkpt lat="42.0824066" lon="13.544582"><ele>768.5</ele><time>2026-05-02T13:33:46.617Z</time></trkpt><trkpt lat="42.0823792" lon="13.544412"><ele>768.0</ele><time>2026-05-02T13:33:47.617Z</time></trkpt><trkpt lat="42.0823666" lon="13.5442421"><ele>765.2</ele><time>2026-05-02T13:33:48.618Z</time></trkpt><trkpt lat="42.0823634" lon="13.544073"><ele>762.4</ele><time>2026-05-02T13:33:49.617Z</time></trkpt><trkpt lat="42.0823674" lon="13.5439229"><ele>759.6</ele><time>2026-05-02T13:33:50.618Z</time></trkpt><trkpt lat="42.0823681" lon="13.5438064"><ele>756.8000000000001</ele><time>2026-05-02T13:33:51.618Z</time></trkpt><trkpt lat="42.0823639" lon="13.5437158"><ele>754.0</ele><time>2026-05-02T13:33:52.618Z</time></trkpt><trkpt lat="42.0823438" lon="13.5436059"><ele>753.5</ele><time>2026-05-02T13:33:54.617Z</time></trkpt><trkpt lat="42.0822978" lon="13.5435354"><ele>753.0</ele><time>2026-05-02T13:33:56.617Z</time></trkpt><trkpt lat="42.0821919" lon="13.543512"><ele>752.5</ele><time>2026-05-02T13:33:58.617Z</time></trkpt><trkpt lat="42.0821184" lon="13.5435156"><ele>752.0</ele><time>2026-05-02T13:33:59.618Z</time></trkpt><trkpt lat="42.0820313" lon="13.5435181"><ele>751.5</ele><time>2026-05-02T13:34:00.617Z</time></trkpt><trkpt lat="42.0819334" lon="13.5435149"><ele>751.0</ele><time>2026-05-02T13:34:01.618Z</time></trkpt><trkpt lat="42.0818231" lon="13.5435126"><ele>751.0</ele><time>2026-05-02T13:34:02.618Z</time></trkpt><trkpt lat="42.0817136" lon="13.5435097"><ele>751.0</ele><time>2026-05-02T13:34:03.617Z</time></trkpt><trkpt lat="42.0816086" lon="13.5435093"><ele>751.0</ele><time>2026-05-02T13:34:04.617Z</time></trkpt><trkpt lat="42.0815091" lon="13.5435133"><ele>751.0</ele><time>2026-05-02T13:34:05.617Z</time></trkpt><trkpt lat="42.0814086" lon="13.5435098"><ele>751.0</ele><time>2026-05-02T13:34:06.618Z</time></trkpt><trkpt lat="42.0813129" lon="13.5435057"><ele>750.3333333333334</ele><time>2026-05-02T13:34:07.617Z</time></trkpt><trkpt lat="42.0812223" lon="13.5434969"><ele>749.6666666666667</ele><time>2026-05-02T13:34:08.617Z</time></trkpt><trkpt lat="42.0811355" lon="13.5434929"><ele>749.0</ele><time>2026-05-02T13:34:09.617Z</time></trkpt><trkpt lat="42.0810482" lon="13.5434876"><ele>748.3333333333334</ele><time>2026-05-02T13:34:10.617Z</time></trkpt><trkpt lat="42.0809609" lon="13.5434811"><ele>747.6666666666666</ele><time>2026-05-02T13:34:11.617Z</time></trkpt><trkpt lat="42.0808705" lon="13.5434756"><ele>747.0</ele><time>2026-05-02T13:34:12.617Z</time></trkpt><trkpt lat="42.0807746" lon="13.5434766"><ele>746.4000000000001</ele><time>2026-05-02T13:34:13.618Z</time></trkpt><trkpt lat="42.0806772" lon="13.5434815"><ele>745.8000000000001</ele><time>2026-05-02T13:34:14.618Z</time></trkpt><trkpt lat="42.080581" lon="13.5434844"><ele>745.2</ele><time>2026-05-02T13:34:15.617Z</time></trkpt><trkpt lat="42.0804872" lon="13.5434864"><ele>744.6</ele><time>2026-05-02T13:34:16.617Z</time></trkpt><trkpt lat="42.0803933" lon="13.5434832"><ele>744.0</ele><time>2026-05-02T13:34:17.618Z</time></trkpt><trkpt lat="42.080317" lon="13.5434818"><ele>744.0</ele><time>2026-05-02T13:34:18.617Z</time></trkpt><trkpt lat="42.0802142" lon="13.5434799"><ele>744.0</ele><time>2026-05-02T13:34:20.617Z</time></trkpt><trkpt lat="42.0801081" lon="13.5434781"><ele>744.0</ele><time>2026-05-02T13:34:22.617Z</time></trkpt><trkpt lat="42.0799878" lon="13.5434822"><ele>744.0</ele><time>2026-05-02T13:34:24.618Z</time></trkpt><trkpt lat="42.0798717" lon="13.5434877"><ele>744.0</ele><time>2026-05-02T13:34:26.618Z</time></trkpt><trkpt lat="42.0798014" lon="13.5434808"><ele>743.2</ele><time>2026-05-02T13:34:27.618Z</time></trkpt><trkpt lat="42.0797067" lon="13.5434693"><ele>742.4000000000001</ele><time>2026-05-02T13:34:28.617Z</time></trkpt><trkpt lat="42.0796029" lon="13.5434695"><ele>741.6</ele><time>2026-05-02T13:34:29.617Z</time></trkpt><trkpt lat="42.0795051" lon="13.5434707"><ele>740.8</ele><time>2026-05-02T13:34:30.617Z</time></trkpt><trkpt lat="42.0794099" lon="13.543471"><ele>740.0</ele><time>2026-05-02T13:34:31.617Z</time></trkpt><trkpt lat="42.0793246" lon="13.5434682"><ele>740.0</ele><time>2026-05-02T13:34:32.617Z</time></trkpt><trkpt lat="42.0792593" lon="13.5434647"><ele>740.0</ele><time>2026-05-02T13:34:33.617Z</time></trkpt><trkpt lat="42.0791489" lon="13.5434461"><ele>740.0</ele><time>2026-05-02T13:34:35.617Z</time></trkpt><trkpt lat="42.0790919" lon="13.5434835"><ele>740.0</ele><time>2026-05-02T13:34:39.618Z</time></trkpt><trkpt lat="42.0791833" lon="13.5435103"><ele>740.0</ele><time>2026-05-02T13:34:42.617Z</time></trkpt><trkpt lat="42.0793102" lon="13.5435087"><ele>740.0</ele><time>2026-05-02T13:34:44.618Z</time></trkpt><trkpt lat="42.0793834" lon="13.543507"><ele>740.0</ele><time>2026-05-02T13:34:45.617Z</time></trkpt><trkpt lat="42.0794694" lon="13.5435068"><ele>740.0</ele><time>2026-05-02T13:34:46.617Z</time></trkpt><trkpt lat="42.0795561" lon="13.5435074"><ele>740.0</ele><time>2026-05-02T13:34:47.618Z</time></trkpt><trkpt lat="42.0796377" lon="13.5435077"><ele>740.0</ele><time>2026-05-02T13:34:48.617Z</time></trkpt><trkpt lat="42.0797076" lon="13.5435024"><ele>740.0</ele><time>2026-05-02T13:34:49.617Z</time></trkpt><trkpt lat="42.0797762" lon="13.5434306"><ele>740.0</ele><time>2026-05-02T13:34:51.617Z</time></trkpt><trkpt lat="42.0797582" lon="13.5433047"><ele>740.0</ele><time>2026-05-02T13:34:53.617Z</time></trkpt><trkpt lat="42.0797252" lon="13.5432133"><ele>740.0</ele><time>2026-05-02T13:34:54.617Z</time></trkpt><trkpt lat="42.0796877" lon="13.543107"><ele>740.0</ele><time>2026-05-02T13:34:55.617Z</time></trkpt><trkpt lat="42.0796437" lon="13.5430125"><ele>740.0</ele><time>2026-05-02T13:34:56.617Z</time></trkpt><trkpt lat="42.0795806" lon="13.5429372"><ele>740.0</ele><time>2026-05-02T13:34:57.617Z</time></trkpt><trkpt lat="42.0795036" lon="13.5428879"><ele>740.2</ele><time>2026-05-02T13:34:58.617Z</time></trkpt><trkpt lat="42.0794153" lon="13.5428598"><ele>740.4</ele><time>2026-05-02T13:34:59.617Z</time></trkpt><trkpt lat="42.0793138" lon="13.542839"><ele>740.5999999999999</ele><time>2026-05-02T13:35:00.617Z</time></trkpt><trkpt lat="42.0792081" lon="13.5428059"><ele>740.8</ele><time>2026-05-02T13:35:01.617Z</time></trkpt><trkpt lat="42.079101" lon="13.5427583"><ele>741.0</ele><time>2026-05-02T13:35:02.618Z</time></trkpt><trkpt lat="42.0790035" lon="13.5426979"><ele>740.4</ele><time>2026-05-02T13:35:03.618Z</time></trkpt><trkpt lat="42.0789151" lon="13.5426198"><ele>739.8</ele><time>2026-05-02T13:35:04.617Z</time></trkpt><trkpt lat="42.0788408" lon="13.5425304"><ele>739.1999999999999</ele><time>2026-05-02T13:35:05.617Z</time></trkpt><trkpt lat="42.0787738" lon="13.5424361"><ele>738.5999999999999</ele><time>2026-05-02T13:35:06.617Z</time></trkpt><trkpt lat="42.0787093" lon="13.5423436"><ele>738.0</ele><time>2026-05-02T13:35:07.618Z</time></trkpt><trkpt lat="42.0786498" lon="13.5422635"><ele>738.0</ele><time>2026-05-02T13:35:08.618Z</time></trkpt><trkpt lat="42.0785999" lon="13.5421963"><ele>738.0</ele><time>2026-05-02T13:35:09.617Z</time></trkpt><trkpt lat="42.0785534" lon="13.5421343"><ele>738.0</ele><time>2026-05-02T13:35:10.617Z</time></trkpt><trkpt lat="42.0784812" lon="13.5420466"><ele>738.0</ele><time>2026-05-02T13:35:12.617Z</time></trkpt><trkpt lat="42.0784166" lon="13.5419763"><ele>738.0</ele><time>2026-05-02T13:35:14.617Z</time></trkpt><trkpt lat="42.0783626" lon="13.5418753"><ele>738.0</ele><time>2026-05-02T13:35:16.617Z</time></trkpt><trkpt lat="42.0783329" lon="13.5417423"><ele>738.3333333333334</ele><time>2026-05-02T13:35:18.618Z</time></trkpt><trkpt lat="42.0783812" lon="13.5416434"><ele>738.6666666666666</ele><time>2026-05-02T13:35:20.617Z</time></trkpt><trkpt lat="42.0784238" lon="13.5415521"><ele>739.0</ele><time>2026-05-02T13:35:22.617Z</time></trkpt><trkpt lat="42.0783952" lon="13.5414229"><ele>739.3333333333333</ele><time>2026-05-02T13:35:24.617Z</time></trkpt><trkpt lat="42.0783477" lon="13.5413345"><ele>739.6666666666666</ele><time>2026-05-02T13:35:26.617Z</time></trkpt><trkpt lat="42.0783266" lon="13.5412384"><ele>740.0</ele><time>2026-05-02T13:35:29.617Z</time></trkpt><trkpt lat="42.0783736" lon="13.5411699"><ele>740.3333333333333</ele><time>2026-05-02T13:35:31.617Z</time></trkpt><trkpt lat="42.0784039" lon="13.5410877"><ele>740.6666666666666</ele><time>2026-05-02T13:35:33.617Z</time></trkpt><trkpt lat="42.078343" lon="13.5409441"><ele>741.0</ele><time>2026-05-02T13:35:35.617Z</time></trkpt><trkpt lat="42.0783054" lon="13.5408728"><ele>741.3333333333334</ele><time>2026-05-02T13:35:36.617Z</time></trkpt><trkpt lat="42.0782666" lon="13.540791"><ele>741.6666666666667</ele><time>2026-05-02T13:35:37.618Z</time></trkpt><trkpt lat="42.0782213" lon="13.5407088"><ele>742.0</ele><time>2026-05-02T13:35:38.618Z</time></trkpt><trkpt lat="42.0781786" lon="13.5406333"><ele>740.5</ele><time>2026-05-02T13:35:39.617Z</time></trkpt><trkpt lat="42.078139" lon="13.5405622"><ele>739.0</ele><time>2026-05-02T13:35:40.617Z</time></trkpt><trkpt lat="42.0780982" lon="13.5404945"><ele>737.5</ele><time>2026-05-02T13:35:41.617Z</time></trkpt><trkpt lat="42.0780587" lon="13.5404262"><ele>736.0</ele><time>2026-05-02T13:35:42.617Z</time></trkpt><trkpt lat="42.0779882" lon="13.5403111"><ele>734.5</ele><time>2026-05-02T13:35:44.617Z</time></trkpt><trkpt lat="42.0779788" lon="13.5401872"><ele>733.0</ele><time>2026-05-02T13:35:46.617Z</time></trkpt><trkpt lat="42.0780481" lon="13.5400698"><ele>733.0</ele><time>2026-05-02T13:35:48.617Z</time></trkpt><trkpt lat="42.078151" lon="13.5399883"><ele>733.0</ele><time>2026-05-02T13:35:50.617Z</time></trkpt><trkpt lat="42.0782342" lon="13.5399116"><ele>733.0</ele><time>2026-05-02T13:35:52.618Z</time></trkpt><trkpt lat="42.078295" lon="13.5398858"><ele>733.0</ele><time>2026-05-02T13:35:54.617Z</time></trkpt><trkpt lat="42.0783372" lon="13.5397955"><ele>733.0</ele><time>2026-05-02T13:35:57.617Z</time></trkpt><trkpt lat="42.0783124" lon="13.5396828"><ele>733.0</ele><time>2026-05-02T13:35:59.617Z</time></trkpt><trkpt lat="42.0782497" lon="13.5395664"><ele>733.0</ele><time>2026-05-02T13:36:01.617Z</time></trkpt><trkpt lat="42.0781755" lon="13.5394346"><ele>733.0</ele><time>2026-05-02T13:36:03.617Z</time></trkpt><trkpt lat="42.078142" lon="13.5393354"><ele>733.0</ele><time>2026-05-02T13:36:05.617Z</time></trkpt><trkpt lat="42.0781188" lon="13.5392293"><ele>733.0</ele><time>2026-05-02T13:36:09.617Z</time></trkpt><trkpt lat="42.0781048" lon="13.5391329"><ele>733.0</ele><time>2026-05-02T13:36:13.617Z</time></trkpt><trkpt lat="42.0780934" lon="13.5392509"><ele>733.0</ele><time>2026-05-02T13:36:22.617Z</time></trkpt><trkpt lat="42.078128" lon="13.5393371"><ele>733.0</ele><time>2026-05-02T13:36:23.618Z</time></trkpt><trkpt lat="42.0781613" lon="13.5394301"><ele>733.0</ele><time>2026-05-02T13:36:24.617Z</time></trkpt><trkpt lat="42.0782029" lon="13.539514"><ele>733.0</ele><time>2026-05-02T13:36:25.617Z</time></trkpt><trkpt lat="42.0782701" lon="13.5396315"><ele>733.0</ele><time>2026-05-02T13:36:27.617Z</time></trkpt><trkpt lat="42.0783017" lon="13.5397419"><ele>734.6666666666667</ele><time>2026-05-02T13:36:29.617Z</time></trkpt><trkpt lat="42.0783233" lon="13.5398361"><ele>736.3333333333334</ele><time>2026-05-02T13:36:31.617Z</time></trkpt><trkpt lat="42.0783259" lon="13.5399597"><ele>738.0</ele><time>2026-05-02T13:36:33.618Z</time></trkpt><trkpt lat="42.0783437" lon="13.5400516"><ele>739.6666666666666</ele><time>2026-05-02T13:36:35.618Z</time></trkpt><trkpt lat="42.0783913" lon="13.5401855"><ele>741.3333333333333</ele><time>2026-05-02T13:36:37.617Z</time></trkpt><trkpt lat="42.0784332" lon="13.5402671"><ele>743.0</ele><time>2026-05-02T13:36:38.617Z</time></trkpt><trkpt lat="42.0784817" lon="13.5403531"><ele>742.8333333333333</ele><time>2026-05-02T13:36:39.617Z</time></trkpt><trkpt lat="42.0785342" lon="13.5404377"><ele>742.6666666666666</ele><time>2026-05-02T13:36:40.618Z</time></trkpt><trkpt lat="42.0785835" lon="13.5405244"><ele>742.5</ele><time>2026-05-02T13:36:41.618Z</time></trkpt><trkpt lat="42.0786246" lon="13.5406078"><ele>742.3333333333334</ele><time>2026-05-02T13:36:42.617Z</time></trkpt><trkpt lat="42.0786467" lon="13.5406987"><ele>742.1666666666667</ele><time>2026-05-02T13:36:44.617Z</time></trkpt><trkpt lat="42.0786295" lon="13.5405647"><ele>742.0</ele><time>2026-05-02T13:36:51.618Z</time></trkpt><trkpt lat="42.0785846" lon="13.5404863"><ele>742.0</ele><time>2026-05-02T13:36:52.618Z</time></trkpt><trkpt lat="42.0785315" lon="13.5404135"><ele>742.0</ele><time>2026-05-02T13:36:53.617Z</time></trkpt><trkpt lat="42.0784881" lon="13.5403473"><ele>742.0</ele><time>2026-05-02T13:36:54.617Z</time></trkpt><trkpt lat="42.0784343" lon="13.5402395"><ele>742.0</ele><time>2026-05-02T13:36:56.617Z</time></trkpt><trkpt lat="42.0784915" lon="13.5401443"><ele>742.0</ele><time>2026-05-02T13:36:59.617Z</time></trkpt><trkpt lat="42.0786025" lon="13.540146"><ele>742.0</ele><time>2026-05-02T13:37:01.617Z</time></trkpt><trkpt lat="42.0787332" lon="13.5401553"><ele>742.1428571428571</ele><time>2026-05-02T13:37:03.617Z</time></trkpt><trkpt lat="42.0788082" lon="13.5401561"><ele>742.2857142857142</ele><time>2026-05-02T13:37:04.617Z</time></trkpt><trkpt lat="42.0788877" lon="13.5401503"><ele>742.4285714285714</ele><time>2026-05-02T13:37:05.618Z</time></trkpt><trkpt lat="42.078961" lon="13.5401416"><ele>742.5714285714286</ele><time>2026-05-02T13:37:06.617Z</time></trkpt><trkpt lat="42.0790246" lon="13.5401364"><ele>742.7142857142857</ele><time>2026-05-02T13:37:07.617Z</time></trkpt><trkpt lat="42.0790877" lon="13.5401473"><ele>742.8571428571429</ele><time>2026-05-02T13:37:09.617Z</time></trkpt><trkpt lat="42.0791475" lon="13.5402227"><ele>743.0</ele><time>2026-05-02T13:37:12.618Z</time></trkpt><trkpt lat="42.079203" lon="13.5403378"><ele>743.0</ele><time>2026-05-02T13:37:14.618Z</time></trkpt><trkpt lat="42.0792938" lon="13.5403626"><ele>743.0</ele><time>2026-05-02T13:37:16.618Z</time></trkpt><trkpt lat="42.0793611" lon="13.5403428"><ele>743.0</ele><time>2026-05-02T13:37:17.617Z</time></trkpt><trkpt lat="42.0794789" lon="13.5403132"><ele>743.0</ele><time>2026-05-02T13:37:19.617Z</time></trkpt><trkpt lat="42.0795443" lon="13.5403133"><ele>743.0</ele><time>2026-05-02T13:37:21.618Z</time></trkpt><trkpt lat="42.0795923" lon="13.5404595"><ele>743.0</ele><time>2026-05-02T13:37:24.617Z</time></trkpt><trkpt lat="42.0796135" lon="13.5405622"><ele>743.0</ele><time>2026-05-02T13:37:25.618Z</time></trkpt><trkpt lat="42.0796563" lon="13.5406879"><ele>743.0</ele><time>2026-05-02T13:37:26.617Z</time></trkpt><trkpt lat="42.0797229" lon="13.5408032"><ele>743.0</ele><time>2026-05-02T13:37:27.617Z</time></trkpt><trkpt lat="42.0798093" lon="13.5408988"><ele>743.0</ele><time>2026-05-02T13:37:28.618Z</time></trkpt><trkpt lat="42.0799171" lon="13.5409748"><ele>743.25</ele><time>2026-05-02T13:37:29.618Z</time></trkpt><trkpt lat="42.0800421" lon="13.5410227"><ele>743.5</ele><time>2026-05-02T13:37:30.617Z</time></trkpt><trkpt lat="42.080171" lon="13.5410509"><ele>743.75</ele><time>2026-05-02T13:37:31.617Z</time></trkpt><trkpt lat="42.0803036" lon="13.5410575"><ele>744.0</ele><time>2026-05-02T13:37:32.617Z</time></trkpt><trkpt lat="42.0804443" lon="13.5410485"><ele>744.0</ele><time>2026-05-02T13:37:33.617Z</time></trkpt><trkpt lat="42.080598" lon="13.5410355"><ele>744.0</ele><time>2026-05-02T13:37:34.617Z</time></trkpt><trkpt lat="42.0807588" lon="13.5410297"><ele>744.0</ele><time>2026-05-02T13:37:35.617Z</time></trkpt><trkpt lat="42.0809244" lon="13.5410284"><ele>744.3333333333334</ele><time>2026-05-02T13:37:36.617Z</time></trkpt><trkpt lat="42.0810903" lon="13.5410325"><ele>744.6666666666667</ele><time>2026-05-02T13:37:37.617Z</time></trkpt><trkpt lat="42.081247" lon="13.541045"><ele>745.0</ele><time>2026-05-02T13:37:38.617Z</time></trkpt><trkpt lat="42.0813906" lon="13.541069"><ele>745.0</ele><time>2026-05-02T13:37:39.617Z</time></trkpt><trkpt lat="42.0815266" lon="13.5410965"><ele>745.0</ele><time>2026-05-02T13:37:40.618Z</time></trkpt><trkpt lat="42.0816519" lon="13.5411345"><ele>745.0</ele><time>2026-05-02T13:37:41.617Z</time></trkpt><trkpt lat="42.0817657" lon="13.5411907"><ele>745.0</ele><time>2026-05-02T13:37:42.618Z</time></trkpt><trkpt lat="42.0818607" lon="13.5412681"><ele>745.1666666666667</ele><time>2026-05-02T13:37:43.618Z</time></trkpt><trkpt lat="42.0819383" lon="13.5413454"><ele>745.3333333333334</ele><time>2026-05-02T13:37:44.617Z</time></trkpt><trkpt lat="42.0819986" lon="13.5414032"><ele>745.5</ele><time>2026-05-02T13:37:45.617Z</time></trkpt><trkpt lat="42.0820909" lon="13.5414426"><ele>745.6666666666666</ele><time>2026-05-02T13:37:47.617Z</time></trkpt><trkpt lat="42.0821567" lon="13.5414445"><ele>745.8333333333333</ele><time>2026-05-02T13:37:58.618Z</time></trkpt><trkpt lat="42.0821971" lon="13.5413588"><ele>746.0</ele><time>2026-05-02T13:38:53.617Z</time></trkpt><trkpt lat="42.0822722" lon="13.5414591"><ele>746.0</ele><time>2026-05-02T13:40:11.618Z</time></trkpt><trkpt lat="42.0822124" lon="13.5414304"><ele>746.0</ele><time>2026-05-02T13:47:06.617Z</time></trkpt><trkpt lat="42.0822214" lon="13.5415347"><ele>746.0</ele><time>2026-05-02T13:49:41.617Z</time></trkpt><trkpt lat="42.082176" lon="13.5416401"><ele>746.0</ele><time>2026-05-02T13:56:47.618Z</time></trkpt><trkpt lat="42.0822173" lon="13.5418013"><ele>746.0</ele><time>2026-05-02T13:56:49.618Z</time></trkpt><trkpt lat="42.0823092" lon="13.5420241"><ele>746.1666666666666</ele><time>2026-05-02T13:56:51.617Z</time></trkpt><trkpt lat="42.082359" lon="13.5421446"><ele>746.3333333333333</ele><time>2026-05-02T13:56:52.618Z</time></trkpt><trkpt lat="42.0824018" lon="13.5422545"><ele>746.5</ele><time>2026-05-02T13:56:53.617Z</time></trkpt><trkpt lat="42.0824405" lon="13.5423557"><ele>746.6666666666666</ele><time>2026-05-02T13:56:54.617Z</time></trkpt><trkpt lat="42.0824758" lon="13.5424395"><ele>746.8333333333334</ele><time>2026-05-02T13:56:55.617Z</time></trkpt><trkpt lat="42.082503" lon="13.5425641"><ele>747.0</ele><time>2026-05-02T13:56:57.618Z</time></trkpt><trkpt lat="42.0824475" lon="13.5426799"><ele>747.0</ele><time>2026-05-02T13:56:59.618Z</time></trkpt><trkpt lat="42.0823673" lon="13.5428021"><ele>747.0</ele><time>2026-05-02T13:57:01.618Z</time></trkpt><trkpt lat="42.0823334" lon="13.5428744"><ele>747.0</ele><time>2026-05-02T13:57:02.618Z</time></trkpt><trkpt lat="42.0823062" lon="13.5430014"><ele>747.0</ele><time>2026-05-02T13:57:04.617Z</time></trkpt><trkpt lat="42.0822977" lon="13.5431145"><ele>747.0</ele><time>2026-05-02T13:57:07.617Z</time></trkpt><trkpt lat="42.0822942" lon="13.5432046"><ele>747.0</ele><time>2026-05-02T13:57:09.617Z</time></trkpt><trkpt lat="42.0823521" lon="13.5433283"><ele>750.5</ele><time>2026-05-02T13:57:13.617Z</time></trkpt><trkpt lat="42.0824934" lon="13.5431465"><ele>754.0</ele><time>2026-05-02T13:57:17.958Z</time></trkpt><trkpt lat="42.0825757" lon="13.5430403"><ele>757.5</ele><time>2026-05-02T13:57:19.616Z</time></trkpt><trkpt lat="42.0826385" lon="13.5429937"><ele>761.0</ele><time>2026-05-02T13:57:20.616Z</time></trkpt><trkpt lat="42.0827157" lon="13.5429759"><ele>761.0</ele><time>2026-05-02T13:57:21.616Z</time></trkpt><trkpt lat="42.0828079" lon="13.5429828"><ele>761.0</ele><time>2026-05-02T13:57:22.615Z</time></trkpt><trkpt lat="42.0829245" lon="13.5430066"><ele>761.0</ele><time>2026-05-02T13:57:23.615Z</time></trkpt><trkpt lat="42.0830585" lon="13.5430335"><ele>761.0</ele><time>2026-05-02T13:57:24.616Z</time></trkpt><trkpt lat="42.0831893" lon="13.5430543"><ele>765.0</ele><time>2026-05-02T13:57:25.615Z</time></trkpt><trkpt lat="42.0833215" lon="13.5430732"><ele>769.0</ele><time>2026-05-02T13:57:26.615Z</time></trkpt><trkpt lat="42.0834567" lon="13.5430852"><ele>773.0</ele><time>2026-05-02T13:57:27.616Z</time></trkpt><trkpt lat="42.0835883" lon="13.5430866"><ele>777.0</ele><time>2026-05-02T13:57:28.615Z</time></trkpt><trkpt lat="42.0837162" lon="13.5430761"><ele>777.0</ele><time>2026-05-02T13:57:29.615Z</time></trkpt><trkpt lat="42.08384" lon="13.5430446"><ele>777.0</ele><time>2026-05-02T13:57:30.615Z</time></trkpt><trkpt lat="42.0839572" lon="13.5430026"><ele>777.0</ele><time>2026-05-02T13:57:31.615Z</time></trkpt><trkpt lat="42.0840681" lon="13.5429697"><ele>777.0</ele><time>2026-05-02T13:57:32.615Z</time></trkpt><trkpt lat="42.0841863" lon="13.5429479"><ele>779.25</ele><time>2026-05-02T13:57:33.615Z</time></trkpt><trkpt lat="42.0843184" lon="13.5429411"><ele>781.5</ele><time>2026-05-02T13:57:34.615Z</time></trkpt><trkpt lat="42.0844421" lon="13.5429475"><ele>783.75</ele><time>2026-05-02T13:57:35.616Z</time></trkpt><trkpt lat="42.0845694" lon="13.5429596"><ele>786.0</ele><time>2026-05-02T13:57:36.616Z</time></trkpt><trkpt lat="42.0846904" lon="13.542968"><ele>786.0</ele><time>2026-05-02T13:57:37.615Z</time></trkpt><trkpt lat="42.0847965" lon="13.5429769"><ele>786.0</ele><time>2026-05-02T13:57:38.615Z</time></trkpt><trkpt lat="42.0848983" lon="13.542986"><ele>786.0</ele><time>2026-05-02T13:57:39.616Z</time></trkpt><trkpt lat="42.0849967" lon="13.5429949"><ele>786.0</ele><time>2026-05-02T13:57:40.615Z</time></trkpt><trkpt lat="42.08509" lon="13.5430101"><ele>786.0</ele><time>2026-05-02T13:57:41.615Z</time></trkpt><trkpt lat="42.0851781" lon="13.5430344"><ele>787.8</ele><time>2026-05-02T13:57:42.615Z</time></trkpt><trkpt lat="42.0852636" lon="13.5430659"><ele>789.5999999999999</ele><time>2026-05-02T13:57:43.615Z</time></trkpt><trkpt lat="42.0853489" lon="13.5431064"><ele>791.4</ele><time>2026-05-02T13:57:44.615Z</time></trkpt><trkpt lat="42.0854358" lon="13.5431473"><ele>793.2</ele><time>2026-05-02T13:57:45.615Z</time></trkpt><trkpt lat="42.0855241" lon="13.5431989"><ele>795.0</ele><time>2026-05-02T13:57:46.615Z</time></trkpt><trkpt lat="42.0856168" lon="13.5432495"><ele>795.0</ele><time>2026-05-02T13:57:47.616Z</time></trkpt><trkpt lat="42.0857054" lon="13.5432942"><ele>795.0</ele><time>2026-05-02T13:57:48.615Z</time></trkpt><trkpt lat="42.0857862" lon="13.5433332"><ele>795.0</ele><time>2026-05-02T13:57:49.616Z</time></trkpt><trkpt lat="42.0858675" lon="13.5433732"><ele>795.0</ele><time>2026-05-02T13:57:50.615Z</time></trkpt><trkpt lat="42.0859523" lon="13.5434177"><ele>795.0</ele><time>2026-05-02T13:57:51.615Z</time></trkpt><trkpt lat="42.0860403" lon="13.5434472"><ele>795.0</ele><time>2026-05-02T13:57:52.616Z</time></trkpt><trkpt lat="42.0861309" lon="13.5434705"><ele>794.8</ele><time>2026-05-02T13:57:53.615Z</time></trkpt><trkpt lat="42.0862253" lon="13.5434905"><ele>794.6</ele><time>2026-05-02T13:57:54.615Z</time></trkpt><trkpt lat="42.0863228" lon="13.5435101"><ele>794.4000000000001</ele><time>2026-05-02T13:57:55.615Z</time></trkpt><trkpt lat="42.0864225" lon="13.543534"><ele>794.2</ele><time>2026-05-02T13:57:56.615Z</time></trkpt><trkpt lat="42.0865251" lon="13.5435562"><ele>794.0</ele><time>2026-05-02T13:57:57.615Z</time></trkpt><trkpt lat="42.0866273" lon="13.5435756"><ele>793.6</ele><time>2026-05-02T13:57:58.615Z</time></trkpt><trkpt lat="42.0867305" lon="13.5435852"><ele>793.2</ele><time>2026-05-02T13:57:59.615Z</time></trkpt><trkpt lat="42.08683" lon="13.5435808"><ele>792.8000000000001</ele><time>2026-05-02T13:58:00.615Z</time></trkpt><trkpt lat="42.0869266" lon="13.5435611"><ele>792.4000000000001</ele><time>2026-05-02T13:58:01.616Z</time></trkpt><trkpt lat="42.0870192" lon="13.5435148"><ele>792.0</ele><time>2026-05-02T13:58:02.615Z</time></trkpt><trkpt lat="42.0871074" lon="13.5434469"><ele>792.0</ele><time>2026-05-02T13:58:03.616Z</time></trkpt><trkpt lat="42.0871941" lon="13.5433659"><ele>792.0</ele><time>2026-05-02T13:58:04.616Z</time></trkpt><trkpt lat="42.0872693" lon="13.5432735"><ele>792.0</ele><time>2026-05-02T13:58:05.616Z</time></trkpt><trkpt lat="42.0873212" lon="13.5431966"><ele>792.0</ele><time>2026-05-02T13:58:06.615Z</time></trkpt><trkpt lat="42.0873609" lon="13.543126"><ele>792.0</ele><time>2026-05-02T13:58:08.616Z</time></trkpt><trkpt lat="42.0874325" lon="13.5430171"><ele>792.0</ele><time>2026-05-02T13:58:14.615Z</time></trkpt><trkpt lat="42.0874759" lon="13.5429422"><ele>792.0</ele><time>2026-05-02T13:58:15.615Z</time></trkpt><trkpt lat="42.0875202" lon="13.5428582"><ele>792.0</ele><time>2026-05-02T13:58:16.615Z</time></trkpt><trkpt lat="42.0875611" lon="13.5427727"><ele>792.0</ele><time>2026-05-02T13:58:17.615Z</time></trkpt><trkpt lat="42.0876062" lon="13.5426801"><ele>792.0</ele><time>2026-05-02T13:58:19.615Z</time></trkpt><trkpt lat="42.0876803" lon="13.5426343"><ele>792.0</ele><time>2026-05-02T13:58:22.616Z</time></trkpt><trkpt lat="42.0877634" lon="13.5424816"><ele>792.0</ele><time>2026-05-02T13:58:24.615Z</time></trkpt><trkpt lat="42.0878205" lon="13.5423815"><ele>792.0</ele><time>2026-05-02T13:58:25.616Z</time></trkpt><trkpt lat="42.0878987" lon="13.5422827"><ele>792.0</ele><time>2026-05-02T13:58:26.615Z</time></trkpt><trkpt lat="42.087987" lon="13.5421988"><ele>792.0</ele><time>2026-05-02T13:58:27.615Z</time></trkpt><trkpt lat="42.0880818" lon="13.5421307"><ele>792.0</ele><time>2026-05-02T13:58:28.615Z</time></trkpt><trkpt lat="42.0881814" lon="13.5420606"><ele>792.8</ele><time>2026-05-02T13:58:29.616Z</time></trkpt><trkpt lat="42.0882823" lon="13.5419931"><ele>793.6</ele><time>2026-05-02T13:58:30.616Z</time></trkpt><trkpt lat="42.0883845" lon="13.5419335"><ele>794.4</ele><time>2026-05-02T13:58:31.615Z</time></trkpt><trkpt lat="42.0884821" lon="13.5418767"><ele>795.1999999999999</ele><time>2026-05-02T13:58:32.616Z</time></trkpt><trkpt lat="42.0885694" lon="13.5418106"><ele>796.0</ele><time>2026-05-02T13:58:33.616Z</time></trkpt><trkpt lat="42.0886265" lon="13.5417179"><ele>795.9999999999999</ele><time>2026-05-02T13:58:34.615Z</time></trkpt><trkpt lat="42.0886613" lon="13.5416132"><ele>796.0</ele><time>2026-05-02T13:58:35.615Z</time></trkpt><trkpt lat="42.0886735" lon="13.5415002"><ele>796.0</ele><time>2026-05-02T13:58:36.615Z</time></trkpt><trkpt lat="42.088669" lon="13.541391"><ele>796.0</ele><time>2026-05-02T13:58:37.615Z</time></trkpt><trkpt lat="42.0886559" lon="13.5412857"><ele>795.9999999999999</ele><time>2026-05-02T13:58:38.615Z</time></trkpt><trkpt lat="42.0886269" lon="13.5411835"><ele>796.0</ele><time>2026-05-02T13:58:39.616Z</time></trkpt><trkpt lat="42.0885919" lon="13.5410898"><ele>795.8</ele><time>2026-05-02T13:58:40.616Z</time></trkpt><trkpt lat="42.088553" lon="13.5410051"><ele>795.5999999999999</ele><time>2026-05-02T13:58:41.616Z</time></trkpt><trkpt lat="42.0885005" lon="13.5409226"><ele>795.4</ele><time>2026-05-02T13:58:42.615Z</time></trkpt><trkpt lat="42.0884298" lon="13.5408118"><ele>795.2</ele><time>2026-05-02T13:58:43.615Z</time></trkpt><trkpt lat="42.0883683" lon="13.5406861"><ele>795.0</ele><time>2026-05-02T13:58:44.616Z</time></trkpt><trkpt lat="42.0883279" lon="13.5405548"><ele>795.0</ele><time>2026-05-02T13:58:45.616Z</time></trkpt><trkpt lat="42.0883013" lon="13.5404196"><ele>795.0</ele><time>2026-05-02T13:58:46.615Z</time></trkpt><trkpt lat="42.0882853" lon="13.5402765"><ele>795.0</ele><time>2026-05-02T13:58:47.616Z</time></trkpt><trkpt lat="42.0882788" lon="13.5401217"><ele>795.0</ele><time>2026-05-02T13:58:48.615Z</time></trkpt><trkpt lat="42.0882778" lon="13.5399629"><ele>795.0</ele><time>2026-05-02T13:58:49.615Z</time></trkpt><trkpt lat="42.0882838" lon="13.5398006"><ele>794.8</ele><time>2026-05-02T13:58:50.615Z</time></trkpt><trkpt lat="42.0882964" lon="13.5396496"><ele>794.6</ele><time>2026-05-02T13:58:51.616Z</time></trkpt><trkpt lat="42.0883153" lon="13.5395064"><ele>794.4000000000001</ele><time>2026-05-02T13:58:52.615Z</time></trkpt><trkpt lat="42.0883351" lon="13.5393787"><ele>794.2</ele><time>2026-05-02T13:58:53.615Z</time></trkpt><trkpt lat="42.0883477" lon="13.5392727"><ele>794.0</ele><time>2026-05-02T13:58:54.616Z</time></trkpt><trkpt lat="42.0883587" lon="13.5391794"><ele>794.0000000000001</ele><time>2026-05-02T13:58:55.615Z</time></trkpt><trkpt lat="42.0883726" lon="13.5390261"><ele>794.0</ele><time>2026-05-02T13:58:57.616Z</time></trkpt><trkpt lat="42.0883709" lon="13.5389173"><ele>794.0</ele><time>2026-05-02T13:58:59.615Z</time></trkpt><trkpt lat="42.0883531" lon="13.5388078"><ele>794.0</ele><time>2026-05-02T13:59:01.616Z</time></trkpt><trkpt lat="42.0883372" lon="13.5387061"><ele>794.0000000000001</ele><time>2026-05-02T13:59:03.615Z</time></trkpt><trkpt lat="42.0883444" lon="13.5386111"><ele>794.0</ele><time>2026-05-02T13:59:06.616Z</time></trkpt><trkpt lat="42.0884378" lon="13.5385563"><ele>794.0000000000001</ele><time>2026-05-02T13:59:09.615Z</time></trkpt><trkpt lat="42.0885472" lon="13.5385048"><ele>794.0</ele><time>2026-05-02T13:59:11.616Z</time></trkpt><trkpt lat="42.0886194" lon="13.5384785"><ele>794.0</ele><time>2026-05-02T13:59:12.615Z</time></trkpt><trkpt lat="42.0886853" lon="13.5384504"><ele>794.0</ele><time>2026-05-02T13:59:13.615Z</time></trkpt><trkpt lat="42.0887473" lon="13.538425"><ele>794.0000000000001</ele><time>2026-05-02T13:59:14.615Z</time></trkpt><trkpt lat="42.0888508" lon="13.5383578"><ele>794.0</ele><time>2026-05-02T13:59:16.615Z</time></trkpt><trkpt lat="42.0889361" lon="13.5382584"><ele>794.0000000000001</ele><time>2026-05-02T13:59:18.616Z</time></trkpt><trkpt lat="42.0890032" lon="13.5381161"><ele>794.0</ele><time>2026-05-02T13:59:20.615Z</time></trkpt><trkpt lat="42.0890388" lon="13.5380372"><ele>794.0</ele><time>2026-05-02T13:59:21.616Z</time></trkpt><trkpt lat="42.0890788" lon="13.5379547"><ele>794.0</ele><time>2026-05-02T13:59:22.615Z</time></trkpt><trkpt lat="42.0891236" lon="13.5378671"><ele>794.0000000000001</ele><time>2026-05-02T13:59:23.616Z</time></trkpt><trkpt lat="42.0891689" lon="13.5377741"><ele>794.0</ele><time>2026-05-02T13:59:24.615Z</time></trkpt><trkpt lat="42.0892222" lon="13.5376788"><ele>795.8000000000001</ele><time>2026-05-02T13:59:25.615Z</time></trkpt><trkpt lat="42.0892869" lon="13.5375852"><ele>797.6</ele><time>2026-05-02T13:59:26.615Z</time></trkpt><trkpt lat="42.0893685" lon="13.5374877"><ele>799.4</ele><time>2026-05-02T13:59:27.616Z</time></trkpt><trkpt lat="42.0894583" lon="13.5373912"><ele>801.2</ele><time>2026-05-02T13:59:28.616Z</time></trkpt><trkpt lat="42.0895584" lon="13.5372943"><ele>803.0</ele><time>2026-05-02T13:59:29.616Z</time></trkpt><trkpt lat="42.0896617" lon="13.5371907"><ele>803.0</ele><time>2026-05-02T13:59:30.615Z</time></trkpt><trkpt lat="42.0897635" lon="13.5370826"><ele>803.0</ele><time>2026-05-02T13:59:31.615Z</time></trkpt><trkpt lat="42.0898653" lon="13.5369697"><ele>803.0</ele><time>2026-05-02T13:59:32.616Z</time></trkpt><trkpt lat="42.0899605" lon="13.5368496"><ele>803.0</ele><time>2026-05-02T13:59:33.615Z</time></trkpt><trkpt lat="42.0900482" lon="13.5367287"><ele>803.8333333333334</ele><time>2026-05-02T13:59:34.615Z</time></trkpt><trkpt lat="42.0901289" lon="13.5366271"><ele>804.6666666666667</ele><time>2026-05-02T13:59:35.616Z</time></trkpt><trkpt lat="42.0902051" lon="13.5365415"><ele>805.5</ele><time>2026-05-02T13:59:36.616Z</time></trkpt><trkpt lat="42.0902614" lon="13.5364716"><ele>806.3333333333333</ele><time>2026-05-02T13:59:37.615Z</time></trkpt><trkpt lat="42.0902941" lon="13.5363943"><ele>807.1666666666666</ele><time>2026-05-02T13:59:38.615Z</time></trkpt><trkpt lat="42.0903057" lon="13.5363003"><ele>808.0</ele><time>2026-05-02T13:59:39.615Z</time></trkpt><trkpt lat="42.0902938" lon="13.5361894"><ele>808.0</ele><time>2026-05-02T13:59:40.615Z</time></trkpt><trkpt lat="42.0902702" lon="13.5360613"><ele>808.0</ele><time>2026-05-02T13:59:41.615Z</time></trkpt><trkpt lat="42.0902481" lon="13.5359269"><ele>808.0</ele><time>2026-05-02T13:59:42.615Z</time></trkpt><trkpt lat="42.0902244" lon="13.5357971"><ele>808.0</ele><time>2026-05-02T13:59:43.615Z</time></trkpt><trkpt lat="42.0902031" lon="13.5356674"><ele>808.0</ele><time>2026-05-02T13:59:44.615Z</time></trkpt><trkpt lat="42.090195" lon="13.5355385"><ele>807.9999999999999</ele><time>2026-05-02T13:59:45.616Z</time></trkpt><trkpt lat="42.0901974" lon="13.5354159"><ele>808.0</ele><time>2026-05-02T13:59:46.615Z</time></trkpt><trkpt lat="42.0902042" lon="13.535301"><ele>808.0</ele><time>2026-05-02T13:59:47.615Z</time></trkpt><trkpt lat="42.0902183" lon="13.5352029"><ele>808.0</ele><time>2026-05-02T13:59:48.615Z</time></trkpt><trkpt lat="42.090234" lon="13.535109"><ele>807.9999999999999</ele><time>2026-05-02T13:59:49.615Z</time></trkpt><trkpt lat="42.0902489" lon="13.5350203"><ele>808.0</ele><time>2026-05-02T13:59:50.615Z</time></trkpt><trkpt lat="42.0902636" lon="13.5348563"><ele>807.9999999999999</ele><time>2026-05-02T13:59:52.616Z</time></trkpt><trkpt lat="42.0902788" lon="13.534761"><ele>808.0</ele><time>2026-05-02T13:59:53.615Z</time></trkpt><trkpt lat="42.0903015" lon="13.5346601"><ele>808.0</ele><time>2026-05-02T13:59:54.616Z</time></trkpt><trkpt lat="42.0903353" lon="13.5345537"><ele>808.0</ele><time>2026-05-02T13:59:55.615Z</time></trkpt><trkpt lat="42.0903814" lon="13.5344455"><ele>807.9999999999999</ele><time>2026-05-02T13:59:56.615Z</time></trkpt><trkpt lat="42.0904403" lon="13.5343355"><ele>808.0</ele><time>2026-05-02T13:59:57.616Z</time></trkpt><trkpt lat="42.0905135" lon="13.5342345"><ele>808.0</ele><time>2026-05-02T13:59:58.615Z</time></trkpt><trkpt lat="42.0905959" lon="13.5340978"><ele>808.0</ele><time>2026-05-02T13:59:59.616Z</time></trkpt><trkpt lat="42.0906763" lon="13.5339526"><ele>808.0</ele><time>2026-05-02T14:00:00.616Z</time></trkpt><trkpt lat="42.0907604" lon="13.5338096"><ele>808.0</ele><time>2026-05-02T14:00:01.616Z</time></trkpt><trkpt lat="42.090843" lon="13.533661"><ele>809.5</ele><time>2026-05-02T14:00:02.616Z</time></trkpt><trkpt lat="42.0909158" lon="13.5335247"><ele>811.0</ele><time>2026-05-02T14:00:03.615Z</time></trkpt><trkpt lat="42.090985" lon="13.5334001"><ele>812.5</ele><time>2026-05-02T14:00:04.615Z</time></trkpt><trkpt lat="42.0910442" lon="13.5332677"><ele>814.0</ele><time>2026-05-02T14:00:05.616Z</time></trkpt><trkpt lat="42.0910941" lon="13.5331317"><ele>814.0</ele><time>2026-05-02T14:00:06.616Z</time></trkpt><trkpt lat="42.0911422" lon="13.5330102"><ele>814.0</ele><time>2026-05-02T14:00:07.615Z</time></trkpt><trkpt lat="42.0911946" lon="13.5329022"><ele>814.0</ele><time>2026-05-02T14:00:08.616Z</time></trkpt><trkpt lat="42.0912593" lon="13.5328038"><ele>814.0</ele><time>2026-05-02T14:00:09.615Z</time></trkpt><trkpt lat="42.0913414" lon="13.5327021"><ele>814.0</ele><time>2026-05-02T14:00:10.616Z</time></trkpt><trkpt lat="42.0914282" lon="13.5326004"><ele>814.25</ele><time>2026-05-02T14:00:11.615Z</time></trkpt><trkpt lat="42.0915189" lon="13.532493"><ele>814.5</ele><time>2026-05-02T14:00:12.615Z</time></trkpt><trkpt lat="42.0916116" lon="13.5323708"><ele>814.75</ele><time>2026-05-02T14:00:13.615Z</time></trkpt><trkpt lat="42.0917024" lon="13.5322337"><ele>815.0</ele><time>2026-05-02T14:00:14.615Z</time></trkpt><trkpt lat="42.091784" lon="13.5320803"><ele>816.25</ele><time>2026-05-02T14:00:15.615Z</time></trkpt><trkpt lat="42.0918558" lon="13.5319173"><ele>817.5</ele><time>2026-05-02T14:00:16.615Z</time></trkpt><trkpt lat="42.0919197" lon="13.5317484"><ele>818.75</ele><time>2026-05-02T14:00:17.615Z</time></trkpt><trkpt lat="42.0919709" lon="13.5315713"><ele>820.0</ele><time>2026-05-02T14:00:18.615Z</time></trkpt><trkpt lat="42.0920165" lon="13.5313823"><ele>819.3333333333333</ele><time>2026-05-02T14:00:19.615Z</time></trkpt><trkpt lat="42.092057" lon="13.5311875"><ele>818.6666666666667</ele><time>2026-05-02T14:00:20.615Z</time></trkpt><trkpt lat="42.0920973" lon="13.5309903"><ele>818.0</ele><time>2026-05-02T14:00:21.615Z</time></trkpt><trkpt lat="42.0921468" lon="13.530796"><ele>818.0</ele><time>2026-05-02T14:00:22.615Z</time></trkpt><trkpt lat="42.0922023" lon="13.5306062"><ele>818.0</ele><time>2026-05-02T14:00:23.616Z</time></trkpt><trkpt lat="42.0922622" lon="13.5304213"><ele>818.0</ele><time>2026-05-02T14:00:24.615Z</time></trkpt><trkpt lat="42.0923303" lon="13.5302478"><ele>818.0</ele><time>2026-05-02T14:00:25.615Z</time></trkpt><trkpt lat="42.0923987" lon="13.5300752"><ele>819.75</ele><time>2026-05-02T14:00:26.616Z</time></trkpt><trkpt lat="42.0924646" lon="13.5299089"><ele>821.5</ele><time>2026-05-02T14:00:27.615Z</time></trkpt><trkpt lat="42.0925285" lon="13.5297455"><ele>823.25</ele><time>2026-05-02T14:00:28.615Z</time></trkpt><trkpt lat="42.0925948" lon="13.5295796"><ele>825.0</ele><time>2026-05-02T14:00:29.615Z</time></trkpt><trkpt lat="42.0926606" lon="13.5294146"><ele>825.0</ele><time>2026-05-02T14:00:30.615Z</time></trkpt><trkpt lat="42.0927224" lon="13.5292498"><ele>825.0</ele><time>2026-05-02T14:00:31.616Z</time></trkpt><trkpt lat="42.0927775" lon="13.5290891"><ele>825.0</ele><time>2026-05-02T14:00:32.616Z</time></trkpt><trkpt lat="42.0928305" lon="13.5289345"><ele>825.0</ele><time>2026-05-02T14:00:33.615Z</time></trkpt><trkpt lat="42.09288" lon="13.5287878"><ele>824.2</ele><time>2026-05-02T14:00:34.615Z</time></trkpt><trkpt lat="42.0929328" lon="13.5286476"><ele>823.4</ele><time>2026-05-02T14:00:35.615Z</time></trkpt><trkpt lat="42.0929836" lon="13.5285136"><ele>822.5999999999999</ele><time>2026-05-02T14:00:36.616Z</time></trkpt><trkpt lat="42.0930328" lon="13.5283883"><ele>821.8</ele><time>2026-05-02T14:00:37.615Z</time></trkpt><trkpt lat="42.0930827" lon="13.5282926"><ele>821.0</ele><time>2026-05-02T14:00:38.615Z</time></trkpt><trkpt lat="42.0931435" lon="13.5281958"><ele>821.0</ele><time>2026-05-02T14:00:39.615Z</time></trkpt><trkpt lat="42.0932105" lon="13.5281022"><ele>821.0</ele><time>2026-05-02T14:00:40.616Z</time></trkpt><trkpt lat="42.0932834" lon="13.5280154"><ele>821.0</ele><time>2026-05-02T14:00:41.616Z</time></trkpt><trkpt lat="42.0933534" lon="13.5279358"><ele>821.0</ele><time>2026-05-02T14:00:42.616Z</time></trkpt><trkpt lat="42.0934201" lon="13.5278669"><ele>821.0</ele><time>2026-05-02T14:00:43.615Z</time></trkpt><trkpt lat="42.0934861" lon="13.5278031"><ele>822.1666666666667</ele><time>2026-05-02T14:00:44.615Z</time></trkpt><trkpt lat="42.0935463" lon="13.5277488"><ele>823.3333333333334</ele><time>2026-05-02T14:00:45.615Z</time></trkpt><trkpt lat="42.0936067" lon="13.5277039"><ele>824.5</ele><time>2026-05-02T14:00:46.616Z</time></trkpt><trkpt lat="42.0936682" lon="13.5276663"><ele>825.6666666666667</ele><time>2026-05-02T14:00:47.615Z</time></trkpt><trkpt lat="42.0937277" lon="13.52763"><ele>826.8333333333334</ele><time>2026-05-02T14:00:48.615Z</time></trkpt><trkpt lat="42.0938156" lon="13.5275423"><ele>828.0</ele><time>2026-05-02T14:00:50.616Z</time></trkpt><trkpt lat="42.0938504" lon="13.5274502"><ele>828.0</ele><time>2026-05-02T14:00:52.615Z</time></trkpt><trkpt lat="42.0938694" lon="13.5273116"><ele>828.0</ele><time>2026-05-02T14:00:54.615Z</time></trkpt><trkpt lat="42.0938787" lon="13.5271521"><ele>828.0</ele><time>2026-05-02T14:00:56.616Z</time></trkpt><trkpt lat="42.0938853" lon="13.5270216"><ele>828.0</ele><time>2026-05-02T14:00:58.615Z</time></trkpt><trkpt lat="42.0938888" lon="13.5269032"><ele>828.0</ele><time>2026-05-02T14:01:00.615Z</time></trkpt><trkpt lat="42.0939042" lon="13.5268036"><ele>827.5999999999999</ele><time>2026-05-02T14:01:02.615Z</time></trkpt><trkpt lat="42.0939353" lon="13.526654"><ele>827.1999999999999</ele><time>2026-05-02T14:01:04.616Z</time></trkpt><trkpt lat="42.093968" lon="13.5265241"><ele>826.8</ele><time>2026-05-02T14:01:06.615Z</time></trkpt><trkpt lat="42.0939958" lon="13.5263861"><ele>826.4</ele><time>2026-05-02T14:01:08.615Z</time></trkpt><trkpt lat="42.094011" lon="13.5262558"><ele>826.0</ele><time>2026-05-02T14:01:10.616Z</time></trkpt><trkpt lat="42.0940275" lon="13.5261186"><ele>827.0</ele><time>2026-05-02T14:01:12.615Z</time></trkpt><trkpt lat="42.0940491" lon="13.5259852"><ele>828.0</ele><time>2026-05-02T14:01:14.616Z</time></trkpt><trkpt lat="42.0940876" lon="13.5258471"><ele>829.0</ele><time>2026-05-02T14:01:16.615Z</time></trkpt><trkpt lat="42.0941301" lon="13.5257177"><ele>830.0</ele><time>2026-05-02T14:01:18.615Z</time></trkpt><trkpt lat="42.0941791" lon="13.5255954"><ele>831.0</ele><time>2026-05-02T14:01:20.616Z</time></trkpt><trkpt lat="42.0941985" lon="13.5254619"><ele>828.6666666666666</ele><time>2026-05-02T14:01:22.615Z</time></trkpt><trkpt lat="42.0942204" lon="13.5253169"><ele>826.3333333333333</ele><time>2026-05-02T14:01:24.615Z</time></trkpt><trkpt lat="42.0942591" lon="13.5252453"><ele>824.0</ele><time>2026-05-02T14:01:25.615Z</time></trkpt><trkpt lat="42.0943112" lon="13.5251729"><ele>821.6666666666666</ele><time>2026-05-02T14:01:26.616Z</time></trkpt><trkpt lat="42.094367" lon="13.5251053"><ele>819.3333333333333</ele><time>2026-05-02T14:01:27.615Z</time></trkpt><trkpt lat="42.0944176" lon="13.5250439"><ele>817.0</ele><time>2026-05-02T14:01:28.615Z</time></trkpt><trkpt lat="42.0945045" lon="13.5249428"><ele>817.0</ele><time>2026-05-02T14:01:30.615Z</time></trkpt><trkpt lat="42.0945846" lon="13.5248523"><ele>817.0</ele><time>2026-05-02T14:01:32.616Z</time></trkpt><trkpt lat="42.094666" lon="13.524765"><ele>817.0</ele><time>2026-05-02T14:01:34.616Z</time></trkpt><trkpt lat="42.0947499" lon="13.5246818"><ele>817.0</ele><time>2026-05-02T14:01:36.615Z</time></trkpt><trkpt lat="42.0948275" lon="13.5245852"><ele>817.0</ele><time>2026-05-02T14:01:38.615Z</time></trkpt><trkpt lat="42.0949055" lon="13.5245023"><ele>817.8</ele><time>2026-05-02T14:01:40.615Z</time></trkpt><trkpt lat="42.0949965" lon="13.5244472"><ele>818.6</ele><time>2026-05-02T14:01:42.616Z</time></trkpt><trkpt lat="42.0950998" lon="13.5243597"><ele>819.4</ele><time>2026-05-02T14:01:44.615Z</time></trkpt><trkpt lat="42.0951547" lon="13.5243154"><ele>820.1999999999999</ele><time>2026-05-02T14:01:45.615Z</time></trkpt><trkpt lat="42.0952611" lon="13.5242256"><ele>821.0</ele><time>2026-05-02T14:01:47.615Z</time></trkpt><trkpt lat="42.0953195" lon="13.5241639"><ele>821.0000000000001</ele><time>2026-05-02T14:01:48.616Z</time></trkpt><trkpt lat="42.0953771" lon="13.5240954"><ele>821.0</ele><time>2026-05-02T14:01:49.615Z</time></trkpt><trkpt lat="42.0954349" lon="13.5240267"><ele>821.0</ele><time>2026-05-02T14:01:50.616Z</time></trkpt><trkpt lat="42.0955006" lon="13.5239605"><ele>821.0</ele><time>2026-05-02T14:01:51.616Z</time></trkpt><trkpt lat="42.0955617" lon="13.5239062"><ele>821.0000000000001</ele><time>2026-05-02T14:01:52.615Z</time></trkpt><trkpt lat="42.0956479" lon="13.5238096"><ele>821.0</ele><time>2026-05-02T14:01:54.615Z</time></trkpt><trkpt lat="42.0957067" lon="13.5236872"><ele>822.5999999999999</ele><time>2026-05-02T14:01:56.615Z</time></trkpt><trkpt lat="42.0957393" lon="13.5236143"><ele>824.2</ele><time>2026-05-02T14:01:57.615Z</time></trkpt><trkpt lat="42.0957793" lon="13.5234721"><ele>825.8</ele><time>2026-05-02T14:01:59.615Z</time></trkpt><trkpt lat="42.0958077" lon="13.5233287"><ele>827.4000000000001</ele><time>2026-05-02T14:02:01.615Z</time></trkpt><trkpt lat="42.0958343" lon="13.5231854"><ele>829.0</ele><time>2026-05-02T14:02:03.615Z</time></trkpt><trkpt lat="42.0958768" lon="13.5230321"><ele>828.9999999999999</ele><time>2026-05-02T14:02:05.615Z</time></trkpt><trkpt lat="42.0959202" lon="13.5229369"><ele>829.0</ele><time>2026-05-02T14:02:06.616Z</time></trkpt><trkpt lat="42.0959557" lon="13.5228524"><ele>829.0</ele><time>2026-05-02T14:02:07.615Z</time></trkpt><trkpt lat="42.0959915" lon="13.5227718"><ele>829.0</ele><time>2026-05-02T14:02:08.616Z</time></trkpt><trkpt lat="42.0960191" lon="13.5226903"><ele>828.9999999999999</ele><time>2026-05-02T14:02:09.615Z</time></trkpt><trkpt lat="42.0960613" lon="13.5225542"><ele>829.0</ele><time>2026-05-02T14:02:11.616Z</time></trkpt><trkpt lat="42.0961134" lon="13.5224268"><ele>829.6666666666666</ele><time>2026-05-02T14:02:13.616Z</time></trkpt><trkpt lat="42.0961261" lon="13.5223116"><ele>830.3333333333333</ele><time>2026-05-02T14:02:15.616Z</time></trkpt><trkpt lat="42.0961784" lon="13.5222183"><ele>831.0</ele><time>2026-05-02T14:02:18.616Z</time></trkpt><trkpt lat="42.0962396" lon="13.5221338"><ele>831.6666666666667</ele><time>2026-05-02T14:02:20.615Z</time></trkpt><trkpt lat="42.0962972" lon="13.522022"><ele>832.3333333333334</ele><time>2026-05-02T14:02:22.615Z</time></trkpt><trkpt lat="42.0963637" lon="13.521947"><ele>833.0</ele><time>2026-05-02T14:02:24.616Z</time></trkpt><trkpt lat="42.0964064" lon="13.5218707"><ele>833.3333333333334</ele><time>2026-05-02T14:02:27.615Z</time></trkpt><trkpt lat="42.0965109" lon="13.5218587"><ele>833.6666666666667</ele><time>2026-05-02T14:02:33.615Z</time></trkpt><trkpt lat="42.0966029" lon="13.5218363"><ele>834.0</ele><time>2026-05-02T14:02:35.615Z</time></trkpt><trkpt lat="42.0966785" lon="13.521832"><ele>834.3333333333333</ele><time>2026-05-02T14:02:39.615Z</time></trkpt><trkpt lat="42.0965917" lon="13.5218359"><ele>834.6666666666666</ele><time>2026-05-02T14:02:52.615Z</time></trkpt><trkpt lat="42.0965277" lon="13.5218468"><ele>835.0</ele><time>2026-05-02T14:02:54.615Z</time></trkpt><trkpt lat="42.0964503" lon="13.5218645"><ele>834.9999999999999</ele><time>2026-05-02T14:02:56.615Z</time></trkpt><trkpt lat="42.096369" lon="13.5218632"><ele>835.0</ele><time>2026-05-02T14:02:58.616Z</time></trkpt><trkpt lat="42.0963072" lon="13.5218371"><ele>835.0</ele><time>2026-05-02T14:03:00.616Z</time></trkpt><trkpt lat="42.0962666" lon="13.521768"><ele>835.0</ele><time>2026-05-02T14:03:04.616Z</time></trkpt><trkpt lat="42.0962732" lon="13.5216774"><ele>834.9999999999999</ele><time>2026-05-02T14:03:08.615Z</time></trkpt><trkpt lat="42.0963746" lon="13.5217093"><ele>835.0</ele><time>2026-05-02T14:03:58.615Z</time></trkpt><trkpt lat="42.0964158" lon="13.5216294"><ele>834.9999999999999</ele><time>2026-05-02T14:04:07.615Z</time></trkpt><trkpt lat="42.0963754" lon="13.521564"><ele>835.0</ele><time>2026-05-02T14:05:10.615Z</time></trkpt><trkpt lat="42.0963779" lon="13.521403"><ele>835.0</ele><time>2026-05-02T14:05:14.615Z</time></trkpt><trkpt lat="42.0963886" lon="13.5212933"><ele>835.0</ele><time>2026-05-02T14:05:16.615Z</time></trkpt><trkpt lat="42.0964141" lon="13.5211898"><ele>834.9999999999999</ele><time>2026-05-02T14:05:19.616Z</time></trkpt><trkpt lat="42.0964529" lon="13.5210977"><ele>835.0</ele><time>2026-05-02T14:05:22.615Z</time></trkpt><trkpt lat="42.0964952" lon="13.5210107"><ele>834.8333333333333</ele><time>2026-05-02T14:05:26.615Z</time></trkpt><trkpt lat="42.0965423" lon="13.5209498"><ele>834.6666666666666</ele><time>2026-05-02T14:05:28.615Z</time></trkpt><trkpt lat="42.0966203" lon="13.5208548"><ele>834.5</ele><time>2026-05-02T14:05:30.615Z</time></trkpt><trkpt lat="42.0966817" lon="13.5207533"><ele>834.3333333333333</ele><time>2026-05-02T14:05:32.615Z</time></trkpt><trkpt lat="42.0967468" lon="13.5206467"><ele>834.1666666666666</ele><time>2026-05-02T14:05:34.616Z</time></trkpt><trkpt lat="42.0967932" lon="13.5205656"><ele>834.0</ele><time>2026-05-02T14:05:36.616Z</time></trkpt><trkpt lat="42.0968316" lon="13.5204974"><ele>835.6</ele><time>2026-05-02T14:05:38.615Z</time></trkpt><trkpt lat="42.0968732" lon="13.5204287"><ele>837.2</ele><time>2026-05-02T14:05:40.615Z</time></trkpt><trkpt lat="42.0969426" lon="13.5203192"><ele>838.8000000000001</ele><time>2026-05-02T14:05:42.616Z</time></trkpt><trkpt lat="42.0970072" lon="13.5202413"><ele>840.4000000000001</ele><time>2026-05-02T14:05:44.615Z</time></trkpt><trkpt lat="42.0970937" lon="13.520177"><ele>842.0</ele><time>2026-05-02T14:05:46.615Z</time></trkpt><trkpt lat="42.097194" lon="13.5201264"><ele>842.0000000000001</ele><time>2026-05-02T14:05:48.615Z</time></trkpt><trkpt lat="42.0972954" lon="13.5200835"><ele>842.0</ele><time>2026-05-02T14:05:50.615Z</time></trkpt><trkpt lat="42.0973691" lon="13.5200564"><ele>842.0</ele><time>2026-05-02T14:05:52.614Z</time></trkpt><trkpt lat="42.0974155" lon="13.5199788"><ele>842.0</ele><time>2026-05-02T14:05:56.615Z</time></trkpt><trkpt lat="42.0974131" lon="13.5198906"><ele>842.0000000000001</ele><time>2026-05-02T14:05:58.616Z</time></trkpt><trkpt lat="42.097374" lon="13.5197932"><ele>842.0</ele><time>2026-05-02T14:06:00.615Z</time></trkpt><trkpt lat="42.0973369" lon="13.5196925"><ele>842.0000000000001</ele><time>2026-05-02T14:06:02.616Z</time></trkpt><trkpt lat="42.0973247" lon="13.5196009"><ele>842.0</ele><time>2026-05-02T14:06:04.615Z</time></trkpt><trkpt lat="42.0973234" lon="13.5195086"><ele>842.0</ele><time>2026-05-02T14:06:06.616Z</time></trkpt><trkpt lat="42.0973195" lon="13.5193981"><ele>842.0</ele><time>2026-05-02T14:06:09.616Z</time></trkpt><trkpt lat="42.0972915" lon="13.5193139"><ele>842.0000000000001</ele><time>2026-05-02T14:06:12.615Z</time></trkpt><trkpt lat="42.0972428" lon="13.5192219"><ele>842.0</ele><time>2026-05-02T14:06:14.615Z</time></trkpt><trkpt lat="42.0971875" lon="13.5191346"><ele>844.6</ele><time>2026-05-02T14:06:16.615Z</time></trkpt><trkpt lat="42.0971661" lon="13.5190364"><ele>847.2</ele><time>2026-05-02T14:06:19.616Z</time></trkpt><trkpt lat="42.0971893" lon="13.5189281"><ele>849.8</ele><time>2026-05-02T14:07:01.615Z</time></trkpt><trkpt lat="42.0972081" lon="13.5188417"><ele>852.4</ele><time>2026-05-02T14:07:03.615Z</time></trkpt><trkpt lat="42.0972598" lon="13.5186472"><ele>855.0</ele><time>2026-05-02T14:07:07.615Z</time></trkpt><trkpt lat="42.0972906" lon="13.518552"><ele>857.3333333333334</ele><time>2026-05-02T14:07:08.615Z</time></trkpt><trkpt lat="42.097343" lon="13.5184177"><ele>859.6666666666667</ele><time>2026-05-02T14:07:10.615Z</time></trkpt><trkpt lat="42.0973908" lon="13.5182956"><ele>862.0</ele><time>2026-05-02T14:07:12.616Z</time></trkpt><trkpt lat="42.0974225" lon="13.5182152"><ele>864.3333333333334</ele><time>2026-05-02T14:07:13.615Z</time></trkpt><trkpt lat="42.0974588" lon="13.5181314"><ele>866.6666666666667</ele><time>2026-05-02T14:07:14.616Z</time></trkpt><trkpt lat="42.0974997" lon="13.518043"><ele>869.0</ele><time>2026-05-02T14:07:15.616Z</time></trkpt><trkpt lat="42.0975461" lon="13.5179506"><ele>870.1666666666667</ele><time>2026-05-02T14:07:16.616Z</time></trkpt><trkpt lat="42.0975907" lon="13.5178637"><ele>871.3333333333334</ele><time>2026-05-02T14:07:17.615Z</time></trkpt><trkpt lat="42.0976306" lon="13.5177773"><ele>872.5</ele><time>2026-05-02T14:07:18.615Z</time></trkpt><trkpt lat="42.0976721" lon="13.5176921"><ele>873.6666666666667</ele><time>2026-05-02T14:07:19.616Z</time></trkpt><trkpt lat="42.097716" lon="13.5176095"><ele>874.8333333333334</ele><time>2026-05-02T14:07:20.615Z</time></trkpt><trkpt lat="42.0977606" lon="13.5175303"><ele>876.0</ele><time>2026-05-02T14:07:21.615Z</time></trkpt><trkpt lat="42.0978018" lon="13.5174502"><ele>876.0</ele><time>2026-05-02T14:07:22.615Z</time></trkpt><trkpt lat="42.0978384" lon="13.5173658"><ele>876.0</ele><time>2026-05-02T14:07:23.615Z</time></trkpt><trkpt lat="42.097873" lon="13.5172752"><ele>876.0</ele><time>2026-05-02T14:07:24.616Z</time></trkpt><trkpt lat="42.0979053" lon="13.5171797"><ele>876.0</ele><time>2026-05-02T14:07:25.615Z</time></trkpt><trkpt lat="42.0979343" lon="13.517091"><ele>876.0</ele><time>2026-05-02T14:07:26.615Z</time></trkpt><trkpt lat="42.0979739" lon="13.5169272"><ele>876.0</ele><time>2026-05-02T14:07:28.615Z</time></trkpt><trkpt lat="42.0979861" lon="13.5168354"><ele>876.0</ele><time>2026-05-02T14:07:29.615Z</time></trkpt><trkpt lat="42.0979979" lon="13.5167483"><ele>875.9999999999999</ele><time>2026-05-02T14:07:30.615Z</time></trkpt><trkpt lat="42.0980306" lon="13.5165851"><ele>875.9999999999999</ele><time>2026-05-02T14:07:32.615Z</time></trkpt><trkpt lat="42.0980664" lon="13.5164263"><ele>876.0</ele><time>2026-05-02T14:07:34.615Z</time></trkpt><trkpt lat="42.0980973" lon="13.5162653"><ele>876.0</ele><time>2026-05-02T14:07:36.616Z</time></trkpt><trkpt lat="42.098134" lon="13.5161067"><ele>877.5999999999999</ele><time>2026-05-02T14:07:38.615Z</time></trkpt><trkpt lat="42.0981734" lon="13.5159792"><ele>879.1999999999999</ele><time>2026-05-02T14:07:40.615Z</time></trkpt><trkpt lat="42.0982292" lon="13.5158645"><ele>880.8000000000001</ele><time>2026-05-02T14:07:42.615Z</time></trkpt><trkpt lat="42.0982955" lon="13.5157695"><ele>882.4000000000001</ele><time>2026-05-02T14:07:44.616Z</time></trkpt><trkpt lat="42.0983638" lon="13.5156672"><ele>884.0</ele><time>2026-05-02T14:07:46.615Z</time></trkpt><trkpt lat="42.0984363" lon="13.515549"><ele>886.6666666666667</ele><time>2026-05-02T14:07:48.616Z</time></trkpt><trkpt lat="42.098497" lon="13.5154243"><ele>889.3333333333334</ele><time>2026-05-02T14:07:50.616Z</time></trkpt><trkpt lat="42.0985445" lon="13.5153322"><ele>892.0</ele><time>2026-05-02T14:07:52.615Z</time></trkpt><trkpt lat="42.098585" lon="13.5152431"><ele>894.6666666666667</ele><time>2026-05-02T14:07:54.615Z</time></trkpt><trkpt lat="42.0986275" lon="13.5151569"><ele>897.3333333333334</ele><time>2026-05-02T14:07:56.616Z</time></trkpt><trkpt lat="42.0986855" lon="13.5150595"><ele>900.0</ele><time>2026-05-02T14:07:58.616Z</time></trkpt><trkpt lat="42.0987438" lon="13.5149402"><ele>901.25</ele><time>2026-05-02T14:08:00.616Z</time></trkpt><trkpt lat="42.0988098" lon="13.5148161"><ele>902.5</ele><time>2026-05-02T14:08:02.616Z</time></trkpt><trkpt lat="42.0988681" lon="13.5146817"><ele>903.75</ele><time>2026-05-02T14:08:04.615Z</time></trkpt><trkpt lat="42.098923" lon="13.5145369"><ele>905.0</ele><time>2026-05-02T14:08:06.616Z</time></trkpt><trkpt lat="42.0989571" lon="13.5144019"><ele>906.0</ele><time>2026-05-02T14:08:08.616Z</time></trkpt><trkpt lat="42.098958" lon="13.5143153"><ele>907.0</ele><time>2026-05-02T14:08:10.616Z</time></trkpt><trkpt lat="42.0988979" lon="13.5142157"><ele>908.0</ele><time>2026-05-02T14:08:13.616Z</time></trkpt><trkpt lat="42.0988091" lon="13.5140736"><ele>909.0</ele><time>2026-05-02T14:08:15.616Z</time></trkpt><trkpt lat="42.0987723" lon="13.5139749"><ele>910.0</ele><time>2026-05-02T14:08:16.616Z</time></trkpt><trkpt lat="42.0987372" lon="13.5138625"><ele>909.9999999999999</ele><time>2026-05-02T14:08:17.615Z</time></trkpt><trkpt lat="42.0986976" lon="13.5137407"><ele>910.0</ele><time>2026-05-02T14:08:18.615Z</time></trkpt><trkpt lat="42.0986595" lon="13.5136316"><ele>910.0</ele><time>2026-05-02T14:08:19.616Z</time></trkpt><trkpt lat="42.0986297" lon="13.5135416"><ele>910.0</ele><time>2026-05-02T14:08:20.615Z</time></trkpt><trkpt lat="42.0986045" lon="13.513463"><ele>909.9999999999999</ele><time>2026-05-02T14:08:21.615Z</time></trkpt><trkpt lat="42.0985682" lon="13.5133192"><ele>910.0</ele><time>2026-05-02T14:08:23.615Z</time></trkpt><trkpt lat="42.0985584" lon="13.5132332"><ele>911.8333333333333</ele><time>2026-05-02T14:08:24.615Z</time></trkpt><trkpt lat="42.0985604" lon="13.5131442"><ele>913.6666666666666</ele><time>2026-05-02T14:08:25.615Z</time></trkpt><trkpt lat="42.0985608" lon="13.5130556"><ele>915.5</ele><time>2026-05-02T14:08:26.615Z</time></trkpt><trkpt lat="42.0985301" lon="13.5128987"><ele>917.3333333333333</ele><time>2026-05-02T14:08:28.615Z</time></trkpt><trkpt lat="42.098477" lon="13.5127557"><ele>919.1666666666666</ele><time>2026-05-02T14:08:30.615Z</time></trkpt><trkpt lat="42.0984532" lon="13.5126767"><ele>921.0</ele><time>2026-05-02T14:08:31.615Z</time></trkpt><trkpt lat="42.0984359" lon="13.5125873"><ele>921.6666666666666</ele><time>2026-05-02T14:08:32.615Z</time></trkpt><trkpt lat="42.0984246" lon="13.5124897"><ele>922.3333333333333</ele><time>2026-05-02T14:08:33.616Z</time></trkpt><trkpt lat="42.0984213" lon="13.5123853"><ele>923.0</ele><time>2026-05-02T14:08:34.616Z</time></trkpt><trkpt lat="42.0984184" lon="13.5122746"><ele>923.6666666666666</ele><time>2026-05-02T14:08:35.616Z</time></trkpt><trkpt lat="42.0984105" lon="13.5121632"><ele>924.3333333333333</ele><time>2026-05-02T14:08:36.616Z</time></trkpt><trkpt lat="42.0984043" lon="13.5120573"><ele>925.0</ele><time>2026-05-02T14:08:37.615Z</time></trkpt><trkpt lat="42.0984092" lon="13.5119537"><ele>925.5714285714287</ele><time>2026-05-02T14:08:38.616Z</time></trkpt><trkpt lat="42.0984241" lon="13.5118489"><ele>926.1428571428571</ele><time>2026-05-02T14:08:39.616Z</time></trkpt><trkpt lat="42.0984386" lon="13.5117483"><ele>926.7142857142858</ele><time>2026-05-02T14:08:40.616Z</time></trkpt><trkpt lat="42.0984469" lon="13.5116575"><ele>927.2857142857143</ele><time>2026-05-02T14:08:41.615Z</time></trkpt><trkpt lat="42.09845" lon="13.5115674"><ele>927.8571428571429</ele><time>2026-05-02T14:08:42.616Z</time></trkpt><trkpt lat="42.0984494" lon="13.5114752"><ele>928.4285714285714</ele><time>2026-05-02T14:08:43.615Z</time></trkpt><trkpt lat="42.0984362" lon="13.5113871"><ele>929.0</ele><time>2026-05-02T14:08:44.615Z</time></trkpt><trkpt lat="42.0984124" lon="13.5113016"><ele>930.0</ele><time>2026-05-02T14:08:45.616Z</time></trkpt><trkpt lat="42.0983776" lon="13.5112219"><ele>931.0000000000001</ele><time>2026-05-02T14:08:46.615Z</time></trkpt><trkpt lat="42.0983351" lon="13.511148"><ele>932.0</ele><time>2026-05-02T14:08:47.615Z</time></trkpt><trkpt lat="42.0982908" lon="13.5110768"><ele>933.0</ele><time>2026-05-02T14:08:48.615Z</time></trkpt><trkpt lat="42.0982452" lon="13.5110096"><ele>934.0000000000001</ele><time>2026-05-02T14:08:49.615Z</time></trkpt><trkpt lat="42.0982015" lon="13.5109428"><ele>935.0</ele><time>2026-05-02T14:08:50.616Z</time></trkpt><trkpt lat="42.0981613" lon="13.5108666"><ele>936.0</ele><time>2026-05-02T14:08:51.616Z</time></trkpt><trkpt lat="42.098124" lon="13.5107751"><ele>932.0</ele><time>2026-05-02T14:08:52.616Z</time></trkpt><trkpt lat="42.0980966" lon="13.5106757"><ele>928.0</ele><time>2026-05-02T14:08:53.616Z</time></trkpt><trkpt lat="42.0980691" lon="13.5105748"><ele>924.0</ele><time>2026-05-02T14:08:54.615Z</time></trkpt><trkpt lat="42.0980401" lon="13.510478"><ele>920.0</ele><time>2026-05-02T14:08:55.615Z</time></trkpt><trkpt lat="42.0980059" lon="13.5103824"><ele>916.0</ele><time>2026-05-02T14:08:56.616Z</time></trkpt><trkpt lat="42.0979667" lon="13.5102911"><ele>912.0</ele><time>2026-05-02T14:08:57.615Z</time></trkpt><trkpt lat="42.0979231" lon="13.5101991"><ele>912.0</ele><time>2026-05-02T14:08:58.615Z</time></trkpt><trkpt lat="42.0978776" lon="13.5101093"><ele>912.0</ele><time>2026-05-02T14:08:59.615Z</time></trkpt><trkpt lat="42.0978314" lon="13.5100177"><ele>912.0</ele><time>2026-05-02T14:09:00.615Z</time></trkpt><trkpt lat="42.0977873" lon="13.5099231"><ele>912.0</ele><time>2026-05-02T14:09:01.615Z</time></trkpt><trkpt lat="42.0977538" lon="13.5098385"><ele>912.0</ele><time>2026-05-02T14:09:02.616Z</time></trkpt><trkpt lat="42.0977223" lon="13.5097592"><ele>912.0</ele><time>2026-05-02T14:09:03.616Z</time></trkpt><trkpt lat="42.097697" lon="13.5096747"><ele>912.0</ele><time>2026-05-02T14:09:04.616Z</time></trkpt><trkpt lat="42.0976727" lon="13.509585"><ele>912.0</ele><time>2026-05-02T14:09:05.616Z</time></trkpt><trkpt lat="42.09765" lon="13.509497"><ele>912.0</ele><time>2026-05-02T14:09:06.616Z</time></trkpt><trkpt lat="42.097644" lon="13.5093384"><ele>912.0</ele><time>2026-05-02T14:09:08.615Z</time></trkpt><trkpt lat="42.0976641" lon="13.5092531"><ele>912.0</ele><time>2026-05-02T14:09:09.616Z</time></trkpt><trkpt lat="42.0976884" lon="13.5091626"><ele>912.0</ele><time>2026-05-02T14:09:10.615Z</time></trkpt><trkpt lat="42.0977126" lon="13.5090622"><ele>912.0</ele><time>2026-05-02T14:09:11.615Z</time></trkpt><trkpt lat="42.0977374" lon="13.5089556"><ele>912.0</ele><time>2026-05-02T14:09:12.615Z</time></trkpt><trkpt lat="42.0977585" lon="13.5088449"><ele>912.0</ele><time>2026-05-02T14:09:13.615Z</time></trkpt><trkpt lat="42.0977789" lon="13.5087288"><ele>912.0</ele><time>2026-05-02T14:09:14.615Z</time></trkpt><trkpt lat="42.0977969" lon="13.5086041"><ele>912.0</ele><time>2026-05-02T14:09:15.615Z</time></trkpt><trkpt lat="42.097807" lon="13.5084767"><ele>912.0</ele><time>2026-05-02T14:09:16.616Z</time></trkpt><trkpt lat="42.0978122" lon="13.5083523"><ele>912.0</ele><time>2026-05-02T14:09:17.615Z</time></trkpt><trkpt lat="42.097817" lon="13.5082272"><ele>912.0</ele><time>2026-05-02T14:09:18.616Z</time></trkpt><trkpt lat="42.097828" lon="13.5081002"><ele>912.0</ele><time>2026-05-02T14:09:19.616Z</time></trkpt><trkpt lat="42.0978467" lon="13.5079731"><ele>912.0</ele><time>2026-05-02T14:09:20.616Z</time></trkpt><trkpt lat="42.0978693" lon="13.507853"><ele>912.0</ele><time>2026-05-02T14:09:21.615Z</time></trkpt><trkpt lat="42.0978897" lon="13.5077426"><ele>912.1428571428571</ele><time>2026-05-02T14:09:22.615Z</time></trkpt><trkpt lat="42.0979086" lon="13.507639"><ele>912.2857142857142</ele><time>2026-05-02T14:09:23.616Z</time></trkpt><trkpt lat="42.0979308" lon="13.507532"><ele>912.4285714285713</ele><time>2026-05-02T14:09:24.615Z</time></trkpt><trkpt lat="42.097959" lon="13.5074387"><ele>912.5714285714284</ele><time>2026-05-02T14:09:25.615Z</time></trkpt><trkpt lat="42.0979935" lon="13.5073616"><ele>912.7142857142857</ele><time>2026-05-02T14:09:26.615Z</time></trkpt><trkpt lat="42.0980376" lon="13.5072973"><ele>912.8571428571427</ele><time>2026-05-02T14:09:27.615Z</time></trkpt><trkpt lat="42.0980888" lon="13.5072367"><ele>912.9999999999999</ele><time>2026-05-02T14:09:28.615Z</time></trkpt><trkpt lat="42.0981457" lon="13.5071825"><ele>912.9999999999999</ele><time>2026-05-02T14:09:29.616Z</time></trkpt><trkpt lat="42.0982047" lon="13.507121"><ele>913.0</ele><time>2026-05-02T14:09:30.615Z</time></trkpt><trkpt lat="42.0982655" lon="13.5070551"><ele>913.0</ele><time>2026-05-02T14:09:31.615Z</time></trkpt><trkpt lat="42.0983256" lon="13.5069837"><ele>913.0</ele><time>2026-05-02T14:09:32.615Z</time></trkpt><trkpt lat="42.0983777" lon="13.5069143"><ele>912.9999999999999</ele><time>2026-05-02T14:09:33.616Z</time></trkpt><trkpt lat="42.0984237" lon="13.5068504"><ele>913.0</ele><time>2026-05-02T14:09:34.616Z</time></trkpt><trkpt lat="42.0984996" lon="13.5067282"><ele>913.3333333333333</ele><time>2026-05-02T14:09:36.616Z</time></trkpt><trkpt lat="42.0985592" lon="13.5065882"><ele>913.6666666666666</ele><time>2026-05-02T14:09:38.615Z</time></trkpt><trkpt lat="42.0985802" lon="13.5065071"><ele>914.0</ele><time>2026-05-02T14:09:39.616Z</time></trkpt><trkpt lat="42.0986007" lon="13.506408"><ele>914.3333333333333</ele><time>2026-05-02T14:09:40.615Z</time></trkpt><trkpt lat="42.0986245" lon="13.506309"><ele>914.6666666666666</ele><time>2026-05-02T14:09:41.616Z</time></trkpt><trkpt lat="42.0986496" lon="13.506208"><ele>915.0</ele><time>2026-05-02T14:09:42.616Z</time></trkpt><trkpt lat="42.0986795" lon="13.506106"><ele>915.0</ele><time>2026-05-02T14:09:43.615Z</time></trkpt><trkpt lat="42.0987095" lon="13.5060048"><ele>915.0</ele><time>2026-05-02T14:09:44.615Z</time></trkpt><trkpt lat="42.0987308" lon="13.5059133"><ele>915.0</ele><time>2026-05-02T14:09:45.616Z</time></trkpt><trkpt lat="42.0987751" lon="13.5057566"><ele>915.0</ele><time>2026-05-02T14:09:47.615Z</time></trkpt><trkpt lat="42.0988101" lon="13.5056092"><ele>915.0</ele><time>2026-05-02T14:09:49.615Z</time></trkpt><trkpt lat="42.0988619" lon="13.5054779"><ele>915.6666666666666</ele><time>2026-05-02T14:09:51.616Z</time></trkpt><trkpt lat="42.0989388" lon="13.5053558"><ele>916.3333333333333</ele><time>2026-05-02T14:09:53.616Z</time></trkpt><trkpt lat="42.0989817" lon="13.5052852"><ele>917.0</ele><time>2026-05-02T14:09:54.616Z</time></trkpt><trkpt lat="42.0990286" lon="13.5052156"><ele>917.6666666666666</ele><time>2026-05-02T14:09:55.615Z</time></trkpt><trkpt lat="42.0990776" lon="13.5051481"><ele>918.3333333333333</ele><time>2026-05-02T14:09:56.615Z</time></trkpt><trkpt lat="42.0991219" lon="13.5050869"><ele>919.0</ele><time>2026-05-02T14:09:57.615Z</time></trkpt><trkpt lat="42.0991754" lon="13.5050279"><ele>920.1666666666666</ele><time>2026-05-02T14:09:58.615Z</time></trkpt><trkpt lat="42.099224" lon="13.5049723"><ele>921.3333333333333</ele><time>2026-05-02T14:09:59.615Z</time></trkpt><trkpt lat="42.0993089" lon="13.504869"><ele>922.5</ele><time>2026-05-02T14:10:01.615Z</time></trkpt><trkpt lat="42.099385" lon="13.5047522"><ele>923.6666666666667</ele><time>2026-05-02T14:10:03.615Z</time></trkpt><trkpt lat="42.099425" lon="13.5046798"><ele>924.8333333333334</ele><time>2026-05-02T14:10:04.615Z</time></trkpt><trkpt lat="42.0994654" lon="13.5045986"><ele>926.0</ele><time>2026-05-02T14:10:05.616Z</time></trkpt><trkpt lat="42.0995071" lon="13.5045168"><ele>926.8333333333334</ele><time>2026-05-02T14:10:06.615Z</time></trkpt><trkpt lat="42.0995484" lon="13.5044294"><ele>927.6666666666667</ele><time>2026-05-02T14:10:07.616Z</time></trkpt><trkpt lat="42.0995898" lon="13.5043435"><ele>928.5</ele><time>2026-05-02T14:10:08.615Z</time></trkpt><trkpt lat="42.0996326" lon="13.5042569"><ele>929.3333333333333</ele><time>2026-05-02T14:10:09.615Z</time></trkpt><trkpt lat="42.0996752" lon="13.5041683"><ele>930.1666666666666</ele><time>2026-05-02T14:10:10.615Z</time></trkpt><trkpt lat="42.0997154" lon="13.5040813"><ele>931.0</ele><time>2026-05-02T14:10:11.616Z</time></trkpt><trkpt lat="42.0997527" lon="13.503996"><ele>930.9999999999999</ele><time>2026-05-02T14:10:12.615Z</time></trkpt><trkpt lat="42.0997918" lon="13.503911"><ele>931.0</ele><time>2026-05-02T14:10:13.615Z</time></trkpt><trkpt lat="42.0998342" lon="13.5038195"><ele>931.0</ele><time>2026-05-02T14:10:14.615Z</time></trkpt><trkpt lat="42.0998758" lon="13.5037245"><ele>931.0</ele><time>2026-05-02T14:10:15.615Z</time></trkpt><trkpt lat="42.0999181" lon="13.5036288"><ele>930.9999999999999</ele><time>2026-05-02T14:10:16.616Z</time></trkpt><trkpt lat="42.099961" lon="13.5035337"><ele>931.0</ele><time>2026-05-02T14:10:17.615Z</time></trkpt><trkpt lat="42.1000042" lon="13.5034341"><ele>931.3333333333333</ele><time>2026-05-02T14:10:18.615Z</time></trkpt><trkpt lat="42.1000461" lon="13.5033352"><ele>931.6666666666666</ele><time>2026-05-02T14:10:19.616Z</time></trkpt><trkpt lat="42.1000913" lon="13.5032378"><ele>932.0</ele><time>2026-05-02T14:10:20.615Z</time></trkpt><trkpt lat="42.100135" lon="13.5031403"><ele>932.3333333333333</ele><time>2026-05-02T14:10:21.615Z</time></trkpt><trkpt lat="42.1001805" lon="13.5030416"><ele>932.6666666666666</ele><time>2026-05-02T14:10:22.616Z</time></trkpt><trkpt lat="42.1002284" lon="13.5029489"><ele>933.0</ele><time>2026-05-02T14:10:23.616Z</time></trkpt><trkpt lat="42.1002743" lon="13.502855"><ele>934.4285714285713</ele><time>2026-05-02T14:10:24.615Z</time></trkpt><trkpt lat="42.1003189" lon="13.5027693"><ele>935.8571428571428</ele><time>2026-05-02T14:10:25.615Z</time></trkpt><trkpt lat="42.1003632" lon="13.5026879"><ele>937.2857142857142</ele><time>2026-05-02T14:10:26.615Z</time></trkpt><trkpt lat="42.1004065" lon="13.5026071"><ele>938.7142857142858</ele><time>2026-05-02T14:10:27.615Z</time></trkpt><trkpt lat="42.100452" lon="13.502529"><ele>940.1428571428572</ele><time>2026-05-02T14:10:28.615Z</time></trkpt><trkpt lat="42.1004984" lon="13.5024513"><ele>941.5714285714287</ele><time>2026-05-02T14:10:29.615Z</time></trkpt><trkpt lat="42.100544" lon="13.5023756"><ele>943.0</ele><time>2026-05-02T14:10:30.615Z</time></trkpt><trkpt lat="42.1005916" lon="13.5023009"><ele>943.0</ele><time>2026-05-02T14:10:31.615Z</time></trkpt><trkpt lat="42.1006408" lon="13.5022295"><ele>943.0000000000001</ele><time>2026-05-02T14:10:32.616Z</time></trkpt><trkpt lat="42.1006919" lon="13.5021589"><ele>943.0</ele><time>2026-05-02T14:10:33.615Z</time></trkpt><trkpt lat="42.1007446" lon="13.5020889"><ele>943.0</ele><time>2026-05-02T14:10:34.615Z</time></trkpt><trkpt lat="42.1007976" lon="13.5020235"><ele>943.0000000000001</ele><time>2026-05-02T14:10:35.615Z</time></trkpt><trkpt lat="42.1008516" lon="13.5019609"><ele>943.0</ele><time>2026-05-02T14:10:36.615Z</time></trkpt><trkpt lat="42.1009083" lon="13.5019002"><ele>943.0</ele><time>2026-05-02T14:10:37.615Z</time></trkpt><trkpt lat="42.100966" lon="13.5018413"><ele>944.0</ele><time>2026-05-02T14:10:38.615Z</time></trkpt><trkpt lat="42.10102" lon="13.5017811"><ele>945.0</ele><time>2026-05-02T14:10:39.615Z</time></trkpt><trkpt lat="42.1010697" lon="13.5017193"><ele>946.0</ele><time>2026-05-02T14:10:40.616Z</time></trkpt><trkpt lat="42.1011423" lon="13.5016185"><ele>947.0</ele><time>2026-05-02T14:10:42.615Z</time></trkpt><trkpt lat="42.1011975" lon="13.5015216"><ele>948.0</ele><time>2026-05-02T14:10:44.616Z</time></trkpt><trkpt lat="42.1012663" lon="13.501383"><ele>948.0</ele><time>2026-05-02T14:10:46.615Z</time></trkpt><trkpt lat="42.1013095" lon="13.5013126"><ele>948.0</ele><time>2026-05-02T14:10:47.615Z</time></trkpt><trkpt lat="42.1013824" lon="13.501192"><ele>948.0</ele><time>2026-05-02T14:10:49.616Z</time></trkpt><trkpt lat="42.1014309" lon="13.5011066"><ele>948.0</ele><time>2026-05-02T14:10:51.615Z</time></trkpt><trkpt lat="42.1014996" lon="13.5011074"><ele>948.0</ele><time>2026-05-02T14:10:54.615Z</time></trkpt><trkpt lat="42.1015423" lon="13.5011795"><ele>948.0</ele><time>2026-05-02T14:10:56.615Z</time></trkpt><trkpt lat="42.1015695" lon="13.5013352"><ele>949.25</ele><time>2026-05-02T14:10:58.616Z</time></trkpt><trkpt lat="42.1016061" lon="13.5014842"><ele>950.5</ele><time>2026-05-02T14:10:59.615Z</time></trkpt><trkpt lat="42.1016404" lon="13.5016317"><ele>951.75</ele><time>2026-05-02T14:11:00.616Z</time></trkpt><trkpt lat="42.101677" lon="13.5017742"><ele>953.0</ele><time>2026-05-02T14:11:01.615Z</time></trkpt><trkpt lat="42.101714" lon="13.5019134"><ele>953.0</ele><time>2026-05-02T14:11:02.616Z</time></trkpt><trkpt lat="42.1017483" lon="13.5020469"><ele>953.0</ele><time>2026-05-02T14:11:03.615Z</time></trkpt><trkpt lat="42.1017855" lon="13.502178"><ele>953.0</ele><time>2026-05-02T14:11:04.615Z</time></trkpt><trkpt lat="42.101825" lon="13.5023094"><ele>953.0</ele><time>2026-05-02T14:11:05.616Z</time></trkpt><trkpt lat="42.1018613" lon="13.5024428"><ele>953.0</ele><time>2026-05-02T14:11:06.616Z</time></trkpt><trkpt lat="42.1018956" lon="13.5025658"><ele>951.6666666666667</ele><time>2026-05-02T14:11:07.615Z</time></trkpt><trkpt lat="42.1019343" lon="13.5026666"><ele>950.3333333333334</ele><time>2026-05-02T14:11:08.615Z</time></trkpt><trkpt lat="42.1019867" lon="13.5027531"><ele>949.0</ele><time>2026-05-02T14:11:09.616Z</time></trkpt><trkpt lat="42.1020469" lon="13.5028415"><ele>947.6666666666667</ele><time>2026-05-02T14:11:10.616Z</time></trkpt><trkpt lat="42.102107" lon="13.5029318"><ele>946.3333333333334</ele><time>2026-05-02T14:11:11.615Z</time></trkpt><trkpt lat="42.1021544" lon="13.5030166"><ele>945.0</ele><time>2026-05-02T14:11:12.615Z</time></trkpt><trkpt lat="42.1021833" lon="13.5031363"><ele>944.0</ele><time>2026-05-02T14:11:14.616Z</time></trkpt><trkpt lat="42.1021617" lon="13.5032989"><ele>943.0</ele><time>2026-05-02T14:11:16.615Z</time></trkpt><trkpt lat="42.1021237" lon="13.5033993"><ele>942.0</ele><time>2026-05-02T14:11:17.616Z</time></trkpt><trkpt lat="42.1020759" lon="13.5035261"><ele>941.0</ele><time>2026-05-02T14:11:18.616Z</time></trkpt><trkpt lat="42.1020272" lon="13.5036554"><ele>940.0</ele><time>2026-05-02T14:11:19.615Z</time></trkpt><trkpt lat="42.1019778" lon="13.5037796"><ele>939.0</ele><time>2026-05-02T14:11:20.616Z</time></trkpt><trkpt lat="42.1019266" lon="13.5038973"><ele>938.0</ele><time>2026-05-02T14:11:21.616Z</time></trkpt><trkpt lat="42.1018731" lon="13.5040146"><ele>937.0</ele><time>2026-05-02T14:11:22.616Z</time></trkpt><trkpt lat="42.1018183" lon="13.504138"><ele>936.0</ele><time>2026-05-02T14:11:23.615Z</time></trkpt><trkpt lat="42.1017622" lon="13.5042625"><ele>935.0</ele><time>2026-05-02T14:11:24.615Z</time></trkpt><trkpt lat="42.1017062" lon="13.5043914"><ele>935.0</ele><time>2026-05-02T14:11:25.615Z</time></trkpt><trkpt lat="42.1016479" lon="13.5045223"><ele>935.0</ele><time>2026-05-02T14:11:26.615Z</time></trkpt><trkpt lat="42.1015904" lon="13.504652"><ele>935.0</ele><time>2026-05-02T14:11:27.615Z</time></trkpt><trkpt lat="42.1015335" lon="13.5047807"><ele>935.0</ele><time>2026-05-02T14:11:28.616Z</time></trkpt><trkpt lat="42.1014789" lon="13.5049132"><ele>935.0</ele><time>2026-05-02T14:11:29.615Z</time></trkpt><trkpt lat="42.101429" lon="13.5050548"><ele>953.0</ele><time>2026-05-02T14:11:30.615Z</time></trkpt><trkpt lat="42.1016404" lon="13.5016317"><ele>953.0</ele><time>2026-05-02T14:11:00.616Z</time></trkpt><trkpt lat="42.101677" lon="13.5017742"><ele>953.0</ele><time>2026-05-02T14:11:01.615Z</time></trkpt><trkpt lat="42.101714" lon="13.5019134"><ele>953.0</ele><time>2026-05-02T14:11:02.616Z</time></trkpt><trkpt lat="42.1017483" lon="13.5020469"><ele>953.0</ele><time>2026-05-02T14:11:03.615Z</time></trkpt><trkpt lat="42.1017855" lon="13.502178"><ele>953.0</ele><time>2026-05-02T14:11:04.615Z</time></trkpt><trkpt lat="42.101825" lon="13.5023094"><ele>951.4</ele><time>2026-05-02T14:11:05.616Z</time></trkpt><trkpt lat="42.1018613" lon="13.5024428"><ele>949.8</ele><time>2026-05-02T14:11:06.616Z</time></trkpt><trkpt lat="42.1018956" lon="13.5025658"><ele>948.2</ele><time>2026-05-02T14:11:07.615Z</time></trkpt><trkpt lat="42.1019343" lon="13.5026666"><ele>946.6</ele><time>2026-05-02T14:11:08.615Z</time></trkpt><trkpt lat="42.1019867" lon="13.5027531"><ele>945.0</ele><time>2026-05-02T14:11:09.616Z</time></trkpt><trkpt lat="42.1020469" lon="13.5028415"><ele>944.0</ele><time>2026-05-02T14:11:10.616Z</time></trkpt><trkpt lat="42.102107" lon="13.5029318"><ele>943.0</ele><time>2026-05-02T14:11:11.615Z</time></trkpt><trkpt lat="42.1021544" lon="13.5030166"><ele>942.0</ele><time>2026-05-02T14:11:12.615Z</time></trkpt><trkpt lat="42.1021833" lon="13.5031363"><ele>941.0</ele><time>2026-05-02T14:11:14.616Z</time></trkpt><trkpt lat="42.1021617" lon="13.5032989"><ele>940.0</ele><time>2026-05-02T14:11:16.615Z</time></trkpt><trkpt lat="42.1021237" lon="13.5033993"><ele>940.0</ele><time>2026-05-02T14:11:17.616Z</time></trkpt><trkpt lat="42.1020759" lon="13.5035261"><ele>940.0</ele><time>2026-05-02T14:11:18.616Z</time></trkpt><trkpt lat="42.1020272" lon="13.5036554"><ele>940.0</ele><time>2026-05-02T14:11:19.615Z</time></trkpt><trkpt lat="42.1019778" lon="13.5037796"><ele>940.0</ele><time>2026-05-02T14:11:20.616Z</time></trkpt><trkpt lat="42.1019266" lon="13.5038973"><ele>940.0</ele><time>2026-05-02T14:11:21.616Z</time></trkpt><trkpt lat="42.1018731" lon="13.5040146"><ele>939.0</ele><time>2026-05-02T14:11:22.616Z</time></trkpt><trkpt lat="42.1018183" lon="13.504138"><ele>938.0</ele><time>2026-05-02T14:11:23.615Z</time></trkpt><trkpt lat="42.1017622" lon="13.5042625"><ele>937.0</ele><time>2026-05-02T14:11:24.615Z</time></trkpt><trkpt lat="42.1017062" lon="13.5043914"><ele>936.0</ele><time>2026-05-02T14:11:25.615Z</time></trkpt><trkpt lat="42.1016479" lon="13.5045223"><ele>935.0</ele><time>2026-05-02T14:11:26.615Z</time></trkpt><trkpt lat="42.1015904" lon="13.504652"><ele>934.0</ele><time>2026-05-02T14:11:27.615Z</time></trkpt><trkpt lat="42.1015335" lon="13.5047807"><ele>933.0</ele><time>2026-05-02T14:11:28.616Z</time></trkpt><trkpt lat="42.1014789" lon="13.5049132"><ele>932.0</ele><time>2026-05-02T14:11:29.615Z</time></trkpt><trkpt lat="42.101429" lon="13.5050548"><ele>931.0</ele><time>2026-05-02T14:11:30.615Z</time></trkpt><trkpt lat="42.1013896" lon="13.5052123"><ele>931.0</ele><time>2026-05-02T14:11:31.615Z</time></trkpt><trkpt lat="42.1013612" lon="13.5053829"><ele>931.0</ele><time>2026-05-02T14:11:32.616Z</time></trkpt><trkpt lat="42.1013323" lon="13.505559"><ele>931.0</ele><time>2026-05-02T14:11:33.615Z</time></trkpt><trkpt lat="42.1012973" lon="13.5057427"><ele>931.0</ele><time>2026-05-02T14:11:34.616Z</time></trkpt><trkpt lat="42.1012601" lon="13.5059332"><ele>931.0</ele><time>2026-05-02T14:11:35.615Z</time></trkpt><trkpt lat="42.1012269" lon="13.5061301"><ele>931.0</ele><time>2026-05-02T14:11:36.615Z</time></trkpt><trkpt lat="42.1012004" lon="13.5063305"><ele>931.0</ele><time>2026-05-02T14:11:37.616Z</time></trkpt><trkpt lat="42.1011815" lon="13.5065271"><ele>931.0</ele><time>2026-05-02T14:11:38.615Z</time></trkpt><trkpt lat="42.1011638" lon="13.5067112"><ele>931.0</ele><time>2026-05-02T14:11:39.615Z</time></trkpt><trkpt lat="42.1011534" lon="13.5068832"><ele>931.0</ele><time>2026-05-02T14:11:40.615Z</time></trkpt><trkpt lat="42.1011496" lon="13.5070466"><ele>931.0</ele><time>2026-05-02T14:11:41.615Z</time></trkpt><trkpt lat="42.1011592" lon="13.5072097"><ele>931.0</ele><time>2026-05-02T14:11:42.615Z</time></trkpt><trkpt lat="42.1011803" lon="13.507362"><ele>932.5999999999999</ele><time>2026-05-02T14:11:43.615Z</time></trkpt><trkpt lat="42.1011885" lon="13.5075058"><ele>934.1999999999999</ele><time>2026-05-02T14:11:44.615Z</time></trkpt><trkpt lat="42.101179" lon="13.5076513"><ele>935.8000000000001</ele><time>2026-05-02T14:11:45.616Z</time></trkpt><trkpt lat="42.1011599" lon="13.5078021"><ele>937.4000000000001</ele><time>2026-05-02T14:11:46.616Z</time></trkpt><trkpt lat="42.1011329" lon="13.5079588"><ele>939.0</ele><time>2026-05-02T14:11:47.615Z</time></trkpt><trkpt lat="42.1011057" lon="13.508117"><ele>940.4000000000001</ele><time>2026-05-02T14:11:48.616Z</time></trkpt><trkpt lat="42.1010808" lon="13.5082648"><ele>941.8000000000001</ele><time>2026-05-02T14:11:49.615Z</time></trkpt><trkpt lat="42.1010663" lon="13.5084011"><ele>943.1999999999999</ele><time>2026-05-02T14:11:50.616Z</time></trkpt><trkpt lat="42.1010478" lon="13.5085438"><ele>944.5999999999999</ele><time>2026-05-02T14:11:51.616Z</time></trkpt><trkpt lat="42.1010289" lon="13.5086908"><ele>946.0</ele><time>2026-05-02T14:11:52.615Z</time></trkpt><trkpt lat="42.1010111" lon="13.5088346"><ele>948.0</ele><time>2026-05-02T14:11:53.615Z</time></trkpt><trkpt lat="42.1009861" lon="13.5089654"><ele>949.9999999999999</ele><time>2026-05-02T14:11:54.616Z</time></trkpt><trkpt lat="42.1009494" lon="13.5090899"><ele>951.9999999999999</ele><time>2026-05-02T14:11:55.615Z</time></trkpt><trkpt lat="42.1009028" lon="13.509209"><ele>954.0</ele><time>2026-05-02T14:11:56.615Z</time></trkpt><trkpt lat="42.1008545" lon="13.5093176"><ele>956.0</ele><time>2026-05-02T14:11:57.615Z</time></trkpt><trkpt lat="42.1008026" lon="13.5094072"><ele>956.0000000000001</ele><time>2026-05-02T14:11:58.615Z</time></trkpt><trkpt lat="42.1007604" lon="13.5094797"><ele>956.0</ele><time>2026-05-02T14:11:59.615Z</time></trkpt><trkpt lat="42.1007229" lon="13.5095762"><ele>956.0</ele><time>2026-05-02T14:12:01.615Z</time></trkpt><trkpt lat="42.1007383" lon="13.509664"><ele>956.0</ele><time>2026-05-02T14:12:04.615Z</time></trkpt><trkpt lat="42.1008116" lon="13.50963"><ele>956.0000000000001</ele><time>2026-05-02T14:12:07.615Z</time></trkpt><trkpt lat="42.1008514" lon="13.509501"><ele>956.0</ele><time>2026-05-02T14:12:09.615Z</time></trkpt><trkpt lat="42.1008961" lon="13.5094267"><ele>956.0</ele><time>2026-05-02T14:12:10.615Z</time></trkpt><trkpt lat="42.1009484" lon="13.5093381"><ele>955.9999999999999</ele><time>2026-05-02T14:12:11.616Z</time></trkpt><trkpt lat="42.1010032" lon="13.5092437"><ele>955.9999999999999</ele><time>2026-05-02T14:12:12.615Z</time></trkpt><trkpt lat="42.1010651" lon="13.509145"><ele>956.0</ele><time>2026-05-02T14:12:13.615Z</time></trkpt><trkpt lat="42.1011359" lon="13.5090473"><ele>956.0</ele><time>2026-05-02T14:12:14.615Z</time></trkpt><trkpt lat="42.1012127" lon="13.5089501"><ele>956.0</ele><time>2026-05-02T14:12:15.616Z</time></trkpt><trkpt lat="42.1012939" lon="13.5088475"><ele>956.0</ele><time>2026-05-02T14:12:16.615Z</time></trkpt><trkpt lat="42.1013808" lon="13.5087402"><ele>956.0</ele><time>2026-05-02T14:12:17.615Z</time></trkpt><trkpt lat="42.1014708" lon="13.5086309"><ele>956.0</ele><time>2026-05-02T14:12:18.615Z</time></trkpt><trkpt lat="42.1015615" lon="13.5085159"><ele>955.25</ele><time>2026-05-02T14:12:19.615Z</time></trkpt><trkpt lat="42.1016494" lon="13.5083998"><ele>954.5</ele><time>2026-05-02T14:12:20.615Z</time></trkpt><trkpt lat="42.1017376" lon="13.5082881"><ele>953.75</ele><time>2026-05-02T14:12:21.616Z</time></trkpt><trkpt lat="42.1018254" lon="13.5081761"><ele>953.0</ele><time>2026-05-02T14:12:22.615Z</time></trkpt><trkpt lat="42.101914" lon="13.5080642"><ele>953.0</ele><time>2026-05-02T14:12:23.616Z</time></trkpt><trkpt lat="42.1020033" lon="13.507947"><ele>953.0</ele><time>2026-05-02T14:12:24.615Z</time></trkpt><trkpt lat="42.1020912" lon="13.5078221"><ele>953.0</ele><time>2026-05-02T14:12:25.615Z</time></trkpt><trkpt lat="42.1021745" lon="13.5076859"><ele>953.0</ele><time>2026-05-02T14:12:26.615Z</time></trkpt><trkpt lat="42.1022548" lon="13.5075397"><ele>951.5</ele><time>2026-05-02T14:12:27.615Z</time></trkpt><trkpt lat="42.1023362" lon="13.507382"><ele>950.0</ele><time>2026-05-02T14:12:28.616Z</time></trkpt><trkpt lat="42.102412" lon="13.5072141"><ele>948.5</ele><time>2026-05-02T14:12:29.616Z</time></trkpt><trkpt lat="42.1024833" lon="13.5070377"><ele>947.0</ele><time>2026-05-02T14:12:30.615Z</time></trkpt><trkpt lat="42.1025545" lon="13.5068554"><ele>951.0</ele><time>2026-05-02T14:12:31.615Z</time></trkpt><trkpt lat="42.1026252" lon="13.5066741"><ele>955.0</ele><time>2026-05-02T14:12:32.615Z</time></trkpt><trkpt lat="42.1026935" lon="13.5064857"><ele>959.0</ele><time>2026-05-02T14:12:33.615Z</time></trkpt><trkpt lat="42.1027552" lon="13.506277"><ele>956.3333333333334</ele><time>2026-05-02T14:12:34.615Z</time></trkpt><trkpt lat="42.1028122" lon="13.5060662"><ele>953.6666666666667</ele><time>2026-05-02T14:12:35.616Z</time></trkpt><trkpt lat="42.10287" lon="13.5058546"><ele>951.0</ele><time>2026-05-02T14:12:36.615Z</time></trkpt><trkpt lat="42.1029314" lon="13.5056457"><ele>951.0</ele><time>2026-05-02T14:12:37.615Z</time></trkpt><trkpt lat="42.1029964" lon="13.5054416"><ele>951.0</ele><time>2026-05-02T14:12:38.616Z</time></trkpt><trkpt lat="42.1030683" lon="13.5052529"><ele>951.0</ele><time>2026-05-02T14:12:39.615Z</time></trkpt><trkpt lat="42.1031574" lon="13.5050937"><ele>955.0</ele><time>2026-05-02T14:12:40.615Z</time></trkpt><trkpt lat="42.1032669" lon="13.5049651"><ele>959.0</ele><time>2026-05-02T14:12:41.615Z</time></trkpt><trkpt lat="42.103391" lon="13.504868"><ele>963.0</ele><time>2026-05-02T14:12:42.615Z</time></trkpt><trkpt lat="42.1035247" lon="13.5047881"><ele>967.0</ele><time>2026-05-02T14:12:43.615Z</time></trkpt><trkpt lat="42.1036605" lon="13.5047024"><ele>967.0</ele><time>2026-05-02T14:12:44.616Z</time></trkpt><trkpt lat="42.1037951" lon="13.5046088"><ele>967.0</ele><time>2026-05-02T14:12:45.616Z</time></trkpt><trkpt lat="42.1039263" lon="13.5045"><ele>967.0</ele><time>2026-05-02T14:12:46.615Z</time></trkpt><trkpt lat="42.1040526" lon="13.5043788"><ele>968.3333333333333</ele><time>2026-05-02T14:12:47.615Z</time></trkpt><trkpt lat="42.1041756" lon="13.504242"><ele>969.6666666666667</ele><time>2026-05-02T14:12:48.615Z</time></trkpt><trkpt lat="42.1042927" lon="13.5040751"><ele>971.0</ele><time>2026-05-02T14:12:49.615Z</time></trkpt><trkpt lat="42.1043989" lon="13.50389"><ele>970.0</ele><time>2026-05-02T14:12:50.615Z</time></trkpt><trkpt lat="42.1044958" lon="13.5037015"><ele>969.0</ele><time>2026-05-02T14:12:51.615Z</time></trkpt><trkpt lat="42.1045855" lon="13.5035168"><ele>968.0</ele><time>2026-05-02T14:12:52.615Z</time></trkpt><trkpt lat="42.1046648" lon="13.5033446"><ele>968.0</ele><time>2026-05-02T14:12:53.616Z</time></trkpt><trkpt lat="42.1047338" lon="13.5031825"><ele>968.0</ele><time>2026-05-02T14:12:54.615Z</time></trkpt><trkpt lat="42.1047935" lon="13.5030253"><ele>968.0</ele><time>2026-05-02T14:12:55.616Z</time></trkpt><trkpt lat="42.10485" lon="13.502857"><ele>968.0</ele><time>2026-05-02T14:12:56.615Z</time></trkpt><trkpt lat="42.1049007" lon="13.5026806"><ele>973.6666666666667</ele><time>2026-05-02T14:12:57.616Z</time></trkpt><trkpt lat="42.10495" lon="13.5024907"><ele>979.3333333333333</ele><time>2026-05-02T14:12:58.615Z</time></trkpt><trkpt lat="42.1050049" lon="13.5022851"><ele>985.0</ele><time>2026-05-02T14:12:59.616Z</time></trkpt><trkpt lat="42.1050712" lon="13.5020625"><ele>985.0</ele><time>2026-05-02T14:13:00.615Z</time></trkpt><trkpt lat="42.1051433" lon="13.5018405"><ele>985.0</ele><time>2026-05-02T14:13:01.616Z</time></trkpt><trkpt lat="42.1052069" lon="13.5016165"><ele>985.0</ele><time>2026-05-02T14:13:02.616Z</time></trkpt><trkpt lat="42.1052575" lon="13.5013905"><ele>984.6666666666666</ele><time>2026-05-02T14:13:03.616Z</time></trkpt><trkpt lat="42.1053111" lon="13.5011691"><ele>984.3333333333333</ele><time>2026-05-02T14:13:04.615Z</time></trkpt><trkpt lat="42.1053519" lon="13.5009389"><ele>984.0</ele><time>2026-05-02T14:13:05.616Z</time></trkpt><trkpt lat="42.1053789" lon="13.5007266"><ele>984.0</ele><time>2026-05-02T14:13:06.615Z</time></trkpt><trkpt lat="42.1053995" lon="13.5005298"><ele>984.0</ele><time>2026-05-02T14:13:07.615Z</time></trkpt><trkpt lat="42.1054151" lon="13.5003429"><ele>984.0</ele><time>2026-05-02T14:13:08.615Z</time></trkpt><trkpt lat="42.1054139" lon="13.5001542"><ele>984.0</ele><time>2026-05-02T14:13:09.615Z</time></trkpt><trkpt lat="42.1053887" lon="13.4999648"><ele>986.0</ele><time>2026-05-02T14:13:10.615Z</time></trkpt><trkpt lat="42.1053403" lon="13.499789"><ele>988.0</ele><time>2026-05-02T14:13:11.615Z</time></trkpt><trkpt lat="42.1052646" lon="13.499629"><ele>990.0</ele><time>2026-05-02T14:13:12.615Z</time></trkpt><trkpt lat="42.1051631" lon="13.4994786"><ele>992.0</ele><time>2026-05-02T14:13:13.616Z</time></trkpt><trkpt lat="42.1050511" lon="13.4993413"><ele>992.0</ele><time>2026-05-02T14:13:14.616Z</time></trkpt><trkpt lat="42.1049352" lon="13.4992113"><ele>992.0</ele><time>2026-05-02T14:13:15.616Z</time></trkpt><trkpt lat="42.1048274" lon="13.4990796"><ele>992.0</ele><time>2026-05-02T14:13:16.615Z</time></trkpt><trkpt lat="42.1047296" lon="13.4989382"><ele>992.0</ele><time>2026-05-02T14:13:17.615Z</time></trkpt><trkpt lat="42.1046459" lon="13.4987806"><ele>993.5</ele><time>2026-05-02T14:13:18.615Z</time></trkpt><trkpt lat="42.104586" lon="13.4986102"><ele>995.0</ele><time>2026-05-02T14:13:19.615Z</time></trkpt><trkpt lat="42.1045478" lon="13.4984267"><ele>996.5</ele><time>2026-05-02T14:13:20.615Z</time></trkpt><trkpt lat="42.1045386" lon="13.4982378"><ele>998.0</ele><time>2026-05-02T14:13:21.616Z</time></trkpt><trkpt lat="42.1045627" lon="13.4980589"><ele>997.0</ele><time>2026-05-02T14:13:22.615Z</time></trkpt><trkpt lat="42.1046219" lon="13.4979043"><ele>996.0</ele><time>2026-05-02T14:13:23.615Z</time></trkpt><trkpt lat="42.1047072" lon="13.497767"><ele>995.0</ele><time>2026-05-02T14:13:24.615Z</time></trkpt><trkpt lat="42.1048131" lon="13.4976449"><ele>994.0</ele><time>2026-05-02T14:13:25.616Z</time></trkpt><trkpt lat="42.104939" lon="13.4975318"><ele>998.3333333333333</ele><time>2026-05-02T14:13:26.615Z</time></trkpt><trkpt lat="42.1050795" lon="13.4974118"><ele>1002.6666666666667</ele><time>2026-05-02T14:13:27.615Z</time></trkpt><trkpt lat="42.1052298" lon="13.4972849"><ele>1007.0</ele><time>2026-05-02T14:13:28.615Z</time></trkpt><trkpt lat="42.1053787" lon="13.4971599"><ele>1008.0</ele><time>2026-05-02T14:13:29.616Z</time></trkpt><trkpt lat="42.1055293" lon="13.4970315"><ele>1009.0</ele><time>2026-05-02T14:13:30.615Z</time></trkpt><trkpt lat="42.1056819" lon="13.4969064"><ele>1010.0</ele><time>2026-05-02T14:13:31.615Z</time></trkpt><trkpt lat="42.1058331" lon="13.4967858"><ele>1010.0</ele><time>2026-05-02T14:13:32.615Z</time></trkpt><trkpt lat="42.105984" lon="13.4966634"><ele>1010.0</ele><time>2026-05-02T14:13:33.615Z</time></trkpt><trkpt lat="42.1061285" lon="13.496536"><ele>1010.0</ele><time>2026-05-02T14:13:34.615Z</time></trkpt><trkpt lat="42.1062642" lon="13.4963971"><ele>1009.0</ele><time>2026-05-02T14:13:35.616Z</time></trkpt><trkpt lat="42.1063908" lon="13.4962325"><ele>1008.0</ele><time>2026-05-02T14:13:36.616Z</time></trkpt><trkpt lat="42.1065006" lon="13.4960469"><ele>1007.0</ele><time>2026-05-02T14:13:37.616Z</time></trkpt><trkpt lat="42.1065865" lon="13.4958357"><ele>1010.6666666666667</ele><time>2026-05-02T14:13:38.616Z</time></trkpt><trkpt lat="42.1066528" lon="13.4956062"><ele>1014.3333333333333</ele><time>2026-05-02T14:13:39.615Z</time></trkpt><trkpt lat="42.1067008" lon="13.4953634"><ele>1018.0</ele><time>2026-05-02T14:13:40.615Z</time></trkpt><trkpt lat="42.1067461" lon="13.4951155"><ele>1018.0</ele><time>2026-05-02T14:13:41.616Z</time></trkpt><trkpt lat="42.1067954" lon="13.4948755"><ele>1018.0</ele><time>2026-05-02T14:13:42.615Z</time></trkpt><trkpt lat="42.1068462" lon="13.4946507"><ele>1018.0</ele><time>2026-05-02T14:13:43.615Z</time></trkpt><trkpt lat="42.1069085" lon="13.4944463"><ele>1017.3333333333333</ele><time>2026-05-02T14:13:44.615Z</time></trkpt><trkpt lat="42.1069967" lon="13.4942533"><ele>1016.6666666666667</ele><time>2026-05-02T14:13:45.616Z</time></trkpt><trkpt lat="42.1071033" lon="13.4940783"><ele>1016.0</ele><time>2026-05-02T14:13:46.616Z</time></trkpt><trkpt lat="42.1072158" lon="13.4939103"><ele>1015.0</ele><time>2026-05-02T14:13:47.615Z</time></trkpt><trkpt lat="42.1073291" lon="13.4937462"><ele>1014.0</ele><time>2026-05-02T14:13:48.615Z</time></trkpt><trkpt lat="42.1074394" lon="13.4935894"><ele>1013.0</ele><time>2026-05-02T14:13:49.616Z</time></trkpt><trkpt lat="42.1075395" lon="13.4934411"><ele>1017.25</ele><time>2026-05-02T14:13:50.615Z</time></trkpt><trkpt lat="42.1076158" lon="13.4932851"><ele>1021.5</ele><time>2026-05-02T14:13:51.615Z</time></trkpt><trkpt lat="42.1076556" lon="13.4931193"><ele>1025.75</ele><time>2026-05-02T14:13:52.615Z</time></trkpt><trkpt lat="42.1076603" lon="13.4929422"><ele>1030.0</ele><time>2026-05-02T14:13:53.615Z</time></trkpt><trkpt lat="42.1076368" lon="13.4927552"><ele>1032.0</ele><time>2026-05-02T14:13:54.615Z</time></trkpt><trkpt lat="42.1076002" lon="13.4925604"><ele>1034.0</ele><time>2026-05-02T14:13:55.616Z</time></trkpt><trkpt lat="42.1075572" lon="13.4923577"><ele>1036.0</ele><time>2026-05-02T14:13:56.615Z</time></trkpt><trkpt lat="42.1075095" lon="13.4921504"><ele>1039.3333333333333</ele><time>2026-05-02T14:13:57.615Z</time></trkpt><trkpt lat="42.1074546" lon="13.4919491"><ele>1042.6666666666667</ele><time>2026-05-02T14:13:58.615Z</time></trkpt><trkpt lat="42.1073796" lon="13.4917657"><ele>1046.0</ele><time>2026-05-02T14:13:59.615Z</time></trkpt><trkpt lat="42.107287" lon="13.4915978"><ele>1041.75</ele><time>2026-05-02T14:14:00.615Z</time></trkpt><trkpt lat="42.1072003" lon="13.4914366"><ele>1037.5</ele><time>2026-05-02T14:14:01.615Z</time></trkpt><trkpt lat="42.1071323" lon="13.4912743"><ele>1033.25</ele><time>2026-05-02T14:14:02.615Z</time></trkpt><trkpt lat="42.1070959" lon="13.4910986"><ele>1029.0</ele><time>2026-05-02T14:14:03.615Z</time></trkpt><trkpt lat="42.1070865" lon="13.4909042"><ele>1029.0</ele><time>2026-05-02T14:14:04.616Z</time></trkpt><trkpt lat="42.1070984" lon="13.4906997"><ele>1029.0</ele><time>2026-05-02T14:14:05.615Z</time></trkpt><trkpt lat="42.1071268" lon="13.4904911"><ele>1029.0</ele><time>2026-05-02T14:14:06.615Z</time></trkpt><trkpt lat="42.1071697" lon="13.4902776"><ele>1030.3333333333333</ele><time>2026-05-02T14:14:07.615Z</time></trkpt><trkpt lat="42.1072181" lon="13.490059"><ele>1031.6666666666665</ele><time>2026-05-02T14:14:08.615Z</time></trkpt><trkpt lat="42.1072613" lon="13.4898353"><ele>1033.0</ele><time>2026-05-02T14:14:09.615Z</time></trkpt><trkpt lat="42.1072988" lon="13.4896136"><ele>1035.0</ele><time>2026-05-02T14:14:10.615Z</time></trkpt><trkpt lat="42.1073377" lon="13.4893991"><ele>1037.0</ele><time>2026-05-02T14:14:11.615Z</time></trkpt><trkpt lat="42.1073819" lon="13.4891956"><ele>1039.0</ele><time>2026-05-02T14:14:12.615Z</time></trkpt><trkpt lat="42.1074409" lon="13.4890076"><ele>1041.6666666666665</ele><time>2026-05-02T14:14:13.615Z</time></trkpt><trkpt lat="42.1075285" lon="13.4888374"><ele>1044.3333333333333</ele><time>2026-05-02T14:14:14.615Z</time></trkpt><trkpt lat="42.1076398" lon="13.4886947"><ele>1047.0</ele><time>2026-05-02T14:14:15.615Z</time></trkpt><trkpt lat="42.1077737" lon="13.4885833"><ele>1047.0</ele><time>2026-05-02T14:14:16.616Z</time></trkpt><trkpt lat="42.1079251" lon="13.4885047"><ele>1047.0</ele><time>2026-05-02T14:14:17.615Z</time></trkpt><trkpt lat="42.108086" lon="13.4884453"><ele>1047.0</ele><time>2026-05-02T14:14:18.615Z</time></trkpt><trkpt lat="42.1082483" lon="13.4883731"><ele>1052.6666666666667</ele><time>2026-05-02T14:14:19.615Z</time></trkpt><trkpt lat="42.108408" lon="13.4882794"><ele>1058.3333333333335</ele><time>2026-05-02T14:14:20.615Z</time></trkpt><trkpt lat="42.1085635" lon="13.4881549"><ele>1064.0</ele><time>2026-05-02T14:14:21.615Z</time></trkpt><trkpt lat="42.1087166" lon="13.4879955"><ele>1061.6666666666667</ele><time>2026-05-02T14:14:22.615Z</time></trkpt><trkpt lat="42.1088594" lon="13.4878011"><ele>1059.3333333333333</ele><time>2026-05-02T14:14:23.616Z</time></trkpt><trkpt lat="42.1089911" lon="13.4875825"><ele>1057.0</ele><time>2026-05-02T14:14:24.615Z</time></trkpt><trkpt lat="42.1091151" lon="13.4873412"><ele>1061.0</ele><time>2026-05-02T14:14:25.615Z</time></trkpt><trkpt lat="42.1092389" lon="13.4870933"><ele>1065.0</ele><time>2026-05-02T14:14:26.615Z</time></trkpt><trkpt lat="42.1093582" lon="13.4868495"><ele>1069.0</ele><time>2026-05-02T14:14:27.615Z</time></trkpt><trkpt lat="42.1094745" lon="13.4866065"><ele>1069.0</ele><time>2026-05-02T14:14:28.616Z</time></trkpt><trkpt lat="42.1095936" lon="13.4863598"><ele>1069.0</ele><time>2026-05-02T14:14:29.615Z</time></trkpt><trkpt lat="42.1097068" lon="13.4861243"><ele>1069.0</ele><time>2026-05-02T14:14:30.615Z</time></trkpt><trkpt lat="42.109817" lon="13.4858952"><ele>1073.0</ele><time>2026-05-02T14:14:31.615Z</time></trkpt><trkpt lat="42.1099128" lon="13.4856727"><ele>1077.0</ele><time>2026-05-02T14:14:32.615Z</time></trkpt><trkpt lat="42.1099754" lon="13.4854412"><ele>1081.0</ele><time>2026-05-02T14:14:33.615Z</time></trkpt><trkpt lat="42.1100033" lon="13.4851902"><ele>1081.6666666666665</ele><time>2026-05-02T14:14:34.615Z</time></trkpt><trkpt lat="42.109998" lon="13.4849265"><ele>1082.3333333333333</ele><time>2026-05-02T14:14:35.615Z</time></trkpt><trkpt lat="42.1099718" lon="13.4846581"><ele>1083.0</ele><time>2026-05-02T14:14:36.616Z</time></trkpt><trkpt lat="42.1099484" lon="13.4843843"><ele>1084.6666666666667</ele><time>2026-05-02T14:14:37.615Z</time></trkpt><trkpt lat="42.1099383" lon="13.4841097"><ele>1086.3333333333335</ele><time>2026-05-02T14:14:38.615Z</time></trkpt><trkpt lat="42.1099559" lon="13.4838458"><ele>1088.0</ele><time>2026-05-02T14:14:39.616Z</time></trkpt><trkpt lat="42.1100027" lon="13.48359"><ele>1088.0</ele><time>2026-05-02T14:14:40.615Z</time></trkpt><trkpt lat="42.1100778" lon="13.4833495"><ele>1088.0</ele><time>2026-05-02T14:14:41.615Z</time></trkpt><trkpt lat="42.1101786" lon="13.4831218"><ele>1088.0</ele><time>2026-05-02T14:14:42.616Z</time></trkpt><trkpt lat="42.1103063" lon="13.4829056"><ele>1085.6666666666667</ele><time>2026-05-02T14:14:43.615Z</time></trkpt><trkpt lat="42.1104595" lon="13.4827021"><ele>1083.3333333333333</ele><time>2026-05-02T14:14:44.615Z</time></trkpt><trkpt lat="42.1106135" lon="13.4825181"><ele>1081.0</ele><time>2026-05-02T14:14:45.615Z</time></trkpt><trkpt lat="42.1107586" lon="13.4823364"><ele>1086.0</ele><time>2026-05-02T14:14:46.615Z</time></trkpt><trkpt lat="42.1108836" lon="13.4821463"><ele>1091.0</ele><time>2026-05-02T14:14:47.615Z</time></trkpt><trkpt lat="42.1109862" lon="13.4819353"><ele>1096.0</ele><time>2026-05-02T14:14:48.616Z</time></trkpt><trkpt lat="42.1110658" lon="13.4816956"><ele>1096.0</ele><time>2026-05-02T14:14:49.615Z</time></trkpt><trkpt lat="42.1111253" lon="13.4814339"><ele>1096.0</ele><time>2026-05-02T14:14:50.615Z</time></trkpt><trkpt lat="42.1111812" lon="13.481159"><ele>1096.0</ele><time>2026-05-02T14:14:51.615Z</time></trkpt><trkpt lat="42.1112346" lon="13.4808788"><ele>1096.3333333333333</ele><time>2026-05-02T14:14:52.615Z</time></trkpt><trkpt lat="42.1112818" lon="13.4806007"><ele>1096.6666666666667</ele><time>2026-05-02T14:14:53.616Z</time></trkpt><trkpt lat="42.1113174" lon="13.4803144"><ele>1097.0</ele><time>2026-05-02T14:14:54.615Z</time></trkpt><trkpt lat="42.1113229" lon="13.4800186"><ele>1098.0</ele><time>2026-05-02T14:14:55.615Z</time></trkpt><trkpt lat="42.1112985" lon="13.4797163"><ele>1099.0</ele><time>2026-05-02T14:14:56.615Z</time></trkpt><trkpt lat="42.1112415" lon="13.4794192"><ele>1102.0</ele><time>2026-05-02T14:14:57.615Z</time></trkpt><trkpt lat="42.1111693" lon="13.4791385"><ele>1105.0</ele><time>2026-05-02T14:14:58.616Z</time></trkpt><trkpt lat="42.1110986" lon="13.4788678"><ele>1108.0</ele><time>2026-05-02T14:14:59.615Z</time></trkpt><trkpt lat="42.1110396" lon="13.4786053"><ele>1108.6666666666665</ele><time>2026-05-02T14:15:00.615Z</time></trkpt><trkpt lat="42.1109985" lon="13.4783423"><ele>1109.3333333333333</ele><time>2026-05-02T14:15:01.615Z</time></trkpt><trkpt lat="42.1109798" lon="13.4780922"><ele>1110.0</ele><time>2026-05-02T14:15:02.615Z</time></trkpt><trkpt lat="42.1109679" lon="13.4778486"><ele>1110.0</ele><time>2026-05-02T14:15:03.616Z</time></trkpt><trkpt lat="42.110942" lon="13.4775903"><ele>1110.0</ele><time>2026-05-02T14:15:04.615Z</time></trkpt><trkpt lat="42.1108868" lon="13.4773384"><ele>1110.0</ele><time>2026-05-02T14:15:05.615Z</time></trkpt><trkpt lat="42.110803" lon="13.4770994"><ele>1105.6666666666667</ele><time>2026-05-02T14:15:06.615Z</time></trkpt><trkpt lat="42.1106965" lon="13.4768724"><ele>1101.3333333333335</ele><time>2026-05-02T14:15:07.615Z</time></trkpt><trkpt lat="42.1105754" lon="13.476656"><ele>1097.0</ele><time>2026-05-02T14:15:08.615Z</time></trkpt><trkpt lat="42.1104519" lon="13.4764407"><ele>1098.6666666666667</ele><time>2026-05-02T14:15:09.615Z</time></trkpt><trkpt lat="42.1103546" lon="13.4762123"><ele>1100.3333333333333</ele><time>2026-05-02T14:15:10.616Z</time></trkpt><trkpt lat="42.1102758" lon="13.4759575"><ele>1102.0</ele><time>2026-05-02T14:15:11.616Z</time></trkpt><trkpt lat="42.1102111" lon="13.4756915"><ele>1101.6666666666665</ele><time>2026-05-02T14:15:12.616Z</time></trkpt><trkpt lat="42.1101655" lon="13.4754288"><ele>1101.3333333333333</ele><time>2026-05-02T14:15:13.615Z</time></trkpt><trkpt lat="42.1101225" lon="13.4751635"><ele>1101.0</ele><time>2026-05-02T14:15:14.615Z</time></trkpt><trkpt lat="42.1100582" lon="13.4748907"><ele>1101.0</ele><time>2026-05-02T14:15:15.615Z</time></trkpt><trkpt lat="42.109967" lon="13.474628"><ele>1101.0</ele><time>2026-05-02T14:15:16.616Z</time></trkpt><trkpt lat="42.1098609" lon="13.4743697"><ele>1101.0</ele><time>2026-05-02T14:15:17.616Z</time></trkpt><trkpt lat="42.1097544" lon="13.4741095"><ele>1098.6666666666667</ele><time>2026-05-02T14:15:18.616Z</time></trkpt><trkpt lat="42.1096456" lon="13.4738488"><ele>1096.3333333333335</ele><time>2026-05-02T14:15:19.615Z</time></trkpt><trkpt lat="42.1095324" lon="13.4735923"><ele>1094.0</ele><time>2026-05-02T14:15:20.616Z</time></trkpt><trkpt lat="42.1094175" lon="13.4733359"><ele>1094.0</ele><time>2026-05-02T14:15:21.615Z</time></trkpt><trkpt lat="42.109314" lon="13.473069"><ele>1094.0</ele><time>2026-05-02T14:15:22.615Z</time></trkpt><trkpt lat="42.1092227" lon="13.4727915"><ele>1094.0</ele><time>2026-05-02T14:15:23.615Z</time></trkpt><trkpt lat="42.1091414" lon="13.4725082"><ele>1092.6666666666667</ele><time>2026-05-02T14:15:24.615Z</time></trkpt><trkpt lat="42.1090675" lon="13.4722227"><ele>1091.3333333333333</ele><time>2026-05-02T14:15:25.615Z</time></trkpt><trkpt lat="42.1089941" lon="13.471942"><ele>1090.0</ele><time>2026-05-02T14:15:26.615Z</time></trkpt><trkpt lat="42.1089244" lon="13.471678"><ele>1090.0</ele><time>2026-05-02T14:15:27.615Z</time></trkpt><trkpt lat="42.1088737" lon="13.4714183"><ele>1090.0</ele><time>2026-05-02T14:15:28.616Z</time></trkpt><trkpt lat="42.1088456" lon="13.471146"><ele>1090.0</ele><time>2026-05-02T14:15:29.615Z</time></trkpt><trkpt lat="42.1088347" lon="13.4708718"><ele>1090.3333333333333</ele><time>2026-05-02T14:15:30.615Z</time></trkpt><trkpt lat="42.1088383" lon="13.4705956"><ele>1090.6666666666667</ele><time>2026-05-02T14:15:31.615Z</time></trkpt><trkpt lat="42.1088362" lon="13.4703145"><ele>1091.0</ele><time>2026-05-02T14:15:32.615Z</time></trkpt><trkpt lat="42.1088133" lon="13.4700311"><ele>1089.6666666666667</ele><time>2026-05-02T14:15:33.615Z</time></trkpt><trkpt lat="42.1087641" lon="13.4697489"><ele>1088.3333333333333</ele><time>2026-05-02T14:15:34.616Z</time></trkpt><trkpt lat="42.1086961" lon="13.4694546"><ele>1087.0</ele><time>2026-05-02T14:15:35.616Z</time></trkpt><trkpt lat="42.1085823" lon="13.4691588"><ele>1086.5</ele><time>2026-05-02T14:15:36.616Z</time></trkpt><trkpt lat="42.1084776" lon="13.4688522"><ele>1086.0</ele><time>2026-05-02T14:15:37.615Z</time></trkpt><trkpt lat="42.1083707" lon="13.4685502"><ele>1084.0</ele><time>2026-05-02T14:15:38.616Z</time></trkpt><trkpt lat="42.1082636" lon="13.4682548"><ele>1082.0</ele><time>2026-05-02T14:15:39.615Z</time></trkpt><trkpt lat="42.1081649" lon="13.4679815"><ele>1084.0</ele><time>2026-05-02T14:15:40.615Z</time></trkpt><trkpt lat="42.1080756" lon="13.4677306"><ele>1086.0</ele><time>2026-05-02T14:15:41.615Z</time></trkpt><trkpt lat="42.1079884" lon="13.4674901"><ele>1088.0</ele><time>2026-05-02T14:15:42.615Z</time></trkpt><trkpt lat="42.1079047" lon="13.4672629"><ele>1089.6666666666667</ele><time>2026-05-02T14:15:43.615Z</time></trkpt><trkpt lat="42.1078241" lon="13.467037"><ele>1091.3333333333333</ele><time>2026-05-02T14:15:44.615Z</time></trkpt><trkpt lat="42.1077452" lon="13.4668208"><ele>1093.0</ele><time>2026-05-02T14:15:45.615Z</time></trkpt><trkpt lat="42.107669" lon="13.4666129"><ele>1093.0</ele><time>2026-05-02T14:15:46.615Z</time></trkpt><trkpt lat="42.1075973" lon="13.4664167"><ele>1093.0</ele><time>2026-05-02T14:15:47.616Z</time></trkpt><trkpt lat="42.1075297" lon="13.4662257"><ele>1093.0</ele><time>2026-05-02T14:15:48.615Z</time></trkpt><trkpt lat="42.1074714" lon="13.4660305"><ele>1093.75</ele><time>2026-05-02T14:15:49.616Z</time></trkpt><trkpt lat="42.1074295" lon="13.4658356"><ele>1094.5</ele><time>2026-05-02T14:15:50.615Z</time></trkpt><trkpt lat="42.1074034" lon="13.4656405"><ele>1095.25</ele><time>2026-05-02T14:15:51.615Z</time></trkpt><trkpt lat="42.1073926" lon="13.4654464"><ele>1096.0</ele><time>2026-05-02T14:15:52.615Z</time></trkpt><trkpt lat="42.1074035" lon="13.4652489"><ele>1098.6666666666665</ele><time>2026-05-02T14:15:53.615Z</time></trkpt><trkpt lat="42.1074361" lon="13.4650516"><ele>1101.3333333333333</ele><time>2026-05-02T14:15:54.615Z</time></trkpt><trkpt lat="42.1074908" lon="13.4648514"><ele>1104.0</ele><time>2026-05-02T14:15:55.615Z</time></trkpt><trkpt lat="42.1075718" lon="13.4646514"><ele>1102.3333333333333</ele><time>2026-05-02T14:15:56.615Z</time></trkpt><trkpt lat="42.107671" lon="13.4644524"><ele>1100.6666666666665</ele><time>2026-05-02T14:15:57.616Z</time></trkpt><trkpt lat="42.1077771" lon="13.4642513"><ele>1099.0</ele><time>2026-05-02T14:15:58.615Z</time></trkpt><trkpt lat="42.1078814" lon="13.4640525"><ele>1099.0</ele><time>2026-05-02T14:15:59.615Z</time></trkpt><trkpt lat="42.10799" lon="13.4638492"><ele>1099.0</ele><time>2026-05-02T14:16:00.616Z</time></trkpt><trkpt lat="42.1080972" lon="13.4636441"><ele>1099.0</ele><time>2026-05-02T14:16:01.615Z</time></trkpt><trkpt lat="42.1082063" lon="13.463438"><ele>1101.6666666666665</ele><time>2026-05-02T14:16:02.616Z</time></trkpt><trkpt lat="42.1083107" lon="13.4632313"><ele>1104.3333333333333</ele><time>2026-05-02T14:16:03.615Z</time></trkpt><trkpt lat="42.108404" lon="13.4630289"><ele>1107.0</ele><time>2026-05-02T14:16:04.615Z</time></trkpt><trkpt lat="42.1084809" lon="13.4628338"><ele>1108.0</ele><time>2026-05-02T14:16:05.615Z</time></trkpt><trkpt lat="42.1085412" lon="13.4626452"><ele>1109.0</ele><time>2026-05-02T14:16:06.615Z</time></trkpt><trkpt lat="42.108592" lon="13.4624687"><ele>1110.0</ele><time>2026-05-02T14:16:07.615Z</time></trkpt><trkpt lat="42.108636" lon="13.4623046"><ele>1111.0</ele><time>2026-05-02T14:16:08.616Z</time></trkpt><trkpt lat="42.1086749" lon="13.4621536"><ele>1111.1666666666665</ele><time>2026-05-02T14:16:09.615Z</time></trkpt><trkpt lat="42.1087104" lon="13.4620173"><ele>1111.3333333333333</ele><time>2026-05-02T14:16:10.615Z</time></trkpt><trkpt lat="42.1087431" lon="13.461899"><ele>1111.5</ele><time>2026-05-02T14:16:11.615Z</time></trkpt><trkpt lat="42.108773" lon="13.4617947"><ele>1111.6666666666667</ele><time>2026-05-02T14:16:12.616Z</time></trkpt><trkpt lat="42.1087968" lon="13.4617153"><ele>1111.8333333333335</ele><time>2026-05-02T14:16:13.615Z</time></trkpt><trkpt lat="42.1088196" lon="13.4616299"><ele>1112.0</ele><time>2026-05-02T14:16:15.615Z</time></trkpt><trkpt lat="42.1087503" lon="13.4616289"><ele>1112.0</ele><time>2026-05-02T14:16:31.616Z</time></trkpt><trkpt lat="42.1087072" lon="13.4615573"><ele>1112.0</ele><time>2026-05-02T14:16:34.615Z</time></trkpt><trkpt lat="42.1087071" lon="13.4614587"><ele>1112.0</ele><time>2026-05-02T14:16:36.616Z</time></trkpt><trkpt lat="42.1087002" lon="13.4613468"><ele>1112.0</ele><time>2026-05-02T14:16:38.615Z</time></trkpt><trkpt lat="42.1086753" lon="13.4612364"><ele>1112.0</ele><time>2026-05-02T14:16:40.616Z</time></trkpt><trkpt lat="42.1086342" lon="13.4611146"><ele>1112.0</ele><time>2026-05-02T14:16:42.615Z</time></trkpt><trkpt lat="42.108602" lon="13.4609723"><ele>1110.6</ele><time>2026-05-02T14:16:44.615Z</time></trkpt><trkpt lat="42.1085788" lon="13.4608095"><ele>1109.2</ele><time>2026-05-02T14:16:46.616Z</time></trkpt><trkpt lat="42.1085654" lon="13.4607252"><ele>1107.8</ele><time>2026-05-02T14:16:47.615Z</time></trkpt><trkpt lat="42.1085397" lon="13.4605591"><ele>1106.4</ele><time>2026-05-02T14:16:49.615Z</time></trkpt><trkpt lat="42.1085211" lon="13.4604752"><ele>1105.0</ele><time>2026-05-02T14:16:50.616Z</time></trkpt><trkpt lat="42.1084695" lon="13.4603268"><ele>1102.6</ele><time>2026-05-02T14:16:52.616Z</time></trkpt><trkpt lat="42.1084295" lon="13.4602029"><ele>1100.2</ele><time>2026-05-02T14:16:54.616Z</time></trkpt><trkpt lat="42.1084459" lon="13.4600796"><ele>1097.8</ele><time>2026-05-02T14:16:56.616Z</time></trkpt><trkpt lat="42.1085059" lon="13.4599721"><ele>1095.4</ele><time>2026-05-02T14:16:58.615Z</time></trkpt><trkpt lat="42.108561" lon="13.4598624"><ele>1093.0</ele><time>2026-05-02T14:17:00.615Z</time></trkpt><trkpt lat="42.1085712" lon="13.4597386"><ele>1090.25</ele><time>2026-05-02T14:17:02.616Z</time></trkpt><trkpt lat="42.1085488" lon="13.4596069"><ele>1087.5</ele><time>2026-05-02T14:17:04.615Z</time></trkpt><trkpt lat="42.1085298" lon="13.4594591"><ele>1084.75</ele><time>2026-05-02T14:17:06.616Z</time></trkpt><trkpt lat="42.1085159" lon="13.4593011"><ele>1082.0</ele><time>2026-05-02T14:17:08.615Z</time></trkpt><trkpt lat="42.1085057" lon="13.4591352"><ele>1082.0</ele><time>2026-05-02T14:17:10.616Z</time></trkpt><trkpt lat="42.1085014" lon="13.4589702"><ele>1082.0</ele><time>2026-05-02T14:17:12.615Z</time></trkpt><trkpt lat="42.1085055" lon="13.4588175"><ele>1082.0</ele><time>2026-05-02T14:17:14.616Z</time></trkpt><trkpt lat="42.1085207" lon="13.4586905"><ele>1082.0</ele><time>2026-05-02T14:17:16.615Z</time></trkpt><trkpt lat="42.1085331" lon="13.4585604"><ele>1082.0</ele><time>2026-05-02T14:17:18.615Z</time></trkpt><trkpt lat="42.1085421" lon="13.4584452"><ele>1080.2</ele><time>2026-05-02T14:17:20.615Z</time></trkpt><trkpt lat="42.1085494" lon="13.4583235"><ele>1078.4</ele><time>2026-05-02T14:17:22.615Z</time></trkpt><trkpt lat="42.1085532" lon="13.45819"><ele>1076.6</ele><time>2026-05-02T14:17:24.615Z</time></trkpt><trkpt lat="42.1085546" lon="13.4580701"><ele>1074.8</ele><time>2026-05-02T14:17:26.616Z</time></trkpt><trkpt lat="42.1085654" lon="13.4579257"><ele>1073.0</ele><time>2026-05-02T14:17:28.616Z</time></trkpt><trkpt lat="42.1086027" lon="13.4577751"><ele>1071.2</ele><time>2026-05-02T14:17:30.616Z</time></trkpt><trkpt lat="42.1086246" lon="13.4576953"><ele>1069.4</ele><time>2026-05-02T14:17:31.615Z</time></trkpt><trkpt lat="42.1086514" lon="13.4575371"><ele>1067.6000000000001</ele><time>2026-05-02T14:17:33.615Z</time></trkpt><trkpt lat="42.1086478" lon="13.4573652"><ele>1065.8</ele><time>2026-05-02T14:17:35.616Z</time></trkpt><trkpt lat="42.1086457" lon="13.4572735"><ele>1064.0</ele><time>2026-05-02T14:17:36.615Z</time></trkpt><trkpt lat="42.1086448" lon="13.4571743"><ele>1062.5714285714287</ele><time>2026-05-02T14:17:37.616Z</time></trkpt><trkpt lat="42.1086457" lon="13.4570762"><ele>1061.142857142857</ele><time>2026-05-02T14:17:38.615Z</time></trkpt><trkpt lat="42.1086482" lon="13.4569828"><ele>1059.7142857142858</ele><time>2026-05-02T14:17:39.614Z</time></trkpt><trkpt lat="42.1086503" lon="13.4568937"><ele>1058.2857142857142</ele><time>2026-05-02T14:17:40.615Z</time></trkpt><trkpt lat="42.1086543" lon="13.4567993"><ele>1056.857142857143</ele><time>2026-05-02T14:17:41.615Z</time></trkpt><trkpt lat="42.1086605" lon="13.4567051"><ele>1055.4285714285716</ele><time>2026-05-02T14:17:42.616Z</time></trkpt><trkpt lat="42.1086614" lon="13.4566112"><ele>1054.0</ele><time>2026-05-02T14:17:43.615Z</time></trkpt><trkpt lat="42.1086563" lon="13.4565149"><ele>1054.0</ele><time>2026-05-02T14:17:44.616Z</time></trkpt><trkpt lat="42.1086485" lon="13.4564191"><ele>1054.0</ele><time>2026-05-02T14:17:45.615Z</time></trkpt><trkpt lat="42.1086418" lon="13.4563287"><ele>1054.0</ele><time>2026-05-02T14:17:46.615Z</time></trkpt><trkpt lat="42.1086333" lon="13.4561816"><ele>1054.0</ele><time>2026-05-02T14:17:48.615Z</time></trkpt><trkpt lat="42.108589" lon="13.4560309"><ele>1054.0</ele><time>2026-05-02T14:17:50.616Z</time></trkpt><trkpt lat="42.1085407" lon="13.4558785"><ele>1052.8333333333333</ele><time>2026-05-02T14:17:52.615Z</time></trkpt><trkpt lat="42.108499" lon="13.4557187"><ele>1051.6666666666665</ele><time>2026-05-02T14:17:54.615Z</time></trkpt><trkpt lat="42.1084874" lon="13.4556317"><ele>1050.5</ele><time>2026-05-02T14:17:55.615Z</time></trkpt><trkpt lat="42.1084789" lon="13.4555412"><ele>1049.3333333333333</ele><time>2026-05-02T14:17:56.615Z</time></trkpt><trkpt lat="42.1084692" lon="13.4554528"><ele>1048.1666666666667</ele><time>2026-05-02T14:17:57.615Z</time></trkpt><trkpt lat="42.1084419" lon="13.4552987"><ele>1047.0</ele><time>2026-05-02T14:17:59.615Z</time></trkpt><trkpt lat="42.1084134" lon="13.4551586"><ele>1046.0</ele><time>2026-05-02T14:18:01.616Z</time></trkpt><trkpt lat="42.1083928" lon="13.4549915"><ele>1045.0</ele><time>2026-05-02T14:18:03.615Z</time></trkpt><trkpt lat="42.1083726" lon="13.4549045"><ele>1044.0</ele><time>2026-05-02T14:18:04.615Z</time></trkpt><trkpt lat="42.1083507" lon="13.4548201"><ele>1043.0</ele><time>2026-05-02T14:18:05.616Z</time></trkpt><trkpt lat="42.1083343" lon="13.4547349"><ele>1042.0</ele><time>2026-05-02T14:18:06.616Z</time></trkpt><trkpt lat="42.1083227" lon="13.4546419"><ele>1041.0</ele><time>2026-05-02T14:18:07.615Z</time></trkpt><trkpt lat="42.1083149" lon="13.4545423"><ele>1040.1666666666667</ele><time>2026-05-02T14:18:08.615Z</time></trkpt><trkpt lat="42.1083036" lon="13.4544437"><ele>1039.3333333333333</ele><time>2026-05-02T14:18:09.615Z</time></trkpt><trkpt lat="42.1082878" lon="13.4543417"><ele>1038.5</ele><time>2026-05-02T14:18:10.616Z</time></trkpt><trkpt lat="42.1082738" lon="13.4542361"><ele>1037.6666666666665</ele><time>2026-05-02T14:18:11.615Z</time></trkpt><trkpt lat="42.1082664" lon="13.4541295"><ele>1036.8333333333333</ele><time>2026-05-02T14:18:12.616Z</time></trkpt><trkpt lat="42.1082622" lon="13.4540262"><ele>1036.0</ele><time>2026-05-02T14:18:13.615Z</time></trkpt><trkpt lat="42.108255" lon="13.453914"><ele>1036.0</ele><time>2026-05-02T14:18:14.615Z</time></trkpt><trkpt lat="42.1082499" lon="13.4538053"><ele>1036.0</ele><time>2026-05-02T14:18:15.615Z</time></trkpt><trkpt lat="42.1082414" lon="13.4536961"><ele>1036.0</ele><time>2026-05-02T14:18:16.615Z</time></trkpt><trkpt lat="42.1082314" lon="13.4535875"><ele>1036.0</ele><time>2026-05-02T14:18:17.616Z</time></trkpt><trkpt lat="42.1082198" lon="13.45348"><ele>1036.0</ele><time>2026-05-02T14:18:18.615Z</time></trkpt><trkpt lat="42.1081973" lon="13.4533759"><ele>1036.0</ele><time>2026-05-02T14:18:19.615Z</time></trkpt><trkpt lat="42.1081679" lon="13.453273"><ele>1033.3333333333333</ele><time>2026-05-02T14:18:20.615Z</time></trkpt><trkpt lat="42.1081338" lon="13.4531709"><ele>1030.6666666666665</ele><time>2026-05-02T14:18:21.615Z</time></trkpt><trkpt lat="42.1081017" lon="13.4530702"><ele>1028.0</ele><time>2026-05-02T14:18:22.616Z</time></trkpt><trkpt lat="42.1080788" lon="13.452969"><ele>1025.3333333333333</ele><time>2026-05-02T14:18:23.615Z</time></trkpt><trkpt lat="42.1080646" lon="13.4528596"><ele>1022.6666666666666</ele><time>2026-05-02T14:18:24.615Z</time></trkpt><trkpt lat="42.1080559" lon="13.4527416"><ele>1020.0</ele><time>2026-05-02T14:18:25.616Z</time></trkpt><trkpt lat="42.1080517" lon="13.4526177"><ele>1019.0</ele><time>2026-05-02T14:18:26.615Z</time></trkpt><trkpt lat="42.1080512" lon="13.4524914"><ele>1018.0</ele><time>2026-05-02T14:18:27.616Z</time></trkpt><trkpt lat="42.1080514" lon="13.4523634"><ele>1017.0</ele><time>2026-05-02T14:18:28.615Z</time></trkpt><trkpt lat="42.1080534" lon="13.4522428"><ele>1016.0</ele><time>2026-05-02T14:18:29.616Z</time></trkpt><trkpt lat="42.1080523" lon="13.4521274"><ele>1015.0</ele><time>2026-05-02T14:18:30.615Z</time></trkpt><trkpt lat="42.1080464" lon="13.4520164"><ele>1014.0</ele><time>2026-05-02T14:18:31.616Z</time></trkpt><trkpt lat="42.1080242" lon="13.4519121"><ele>1014.0</ele><time>2026-05-02T14:18:32.616Z</time></trkpt><trkpt lat="42.1079937" lon="13.4518162"><ele>1014.0</ele><time>2026-05-02T14:18:33.616Z</time></trkpt><trkpt lat="42.10797" lon="13.4517079"><ele>1014.0</ele><time>2026-05-02T14:18:34.615Z</time></trkpt><trkpt lat="42.1079583" lon="13.4516061"><ele>1014.0</ele><time>2026-05-02T14:18:35.616Z</time></trkpt><trkpt lat="42.1079515" lon="13.451517"><ele>1014.0</ele><time>2026-05-02T14:18:36.615Z</time></trkpt><trkpt lat="42.1079193" lon="13.451379"><ele>1014.0</ele><time>2026-05-02T14:18:38.615Z</time></trkpt><trkpt lat="42.1078746" lon="13.4512289"><ele>1013.8333333333334</ele><time>2026-05-02T14:18:40.616Z</time></trkpt><trkpt lat="42.107838" lon="13.451134"><ele>1013.6666666666667</ele><time>2026-05-02T14:18:41.615Z</time></trkpt><trkpt lat="42.1078019" lon="13.4510295"><ele>1013.5</ele><time>2026-05-02T14:18:42.615Z</time></trkpt><trkpt lat="42.107758" lon="13.4509115"><ele>1013.3333333333334</ele><time>2026-05-02T14:18:43.615Z</time></trkpt><trkpt lat="42.1077145" lon="13.4508096"><ele>1013.1666666666667</ele><time>2026-05-02T14:18:44.615Z</time></trkpt><trkpt lat="42.1076686" lon="13.4507088"><ele>1013.0</ele><time>2026-05-02T14:18:45.615Z</time></trkpt><trkpt lat="42.1076262" lon="13.4506127"><ele>1013.0000000000001</ele><time>2026-05-02T14:18:46.615Z</time></trkpt><trkpt lat="42.1075797" lon="13.4505173"><ele>1013.0</ele><time>2026-05-02T14:18:47.616Z</time></trkpt><trkpt lat="42.1075375" lon="13.4504202"><ele>1013.0</ele><time>2026-05-02T14:18:48.615Z</time></trkpt><trkpt lat="42.107497" lon="13.4503266"><ele>1013.0</ele><time>2026-05-02T14:18:49.615Z</time></trkpt><trkpt lat="42.1074501" lon="13.4502374"><ele>1013.0000000000001</ele><time>2026-05-02T14:18:50.615Z</time></trkpt><trkpt lat="42.107401" lon="13.4501423"><ele>1013.0</ele><time>2026-05-02T14:18:51.616Z</time></trkpt><trkpt lat="42.1073571" lon="13.4500455"><ele>1011.6666666666667</ele><time>2026-05-02T14:18:52.616Z</time></trkpt><trkpt lat="42.1073138" lon="13.4499485"><ele>1010.3333333333334</ele><time>2026-05-02T14:18:53.615Z</time></trkpt><trkpt lat="42.1072695" lon="13.4498557"><ele>1009.0</ele><time>2026-05-02T14:18:54.615Z</time></trkpt><trkpt lat="42.1072232" lon="13.4497672"><ele>1007.6666666666667</ele><time>2026-05-02T14:18:55.616Z</time></trkpt><trkpt lat="42.1071791" lon="13.449677"><ele>1006.3333333333334</ele><time>2026-05-02T14:18:56.615Z</time></trkpt><trkpt lat="42.1071336" lon="13.4495886"><ele>1005.0</ele><time>2026-05-02T14:18:57.615Z</time></trkpt><trkpt lat="42.1070912" lon="13.4494999"><ele>1004.5</ele><time>2026-05-02T14:18:58.615Z</time></trkpt><trkpt lat="42.1070469" lon="13.4494143"><ele>1004.0</ele><time>2026-05-02T14:18:59.616Z</time></trkpt><trkpt lat="42.1070033" lon="13.4493234"><ele>1003.5</ele><time>2026-05-02T14:19:00.615Z</time></trkpt><trkpt lat="42.1069641" lon="13.4492275"><ele>1003.0</ele><time>2026-05-02T14:19:01.616Z</time></trkpt><trkpt lat="42.10693" lon="13.4491336"><ele>1002.5</ele><time>2026-05-02T14:19:02.616Z</time></trkpt><trkpt lat="42.1068932" lon="13.4490392"><ele>1002.0</ele><time>2026-05-02T14:19:03.616Z</time></trkpt><trkpt lat="42.1068573" lon="13.4489511"><ele>1002.0</ele><time>2026-05-02T14:19:04.615Z</time></trkpt><trkpt lat="42.1068179" lon="13.4488517"><ele>1002.0</ele><time>2026-05-02T14:19:05.615Z</time></trkpt><trkpt lat="42.106781" lon="13.4487628"><ele>1002.0</ele><time>2026-05-02T14:19:06.615Z</time></trkpt><trkpt lat="42.1067424" lon="13.448663"><ele>1002.0</ele><time>2026-05-02T14:19:07.616Z</time></trkpt><trkpt lat="42.1067078" lon="13.4485695"><ele>1002.0</ele><time>2026-05-02T14:19:08.615Z</time></trkpt><trkpt lat="42.1066713" lon="13.4484723"><ele>1002.0</ele><time>2026-05-02T14:19:09.615Z</time></trkpt><trkpt lat="42.1066313" lon="13.4483743"><ele>1001.7142857142858</ele><time>2026-05-02T14:19:10.615Z</time></trkpt><trkpt lat="42.1065933" lon="13.4482862"><ele>1001.4285714285713</ele><time>2026-05-02T14:19:11.615Z</time></trkpt><trkpt lat="42.1065581" lon="13.448204"><ele>1001.1428571428571</ele><time>2026-05-02T14:19:12.615Z</time></trkpt><trkpt lat="42.1065202" lon="13.4481328"><ele>1000.8571428571429</ele><time>2026-05-02T14:19:13.615Z</time></trkpt><trkpt lat="42.1064654" lon="13.4480886"><ele>1000.5714285714287</ele><time>2026-05-02T14:19:14.615Z</time></trkpt><trkpt lat="42.1063846" lon="13.4480652"><ele>1000.2857142857142</ele><time>2026-05-02T14:19:15.615Z</time></trkpt><trkpt lat="42.1063013" lon="13.4480415"><ele>1000.0</ele><time>2026-05-02T14:19:16.615Z</time></trkpt><trkpt lat="42.106222" lon="13.4480183"><ele>998.8</ele><time>2026-05-02T14:19:17.616Z</time></trkpt><trkpt lat="42.1061486" lon="13.447994"><ele>997.6</ele><time>2026-05-02T14:19:18.616Z</time></trkpt><trkpt lat="42.1060839" lon="13.4479669"><ele>996.4000000000001</ele><time>2026-05-02T14:19:19.615Z</time></trkpt><trkpt lat="42.1059893" lon="13.4478972"><ele>995.2</ele><time>2026-05-02T14:19:21.615Z</time></trkpt><trkpt lat="42.1059191" lon="13.4477925"><ele>994.0</ele><time>2026-05-02T14:19:23.615Z</time></trkpt><trkpt lat="42.1058718" lon="13.4476598"><ele>993.6</ele><time>2026-05-02T14:19:25.615Z</time></trkpt><trkpt lat="42.1058237" lon="13.4474988"><ele>993.2</ele><time>2026-05-02T14:19:27.616Z</time></trkpt><trkpt lat="42.1058022" lon="13.4474122"><ele>992.8000000000001</ele><time>2026-05-02T14:19:28.615Z</time></trkpt><trkpt lat="42.1057821" lon="13.447331"><ele>992.4000000000001</ele><time>2026-05-02T14:19:29.615Z</time></trkpt><trkpt lat="42.1057543" lon="13.4471831"><ele>992.0</ele><time>2026-05-02T14:19:31.616Z</time></trkpt><trkpt lat="42.1057303" lon="13.4470682"><ele>990.8</ele><time>2026-05-02T14:19:33.616Z</time></trkpt><trkpt lat="42.1057164" lon="13.4469503"><ele>989.6</ele><time>2026-05-02T14:19:35.615Z</time></trkpt><trkpt lat="42.1057306" lon="13.4468162"><ele>988.3999999999999</ele><time>2026-05-02T14:19:37.616Z</time></trkpt><trkpt lat="42.1057753" lon="13.4466824"><ele>987.1999999999999</ele><time>2026-05-02T14:19:39.615Z</time></trkpt><trkpt lat="42.1058172" lon="13.4465801"><ele>986.0</ele><time>2026-05-02T14:19:41.615Z</time></trkpt><trkpt lat="42.105836" lon="13.4464849"><ele>986.0</ele><time>2026-05-02T14:19:43.615Z</time></trkpt><trkpt lat="42.1058247" lon="13.4463723"><ele>985.9999999999999</ele><time>2026-05-02T14:19:45.615Z</time></trkpt><trkpt lat="42.1057823" lon="13.4462572"><ele>985.9999999999999</ele><time>2026-05-02T14:19:47.615Z</time></trkpt><trkpt lat="42.1057254" lon="13.4461533"><ele>986.0</ele><time>2026-05-02T14:19:49.616Z</time></trkpt><trkpt lat="42.1056663" lon="13.4460474"><ele>986.0</ele><time>2026-05-02T14:19:51.615Z</time></trkpt><trkpt lat="42.105632" lon="13.445943"><ele>984.1999999999999</ele><time>2026-05-02T14:19:53.615Z</time></trkpt><trkpt lat="42.1055941" lon="13.4458488"><ele>982.3999999999999</ele><time>2026-05-02T14:19:55.616Z</time></trkpt><trkpt lat="42.1055404" lon="13.4457262"><ele>980.6</ele><time>2026-05-02T14:19:57.615Z</time></trkpt><trkpt lat="42.1054758" lon="13.4455882"><ele>978.8</ele><time>2026-05-02T14:19:59.615Z</time></trkpt><trkpt lat="42.1054244" lon="13.4454546"><ele>977.0</ele><time>2026-05-02T14:20:01.615Z</time></trkpt><trkpt lat="42.105377" lon="13.4453198"><ele>977.0</ele><time>2026-05-02T14:20:03.615Z</time></trkpt><trkpt lat="42.1053419" lon="13.4452013"><ele>977.0</ele><time>2026-05-02T14:20:05.616Z</time></trkpt><trkpt lat="42.1053114" lon="13.4450946"><ele>977.0</ele><time>2026-05-02T14:20:07.615Z</time></trkpt><trkpt lat="42.1052809" lon="13.4449834"><ele>977.0</ele><time>2026-05-02T14:20:09.616Z</time></trkpt><trkpt lat="42.1052285" lon="13.4448679"><ele>977.0</ele><time>2026-05-02T14:20:11.615Z</time></trkpt><trkpt lat="42.1051712" lon="13.4447141"><ele>976.6666666666667</ele><time>2026-05-02T14:20:13.616Z</time></trkpt><trkpt lat="42.1051391" lon="13.4446261"><ele>976.3333333333334</ele><time>2026-05-02T14:20:14.615Z</time></trkpt><trkpt lat="42.1051041" lon="13.4445328"><ele>976.0</ele><time>2026-05-02T14:20:15.616Z</time></trkpt><trkpt lat="42.1050657" lon="13.4444347"><ele>975.6666666666667</ele><time>2026-05-02T14:20:16.615Z</time></trkpt><trkpt lat="42.1050239" lon="13.4443327"><ele>975.3333333333334</ele><time>2026-05-02T14:20:17.615Z</time></trkpt><trkpt lat="42.1049838" lon="13.444235"><ele>975.0</ele><time>2026-05-02T14:20:18.615Z</time></trkpt><trkpt lat="42.1049481" lon="13.4441435"><ele>975.0</ele><time>2026-05-02T14:20:19.615Z</time></trkpt><trkpt lat="42.104917" lon="13.4440563"><ele>974.9999999999999</ele><time>2026-05-02T14:20:20.615Z</time></trkpt><trkpt lat="42.1048867" lon="13.4439756"><ele>975.0</ele><time>2026-05-02T14:20:21.615Z</time></trkpt><trkpt lat="42.1048478" lon="13.4438961"><ele>975.0</ele><time>2026-05-02T14:20:22.615Z</time></trkpt><trkpt lat="42.1047976" lon="13.4438197"><ele>974.9999999999999</ele><time>2026-05-02T14:20:23.615Z</time></trkpt><trkpt lat="42.1047454" lon="13.4437491"><ele>975.0</ele><time>2026-05-02T14:20:24.616Z</time></trkpt><trkpt lat="42.1047042" lon="13.4436821"><ele>975.0</ele><time>2026-05-02T14:20:25.615Z</time></trkpt><trkpt lat="42.1046693" lon="13.4436075"><ele>974.6666666666666</ele><time>2026-05-02T14:20:26.615Z</time></trkpt><trkpt lat="42.1046373" lon="13.4435166"><ele>974.3333333333333</ele><time>2026-05-02T14:20:27.615Z</time></trkpt><trkpt lat="42.1046094" lon="13.4434116"><ele>974.0</ele><time>2026-05-02T14:20:28.615Z</time></trkpt><trkpt lat="42.1045759" lon="13.443303"><ele>973.6666666666666</ele><time>2026-05-02T14:20:29.616Z</time></trkpt><trkpt lat="42.1045314" lon="13.4431995"><ele>973.3333333333333</ele><time>2026-05-02T14:20:30.616Z</time></trkpt><trkpt lat="42.1044792" lon="13.4430982"><ele>973.0</ele><time>2026-05-02T14:20:31.615Z</time></trkpt><trkpt lat="42.1044209" lon="13.4429986"><ele>972.9999999999999</ele><time>2026-05-02T14:20:32.615Z</time></trkpt><trkpt lat="42.104362" lon="13.442909"><ele>973.0</ele><time>2026-05-02T14:20:33.615Z</time></trkpt><trkpt lat="42.1043038" lon="13.4428211"><ele>973.0</ele><time>2026-05-02T14:20:34.616Z</time></trkpt><trkpt lat="42.1042455" lon="13.4427295"><ele>973.0</ele><time>2026-05-02T14:20:35.615Z</time></trkpt><trkpt lat="42.1041947" lon="13.4426389"><ele>972.9999999999999</ele><time>2026-05-02T14:20:36.615Z</time></trkpt><trkpt lat="42.1041525" lon="13.4425556"><ele>973.0</ele><time>2026-05-02T14:20:37.615Z</time></trkpt><trkpt lat="42.1041127" lon="13.442474"><ele>972.4</ele><time>2026-05-02T14:20:38.615Z</time></trkpt><trkpt lat="42.1040723" lon="13.4423744"><ele>971.8</ele><time>2026-05-02T14:20:39.615Z</time></trkpt><trkpt lat="42.1040275" lon="13.4422509"><ele>971.2</ele><time>2026-05-02T14:20:40.616Z</time></trkpt><trkpt lat="42.1039782" lon="13.4421165"><ele>970.6</ele><time>2026-05-02T14:20:41.615Z</time></trkpt><trkpt lat="42.103928" lon="13.441975"><ele>970.0</ele><time>2026-05-02T14:20:42.615Z</time></trkpt><trkpt lat="42.1038757" lon="13.441836"><ele>970.0</ele><time>2026-05-02T14:20:43.615Z</time></trkpt><trkpt lat="42.1038248" lon="13.4417162"><ele>970.0</ele><time>2026-05-02T14:20:44.615Z</time></trkpt><trkpt lat="42.1037722" lon="13.4416073"><ele>970.0</ele><time>2026-05-02T14:20:45.616Z</time></trkpt><trkpt lat="42.1037098" lon="13.4414898"><ele>970.0</ele><time>2026-05-02T14:20:46.616Z</time></trkpt><trkpt lat="42.1036321" lon="13.4413718"><ele>970.0</ele><time>2026-05-02T14:20:47.615Z</time></trkpt><trkpt lat="42.1035553" lon="13.4412669"><ele>970.6</ele><time>2026-05-02T14:20:48.616Z</time></trkpt><trkpt lat="42.103483" lon="13.441161"><ele>971.2</ele><time>2026-05-02T14:20:49.615Z</time></trkpt><trkpt lat="42.1034123" lon="13.4410517"><ele>971.8</ele><time>2026-05-02T14:20:50.615Z</time></trkpt><trkpt lat="42.1033564" lon="13.4409481"><ele>972.4</ele><time>2026-05-02T14:20:51.615Z</time></trkpt><trkpt lat="42.1033112" lon="13.4408492"><ele>973.0</ele><time>2026-05-02T14:20:52.615Z</time></trkpt><trkpt lat="42.1032763" lon="13.4407598"><ele>972.8333333333333</ele><time>2026-05-02T14:20:53.616Z</time></trkpt><trkpt lat="42.1032427" lon="13.4406785"><ele>972.6666666666666</ele><time>2026-05-02T14:20:54.616Z</time></trkpt><trkpt lat="42.1031982" lon="13.4406047"><ele>972.5</ele><time>2026-05-02T14:20:55.616Z</time></trkpt><trkpt lat="42.1031478" lon="13.440535"><ele>972.3333333333333</ele><time>2026-05-02T14:20:56.615Z</time></trkpt><trkpt lat="42.1030971" lon="13.4404634"><ele>972.1666666666666</ele><time>2026-05-02T14:20:57.615Z</time></trkpt><trkpt lat="42.1030405" lon="13.4403858"><ele>972.0</ele><time>2026-05-02T14:20:58.615Z</time></trkpt><trkpt lat="42.1029692" lon="13.4402961"><ele>972.0</ele><time>2026-05-02T14:20:59.615Z</time></trkpt><trkpt lat="42.1028914" lon="13.4402096"><ele>972.0</ele><time>2026-05-02T14:21:00.615Z</time></trkpt><trkpt lat="42.102807" lon="13.4401427"><ele>972.0</ele><time>2026-05-02T14:21:01.615Z</time></trkpt><trkpt lat="42.1027068" lon="13.4400867"><ele>972.0</ele><time>2026-05-02T14:21:02.616Z</time></trkpt><trkpt lat="42.1026053" lon="13.440038"><ele>972.0</ele><time>2026-05-02T14:21:03.615Z</time></trkpt><trkpt lat="42.1025155" lon="13.4399932"><ele>972.0</ele><time>2026-05-02T14:21:04.615Z</time></trkpt><trkpt lat="42.1024347" lon="13.4399418"><ele>972.0</ele><time>2026-05-02T14:21:05.616Z</time></trkpt><trkpt lat="42.1023533" lon="13.4398675"><ele>972.0</ele><time>2026-05-02T14:21:06.615Z</time></trkpt><trkpt lat="42.1022721" lon="13.4397656"><ele>972.0</ele><time>2026-05-02T14:21:07.615Z</time></trkpt><trkpt lat="42.1021856" lon="13.4396424"><ele>972.0</ele><time>2026-05-02T14:21:08.615Z</time></trkpt><trkpt lat="42.1020977" lon="13.4395106"><ele>973.0</ele><time>2026-05-02T14:21:09.615Z</time></trkpt><trkpt lat="42.1020138" lon="13.4393785"><ele>974.0</ele><time>2026-05-02T14:21:10.615Z</time></trkpt><trkpt lat="42.1019314" lon="13.4392556"><ele>975.0</ele><time>2026-05-02T14:21:11.616Z</time></trkpt><trkpt lat="42.1018459" lon="13.4391381"><ele>976.0</ele><time>2026-05-02T14:21:12.616Z</time></trkpt><trkpt lat="42.1017587" lon="13.4390241"><ele>976.0</ele><time>2026-05-02T14:21:13.616Z</time></trkpt><trkpt lat="42.1016754" lon="13.4389111"><ele>976.0</ele><time>2026-05-02T14:21:14.616Z</time></trkpt><trkpt lat="42.1015918" lon="13.4387935"><ele>976.0</ele><time>2026-05-02T14:21:15.615Z</time></trkpt><trkpt lat="42.1015087" lon="13.438669"><ele>976.0</ele><time>2026-05-02T14:21:16.615Z</time></trkpt><trkpt lat="42.1014256" lon="13.4385332"><ele>975.75</ele><time>2026-05-02T14:21:17.616Z</time></trkpt><trkpt lat="42.1013432" lon="13.4383931"><ele>975.5</ele><time>2026-05-02T14:21:18.615Z</time></trkpt><trkpt lat="42.1012603" lon="13.4382484"><ele>975.25</ele><time>2026-05-02T14:21:19.615Z</time></trkpt><trkpt lat="42.1011765" lon="13.4380998"><ele>975.0</ele><time>2026-05-02T14:21:20.616Z</time></trkpt><trkpt lat="42.1010922" lon="13.437954"><ele>975.0</ele><time>2026-05-02T14:21:21.615Z</time></trkpt><trkpt lat="42.1010082" lon="13.4378124"><ele>975.0</ele><time>2026-05-02T14:21:22.615Z</time></trkpt><trkpt lat="42.1009275" lon="13.437672"><ele>975.0</ele><time>2026-05-02T14:21:23.615Z</time></trkpt><trkpt lat="42.1008547" lon="13.4375455"><ele>975.0</ele><time>2026-05-02T14:21:24.615Z</time></trkpt><trkpt lat="42.100799" lon="13.4374467"><ele>975.0</ele><time>2026-05-02T14:21:25.615Z</time></trkpt><trkpt lat="42.1007604" lon="13.4373728"><ele>975.0</ele><time>2026-05-02T14:21:26.616Z</time></trkpt><trkpt lat="42.1007155" lon="13.4372806"><ele>975.0</ele><time>2026-05-02T14:21:28.615Z</time></trkpt><trkpt lat="42.1006524" lon="13.4371837"><ele>975.0</ele><time>2026-05-02T14:21:30.616Z</time></trkpt><trkpt lat="42.1006079" lon="13.4371159"><ele>975.0</ele><time>2026-05-02T14:21:31.615Z</time></trkpt><trkpt lat="42.1005613" lon="13.4370408"><ele>975.0</ele><time>2026-05-02T14:21:32.615Z</time></trkpt><trkpt lat="42.1005196" lon="13.4369616"><ele>974.4</ele><time>2026-05-02T14:21:33.615Z</time></trkpt><trkpt lat="42.1004793" lon="13.4368758"><ele>973.8</ele><time>2026-05-02T14:21:34.615Z</time></trkpt><trkpt lat="42.1004306" lon="13.4367745"><ele>973.2</ele><time>2026-05-02T14:21:35.616Z</time></trkpt><trkpt lat="42.1003734" lon="13.4366545"><ele>972.6</ele><time>2026-05-02T14:21:36.615Z</time></trkpt><trkpt lat="42.1003161" lon="13.4365398"><ele>972.0</ele><time>2026-05-02T14:21:37.615Z</time></trkpt><trkpt lat="42.1002609" lon="13.4364354"><ele>972.0</ele><time>2026-05-02T14:21:38.616Z</time></trkpt><trkpt lat="42.1002038" lon="13.4363228"><ele>972.0</ele><time>2026-05-02T14:21:39.615Z</time></trkpt><trkpt lat="42.1001494" lon="13.436203"><ele>972.0</ele><time>2026-05-02T14:21:40.615Z</time></trkpt><trkpt lat="42.1001008" lon="13.4360793"><ele>972.0</ele><time>2026-05-02T14:21:41.615Z</time></trkpt><trkpt lat="42.1000535" lon="13.4359543"><ele>972.0</ele><time>2026-05-02T14:21:42.615Z</time></trkpt><trkpt lat="42.1000066" lon="13.4358343"><ele>972.0</ele><time>2026-05-02T14:21:43.615Z</time></trkpt><trkpt lat="42.099961" lon="13.4357193"><ele>972.0</ele><time>2026-05-02T14:21:44.615Z</time></trkpt><trkpt lat="42.0999182" lon="13.435609"><ele>972.0</ele><time>2026-05-02T14:21:45.615Z</time></trkpt><trkpt lat="42.0998814" lon="13.4355063"><ele>972.0</ele><time>2026-05-02T14:21:46.615Z</time></trkpt><trkpt lat="42.0998469" lon="13.4354064"><ele>972.0</ele><time>2026-05-02T14:21:47.615Z</time></trkpt><trkpt lat="42.0998126" lon="13.4353057"><ele>972.0</ele><time>2026-05-02T14:21:48.615Z</time></trkpt><trkpt lat="42.0997809" lon="13.4352139"><ele>972.2857142857142</ele><time>2026-05-02T14:21:49.615Z</time></trkpt><trkpt lat="42.0997533" lon="13.435128"><ele>972.5714285714287</ele><time>2026-05-02T14:21:50.615Z</time></trkpt><trkpt lat="42.0997254" lon="13.4350395"><ele>972.8571428571429</ele><time>2026-05-02T14:21:51.615Z</time></trkpt><trkpt lat="42.0996958" lon="13.4349578"><ele>973.1428571428571</ele><time>2026-05-02T14:21:52.615Z</time></trkpt><trkpt lat="42.0996642" lon="13.4348782"><ele>973.4285714285713</ele><time>2026-05-02T14:21:53.615Z</time></trkpt><trkpt lat="42.0996289" lon="13.4347842"><ele>973.7142857142858</ele><time>2026-05-02T14:21:54.615Z</time></trkpt><trkpt lat="42.0995896" lon="13.4346902"><ele>974.0</ele><time>2026-05-02T14:21:55.616Z</time></trkpt><trkpt lat="42.0995495" lon="13.4346055"><ele>974.2</ele><time>2026-05-02T14:21:56.615Z</time></trkpt><trkpt lat="42.0995152" lon="13.4345294"><ele>974.4000000000001</ele><time>2026-05-02T14:21:57.616Z</time></trkpt><trkpt lat="42.0994637" lon="13.4343932"><ele>974.6</ele><time>2026-05-02T14:21:59.615Z</time></trkpt><trkpt lat="42.0994189" lon="13.4342474"><ele>974.8</ele><time>2026-05-02T14:22:01.616Z</time></trkpt><trkpt lat="42.0993847" lon="13.4341117"><ele>975.0</ele><time>2026-05-02T14:22:03.615Z</time></trkpt><trkpt lat="42.0993688" lon="13.4340058"><ele>975.0</ele><time>2026-05-02T14:22:05.615Z</time></trkpt><trkpt lat="42.0993386" lon="13.4339022"><ele>975.0</ele><time>2026-05-02T14:22:08.616Z</time></trkpt><trkpt lat="42.0992448" lon="13.4337823"><ele>975.0</ele><time>2026-05-02T14:22:10.615Z</time></trkpt><trkpt lat="42.0991707" lon="13.4337211"><ele>975.0</ele><time>2026-05-02T14:22:11.615Z</time></trkpt><trkpt lat="42.0990912" lon="13.4336474"><ele>975.0</ele><time>2026-05-02T14:22:12.615Z</time></trkpt><trkpt lat="42.0990077" lon="13.4335586"><ele>974.25</ele><time>2026-05-02T14:22:13.615Z</time></trkpt><trkpt lat="42.0989192" lon="13.4334573"><ele>973.5</ele><time>2026-05-02T14:22:14.615Z</time></trkpt><trkpt lat="42.0988211" lon="13.4333551"><ele>972.75</ele><time>2026-05-02T14:22:15.615Z</time></trkpt><trkpt lat="42.0987054" lon="13.4332399"><ele>972.0</ele><time>2026-05-02T14:22:16.615Z</time></trkpt><trkpt lat="42.098581" lon="13.4331128"><ele>972.0</ele><time>2026-05-02T14:22:17.616Z</time></trkpt><trkpt lat="42.0984648" lon="13.4329921"><ele>972.0</ele><time>2026-05-02T14:22:18.615Z</time></trkpt><trkpt lat="42.0983572" lon="13.4328828"><ele>972.0</ele><time>2026-05-02T14:22:19.616Z</time></trkpt><trkpt lat="42.0982544" lon="13.4327814"><ele>972.0</ele><time>2026-05-02T14:22:20.615Z</time></trkpt><trkpt lat="42.0981562" lon="13.4326865"><ele>971.4000000000001</ele><time>2026-05-02T14:22:21.616Z</time></trkpt><trkpt lat="42.0980634" lon="13.4325933"><ele>970.8000000000001</ele><time>2026-05-02T14:22:22.615Z</time></trkpt><trkpt lat="42.0979757" lon="13.4324995"><ele>970.2</ele><time>2026-05-02T14:22:23.615Z</time></trkpt><trkpt lat="42.0978915" lon="13.4324066"><ele>969.6</ele><time>2026-05-02T14:22:24.615Z</time></trkpt><trkpt lat="42.0978119" lon="13.4323163"><ele>969.0</ele><time>2026-05-02T14:22:25.615Z</time></trkpt><trkpt lat="42.0977463" lon="13.4322248"><ele>967.6666666666666</ele><time>2026-05-02T14:22:26.615Z</time></trkpt><trkpt lat="42.0976876" lon="13.432131"><ele>966.3333333333333</ele><time>2026-05-02T14:22:27.615Z</time></trkpt><trkpt lat="42.0976293" lon="13.4320389"><ele>965.0</ele><time>2026-05-02T14:22:28.615Z</time></trkpt><trkpt lat="42.0975794" lon="13.4319564"><ele>963.6666666666666</ele><time>2026-05-02T14:22:29.615Z</time></trkpt><trkpt lat="42.0975088" lon="13.4318392"><ele>962.3333333333333</ele><time>2026-05-02T14:22:31.616Z</time></trkpt><trkpt lat="42.0974628" lon="13.4317675"><ele>961.0</ele><time>2026-05-02T14:22:33.616Z</time></trkpt><trkpt lat="42.0974308" lon="13.4316853"><ele>960.9999999999999</ele><time>2026-05-02T14:22:35.615Z</time></trkpt><trkpt lat="42.0973905" lon="13.4316072"><ele>961.0</ele><time>2026-05-02T14:22:38.615Z</time></trkpt><trkpt lat="42.0973864" lon="13.4316978"><ele>961.0</ele><time>2026-05-02T14:22:42.615Z</time></trkpt><trkpt lat="42.0974855" lon="13.431792"><ele>961.0</ele><time>2026-05-02T14:22:44.615Z</time></trkpt><trkpt lat="42.0975379" lon="13.4318625"><ele>960.9999999999999</ele><time>2026-05-02T14:22:45.615Z</time></trkpt><trkpt lat="42.0975896" lon="13.4319427"><ele>961.0</ele><time>2026-05-02T14:22:46.615Z</time></trkpt><trkpt lat="42.0976463" lon="13.432035"><ele>960.9999999999999</ele><time>2026-05-02T14:22:47.615Z</time></trkpt><trkpt lat="42.0977004" lon="13.43212"><ele>961.0</ele><time>2026-05-02T14:22:48.615Z</time></trkpt><trkpt lat="42.0977499" lon="13.4321909"><ele>961.0</ele><time>2026-05-02T14:22:49.615Z</time></trkpt><trkpt lat="42.0978235" lon="13.4322837"><ele>961.0</ele><time>2026-05-02T14:22:51.615Z</time></trkpt><trkpt lat="42.0978777" lon="13.4323298"><ele>960.9999999999999</ele><time>2026-05-02T14:22:53.615Z</time></trkpt><trkpt lat="42.0979456" lon="13.432296"><ele>961.0</ele><time>2026-05-02T14:22:57.615Z</time></trkpt><trkpt lat="42.0980068" lon="13.4322647"><ele>961.3333333333333</ele><time>2026-05-02T14:22:59.616Z</time></trkpt><trkpt lat="42.0981016" lon="13.4323053"><ele>961.6666666666666</ele><time>2026-05-02T14:23:01.615Z</time></trkpt><trkpt lat="42.0981692" lon="13.4323481"><ele>962.0</ele><time>2026-05-02T14:23:02.615Z</time></trkpt><trkpt lat="42.0982373" lon="13.4323937"><ele>962.3333333333333</ele><time>2026-05-02T14:23:03.615Z</time></trkpt><trkpt lat="42.0983053" lon="13.4324375"><ele>962.6666666666666</ele><time>2026-05-02T14:23:04.616Z</time></trkpt><trkpt lat="42.0983717" lon="13.4324848"><ele>963.0</ele><time>2026-05-02T14:23:05.615Z</time></trkpt><trkpt lat="42.0984343" lon="13.4325383"><ele>963.0</ele><time>2026-05-02T14:23:06.615Z</time></trkpt><trkpt lat="42.0984959" lon="13.4325933"><ele>963.0</ele><time>2026-05-02T14:23:07.615Z</time></trkpt><trkpt lat="42.0985582" lon="13.4326499"><ele>963.0</ele><time>2026-05-02T14:23:08.616Z</time></trkpt><trkpt lat="42.0986268" lon="13.4327089"><ele>963.0</ele><time>2026-05-02T14:23:09.615Z</time></trkpt><trkpt lat="42.0986976" lon="13.4327641"><ele>963.0</ele><time>2026-05-02T14:23:10.615Z</time></trkpt><trkpt lat="42.0987722" lon="13.4328183"><ele>963.0</ele><time>2026-05-02T14:23:11.615Z</time></trkpt><trkpt lat="42.0988554" lon="13.4328644"><ele>963.0</ele><time>2026-05-02T14:23:12.615Z</time></trkpt><trkpt lat="42.0989448" lon="13.4329003"><ele>963.0</ele><time>2026-05-02T14:23:13.615Z</time></trkpt><trkpt lat="42.0990319" lon="13.4329259"><ele>963.0</ele><time>2026-05-02T14:23:14.615Z</time></trkpt><trkpt lat="42.0991124" lon="13.4329463"><ele>963.0</ele><time>2026-05-02T14:23:15.615Z</time></trkpt><trkpt lat="42.099186" lon="13.4329712"><ele>963.0</ele><time>2026-05-02T14:23:16.615Z</time></trkpt><trkpt lat="42.0992524" lon="13.4330047"><ele>963.0</ele><time>2026-05-02T14:23:17.615Z</time></trkpt><trkpt lat="42.0993093" lon="13.4330497"><ele>964.0</ele><time>2026-05-02T14:23:18.615Z</time></trkpt><trkpt lat="42.0994123" lon="13.4330879"><ele>965.0</ele><time>2026-05-02T14:23:20.615Z</time></trkpt><trkpt lat="42.0994959" lon="13.4330575"><ele>966.0</ele><time>2026-05-02T14:23:22.615Z</time></trkpt><trkpt lat="42.0995648" lon="13.4330159"><ele>967.0</ele><time>2026-05-02T14:23:24.616Z</time></trkpt><trkpt lat="42.09965" lon="13.432977"><ele>968.0</ele><time>2026-05-02T14:23:26.615Z</time></trkpt><trkpt lat="42.0997157" lon="13.4329415"><ele>969.0</ele><time>2026-05-02T14:23:28.615Z</time></trkpt><trkpt lat="42.0997844" lon="13.432902"><ele>965.8333333333334</ele><time>2026-05-02T14:23:30.615Z</time></trkpt><trkpt lat="42.0998445" lon="13.4328692"><ele>962.6666666666667</ele><time>2026-05-02T14:23:32.616Z</time></trkpt><trkpt lat="42.0999202" lon="13.4328131"><ele>959.5</ele><time>2026-05-02T14:23:35.615Z</time></trkpt><trkpt lat="42.099973" lon="13.4327609"><ele>956.3333333333334</ele><time>2026-05-02T14:23:37.615Z</time></trkpt><trkpt lat="42.1000174" lon="13.4326991"><ele>953.1666666666667</ele><time>2026-05-02T14:23:39.615Z</time></trkpt><trkpt lat="42.1000857" lon="13.4326009"><ele>950.0</ele><time>2026-05-02T14:23:42.616Z</time></trkpt><trkpt lat="42.1001401" lon="13.4325138"><ele>950.0</ele><time>2026-05-02T14:23:44.616Z</time></trkpt><trkpt lat="42.1001589" lon="13.4324284"><ele>950.0000000000001</ele><time>2026-05-02T14:23:46.615Z</time></trkpt><trkpt lat="42.1001775" lon="13.4323465"><ele>950.0</ele><time>2026-05-02T14:23:48.615Z</time></trkpt><trkpt lat="42.1002159" lon="13.4322697"><ele>950.0</ele><time>2026-05-02T14:23:50.615Z</time></trkpt><trkpt lat="42.1002599" lon="13.4321843"><ele>950.0000000000001</ele><time>2026-05-02T14:23:52.616Z</time></trkpt><trkpt lat="42.1002852" lon="13.4321056"><ele>950.0</ele><time>2026-05-02T14:23:55.616Z</time></trkpt><trkpt lat="42.1002264" lon="13.4320716"><ele>950.0</ele><time>2026-05-02T14:24:02.616Z</time></trkpt><trkpt lat="42.1001494" lon="13.4320636"><ele>949.4285714285714</ele><time>2026-05-02T14:24:06.544Z</time></trkpt><trkpt lat="42.1000858" lon="13.4320145"><ele>948.8571428571429</ele><time>2026-05-02T14:24:08.466Z</time></trkpt><trkpt lat="42.1000461" lon="13.4319304"><ele>948.2857142857143</ele><time>2026-05-02T14:24:11.602Z</time></trkpt><trkpt lat="42.0999762" lon="13.4319321"><ele>947.7142857142858</ele><time>2026-05-02T14:24:15.615Z</time></trkpt><trkpt lat="42.0998857" lon="13.4319656"><ele>947.1428571428571</ele><time>2026-05-02T14:24:17.615Z</time></trkpt><trkpt lat="42.0998282" lon="13.4320028"><ele>946.5714285714287</ele><time>2026-05-02T14:24:18.616Z</time></trkpt><trkpt lat="42.0997707" lon="13.4320395"><ele>946.0</ele><time>2026-05-02T14:24:19.615Z</time></trkpt><trkpt lat="42.0996629" lon="13.4320978"><ele>944.5999999999999</ele><time>2026-05-02T14:24:21.615Z</time></trkpt><trkpt lat="42.0995617" lon="13.4321041"><ele>943.1999999999999</ele><time>2026-05-02T14:24:23.615Z</time></trkpt><trkpt lat="42.0994594" lon="13.432091"><ele>941.8000000000001</ele><time>2026-05-02T14:24:25.615Z</time></trkpt><trkpt lat="42.0993659" lon="13.4320359"><ele>940.4000000000001</ele><time>2026-05-02T14:24:27.616Z</time></trkpt><trkpt lat="42.0992491" lon="13.4319756"><ele>939.0</ele><time>2026-05-02T14:24:29.616Z</time></trkpt><trkpt lat="42.0991817" lon="13.4319501"><ele>939.0</ele><time>2026-05-02T14:24:30.615Z</time></trkpt><trkpt lat="42.099119" lon="13.4319107"><ele>939.0</ele><time>2026-05-02T14:24:31.615Z</time></trkpt><trkpt lat="42.0990628" lon="13.4318623"><ele>939.0</ele><time>2026-05-02T14:24:32.616Z</time></trkpt><trkpt lat="42.099008" lon="13.431807"><ele>939.0</ele><time>2026-05-02T14:24:33.614Z</time></trkpt><trkpt lat="42.0989539" lon="13.4317412"><ele>939.0</ele><time>2026-05-02T14:24:34.615Z</time></trkpt><trkpt lat="42.0988949" lon="13.431664"><ele>939.0</ele><time>2026-05-02T14:24:35.614Z</time></trkpt><trkpt lat="42.0988328" lon="13.4315809"><ele>939.0</ele><time>2026-05-02T14:24:36.615Z</time></trkpt><trkpt lat="42.0987739" lon="13.4315003"><ele>938.6666666666666</ele><time>2026-05-02T14:24:37.615Z</time></trkpt><trkpt lat="42.0987126" lon="13.4314189"><ele>938.3333333333333</ele><time>2026-05-02T14:24:38.616Z</time></trkpt><trkpt lat="42.0986518" lon="13.4313387"><ele>938.0</ele><time>2026-05-02T14:24:39.615Z</time></trkpt><trkpt lat="42.098592" lon="13.4312613"><ele>937.6666666666666</ele><time>2026-05-02T14:24:40.616Z</time></trkpt><trkpt lat="42.0985278" lon="13.4311868"><ele>937.3333333333333</ele><time>2026-05-02T14:24:41.615Z</time></trkpt><trkpt lat="42.098466" lon="13.4311168"><ele>937.0</ele><time>2026-05-02T14:24:42.615Z</time></trkpt><trkpt lat="42.0984023" lon="13.4310486"><ele>937.0</ele><time>2026-05-02T14:24:43.615Z</time></trkpt><trkpt lat="42.0983406" lon="13.4309852"><ele>937.0</ele><time>2026-05-02T14:24:44.614Z</time></trkpt><trkpt lat="42.0982892" lon="13.4309229"><ele>937.0</ele><time>2026-05-02T14:24:45.615Z</time></trkpt><trkpt lat="42.0982436" lon="13.4308549"><ele>937.0</ele><time>2026-05-02T14:24:46.615Z</time></trkpt><trkpt lat="42.0982051" lon="13.4307822"><ele>937.0</ele><time>2026-05-02T14:24:47.615Z</time></trkpt><trkpt lat="42.0981632" lon="13.4307048"><ele>937.0</ele><time>2026-05-02T14:24:48.615Z</time></trkpt><trkpt lat="42.098106" lon="13.4306285"><ele>937.0</ele><time>2026-05-02T14:24:49.614Z</time></trkpt><trkpt lat="42.0980513" lon="13.4305535"><ele>937.4999999999999</ele><time>2026-05-02T14:24:50.615Z</time></trkpt><trkpt lat="42.0980037" lon="13.4304792"><ele>938.0</ele><time>2026-05-02T14:24:51.615Z</time></trkpt><trkpt lat="42.0979597" lon="13.4303909"><ele>938.5</ele><time>2026-05-02T14:24:52.615Z</time></trkpt><trkpt lat="42.0979142" lon="13.4302825"><ele>939.0</ele><time>2026-05-02T14:24:53.615Z</time></trkpt><trkpt lat="42.0978615" lon="13.4301763"><ele>939.4999999999999</ele><time>2026-05-02T14:24:54.615Z</time></trkpt><trkpt lat="42.0978092" lon="13.4300715"><ele>940.0</ele><time>2026-05-02T14:24:55.615Z</time></trkpt><trkpt lat="42.0977652" lon="13.429957"><ele>940.0</ele><time>2026-05-02T14:24:56.615Z</time></trkpt><trkpt lat="42.0977258" lon="13.4298377"><ele>940.0</ele><time>2026-05-02T14:24:57.616Z</time></trkpt><trkpt lat="42.0976851" lon="13.4297233"><ele>940.0</ele><time>2026-05-02T14:24:58.615Z</time></trkpt><trkpt lat="42.0976483" lon="13.4296106"><ele>940.0</ele><time>2026-05-02T14:24:59.615Z</time></trkpt><trkpt lat="42.0976167" lon="13.4294934"><ele>940.0</ele><time>2026-05-02T14:25:00.615Z</time></trkpt><trkpt lat="42.0975896" lon="13.4293713"><ele>938.6</ele><time>2026-05-02T14:25:01.616Z</time></trkpt><trkpt lat="42.0975656" lon="13.4292417"><ele>937.2</ele><time>2026-05-02T14:25:02.615Z</time></trkpt><trkpt lat="42.0975381" lon="13.4291067"><ele>935.8</ele><time>2026-05-02T14:25:03.615Z</time></trkpt><trkpt lat="42.0975069" lon="13.4289735"><ele>934.4</ele><time>2026-05-02T14:25:04.615Z</time></trkpt><trkpt lat="42.0974769" lon="13.4288501"><ele>933.0</ele><time>2026-05-02T14:25:05.615Z</time></trkpt><trkpt lat="42.0974478" lon="13.4287287"><ele>934.8333333333334</ele><time>2026-05-02T14:25:06.616Z</time></trkpt><trkpt lat="42.0974152" lon="13.4286092"><ele>936.6666666666667</ele><time>2026-05-02T14:25:07.615Z</time></trkpt><trkpt lat="42.0973813" lon="13.4284924"><ele>938.5</ele><time>2026-05-02T14:25:08.615Z</time></trkpt><trkpt lat="42.0973457" lon="13.4283748"><ele>940.3333333333334</ele><time>2026-05-02T14:25:09.616Z</time></trkpt><trkpt lat="42.0973122" lon="13.4282658"><ele>942.1666666666667</ele><time>2026-05-02T14:25:10.616Z</time></trkpt><trkpt lat="42.097286" lon="13.4281781"><ele>944.0</ele><time>2026-05-02T14:25:11.616Z</time></trkpt><trkpt lat="42.0972476" lon="13.4280153"><ele>942.3333333333334</ele><time>2026-05-02T14:25:13.616Z</time></trkpt><trkpt lat="42.0972277" lon="13.427926"><ele>940.6666666666667</ele><time>2026-05-02T14:25:14.615Z</time></trkpt><trkpt lat="42.0971998" lon="13.4278363"><ele>939.0</ele><time>2026-05-02T14:25:15.616Z</time></trkpt><trkpt lat="42.0971781" lon="13.427748"><ele>937.3333333333333</ele><time>2026-05-02T14:25:16.615Z</time></trkpt><trkpt lat="42.0971676" lon="13.4276038"><ele>935.6666666666666</ele><time>2026-05-02T14:25:18.616Z</time></trkpt><trkpt lat="42.0971489" lon="13.4275165"><ele>934.0</ele><time>2026-05-02T14:25:19.616Z</time></trkpt><trkpt lat="42.0971228" lon="13.4274073"><ele>933.9999999999999</ele><time>2026-05-02T14:25:20.615Z</time></trkpt><trkpt lat="42.0970966" lon="13.427294"><ele>934.0</ele><time>2026-05-02T14:25:21.615Z</time></trkpt><trkpt lat="42.0970763" lon="13.4271884"><ele>934.0</ele><time>2026-05-02T14:25:22.615Z</time></trkpt><trkpt lat="42.0970578" lon="13.4270811"><ele>934.0</ele><time>2026-05-02T14:25:23.615Z</time></trkpt><trkpt lat="42.0970367" lon="13.4269678"><ele>933.9999999999999</ele><time>2026-05-02T14:25:24.615Z</time></trkpt><trkpt lat="42.0970163" lon="13.4268541"><ele>934.0</ele><time>2026-05-02T14:25:25.615Z</time></trkpt><trkpt lat="42.0969982" lon="13.4267469"><ele>932.9999999999999</ele><time>2026-05-02T14:25:26.616Z</time></trkpt><trkpt lat="42.0969861" lon="13.4266435"><ele>932.0</ele><time>2026-05-02T14:25:27.616Z</time></trkpt><trkpt lat="42.0969716" lon="13.4265417"><ele>930.9999999999999</ele><time>2026-05-02T14:25:28.616Z</time></trkpt><trkpt lat="42.0969528" lon="13.4264431"><ele>929.9999999999999</ele><time>2026-05-02T14:25:29.615Z</time></trkpt><trkpt lat="42.096943" lon="13.4263471"><ele>929.0</ele><time>2026-05-02T14:25:30.616Z</time></trkpt><trkpt lat="42.0969361" lon="13.4262553"><ele>927.9999999999999</ele><time>2026-05-02T14:25:31.616Z</time></trkpt><trkpt lat="42.0969172" lon="13.4261616"><ele>926.9999999999999</ele><time>2026-05-02T14:25:32.615Z</time></trkpt><trkpt lat="42.096892" lon="13.4260617"><ele>926.4285714285713</ele><time>2026-05-02T14:25:33.615Z</time></trkpt><trkpt lat="42.096872" lon="13.4259566"><ele>925.8571428571429</ele><time>2026-05-02T14:25:34.615Z</time></trkpt><trkpt lat="42.0968516" lon="13.4258527"><ele>925.2857142857142</ele><time>2026-05-02T14:25:35.615Z</time></trkpt><trkpt lat="42.096835" lon="13.4257554"><ele>924.7142857142857</ele><time>2026-05-02T14:25:36.616Z</time></trkpt><trkpt lat="42.0968221" lon="13.4256613"><ele>924.1428571428571</ele><time>2026-05-02T14:25:37.615Z</time></trkpt><trkpt lat="42.096807" lon="13.4255692"><ele>923.5714285714286</ele><time>2026-05-02T14:25:38.616Z</time></trkpt><trkpt lat="42.0967825" lon="13.425475"><ele>923.0</ele><time>2026-05-02T14:25:39.615Z</time></trkpt><trkpt lat="42.0967501" lon="13.4253714"><ele>922.2</ele><time>2026-05-02T14:25:40.615Z</time></trkpt><trkpt lat="42.0967183" lon="13.4252564"><ele>921.4</ele><time>2026-05-02T14:25:41.616Z</time></trkpt><trkpt lat="42.0966879" lon="13.4251387"><ele>920.6000000000001</ele><time>2026-05-02T14:25:42.616Z</time></trkpt><trkpt lat="42.0966582" lon="13.425023"><ele>919.8000000000001</ele><time>2026-05-02T14:25:43.615Z</time></trkpt><trkpt lat="42.096626" lon="13.4249084"><ele>919.0</ele><time>2026-05-02T14:25:44.616Z</time></trkpt><trkpt lat="42.0965884" lon="13.4247968"><ele>919.4000000000001</ele><time>2026-05-02T14:25:45.615Z</time></trkpt><trkpt lat="42.0965455" lon="13.4246884"><ele>919.8000000000001</ele><time>2026-05-02T14:25:46.615Z</time></trkpt><trkpt lat="42.0964989" lon="13.424578"><ele>920.1999999999999</ele><time>2026-05-02T14:25:47.615Z</time></trkpt><trkpt lat="42.0964502" lon="13.4244639"><ele>920.5999999999999</ele><time>2026-05-02T14:25:48.615Z</time></trkpt><trkpt lat="42.0963993" lon="13.4243534"><ele>921.0</ele><time>2026-05-02T14:25:49.615Z</time></trkpt><trkpt lat="42.0963438" lon="13.4242463"><ele>921.0</ele><time>2026-05-02T14:25:50.616Z</time></trkpt><trkpt lat="42.0962831" lon="13.4241449"><ele>920.9999999999999</ele><time>2026-05-02T14:25:51.615Z</time></trkpt><trkpt lat="42.0962203" lon="13.4240471"><ele>920.9999999999999</ele><time>2026-05-02T14:25:52.615Z</time></trkpt><trkpt lat="42.0961629" lon="13.4239534"><ele>921.0</ele><time>2026-05-02T14:25:53.615Z</time></trkpt><trkpt lat="42.0961101" lon="13.423864"><ele>921.0</ele><time>2026-05-02T14:25:54.615Z</time></trkpt><trkpt lat="42.0960575" lon="13.4237715"><ele>919.6666666666666</ele><time>2026-05-02T14:25:55.615Z</time></trkpt><trkpt lat="42.0960089" lon="13.423677"><ele>918.3333333333333</ele><time>2026-05-02T14:25:56.615Z</time></trkpt><trkpt lat="42.0959626" lon="13.4235793"><ele>917.0</ele><time>2026-05-02T14:25:57.615Z</time></trkpt><trkpt lat="42.0959193" lon="13.4234813"><ele>915.6666666666666</ele><time>2026-05-02T14:25:58.615Z</time></trkpt><trkpt lat="42.0958782" lon="13.4233827"><ele>914.3333333333333</ele><time>2026-05-02T14:25:59.615Z</time></trkpt><trkpt lat="42.0958373" lon="13.4232802"><ele>913.0</ele><time>2026-05-02T14:26:00.616Z</time></trkpt><trkpt lat="42.095799" lon="13.4231744"><ele>912.9999999999999</ele><time>2026-05-02T14:26:01.615Z</time></trkpt><trkpt lat="42.0957654" lon="13.4230699"><ele>913.0</ele><time>2026-05-02T14:26:02.616Z</time></trkpt><trkpt lat="42.0957327" lon="13.4229673"><ele>913.0</ele><time>2026-05-02T14:26:03.616Z</time></trkpt><trkpt lat="42.0956989" lon="13.42287"><ele>913.0</ele><time>2026-05-02T14:26:04.615Z</time></trkpt><trkpt lat="42.0956714" lon="13.4227768"><ele>912.9999999999999</ele><time>2026-05-02T14:26:05.615Z</time></trkpt><trkpt lat="42.0956548" lon="13.42268"><ele>913.0</ele><time>2026-05-02T14:26:06.616Z</time></trkpt><trkpt lat="42.0956424" lon="13.4225746"><ele>914.8</ele><time>2026-05-02T14:26:07.615Z</time></trkpt><trkpt lat="42.0956291" lon="13.4224651"><ele>916.5999999999999</ele><time>2026-05-02T14:26:08.615Z</time></trkpt><trkpt lat="42.0956168" lon="13.4223484"><ele>918.4000000000001</ele><time>2026-05-02T14:26:09.615Z</time></trkpt><trkpt lat="42.0956071" lon="13.4222217"><ele>920.2</ele><time>2026-05-02T14:26:10.615Z</time></trkpt><trkpt lat="42.0955967" lon="13.42209"><ele>922.0</ele><time>2026-05-02T14:26:11.615Z</time></trkpt><trkpt lat="42.095587" lon="13.4219592"><ele>922.0</ele><time>2026-05-02T14:26:12.616Z</time></trkpt><trkpt lat="42.0955797" lon="13.4218282"><ele>922.0</ele><time>2026-05-02T14:26:13.615Z</time></trkpt><trkpt lat="42.0955733" lon="13.4216969"><ele>922.0</ele><time>2026-05-02T14:26:14.616Z</time></trkpt><trkpt lat="42.0955698" lon="13.4215594"><ele>922.0</ele><time>2026-05-02T14:26:15.615Z</time></trkpt><trkpt lat="42.0955651" lon="13.4214214"><ele>922.0</ele><time>2026-05-02T14:26:16.615Z</time></trkpt><trkpt lat="42.0955585" lon="13.4212843"><ele>920.4000000000001</ele><time>2026-05-02T14:26:17.616Z</time></trkpt><trkpt lat="42.0955512" lon="13.4211483"><ele>918.8000000000001</ele><time>2026-05-02T14:26:18.615Z</time></trkpt><trkpt lat="42.0955449" lon="13.4210122"><ele>917.2</ele><time>2026-05-02T14:26:19.616Z</time></trkpt><trkpt lat="42.0955421" lon="13.4208741"><ele>915.6</ele><time>2026-05-02T14:26:20.615Z</time></trkpt><trkpt lat="42.0955422" lon="13.4207421"><ele>914.0</ele><time>2026-05-02T14:26:21.615Z</time></trkpt><trkpt lat="42.0955452" lon="13.4206095"><ele>913.8000000000001</ele><time>2026-05-02T14:26:22.616Z</time></trkpt><trkpt lat="42.0955474" lon="13.4204765"><ele>913.6000000000001</ele><time>2026-05-02T14:26:23.615Z</time></trkpt><trkpt lat="42.0955434" lon="13.4203444"><ele>913.4</ele><time>2026-05-02T14:26:24.615Z</time></trkpt><trkpt lat="42.0955293" lon="13.4202141"><ele>913.2</ele><time>2026-05-02T14:26:25.615Z</time></trkpt><trkpt lat="42.0955107" lon="13.420094"><ele>913.0</ele><time>2026-05-02T14:26:26.615Z</time></trkpt><trkpt lat="42.0954945" lon="13.4199828"><ele>912.9999999999999</ele><time>2026-05-02T14:26:27.615Z</time></trkpt><trkpt lat="42.0954825" lon="13.4198776"><ele>913.0</ele><time>2026-05-02T14:26:28.616Z</time></trkpt><trkpt lat="42.0954777" lon="13.4197759"><ele>912.9999999999999</ele><time>2026-05-02T14:26:29.615Z</time></trkpt><trkpt lat="42.0954788" lon="13.419675"><ele>912.9999999999999</ele><time>2026-05-02T14:26:30.615Z</time></trkpt><trkpt lat="42.0954796" lon="13.4195817"><ele>913.0</ele><time>2026-05-02T14:26:31.616Z</time></trkpt><trkpt lat="42.0954791" lon="13.4194894"><ele>912.9999999999999</ele><time>2026-05-02T14:26:32.616Z</time></trkpt><trkpt lat="42.0954789" lon="13.4193876"><ele>912.9999999999999</ele><time>2026-05-02T14:26:33.615Z</time></trkpt><trkpt lat="42.0954811" lon="13.419272"><ele>912.3333333333333</ele><time>2026-05-02T14:26:34.615Z</time></trkpt><trkpt lat="42.0954828" lon="13.4191405"><ele>911.6666666666666</ele><time>2026-05-02T14:26:35.615Z</time></trkpt><trkpt lat="42.0954825" lon="13.4190113"><ele>911.0</ele><time>2026-05-02T14:26:36.616Z</time></trkpt><trkpt lat="42.0954834" lon="13.4188922"><ele>910.3333333333333</ele><time>2026-05-02T14:26:37.616Z</time></trkpt><trkpt lat="42.0954845" lon="13.4187806"><ele>909.6666666666666</ele><time>2026-05-02T14:26:38.615Z</time></trkpt><trkpt lat="42.0954807" lon="13.4186728"><ele>909.0</ele><time>2026-05-02T14:26:39.615Z</time></trkpt><trkpt lat="42.0954791" lon="13.4185715"><ele>908.1666666666666</ele><time>2026-05-02T14:26:40.615Z</time></trkpt><trkpt lat="42.0954777" lon="13.4184736"><ele>907.3333333333333</ele><time>2026-05-02T14:26:41.616Z</time></trkpt><trkpt lat="42.0954746" lon="13.4183713"><ele>906.5</ele><time>2026-05-02T14:26:42.615Z</time></trkpt><trkpt lat="42.095475" lon="13.4182622"><ele>905.6666666666666</ele><time>2026-05-02T14:26:43.615Z</time></trkpt><trkpt lat="42.0954731" lon="13.418148"><ele>904.8333333333333</ele><time>2026-05-02T14:26:44.615Z</time></trkpt><trkpt lat="42.0954706" lon="13.4180422"><ele>904.0</ele><time>2026-05-02T14:26:45.615Z</time></trkpt><trkpt lat="42.0954697" lon="13.4179422"><ele>903.0</ele><time>2026-05-02T14:26:46.615Z</time></trkpt><trkpt lat="42.0954635" lon="13.4178403"><ele>902.0000000000001</ele><time>2026-05-02T14:26:47.616Z</time></trkpt><trkpt lat="42.0954472" lon="13.4177339"><ele>901.0000000000001</ele><time>2026-05-02T14:26:48.615Z</time></trkpt><trkpt lat="42.0954178" lon="13.417615"><ele>900.0</ele><time>2026-05-02T14:26:49.615Z</time></trkpt><trkpt lat="42.0953823" lon="13.4174854"><ele>899.0</ele><time>2026-05-02T14:26:50.615Z</time></trkpt><trkpt lat="42.0953506" lon="13.4173486"><ele>899.0</ele><time>2026-05-02T14:26:51.615Z</time></trkpt><trkpt lat="42.0953217" lon="13.417203"><ele>899.0000000000001</ele><time>2026-05-02T14:26:52.616Z</time></trkpt><trkpt lat="42.0952976" lon="13.4170659"><ele>899.0000000000001</ele><time>2026-05-02T14:26:53.615Z</time></trkpt><trkpt lat="42.0952775" lon="13.4169411"><ele>899.0</ele><time>2026-05-02T14:26:54.616Z</time></trkpt><trkpt lat="42.0952566" lon="13.416815"><ele>899.0</ele><time>2026-05-02T14:26:55.615Z</time></trkpt><trkpt lat="42.0952376" lon="13.4167037"><ele>898.0000000000001</ele><time>2026-05-02T14:26:56.615Z</time></trkpt><trkpt lat="42.0952193" lon="13.4166141"><ele>897.0</ele><time>2026-05-02T14:26:57.615Z</time></trkpt><trkpt lat="42.0951987" lon="13.4165238"><ele>896.0</ele><time>2026-05-02T14:26:59.616Z</time></trkpt><trkpt lat="42.0952707" lon="13.4164762"><ele>895.0</ele><time>2026-05-02T14:27:03.615Z</time></trkpt><trkpt lat="42.0953682" lon="13.4164431"><ele>894.0000000000001</ele><time>2026-05-02T14:27:05.615Z</time></trkpt><trkpt lat="42.0954268" lon="13.4163831"><ele>893.0</ele><time>2026-05-02T14:27:07.615Z</time></trkpt><trkpt lat="42.0954908" lon="13.4162944"><ele>892.0</ele><time>2026-05-02T14:27:09.616Z</time></trkpt><trkpt lat="42.0955328" lon="13.4162288"><ele>891.0</ele><time>2026-05-02T14:27:10.616Z</time></trkpt><trkpt lat="42.0955995" lon="13.4160736"><ele>890.0</ele><time>2026-05-02T14:27:12.615Z</time></trkpt><trkpt lat="42.095623" lon="13.415985"><ele>889.0</ele><time>2026-05-02T14:27:13.615Z</time></trkpt><trkpt lat="42.0956336" lon="13.4158175"><ele>888.0</ele><time>2026-05-02T14:27:15.615Z</time></trkpt><trkpt lat="42.0956406" lon="13.4157311"><ele>888.0</ele><time>2026-05-02T14:27:16.616Z</time></trkpt><trkpt lat="42.0956616" lon="13.4155681"><ele>888.0</ele><time>2026-05-02T14:27:18.615Z</time></trkpt><trkpt lat="42.0957205" lon="13.4154284"><ele>888.0</ele><time>2026-05-02T14:27:20.616Z</time></trkpt><trkpt lat="42.0957654" lon="13.4153639"><ele>888.0</ele><time>2026-05-02T14:27:21.616Z</time></trkpt><trkpt lat="42.0958163" lon="13.4152945"><ele>888.0</ele><time>2026-05-02T14:27:22.616Z</time></trkpt><trkpt lat="42.0958686" lon="13.4152205"><ele>889.1666666666666</ele><time>2026-05-02T14:27:23.615Z</time></trkpt><trkpt lat="42.0959224" lon="13.4151424"><ele>890.3333333333333</ele><time>2026-05-02T14:27:24.615Z</time></trkpt><trkpt lat="42.0959769" lon="13.4150709"><ele>891.5</ele><time>2026-05-02T14:27:25.616Z</time></trkpt><trkpt lat="42.0960287" lon="13.415009"><ele>892.6666666666666</ele><time>2026-05-02T14:27:26.615Z</time></trkpt><trkpt lat="42.0960817" lon="13.4149548"><ele>893.8333333333333</ele><time>2026-05-02T14:27:27.616Z</time></trkpt><trkpt lat="42.0961341" lon="13.4149056"><ele>895.0</ele><time>2026-05-02T14:27:28.616Z</time></trkpt><trkpt lat="42.0962413" lon="13.4148218"><ele>895.0</ele><time>2026-05-02T14:27:30.615Z</time></trkpt><trkpt lat="42.096344" lon="13.4147455"><ele>895.0</ele><time>2026-05-02T14:27:32.616Z</time></trkpt><trkpt lat="42.096436" lon="13.4146778"><ele>895.0</ele><time>2026-05-02T14:27:34.615Z</time></trkpt><trkpt lat="42.0965187" lon="13.4146203"><ele>895.0</ele><time>2026-05-02T14:27:36.614Z</time></trkpt><trkpt lat="42.0966358" lon="13.4145404"><ele>895.0</ele><time>2026-05-02T14:27:38.615Z</time></trkpt><trkpt lat="42.0967014" lon="13.4144991"><ele>895.5714285714286</ele><time>2026-05-02T14:27:39.615Z</time></trkpt><trkpt lat="42.0967631" lon="13.4144615"><ele>896.1428571428571</ele><time>2026-05-02T14:27:40.615Z</time></trkpt><trkpt lat="42.0968228" lon="13.4144296"><ele>896.7142857142857</ele><time>2026-05-02T14:27:41.615Z</time></trkpt><trkpt lat="42.0968932" lon="13.4143978"><ele>897.2857142857142</ele><time>2026-05-02T14:27:42.616Z</time></trkpt><trkpt lat="42.0969658" lon="13.4143696"><ele>897.8571428571429</ele><time>2026-05-02T14:27:43.615Z</time></trkpt><trkpt lat="42.0970421" lon="13.4143371"><ele>898.4285714285713</ele><time>2026-05-02T14:27:44.615Z</time></trkpt><trkpt lat="42.0971175" lon="13.4143018"><ele>898.9999999999999</ele><time>2026-05-02T14:27:45.616Z</time></trkpt><trkpt lat="42.0971885" lon="13.4142487"><ele>899.0000000000001</ele><time>2026-05-02T14:27:46.615Z</time></trkpt><trkpt lat="42.097255" lon="13.4141817"><ele>899.0</ele><time>2026-05-02T14:27:47.615Z</time></trkpt><trkpt lat="42.0973131" lon="13.4141136"><ele>899.0</ele><time>2026-05-02T14:27:48.615Z</time></trkpt><trkpt lat="42.0973692" lon="13.4140374"><ele>899.0</ele><time>2026-05-02T14:27:49.615Z</time></trkpt><trkpt lat="42.097429" lon="13.4139713"><ele>899.0000000000001</ele><time>2026-05-02T14:27:50.615Z</time></trkpt><trkpt lat="42.0974906" lon="13.4139243"><ele>899.0</ele><time>2026-05-02T14:27:51.615Z</time></trkpt><trkpt lat="42.0975476" lon="13.4138858"><ele>898.5</ele><time>2026-05-02T14:27:52.615Z</time></trkpt><trkpt lat="42.097643" lon="13.4138282"><ele>898.0</ele><time>2026-05-02T14:27:54.616Z</time></trkpt><trkpt lat="42.0977492" lon="13.413789"><ele>897.5</ele><time>2026-05-02T14:27:56.615Z</time></trkpt><trkpt lat="42.0978689" lon="13.4137602"><ele>897.0</ele><time>2026-05-02T14:27:58.615Z</time></trkpt><trkpt lat="42.0979848" lon="13.4137301"><ele>897.0</ele><time>2026-05-02T14:28:00.615Z</time></trkpt><trkpt lat="42.0980807" lon="13.4137184"><ele>897.0</ele><time>2026-05-02T14:28:02.615Z</time></trkpt><trkpt lat="42.0981821" lon="13.4137319"><ele>897.0</ele><time>2026-05-02T14:28:04.616Z</time></trkpt><trkpt lat="42.0982959" lon="13.4137885"><ele>897.0</ele><time>2026-05-02T14:28:06.615Z</time></trkpt><trkpt lat="42.0983627" lon="13.4138232"><ele>897.0</ele><time>2026-05-02T14:28:07.615Z</time></trkpt><trkpt lat="42.0984335" lon="13.4138602"><ele>897.8333333333334</ele><time>2026-05-02T14:28:08.615Z</time></trkpt><trkpt lat="42.0985042" lon="13.4139003"><ele>898.6666666666667</ele><time>2026-05-02T14:28:09.616Z</time></trkpt><trkpt lat="42.0985787" lon="13.4139394"><ele>899.5</ele><time>2026-05-02T14:28:10.616Z</time></trkpt><trkpt lat="42.0986486" lon="13.4139767"><ele>900.3333333333334</ele><time>2026-05-02T14:28:11.615Z</time></trkpt><trkpt lat="42.0987109" lon="13.414017"><ele>901.1666666666667</ele><time>2026-05-02T14:28:12.616Z</time></trkpt><trkpt lat="42.0987685" lon="13.4140542"><ele>902.0</ele><time>2026-05-02T14:28:13.616Z</time></trkpt><trkpt lat="42.0988691" lon="13.4141233"><ele>902.0</ele><time>2026-05-02T14:28:15.616Z</time></trkpt><trkpt lat="42.0989527" lon="13.4141899"><ele>902.0</ele><time>2026-05-02T14:28:17.615Z</time></trkpt><trkpt lat="42.0990401" lon="13.4142886"><ele>902.0</ele><time>2026-05-02T14:28:19.615Z</time></trkpt><trkpt lat="42.0991128" lon="13.4144235"><ele>902.0</ele><time>2026-05-02T14:28:21.616Z</time></trkpt><trkpt lat="42.0991546" lon="13.414546"><ele>902.0</ele><time>2026-05-02T14:28:23.615Z</time></trkpt><trkpt lat="42.0992184" lon="13.4145844"><ele>902.0</ele><time>2026-05-02T14:28:26.616Z</time></trkpt><trkpt lat="42.0992099" lon="13.4144996"><ele>902.0</ele><time>2026-05-02T14:28:29.615Z</time></trkpt><trkpt lat="42.0991192" lon="13.414408"><ele>902.0</ele><time>2026-05-02T14:28:32.615Z</time></trkpt><trkpt lat="42.0990716" lon="13.4143524"><ele>902.0</ele><time>2026-05-02T14:28:33.616Z</time></trkpt><trkpt lat="42.099027" lon="13.4142873"><ele>902.0</ele><time>2026-05-02T14:28:34.615Z</time></trkpt><trkpt lat="42.0989771" lon="13.4142264"><ele>902.0</ele><time>2026-05-02T14:28:35.616Z</time></trkpt><trkpt lat="42.0989248" lon="13.4141744"><ele>902.0</ele><time>2026-05-02T14:28:36.615Z</time></trkpt><trkpt lat="42.0988023" lon="13.4140846"><ele>902.0000000000001</ele><time>2026-05-02T14:28:38.615Z</time></trkpt><trkpt lat="42.0987294" lon="13.414038"><ele>902.0</ele><time>2026-05-02T14:28:39.615Z</time></trkpt><trkpt lat="42.098658" lon="13.4139928"><ele>902.0</ele><time>2026-05-02T14:28:40.616Z</time></trkpt><trkpt lat="42.0985888" lon="13.4139487"><ele>902.0</ele><time>2026-05-02T14:28:41.615Z</time></trkpt><trkpt lat="42.0985157" lon="13.4139017"><ele>902.0000000000001</ele><time>2026-05-02T14:28:42.616Z</time></trkpt><trkpt lat="42.0984414" lon="13.4138518"><ele>902.0</ele><time>2026-05-02T14:28:43.615Z</time></trkpt><trkpt lat="42.0983743" lon="13.4138069"><ele>901.3333333333334</ele><time>2026-05-02T14:28:44.615Z</time></trkpt><trkpt lat="42.0983121" lon="13.4137649"><ele>900.6666666666667</ele><time>2026-05-02T14:28:45.615Z</time></trkpt><trkpt lat="42.0982043" lon="13.4137183"><ele>900.0</ele><time>2026-05-02T14:28:47.615Z</time></trkpt><trkpt lat="42.0981623" lon="13.4136426"><ele>899.3333333333333</ele><time>2026-05-02T14:28:50.615Z</time></trkpt><trkpt lat="42.0982136" lon="13.4135577"><ele>898.6666666666666</ele><time>2026-05-02T14:28:53.615Z</time></trkpt><trkpt lat="42.0983027" lon="13.413494"><ele>898.0</ele><time>2026-05-02T14:28:55.615Z</time></trkpt><trkpt lat="42.0983657" lon="13.4134448"><ele>897.9999999999999</ele><time>2026-05-02T14:28:56.615Z</time></trkpt><trkpt lat="42.0984305" lon="13.4133934"><ele>898.0</ele><time>2026-05-02T14:28:57.615Z</time></trkpt><trkpt lat="42.0984919" lon="13.4133387"><ele>898.0</ele><time>2026-05-02T14:28:58.615Z</time></trkpt><trkpt lat="42.0985537" lon="13.4132811"><ele>898.0</ele><time>2026-05-02T14:28:59.615Z</time></trkpt><trkpt lat="42.0986183" lon="13.4132171"><ele>897.9999999999999</ele><time>2026-05-02T14:29:00.616Z</time></trkpt><trkpt lat="42.0986815" lon="13.4131538"><ele>898.0</ele><time>2026-05-02T14:29:01.615Z</time></trkpt><trkpt lat="42.0987443" lon="13.413089"><ele>897.9999999999999</ele><time>2026-05-02T14:29:02.615Z</time></trkpt><trkpt lat="42.0988013" lon="13.4130152"><ele>898.0</ele><time>2026-05-02T14:29:03.615Z</time></trkpt><trkpt lat="42.0988524" lon="13.4129411"><ele>898.0</ele><time>2026-05-02T14:29:04.616Z</time></trkpt><trkpt lat="42.0989082" lon="13.4128643"><ele>898.0</ele><time>2026-05-02T14:29:05.615Z</time></trkpt><trkpt lat="42.098965" lon="13.4127857"><ele>897.9999999999999</ele><time>2026-05-02T14:29:06.615Z</time></trkpt><trkpt lat="42.0990221" lon="13.412704"><ele>898.0</ele><time>2026-05-02T14:29:07.615Z</time></trkpt><trkpt lat="42.0990746" lon="13.4126192"><ele>897.3333333333333</ele><time>2026-05-02T14:29:08.615Z</time></trkpt><trkpt lat="42.0991259" lon="13.4125323"><ele>896.6666666666666</ele><time>2026-05-02T14:29:09.615Z</time></trkpt><trkpt lat="42.0991763" lon="13.4124424"><ele>896.0</ele><time>2026-05-02T14:29:10.615Z</time></trkpt><trkpt lat="42.0992212" lon="13.4123496"><ele>895.3333333333333</ele><time>2026-05-02T14:29:11.616Z</time></trkpt><trkpt lat="42.099262" lon="13.4122522"><ele>894.6666666666666</ele><time>2026-05-02T14:29:12.615Z</time></trkpt><trkpt lat="42.099298" lon="13.4121492"><ele>894.0</ele><time>2026-05-02T14:29:13.615Z</time></trkpt><trkpt lat="42.0993367" lon="13.4120383"><ele>893.1666666666666</ele><time>2026-05-02T14:29:14.616Z</time></trkpt><trkpt lat="42.0993862" lon="13.4119376"><ele>892.3333333333333</ele><time>2026-05-02T14:29:15.615Z</time></trkpt><trkpt lat="42.0994414" lon="13.41185"><ele>891.5</ele><time>2026-05-02T14:29:16.615Z</time></trkpt><trkpt lat="42.0994949" lon="13.4117638"><ele>890.6666666666666</ele><time>2026-05-02T14:29:17.615Z</time></trkpt><trkpt lat="42.0995448" lon="13.4116784"><ele>889.8333333333333</ele><time>2026-05-02T14:29:18.616Z</time></trkpt><trkpt lat="42.099595" lon="13.4115976"><ele>889.0</ele><time>2026-05-02T14:29:19.616Z</time></trkpt><trkpt lat="42.0996404" lon="13.4115257"><ele>888.9999999999999</ele><time>2026-05-02T14:29:20.615Z</time></trkpt><trkpt lat="42.0997418" lon="13.4114393"><ele>889.0</ele><time>2026-05-02T14:29:22.615Z</time></trkpt><trkpt lat="42.0998044" lon="13.4114189"><ele>889.0</ele><time>2026-05-02T14:29:23.615Z</time></trkpt><trkpt lat="42.099868" lon="13.4113933"><ele>889.0</ele><time>2026-05-02T14:29:24.615Z</time></trkpt><trkpt lat="42.0999289" lon="13.4113428"><ele>888.9999999999999</ele><time>2026-05-02T14:29:25.615Z</time></trkpt><trkpt lat="42.0999834" lon="13.411271"><ele>889.0</ele><time>2026-05-02T14:29:26.615Z</time></trkpt><trkpt lat="42.1000404" lon="13.4111845"><ele>888.2</ele><time>2026-05-02T14:29:27.615Z</time></trkpt><trkpt lat="42.1001024" lon="13.4110941"><ele>887.4000000000001</ele><time>2026-05-02T14:29:28.615Z</time></trkpt><trkpt lat="42.1001651" lon="13.4109946"><ele>886.6</ele><time>2026-05-02T14:29:29.615Z</time></trkpt><trkpt lat="42.100223" lon="13.4108873"><ele>885.8</ele><time>2026-05-02T14:29:30.615Z</time></trkpt><trkpt lat="42.100286" lon="13.4107801"><ele>885.0</ele><time>2026-05-02T14:29:31.616Z</time></trkpt><trkpt lat="42.1003505" lon="13.410679"><ele>885.0</ele><time>2026-05-02T14:29:32.615Z</time></trkpt><trkpt lat="42.1004166" lon="13.4105713"><ele>885.0</ele><time>2026-05-02T14:29:33.615Z</time></trkpt><trkpt lat="42.1004806" lon="13.4104657"><ele>885.0</ele><time>2026-05-02T14:29:34.616Z</time></trkpt><trkpt lat="42.1005418" lon="13.4103599"><ele>885.0</ele><time>2026-05-02T14:29:35.615Z</time></trkpt><trkpt lat="42.1006017" lon="13.4102388"><ele>885.0</ele><time>2026-05-02T14:29:36.615Z</time></trkpt><trkpt lat="42.1006547" lon="13.4101123"><ele>884.2</ele><time>2026-05-02T14:29:37.615Z</time></trkpt><trkpt lat="42.1007049" lon="13.409979"><ele>883.4</ele><time>2026-05-02T14:29:38.615Z</time></trkpt><trkpt lat="42.1007542" lon="13.4098486"><ele>882.5999999999999</ele><time>2026-05-02T14:29:39.615Z</time></trkpt><trkpt lat="42.1008008" lon="13.4097263"><ele>881.8</ele><time>2026-05-02T14:29:40.616Z</time></trkpt><trkpt lat="42.1008412" lon="13.4096061"><ele>881.0</ele><time>2026-05-02T14:29:41.615Z</time></trkpt><trkpt lat="42.1008813" lon="13.4094779"><ele>879.8</ele><time>2026-05-02T14:29:42.615Z</time></trkpt><trkpt lat="42.1009272" lon="13.4093448"><ele>878.5999999999999</ele><time>2026-05-02T14:29:43.616Z</time></trkpt><trkpt lat="42.1009788" lon="13.4092091"><ele>877.4</ele><time>2026-05-02T14:29:44.615Z</time></trkpt><trkpt lat="42.1010279" lon="13.4090764"><ele>876.2</ele><time>2026-05-02T14:29:45.615Z</time></trkpt><trkpt lat="42.1010784" lon="13.4089487"><ele>875.0</ele><time>2026-05-02T14:29:46.616Z</time></trkpt><trkpt lat="42.1011284" lon="13.4088315"><ele>874.0</ele><time>2026-05-02T14:29:47.615Z</time></trkpt><trkpt lat="42.1011774" lon="13.40871"><ele>873.0</ele><time>2026-05-02T14:29:48.615Z</time></trkpt><trkpt lat="42.1012212" lon="13.4085863"><ele>872.0</ele><time>2026-05-02T14:29:49.616Z</time></trkpt><trkpt lat="42.1012627" lon="13.4084615"><ele>871.0</ele><time>2026-05-02T14:29:50.615Z</time></trkpt><trkpt lat="42.1012986" lon="13.4083465"><ele>870.0</ele><time>2026-05-02T14:29:51.616Z</time></trkpt><trkpt lat="42.1013332" lon="13.4082359"><ele>870.0</ele><time>2026-05-02T14:29:52.615Z</time></trkpt><trkpt lat="42.1013651" lon="13.40812"><ele>870.0</ele><time>2026-05-02T14:29:53.615Z</time></trkpt><trkpt lat="42.1013891" lon="13.4079963"><ele>870.0</ele><time>2026-05-02T14:29:54.615Z</time></trkpt><trkpt lat="42.1014094" lon="13.4078797"><ele>870.0</ele><time>2026-05-02T14:29:55.616Z</time></trkpt><trkpt lat="42.1014423" lon="13.4077588"><ele>870.0</ele><time>2026-05-02T14:29:56.615Z</time></trkpt><trkpt lat="42.1014868" lon="13.4076335"><ele>869.6</ele><time>2026-05-02T14:29:57.616Z</time></trkpt><trkpt lat="42.1015348" lon="13.4075176"><ele>869.2</ele><time>2026-05-02T14:29:58.615Z</time></trkpt><trkpt lat="42.1015819" lon="13.4074031"><ele>868.8</ele><time>2026-05-02T14:29:59.615Z</time></trkpt><trkpt lat="42.1016267" lon="13.4072961"><ele>868.4</ele><time>2026-05-02T14:30:00.615Z</time></trkpt><trkpt lat="42.1016703" lon="13.4071923"><ele>868.0</ele><time>2026-05-02T14:30:01.616Z</time></trkpt><trkpt lat="42.1017116" lon="13.4070909"><ele>866.8571428571429</ele><time>2026-05-02T14:30:02.615Z</time></trkpt><trkpt lat="42.1017509" lon="13.4069938"><ele>865.7142857142858</ele><time>2026-05-02T14:30:03.616Z</time></trkpt><trkpt lat="42.1017871" lon="13.4069013"><ele>864.5714285714286</ele><time>2026-05-02T14:30:04.616Z</time></trkpt><trkpt lat="42.1018253" lon="13.4068151"><ele>863.4285714285714</ele><time>2026-05-02T14:30:05.616Z</time></trkpt><trkpt lat="42.1018657" lon="13.4067351"><ele>862.2857142857143</ele><time>2026-05-02T14:30:06.616Z</time></trkpt><trkpt lat="42.1019122" lon="13.4066687"><ele>861.1428571428571</ele><time>2026-05-02T14:30:07.615Z</time></trkpt><trkpt lat="42.101966" lon="13.4066106"><ele>860.0</ele><time>2026-05-02T14:30:08.615Z</time></trkpt><trkpt lat="42.1020228" lon="13.4065603"><ele>860.0000000000001</ele><time>2026-05-02T14:30:09.616Z</time></trkpt><trkpt lat="42.1020827" lon="13.4065015"><ele>860.0</ele><time>2026-05-02T14:30:10.615Z</time></trkpt><trkpt lat="42.1021394" lon="13.4064436"><ele>860.0</ele><time>2026-05-02T14:30:11.615Z</time></trkpt><trkpt lat="42.1022001" lon="13.4063844"><ele>860.0</ele><time>2026-05-02T14:30:12.615Z</time></trkpt><trkpt lat="42.1022628" lon="13.4063227"><ele>860.0000000000001</ele><time>2026-05-02T14:30:13.616Z</time></trkpt><trkpt lat="42.1023211" lon="13.406252"><ele>860.0</ele><time>2026-05-02T14:30:14.615Z</time></trkpt><trkpt lat="42.1023704" lon="13.4061749"><ele>859.1666666666667</ele><time>2026-05-02T14:30:15.616Z</time></trkpt><trkpt lat="42.1024142" lon="13.4061021"><ele>858.3333333333334</ele><time>2026-05-02T14:30:16.615Z</time></trkpt><trkpt lat="42.1024564" lon="13.4060313"><ele>857.5</ele><time>2026-05-02T14:30:17.615Z</time></trkpt><trkpt lat="42.1024963" lon="13.4059632"><ele>856.6666666666667</ele><time>2026-05-02T14:30:18.615Z</time></trkpt><trkpt lat="42.1025588" lon="13.4058258"><ele>855.8333333333334</ele><time>2026-05-02T14:30:20.616Z</time></trkpt><trkpt lat="42.1026" lon="13.4056655"><ele>855.0</ele><time>2026-05-02T14:30:22.615Z</time></trkpt><trkpt lat="42.1026199" lon="13.4055786"><ele>854.2</ele><time>2026-05-02T14:30:23.615Z</time></trkpt><trkpt lat="42.1026355" lon="13.4054954"><ele>853.4</ele><time>2026-05-02T14:30:24.616Z</time></trkpt><trkpt lat="42.102683" lon="13.4053434"><ele>852.5999999999999</ele><time>2026-05-02T14:30:26.616Z</time></trkpt><trkpt lat="42.1027413" lon="13.4052021"><ele>851.8</ele><time>2026-05-02T14:30:28.615Z</time></trkpt><trkpt lat="42.102794" lon="13.4050524"><ele>851.0</ele><time>2026-05-02T14:30:30.615Z</time></trkpt><trkpt lat="42.1028232" lon="13.4049721"><ele>851.0</ele><time>2026-05-02T14:30:31.615Z</time></trkpt><trkpt lat="42.1028548" lon="13.4048878"><ele>851.0</ele><time>2026-05-02T14:30:32.615Z</time></trkpt><trkpt lat="42.1028876" lon="13.4048037"><ele>851.0</ele><time>2026-05-02T14:30:33.615Z</time></trkpt><trkpt lat="42.1029193" lon="13.404713"><ele>851.0</ele><time>2026-05-02T14:30:34.616Z</time></trkpt><trkpt lat="42.1029412" lon="13.4046225"><ele>851.0</ele><time>2026-05-02T14:30:35.615Z</time></trkpt><trkpt lat="42.1029657" lon="13.4045279"><ele>851.0</ele><time>2026-05-02T14:30:36.615Z</time></trkpt><trkpt lat="42.102993" lon="13.4044358"><ele>851.0</ele><time>2026-05-02T14:30:37.616Z</time></trkpt><trkpt lat="42.103024" lon="13.4043427"><ele>850.5714285714286</ele><time>2026-05-02T14:30:38.615Z</time></trkpt><trkpt lat="42.1030579" lon="13.4042534"><ele>850.1428571428571</ele><time>2026-05-02T14:30:39.615Z</time></trkpt><trkpt lat="42.1030906" lon="13.4041664"><ele>849.7142857142858</ele><time>2026-05-02T14:30:40.615Z</time></trkpt><trkpt lat="42.1031231" lon="13.4040808"><ele>849.2857142857142</ele><time>2026-05-02T14:30:41.615Z</time></trkpt><trkpt lat="42.103154" lon="13.4040007"><ele>848.8571428571428</ele><time>2026-05-02T14:30:42.616Z</time></trkpt><trkpt lat="42.1031878" lon="13.4039181"><ele>848.4285714285714</ele><time>2026-05-02T14:30:43.615Z</time></trkpt><trkpt lat="42.1032255" lon="13.4038369"><ele>848.0</ele><time>2026-05-02T14:30:44.615Z</time></trkpt><trkpt lat="42.1032693" lon="13.4037547"><ele>847.4285714285714</ele><time>2026-05-02T14:30:45.615Z</time></trkpt><trkpt lat="42.1033082" lon="13.4036711"><ele>846.8571428571428</ele><time>2026-05-02T14:30:46.615Z</time></trkpt><trkpt lat="42.1033482" lon="13.4035837"><ele>846.2857142857142</ele><time>2026-05-02T14:30:47.616Z</time></trkpt><trkpt lat="42.1033879" lon="13.4035007"><ele>845.7142857142858</ele><time>2026-05-02T14:30:48.615Z</time></trkpt><trkpt lat="42.1034274" lon="13.4034205"><ele>845.1428571428571</ele><time>2026-05-02T14:30:49.615Z</time></trkpt><trkpt lat="42.1034681" lon="13.4033354"><ele>844.5714285714286</ele><time>2026-05-02T14:30:50.615Z</time></trkpt><trkpt lat="42.1035087" lon="13.4032484"><ele>844.0</ele><time>2026-05-02T14:30:51.615Z</time></trkpt><trkpt lat="42.1035502" lon="13.403158"><ele>844.0</ele><time>2026-05-02T14:30:52.615Z</time></trkpt><trkpt lat="42.1035894" lon="13.4030731"><ele>844.0</ele><time>2026-05-02T14:30:53.615Z</time></trkpt><trkpt lat="42.1036288" lon="13.402991"><ele>844.0</ele><time>2026-05-02T14:30:54.615Z</time></trkpt><trkpt lat="42.1036686" lon="13.4029027"><ele>844.0</ele><time>2026-05-02T14:30:55.615Z</time></trkpt><trkpt lat="42.1037035" lon="13.4028186"><ele>844.0</ele><time>2026-05-02T14:30:56.615Z</time></trkpt><trkpt lat="42.1037404" lon="13.4027261"><ele>844.0</ele><time>2026-05-02T14:30:57.615Z</time></trkpt><trkpt lat="42.1037832" lon="13.4026431"><ele>844.0</ele><time>2026-05-02T14:30:58.615Z</time></trkpt><trkpt lat="42.1038294" lon="13.4025615"><ele>843.8333333333333</ele><time>2026-05-02T14:30:59.616Z</time></trkpt><trkpt lat="42.1038816" lon="13.4024866"><ele>843.6666666666666</ele><time>2026-05-02T14:31:00.615Z</time></trkpt><trkpt lat="42.1039364" lon="13.4024135"><ele>843.5</ele><time>2026-05-02T14:31:01.615Z</time></trkpt><trkpt lat="42.1039935" lon="13.4023394"><ele>843.3333333333333</ele><time>2026-05-02T14:31:02.615Z</time></trkpt><trkpt lat="42.1040561" lon="13.4022642"><ele>843.1666666666666</ele><time>2026-05-02T14:31:03.615Z</time></trkpt><trkpt lat="42.1041147" lon="13.4021919"><ele>843.0</ele><time>2026-05-02T14:31:04.615Z</time></trkpt><trkpt lat="42.1041725" lon="13.4021203"><ele>842.4285714285714</ele><time>2026-05-02T14:31:05.615Z</time></trkpt><trkpt lat="42.1042184" lon="13.402049"><ele>841.8571428571429</ele><time>2026-05-02T14:31:06.614Z</time></trkpt><trkpt lat="42.1042599" lon="13.4019641"><ele>841.2857142857142</ele><time>2026-05-02T14:31:07.615Z</time></trkpt><trkpt lat="42.1042988" lon="13.401889"><ele>840.7142857142858</ele><time>2026-05-02T14:31:08.616Z</time></trkpt><trkpt lat="42.104341" lon="13.4018125"><ele>840.1428571428572</ele><time>2026-05-02T14:31:09.615Z</time></trkpt><trkpt lat="42.104383" lon="13.4017279"><ele>839.5714285714286</ele><time>2026-05-02T14:31:10.616Z</time></trkpt><trkpt lat="42.1044292" lon="13.401644"><ele>839.0</ele><time>2026-05-02T14:31:11.615Z</time></trkpt><trkpt lat="42.1044836" lon="13.4015551"><ele>839.0000000000001</ele><time>2026-05-02T14:31:12.615Z</time></trkpt><trkpt lat="42.1045315" lon="13.4014626"><ele>839.0</ele><time>2026-05-02T14:31:13.615Z</time></trkpt><trkpt lat="42.1045833" lon="13.4013711"><ele>839.0</ele><time>2026-05-02T14:31:14.615Z</time></trkpt><trkpt lat="42.1046355" lon="13.4012884"><ele>839.0</ele><time>2026-05-02T14:31:15.615Z</time></trkpt><trkpt lat="42.1046872" lon="13.4011976"><ele>839.0000000000001</ele><time>2026-05-02T14:31:16.616Z</time></trkpt><trkpt lat="42.1047399" lon="13.4011086"><ele>839.0</ele><time>2026-05-02T14:31:17.615Z</time></trkpt><trkpt lat="42.1047936" lon="13.4010106"><ele>838.8333333333334</ele><time>2026-05-02T14:31:18.615Z</time></trkpt><trkpt lat="42.1048437" lon="13.4009187"><ele>838.6666666666667</ele><time>2026-05-02T14:31:19.615Z</time></trkpt><trkpt lat="42.1048936" lon="13.4008267"><ele>838.5</ele><time>2026-05-02T14:31:20.616Z</time></trkpt><trkpt lat="42.1049414" lon="13.4007405"><ele>838.3333333333333</ele><time>2026-05-02T14:31:21.616Z</time></trkpt><trkpt lat="42.1049868" lon="13.400654"><ele>838.1666666666666</ele><time>2026-05-02T14:31:22.615Z</time></trkpt><trkpt lat="42.1050401" lon="13.4005915"><ele>838.0</ele><time>2026-05-02T14:31:23.615Z</time></trkpt><trkpt lat="42.1050852" lon="13.4005125"><ele>837.3333333333333</ele><time>2026-05-02T14:31:24.615Z</time></trkpt><trkpt lat="42.1051227" lon="13.4004188"><ele>836.6666666666666</ele><time>2026-05-02T14:31:25.615Z</time></trkpt><trkpt lat="42.1051692" lon="13.4003381"><ele>836.0</ele><time>2026-05-02T14:31:26.615Z</time></trkpt><trkpt lat="42.1052128" lon="13.4002622"><ele>835.3333333333333</ele><time>2026-05-02T14:31:27.615Z</time></trkpt><trkpt lat="42.1052521" lon="13.4001795"><ele>834.6666666666666</ele><time>2026-05-02T14:31:28.615Z</time></trkpt><trkpt lat="42.1052938" lon="13.4000947"><ele>834.0</ele><time>2026-05-02T14:31:29.615Z</time></trkpt><trkpt lat="42.1053369" lon="13.4000067"><ele>834.0</ele><time>2026-05-02T14:31:30.615Z</time></trkpt><trkpt lat="42.1053795" lon="13.3999204"><ele>834.0</ele><time>2026-05-02T14:31:31.615Z</time></trkpt><trkpt lat="42.1054187" lon="13.3998326"><ele>834.0</ele><time>2026-05-02T14:31:32.615Z</time></trkpt><trkpt lat="42.1054564" lon="13.3997376"><ele>834.0</ele><time>2026-05-02T14:31:33.616Z</time></trkpt><trkpt lat="42.1054926" lon="13.3996529"><ele>834.0</ele><time>2026-05-02T14:31:34.615Z</time></trkpt><trkpt lat="42.1055256" lon="13.3995666"><ele>834.0</ele><time>2026-05-02T14:31:35.615Z</time></trkpt><trkpt lat="42.1055615" lon="13.3994788"><ele>833.8333333333334</ele><time>2026-05-02T14:31:36.616Z</time></trkpt><trkpt lat="42.1055918" lon="13.3993838"><ele>833.6666666666667</ele><time>2026-05-02T14:31:37.616Z</time></trkpt><trkpt lat="42.1056097" lon="13.3992811"><ele>833.5</ele><time>2026-05-02T14:31:38.615Z</time></trkpt><trkpt lat="42.1056171" lon="13.399177"><ele>833.3333333333334</ele><time>2026-05-02T14:31:39.616Z</time></trkpt><trkpt lat="42.1056209" lon="13.3990774"><ele>833.1666666666667</ele><time>2026-05-02T14:31:40.616Z</time></trkpt><trkpt lat="42.105624" lon="13.3989792"><ele>833.0</ele><time>2026-05-02T14:31:41.614Z</time></trkpt><trkpt lat="42.1056404" lon="13.3988437"><ele>833.0000000000001</ele><time>2026-05-02T14:31:43.614Z</time></trkpt><trkpt lat="42.10567" lon="13.3987391"><ele>833.0</ele><time>2026-05-02T14:31:45.615Z</time></trkpt><trkpt lat="42.1057463" lon="13.3986072"><ele>833.0</ele><time>2026-05-02T14:31:47.615Z</time></trkpt><trkpt lat="42.1058002" lon="13.398543"><ele>833.0</ele><time>2026-05-02T14:31:48.614Z</time></trkpt><trkpt lat="42.1058633" lon="13.3984852"><ele>833.0000000000001</ele><time>2026-05-02T14:31:49.615Z</time></trkpt><trkpt lat="42.1059314" lon="13.3984302"><ele>833.0</ele><time>2026-05-02T14:31:50.616Z</time></trkpt><trkpt lat="42.1060047" lon="13.398378"><ele>833.0</ele><time>2026-05-02T14:31:51.615Z</time></trkpt><trkpt lat="42.106079" lon="13.3983249"><ele>833.0</ele><time>2026-05-02T14:31:52.614Z</time></trkpt><trkpt lat="42.1061555" lon="13.3982636"><ele>833.0</ele><time>2026-05-02T14:31:53.615Z</time></trkpt><trkpt lat="42.1062365" lon="13.3981983"><ele>833.0</ele><time>2026-05-02T14:31:54.616Z</time></trkpt><trkpt lat="42.1063271" lon="13.3981358"><ele>833.0</ele><time>2026-05-02T14:31:55.615Z</time></trkpt><trkpt lat="42.1064272" lon="13.3980715"><ele>833.0</ele><time>2026-05-02T14:31:56.616Z</time></trkpt><trkpt lat="42.1065284" lon="13.3979973"><ele>833.0</ele><time>2026-05-02T14:31:57.615Z</time></trkpt><trkpt lat="42.1066243" lon="13.397905"><ele>833.0</ele><time>2026-05-02T14:31:58.615Z</time></trkpt><trkpt lat="42.1067139" lon="13.3977875"><ele>833.0</ele><time>2026-05-02T14:31:59.615Z</time></trkpt><trkpt lat="42.1068003" lon="13.3976541"><ele>834.0</ele><time>2026-05-02T14:32:00.615Z</time></trkpt><trkpt lat="42.1068842" lon="13.3975148"><ele>835.0</ele><time>2026-05-02T14:32:01.616Z</time></trkpt><trkpt lat="42.1069666" lon="13.3973723"><ele>836.0</ele><time>2026-05-02T14:32:02.615Z</time></trkpt><trkpt lat="42.1070407" lon="13.3972278"><ele>837.0</ele><time>2026-05-02T14:32:03.615Z</time></trkpt><trkpt lat="42.1071038" lon="13.3970959"><ele>837.4000000000001</ele><time>2026-05-02T14:32:04.615Z</time></trkpt><trkpt lat="42.1071585" lon="13.3969892"><ele>837.8000000000001</ele><time>2026-05-02T14:32:05.616Z</time></trkpt><trkpt lat="42.1071931" lon="13.3969151"><ele>838.2</ele><time>2026-05-02T14:32:06.616Z</time></trkpt><trkpt lat="42.1072015" lon="13.3967914"><ele>838.6</ele><time>2026-05-02T14:32:08.615Z</time></trkpt><trkpt lat="42.1071235" lon="13.3966588"><ele>839.0</ele><time>2026-05-02T14:32:10.614Z</time></trkpt><trkpt lat="42.1070817" lon="13.3965746"><ele>839.0</ele><time>2026-05-02T14:32:11.615Z</time></trkpt><trkpt lat="42.1070405" lon="13.3964648"><ele>839.0</ele><time>2026-05-02T14:32:12.616Z</time></trkpt><trkpt lat="42.1069882" lon="13.3963301"><ele>839.0</ele><time>2026-05-02T14:32:13.616Z</time></trkpt><trkpt lat="42.1069249" lon="13.3961859"><ele>839.0</ele><time>2026-05-02T14:32:14.616Z</time></trkpt><trkpt lat="42.1068596" lon="13.3960465"><ele>840.0</ele><time>2026-05-02T14:32:15.615Z</time></trkpt><trkpt lat="42.1067897" lon="13.395903"><ele>841.0</ele><time>2026-05-02T14:32:16.616Z</time></trkpt><trkpt lat="42.1067182" lon="13.3957544"><ele>842.0</ele><time>2026-05-02T14:32:17.615Z</time></trkpt><trkpt lat="42.1066505" lon="13.3956021"><ele>843.0</ele><time>2026-05-02T14:32:18.615Z</time></trkpt><trkpt lat="42.1065934" lon="13.3954583"><ele>842.75</ele><time>2026-05-02T14:32:19.615Z</time></trkpt><trkpt lat="42.106537" lon="13.3953289"><ele>842.5</ele><time>2026-05-02T14:32:20.615Z</time></trkpt><trkpt lat="42.1064736" lon="13.3951986"><ele>842.25</ele><time>2026-05-02T14:32:21.616Z</time></trkpt><trkpt lat="42.1064092" lon="13.3950577"><ele>842.0</ele><time>2026-05-02T14:32:22.615Z</time></trkpt><trkpt lat="42.1063444" lon="13.394914"><ele>842.0</ele><time>2026-05-02T14:32:23.616Z</time></trkpt><trkpt lat="42.1062793" lon="13.394773"><ele>842.0</ele><time>2026-05-02T14:32:24.616Z</time></trkpt><trkpt lat="42.1062202" lon="13.3946425"><ele>842.0</ele><time>2026-05-02T14:32:25.616Z</time></trkpt><trkpt lat="42.1061649" lon="13.3945183"><ele>842.0</ele><time>2026-05-02T14:32:26.615Z</time></trkpt><trkpt lat="42.1061186" lon="13.3944093"><ele>842.0</ele><time>2026-05-02T14:32:27.615Z</time></trkpt><trkpt lat="42.1060755" lon="13.3943037"><ele>842.1666666666667</ele><time>2026-05-02T14:32:29.616Z</time></trkpt><trkpt lat="42.106027" lon="13.3942116"><ele>842.3333333333334</ele><time>2026-05-02T14:32:32.615Z</time></trkpt><trkpt lat="42.1059123" lon="13.3941509"><ele>842.5</ele><time>2026-05-02T14:32:34.616Z</time></trkpt><trkpt lat="42.1058356" lon="13.3941224"><ele>842.6666666666667</ele><time>2026-05-02T14:32:35.615Z</time></trkpt><trkpt lat="42.1057599" lon="13.3940915"><ele>842.8333333333334</ele><time>2026-05-02T14:32:36.615Z</time></trkpt><trkpt lat="42.1056928" lon="13.3940616"><ele>843.0</ele><time>2026-05-02T14:32:37.615Z</time></trkpt><trkpt lat="42.1056126" lon="13.3940112"><ele>841.5</ele><time>2026-05-02T14:32:39.616Z</time></trkpt><trkpt lat="42.1055522" lon="13.393954"><ele>840.0</ele><time>2026-05-02T14:32:42.615Z</time></trkpt><trkpt lat="42.1054571" lon="13.393916"><ele>838.5</ele><time>2026-05-02T14:32:44.616Z</time></trkpt><trkpt lat="42.1054272" lon="13.3938216"><ele>837.0</ele><time>2026-05-02T14:32:46.616Z</time></trkpt><trkpt lat="42.1054852" lon="13.3936946"><ele>835.5</ele><time>2026-05-02T14:32:48.615Z</time></trkpt><trkpt lat="42.1055481" lon="13.3936149"><ele>834.0</ele><time>2026-05-02T14:32:49.615Z</time></trkpt><trkpt lat="42.1056176" lon="13.3935237"><ele>833.3333333333334</ele><time>2026-05-02T14:32:50.615Z</time></trkpt><trkpt lat="42.1056904" lon="13.3934427"><ele>832.6666666666667</ele><time>2026-05-02T14:32:51.615Z</time></trkpt><trkpt lat="42.1057606" lon="13.3933677"><ele>832.0</ele><time>2026-05-02T14:32:52.616Z</time></trkpt><trkpt lat="42.1058276" lon="13.3933179"><ele>831.3333333333334</ele><time>2026-05-02T14:32:53.615Z</time></trkpt><trkpt lat="42.1058912" lon="13.3932787"><ele>830.6666666666667</ele><time>2026-05-02T14:32:55.615Z</time></trkpt><trkpt lat="42.1058237" lon="13.3932668"><ele>830.0</ele><time>2026-05-02T14:33:00.614Z</time></trkpt><trkpt lat="42.105763" lon="13.3933245"><ele>830.0</ele><time>2026-05-02T14:33:01.615Z</time></trkpt><trkpt lat="42.1056869" lon="13.3933976"><ele>830.0</ele><time>2026-05-02T14:33:02.615Z</time></trkpt><trkpt lat="42.1056001" lon="13.3934961"><ele>830.0</ele><time>2026-05-02T14:33:03.615Z</time></trkpt><trkpt lat="42.1055224" lon="13.3936035"><ele>830.0</ele><time>2026-05-02T14:33:04.615Z</time></trkpt><trkpt lat="42.1054427" lon="13.3937179"><ele>830.0</ele><time>2026-05-02T14:33:05.613Z</time></trkpt><trkpt lat="42.1053626" lon="13.3938307"><ele>830.8</ele><time>2026-05-02T14:33:06.614Z</time></trkpt><trkpt lat="42.1052842" lon="13.3939446"><ele>831.6</ele><time>2026-05-02T14:33:07.613Z</time></trkpt><trkpt lat="42.1052042" lon="13.3940553"><ele>832.4000000000001</ele><time>2026-05-02T14:33:08.614Z</time></trkpt><trkpt lat="42.105128" lon="13.3941563"><ele>833.2</ele><time>2026-05-02T14:33:09.614Z</time></trkpt><trkpt lat="42.1050702" lon="13.3942418"><ele>834.0</ele><time>2026-05-02T14:33:10.615Z</time></trkpt><trkpt lat="42.1049985" lon="13.3942967"><ele>834.0</ele><time>2026-05-02T14:33:12.616Z</time></trkpt><trkpt lat="42.1049488" lon="13.3942338"><ele>834.0</ele><time>2026-05-02T14:33:14.614Z</time></trkpt><trkpt lat="42.104952" lon="13.3940751"><ele>834.0</ele><time>2026-05-02T14:33:16.615Z</time></trkpt><trkpt lat="42.1049638" lon="13.3939743"><ele>834.0</ele><time>2026-05-02T14:33:17.616Z</time></trkpt><trkpt lat="42.1049727" lon="13.393856"><ele>834.0</ele><time>2026-05-02T14:33:18.615Z</time></trkpt><trkpt lat="42.104986" lon="13.3937339"><ele>834.0</ele><time>2026-05-02T14:33:19.615Z</time></trkpt><trkpt lat="42.1050101" lon="13.3936019"><ele>833.0</ele><time>2026-05-02T14:33:20.613Z</time></trkpt><trkpt lat="42.1050481" lon="13.3934625"><ele>832.0</ele><time>2026-05-02T14:33:21.613Z</time></trkpt><trkpt lat="42.1050989" lon="13.3933248"><ele>831.0</ele><time>2026-05-02T14:33:22.615Z</time></trkpt><trkpt lat="42.1051486" lon="13.3931781"><ele>830.0</ele><time>2026-05-02T14:33:23.616Z</time></trkpt><trkpt lat="42.1051818" lon="13.3930259"><ele>828.25</ele><time>2026-05-02T14:33:24.615Z</time></trkpt><trkpt lat="42.1051994" lon="13.3928704"><ele>826.5</ele><time>2026-05-02T14:33:25.615Z</time></trkpt><trkpt lat="42.1052044" lon="13.3927176"><ele>824.75</ele><time>2026-05-02T14:33:26.614Z</time></trkpt><trkpt lat="42.1051877" lon="13.3925694"><ele>823.0</ele><time>2026-05-02T14:33:27.615Z</time></trkpt><trkpt lat="42.1051458" lon="13.3924187"><ele>823.0</ele><time>2026-05-02T14:33:28.615Z</time></trkpt><trkpt lat="42.1050899" lon="13.3922735"><ele>823.0</ele><time>2026-05-02T14:33:29.616Z</time></trkpt><trkpt lat="42.1050319" lon="13.392127"><ele>823.0</ele><time>2026-05-02T14:33:30.616Z</time></trkpt><trkpt lat="42.1049743" lon="13.3919807"><ele>823.0</ele><time>2026-05-02T14:33:31.614Z</time></trkpt><trkpt lat="42.104922" lon="13.3918363"><ele>822.75</ele><time>2026-05-02T14:33:32.615Z</time></trkpt><trkpt lat="42.1048781" lon="13.3916891"><ele>822.5</ele><time>2026-05-02T14:33:33.614Z</time></trkpt><trkpt lat="42.1048312" lon="13.3915442"><ele>822.25</ele><time>2026-05-02T14:33:34.616Z</time></trkpt><trkpt lat="42.1047854" lon="13.3913986"><ele>822.0</ele><time>2026-05-02T14:33:35.615Z</time></trkpt><trkpt lat="42.1047448" lon="13.3912418"><ele>823.5</ele><time>2026-05-02T14:33:36.615Z</time></trkpt><trkpt lat="42.1047071" lon="13.3910778"><ele>825.0</ele><time>2026-05-02T14:33:37.616Z</time></trkpt><trkpt lat="42.1046685" lon="13.3909097"><ele>826.5</ele><time>2026-05-02T14:33:38.615Z</time></trkpt><trkpt lat="42.1046289" lon="13.3907457"><ele>828.0</ele><time>2026-05-02T14:33:39.615Z</time></trkpt><trkpt lat="42.1045839" lon="13.3905788"><ele>828.5999999999999</ele><time>2026-05-02T14:33:40.615Z</time></trkpt><trkpt lat="42.104543" lon="13.3904241"><ele>829.1999999999999</ele><time>2026-05-02T14:33:41.615Z</time></trkpt><trkpt lat="42.1045066" lon="13.39028"><ele>829.8</ele><time>2026-05-02T14:33:42.614Z</time></trkpt><trkpt lat="42.1044747" lon="13.3901432"><ele>830.4</ele><time>2026-05-02T14:33:43.614Z</time></trkpt><trkpt lat="42.104448" lon="13.3900124"><ele>831.0</ele><time>2026-05-02T14:33:44.615Z</time></trkpt><trkpt lat="42.1044391" lon="13.3898866"><ele>831.0</ele><time>2026-05-02T14:33:45.615Z</time></trkpt><trkpt lat="42.1044441" lon="13.3897927"><ele>831.0</ele><time>2026-05-02T14:33:46.615Z</time></trkpt><trkpt lat="42.104423" lon="13.3896819"><ele>831.0</ele><time>2026-05-02T14:33:48.616Z</time></trkpt><trkpt lat="42.1043617" lon="13.3896156"><ele>831.0</ele><time>2026-05-02T14:33:50.615Z</time></trkpt><trkpt lat="42.1042639" lon="13.3895607"><ele>831.0</ele><time>2026-05-02T14:33:52.613Z</time></trkpt><trkpt lat="42.1042009" lon="13.3895445"><ele>831.0</ele><time>2026-05-02T14:33:53.614Z</time></trkpt><trkpt lat="42.1041339" lon="13.3895342"><ele>830.7142857142857</ele><time>2026-05-02T14:33:54.614Z</time></trkpt><trkpt lat="42.1040635" lon="13.3895158"><ele>830.4285714285714</ele><time>2026-05-02T14:33:55.615Z</time></trkpt><trkpt lat="42.1039874" lon="13.3895051"><ele>830.1428571428571</ele><time>2026-05-02T14:33:56.615Z</time></trkpt><trkpt lat="42.1039189" lon="13.3894923"><ele>829.8571428571429</ele><time>2026-05-02T14:33:57.615Z</time></trkpt><trkpt lat="42.1038527" lon="13.3894826"><ele>829.5714285714286</ele><time>2026-05-02T14:33:58.615Z</time></trkpt><trkpt lat="42.1037886" lon="13.3894707"><ele>829.2857142857142</ele><time>2026-05-02T14:33:59.616Z</time></trkpt><trkpt lat="42.1037005" lon="13.389436"><ele>829.0</ele><time>2026-05-02T14:34:01.616Z</time></trkpt><trkpt lat="42.1036115" lon="13.3893218"><ele>828.9999999999999</ele><time>2026-05-02T14:34:03.616Z</time></trkpt><trkpt lat="42.1035689" lon="13.3892451"><ele>829.0</ele><time>2026-05-02T14:34:04.616Z</time></trkpt><trkpt lat="42.1035289" lon="13.3891515"><ele>829.0</ele><time>2026-05-02T14:34:05.615Z</time></trkpt><trkpt lat="42.1034885" lon="13.3890513"><ele>829.0</ele><time>2026-05-02T14:34:06.615Z</time></trkpt><trkpt lat="42.1034478" lon="13.3889442"><ele>828.9999999999999</ele><time>2026-05-02T14:34:07.615Z</time></trkpt><trkpt lat="42.1034053" lon="13.388835"><ele>829.0</ele><time>2026-05-02T14:34:08.615Z</time></trkpt><trkpt lat="42.1033633" lon="13.3887232"><ele>828.8333333333333</ele><time>2026-05-02T14:34:09.615Z</time></trkpt><trkpt lat="42.1033198" lon="13.3886205"><ele>828.6666666666666</ele><time>2026-05-02T14:34:10.615Z</time></trkpt><trkpt lat="42.1032779" lon="13.3885284"><ele>828.5</ele><time>2026-05-02T14:34:11.616Z</time></trkpt><trkpt lat="42.1032369" lon="13.3884383"><ele>828.3333333333333</ele><time>2026-05-02T14:34:12.612Z</time></trkpt><trkpt lat="42.1031988" lon="13.3883572"><ele>828.1666666666666</ele><time>2026-05-02T14:34:13.615Z</time></trkpt><trkpt lat="42.1031664" lon="13.3882837"><ele>828.0</ele><time>2026-05-02T14:34:14.615Z</time></trkpt><trkpt lat="42.103143" lon="13.3881618"><ele>827.4</ele><time>2026-05-02T14:34:16.615Z</time></trkpt><trkpt lat="42.1031704" lon="13.3880467"><ele>826.8</ele><time>2026-05-02T14:34:18.615Z</time></trkpt><trkpt lat="42.1032196" lon="13.3879438"><ele>826.2</ele><time>2026-05-02T14:34:20.615Z</time></trkpt><trkpt lat="42.1032063" lon="13.3878123"><ele>825.6</ele><time>2026-05-02T14:34:22.615Z</time></trkpt><trkpt lat="42.1031783" lon="13.3877315"><ele>825.0</ele><time>2026-05-02T14:34:23.615Z</time></trkpt><trkpt lat="42.1031189" lon="13.3875841"><ele>825.0</ele><time>2026-05-02T14:34:25.615Z</time></trkpt><trkpt lat="42.1030606" lon="13.3874508"><ele>825.0</ele><time>2026-05-02T14:34:27.615Z</time></trkpt><trkpt lat="42.1030164" lon="13.3873386"><ele>825.0</ele><time>2026-05-02T14:34:29.615Z</time></trkpt><trkpt lat="42.1029779" lon="13.38722"><ele>825.0</ele><time>2026-05-02T14:34:31.616Z</time></trkpt><trkpt lat="42.1029421" lon="13.3871102"><ele>825.0</ele><time>2026-05-02T14:34:33.615Z</time></trkpt><trkpt lat="42.1029353" lon="13.3870077"><ele>825.0</ele><time>2026-05-02T14:34:35.615Z</time></trkpt><trkpt lat="42.1029793" lon="13.3869185"><ele>825.0</ele><time>2026-05-02T14:34:37.613Z</time></trkpt><trkpt lat="42.1029803" lon="13.3868053"><ele>825.0</ele><time>2026-05-02T14:34:39.615Z</time></trkpt><trkpt lat="42.1029486" lon="13.3866868"><ele>825.0</ele><time>2026-05-02T14:34:41.614Z</time></trkpt><trkpt lat="42.1028885" lon="13.3865702"><ele>825.0</ele><time>2026-05-02T14:34:43.615Z</time></trkpt><trkpt lat="42.1028313" lon="13.3864389"><ele>825.2</ele><time>2026-05-02T14:34:45.613Z</time></trkpt><trkpt lat="42.102771" lon="13.3862993"><ele>825.4</ele><time>2026-05-02T14:34:47.615Z</time></trkpt><trkpt lat="42.1027054" lon="13.3861644"><ele>825.5999999999999</ele><time>2026-05-02T14:34:49.615Z</time></trkpt><trkpt lat="42.102639" lon="13.3860178"><ele>825.8</ele><time>2026-05-02T14:34:51.615Z</time></trkpt><trkpt lat="42.1025956" lon="13.3859363"><ele>826.0</ele><time>2026-05-02T14:34:52.616Z</time></trkpt><trkpt lat="42.1025522" lon="13.3858565"><ele>825.9999999999999</ele><time>2026-05-02T14:34:53.614Z</time></trkpt><trkpt lat="42.1025121" lon="13.3857829"><ele>826.0</ele><time>2026-05-02T14:34:54.613Z</time></trkpt><trkpt lat="42.1024733" lon="13.3857151"><ele>826.0</ele><time>2026-05-02T14:34:55.615Z</time></trkpt><trkpt lat="42.1024117" lon="13.3856081"><ele>826.0</ele><time>2026-05-02T14:34:57.615Z</time></trkpt><trkpt lat="42.1023622" lon="13.3855256"><ele>825.9999999999999</ele><time>2026-05-02T14:34:59.615Z</time></trkpt><trkpt lat="42.1023137" lon="13.3854578"><ele>826.0</ele><time>2026-05-02T14:35:01.615Z</time></trkpt><trkpt lat="42.1023078" lon="13.38532"><ele>826.4</ele><time>2026-05-02T14:35:04.614Z</time></trkpt><trkpt lat="42.1023305" lon="13.385211"><ele>826.8</ele><time>2026-05-02T14:35:06.615Z</time></trkpt><trkpt lat="42.1023979" lon="13.3851254"><ele>827.1999999999999</ele><time>2026-05-02T14:35:08.616Z</time></trkpt><trkpt lat="42.1024728" lon="13.385035"><ele>827.5999999999999</ele><time>2026-05-02T14:35:10.612Z</time></trkpt><trkpt lat="42.1025558" lon="13.3849251"><ele>828.0</ele><time>2026-05-02T14:35:12.615Z</time></trkpt><trkpt lat="42.1026407" lon="13.38482"><ele>828.0</ele><time>2026-05-02T14:35:14.616Z</time></trkpt><trkpt lat="42.1027392" lon="13.3847274"><ele>828.0</ele><time>2026-05-02T14:35:16.614Z</time></trkpt><trkpt lat="42.1028513" lon="13.384672"><ele>828.0</ele><time>2026-05-02T14:35:18.616Z</time></trkpt><trkpt lat="42.1029376" lon="13.3845745"><ele>828.0</ele><time>2026-05-02T14:35:20.615Z</time></trkpt><trkpt lat="42.10298" lon="13.3845091"><ele>828.0</ele><time>2026-05-02T14:35:21.613Z</time></trkpt><trkpt lat="42.1030275" lon="13.3844456"><ele>828.1428571428572</ele><time>2026-05-02T14:35:22.615Z</time></trkpt><trkpt lat="42.1030776" lon="13.3843865"><ele>828.2857142857143</ele><time>2026-05-02T14:35:23.615Z</time></trkpt><trkpt lat="42.1031248" lon="13.3843248"><ele>828.4285714285714</ele><time>2026-05-02T14:35:24.615Z</time></trkpt><trkpt lat="42.1031688" lon="13.3842549"><ele>828.5714285714287</ele><time>2026-05-02T14:35:25.614Z</time></trkpt><trkpt lat="42.1032123" lon="13.3841856"><ele>828.7142857142857</ele><time>2026-05-02T14:35:26.614Z</time></trkpt><trkpt lat="42.1032563" lon="13.3841181"><ele>828.8571428571429</ele><time>2026-05-02T14:35:27.613Z</time></trkpt><trkpt lat="42.1032978" lon="13.3840467"><ele>829.0</ele><time>2026-05-02T14:35:28.616Z</time></trkpt><trkpt lat="42.103334" lon="13.3839714"><ele>830.2</ele><time>2026-05-02T14:35:29.615Z</time></trkpt><trkpt lat="42.103372" lon="13.3838936"><ele>831.4000000000001</ele><time>2026-05-02T14:35:30.616Z</time></trkpt><trkpt lat="42.1034099" lon="13.3838191"><ele>832.6</ele><time>2026-05-02T14:35:31.615Z</time></trkpt><trkpt lat="42.103496" lon="13.3836969"><ele>833.8</ele><time>2026-05-02T14:35:33.615Z</time></trkpt><trkpt lat="42.1035986" lon="13.383601"><ele>835.0</ele><time>2026-05-02T14:35:35.616Z</time></trkpt><trkpt lat="42.1036972" lon="13.383507"><ele>835.0</ele><time>2026-05-02T14:35:37.616Z</time></trkpt><trkpt lat="42.1037978" lon="13.3834163"><ele>835.0</ele><time>2026-05-02T14:35:39.615Z</time></trkpt><trkpt lat="42.1038897" lon="13.3833201"><ele>835.0</ele><time>2026-05-02T14:35:41.615Z</time></trkpt><trkpt lat="42.1039887" lon="13.3832238"><ele>835.0</ele><time>2026-05-02T14:35:43.615Z</time></trkpt><trkpt lat="42.1040955" lon="13.38317"><ele>836.4999999999999</ele><time>2026-05-02T14:35:45.613Z</time></trkpt><trkpt lat="42.10421" lon="13.3831177"><ele>838.0</ele><time>2026-05-02T14:35:47.615Z</time></trkpt><trkpt lat="42.1042724" lon="13.383083"><ele>839.5</ele><time>2026-05-02T14:35:48.615Z</time></trkpt><trkpt lat="42.1043356" lon="13.3830406"><ele>841.0</ele><time>2026-05-02T14:35:49.615Z</time></trkpt><trkpt lat="42.1043992" lon="13.3829991"><ele>842.4999999999999</ele><time>2026-05-02T14:35:50.615Z</time></trkpt><trkpt lat="42.104465" lon="13.3829664"><ele>844.0</ele><time>2026-05-02T14:35:51.615Z</time></trkpt><trkpt lat="42.1045308" lon="13.3829352"><ele>843.9999999999999</ele><time>2026-05-02T14:35:52.615Z</time></trkpt><trkpt lat="42.1045957" lon="13.3829053"><ele>844.0</ele><time>2026-05-02T14:35:53.615Z</time></trkpt><trkpt lat="42.1046582" lon="13.3828787"><ele>844.0</ele><time>2026-05-02T14:35:54.616Z</time></trkpt><trkpt lat="42.1047192" lon="13.3828492"><ele>844.0</ele><time>2026-05-02T14:35:55.615Z</time></trkpt><trkpt lat="42.1048365" lon="13.3827952"><ele>843.9999999999999</ele><time>2026-05-02T14:35:57.616Z</time></trkpt><trkpt lat="42.1049437" lon="13.3827576"><ele>844.0</ele><time>2026-05-02T14:35:59.615Z</time></trkpt><trkpt lat="42.1050539" lon="13.3827511"><ele>844.9999999999999</ele><time>2026-05-02T14:36:01.615Z</time></trkpt><trkpt lat="42.1051799" lon="13.3827666"><ele>846.0</ele><time>2026-05-02T14:36:03.615Z</time></trkpt><trkpt lat="42.1052494" lon="13.3827805"><ele>847.0</ele><time>2026-05-02T14:36:04.615Z</time></trkpt><trkpt lat="42.1053202" lon="13.382799"><ele>848.0</ele><time>2026-05-02T14:36:05.615Z</time></trkpt><trkpt lat="42.1053929" lon="13.3828069"><ele>848.9999999999999</ele><time>2026-05-02T14:36:06.614Z</time></trkpt><trkpt lat="42.1054666" lon="13.3828038"><ele>850.0</ele><time>2026-05-02T14:36:07.615Z</time></trkpt><trkpt lat="42.1055331" lon="13.3827976"><ele>849.9999999999999</ele><time>2026-05-02T14:36:08.616Z</time></trkpt><trkpt lat="42.1056563" lon="13.3828201"><ele>850.0</ele><time>2026-05-02T14:36:10.613Z</time></trkpt><trkpt lat="42.1057264" lon="13.382836"><ele>850.0</ele><time>2026-05-02T14:36:11.616Z</time></trkpt><trkpt lat="42.1058069" lon="13.3828488"><ele>850.0</ele><time>2026-05-02T14:36:12.615Z</time></trkpt><trkpt lat="42.1058876" lon="13.3828468"><ele>849.9999999999999</ele><time>2026-05-02T14:36:13.615Z</time></trkpt><trkpt lat="42.1059637" lon="13.3828404"><ele>850.0</ele><time>2026-05-02T14:36:14.615Z</time></trkpt><trkpt lat="42.1060492" lon="13.3828381"><ele>851.1666666666666</ele><time>2026-05-02T14:36:15.615Z</time></trkpt><trkpt lat="42.1061473" lon="13.3828356"><ele>852.3333333333333</ele><time>2026-05-02T14:36:16.615Z</time></trkpt><trkpt lat="42.1062435" lon="13.3828321"><ele>853.5</ele><time>2026-05-02T14:36:17.616Z</time></trkpt><trkpt lat="42.1063306" lon="13.3828342"><ele>854.6666666666667</ele><time>2026-05-02T14:36:18.615Z</time></trkpt><trkpt lat="42.1064061" lon="13.3828403"><ele>855.8333333333334</ele><time>2026-05-02T14:36:19.615Z</time></trkpt><trkpt lat="42.106469" lon="13.3828537"><ele>857.0</ele><time>2026-05-02T14:36:20.615Z</time></trkpt><trkpt lat="42.1065623" lon="13.3829166"><ele>858.6</ele><time>2026-05-02T14:36:22.615Z</time></trkpt><trkpt lat="42.1066228" lon="13.38302"><ele>860.2</ele><time>2026-05-02T14:36:24.616Z</time></trkpt><trkpt lat="42.1067043" lon="13.3831248"><ele>861.8</ele><time>2026-05-02T14:36:26.614Z</time></trkpt><trkpt lat="42.1068069" lon="13.3831606"><ele>863.4</ele><time>2026-05-02T14:36:28.614Z</time></trkpt><trkpt lat="42.10688" lon="13.3832374"><ele>865.0</ele><time>2026-05-02T14:36:30.615Z</time></trkpt><trkpt lat="42.1069119" lon="13.3833724"><ele>864.9999999999999</ele><time>2026-05-02T14:36:32.616Z</time></trkpt><trkpt lat="42.1069491" lon="13.3834825"><ele>865.0</ele><time>2026-05-02T14:36:34.614Z</time></trkpt><trkpt lat="42.1070116" lon="13.3835135"><ele>865.0</ele><time>2026-05-02T14:36:36.614Z</time></trkpt><trkpt lat="42.1070557" lon="13.3834136"><ele>865.0</ele><time>2026-05-02T14:36:39.615Z</time></trkpt><trkpt lat="42.1071044" lon="13.3833308"><ele>864.9999999999999</ele><time>2026-05-02T14:36:41.615Z</time></trkpt><trkpt lat="42.1072006" lon="13.3832579"><ele>865.0</ele><time>2026-05-02T14:36:43.614Z</time></trkpt><trkpt lat="42.1072575" lon="13.3832075"><ele>865.0</ele><time>2026-05-02T14:36:44.615Z</time></trkpt><trkpt lat="42.1073522" lon="13.3831196"><ele>865.0</ele><time>2026-05-02T14:36:46.616Z</time></trkpt><trkpt lat="42.1074602" lon="13.383044"><ele>865.0</ele><time>2026-05-02T14:36:48.616Z</time></trkpt><trkpt lat="42.1075581" lon="13.3829579"><ele>865.0</ele><time>2026-05-02T14:36:50.616Z</time></trkpt><trkpt lat="42.1076763" lon="13.3829092"><ele>866.4285714285714</ele><time>2026-05-02T14:36:52.615Z</time></trkpt><trkpt lat="42.1077407" lon="13.3829106"><ele>867.8571428571429</ele><time>2026-05-02T14:36:53.616Z</time></trkpt><trkpt lat="42.1078047" lon="13.3829034"><ele>869.2857142857142</ele><time>2026-05-02T14:36:54.615Z</time></trkpt><trkpt lat="42.1078701" lon="13.3828852"><ele>870.7142857142858</ele><time>2026-05-02T14:36:55.615Z</time></trkpt><trkpt lat="42.1079349" lon="13.3828617"><ele>872.1428571428571</ele><time>2026-05-02T14:36:56.615Z</time></trkpt><trkpt lat="42.1079995" lon="13.3828392"><ele>873.5714285714286</ele><time>2026-05-02T14:36:57.616Z</time></trkpt><trkpt lat="42.1080658" lon="13.3828187"><ele>875.0</ele><time>2026-05-02T14:36:58.615Z</time></trkpt><trkpt lat="42.1081312" lon="13.3828088"><ele>875.8</ele><time>2026-05-02T14:36:59.616Z</time></trkpt><trkpt lat="42.1082552" lon="13.3827988"><ele>876.6</ele><time>2026-05-02T14:37:01.615Z</time></trkpt><trkpt lat="42.1083179" lon="13.3827786"><ele>877.4000000000001</ele><time>2026-05-02T14:37:02.615Z</time></trkpt><trkpt lat="42.1084398" lon="13.3827549"><ele>878.2</ele><time>2026-05-02T14:37:04.615Z</time></trkpt><trkpt lat="42.1085626" lon="13.3827594"><ele>879.0</ele><time>2026-05-02T14:37:06.615Z</time></trkpt><trkpt lat="42.1086721" lon="13.3826963"><ele>879.0</ele><time>2026-05-02T14:37:08.615Z</time></trkpt><trkpt lat="42.1087743" lon="13.3826186"><ele>879.0</ele><time>2026-05-02T14:37:10.615Z</time></trkpt><trkpt lat="42.1088894" lon="13.3825786"><ele>879.0</ele><time>2026-05-02T14:37:12.615Z</time></trkpt><trkpt lat="42.1089509" lon="13.3825383"><ele>879.0</ele><time>2026-05-02T14:37:13.615Z</time></trkpt><trkpt lat="42.1090096" lon="13.3824944"><ele>879.0</ele><time>2026-05-02T14:37:14.615Z</time></trkpt><trkpt lat="42.1090716" lon="13.3824594"><ele>879.0</ele><time>2026-05-02T14:37:15.615Z</time></trkpt><trkpt lat="42.1091399" lon="13.3824327"><ele>880.0</ele><time>2026-05-02T14:37:16.614Z</time></trkpt><trkpt lat="42.1092132" lon="13.382406"><ele>881.0</ele><time>2026-05-02T14:37:17.614Z</time></trkpt><trkpt lat="42.1092858" lon="13.3823699"><ele>882.0</ele><time>2026-05-02T14:37:18.615Z</time></trkpt><trkpt lat="42.1093588" lon="13.3823239"><ele>883.0</ele><time>2026-05-02T14:37:19.615Z</time></trkpt><trkpt lat="42.1094378" lon="13.3822824"><ele>884.0</ele><time>2026-05-02T14:37:20.616Z</time></trkpt><trkpt lat="42.1095112" lon="13.38225"><ele>885.0</ele><time>2026-05-02T14:37:21.616Z</time></trkpt><trkpt lat="42.1095766" lon="13.3822146"><ele>885.1666666666666</ele><time>2026-05-02T14:37:22.615Z</time></trkpt><trkpt lat="42.1096401" lon="13.3821637"><ele>885.3333333333333</ele><time>2026-05-02T14:37:23.615Z</time></trkpt><trkpt lat="42.1096933" lon="13.3821011"><ele>885.5</ele><time>2026-05-02T14:37:24.615Z</time></trkpt><trkpt lat="42.1097871" lon="13.3820325"><ele>885.6666666666666</ele><time>2026-05-02T14:37:26.615Z</time></trkpt><trkpt lat="42.1098677" lon="13.3820515"><ele>885.8333333333333</ele><time>2026-05-02T14:37:28.616Z</time></trkpt><trkpt lat="42.109947" lon="13.3821041"><ele>886.0</ele><time>2026-05-02T14:37:30.616Z</time></trkpt><trkpt lat="42.1100481" lon="13.3821282"><ele>887.1999999999999</ele><time>2026-05-02T14:37:32.615Z</time></trkpt><trkpt lat="42.110155" lon="13.3821225"><ele>888.3999999999999</ele><time>2026-05-02T14:37:34.615Z</time></trkpt><trkpt lat="42.1102752" lon="13.3820887"><ele>889.6</ele><time>2026-05-02T14:37:36.615Z</time></trkpt><trkpt lat="42.1103395" lon="13.3820681"><ele>890.8</ele><time>2026-05-02T14:37:37.616Z</time></trkpt><trkpt lat="42.1104488" lon="13.3820208"><ele>892.0</ele><time>2026-05-02T14:37:39.615Z</time></trkpt><trkpt lat="42.110536" lon="13.3819885"><ele>891.9999999999999</ele><time>2026-05-02T14:37:41.616Z</time></trkpt><trkpt lat="42.1105943" lon="13.3819535"><ele>892.0</ele><time>2026-05-02T14:37:43.616Z</time></trkpt><trkpt lat="42.1106273" lon="13.38185"><ele>892.0</ele><time>2026-05-02T14:37:46.615Z</time></trkpt><trkpt lat="42.110634" lon="13.3816792"><ele>892.0</ele><time>2026-05-02T14:37:48.616Z</time></trkpt><trkpt lat="42.1106375" lon="13.3815774"><ele>891.9999999999999</ele><time>2026-05-02T14:37:49.616Z</time></trkpt><trkpt lat="42.1106439" lon="13.3814722"><ele>892.0</ele><time>2026-05-02T14:37:50.616Z</time></trkpt><trkpt lat="42.1106496" lon="13.3813592"><ele>892.3333333333333</ele><time>2026-05-02T14:37:51.615Z</time></trkpt><trkpt lat="42.1106554" lon="13.3812404"><ele>892.6666666666666</ele><time>2026-05-02T14:37:52.615Z</time></trkpt><trkpt lat="42.1106665" lon="13.3811248"><ele>893.0</ele><time>2026-05-02T14:37:53.615Z</time></trkpt><trkpt lat="42.1106819" lon="13.3810189"><ele>893.3333333333333</ele><time>2026-05-02T14:37:54.615Z</time></trkpt><trkpt lat="42.110703" lon="13.38093"><ele>893.6666666666666</ele><time>2026-05-02T14:37:55.614Z</time></trkpt><trkpt lat="42.1107521" lon="13.380794"><ele>894.0</ele><time>2026-05-02T14:37:57.616Z</time></trkpt><trkpt lat="42.1108139" lon="13.380708"><ele>895.1666666666666</ele><time>2026-05-02T14:37:59.615Z</time></trkpt><trkpt lat="42.1109109" lon="13.3806403"><ele>896.3333333333333</ele><time>2026-05-02T14:38:01.616Z</time></trkpt><trkpt lat="42.1109862" lon="13.380613"><ele>897.5</ele><time>2026-05-02T14:38:03.615Z</time></trkpt><trkpt lat="42.1110557" lon="13.3806"><ele>898.6666666666666</ele><time>2026-05-02T14:38:06.615Z</time></trkpt><trkpt lat="42.1111201" lon="13.3806508"><ele>899.8333333333333</ele><time>2026-05-02T14:38:12.616Z</time></trkpt><trkpt lat="42.1111819" lon="13.380613"><ele>901.0</ele><time>2026-05-02T14:38:15.616Z</time></trkpt><trkpt lat="42.1111217" lon="13.3805754"><ele>901.0</ele><time>2026-05-02T14:38:18.615Z</time></trkpt><trkpt lat="42.1110196" lon="13.3806101"><ele>900.9999999999999</ele><time>2026-05-02T14:38:20.616Z</time></trkpt><trkpt lat="42.1109143" lon="13.380645"><ele>900.9999999999999</ele><time>2026-05-02T14:38:22.615Z</time></trkpt><trkpt lat="42.1108208" lon="13.3807094"><ele>901.0</ele><time>2026-05-02T14:38:24.615Z</time></trkpt><trkpt lat="42.1107616" lon="13.3807455"><ele>901.0</ele><time>2026-05-02T14:38:32.616Z</time></trkpt><trkpt lat="42.1107325" lon="13.3808476"><ele>899.8333333333333</ele><time>2026-05-02T14:38:35.615Z</time></trkpt><trkpt lat="42.1107022" lon="13.3809547"><ele>898.6666666666666</ele><time>2026-05-02T14:38:38.615Z</time></trkpt><trkpt lat="42.1106724" lon="13.3810302"><ele>897.5</ele><time>2026-05-02T14:38:40.615Z</time></trkpt><trkpt lat="42.1106118" lon="13.3810784"><ele>896.3333333333333</ele><time>2026-05-02T14:38:42.616Z</time></trkpt><trkpt lat="42.1105414" lon="13.3810892"><ele>895.1666666666666</ele><time>2026-05-02T14:38:45.616Z</time></trkpt><trkpt lat="42.1105324" lon="13.3809485"><ele>894.0</ele><time>2026-05-02T14:38:54.614Z</time></trkpt><trkpt lat="42.1105172" lon="13.3808383"><ele>894.0</ele><time>2026-05-02T14:38:55.615Z</time></trkpt><trkpt lat="42.1105061" lon="13.380734"><ele>894.0</ele><time>2026-05-02T14:38:56.614Z</time></trkpt><trkpt lat="42.1105013" lon="13.3806228"><ele>894.0</ele><time>2026-05-02T14:38:57.615Z</time></trkpt><trkpt lat="42.1104976" lon="13.3805101"><ele>894.0</ele><time>2026-05-02T14:38:58.616Z</time></trkpt><trkpt lat="42.1104993" lon="13.3804128"><ele>894.0</ele><time>2026-05-02T14:38:59.616Z</time></trkpt><trkpt lat="42.1105047" lon="13.3803262"><ele>894.0</ele><time>2026-05-02T14:39:00.613Z</time></trkpt><trkpt lat="42.1104981" lon="13.3801885"><ele>894.2</ele><time>2026-05-02T14:39:02.614Z</time></trkpt><trkpt lat="42.1105317" lon="13.3801076"><ele>894.4000000000001</ele><time>2026-05-02T14:39:06.616Z</time></trkpt><trkpt lat="42.1105835" lon="13.3800109"><ele>894.6</ele><time>2026-05-02T14:39:09.615Z</time></trkpt><trkpt lat="42.11059" lon="13.3798963"><ele>894.8</ele><time>2026-05-02T14:39:11.615Z</time></trkpt><trkpt lat="42.1105503" lon="13.3797668"><ele>895.0</ele><time>2026-05-02T14:39:13.615Z</time></trkpt><trkpt lat="42.1104787" lon="13.3796212"><ele>896.3333333333333</ele><time>2026-05-02T14:39:15.614Z</time></trkpt><trkpt lat="42.1104275" lon="13.3795414"><ele>897.6666666666666</ele><time>2026-05-02T14:39:16.614Z</time></trkpt><trkpt lat="42.1103715" lon="13.3794634"><ele>899.0</ele><time>2026-05-02T14:39:17.616Z</time></trkpt><trkpt lat="42.110316" lon="13.3793923"><ele>900.3333333333333</ele><time>2026-05-02T14:39:18.615Z</time></trkpt><trkpt lat="42.1102626" lon="13.3793311"><ele>901.6666666666666</ele><time>2026-05-02T14:39:19.614Z</time></trkpt><trkpt lat="42.1102064" lon="13.3792896"><ele>903.0</ele><time>2026-05-02T14:39:20.614Z</time></trkpt><trkpt lat="42.1100858" lon="13.379271"><ele>903.0</ele><time>2026-05-02T14:39:22.615Z</time></trkpt><trkpt lat="42.1100134" lon="13.3792795"><ele>903.0</ele><time>2026-05-02T14:39:23.615Z</time></trkpt><trkpt lat="42.1099358" lon="13.3792853"><ele>903.0</ele><time>2026-05-02T14:39:24.616Z</time></trkpt><trkpt lat="42.1098574" lon="13.3792834"><ele>903.0</ele><time>2026-05-02T14:39:25.615Z</time></trkpt><trkpt lat="42.109778" lon="13.379273"><ele>903.0</ele><time>2026-05-02T14:39:26.616Z</time></trkpt><trkpt lat="42.1096965" lon="13.379255"><ele>903.0</ele><time>2026-05-02T14:39:27.614Z</time></trkpt><trkpt lat="42.1096135" lon="13.3792375"><ele>901.8333333333334</ele><time>2026-05-02T14:39:28.615Z</time></trkpt><trkpt lat="42.1095282" lon="13.3792115"><ele>900.6666666666667</ele><time>2026-05-02T14:39:29.615Z</time></trkpt><trkpt lat="42.1094526" lon="13.3791808"><ele>899.5</ele><time>2026-05-02T14:39:30.616Z</time></trkpt><trkpt lat="42.1093845" lon="13.3791495"><ele>898.3333333333334</ele><time>2026-05-02T14:39:31.615Z</time></trkpt><trkpt lat="42.1092847" lon="13.3790954"><ele>897.1666666666667</ele><time>2026-05-02T14:39:33.615Z</time></trkpt><trkpt lat="42.1092419" lon="13.3790309"><ele>896.0</ele><time>2026-05-02T14:39:35.615Z</time></trkpt><trkpt lat="42.1092333" lon="13.3789065"><ele>896.5999999999999</ele><time>2026-05-02T14:39:37.615Z</time></trkpt><trkpt lat="42.1092049" lon="13.3787506"><ele>897.1999999999999</ele><time>2026-05-02T14:39:39.613Z</time></trkpt><trkpt lat="42.1091609" lon="13.3786108"><ele>897.8000000000001</ele><time>2026-05-02T14:39:41.615Z</time></trkpt><trkpt lat="42.1090971" lon="13.3784858"><ele>898.4000000000001</ele><time>2026-05-02T14:39:43.616Z</time></trkpt><trkpt lat="42.1090468" lon="13.3783962"><ele>899.0</ele><time>2026-05-02T14:39:44.615Z</time></trkpt><trkpt lat="42.1089844" lon="13.3782824"><ele>899.0</ele><time>2026-05-02T14:39:45.615Z</time></trkpt><trkpt lat="42.1089215" lon="13.3781712"><ele>899.0000000000001</ele><time>2026-05-02T14:39:46.616Z</time></trkpt><trkpt lat="42.1088595" lon="13.378074"><ele>899.0000000000001</ele><time>2026-05-02T14:39:47.616Z</time></trkpt><trkpt lat="42.1087938" lon="13.3779877"><ele>899.0</ele><time>2026-05-02T14:39:48.616Z</time></trkpt><trkpt lat="42.1087256" lon="13.3779125"><ele>899.0</ele><time>2026-05-02T14:39:49.615Z</time></trkpt><trkpt lat="42.1086559" lon="13.3778472"><ele>901.0000000000001</ele><time>2026-05-02T14:39:50.616Z</time></trkpt><trkpt lat="42.1085876" lon="13.3777884"><ele>903.0</ele><time>2026-05-02T14:39:51.616Z</time></trkpt><trkpt lat="42.1085195" lon="13.3777333"><ele>905.0</ele><time>2026-05-02T14:39:52.616Z</time></trkpt><trkpt lat="42.1084428" lon="13.3776902"><ele>907.0</ele><time>2026-05-02T14:39:53.615Z</time></trkpt><trkpt lat="42.1083608" lon="13.3776611"><ele>909.0000000000001</ele><time>2026-05-02T14:39:54.616Z</time></trkpt><trkpt lat="42.1082849" lon="13.3776359"><ele>911.0</ele><time>2026-05-02T14:39:55.614Z</time></trkpt><trkpt lat="42.108209" lon="13.3776104"><ele>911.0000000000001</ele><time>2026-05-02T14:39:56.616Z</time></trkpt><trkpt lat="42.1081301" lon="13.3775926"><ele>911.0</ele><time>2026-05-02T14:39:57.615Z</time></trkpt><trkpt lat="42.108064" lon="13.3775754"><ele>911.0</ele><time>2026-05-02T14:39:58.616Z</time></trkpt><trkpt lat="42.1079445" lon="13.3775415"><ele>911.0</ele><time>2026-05-02T14:40:00.615Z</time></trkpt><trkpt lat="42.1078792" lon="13.3775055"><ele>911.0000000000001</ele><time>2026-05-02T14:40:02.615Z</time></trkpt><trkpt lat="42.107814" lon="13.3774453"><ele>911.0</ele><time>2026-05-02T14:40:04.615Z</time></trkpt><trkpt lat="42.1077501" lon="13.3773704"><ele>911.0000000000001</ele><time>2026-05-02T14:40:06.615Z</time></trkpt><trkpt lat="42.1076853" lon="13.3772816"><ele>911.0</ele><time>2026-05-02T14:40:08.615Z</time></trkpt><trkpt lat="42.1076449" lon="13.3772141"><ele>911.0</ele><time>2026-05-02T14:40:11.616Z</time></trkpt><trkpt lat="42.1075736" lon="13.377147"><ele>911.0</ele><time>2026-05-02T14:40:19.616Z</time></trkpt><trkpt lat="42.1074993" lon="13.377117"><ele>911.0000000000001</ele><time>2026-05-02T14:40:21.615Z</time></trkpt><trkpt lat="42.10742" lon="13.3770763"><ele>911.0</ele><time>2026-05-02T14:40:23.615Z</time></trkpt><trkpt lat="42.107355" lon="13.3770186"><ele>911.0000000000001</ele><time>2026-05-02T14:40:26.613Z</time></trkpt><trkpt lat="42.1072898" lon="13.3769538"><ele>911.0</ele><time>2026-05-02T14:40:30.613Z</time></trkpt><trkpt lat="42.1073186" lon="13.3770392"><ele>911.0</ele><time>2026-05-02T14:41:47.614Z</time></trkpt><trkpt lat="42.1073168" lon="13.3771532"><ele>911.0</ele><time>2026-05-02T14:41:50.615Z</time></trkpt><trkpt lat="42.1072597" lon="13.3772349"><ele>911.0000000000001</ele><time>2026-05-02T14:41:54.615Z</time></trkpt><trkpt lat="42.1071842" lon="13.3772196"><ele>911.0</ele><time>2026-05-02T14:41:57.615Z</time></trkpt><trkpt lat="42.1070902" lon="13.3771777"><ele>910.1999999999999</ele><time>2026-05-02T14:41:59.616Z</time></trkpt><trkpt lat="42.1069928" lon="13.3771499"><ele>909.3999999999999</ele><time>2026-05-02T14:42:01.615Z</time></trkpt><trkpt lat="42.1069068" lon="13.3770671"><ele>908.6</ele><time>2026-05-02T14:42:03.614Z</time></trkpt><trkpt lat="42.106817" lon="13.3769713"><ele>907.8</ele><time>2026-05-02T14:42:05.615Z</time></trkpt><trkpt lat="42.1067394" lon="13.3768788"><ele>907.0</ele><time>2026-05-02T14:42:07.615Z</time></trkpt><trkpt lat="42.1066443" lon="13.3768036"><ele>905.0</ele><time>2026-05-02T14:42:09.615Z</time></trkpt><trkpt lat="42.1065399" lon="13.3767462"><ele>903.0</ele><time>2026-05-02T14:42:11.615Z</time></trkpt><trkpt lat="42.1064397" lon="13.3766923"><ele>901.0</ele><time>2026-05-02T14:42:13.616Z</time></trkpt><trkpt lat="42.1063448" lon="13.3766625"><ele>899.0</ele><time>2026-05-02T14:42:15.616Z</time></trkpt><trkpt lat="42.1062423" lon="13.3766729"><ele>897.0</ele><time>2026-05-02T14:42:17.616Z</time></trkpt><trkpt lat="42.1061684" lon="13.3767045"><ele>897.0</ele><time>2026-05-02T14:42:19.616Z</time></trkpt><trkpt lat="42.1061035" lon="13.3766638"><ele>897.0</ele><time>2026-05-02T14:42:21.611Z</time></trkpt><trkpt lat="42.1060309" lon="13.3765811"><ele>897.0</ele><time>2026-05-02T14:42:23.615Z</time></trkpt><trkpt lat="42.1059716" lon="13.3765331"><ele>897.0</ele><time>2026-05-02T14:42:25.615Z</time></trkpt><trkpt lat="42.1058796" lon="13.3764934"><ele>897.0</ele><time>2026-05-02T14:42:28.615Z</time></trkpt><trkpt lat="42.1058135" lon="13.3764843"><ele>897.0</ele><time>2026-05-02T14:42:31.615Z</time></trkpt><trkpt lat="42.1057675" lon="13.3765463"><ele>892.6</ele><time>2026-05-02T14:42:33.614Z</time></trkpt><trkpt lat="42.1057159" lon="13.3766656"><ele>888.2</ele><time>2026-05-02T14:42:35.615Z</time></trkpt><trkpt lat="42.1056695" lon="13.3767925"><ele>883.8</ele><time>2026-05-02T14:42:37.614Z</time></trkpt><trkpt lat="42.1056314" lon="13.3769014"><ele>879.4</ele><time>2026-05-02T14:42:39.615Z</time></trkpt><trkpt lat="42.105632" lon="13.3769912"><ele>875.0</ele><time>2026-05-02T14:42:42.614Z</time></trkpt><trkpt lat="42.1056636" lon="13.3768297"><ele>875.0000000000001</ele><time>2026-05-02T14:42:57.615Z</time></trkpt><trkpt lat="42.1057109" lon="13.3767054"><ele>875.0</ele><time>2026-05-02T14:42:59.615Z</time></trkpt><trkpt lat="42.1057566" lon="13.3765909"><ele>875.0</ele><time>2026-05-02T14:43:01.615Z</time></trkpt><trkpt lat="42.1058092" lon="13.376509"><ele>875.0</ele><time>2026-05-02T14:43:04.614Z</time></trkpt><trkpt lat="42.1058721" lon="13.3764629"><ele>875.0000000000001</ele><time>2026-05-02T14:43:06.616Z</time></trkpt><trkpt lat="42.1059286" lon="13.3764224"><ele>875.0</ele><time>2026-05-02T14:43:08.616Z</time></trkpt><trkpt lat="42.1059391" lon="13.3763354"><ele>875.8</ele><time>2026-05-02T14:43:14.613Z</time></trkpt><trkpt lat="42.1058758" lon="13.3762527"><ele>876.6</ele><time>2026-05-02T14:43:17.615Z</time></trkpt><trkpt lat="42.1058159" lon="13.3761806"><ele>877.4000000000001</ele><time>2026-05-02T14:43:19.615Z</time></trkpt><trkpt lat="42.1057571" lon="13.3760916"><ele>878.2</ele><time>2026-05-02T14:43:21.616Z</time></trkpt><trkpt lat="42.1056974" lon="13.3759871"><ele>879.0</ele><time>2026-05-02T14:43:23.615Z</time></trkpt><trkpt lat="42.1056259" lon="13.375885"><ele>879.0</ele><time>2026-05-02T14:43:25.615Z</time></trkpt><trkpt lat="42.1055518" lon="13.3757939"><ele>879.0000000000001</ele><time>2026-05-02T14:43:27.616Z</time></trkpt><trkpt lat="42.1054726" lon="13.3756919"><ele>879.0000000000001</ele><time>2026-05-02T14:43:29.616Z</time></trkpt><trkpt lat="42.105424" lon="13.3756349"><ele>879.0</ele><time>2026-05-02T14:43:30.615Z</time></trkpt><trkpt lat="42.1053413" lon="13.3755256"><ele>879.0</ele><time>2026-05-02T14:43:32.615Z</time></trkpt><trkpt lat="42.105273" lon="13.3754145"><ele>879.8000000000001</ele><time>2026-05-02T14:43:34.612Z</time></trkpt><trkpt lat="42.1052007" lon="13.3753123"><ele>880.6000000000001</ele><time>2026-05-02T14:43:36.614Z</time></trkpt><trkpt lat="42.1051249" lon="13.3752378"><ele>881.4</ele><time>2026-05-02T14:43:38.614Z</time></trkpt><trkpt lat="42.1050435" lon="13.3751713"><ele>882.2</ele><time>2026-05-02T14:43:40.613Z</time></trkpt><trkpt lat="42.105026" lon="13.3750585"><ele>883.0</ele><time>2026-05-02T14:43:42.616Z</time></trkpt><trkpt lat="42.1049872" lon="13.3749285"><ele>881.1666666666666</ele><time>2026-05-02T14:43:45.614Z</time></trkpt><trkpt lat="42.1048918" lon="13.3748224"><ele>879.3333333333333</ele><time>2026-05-02T14:43:47.616Z</time></trkpt><trkpt lat="42.1048557" lon="13.374744"><ele>877.5</ele><time>2026-05-02T14:43:48.615Z</time></trkpt><trkpt lat="42.1048239" lon="13.3746625"><ele>875.6666666666667</ele><time>2026-05-02T14:43:49.614Z</time></trkpt><trkpt lat="42.1047969" lon="13.3745746"><ele>873.8333333333334</ele><time>2026-05-02T14:43:50.614Z</time></trkpt><trkpt lat="42.1047719" lon="13.3744942"><ele>872.0</ele><time>2026-05-02T14:43:51.615Z</time></trkpt><trkpt lat="42.1047191" lon="13.3743745"><ele>872.0000000000001</ele><time>2026-05-02T14:43:53.615Z</time></trkpt><trkpt lat="42.1046542" lon="13.3743081"><ele>872.0</ele><time>2026-05-02T14:43:55.615Z</time></trkpt><trkpt lat="42.1045571" lon="13.374291"><ele>872.0</ele><time>2026-05-02T14:43:58.615Z</time></trkpt><trkpt lat="42.1045013" lon="13.3742455"><ele>872.0</ele><time>2026-05-02T14:44:00.615Z</time></trkpt><trkpt lat="42.104454" lon="13.3741468"><ele>872.0000000000001</ele><time>2026-05-02T14:44:02.616Z</time></trkpt><trkpt lat="42.1044216" lon="13.374069"><ele>872.0</ele><time>2026-05-02T14:44:03.615Z</time></trkpt><trkpt lat="42.1043818" lon="13.3739793"><ele>872.0000000000001</ele><time>2026-05-02T14:44:04.614Z</time></trkpt><trkpt lat="42.1043304" lon="13.3738839"><ele>872.0</ele><time>2026-05-02T14:44:05.613Z</time></trkpt><trkpt lat="42.104273" lon="13.373795"><ele>872.0</ele><time>2026-05-02T14:44:06.615Z</time></trkpt><trkpt lat="42.1042115" lon="13.3737181"><ele>872.0</ele><time>2026-05-02T14:44:07.615Z</time></trkpt><trkpt lat="42.1041575" lon="13.3736482"><ele>872.0000000000001</ele><time>2026-05-02T14:44:08.615Z</time></trkpt><trkpt lat="42.104101" lon="13.3735751"><ele>872.0</ele><time>2026-05-02T14:44:09.616Z</time></trkpt><trkpt lat="42.1040474" lon="13.3735084"><ele>871.2857142857143</ele><time>2026-05-02T14:44:10.615Z</time></trkpt><trkpt lat="42.1040038" lon="13.3734411"><ele>870.5714285714287</ele><time>2026-05-02T14:44:11.616Z</time></trkpt><trkpt lat="42.103967" lon="13.3733635"><ele>869.8571428571429</ele><time>2026-05-02T14:44:12.614Z</time></trkpt><trkpt lat="42.1039272" lon="13.3732957"><ele>869.1428571428571</ele><time>2026-05-02T14:44:13.613Z</time></trkpt><trkpt lat="42.103874" lon="13.3732327"><ele>868.4285714285714</ele><time>2026-05-02T14:44:14.615Z</time></trkpt><trkpt lat="42.1038207" lon="13.3731734"><ele>867.7142857142857</ele><time>2026-05-02T14:44:15.615Z</time></trkpt><trkpt lat="42.1037624" lon="13.3731052"><ele>867.0</ele><time>2026-05-02T14:44:16.615Z</time></trkpt><trkpt lat="42.1037031" lon="13.373045"><ele>868.6666666666666</ele><time>2026-05-02T14:44:17.614Z</time></trkpt><trkpt lat="42.1036473" lon="13.3729766"><ele>870.3333333333333</ele><time>2026-05-02T14:44:18.614Z</time></trkpt><trkpt lat="42.1036002" lon="13.3728987"><ele>872.0</ele><time>2026-05-02T14:44:19.613Z</time></trkpt><trkpt lat="42.1035538" lon="13.3728172"><ele>873.6666666666666</ele><time>2026-05-02T14:44:20.616Z</time></trkpt><trkpt lat="42.1035154" lon="13.3727421"><ele>875.3333333333333</ele><time>2026-05-02T14:44:21.615Z</time></trkpt><trkpt lat="42.1034763" lon="13.3726749"><ele>877.0</ele><time>2026-05-02T14:44:22.614Z</time></trkpt><trkpt lat="42.1034116" lon="13.3725697"><ele>876.9999999999999</ele><time>2026-05-02T14:44:24.613Z</time></trkpt><trkpt lat="42.1033331" lon="13.3724835"><ele>877.0</ele><time>2026-05-02T14:44:26.612Z</time></trkpt><trkpt lat="42.103315" lon="13.3723805"><ele>877.0</ele><time>2026-05-02T14:44:28.612Z</time></trkpt><trkpt lat="42.1033014" lon="13.3722813"><ele>877.0</ele><time>2026-05-02T14:44:30.615Z</time></trkpt><trkpt lat="42.1032396" lon="13.3721712"><ele>876.9999999999999</ele><time>2026-05-02T14:44:32.615Z</time></trkpt><trkpt lat="42.1031861" lon="13.3721116"><ele>877.0</ele><time>2026-05-02T14:44:33.615Z</time></trkpt><trkpt lat="42.1031011" lon="13.3720166"><ele>874.8</ele><time>2026-05-02T14:44:35.615Z</time></trkpt><trkpt lat="42.1030245" lon="13.3719207"><ele>872.6</ele><time>2026-05-02T14:44:37.615Z</time></trkpt><trkpt lat="42.1029228" lon="13.3718463"><ele>870.3999999999999</ele><time>2026-05-02T14:44:39.615Z</time></trkpt><trkpt lat="42.1028436" lon="13.371776"><ele>868.1999999999999</ele><time>2026-05-02T14:44:41.612Z</time></trkpt><trkpt lat="42.1027706" lon="13.3716855"><ele>866.0</ele><time>2026-05-02T14:44:43.612Z</time></trkpt><trkpt lat="42.1027105" lon="13.3715846"><ele>866.0</ele><time>2026-05-02T14:44:45.616Z</time></trkpt><trkpt lat="42.102655" lon="13.3714704"><ele>865.9999999999999</ele><time>2026-05-02T14:44:47.614Z</time></trkpt><trkpt lat="42.1025943" lon="13.3713537"><ele>865.9999999999999</ele><time>2026-05-02T14:44:49.615Z</time></trkpt><trkpt lat="42.1025164" lon="13.3712751"><ele>866.0</ele><time>2026-05-02T14:44:51.616Z</time></trkpt><trkpt lat="42.1024261" lon="13.3712171"><ele>866.0</ele><time>2026-05-02T14:44:53.613Z</time></trkpt><trkpt lat="42.1023463" lon="13.3711361"><ele>863.3333333333334</ele><time>2026-05-02T14:44:55.615Z</time></trkpt><trkpt lat="42.10228" lon="13.3710639"><ele>860.6666666666667</ele><time>2026-05-02T14:44:57.615Z</time></trkpt><trkpt lat="42.1021961" lon="13.3710125"><ele>858.0</ele><time>2026-05-02T14:44:59.616Z</time></trkpt><trkpt lat="42.1021229" lon="13.3709243"><ele>855.3333333333333</ele><time>2026-05-02T14:45:01.612Z</time></trkpt><trkpt lat="42.1020419" lon="13.3708648"><ele>852.6666666666666</ele><time>2026-05-02T14:45:03.615Z</time></trkpt><trkpt lat="42.1019693" lon="13.3708195"><ele>850.0</ele><time>2026-05-02T14:45:05.612Z</time></trkpt><trkpt lat="42.1019087" lon="13.3707626"><ele>849.9999999999999</ele><time>2026-05-02T14:45:07.615Z</time></trkpt><trkpt lat="42.101841" lon="13.370687"><ele>850.0</ele><time>2026-05-02T14:45:09.615Z</time></trkpt><trkpt lat="42.1017666" lon="13.3706665"><ele>850.0</ele><time>2026-05-02T14:45:11.614Z</time></trkpt><trkpt lat="42.1017034" lon="13.3706244"><ele>850.0</ele><time>2026-05-02T14:45:13.616Z</time></trkpt><trkpt lat="42.1016566" lon="13.3705501"><ele>849.9999999999999</ele><time>2026-05-02T14:45:15.615Z</time></trkpt><trkpt lat="42.1015915" lon="13.3704885"><ele>850.0</ele><time>2026-05-02T14:45:17.614Z</time></trkpt><trkpt lat="42.1015207" lon="13.370495"><ele>846.3333333333333</ele><time>2026-05-02T14:45:19.615Z</time></trkpt><trkpt lat="42.1014461" lon="13.3705337"><ele>842.6666666666666</ele><time>2026-05-02T14:45:21.614Z</time></trkpt><trkpt lat="42.1013677" lon="13.370495"><ele>839.0</ele><time>2026-05-02T14:45:23.616Z</time></trkpt><trkpt lat="42.1012871" lon="13.3704938"><ele>835.3333333333333</ele><time>2026-05-02T14:45:26.615Z</time></trkpt><trkpt lat="42.1012172" lon="13.37049"><ele>831.6666666666666</ele><time>2026-05-02T14:45:29.613Z</time></trkpt><trkpt lat="42.1011397" lon="13.3704816"><ele>828.0</ele><time>2026-05-02T14:45:32.615Z</time></trkpt><trkpt lat="42.1010666" lon="13.3705519"><ele>828.0</ele><time>2026-05-02T14:45:35.615Z</time></trkpt><trkpt lat="42.1010094" lon="13.3705964"><ele>828.0</ele><time>2026-05-02T14:45:37.615Z</time></trkpt><trkpt lat="42.100948" lon="13.3706446"><ele>828.0</ele><time>2026-05-02T14:45:39.616Z</time></trkpt><trkpt lat="42.100866" lon="13.3706913"><ele>828.0</ele><time>2026-05-02T14:45:42.615Z</time></trkpt><trkpt lat="42.1007902" lon="13.3706359"><ele>828.0</ele><time>2026-05-02T14:45:44.616Z</time></trkpt><trkpt lat="42.1007059" lon="13.3705687"><ele>828.0</ele><time>2026-05-02T14:45:46.614Z</time></trkpt><trkpt lat="42.1006209" lon="13.3705003"><ele>826.1666666666666</ele><time>2026-05-02T14:45:48.615Z</time></trkpt><trkpt lat="42.1005416" lon="13.3704451"><ele>824.3333333333333</ele><time>2026-05-02T14:45:50.616Z</time></trkpt><trkpt lat="42.1004679" lon="13.3704335"><ele>822.5</ele><time>2026-05-02T14:45:52.614Z</time></trkpt><trkpt lat="42.1003961" lon="13.3704368"><ele>820.6666666666666</ele><time>2026-05-02T14:45:54.615Z</time></trkpt><trkpt lat="42.1003165" lon="13.3704779"><ele>818.8333333333333</ele><time>2026-05-02T14:45:56.615Z</time></trkpt><trkpt lat="42.1002521" lon="13.3705318"><ele>817.0</ele><time>2026-05-02T14:45:58.616Z</time></trkpt><trkpt lat="42.1001616" lon="13.370509"><ele>817.0</ele><time>2026-05-02T14:46:01.616Z</time></trkpt><trkpt lat="42.1000691" lon="13.3704244"><ele>817.0</ele><time>2026-05-02T14:46:03.616Z</time></trkpt><trkpt lat="42.0999727" lon="13.3703415"><ele>817.0</ele><time>2026-05-02T14:46:05.616Z</time></trkpt><trkpt lat="42.0998697" lon="13.3702617"><ele>817.0</ele><time>2026-05-02T14:46:07.612Z</time></trkpt><trkpt lat="42.0997738" lon="13.3701753"><ele>814.1666666666666</ele><time>2026-05-02T14:46:09.615Z</time></trkpt><trkpt lat="42.0996708" lon="13.3700844"><ele>811.3333333333333</ele><time>2026-05-02T14:46:11.614Z</time></trkpt><trkpt lat="42.0996181" lon="13.3700313"><ele>808.5</ele><time>2026-05-02T14:46:12.613Z</time></trkpt><trkpt lat="42.0995678" lon="13.369968"><ele>805.6666666666667</ele><time>2026-05-02T14:46:13.614Z</time></trkpt><trkpt lat="42.0995174" lon="13.3699057"><ele>802.8333333333334</ele><time>2026-05-02T14:46:14.612Z</time></trkpt><trkpt lat="42.0994666" lon="13.3698434"><ele>800.0</ele><time>2026-05-02T14:46:15.613Z</time></trkpt><trkpt lat="42.099416" lon="13.3697778"><ele>800.0000000000001</ele><time>2026-05-02T14:46:16.615Z</time></trkpt><trkpt lat="42.0993673" lon="13.3697064"><ele>800.0</ele><time>2026-05-02T14:46:17.616Z</time></trkpt><trkpt lat="42.0993181" lon="13.3696356"><ele>800.0</ele><time>2026-05-02T14:46:18.616Z</time></trkpt><trkpt lat="42.0992661" lon="13.3695666"><ele>800.0</ele><time>2026-05-02T14:46:19.616Z</time></trkpt><trkpt lat="42.0992065" lon="13.3695031"><ele>800.0</ele><time>2026-05-02T14:46:20.615Z</time></trkpt><trkpt lat="42.0991428" lon="13.3694444"><ele>800.0000000000001</ele><time>2026-05-02T14:46:21.615Z</time></trkpt><trkpt lat="42.0990819" lon="13.3693774"><ele>800.0</ele><time>2026-05-02T14:46:22.615Z</time></trkpt><trkpt lat="42.0990235" lon="13.369308"><ele>798.5714285714287</ele><time>2026-05-02T14:46:23.611Z</time></trkpt><trkpt lat="42.098969" lon="13.3692519"><ele>797.1428571428571</ele><time>2026-05-02T14:46:24.615Z</time></trkpt><trkpt lat="42.0989164" lon="13.3692014"><ele>795.7142857142858</ele><time>2026-05-02T14:46:25.614Z</time></trkpt><trkpt lat="42.0988608" lon="13.3691445"><ele>794.2857142857143</ele><time>2026-05-02T14:46:26.615Z</time></trkpt><trkpt lat="42.0988098" lon="13.369082"><ele>792.8571428571429</ele><time>2026-05-02T14:46:27.616Z</time></trkpt><trkpt lat="42.0987622" lon="13.3690213"><ele>791.4285714285714</ele><time>2026-05-02T14:46:28.616Z</time></trkpt><trkpt lat="42.09871" lon="13.3689697"><ele>790.0</ele><time>2026-05-02T14:46:29.615Z</time></trkpt><trkpt lat="42.0986532" lon="13.3689279"><ele>790.0</ele><time>2026-05-02T14:46:30.614Z</time></trkpt><trkpt lat="42.0985956" lon="13.3688892"><ele>790.0</ele><time>2026-05-02T14:46:31.615Z</time></trkpt><trkpt lat="42.098538" lon="13.3688493"><ele>790.0</ele><time>2026-05-02T14:46:32.614Z</time></trkpt><trkpt lat="42.098476" lon="13.3688112"><ele>790.0</ele><time>2026-05-02T14:46:33.611Z</time></trkpt><trkpt lat="42.0984118" lon="13.3687787"><ele>790.0</ele><time>2026-05-02T14:46:34.611Z</time></trkpt><trkpt lat="42.0983475" lon="13.3687464"><ele>790.0</ele><time>2026-05-02T14:46:35.611Z</time></trkpt><trkpt lat="42.0982811" lon="13.368709"><ele>790.0</ele><time>2026-05-02T14:46:36.615Z</time></trkpt><trkpt lat="42.0982165" lon="13.3686733"><ele>789.4285714285714</ele><time>2026-05-02T14:46:37.615Z</time></trkpt><trkpt lat="42.0981556" lon="13.3686398"><ele>788.8571428571429</ele><time>2026-05-02T14:46:38.615Z</time></trkpt><trkpt lat="42.0980945" lon="13.368609"><ele>788.2857142857143</ele><time>2026-05-02T14:46:39.612Z</time></trkpt><trkpt lat="42.0980286" lon="13.3685798"><ele>787.7142857142858</ele><time>2026-05-02T14:46:40.612Z</time></trkpt><trkpt lat="42.0979578" lon="13.3685488"><ele>787.1428571428571</ele><time>2026-05-02T14:46:41.611Z</time></trkpt><trkpt lat="42.0978874" lon="13.3685161"><ele>786.5714285714287</ele><time>2026-05-02T14:46:42.615Z</time></trkpt><trkpt lat="42.0978196" lon="13.3684826"><ele>786.0</ele><time>2026-05-02T14:46:43.611Z</time></trkpt><trkpt lat="42.0977505" lon="13.3684507"><ele>786.0</ele><time>2026-05-02T14:46:44.613Z</time></trkpt><trkpt lat="42.0976832" lon="13.3684199"><ele>786.0</ele><time>2026-05-02T14:46:45.613Z</time></trkpt><trkpt lat="42.0976208" lon="13.3683921"><ele>786.0</ele><time>2026-05-02T14:46:46.616Z</time></trkpt><trkpt lat="42.0975109" lon="13.3683512"><ele>786.0</ele><time>2026-05-02T14:46:48.615Z</time></trkpt><trkpt lat="42.0974004" lon="13.3683248"><ele>786.0</ele><time>2026-05-02T14:46:50.616Z</time></trkpt><trkpt lat="42.0973371" lon="13.3683048"><ele>786.0</ele><time>2026-05-02T14:46:51.616Z</time></trkpt><trkpt lat="42.0972244" lon="13.3682696"><ele>782.0</ele><time>2026-05-02T14:46:53.616Z</time></trkpt><trkpt lat="42.0971124" lon="13.3682257"><ele>778.0</ele><time>2026-05-02T14:46:55.615Z</time></trkpt><trkpt lat="42.0969965" lon="13.3681613"><ele>774.0</ele><time>2026-05-02T14:46:57.615Z</time></trkpt><trkpt lat="42.0968852" lon="13.3680875"><ele>770.0</ele><time>2026-05-02T14:46:59.613Z</time></trkpt><trkpt lat="42.096786" lon="13.3680093"><ele>768.8</ele><time>2026-05-02T14:47:01.616Z</time></trkpt><trkpt lat="42.0967041" lon="13.367928"><ele>767.6</ele><time>2026-05-02T14:47:03.615Z</time></trkpt><trkpt lat="42.0966288" lon="13.3678433"><ele>766.4000000000001</ele><time>2026-05-02T14:47:05.611Z</time></trkpt><trkpt lat="42.0965594" lon="13.3677721"><ele>765.2</ele><time>2026-05-02T14:47:07.612Z</time></trkpt><trkpt lat="42.0964746" lon="13.3676952"><ele>764.0</ele><time>2026-05-02T14:47:09.616Z</time></trkpt><trkpt lat="42.0963963" lon="13.3675919"><ele>761.8000000000001</ele><time>2026-05-02T14:47:11.616Z</time></trkpt><trkpt lat="42.0963373" lon="13.3674995"><ele>759.6</ele><time>2026-05-02T14:47:13.613Z</time></trkpt><trkpt lat="42.0962604" lon="13.3674258"><ele>757.4</ele><time>2026-05-02T14:47:15.614Z</time></trkpt><trkpt lat="42.0961835" lon="13.3673387"><ele>755.2</ele><time>2026-05-02T14:47:17.612Z</time></trkpt><trkpt lat="42.096115" lon="13.3672674"><ele>753.0</ele><time>2026-05-02T14:47:19.615Z</time></trkpt><trkpt lat="42.0960486" lon="13.3672083"><ele>750.4</ele><time>2026-05-02T14:47:21.615Z</time></trkpt><trkpt lat="42.095964" lon="13.3671519"><ele>747.8</ele><time>2026-05-02T14:47:23.615Z</time></trkpt><trkpt lat="42.095845" lon="13.3671016"><ele>745.2</ele><time>2026-05-02T14:47:25.612Z</time></trkpt><trkpt lat="42.0957745" lon="13.3670808"><ele>742.6</ele><time>2026-05-02T14:47:26.612Z</time></trkpt><trkpt lat="42.095705" lon="13.3670623"><ele>740.0</ele><time>2026-05-02T14:47:27.615Z</time></trkpt><trkpt lat="42.0956002" lon="13.3670284"><ele>738.75</ele><time>2026-05-02T14:47:28.616Z</time></trkpt><trkpt lat="42.0954769" lon="13.36697"><ele>737.5</ele><time>2026-05-02T14:47:29.616Z</time></trkpt><trkpt lat="42.0953494" lon="13.3669041"><ele>736.25</ele><time>2026-05-02T14:47:30.614Z</time></trkpt><trkpt lat="42.0952236" lon="13.3668389"><ele>735.0</ele><time>2026-05-02T14:47:31.616Z</time></trkpt><trkpt lat="42.0951016" lon="13.3667699"><ele>735.0</ele><time>2026-05-02T14:47:32.616Z</time></trkpt><trkpt lat="42.0949863" lon="13.3667107"><ele>735.0</ele><time>2026-05-02T14:47:33.614Z</time></trkpt><trkpt lat="42.0948975" lon="13.3666797"><ele>735.0</ele><time>2026-05-02T14:47:34.613Z</time></trkpt><trkpt lat="42.0948228" lon="13.3666657"><ele>735.0</ele><time>2026-05-02T14:47:35.615Z</time></trkpt><trkpt lat="42.0947119" lon="13.3666761"><ele>735.0</ele><time>2026-05-02T14:47:37.615Z</time></trkpt><trkpt lat="42.0946191" lon="13.3666262"><ele>734.8333333333334</ele><time>2026-05-02T14:47:39.613Z</time></trkpt><trkpt lat="42.0945605" lon="13.3665669"><ele>734.6666666666666</ele><time>2026-05-02T14:47:40.616Z</time></trkpt><trkpt lat="42.0944889" lon="13.3665062"><ele>734.5</ele><time>2026-05-02T14:47:41.614Z</time></trkpt><trkpt lat="42.0944203" lon="13.366438"><ele>734.3333333333333</ele><time>2026-05-02T14:47:42.615Z</time></trkpt><trkpt lat="42.0943663" lon="13.3663649"><ele>734.1666666666666</ele><time>2026-05-02T14:47:43.613Z</time></trkpt><trkpt lat="42.0943302" lon="13.3662416"><ele>734.0</ele><time>2026-05-02T14:47:45.613Z</time></trkpt><trkpt lat="42.0943496" lon="13.3661159"><ele>733.4000000000001</ele><time>2026-05-02T14:47:47.615Z</time></trkpt><trkpt lat="42.0943881" lon="13.3660411"><ele>732.8</ele><time>2026-05-02T14:47:48.615Z</time></trkpt><trkpt lat="42.0944483" lon="13.3659613"><ele>732.2</ele><time>2026-05-02T14:47:49.615Z</time></trkpt><trkpt lat="42.0945246" lon="13.3658602"><ele>731.5999999999999</ele><time>2026-05-02T14:47:50.613Z</time></trkpt><trkpt lat="42.0945976" lon="13.3657424"><ele>731.0</ele><time>2026-05-02T14:47:51.615Z</time></trkpt><trkpt lat="42.0946849" lon="13.3656133"><ele>730.5</ele><time>2026-05-02T14:47:52.615Z</time></trkpt><trkpt lat="42.0947738" lon="13.3654837"><ele>730.0</ele><time>2026-05-02T14:47:53.614Z</time></trkpt><trkpt lat="42.0948541" lon="13.3653598"><ele>729.5</ele><time>2026-05-02T14:47:54.615Z</time></trkpt><trkpt lat="42.0949416" lon="13.3652377"><ele>729.0</ele><time>2026-05-02T14:47:55.616Z</time></trkpt><trkpt lat="42.0950327" lon="13.3651114"><ele>729.0</ele><time>2026-05-02T14:47:56.612Z</time></trkpt><trkpt lat="42.0951239" lon="13.3649813"><ele>729.0</ele><time>2026-05-02T14:47:57.615Z</time></trkpt><trkpt lat="42.0952162" lon="13.3648469"><ele>729.0</ele><time>2026-05-02T14:47:58.613Z</time></trkpt><trkpt lat="42.0953086" lon="13.3647116"><ele>729.0</ele><time>2026-05-02T14:47:59.613Z</time></trkpt><trkpt lat="42.0954119" lon="13.3645895"><ele>728.75</ele><time>2026-05-02T14:48:00.614Z</time></trkpt><trkpt lat="42.0955225" lon="13.3644757"><ele>728.5</ele><time>2026-05-02T14:48:01.615Z</time></trkpt><trkpt lat="42.0956315" lon="13.3643473"><ele>728.25</ele><time>2026-05-02T14:48:02.615Z</time></trkpt><trkpt lat="42.0957349" lon="13.3642038"><ele>728.0</ele><time>2026-05-02T14:48:03.616Z</time></trkpt><trkpt lat="42.095836" lon="13.3640536"><ele>727.0</ele><time>2026-05-02T14:48:04.615Z</time></trkpt><trkpt lat="42.0959386" lon="13.3638971"><ele>726.0</ele><time>2026-05-02T14:48:05.615Z</time></trkpt><trkpt lat="42.0960416" lon="13.3637357"><ele>725.0</ele><time>2026-05-02T14:48:06.615Z</time></trkpt><trkpt lat="42.0961461" lon="13.3635737"><ele>724.0</ele><time>2026-05-02T14:48:07.611Z</time></trkpt><trkpt lat="42.0962557" lon="13.3634023"><ele>723.0</ele><time>2026-05-02T14:48:08.616Z</time></trkpt><trkpt lat="42.0963679" lon="13.3632265"><ele>722.0</ele><time>2026-05-02T14:48:09.615Z</time></trkpt><trkpt lat="42.0964828" lon="13.3630509"><ele>720.0</ele><time>2026-05-02T14:48:10.615Z</time></trkpt><trkpt lat="42.0965991" lon="13.3628813"><ele>718.0</ele><time>2026-05-02T14:48:11.616Z</time></trkpt><trkpt lat="42.0967134" lon="13.3627127"><ele>716.0</ele><time>2026-05-02T14:48:12.613Z</time></trkpt><trkpt lat="42.0968262" lon="13.3625446"><ele>716.0</ele><time>2026-05-02T14:48:13.615Z</time></trkpt><trkpt lat="42.0969402" lon="13.3623704"><ele>716.0</ele><time>2026-05-02T14:48:14.614Z</time></trkpt><trkpt lat="42.0970549" lon="13.3621931"><ele>716.0</ele><time>2026-05-02T14:48:15.615Z</time></trkpt><trkpt lat="42.0971719" lon="13.3620129"><ele>715.6666666666666</ele><time>2026-05-02T14:48:16.614Z</time></trkpt><trkpt lat="42.0972911" lon="13.3618306"><ele>715.3333333333334</ele><time>2026-05-02T14:48:17.615Z</time></trkpt><trkpt lat="42.0974064" lon="13.3616525"><ele>715.0</ele><time>2026-05-02T14:48:18.615Z</time></trkpt><trkpt lat="42.0975182" lon="13.3614786"><ele>714.6666666666667</ele><time>2026-05-02T14:48:19.615Z</time></trkpt><trkpt lat="42.0976321" lon="13.3613013"><ele>714.3333333333334</ele><time>2026-05-02T14:48:20.616Z</time></trkpt><trkpt lat="42.0977482" lon="13.3611244"><ele>714.0</ele><time>2026-05-02T14:48:21.615Z</time></trkpt><trkpt lat="42.0978642" lon="13.360953"><ele>714.0</ele><time>2026-05-02T14:48:22.615Z</time></trkpt><trkpt lat="42.0979836" lon="13.3607829"><ele>714.0</ele><time>2026-05-02T14:48:23.615Z</time></trkpt><trkpt lat="42.0981078" lon="13.3606119"><ele>714.0</ele><time>2026-05-02T14:48:24.615Z</time></trkpt><trkpt lat="42.0982379" lon="13.3604404"><ele>712.3333333333334</ele><time>2026-05-02T14:48:25.616Z</time></trkpt><trkpt lat="42.0983725" lon="13.3602693"><ele>710.6666666666667</ele><time>2026-05-02T14:48:26.611Z</time></trkpt><trkpt lat="42.0985101" lon="13.360098"><ele>709.0</ele><time>2026-05-02T14:48:27.616Z</time></trkpt><trkpt lat="42.0986532" lon="13.359931"><ele>709.0</ele><time>2026-05-02T14:48:28.611Z</time></trkpt><trkpt lat="42.0988012" lon="13.3597682"><ele>709.0</ele><time>2026-05-02T14:48:29.615Z</time></trkpt><trkpt lat="42.0989484" lon="13.3596065"><ele>709.0</ele><time>2026-05-02T14:48:30.615Z</time></trkpt><trkpt lat="42.0990917" lon="13.3594396"><ele>708.6666666666667</ele><time>2026-05-02T14:48:31.616Z</time></trkpt><trkpt lat="42.0992295" lon="13.3592668"><ele>708.3333333333334</ele><time>2026-05-02T14:48:32.612Z</time></trkpt><trkpt lat="42.0993631" lon="13.3590945"><ele>708.0</ele><time>2026-05-02T14:48:33.616Z</time></trkpt><trkpt lat="42.0994972" lon="13.3589234"><ele>708.0</ele><time>2026-05-02T14:48:34.615Z</time></trkpt><trkpt lat="42.0996279" lon="13.3587545"><ele>708.0</ele><time>2026-05-02T14:48:35.616Z</time></trkpt><trkpt lat="42.0997504" lon="13.3585917"><ele>708.0</ele><time>2026-05-02T14:48:36.615Z</time></trkpt><trkpt lat="42.0998694" lon="13.3584357"><ele>708.3333333333334</ele><time>2026-05-02T14:48:37.615Z</time></trkpt><trkpt lat="42.0999922" lon="13.3582881"><ele>708.6666666666667</ele><time>2026-05-02T14:48:38.616Z</time></trkpt><trkpt lat="42.1001187" lon="13.358151"><ele>709.0</ele><time>2026-05-02T14:48:39.616Z</time></trkpt><trkpt lat="42.1002412" lon="13.3580202"><ele>709.0</ele><time>2026-05-02T14:48:40.615Z</time></trkpt><trkpt lat="42.10036" lon="13.3578924"><ele>709.0</ele><time>2026-05-02T14:48:41.615Z</time></trkpt><trkpt lat="42.1004834" lon="13.3577741"><ele>709.0</ele><time>2026-05-02T14:48:42.615Z</time></trkpt><trkpt lat="42.1006048" lon="13.3576531"><ele>709.0</ele><time>2026-05-02T14:48:43.615Z</time></trkpt><trkpt lat="42.1007164" lon="13.3575307"><ele>709.0</ele><time>2026-05-02T14:48:44.616Z</time></trkpt><trkpt lat="42.1008147" lon="13.3574026"><ele>709.0</ele><time>2026-05-02T14:48:45.615Z</time></trkpt><trkpt lat="42.1009096" lon="13.357288"><ele>709.0</ele><time>2026-05-02T14:48:46.613Z</time></trkpt><trkpt lat="42.1010132" lon="13.3571976"><ele>709.25</ele><time>2026-05-02T14:48:47.613Z</time></trkpt><trkpt lat="42.1011237" lon="13.3571129"><ele>709.5</ele><time>2026-05-02T14:48:48.614Z</time></trkpt><trkpt lat="42.1012378" lon="13.3570366"><ele>709.75</ele><time>2026-05-02T14:48:49.615Z</time></trkpt><trkpt lat="42.1013486" lon="13.356948"><ele>710.0</ele><time>2026-05-02T14:48:50.616Z</time></trkpt><trkpt lat="42.1014561" lon="13.3568447"><ele>710.0</ele><time>2026-05-02T14:48:51.615Z</time></trkpt><trkpt lat="42.1015642" lon="13.3567317"><ele>710.0</ele><time>2026-05-02T14:48:52.611Z</time></trkpt><trkpt lat="42.101675" lon="13.3566108"><ele>710.0</ele><time>2026-05-02T14:48:53.614Z</time></trkpt><trkpt lat="42.101785" lon="13.3564818"><ele>710.0</ele><time>2026-05-02T14:48:54.611Z</time></trkpt><trkpt lat="42.1018947" lon="13.356341"><ele>711.0</ele><time>2026-05-02T14:48:55.612Z</time></trkpt><trkpt lat="42.1020056" lon="13.3561959"><ele>712.0</ele><time>2026-05-02T14:48:56.611Z</time></trkpt><trkpt lat="42.10212" lon="13.3560515"><ele>713.0</ele><time>2026-05-02T14:48:57.615Z</time></trkpt><trkpt lat="42.1022364" lon="13.3559027"><ele>713.0</ele><time>2026-05-02T14:48:58.612Z</time></trkpt><trkpt lat="42.1023552" lon="13.3557519"><ele>713.0</ele><time>2026-05-02T14:48:59.614Z</time></trkpt><trkpt lat="42.1024755" lon="13.3555975"><ele>713.0</ele><time>2026-05-02T14:49:00.614Z</time></trkpt><trkpt lat="42.1025949" lon="13.3554405"><ele>713.0</ele><time>2026-05-02T14:49:01.616Z</time></trkpt><trkpt lat="42.1027153" lon="13.3552807"><ele>713.0</ele><time>2026-05-02T14:49:02.615Z</time></trkpt><trkpt lat="42.1028387" lon="13.355124"><ele>713.0</ele><time>2026-05-02T14:49:03.616Z</time></trkpt><trkpt lat="42.1029658" lon="13.3549686"><ele>713.0</ele><time>2026-05-02T14:49:04.616Z</time></trkpt><trkpt lat="42.1030925" lon="13.3548075"><ele>713.0</ele><time>2026-05-02T14:49:05.616Z</time></trkpt><trkpt lat="42.1032188" lon="13.3546422"><ele>713.0</ele><time>2026-05-02T14:49:06.616Z</time></trkpt><trkpt lat="42.1033469" lon="13.3544756"><ele>716.3333333333333</ele><time>2026-05-02T14:49:07.615Z</time></trkpt><trkpt lat="42.1034755" lon="13.3543065"><ele>719.6666666666666</ele><time>2026-05-02T14:49:08.615Z</time></trkpt><trkpt lat="42.1036029" lon="13.3541346"><ele>723.0</ele><time>2026-05-02T14:49:09.616Z</time></trkpt><trkpt lat="42.1037266" lon="13.3539649"><ele>724.6666666666666</ele><time>2026-05-02T14:49:10.616Z</time></trkpt><trkpt lat="42.103843" lon="13.353805"><ele>726.3333333333333</ele><time>2026-05-02T14:49:11.615Z</time></trkpt><trkpt lat="42.1039581" lon="13.3536461"><ele>728.0</ele><time>2026-05-02T14:49:12.615Z</time></trkpt><trkpt lat="42.1040738" lon="13.3534943"><ele>728.6666666666666</ele><time>2026-05-02T14:49:13.615Z</time></trkpt><trkpt lat="42.1041934" lon="13.3533532"><ele>729.3333333333334</ele><time>2026-05-02T14:49:14.615Z</time></trkpt><trkpt lat="42.1043237" lon="13.3532234"><ele>730.0</ele><time>2026-05-02T14:49:15.615Z</time></trkpt><trkpt lat="42.1044635" lon="13.3531075"><ele>731.0</ele><time>2026-05-02T14:49:16.615Z</time></trkpt><trkpt lat="42.104609" lon="13.3529929"><ele>732.0</ele><time>2026-05-02T14:49:17.615Z</time></trkpt><trkpt lat="42.1047572" lon="13.3528726"><ele>733.0</ele><time>2026-05-02T14:49:18.613Z</time></trkpt><trkpt lat="42.1049048" lon="13.3527515"><ele>735.3333333333334</ele><time>2026-05-02T14:49:19.615Z</time></trkpt><trkpt lat="42.1050422" lon="13.3526403"><ele>737.6666666666666</ele><time>2026-05-02T14:49:20.615Z</time></trkpt><trkpt lat="42.1051713" lon="13.3525361"><ele>740.0</ele><time>2026-05-02T14:49:21.615Z</time></trkpt><trkpt lat="42.1052973" lon="13.3524334"><ele>740.0</ele><time>2026-05-02T14:49:22.615Z</time></trkpt><trkpt lat="42.1054207" lon="13.3523306"><ele>740.0</ele><time>2026-05-02T14:49:23.615Z</time></trkpt><trkpt lat="42.1055474" lon="13.3522285"><ele>740.0</ele><time>2026-05-02T14:49:24.614Z</time></trkpt><trkpt lat="42.1056785" lon="13.3521278"><ele>740.0</ele><time>2026-05-02T14:49:25.614Z</time></trkpt><trkpt lat="42.1058086" lon="13.3520248"><ele>741.0</ele><time>2026-05-02T14:49:26.615Z</time></trkpt><trkpt lat="42.1059327" lon="13.3519198"><ele>742.0</ele><time>2026-05-02T14:49:27.615Z</time></trkpt><trkpt lat="42.1060516" lon="13.3518164"><ele>743.0</ele><time>2026-05-02T14:49:28.615Z</time></trkpt><trkpt lat="42.1061636" lon="13.3517216"><ele>744.0</ele><time>2026-05-02T14:49:29.611Z</time></trkpt><trkpt lat="42.1062703" lon="13.351634"><ele>744.0</ele><time>2026-05-02T14:49:30.615Z</time></trkpt><trkpt lat="42.1063696" lon="13.3515557"><ele>744.0</ele><time>2026-05-02T14:49:31.615Z</time></trkpt><trkpt lat="42.1064627" lon="13.3514938"><ele>744.0</ele><time>2026-05-02T14:49:32.612Z</time></trkpt><trkpt lat="42.1065585" lon="13.351448"><ele>744.0</ele><time>2026-05-02T14:49:33.611Z</time></trkpt><trkpt lat="42.1066551" lon="13.3514033"><ele>744.0</ele><time>2026-05-02T14:49:34.614Z</time></trkpt><trkpt lat="42.1067438" lon="13.35136"><ele>744.6</ele><time>2026-05-02T14:49:35.611Z</time></trkpt><trkpt lat="42.1068256" lon="13.3513205"><ele>745.2</ele><time>2026-05-02T14:49:36.613Z</time></trkpt><trkpt lat="42.106889" lon="13.3512831"><ele>745.8000000000001</ele><time>2026-05-02T14:49:37.615Z</time></trkpt><trkpt lat="42.1069603" lon="13.3511519"><ele>746.4000000000001</ele><time>2026-05-02T14:49:39.615Z</time></trkpt><trkpt lat="42.1069834" lon="13.3510476"><ele>747.0</ele><time>2026-05-02T14:49:40.612Z</time></trkpt><trkpt lat="42.1070043" lon="13.3509241"><ele>747.0</ele><time>2026-05-02T14:49:41.613Z</time></trkpt><trkpt lat="42.1070279" lon="13.3507869"><ele>747.0</ele><time>2026-05-02T14:49:42.616Z</time></trkpt><trkpt lat="42.1070508" lon="13.35065"><ele>747.0</ele><time>2026-05-02T14:49:43.615Z</time></trkpt><trkpt lat="42.1070706" lon="13.3505225"><ele>747.0</ele><time>2026-05-02T14:49:44.615Z</time></trkpt><trkpt lat="42.1070925" lon="13.3504031"><ele>747.0</ele><time>2026-05-02T14:49:45.615Z</time></trkpt><trkpt lat="42.1071127" lon="13.3502898"><ele>747.4000000000001</ele><time>2026-05-02T14:49:46.615Z</time></trkpt><trkpt lat="42.1071395" lon="13.3501822"><ele>747.8000000000001</ele><time>2026-05-02T14:49:47.613Z</time></trkpt><trkpt lat="42.1071808" lon="13.3500753"><ele>748.2</ele><time>2026-05-02T14:49:48.612Z</time></trkpt><trkpt lat="42.1072337" lon="13.3499742"><ele>748.6</ele><time>2026-05-02T14:49:49.616Z</time></trkpt><trkpt lat="42.1072939" lon="13.3498776"><ele>749.0</ele><time>2026-05-02T14:49:50.614Z</time></trkpt><trkpt lat="42.1073586" lon="13.3497827"><ele>749.3333333333333</ele><time>2026-05-02T14:49:51.615Z</time></trkpt><trkpt lat="42.1074196" lon="13.349693"><ele>749.6666666666666</ele><time>2026-05-02T14:49:52.614Z</time></trkpt><trkpt lat="42.1074773" lon="13.3496141"><ele>750.0</ele><time>2026-05-02T14:49:53.616Z</time></trkpt><trkpt lat="42.1075334" lon="13.3495352"><ele>750.3333333333334</ele><time>2026-05-02T14:49:54.616Z</time></trkpt><trkpt lat="42.1075897" lon="13.3494548"><ele>750.6666666666667</ele><time>2026-05-02T14:49:55.615Z</time></trkpt><trkpt lat="42.1076454" lon="13.3493755"><ele>751.0</ele><time>2026-05-02T14:49:56.616Z</time></trkpt><trkpt lat="42.1076968" lon="13.349293"><ele>751.0</ele><time>2026-05-02T14:49:57.615Z</time></trkpt><trkpt lat="42.1077407" lon="13.3491946"><ele>751.0</ele><time>2026-05-02T14:49:58.615Z</time></trkpt><trkpt lat="42.1077606" lon="13.3490773"><ele>751.0</ele><time>2026-05-02T14:49:59.613Z</time></trkpt><trkpt lat="42.1077799" lon="13.348959"><ele>751.0</ele><time>2026-05-02T14:50:00.612Z</time></trkpt><trkpt lat="42.1077981" lon="13.3488345"><ele>751.0</ele><time>2026-05-02T14:50:01.613Z</time></trkpt><trkpt lat="42.1078162" lon="13.3487064"><ele>751.0</ele><time>2026-05-02T14:50:02.616Z</time></trkpt><trkpt lat="42.1078374" lon="13.3485823"><ele>751.0</ele><time>2026-05-02T14:50:03.616Z</time></trkpt><trkpt lat="42.1078584" lon="13.348456"><ele>751.0</ele><time>2026-05-02T14:50:04.615Z</time></trkpt><trkpt lat="42.1078757" lon="13.348328"><ele>751.0</ele><time>2026-05-02T14:50:05.615Z</time></trkpt><trkpt lat="42.1078898" lon="13.3482103"><ele>751.0</ele><time>2026-05-02T14:50:06.615Z</time></trkpt><trkpt lat="42.1079023" lon="13.3480968"><ele>751.3333333333334</ele><time>2026-05-02T14:50:07.612Z</time></trkpt><trkpt lat="42.1079163" lon="13.3479926"><ele>751.6666666666667</ele><time>2026-05-02T14:50:08.613Z</time></trkpt><trkpt lat="42.10793" lon="13.3478945"><ele>752.0</ele><time>2026-05-02T14:50:09.615Z</time></trkpt><trkpt lat="42.1079523" lon="13.3477775"><ele>752.3333333333334</ele><time>2026-05-02T14:50:11.615Z</time></trkpt><trkpt lat="42.1080136" lon="13.3477267"><ele>752.6666666666666</ele><time>2026-05-02T14:50:13.613Z</time></trkpt><trkpt lat="42.1080816" lon="13.3476959"><ele>753.0</ele><time>2026-05-02T14:50:14.615Z</time></trkpt><trkpt lat="42.1081538" lon="13.347658"><ele>753.0</ele><time>2026-05-02T14:50:15.612Z</time></trkpt><trkpt lat="42.1082274" lon="13.3476178"><ele>753.0</ele><time>2026-05-02T14:50:16.615Z</time></trkpt><trkpt lat="42.1083096" lon="13.3475758"><ele>753.0</ele><time>2026-05-02T14:50:17.615Z</time></trkpt><trkpt lat="42.1084001" lon="13.3475318"><ele>753.0</ele><time>2026-05-02T14:50:18.615Z</time></trkpt><trkpt lat="42.1084974" lon="13.3474824"><ele>753.0</ele><time>2026-05-02T14:50:19.614Z</time></trkpt><trkpt lat="42.1086005" lon="13.3474361"><ele>754.25</ele><time>2026-05-02T14:50:20.615Z</time></trkpt><trkpt lat="42.108718" lon="13.3473842"><ele>755.5</ele><time>2026-05-02T14:50:21.615Z</time></trkpt><trkpt lat="42.1088439" lon="13.3473319"><ele>756.75</ele><time>2026-05-02T14:50:22.616Z</time></trkpt><trkpt lat="42.1089811" lon="13.3472888"><ele>758.0</ele><time>2026-05-02T14:50:23.615Z</time></trkpt><trkpt lat="42.109127" lon="13.3472533"><ele>760.3333333333333</ele><time>2026-05-02T14:50:24.614Z</time></trkpt><trkpt lat="42.1092765" lon="13.3472172"><ele>762.6666666666666</ele><time>2026-05-02T14:50:25.614Z</time></trkpt><trkpt lat="42.1094278" lon="13.3471751"><ele>765.0</ele><time>2026-05-02T14:50:26.615Z</time></trkpt><trkpt lat="42.1095814" lon="13.3471314"><ele>765.0</ele><time>2026-05-02T14:50:27.615Z</time></trkpt><trkpt lat="42.1097373" lon="13.3470929"><ele>765.0</ele><time>2026-05-02T14:50:28.615Z</time></trkpt><trkpt lat="42.1098909" lon="13.3470585"><ele>765.0</ele><time>2026-05-02T14:50:29.614Z</time></trkpt><trkpt lat="42.1100586" lon="13.3470189"><ele>767.6666666666667</ele><time>2026-05-02T14:50:30.615Z</time></trkpt><trkpt lat="42.1102288" lon="13.3469676"><ele>770.3333333333334</ele><time>2026-05-02T14:50:31.615Z</time></trkpt><trkpt lat="42.1104043" lon="13.3469043"><ele>773.0</ele><time>2026-05-02T14:50:32.615Z</time></trkpt><trkpt lat="42.1105872" lon="13.3468362"><ele>774.6666666666667</ele><time>2026-05-02T14:50:33.616Z</time></trkpt><trkpt lat="42.1107727" lon="13.3467593"><ele>776.3333333333333</ele><time>2026-05-02T14:50:34.615Z</time></trkpt><trkpt lat="42.1109589" lon="13.3466755"><ele>778.0</ele><time>2026-05-02T14:50:35.616Z</time></trkpt><trkpt lat="42.1111478" lon="13.3465898"><ele>778.0</ele><time>2026-05-02T14:50:36.612Z</time></trkpt><trkpt lat="42.1113346" lon="13.3465125"><ele>778.0</ele><time>2026-05-02T14:50:37.615Z</time></trkpt><trkpt lat="42.1115188" lon="13.3464335"><ele>778.0</ele><time>2026-05-02T14:50:38.615Z</time></trkpt><trkpt lat="42.111708" lon="13.3463428"><ele>780.3333333333333</ele><time>2026-05-02T14:50:39.613Z</time></trkpt><trkpt lat="42.1119034" lon="13.346247"><ele>782.6666666666667</ele><time>2026-05-02T14:50:40.612Z</time></trkpt><trkpt lat="42.112102" lon="13.346144"><ele>785.0</ele><time>2026-05-02T14:50:41.613Z</time></trkpt><trkpt lat="42.1122984" lon="13.3460307"><ele>787.6666666666667</ele><time>2026-05-02T14:50:42.616Z</time></trkpt><trkpt lat="42.1124946" lon="13.3459"><ele>790.3333333333333</ele><time>2026-05-02T14:50:43.615Z</time></trkpt><trkpt lat="42.1126845" lon="13.3457655"><ele>793.0</ele><time>2026-05-02T14:50:44.614Z</time></trkpt><trkpt lat="42.1128731" lon="13.3456366"><ele>791.3333333333333</ele><time>2026-05-02T14:50:45.615Z</time></trkpt><trkpt lat="42.1130584" lon="13.34551"><ele>789.6666666666667</ele><time>2026-05-02T14:50:46.615Z</time></trkpt><trkpt lat="42.1132402" lon="13.3453822"><ele>788.0</ele><time>2026-05-02T14:50:47.615Z</time></trkpt><trkpt lat="42.1134186" lon="13.3452578"><ele>791.3333333333334</ele><time>2026-05-02T14:50:48.614Z</time></trkpt><trkpt lat="42.1135931" lon="13.3451319"><ele>794.6666666666667</ele><time>2026-05-02T14:50:49.615Z</time></trkpt><trkpt lat="42.1137651" lon="13.3450042"><ele>798.0</ele><time>2026-05-02T14:50:50.613Z</time></trkpt><trkpt lat="42.1139365" lon="13.3448843"><ele>800.0</ele><time>2026-05-02T14:50:51.613Z</time></trkpt><trkpt lat="42.1141075" lon="13.3447757"><ele>802.0</ele><time>2026-05-02T14:50:52.616Z</time></trkpt><trkpt lat="42.114281" lon="13.3446851"><ele>804.0</ele><time>2026-05-02T14:50:53.613Z</time></trkpt><trkpt lat="42.1144519" lon="13.3446162"><ele>804.0</ele><time>2026-05-02T14:50:54.615Z</time></trkpt><trkpt lat="42.1146283" lon="13.3445708"><ele>804.0</ele><time>2026-05-02T14:50:55.615Z</time></trkpt><trkpt lat="42.1148081" lon="13.344546"><ele>804.0</ele><time>2026-05-02T14:50:56.615Z</time></trkpt><trkpt lat="42.1149919" lon="13.3445276"><ele>805.3333333333333</ele><time>2026-05-02T14:50:57.613Z</time></trkpt><trkpt lat="42.1151786" lon="13.3445089"><ele>806.6666666666666</ele><time>2026-05-02T14:50:58.615Z</time></trkpt><trkpt lat="42.1153674" lon="13.3444895"><ele>808.0</ele><time>2026-05-02T14:50:59.611Z</time></trkpt><trkpt lat="42.1155573" lon="13.3444681"><ele>808.6666666666666</ele><time>2026-05-02T14:51:00.613Z</time></trkpt><trkpt lat="42.1157492" lon="13.3444436"><ele>809.3333333333333</ele><time>2026-05-02T14:51:01.612Z</time></trkpt><trkpt lat="42.1159437" lon="13.3444166"><ele>810.0</ele><time>2026-05-02T14:51:02.612Z</time></trkpt><trkpt lat="42.1161381" lon="13.3443861"><ele>810.0</ele><time>2026-05-02T14:51:03.615Z</time></trkpt><trkpt lat="42.1163331" lon="13.3443551"><ele>810.0</ele><time>2026-05-02T14:51:04.615Z</time></trkpt><trkpt lat="42.1165297" lon="13.3443244"><ele>810.0</ele><time>2026-05-02T14:51:05.615Z</time></trkpt><trkpt lat="42.1167281" lon="13.3442947"><ele>813.0</ele><time>2026-05-02T14:51:06.614Z</time></trkpt><trkpt lat="42.1169279" lon="13.3442705"><ele>816.0</ele><time>2026-05-02T14:51:07.615Z</time></trkpt><trkpt lat="42.1171271" lon="13.3442478"><ele>819.0</ele><time>2026-05-02T14:51:08.615Z</time></trkpt><trkpt lat="42.1173232" lon="13.3442218"><ele>821.3333333333333</ele><time>2026-05-02T14:51:09.615Z</time></trkpt><trkpt lat="42.1175157" lon="13.3441948"><ele>823.6666666666666</ele><time>2026-05-02T14:51:10.615Z</time></trkpt><trkpt lat="42.1177065" lon="13.344173"><ele>826.0</ele><time>2026-05-02T14:51:11.615Z</time></trkpt><trkpt lat="42.1178927" lon="13.3441591"><ele>826.0</ele><time>2026-05-02T14:51:12.615Z</time></trkpt><trkpt lat="42.1180752" lon="13.3441554"><ele>826.0</ele><time>2026-05-02T14:51:13.615Z</time></trkpt><trkpt lat="42.1182609" lon="13.3441715"><ele>826.0</ele><time>2026-05-02T14:51:14.616Z</time></trkpt><trkpt lat="42.1184467" lon="13.3442033"><ele>827.3333333333333</ele><time>2026-05-02T14:51:15.613Z</time></trkpt><trkpt lat="42.1186363" lon="13.3442318"><ele>828.6666666666667</ele><time>2026-05-02T14:51:16.615Z</time></trkpt><trkpt lat="42.1188235" lon="13.3442518"><ele>830.0</ele><time>2026-05-02T14:51:17.614Z</time></trkpt><trkpt lat="42.1190075" lon="13.3442718"><ele>833.0</ele><time>2026-05-02T14:51:18.613Z</time></trkpt><trkpt lat="42.1191896" lon="13.3442891"><ele>836.0</ele><time>2026-05-02T14:51:19.614Z</time></trkpt><trkpt lat="42.1193692" lon="13.3442955"><ele>839.0</ele><time>2026-05-02T14:51:20.616Z</time></trkpt><trkpt lat="42.1195473" lon="13.3442914"><ele>839.0</ele><time>2026-05-02T14:51:21.615Z</time></trkpt><trkpt lat="42.1197254" lon="13.344274"><ele>839.0</ele><time>2026-05-02T14:51:22.615Z</time></trkpt><trkpt lat="42.1199038" lon="13.3442411"><ele>839.0</ele><time>2026-05-02T14:51:23.615Z</time></trkpt><trkpt lat="42.1200829" lon="13.3441924"><ele>841.3333333333334</ele><time>2026-05-02T14:51:24.614Z</time></trkpt><trkpt lat="42.1202612" lon="13.3441362"><ele>843.6666666666667</ele><time>2026-05-02T14:51:25.614Z</time></trkpt><trkpt lat="42.1204393" lon="13.3440768"><ele>846.0</ele><time>2026-05-02T14:51:26.616Z</time></trkpt><trkpt lat="42.1206186" lon="13.3440149"><ele>848.3333333333333</ele><time>2026-05-02T14:51:27.615Z</time></trkpt><trkpt lat="42.1207935" lon="13.3439495"><ele>850.6666666666666</ele><time>2026-05-02T14:51:28.616Z</time></trkpt><trkpt lat="42.1209629" lon="13.3438878"><ele>853.0</ele><time>2026-05-02T14:51:29.615Z</time></trkpt><trkpt lat="42.1211194" lon="13.343832"><ele>853.5</ele><time>2026-05-02T14:51:30.615Z</time></trkpt><trkpt lat="42.1212621" lon="13.3437656"><ele>854.0</ele><time>2026-05-02T14:51:31.614Z</time></trkpt><trkpt lat="42.1213906" lon="13.3436809"><ele>854.5</ele><time>2026-05-02T14:51:32.614Z</time></trkpt><trkpt lat="42.1214937" lon="13.3435795"><ele>855.0</ele><time>2026-05-02T14:51:33.611Z</time></trkpt><trkpt lat="42.1215785" lon="13.3434714"><ele>857.0</ele><time>2026-05-02T14:51:34.615Z</time></trkpt><trkpt lat="42.1216346" lon="13.34335"><ele>859.0</ele><time>2026-05-02T14:51:35.615Z</time></trkpt><trkpt lat="42.1216645" lon="13.3432129"><ele>861.0</ele><time>2026-05-02T14:51:36.615Z</time></trkpt><trkpt lat="42.1216708" lon="13.3430641"><ele>863.0</ele><time>2026-05-02T14:51:37.613Z</time></trkpt><trkpt lat="42.1216639" lon="13.3429092"><ele>865.0</ele><time>2026-05-02T14:51:38.615Z</time></trkpt><trkpt lat="42.1216549" lon="13.3427496"><ele>866.5</ele><time>2026-05-02T14:51:39.615Z</time></trkpt><trkpt lat="42.1216435" lon="13.3425851"><ele>868.0</ele><time>2026-05-02T14:51:40.616Z</time></trkpt><trkpt lat="42.1216298" lon="13.3424205"><ele>869.5</ele><time>2026-05-02T14:51:41.616Z</time></trkpt><trkpt lat="42.1216084" lon="13.3422556"><ele>871.0</ele><time>2026-05-02T14:51:42.615Z</time></trkpt><trkpt lat="42.1215745" lon="13.342092"><ele>868.75</ele><time>2026-05-02T14:51:43.615Z</time></trkpt><trkpt lat="42.1215359" lon="13.3419301"><ele>866.5</ele><time>2026-05-02T14:51:44.615Z</time></trkpt><trkpt lat="42.1215046" lon="13.3417617"><ele>864.25</ele><time>2026-05-02T14:51:45.616Z</time></trkpt><trkpt lat="42.1214848" lon="13.3415881"><ele>862.0</ele><time>2026-05-02T14:51:46.615Z</time></trkpt><trkpt lat="42.1214839" lon="13.3414115"><ele>862.75</ele><time>2026-05-02T14:51:47.616Z</time></trkpt><trkpt lat="42.1214807" lon="13.3412296"><ele>863.5</ele><time>2026-05-02T14:51:48.613Z</time></trkpt><trkpt lat="42.1214752" lon="13.3410459"><ele>864.25</ele><time>2026-05-02T14:51:49.616Z</time></trkpt><trkpt lat="42.121473" lon="13.3408575"><ele>865.0</ele><time>2026-05-02T14:51:50.616Z</time></trkpt><trkpt lat="42.1214668" lon="13.3406692"><ele>867.5</ele><time>2026-05-02T14:51:51.612Z</time></trkpt><trkpt lat="42.1214557" lon="13.3404821"><ele>870.0</ele><time>2026-05-02T14:51:52.615Z</time></trkpt><trkpt lat="42.1214415" lon="13.3402973"><ele>872.5</ele><time>2026-05-02T14:51:53.613Z</time></trkpt><trkpt lat="42.1214276" lon="13.3401203"><ele>875.0</ele><time>2026-05-02T14:51:54.612Z</time></trkpt><trkpt lat="42.1214116" lon="13.3399475"><ele>875.0</ele><time>2026-05-02T14:51:55.615Z</time></trkpt><trkpt lat="42.1213817" lon="13.339777"><ele>875.0</ele><time>2026-05-02T14:51:56.615Z</time></trkpt><trkpt lat="42.1213345" lon="13.3396078"><ele>875.0</ele><time>2026-05-02T14:51:57.615Z</time></trkpt><trkpt lat="42.1212762" lon="13.3394424"><ele>875.0</ele><time>2026-05-02T14:51:58.614Z</time></trkpt><trkpt lat="42.1212137" lon="13.3392806"><ele>878.75</ele><time>2026-05-02T14:51:59.612Z</time></trkpt><trkpt lat="42.1211517" lon="13.3391297"><ele>882.5</ele><time>2026-05-02T14:52:00.614Z</time></trkpt><trkpt lat="42.1210885" lon="13.3389806"><ele>886.25</ele><time>2026-05-02T14:52:01.611Z</time></trkpt><trkpt lat="42.1210286" lon="13.3388402"><ele>890.0</ele><time>2026-05-02T14:52:02.615Z</time></trkpt><trkpt lat="42.1209725" lon="13.3387128"><ele>892.3333333333334</ele><time>2026-05-02T14:52:03.615Z</time></trkpt><trkpt lat="42.1209146" lon="13.3386105"><ele>894.6666666666667</ele><time>2026-05-02T14:52:04.615Z</time></trkpt><trkpt lat="42.1208465" lon="13.3385626"><ele>897.0</ele><time>2026-05-02T14:52:05.616Z</time></trkpt><trkpt lat="42.1207802" lon="13.3385582"><ele>899.3333333333333</ele><time>2026-05-02T14:52:06.613Z</time></trkpt><trkpt lat="42.1207106" lon="13.3385913"><ele>901.6666666666666</ele><time>2026-05-02T14:52:07.615Z</time></trkpt><trkpt lat="42.1206437" lon="13.338675"><ele>904.0</ele><time>2026-05-02T14:52:08.611Z</time></trkpt><trkpt lat="42.1205774" lon="13.3388"><ele>902.75</ele><time>2026-05-02T14:52:09.613Z</time></trkpt><trkpt lat="42.1204974" lon="13.3389191"><ele>901.5</ele><time>2026-05-02T14:52:10.614Z</time></trkpt><trkpt lat="42.1204036" lon="13.3390298"><ele>900.25</ele><time>2026-05-02T14:52:11.615Z</time></trkpt><trkpt lat="42.1203165" lon="13.3391284"><ele>899.0</ele><time>2026-05-02T14:52:12.614Z</time></trkpt><trkpt lat="42.1202327" lon="13.339211"><ele>899.0</ele><time>2026-05-02T14:52:13.616Z</time></trkpt><trkpt lat="42.1201415" lon="13.3392515"><ele>899.0000000000001</ele><time>2026-05-02T14:52:14.615Z</time></trkpt><trkpt lat="42.1200456" lon="13.3392667"><ele>899.0000000000001</ele><time>2026-05-02T14:52:15.615Z</time></trkpt><trkpt lat="42.1199353" lon="13.339257"><ele>899.0</ele><time>2026-05-02T14:52:16.613Z</time></trkpt><trkpt lat="42.1198134" lon="13.3392333"><ele>899.0</ele><time>2026-05-02T14:52:17.613Z</time></trkpt><trkpt lat="42.1196831" lon="13.339207"><ele>900.0</ele><time>2026-05-02T14:52:18.612Z</time></trkpt><trkpt lat="42.1195458" lon="13.3391807"><ele>901.0</ele><time>2026-05-02T14:52:19.615Z</time></trkpt><trkpt lat="42.1194069" lon="13.3391593"><ele>902.0</ele><time>2026-05-02T14:52:20.613Z</time></trkpt><trkpt lat="42.1192656" lon="13.3391413"><ele>903.0</ele><time>2026-05-02T14:52:21.615Z</time></trkpt><trkpt lat="42.1191258" lon="13.3391295"><ele>903.75</ele><time>2026-05-02T14:52:22.614Z</time></trkpt><trkpt lat="42.1189929" lon="13.3391268"><ele>904.5</ele><time>2026-05-02T14:52:23.613Z</time></trkpt><trkpt lat="42.1188669" lon="13.3391285"><ele>905.25</ele><time>2026-05-02T14:52:24.613Z</time></trkpt><trkpt lat="42.1187485" lon="13.3391344"><ele>906.0</ele><time>2026-05-02T14:52:25.613Z</time></trkpt><trkpt lat="42.1186379" lon="13.3391448"><ele>906.0</ele><time>2026-05-02T14:52:26.612Z</time></trkpt><trkpt lat="42.1185377" lon="13.3391566"><ele>906.0</ele><time>2026-05-02T14:52:27.615Z</time></trkpt><trkpt lat="42.1184448" lon="13.3391683"><ele>906.0</ele><time>2026-05-02T14:52:28.616Z</time></trkpt><trkpt lat="42.1183616" lon="13.3391691"><ele>906.0</ele><time>2026-05-02T14:52:29.614Z</time></trkpt><trkpt lat="42.118285" lon="13.3391456"><ele>906.0</ele><time>2026-05-02T14:52:30.613Z</time></trkpt><trkpt lat="42.1182083" lon="13.3391313"><ele>906.0</ele><time>2026-05-02T14:52:31.613Z</time></trkpt><trkpt lat="42.1181423" lon="13.3391147"><ele>905.6666666666666</ele><time>2026-05-02T14:52:32.612Z</time></trkpt><trkpt lat="42.1180663" lon="13.3390505"><ele>905.3333333333333</ele><time>2026-05-02T14:52:34.616Z</time></trkpt><trkpt lat="42.1180633" lon="13.3389627"><ele>905.0</ele><time>2026-05-02T14:52:36.615Z</time></trkpt><trkpt lat="42.1180793" lon="13.3388724"><ele>904.6666666666666</ele><time>2026-05-02T14:52:39.613Z</time></trkpt><trkpt lat="42.1180907" lon="13.3387207"><ele>904.3333333333333</ele><time>2026-05-02T14:52:41.615Z</time></trkpt><trkpt lat="42.1180874" lon="13.3386277"><ele>904.0</ele><time>2026-05-02T14:52:42.615Z</time></trkpt><trkpt lat="42.1180915" lon="13.3385302"><ele>905.1666666666666</ele><time>2026-05-02T14:52:43.616Z</time></trkpt><trkpt lat="42.1180917" lon="13.3384401"><ele>906.3333333333333</ele><time>2026-05-02T14:52:44.615Z</time></trkpt><trkpt lat="42.1180864" lon="13.3382954"><ele>907.5</ele><time>2026-05-02T14:52:46.612Z</time></trkpt><trkpt lat="42.1180914" lon="13.3382073"><ele>908.6666666666667</ele><time>2026-05-02T14:52:49.615Z</time></trkpt><trkpt lat="42.1181334" lon="13.3380926"><ele>909.8333333333334</ele><time>2026-05-02T14:52:52.616Z</time></trkpt><trkpt lat="42.1181927" lon="13.3379705"><ele>911.0</ele><time>2026-05-02T14:52:54.616Z</time></trkpt><trkpt lat="42.1182364" lon="13.3379005"><ele>911.0000000000001</ele><time>2026-05-02T14:52:55.615Z</time></trkpt><trkpt lat="42.1182831" lon="13.3378249"><ele>911.0</ele><time>2026-05-02T14:52:56.612Z</time></trkpt><trkpt lat="42.1183273" lon="13.3377417"><ele>911.0</ele><time>2026-05-02T14:52:57.613Z</time></trkpt><trkpt lat="42.1183843" lon="13.3376492"><ele>911.0</ele><time>2026-05-02T14:52:58.613Z</time></trkpt><trkpt lat="42.1184522" lon="13.3375537"><ele>911.0000000000001</ele><time>2026-05-02T14:52:59.613Z</time></trkpt><trkpt lat="42.1185294" lon="13.3374502"><ele>911.0</ele><time>2026-05-02T14:53:00.615Z</time></trkpt><trkpt lat="42.1186144" lon="13.3373442"><ele>911.0</ele><time>2026-05-02T14:53:01.615Z</time></trkpt><trkpt lat="42.1187057" lon="13.3372407"><ele>911.0</ele><time>2026-05-02T14:53:02.615Z</time></trkpt><trkpt lat="42.1188048" lon="13.3371318"><ele>911.0</ele><time>2026-05-02T14:53:03.616Z</time></trkpt><trkpt lat="42.1189055" lon="13.3370274"><ele>911.0</ele><time>2026-05-02T14:53:04.615Z</time></trkpt><trkpt lat="42.11901" lon="13.3369162"><ele>913.75</ele><time>2026-05-02T14:53:05.616Z</time></trkpt><trkpt lat="42.1191134" lon="13.33681"><ele>916.5</ele><time>2026-05-02T14:53:06.616Z</time></trkpt><trkpt lat="42.1192049" lon="13.3366933"><ele>919.25</ele><time>2026-05-02T14:53:07.615Z</time></trkpt><trkpt lat="42.1192822" lon="13.3365838"><ele>922.0</ele><time>2026-05-02T14:53:08.616Z</time></trkpt><trkpt lat="42.1193574" lon="13.3364786"><ele>917.75</ele><time>2026-05-02T14:53:09.615Z</time></trkpt><trkpt lat="42.1194403" lon="13.3363837"><ele>913.5</ele><time>2026-05-02T14:53:10.613Z</time></trkpt><trkpt lat="42.1195386" lon="13.3363006"><ele>909.25</ele><time>2026-05-02T14:53:11.612Z</time></trkpt><trkpt lat="42.1196447" lon="13.3362252"><ele>905.0</ele><time>2026-05-02T14:53:12.613Z</time></trkpt><trkpt lat="42.1197584" lon="13.3361532"><ele>905.0</ele><time>2026-05-02T14:53:13.616Z</time></trkpt><trkpt lat="42.1198742" lon="13.3360783"><ele>905.0</ele><time>2026-05-02T14:53:14.613Z</time></trkpt><trkpt lat="42.1199777" lon="13.3359847"><ele>905.0</ele><time>2026-05-02T14:53:15.615Z</time></trkpt><trkpt lat="42.1200705" lon="13.3358809"><ele>905.0</ele><time>2026-05-02T14:53:16.612Z</time></trkpt><trkpt lat="42.120157" lon="13.335783"><ele>908.4</ele><time>2026-05-02T14:53:17.612Z</time></trkpt><trkpt lat="42.1202458" lon="13.3356925"><ele>911.8</ele><time>2026-05-02T14:53:18.614Z</time></trkpt><trkpt lat="42.1203443" lon="13.3356051"><ele>915.2</ele><time>2026-05-02T14:53:19.615Z</time></trkpt><trkpt lat="42.1204141" lon="13.3355595"><ele>918.6</ele><time>2026-05-02T14:53:20.615Z</time></trkpt><trkpt lat="42.1204969" lon="13.3355262"><ele>922.0</ele><time>2026-05-02T14:53:22.615Z</time></trkpt><trkpt lat="42.1205531" lon="13.335483"><ele>921.9999999999999</ele><time>2026-05-02T14:53:24.615Z</time></trkpt><trkpt lat="42.1206258" lon="13.3353871"><ele>922.0</ele><time>2026-05-02T14:53:26.615Z</time></trkpt><trkpt lat="42.1206657" lon="13.3353085"><ele>922.0</ele><time>2026-05-02T14:53:27.614Z</time></trkpt><trkpt lat="42.120707" lon="13.3352225"><ele>922.0</ele><time>2026-05-02T14:53:28.615Z</time></trkpt><trkpt lat="42.1207557" lon="13.335122"><ele>921.9999999999999</ele><time>2026-05-02T14:53:29.615Z</time></trkpt><trkpt lat="42.1208063" lon="13.3350073"><ele>922.0</ele><time>2026-05-02T14:53:30.615Z</time></trkpt><trkpt lat="42.1208601" lon="13.3348904"><ele>926.6666666666666</ele><time>2026-05-02T14:53:31.616Z</time></trkpt><trkpt lat="42.1209127" lon="13.3347797"><ele>931.3333333333333</ele><time>2026-05-02T14:53:32.614Z</time></trkpt><trkpt lat="42.1209619" lon="13.3346819"><ele>936.0</ele><time>2026-05-02T14:53:33.616Z</time></trkpt><trkpt lat="42.1210098" lon="13.3345807"><ele>940.6666666666667</ele><time>2026-05-02T14:53:34.615Z</time></trkpt><trkpt lat="42.1210554" lon="13.3344875"><ele>945.3333333333334</ele><time>2026-05-02T14:53:35.615Z</time></trkpt><trkpt lat="42.1210959" lon="13.3343971"><ele>950.0</ele><time>2026-05-02T14:53:36.616Z</time></trkpt><trkpt lat="42.121127" lon="13.334309"><ele>950.0</ele><time>2026-05-02T14:53:37.614Z</time></trkpt><trkpt lat="42.1211499" lon="13.33422"><ele>950.0</ele><time>2026-05-02T14:53:38.613Z</time></trkpt><trkpt lat="42.1211635" lon="13.3341333"><ele>950.0</ele><time>2026-05-02T14:53:39.614Z</time></trkpt><trkpt lat="42.1211694" lon="13.3339789"><ele>950.0</ele><time>2026-05-02T14:53:41.611Z</time></trkpt><trkpt lat="42.1211379" lon="13.3338217"><ele>950.0</ele><time>2026-05-02T14:53:43.611Z</time></trkpt><trkpt lat="42.1210595" lon="13.3336917"><ele>949.8</ele><time>2026-05-02T14:53:45.616Z</time></trkpt><trkpt lat="42.1210108" lon="13.3336262"><ele>949.6</ele><time>2026-05-02T14:53:46.615Z</time></trkpt><trkpt lat="42.1209554" lon="13.3335709"><ele>949.4000000000001</ele><time>2026-05-02T14:53:47.615Z</time></trkpt><trkpt lat="42.1208466" lon="13.3335136"><ele>949.2</ele><time>2026-05-02T14:53:49.614Z</time></trkpt><trkpt lat="42.1207145" lon="13.3335213"><ele>949.0</ele><time>2026-05-02T14:53:51.615Z</time></trkpt><trkpt lat="42.1206463" lon="13.3335381"><ele>948.9999999999999</ele><time>2026-05-02T14:53:52.614Z</time></trkpt><trkpt lat="42.1205795" lon="13.3335679"><ele>949.0</ele><time>2026-05-02T14:53:53.615Z</time></trkpt><trkpt lat="42.1205137" lon="13.3336016"><ele>949.0</ele><time>2026-05-02T14:53:54.616Z</time></trkpt><trkpt lat="42.1204463" lon="13.3336236"><ele>949.0</ele><time>2026-05-02T14:53:55.615Z</time></trkpt><trkpt lat="42.120381" lon="13.3336248"><ele>948.9999999999999</ele><time>2026-05-02T14:53:56.616Z</time></trkpt><trkpt lat="42.1202962" lon="13.3335466"><ele>949.0</ele><time>2026-05-02T14:53:58.615Z</time></trkpt><trkpt lat="42.1202941" lon="13.3334"><ele>949.0</ele><time>2026-05-02T14:54:00.616Z</time></trkpt><trkpt lat="42.1203043" lon="13.3332894"><ele>949.0000000000001</ele><time>2026-05-02T14:54:01.616Z</time></trkpt><trkpt lat="42.1203129" lon="13.3331391"><ele>949.0000000000001</ele><time>2026-05-02T14:54:02.616Z</time></trkpt><trkpt lat="42.1203181" lon="13.3329635"><ele>949.0</ele><time>2026-05-02T14:54:03.616Z</time></trkpt><trkpt lat="42.1203203" lon="13.3327979"><ele>949.0</ele><time>2026-05-02T14:54:04.615Z</time></trkpt><trkpt lat="42.1203226" lon="13.3326478"><ele>951.6666666666666</ele><time>2026-05-02T14:54:05.615Z</time></trkpt><trkpt lat="42.1203205" lon="13.3325222"><ele>954.3333333333333</ele><time>2026-05-02T14:54:06.615Z</time></trkpt><trkpt lat="42.1203142" lon="13.3324017"><ele>957.0</ele><time>2026-05-02T14:54:07.615Z</time></trkpt><trkpt lat="42.1203009" lon="13.3322909"><ele>959.6666666666667</ele><time>2026-05-02T14:54:08.615Z</time></trkpt><trkpt lat="42.1202769" lon="13.3321821"><ele>962.3333333333334</ele><time>2026-05-02T14:54:09.614Z</time></trkpt><trkpt lat="42.1202412" lon="13.3320766"><ele>965.0</ele><time>2026-05-02T14:54:10.615Z</time></trkpt><trkpt lat="42.1202033" lon="13.3319695"><ele>966.5000000000001</ele><time>2026-05-02T14:54:11.615Z</time></trkpt><trkpt lat="42.1201679" lon="13.3318689"><ele>968.0</ele><time>2026-05-02T14:54:12.615Z</time></trkpt><trkpt lat="42.120143" lon="13.3317742"><ele>969.5</ele><time>2026-05-02T14:54:13.615Z</time></trkpt><trkpt lat="42.120136" lon="13.3316826"><ele>971.0</ele><time>2026-05-02T14:54:14.614Z</time></trkpt><trkpt lat="42.1201439" lon="13.3315956"><ele>972.5000000000001</ele><time>2026-05-02T14:54:15.615Z</time></trkpt><trkpt lat="42.1202126" lon="13.3314732"><ele>974.0</ele><time>2026-05-02T14:54:17.615Z</time></trkpt><trkpt lat="42.120341" lon="13.3314099"><ele>974.3333333333334</ele><time>2026-05-02T14:54:19.615Z</time></trkpt><trkpt lat="42.1204181" lon="13.3313837"><ele>974.6666666666667</ele><time>2026-05-02T14:54:20.615Z</time></trkpt><trkpt lat="42.1204969" lon="13.3313446"><ele>975.0</ele><time>2026-05-02T14:54:21.615Z</time></trkpt><trkpt lat="42.1205777" lon="13.3313126"><ele>975.3333333333333</ele><time>2026-05-02T14:54:22.616Z</time></trkpt><trkpt lat="42.1206603" lon="13.3312814"><ele>975.6666666666666</ele><time>2026-05-02T14:54:23.615Z</time></trkpt><trkpt lat="42.1207422" lon="13.3312442"><ele>976.0</ele><time>2026-05-02T14:54:24.616Z</time></trkpt><trkpt lat="42.1208291" lon="13.3312036"><ele>977.1999999999999</ele><time>2026-05-02T14:54:25.616Z</time></trkpt><trkpt lat="42.1209216" lon="13.3311608"><ele>978.3999999999999</ele><time>2026-05-02T14:54:26.615Z</time></trkpt><trkpt lat="42.1210186" lon="13.3311125"><ele>979.6</ele><time>2026-05-02T14:54:27.615Z</time></trkpt><trkpt lat="42.1211151" lon="13.3310665"><ele>980.8</ele><time>2026-05-02T14:54:28.615Z</time></trkpt><trkpt lat="42.1212117" lon="13.331023"><ele>982.0</ele><time>2026-05-02T14:54:29.615Z</time></trkpt><trkpt lat="42.1213076" lon="13.3309882"><ele>981.9999999999999</ele><time>2026-05-02T14:54:30.613Z</time></trkpt><trkpt lat="42.1213996" lon="13.3309467"><ele>982.0</ele><time>2026-05-02T14:54:31.615Z</time></trkpt><trkpt lat="42.1214823" lon="13.3309106"><ele>982.0</ele><time>2026-05-02T14:54:32.615Z</time></trkpt><trkpt lat="42.1215534" lon="13.330884"><ele>982.0</ele><time>2026-05-02T14:54:33.615Z</time></trkpt><trkpt lat="42.1216193" lon="13.330853"><ele>981.9999999999999</ele><time>2026-05-02T14:54:34.614Z</time></trkpt><trkpt lat="42.1216842" lon="13.3308309"><ele>982.0</ele><time>2026-05-02T14:54:35.615Z</time></trkpt><trkpt lat="42.1217603" lon="13.3308231"><ele>983.3333333333333</ele><time>2026-05-02T14:54:36.615Z</time></trkpt><trkpt lat="42.1218385" lon="13.3308199"><ele>984.6666666666666</ele><time>2026-05-02T14:54:37.616Z</time></trkpt><trkpt lat="42.1219189" lon="13.3308105"><ele>986.0</ele><time>2026-05-02T14:54:38.615Z</time></trkpt><trkpt lat="42.1220013" lon="13.3308034"><ele>987.3333333333333</ele><time>2026-05-02T14:54:39.615Z</time></trkpt><trkpt lat="42.1220856" lon="13.3307967"><ele>988.6666666666666</ele><time>2026-05-02T14:54:40.616Z</time></trkpt><trkpt lat="42.1221711" lon="13.3307858"><ele>990.0</ele><time>2026-05-02T14:54:41.616Z</time></trkpt><trkpt lat="42.1222556" lon="13.3307666"><ele>990.0</ele><time>2026-05-02T14:54:42.616Z</time></trkpt><trkpt lat="42.1223392" lon="13.3307434"><ele>990.0</ele><time>2026-05-02T14:54:43.615Z</time></trkpt><trkpt lat="42.1224185" lon="13.3307048"><ele>990.0</ele><time>2026-05-02T14:54:44.615Z</time></trkpt><trkpt lat="42.1224904" lon="13.3306517"><ele>990.0</ele><time>2026-05-02T14:54:45.611Z</time></trkpt><trkpt lat="42.1225576" lon="13.330593"><ele>990.0</ele><time>2026-05-02T14:54:46.615Z</time></trkpt><trkpt lat="42.1226221" lon="13.330525"><ele>990.0</ele><time>2026-05-02T14:54:47.615Z</time></trkpt><trkpt lat="42.1226857" lon="13.3304574"><ele>991.6666666666666</ele><time>2026-05-02T14:54:48.615Z</time></trkpt><trkpt lat="42.1227535" lon="13.3303901"><ele>993.3333333333333</ele><time>2026-05-02T14:54:49.613Z</time></trkpt><trkpt lat="42.122825" lon="13.3303265"><ele>995.0</ele><time>2026-05-02T14:54:50.615Z</time></trkpt><trkpt lat="42.1228978" lon="13.3302637"><ele>996.6666666666666</ele><time>2026-05-02T14:54:51.614Z</time></trkpt><trkpt lat="42.1229728" lon="13.3302047"><ele>998.3333333333333</ele><time>2026-05-02T14:54:52.615Z</time></trkpt><trkpt lat="42.1230496" lon="13.3301514"><ele>1000.0</ele><time>2026-05-02T14:54:53.616Z</time></trkpt><trkpt lat="42.1231216" lon="13.330102"><ele>1000.0</ele><time>2026-05-02T14:54:54.616Z</time></trkpt><trkpt lat="42.1231866" lon="13.3300678"><ele>1000.0</ele><time>2026-05-02T14:54:55.615Z</time></trkpt><trkpt lat="42.1232965" lon="13.3300139"><ele>1000.0</ele><time>2026-05-02T14:54:57.613Z</time></trkpt><trkpt lat="42.1234113" lon="13.3299737"><ele>1000.0</ele><time>2026-05-02T14:54:59.612Z</time></trkpt><trkpt lat="42.1235335" lon="13.3299346"><ele>1000.0</ele><time>2026-05-02T14:55:01.616Z</time></trkpt><trkpt lat="42.1236501" lon="13.3298911"><ele>1000.4999999999999</ele><time>2026-05-02T14:55:03.615Z</time></trkpt><trkpt lat="42.1237138" lon="13.3298601"><ele>1001.0</ele><time>2026-05-02T14:55:04.614Z</time></trkpt><trkpt lat="42.1237844" lon="13.3298194"><ele>1001.5</ele><time>2026-05-02T14:55:05.615Z</time></trkpt><trkpt lat="42.1238621" lon="13.3297757"><ele>1002.0</ele><time>2026-05-02T14:55:06.611Z</time></trkpt><trkpt lat="42.1239412" lon="13.3297271"><ele>1002.4999999999999</ele><time>2026-05-02T14:55:07.615Z</time></trkpt><trkpt lat="42.1240155" lon="13.3296729"><ele>1003.0</ele><time>2026-05-02T14:55:08.614Z</time></trkpt><trkpt lat="42.1240895" lon="13.3296111"><ele>1005.0</ele><time>2026-05-02T14:55:09.614Z</time></trkpt><trkpt lat="42.1241569" lon="13.3295396"><ele>1006.9999999999999</ele><time>2026-05-02T14:55:10.616Z</time></trkpt><trkpt lat="42.1242184" lon="13.3294635"><ele>1009.0</ele><time>2026-05-02T14:55:11.616Z</time></trkpt><trkpt lat="42.1242724" lon="13.3293845"><ele>1011.0</ele><time>2026-05-02T14:55:12.613Z</time></trkpt><trkpt lat="42.1243192" lon="13.3293165"><ele>1012.9999999999999</ele><time>2026-05-02T14:55:13.615Z</time></trkpt><trkpt lat="42.1243649" lon="13.3292575"><ele>1015.0</ele><time>2026-05-02T14:55:14.616Z</time></trkpt><trkpt lat="42.1244118" lon="13.329199"><ele>1017.0</ele><time>2026-05-02T14:55:15.615Z</time></trkpt><trkpt lat="42.1245111" lon="13.3291099"><ele>1017.0</ele><time>2026-05-02T14:55:17.616Z</time></trkpt><trkpt lat="42.1246041" lon="13.3290538"><ele>1017.0</ele><time>2026-05-02T14:55:19.616Z</time></trkpt><trkpt lat="42.1247056" lon="13.3290214"><ele>1017.0</ele><time>2026-05-02T14:55:21.615Z</time></trkpt><trkpt lat="42.1248152" lon="13.3290143"><ele>1017.0</ele><time>2026-05-02T14:55:23.614Z</time></trkpt><trkpt lat="42.1248801" lon="13.3290363"><ele>1017.0</ele><time>2026-05-02T14:58:33.616Z</time></trkpt><trkpt lat="42.1249506" lon="13.3290905"><ele>1019.3333333333334</ele><time>2026-05-02T14:58:36.615Z</time></trkpt><trkpt lat="42.1250301" lon="13.3291073"><ele>1021.6666666666667</ele><time>2026-05-02T14:58:38.613Z</time></trkpt><trkpt lat="42.1251029" lon="13.3291245"><ele>1024.0</ele><time>2026-05-02T14:58:40.615Z</time></trkpt><trkpt lat="42.1251811" lon="13.329143"><ele>1026.3333333333335</ele><time>2026-05-02T14:58:42.613Z</time></trkpt><trkpt lat="42.1252555" lon="13.3291616"><ele>1028.6666666666667</ele><time>2026-05-02T14:58:44.616Z</time></trkpt><trkpt lat="42.1253214" lon="13.3291889"><ele>1031.0</ele><time>2026-05-02T14:58:46.612Z</time></trkpt><trkpt lat="42.1253849" lon="13.3292385"><ele>1031.0</ele><time>2026-05-02T14:58:49.615Z</time></trkpt><trkpt lat="42.1254499" lon="13.3292514"><ele>1031.0</ele><time>2026-05-02T14:58:52.615Z</time></trkpt><trkpt lat="42.1255381" lon="13.329313"><ele>1031.0</ele><time>2026-05-02T14:58:55.615Z</time></trkpt><trkpt lat="42.1256252" lon="13.3293857"><ele>1031.0</ele><time>2026-05-02T14:58:57.611Z</time></trkpt><trkpt lat="42.1256922" lon="13.3294317"><ele>1031.0</ele><time>2026-05-02T14:58:59.613Z</time></trkpt><trkpt lat="42.1257526" lon="13.3294993"><ele>1031.0</ele><time>2026-05-02T15:00:53.616Z</time></trkpt><trkpt lat="42.1258264" lon="13.3295388"><ele>1033.142857142857</ele><time>2026-05-02T15:00:56.615Z</time></trkpt><trkpt lat="42.1258944" lon="13.3295943"><ele>1035.2857142857142</ele><time>2026-05-02T15:00:59.616Z</time></trkpt><trkpt lat="42.1259538" lon="13.3296262"><ele>1037.4285714285713</ele><time>2026-05-02T15:01:02.613Z</time></trkpt><trkpt lat="42.12602" lon="13.3296587"><ele>1039.5714285714284</ele><time>2026-05-02T15:01:16.615Z</time></trkpt><trkpt lat="42.1261" lon="13.3296995"><ele>1041.7142857142858</ele><time>2026-05-02T15:01:21.616Z</time></trkpt><trkpt lat="42.1261624" lon="13.3297246"><ele>1043.8571428571427</ele><time>2026-05-02T15:01:23.614Z</time></trkpt><trkpt lat="42.1262279" lon="13.3297439"><ele>1046.0</ele><time>2026-05-02T15:01:25.615Z</time></trkpt><trkpt lat="42.1263061" lon="13.3297439"><ele>1047.3333333333335</ele><time>2026-05-02T15:01:27.615Z</time></trkpt><trkpt lat="42.1263855" lon="13.3297436"><ele>1048.6666666666667</ele><time>2026-05-02T15:01:29.615Z</time></trkpt><trkpt lat="42.1264758" lon="13.3297426"><ele>1050.0</ele><time>2026-05-02T15:01:31.615Z</time></trkpt><trkpt lat="42.1265695" lon="13.3297425"><ele>1051.3333333333333</ele><time>2026-05-02T15:01:33.615Z</time></trkpt><trkpt lat="42.1266597" lon="13.3297546"><ele>1052.6666666666665</ele><time>2026-05-02T15:01:35.615Z</time></trkpt><trkpt lat="42.1267431" lon="13.3297911"><ele>1054.0</ele><time>2026-05-02T15:01:37.615Z</time></trkpt><trkpt lat="42.1268308" lon="13.3298171"><ele>1056.0</ele><time>2026-05-02T15:01:39.615Z</time></trkpt><trkpt lat="42.1269262" lon="13.3298393"><ele>1058.0</ele><time>2026-05-02T15:01:41.614Z</time></trkpt><trkpt lat="42.127039" lon="13.3298833"><ele>1060.0</ele><time>2026-05-02T15:01:43.616Z</time></trkpt><trkpt lat="42.1271456" lon="13.3299304"><ele>1062.0</ele><time>2026-05-02T15:01:45.615Z</time></trkpt><trkpt lat="42.1272502" lon="13.3299763"><ele>1064.0</ele><time>2026-05-02T15:01:47.615Z</time></trkpt><trkpt lat="42.1273484" lon="13.3300276"><ele>1065.3333333333335</ele><time>2026-05-02T15:01:49.615Z</time></trkpt><trkpt lat="42.1274432" lon="13.3300931"><ele>1066.6666666666667</ele><time>2026-05-02T15:01:51.615Z</time></trkpt><trkpt lat="42.1275285" lon="13.3301368"><ele>1068.0</ele><time>2026-05-02T15:01:53.613Z</time></trkpt><trkpt lat="42.127601" lon="13.3301651"><ele>1069.3333333333333</ele><time>2026-05-02T15:01:55.615Z</time></trkpt><trkpt lat="42.1276709" lon="13.3302096"><ele>1070.6666666666665</ele><time>2026-05-02T15:01:58.615Z</time></trkpt><trkpt lat="42.1277463" lon="13.3302252"><ele>1072.0</ele><time>2026-05-02T15:02:01.615Z</time></trkpt><trkpt lat="42.1278092" lon="13.3302349"><ele>1072.0</ele><time>2026-05-02T15:02:03.615Z</time></trkpt><trkpt lat="42.1278786" lon="13.3302358"><ele>1072.0</ele><time>2026-05-02T15:02:05.615Z</time></trkpt><trkpt lat="42.1279604" lon="13.3302197"><ele>1072.0</ele><time>2026-05-02T15:02:07.614Z</time></trkpt><trkpt lat="42.1280541" lon="13.3301934"><ele>1072.0</ele><time>2026-05-02T15:02:09.612Z</time></trkpt><trkpt lat="42.128152" lon="13.3301516"><ele>1072.0</ele><time>2026-05-02T15:02:11.613Z</time></trkpt><trkpt lat="42.1282423" lon="13.3301015"><ele>1072.0</ele><time>2026-05-02T15:02:13.615Z</time></trkpt><trkpt lat="42.1283223" lon="13.3300613"><ele>1071.3333333333333</ele><time>2026-05-02T15:02:15.614Z</time></trkpt><trkpt lat="42.1283906" lon="13.3300242"><ele>1070.6666666666665</ele><time>2026-05-02T15:02:17.614Z</time></trkpt><trkpt lat="42.1284603" lon="13.3299901"><ele>1070.0</ele><time>2026-05-02T15:02:19.615Z</time></trkpt><trkpt lat="42.1285593" lon="13.3299385"><ele>1069.3333333333333</ele><time>2026-05-02T15:02:21.613Z</time></trkpt><trkpt lat="42.1286232" lon="13.3299027"><ele>1068.6666666666667</ele><time>2026-05-02T15:02:22.61Z</time></trkpt><trkpt lat="42.1286857" lon="13.3298629"><ele>1068.0</ele><time>2026-05-02T15:02:23.615Z</time></trkpt><trkpt lat="42.1287574" lon="13.3298107"><ele>1068.0</ele><time>2026-05-02T15:02:24.611Z</time></trkpt><trkpt lat="42.1288499" lon="13.3297411"><ele>1068.0</ele><time>2026-05-02T15:02:25.616Z</time></trkpt><trkpt lat="42.1289594" lon="13.3296564"><ele>1068.0</ele><time>2026-05-02T15:02:26.615Z</time></trkpt><trkpt lat="42.1276709" lon="13.3302096"><ele>1068.6666666666667</ele><time>2026-05-02T15:01:58.615Z</time></trkpt><trkpt lat="42.1277463" lon="13.3302252"><ele>1069.3333333333333</ele><time>2026-05-02T15:02:01.615Z</time></trkpt><trkpt lat="42.1278092" lon="13.3302349"><ele>1070.0</ele><time>2026-05-02T15:02:03.615Z</time></trkpt><trkpt lat="42.1278786" lon="13.3302358"><ele>1070.6666666666665</ele><time>2026-05-02T15:02:05.615Z</time></trkpt><trkpt lat="42.1279604" lon="13.3302197"><ele>1071.3333333333333</ele><time>2026-05-02T15:02:07.614Z</time></trkpt><trkpt lat="42.1280541" lon="13.3301934"><ele>1072.0</ele><time>2026-05-02T15:02:09.612Z</time></trkpt><trkpt lat="42.128152" lon="13.3301516"><ele>1071.3333333333333</ele><time>2026-05-02T15:02:11.613Z</time></trkpt><trkpt lat="42.1282423" lon="13.3301015"><ele>1070.6666666666665</ele><time>2026-05-02T15:02:13.615Z</time></trkpt><trkpt lat="42.1283223" lon="13.3300613"><ele>1070.0</ele><time>2026-05-02T15:02:15.614Z</time></trkpt><trkpt lat="42.1283906" lon="13.3300242"><ele>1069.3333333333333</ele><time>2026-05-02T15:02:17.614Z</time></trkpt><trkpt lat="42.1284603" lon="13.3299901"><ele>1068.6666666666667</ele><time>2026-05-02T15:02:19.615Z</time></trkpt><trkpt lat="42.1285593" lon="13.3299385"><ele>1068.0</ele><time>2026-05-02T15:02:21.613Z</time></trkpt><trkpt lat="42.1286232" lon="13.3299027"><ele>1068.0</ele><time>2026-05-02T15:02:22.61Z</time></trkpt><trkpt lat="42.1286857" lon="13.3298629"><ele>1068.0</ele><time>2026-05-02T15:02:23.615Z</time></trkpt><trkpt lat="42.1287574" lon="13.3298107"><ele>1068.0</ele><time>2026-05-02T15:02:24.611Z</time></trkpt><trkpt lat="42.1288499" lon="13.3297411"><ele>1068.0</ele><time>2026-05-02T15:02:25.616Z</time></trkpt><trkpt lat="42.1289594" lon="13.3296564"><ele>1068.0</ele><time>2026-05-02T15:02:26.615Z</time></trkpt><trkpt lat="42.1290726" lon="13.3295721"><ele>1067.0</ele><time>2026-05-02T15:02:27.615Z</time></trkpt><trkpt lat="42.1291839" lon="13.329494"><ele>1066.0</ele><time>2026-05-02T15:02:28.615Z</time></trkpt><trkpt lat="42.1292916" lon="13.3294112"><ele>1065.0</ele><time>2026-05-02T15:02:29.611Z</time></trkpt><trkpt lat="42.1294408" lon="13.329269"><ele>1064.0</ele><time>2026-05-02T15:02:31.072Z</time></trkpt><trkpt lat="42.1295811" lon="13.3291081"><ele>1064.0</ele><time>2026-05-02T15:02:32.605Z</time></trkpt><trkpt lat="42.1296687" lon="13.3290005"><ele>1064.0</ele><time>2026-05-02T15:02:33.605Z</time></trkpt><trkpt lat="42.1297462" lon="13.3288884"><ele>1064.0</ele><time>2026-05-02T15:02:34.605Z</time></trkpt><trkpt lat="42.1298108" lon="13.3287833"><ele>1064.0</ele><time>2026-05-02T15:02:35.606Z</time></trkpt><trkpt lat="42.1298706" lon="13.3286857"><ele>1064.0</ele><time>2026-05-02T15:02:36.606Z</time></trkpt><trkpt lat="42.1299289" lon="13.3285907"><ele>1063.6666666666667</ele><time>2026-05-02T15:02:37.606Z</time></trkpt><trkpt lat="42.1299845" lon="13.3285012"><ele>1063.3333333333335</ele><time>2026-05-02T15:02:38.605Z</time></trkpt><trkpt lat="42.1300413" lon="13.3284147"><ele>1063.0</ele><time>2026-05-02T15:02:39.605Z</time></trkpt><trkpt lat="42.1300971" lon="13.3283278"><ele>1062.6666666666667</ele><time>2026-05-02T15:02:40.605Z</time></trkpt><trkpt lat="42.1301508" lon="13.3282451"><ele>1062.3333333333333</ele><time>2026-05-02T15:02:41.606Z</time></trkpt><trkpt lat="42.1301955" lon="13.3281569"><ele>1062.0</ele><time>2026-05-02T15:02:42.605Z</time></trkpt><trkpt lat="42.1302356" lon="13.3280623"><ele>1062.3333333333333</ele><time>2026-05-02T15:02:43.605Z</time></trkpt><trkpt lat="42.1302787" lon="13.3279693"><ele>1062.6666666666667</ele><time>2026-05-02T15:02:44.606Z</time></trkpt><trkpt lat="42.130319" lon="13.327885"><ele>1063.0</ele><time>2026-05-02T15:02:45.606Z</time></trkpt><trkpt lat="42.1303523" lon="13.3278082"><ele>1063.3333333333335</ele><time>2026-05-02T15:02:46.606Z</time></trkpt><trkpt lat="42.1303802" lon="13.3277245"><ele>1063.6666666666667</ele><time>2026-05-02T15:02:47.605Z</time></trkpt><trkpt lat="42.1303993" lon="13.3276177"><ele>1064.0</ele><time>2026-05-02T15:02:48.606Z</time></trkpt><trkpt lat="42.1304035" lon="13.3274857"><ele>1064.0</ele><time>2026-05-02T15:02:49.605Z</time></trkpt><trkpt lat="42.1304035" lon="13.3273416"><ele>1064.0</ele><time>2026-05-02T15:02:50.605Z</time></trkpt><trkpt lat="42.130408" lon="13.3271987"><ele>1064.0</ele><time>2026-05-02T15:02:51.605Z</time></trkpt><trkpt lat="42.1304177" lon="13.32706"><ele>1064.0</ele><time>2026-05-02T15:02:52.605Z</time></trkpt><trkpt lat="42.1304382" lon="13.3269247"><ele>1064.0</ele><time>2026-05-02T15:02:53.606Z</time></trkpt><trkpt lat="42.130476" lon="13.3267835"><ele>1065.2</ele><time>2026-05-02T15:02:54.605Z</time></trkpt><trkpt lat="42.1305101" lon="13.3266429"><ele>1066.4</ele><time>2026-05-02T15:02:55.605Z</time></trkpt><trkpt lat="42.1305266" lon="13.3264975"><ele>1067.6</ele><time>2026-05-02T15:02:56.606Z</time></trkpt><trkpt lat="42.1305359" lon="13.3263482"><ele>1068.8</ele><time>2026-05-02T15:02:57.605Z</time></trkpt><trkpt lat="42.1305433" lon="13.3262076"><ele>1070.0</ele><time>2026-05-02T15:02:58.605Z</time></trkpt><trkpt lat="42.1305498" lon="13.326073"><ele>1071.5</ele><time>2026-05-02T15:02:59.606Z</time></trkpt><trkpt lat="42.1305554" lon="13.3259466"><ele>1073.0</ele><time>2026-05-02T15:03:00.605Z</time></trkpt><trkpt lat="42.1305571" lon="13.3258236"><ele>1074.5</ele><time>2026-05-02T15:03:01.606Z</time></trkpt><trkpt lat="42.1305553" lon="13.3257041"><ele>1076.0</ele><time>2026-05-02T15:03:02.606Z</time></trkpt><trkpt lat="42.1305579" lon="13.3255937"><ele>1077.5</ele><time>2026-05-02T15:03:03.606Z</time></trkpt><trkpt lat="42.130571" lon="13.3254925"><ele>1079.0</ele><time>2026-05-02T15:03:04.605Z</time></trkpt><trkpt lat="42.1305895" lon="13.3253972"><ele>1080.0</ele><time>2026-05-02T15:03:05.605Z</time></trkpt><trkpt lat="42.1306058" lon="13.3253124"><ele>1081.0</ele><time>2026-05-02T15:03:06.606Z</time></trkpt><trkpt lat="42.130583" lon="13.325157"><ele>1082.0</ele><time>2026-05-02T15:03:08.605Z</time></trkpt><trkpt lat="42.1305635" lon="13.3250716"><ele>1083.0</ele><time>2026-05-02T15:03:09.605Z</time></trkpt><trkpt lat="42.1305305" lon="13.3249047"><ele>1084.0</ele><time>2026-05-02T15:03:11.605Z</time></trkpt><trkpt lat="42.130529" lon="13.3247364"><ele>1084.0</ele><time>2026-05-02T15:03:13.605Z</time></trkpt><trkpt lat="42.1305421" lon="13.3246514"><ele>1084.0</ele><time>2026-05-02T15:03:14.606Z</time></trkpt><trkpt lat="42.1305851" lon="13.3245197"><ele>1084.0</ele><time>2026-05-02T15:03:16.605Z</time></trkpt><trkpt lat="42.1306544" lon="13.3244267"><ele>1084.0</ele><time>2026-05-02T15:03:18.606Z</time></trkpt><trkpt lat="42.1307143" lon="13.3243425"><ele>1084.0</ele><time>2026-05-02T15:03:20.605Z</time></trkpt><trkpt lat="42.1307362" lon="13.3242255"><ele>1084.0</ele><time>2026-05-02T15:03:22.605Z</time></trkpt><trkpt lat="42.130735" lon="13.3240687"><ele>1084.0</ele><time>2026-05-02T15:03:24.605Z</time></trkpt><trkpt lat="42.130709" lon="13.3239124"><ele>1084.0</ele><time>2026-05-02T15:03:26.605Z</time></trkpt><trkpt lat="42.1307124" lon="13.3237536"><ele>1084.0</ele><time>2026-05-02T15:03:28.605Z</time></trkpt><trkpt lat="42.1307188" lon="13.3236569"><ele>1084.0</ele><time>2026-05-02T15:03:29.605Z</time></trkpt><trkpt lat="42.1307305" lon="13.3235516"><ele>1084.0</ele><time>2026-05-02T15:03:30.606Z</time></trkpt><trkpt lat="42.1307467" lon="13.3234482"><ele>1082.8333333333333</ele><time>2026-05-02T15:03:31.605Z</time></trkpt><trkpt lat="42.1307671" lon="13.3233442"><ele>1081.6666666666665</ele><time>2026-05-02T15:03:32.605Z</time></trkpt><trkpt lat="42.1307865" lon="13.3232475"><ele>1080.5</ele><time>2026-05-02T15:03:33.605Z</time></trkpt><trkpt lat="42.130805" lon="13.3231574"><ele>1079.3333333333333</ele><time>2026-05-02T15:03:34.605Z</time></trkpt><trkpt lat="42.1308225" lon="13.3230748"><ele>1078.1666666666667</ele><time>2026-05-02T15:03:35.606Z</time></trkpt><trkpt lat="42.1308536" lon="13.322926"><ele>1077.0</ele><time>2026-05-02T15:03:37.605Z</time></trkpt><trkpt lat="42.130871" lon="13.322841"><ele>1077.0</ele><time>2026-05-02T15:03:38.605Z</time></trkpt><trkpt lat="42.1308898" lon="13.3227522"><ele>1077.0</ele><time>2026-05-02T15:03:39.605Z</time></trkpt><trkpt lat="42.1309278" lon="13.322592"><ele>1077.0</ele><time>2026-05-02T15:03:41.605Z</time></trkpt><trkpt lat="42.1309496" lon="13.3224999"><ele>1077.0</ele><time>2026-05-02T15:03:42.606Z</time></trkpt><trkpt lat="42.1309615" lon="13.3224023"><ele>1077.0</ele><time>2026-05-02T15:03:43.606Z</time></trkpt><trkpt lat="42.1309663" lon="13.3223026"><ele>1077.0</ele><time>2026-05-02T15:03:44.606Z</time></trkpt><trkpt lat="42.1309639" lon="13.3221772"><ele>1077.0</ele><time>2026-05-02T15:03:45.605Z</time></trkpt><trkpt lat="42.1309508" lon="13.3220423"><ele>1077.0</ele><time>2026-05-02T15:03:46.605Z</time></trkpt><trkpt lat="42.1309334" lon="13.3218972"><ele>1077.0</ele><time>2026-05-02T15:03:47.605Z</time></trkpt><trkpt lat="42.1309241" lon="13.3217508"><ele>1077.0</ele><time>2026-05-02T15:03:48.605Z</time></trkpt><trkpt lat="42.1309163" lon="13.3216017"><ele>1077.0</ele><time>2026-05-02T15:03:49.606Z</time></trkpt><trkpt lat="42.1309102" lon="13.3214545"><ele>1076.2</ele><time>2026-05-02T15:03:50.606Z</time></trkpt><trkpt lat="42.1309055" lon="13.3213066"><ele>1075.4</ele><time>2026-05-02T15:03:51.605Z</time></trkpt><trkpt lat="42.1308986" lon="13.3211751"><ele>1074.6</ele><time>2026-05-02T15:03:52.605Z</time></trkpt><trkpt lat="42.1308909" lon="13.3210432"><ele>1073.8</ele><time>2026-05-02T15:03:53.606Z</time></trkpt><trkpt lat="42.1308861" lon="13.3209223"><ele>1073.0</ele><time>2026-05-02T15:03:54.605Z</time></trkpt><trkpt lat="42.1308788" lon="13.3208053"><ele>1073.0</ele><time>2026-05-02T15:03:55.605Z</time></trkpt><trkpt lat="42.1308723" lon="13.3206882"><ele>1073.0</ele><time>2026-05-02T15:03:56.606Z</time></trkpt><trkpt lat="42.1308676" lon="13.3205787"><ele>1073.0</ele><time>2026-05-02T15:03:57.605Z</time></trkpt><trkpt lat="42.1308664" lon="13.3204748"><ele>1073.0</ele><time>2026-05-02T15:03:58.605Z</time></trkpt><trkpt lat="42.1308722" lon="13.3203867"><ele>1073.0</ele><time>2026-05-02T15:03:59.605Z</time></trkpt><trkpt lat="42.1309141" lon="13.3202567"><ele>1073.0</ele><time>2026-05-02T15:04:01.605Z</time></trkpt><trkpt lat="42.1309726" lon="13.3201483"><ele>1073.3333333333335</ele><time>2026-05-02T15:04:03.606Z</time></trkpt><trkpt lat="42.1309756" lon="13.3200326"><ele>1073.6666666666667</ele><time>2026-05-02T15:04:06.606Z</time></trkpt><trkpt lat="42.1309392" lon="13.3199519"><ele>1074.0</ele><time>2026-05-02T15:04:09.606Z</time></trkpt><trkpt lat="42.1309609" lon="13.3198466"><ele>1074.3333333333333</ele><time>2026-05-02T15:04:11.606Z</time></trkpt><trkpt lat="42.1309942" lon="13.3197326"><ele>1074.6666666666665</ele><time>2026-05-02T15:04:13.605Z</time></trkpt><trkpt lat="42.1310417" lon="13.3196228"><ele>1075.0</ele><time>2026-05-02T15:04:15.605Z</time></trkpt><trkpt lat="42.1310861" lon="13.3195305"><ele>1075.3333333333333</ele><time>2026-05-02T15:04:17.605Z</time></trkpt><trkpt lat="42.1311201" lon="13.3194212"><ele>1075.6666666666665</ele><time>2026-05-02T15:04:19.605Z</time></trkpt><trkpt lat="42.1311852" lon="13.3193181"><ele>1076.0</ele><time>2026-05-02T15:04:22.605Z</time></trkpt><trkpt lat="42.131263" lon="13.3192259"><ele>1076.3333333333333</ele><time>2026-05-02T15:04:24.606Z</time></trkpt><trkpt lat="42.1312974" lon="13.3191386"><ele>1076.6666666666667</ele><time>2026-05-02T15:04:25.605Z</time></trkpt><trkpt lat="42.1313268" lon="13.3190398"><ele>1077.0</ele><time>2026-05-02T15:04:26.606Z</time></trkpt><trkpt lat="42.1313552" lon="13.3189448"><ele>1076.0</ele><time>2026-05-02T15:04:27.605Z</time></trkpt><trkpt lat="42.1313832" lon="13.3188566"><ele>1075.0</ele><time>2026-05-02T15:04:28.605Z</time></trkpt><trkpt lat="42.1314097" lon="13.3187739"><ele>1074.0</ele><time>2026-05-02T15:04:29.605Z</time></trkpt><trkpt lat="42.1314517" lon="13.3186235"><ele>1073.0</ele><time>2026-05-02T15:04:31.606Z</time></trkpt><trkpt lat="42.1315033" lon="13.3184683"><ele>1072.0</ele><time>2026-05-02T15:04:33.605Z</time></trkpt><trkpt lat="42.1315406" lon="13.3183961"><ele>1071.0</ele><time>2026-05-02T15:04:34.605Z</time></trkpt><trkpt lat="42.1316434" lon="13.3182802"><ele>1069.5</ele><time>2026-05-02T15:04:36.605Z</time></trkpt><trkpt lat="42.1317113" lon="13.3182103"><ele>1068.0</ele><time>2026-05-02T15:04:37.606Z</time></trkpt><trkpt lat="42.131778" lon="13.3181332"><ele>1066.5</ele><time>2026-05-02T15:04:38.605Z</time></trkpt><trkpt lat="42.1318353" lon="13.3180551"><ele>1065.0</ele><time>2026-05-02T15:04:39.606Z</time></trkpt><trkpt lat="42.1318821" lon="13.3179815"><ele>1063.5</ele><time>2026-05-02T15:04:40.605Z</time></trkpt><trkpt lat="42.131912" lon="13.3179061"><ele>1062.0</ele><time>2026-05-02T15:04:41.606Z</time></trkpt><trkpt lat="42.1319193" lon="13.3178166"><ele>1060.8</ele><time>2026-05-02T15:04:42.605Z</time></trkpt><trkpt lat="42.1319358" lon="13.3176695"><ele>1059.6</ele><time>2026-05-02T15:04:44.605Z</time></trkpt><trkpt lat="42.1319813" lon="13.3175421"><ele>1058.3999999999999</ele><time>2026-05-02T15:04:46.605Z</time></trkpt><trkpt lat="42.1320594" lon="13.3174047"><ele>1057.2</ele><time>2026-05-02T15:04:48.605Z</time></trkpt><trkpt lat="42.1321047" lon="13.3173285"><ele>1056.0</ele><time>2026-05-02T15:04:49.606Z</time></trkpt><trkpt lat="42.1321556" lon="13.3172555"><ele>1055.7142857142858</ele><time>2026-05-02T15:04:50.605Z</time></trkpt><trkpt lat="42.1322047" lon="13.3171868"><ele>1055.4285714285716</ele><time>2026-05-02T15:04:51.605Z</time></trkpt><trkpt lat="42.1322515" lon="13.317121"><ele>1055.1428571428573</ele><time>2026-05-02T15:04:52.605Z</time></trkpt><trkpt lat="42.1322976" lon="13.3170515"><ele>1054.857142857143</ele><time>2026-05-02T15:04:53.605Z</time></trkpt><trkpt lat="42.1323425" lon="13.3169811"><ele>1054.5714285714287</ele><time>2026-05-02T15:04:54.606Z</time></trkpt><trkpt lat="42.1323872" lon="13.3169159"><ele>1054.2857142857144</ele><time>2026-05-02T15:04:55.605Z</time></trkpt><trkpt lat="42.1324372" lon="13.316859"><ele>1054.0</ele><time>2026-05-02T15:04:56.606Z</time></trkpt><trkpt lat="42.1324908" lon="13.3168006"><ele>1054.0000000000002</ele><time>2026-05-02T15:04:57.606Z</time></trkpt><trkpt lat="42.1325401" lon="13.3167362"><ele>1054.0</ele><time>2026-05-02T15:04:58.606Z</time></trkpt><trkpt lat="42.1325843" lon="13.3166699"><ele>1054.0</ele><time>2026-05-02T15:04:59.605Z</time></trkpt><trkpt lat="42.1326344" lon="13.3166014"><ele>1054.0</ele><time>2026-05-02T15:05:00.605Z</time></trkpt><trkpt lat="42.1326913" lon="13.3165282"><ele>1054.0</ele><time>2026-05-02T15:05:01.606Z</time></trkpt><trkpt lat="42.1327483" lon="13.3164511"><ele>1054.0000000000002</ele><time>2026-05-02T15:05:02.605Z</time></trkpt><trkpt lat="42.1328004" lon="13.3163748"><ele>1054.0</ele><time>2026-05-02T15:05:03.605Z</time></trkpt><trkpt lat="42.1328488" lon="13.3162996"><ele>1053.3333333333333</ele><time>2026-05-02T15:05:04.606Z</time></trkpt><trkpt lat="42.1328927" lon="13.3162287"><ele>1052.6666666666665</ele><time>2026-05-02T15:05:05.605Z</time></trkpt><trkpt lat="42.1329331" lon="13.3161625"><ele>1052.0</ele><time>2026-05-02T15:05:06.605Z</time></trkpt><trkpt lat="42.1330095" lon="13.3160489"><ele>1051.3333333333333</ele><time>2026-05-02T15:05:08.605Z</time></trkpt><trkpt lat="42.1330582" lon="13.3159362"><ele>1050.6666666666667</ele><time>2026-05-02T15:05:10.605Z</time></trkpt><trkpt lat="42.1330708" lon="13.3157992"><ele>1050.0</ele><time>2026-05-02T15:05:12.605Z</time></trkpt><trkpt lat="42.1330597" lon="13.3156735"><ele>1050.0</ele><time>2026-05-02T15:05:14.605Z</time></trkpt><trkpt lat="42.1330073" lon="13.3155785"><ele>1050.0</ele><time>2026-05-02T15:05:16.606Z</time></trkpt><trkpt lat="42.1329131" lon="13.315538"><ele>1050.0</ele><time>2026-05-02T15:05:18.605Z</time></trkpt><trkpt lat="42.1328206" lon="13.3155101"><ele>1050.0</ele><time>2026-05-02T15:05:20.605Z</time></trkpt><trkpt lat="42.1327279" lon="13.3154275"><ele>1050.0</ele><time>2026-05-02T15:05:22.605Z</time></trkpt><trkpt lat="42.1326814" lon="13.315356"><ele>1049.6666666666667</ele><time>2026-05-02T15:05:23.606Z</time></trkpt><trkpt lat="42.1326361" lon="13.3152726"><ele>1049.3333333333333</ele><time>2026-05-02T15:05:24.605Z</time></trkpt><trkpt lat="42.1325948" lon="13.3151863"><ele>1049.0</ele><time>2026-05-02T15:05:25.606Z</time></trkpt><trkpt lat="42.1325638" lon="13.3150971"><ele>1048.6666666666665</ele><time>2026-05-02T15:05:26.606Z</time></trkpt><trkpt lat="42.1325359" lon="13.3149967"><ele>1048.3333333333333</ele><time>2026-05-02T15:05:27.605Z</time></trkpt><trkpt lat="42.1325067" lon="13.3148999"><ele>1048.0</ele><time>2026-05-02T15:05:28.605Z</time></trkpt><trkpt lat="42.132476" lon="13.314807"><ele>1048.0</ele><time>2026-05-02T15:05:29.605Z</time></trkpt><trkpt lat="42.1324452" lon="13.3147214"><ele>1048.0</ele><time>2026-05-02T15:05:30.605Z</time></trkpt><trkpt lat="42.1324103" lon="13.3146385"><ele>1048.0</ele><time>2026-05-02T15:05:31.605Z</time></trkpt><trkpt lat="42.1323631" lon="13.3145546"><ele>1048.0</ele><time>2026-05-02T15:05:32.605Z</time></trkpt><trkpt lat="42.1323038" lon="13.3144758"><ele>1048.0</ele><time>2026-05-02T15:05:33.605Z</time></trkpt><trkpt lat="42.1322346" lon="13.314396"><ele>1048.0</ele><time>2026-05-02T15:05:34.605Z</time></trkpt><trkpt lat="42.132163" lon="13.314312"><ele>1048.1666666666665</ele><time>2026-05-02T15:05:35.605Z</time></trkpt><trkpt lat="42.1320962" lon="13.3142251"><ele>1048.3333333333333</ele><time>2026-05-02T15:05:36.606Z</time></trkpt><trkpt lat="42.1320337" lon="13.3141436"><ele>1048.5</ele><time>2026-05-02T15:05:37.605Z</time></trkpt><trkpt lat="42.1319773" lon="13.3140701"><ele>1048.6666666666667</ele><time>2026-05-02T15:05:38.605Z</time></trkpt><trkpt lat="42.1319276" lon="13.3140011"><ele>1048.8333333333335</ele><time>2026-05-02T15:05:39.605Z</time></trkpt><trkpt lat="42.131887" lon="13.313932"><ele>1049.0</ele><time>2026-05-02T15:05:40.605Z</time></trkpt><trkpt lat="42.1318417" lon="13.313796"><ele>1049.5</ele><time>2026-05-02T15:05:42.605Z</time></trkpt><trkpt lat="42.1318338" lon="13.3137085"><ele>1050.0</ele><time>2026-05-02T15:05:43.605Z</time></trkpt><trkpt lat="42.1318328" lon="13.313604"><ele>1050.5</ele><time>2026-05-02T15:05:44.606Z</time></trkpt><trkpt lat="42.1318341" lon="13.3134968"><ele>1051.0</ele><time>2026-05-02T15:05:45.605Z</time></trkpt><trkpt lat="42.1318357" lon="13.3133947"><ele>1051.5</ele><time>2026-05-02T15:05:46.605Z</time></trkpt><trkpt lat="42.1318374" lon="13.3132925"><ele>1052.0</ele><time>2026-05-02T15:05:47.605Z</time></trkpt><trkpt lat="42.1318373" lon="13.3131903"><ele>1052.0</ele><time>2026-05-02T15:05:48.606Z</time></trkpt><trkpt lat="42.1318365" lon="13.3130957"><ele>1052.0</ele><time>2026-05-02T15:05:49.605Z</time></trkpt><trkpt lat="42.1318373" lon="13.3130021"><ele>1052.0</ele><time>2026-05-02T15:05:50.605Z</time></trkpt><trkpt lat="42.1318439" lon="13.312902"><ele>1052.0</ele><time>2026-05-02T15:05:51.605Z</time></trkpt><trkpt lat="42.1318575" lon="13.3128068"><ele>1052.0</ele><time>2026-05-02T15:05:52.605Z</time></trkpt><trkpt lat="42.1318797" lon="13.3127159"><ele>1052.0</ele><time>2026-05-02T15:05:53.605Z</time></trkpt><trkpt lat="42.13191" lon="13.3126299"><ele>1052.0</ele><time>2026-05-02T15:05:54.605Z</time></trkpt><trkpt lat="42.1319484" lon="13.3125536"><ele>1052.5</ele><time>2026-05-02T15:05:55.605Z</time></trkpt><trkpt lat="42.1319956" lon="13.3124843"><ele>1053.0</ele><time>2026-05-02T15:05:56.606Z</time></trkpt><trkpt lat="42.1320498" lon="13.3124254"><ele>1053.5</ele><time>2026-05-02T15:05:57.605Z</time></trkpt><trkpt lat="42.1321031" lon="13.3123689"><ele>1054.0</ele><time>2026-05-02T15:05:58.605Z</time></trkpt><trkpt lat="42.1321696" lon="13.3122656"><ele>1054.5</ele><time>2026-05-02T15:06:00.605Z</time></trkpt><trkpt lat="42.1321893" lon="13.3121559"><ele>1055.0</ele><time>2026-05-02T15:06:02.605Z</time></trkpt><trkpt lat="42.1322456" lon="13.3120687"><ele>1057.0</ele><time>2026-05-02T15:06:04.605Z</time></trkpt><trkpt lat="42.1323334" lon="13.3120019"><ele>1059.0</ele><time>2026-05-02T15:06:06.605Z</time></trkpt><trkpt lat="42.1323778" lon="13.311901"><ele>1061.0</ele><time>2026-05-02T15:06:08.605Z</time></trkpt><trkpt lat="42.132425" lon="13.3117852"><ele>1063.0</ele><time>2026-05-02T15:06:10.606Z</time></trkpt><trkpt lat="42.1325321" lon="13.3117047"><ele>1065.0</ele><time>2026-05-02T15:06:12.606Z</time></trkpt><trkpt lat="42.1326408" lon="13.3116424"><ele>1061.8</ele><time>2026-05-02T15:06:14.606Z</time></trkpt><trkpt lat="42.1327296" lon="13.3115508"><ele>1058.6</ele><time>2026-05-02T15:06:16.605Z</time></trkpt><trkpt lat="42.1327978" lon="13.3114333"><ele>1055.4</ele><time>2026-05-02T15:06:18.605Z</time></trkpt><trkpt lat="42.1328632" lon="13.3113163"><ele>1052.2</ele><time>2026-05-02T15:06:20.605Z</time></trkpt><trkpt lat="42.1329667" lon="13.3112409"><ele>1049.0</ele><time>2026-05-02T15:06:22.605Z</time></trkpt><trkpt lat="42.1330826" lon="13.3111897"><ele>1049.0</ele><time>2026-05-02T15:06:24.605Z</time></trkpt><trkpt lat="42.1331853" lon="13.3111461"><ele>1049.0</ele><time>2026-05-02T15:06:26.606Z</time></trkpt><trkpt lat="42.1332389" lon="13.3110658"><ele>1049.0</ele><time>2026-05-02T15:06:29.605Z</time></trkpt><trkpt lat="42.1332461" lon="13.3109649"><ele>1049.0</ele><time>2026-05-02T15:06:31.605Z</time></trkpt><trkpt lat="42.13328" lon="13.3108452"><ele>1049.0</ele><time>2026-05-02T15:06:33.606Z</time></trkpt><trkpt lat="42.1333251" lon="13.3107395"><ele>1049.0</ele><time>2026-05-02T15:06:35.605Z</time></trkpt><trkpt lat="42.1333908" lon="13.3106642"><ele>1047.0</ele><time>2026-05-02T15:06:37.605Z</time></trkpt><trkpt lat="42.1334837" lon="13.3105679"><ele>1045.0</ele><time>2026-05-02T15:06:39.606Z</time></trkpt><trkpt lat="42.1335612" lon="13.3104614"><ele>1043.0</ele><time>2026-05-02T15:06:41.605Z</time></trkpt><trkpt lat="42.1336212" lon="13.3103825"><ele>1041.0</ele><time>2026-05-02T15:06:43.606Z</time></trkpt><trkpt lat="42.1336594" lon="13.3103053"><ele>1039.0</ele><time>2026-05-02T15:06:45.605Z</time></trkpt><trkpt lat="42.133702" lon="13.3102109"><ele>1039.0</ele><time>2026-05-02T15:06:47.606Z</time></trkpt><trkpt lat="42.1337447" lon="13.3101249"><ele>1039.0</ele><time>2026-05-02T15:06:49.605Z</time></trkpt><trkpt lat="42.1338024" lon="13.3100457"><ele>1039.0</ele><time>2026-05-02T15:06:52.605Z</time></trkpt><trkpt lat="42.1338853" lon="13.3100077"><ele>1039.0</ele><time>2026-05-02T15:06:54.606Z</time></trkpt><trkpt lat="42.1339771" lon="13.3100023"><ele>1039.0</ele><time>2026-05-02T15:06:56.606Z</time></trkpt><trkpt lat="42.1340449" lon="13.3099667"><ele>1039.0</ele><time>2026-05-02T15:06:58.605Z</time></trkpt><trkpt lat="42.1341028" lon="13.3098574"><ele>1036.0</ele><time>2026-05-02T15:07:00.605Z</time></trkpt><trkpt lat="42.1341458" lon="13.3097746"><ele>1033.0</ele><time>2026-05-02T15:07:02.606Z</time></trkpt><trkpt lat="42.1341571" lon="13.3096433"><ele>1030.0</ele><time>2026-05-02T15:07:05.605Z</time></trkpt><trkpt lat="42.1341474" lon="13.309534"><ele>1027.0</ele><time>2026-05-02T15:07:08.606Z</time></trkpt><trkpt lat="42.1341702" lon="13.3094492"><ele>1023.9999999999999</ele><time>2026-05-02T15:07:10.605Z</time></trkpt><trkpt lat="42.1342324" lon="13.3093456"><ele>1021.0</ele><time>2026-05-02T15:07:12.605Z</time></trkpt><trkpt lat="42.1342875" lon="13.3092293"><ele>1020.1999999999999</ele><time>2026-05-02T15:07:14.606Z</time></trkpt><trkpt lat="42.1343372" lon="13.3091168"><ele>1019.3999999999999</ele><time>2026-05-02T15:07:16.605Z</time></trkpt><trkpt lat="42.1343846" lon="13.3090473"><ele>1018.6</ele><time>2026-05-02T15:07:18.605Z</time></trkpt><trkpt lat="42.1344473" lon="13.3089684"><ele>1017.8</ele><time>2026-05-02T15:07:20.605Z</time></trkpt><trkpt lat="42.1345401" lon="13.3088609"><ele>1017.0</ele><time>2026-05-02T15:07:22.605Z</time></trkpt><trkpt lat="42.1346324" lon="13.308766"><ele>1017.0</ele><time>2026-05-02T15:07:24.606Z</time></trkpt><trkpt lat="42.1347045" lon="13.308712"><ele>1017.0</ele><time>2026-05-02T15:07:26.605Z</time></trkpt><trkpt lat="42.1347133" lon="13.3085899"><ele>1017.0</ele><time>2026-05-02T15:07:29.605Z</time></trkpt><trkpt lat="42.1347012" lon="13.3084443"><ele>1017.0</ele><time>2026-05-02T15:07:31.606Z</time></trkpt><trkpt lat="42.1347126" lon="13.3083015"><ele>1017.0</ele><time>2026-05-02T15:07:33.605Z</time></trkpt><trkpt lat="42.1347187" lon="13.3081646"><ele>1015.0</ele><time>2026-05-02T15:07:35.606Z</time></trkpt><trkpt lat="42.1347184" lon="13.3080246"><ele>1013.0</ele><time>2026-05-02T15:07:37.605Z</time></trkpt><trkpt lat="42.1347393" lon="13.3078879"><ele>1011.0</ele><time>2026-05-02T15:07:39.605Z</time></trkpt><trkpt lat="42.1347647" lon="13.3077794"><ele>1009.0</ele><time>2026-05-02T15:07:41.605Z</time></trkpt><trkpt lat="42.1348298" lon="13.3076812"><ele>1007.0</ele><time>2026-05-02T15:07:43.606Z</time></trkpt><trkpt lat="42.1348719" lon="13.3075758"><ele>1007.0</ele><time>2026-05-02T15:07:45.606Z</time></trkpt><trkpt lat="42.1348544" lon="13.30746"><ele>1007.0</ele><time>2026-05-02T15:07:47.605Z</time></trkpt><trkpt lat="42.1347876" lon="13.307349"><ele>1007.0</ele><time>2026-05-02T15:07:49.606Z</time></trkpt><trkpt lat="42.1347139" lon="13.3072138"><ele>1007.0</ele><time>2026-05-02T15:07:51.605Z</time></trkpt><trkpt lat="42.1346773" lon="13.3071422"><ele>1007.0</ele><time>2026-05-02T15:07:52.605Z</time></trkpt><trkpt lat="42.1346071" lon="13.3070112"><ele>1004.0</ele><time>2026-05-02T15:07:54.605Z</time></trkpt><trkpt lat="42.1345697" lon="13.3068863"><ele>1001.0</ele><time>2026-05-02T15:07:56.605Z</time></trkpt><trkpt lat="42.1345512" lon="13.3067347"><ele>998.0</ele><time>2026-05-02T15:07:58.605Z</time></trkpt><trkpt lat="42.134541" lon="13.3065845"><ele>995.0</ele><time>2026-05-02T15:08:00.605Z</time></trkpt><trkpt lat="42.1345374" lon="13.3064259"><ele>992.0</ele><time>2026-05-02T15:08:02.605Z</time></trkpt><trkpt lat="42.1345548" lon="13.3062825"><ele>989.4000000000001</ele><time>2026-05-02T15:08:04.605Z</time></trkpt><trkpt lat="42.1345377" lon="13.306165"><ele>986.8000000000001</ele><time>2026-05-02T15:08:06.605Z</time></trkpt><trkpt lat="42.1344645" lon="13.3060846"><ele>984.2</ele><time>2026-05-02T15:08:09.605Z</time></trkpt><trkpt lat="42.1344185" lon="13.3059838"><ele>981.6</ele><time>2026-05-02T15:08:11.606Z</time></trkpt><trkpt lat="42.1344128" lon="13.3058376"><ele>979.0</ele><time>2026-05-02T15:08:13.605Z</time></trkpt><trkpt lat="42.1343994" lon="13.3056965"><ele>977.4999999999999</ele><time>2026-05-02T15:08:15.606Z</time></trkpt><trkpt lat="42.1343813" lon="13.3055566"><ele>976.0</ele><time>2026-05-02T15:08:17.606Z</time></trkpt><trkpt lat="42.1343678" lon="13.3053966"><ele>974.5</ele><time>2026-05-02T15:08:19.606Z</time></trkpt><trkpt lat="42.1343602" lon="13.3053123"><ele>973.0</ele><time>2026-05-02T15:08:20.605Z</time></trkpt><trkpt lat="42.1343476" lon="13.3052265"><ele>971.4999999999999</ele><time>2026-05-02T15:08:21.605Z</time></trkpt><trkpt lat="42.1343322" lon="13.3051375"><ele>970.0</ele><time>2026-05-02T15:08:22.605Z</time></trkpt><trkpt lat="42.1343163" lon="13.3050483"><ele>970.0</ele><time>2026-05-02T15:08:23.605Z</time></trkpt><trkpt lat="42.1342993" lon="13.3049598"><ele>970.0</ele><time>2026-05-02T15:08:24.605Z</time></trkpt><trkpt lat="42.1342796" lon="13.3048764"><ele>970.0</ele><time>2026-05-02T15:08:25.605Z</time></trkpt><trkpt lat="42.1342517" lon="13.3047349"><ele>970.0</ele><time>2026-05-02T15:08:27.606Z</time></trkpt><trkpt lat="42.1342576" lon="13.3045707"><ele>970.0</ele><time>2026-05-02T15:08:29.606Z</time></trkpt><trkpt lat="42.1342522" lon="13.3044172"><ele>968.6666666666666</ele><time>2026-05-02T15:08:31.606Z</time></trkpt><trkpt lat="42.1342384" lon="13.3042789"><ele>967.3333333333333</ele><time>2026-05-02T15:08:33.605Z</time></trkpt><trkpt lat="42.1342256" lon="13.3041717"><ele>966.0</ele><time>2026-05-02T15:08:35.605Z</time></trkpt><trkpt lat="42.1342223" lon="13.3040823"><ele>964.6666666666667</ele><time>2026-05-02T15:08:39.606Z</time></trkpt><trkpt lat="42.1342359" lon="13.3039706"><ele>963.3333333333334</ele><time>2026-05-02T15:09:22.606Z</time></trkpt><trkpt lat="42.1342205" lon="13.3038803"><ele>962.0</ele><time>2026-05-02T15:16:10.605Z</time></trkpt><trkpt lat="42.1341664" lon="13.3038319"><ele>961.6666666666667</ele><time>2026-05-02T15:16:14.605Z</time></trkpt><trkpt lat="42.13414" lon="13.3037457"><ele>961.3333333333334</ele><time>2026-05-02T15:16:17.606Z</time></trkpt><trkpt lat="42.1341366" lon="13.3036595"><ele>961.0</ele><time>2026-05-02T15:16:19.606Z</time></trkpt><trkpt lat="42.1341295" lon="13.3034829"><ele>960.6666666666667</ele><time>2026-05-02T15:16:22.831Z</time></trkpt><trkpt lat="42.1341826" lon="13.3034007"><ele>960.3333333333334</ele><time>2026-05-02T15:16:24.602Z</time></trkpt><trkpt lat="42.1342128" lon="13.3032855"><ele>960.0</ele><time>2026-05-02T15:16:26.602Z</time></trkpt><trkpt lat="42.1342366" lon="13.3032012"><ele>960.0</ele><time>2026-05-02T15:17:29.603Z</time></trkpt><trkpt lat="42.1342703" lon="13.3031287"><ele>960.0</ele><time>2026-05-02T15:17:35.603Z</time></trkpt><trkpt lat="42.1343161" lon="13.3030159"><ele>960.0</ele><time>2026-05-02T15:17:37.602Z</time></trkpt><trkpt lat="42.1343755" lon="13.30289"><ele>960.0</ele><time>2026-05-02T15:17:39.602Z</time></trkpt><trkpt lat="42.1344403" lon="13.3027577"><ele>960.0</ele><time>2026-05-02T15:17:41.602Z</time></trkpt><trkpt lat="42.1344999" lon="13.3026155"><ele>960.8333333333334</ele><time>2026-05-02T15:17:43.603Z</time></trkpt><trkpt lat="42.1345262" lon="13.3025373"><ele>961.6666666666667</ele><time>2026-05-02T15:17:44.602Z</time></trkpt><trkpt lat="42.1345684" lon="13.3023852"><ele>962.5</ele><time>2026-05-02T15:17:46.602Z</time></trkpt><trkpt lat="42.1345749" lon="13.3022803"><ele>963.3333333333334</ele><time>2026-05-02T15:17:48.602Z</time></trkpt><trkpt lat="42.1345513" lon="13.3021935"><ele>964.1666666666667</ele><time>2026-05-02T15:17:51.603Z</time></trkpt><trkpt lat="42.134584" lon="13.3020912"><ele>965.0</ele><time>2026-05-02T15:17:54.603Z</time></trkpt><trkpt lat="42.1346382" lon="13.3020478"><ele>966.2</ele><time>2026-05-02T15:17:55.602Z</time></trkpt><trkpt lat="42.1347137" lon="13.3019376"><ele>967.4</ele><time>2026-05-02T15:17:57.602Z</time></trkpt><trkpt lat="42.1347459" lon="13.3018117"><ele>968.5999999999999</ele><time>2026-05-02T15:17:59.602Z</time></trkpt><trkpt lat="42.1347896" lon="13.3016744"><ele>969.8</ele><time>2026-05-02T15:18:01.602Z</time></trkpt><trkpt lat="42.134867" lon="13.3015517"><ele>971.0</ele><time>2026-05-02T15:18:03.602Z</time></trkpt><trkpt lat="42.1349631" lon="13.301456"><ele>966.6666666666667</ele><time>2026-05-02T15:18:05.602Z</time></trkpt><trkpt lat="42.1350612" lon="13.3013527"><ele>962.3333333333334</ele><time>2026-05-02T15:18:07.602Z</time></trkpt><trkpt lat="42.1351098" lon="13.3012885"><ele>958.0</ele><time>2026-05-02T15:18:08.603Z</time></trkpt><trkpt lat="42.1351548" lon="13.3012183"><ele>953.6666666666667</ele><time>2026-05-02T15:18:09.602Z</time></trkpt><trkpt lat="42.1351968" lon="13.3011533"><ele>949.3333333333334</ele><time>2026-05-02T15:18:10.602Z</time></trkpt><trkpt lat="42.1352814" lon="13.3010464"><ele>945.0</ele><time>2026-05-02T15:18:12.602Z</time></trkpt><trkpt lat="42.1353701" lon="13.3009558"><ele>945.0</ele><time>2026-05-02T15:18:14.602Z</time></trkpt><trkpt lat="42.1354759" lon="13.300893"><ele>945.0</ele><time>2026-05-02T15:18:16.603Z</time></trkpt><trkpt lat="42.1355824" lon="13.3008575"><ele>945.0</ele><time>2026-05-02T15:18:18.603Z</time></trkpt><trkpt lat="42.1356458" lon="13.300749"><ele>945.0</ele><time>2026-05-02T15:18:20.603Z</time></trkpt><trkpt lat="42.1357132" lon="13.30067"><ele>945.0</ele><time>2026-05-02T15:18:22.603Z</time></trkpt><trkpt lat="42.135802" lon="13.3006638"><ele>944.8</ele><time>2026-05-02T15:18:24.603Z</time></trkpt><trkpt lat="42.1359077" lon="13.3006772"><ele>944.6</ele><time>2026-05-02T15:18:26.602Z</time></trkpt><trkpt lat="42.136024" lon="13.3006619"><ele>944.4000000000001</ele><time>2026-05-02T15:18:28.602Z</time></trkpt><trkpt lat="42.1360833" lon="13.3006267"><ele>944.2</ele><time>2026-05-02T15:18:29.603Z</time></trkpt><trkpt lat="42.1361416" lon="13.3005921"><ele>944.0</ele><time>2026-05-02T15:18:30.603Z</time></trkpt><trkpt lat="42.1362418" lon="13.3005256"><ele>941.6</ele><time>2026-05-02T15:18:32.602Z</time></trkpt><trkpt lat="42.1363107" lon="13.3004524"><ele>939.2</ele><time>2026-05-02T15:18:34.602Z</time></trkpt><trkpt lat="42.136365" lon="13.3003422"><ele>936.8000000000001</ele><time>2026-05-02T15:18:36.602Z</time></trkpt><trkpt lat="42.1364463" lon="13.3002047"><ele>934.4000000000001</ele><time>2026-05-02T15:18:38.602Z</time></trkpt><trkpt lat="42.1364936" lon="13.3001338"><ele>932.0</ele><time>2026-05-02T15:18:39.602Z</time></trkpt><trkpt lat="42.136537" lon="13.3000699"><ele>932.0</ele><time>2026-05-02T15:18:40.602Z</time></trkpt><trkpt lat="42.1366143" lon="13.299938"><ele>932.0</ele><time>2026-05-02T15:18:42.602Z</time></trkpt><trkpt lat="42.1366528" lon="13.2998671"><ele>932.0</ele><time>2026-05-02T15:18:43.602Z</time></trkpt><trkpt lat="42.1367135" lon="13.2997247"><ele>932.0</ele><time>2026-05-02T15:18:45.602Z</time></trkpt><trkpt lat="42.1367517" lon="13.2995638"><ele>932.0</ele><time>2026-05-02T15:18:47.602Z</time></trkpt><trkpt lat="42.1367677" lon="13.2994761"><ele>932.0000000000001</ele><time>2026-05-02T15:18:48.602Z</time></trkpt><trkpt lat="42.1367826" lon="13.2993849"><ele>932.0</ele><time>2026-05-02T15:18:49.602Z</time></trkpt><trkpt lat="42.1367964" lon="13.2992908"><ele>932.0</ele><time>2026-05-02T15:18:50.603Z</time></trkpt><trkpt lat="42.1368085" lon="13.2991948"><ele>932.0</ele><time>2026-05-02T15:18:51.602Z</time></trkpt><trkpt lat="42.1368227" lon="13.2990954"><ele>932.0000000000001</ele><time>2026-05-02T15:18:52.603Z</time></trkpt><trkpt lat="42.1368417" lon="13.2989873"><ele>932.0</ele><time>2026-05-02T15:18:53.602Z</time></trkpt><trkpt lat="42.1368642" lon="13.2988754"><ele>931.3333333333334</ele><time>2026-05-02T15:18:54.602Z</time></trkpt><trkpt lat="42.1368888" lon="13.2987606"><ele>930.6666666666667</ele><time>2026-05-02T15:18:55.602Z</time></trkpt><trkpt lat="42.1369115" lon="13.2986431"><ele>930.0</ele><time>2026-05-02T15:18:56.603Z</time></trkpt><trkpt lat="42.1369371" lon="13.2985378"><ele>929.3333333333333</ele><time>2026-05-02T15:18:57.602Z</time></trkpt><trkpt lat="42.136964" lon="13.2984381"><ele>928.6666666666666</ele><time>2026-05-02T15:18:58.602Z</time></trkpt><trkpt lat="42.1369864" lon="13.2983544"><ele>928.0</ele><time>2026-05-02T15:18:59.602Z</time></trkpt><trkpt lat="42.1369929" lon="13.2982312"><ele>927.9999999999999</ele><time>2026-05-02T15:19:01.602Z</time></trkpt><trkpt lat="42.136935" lon="13.2981502"><ele>928.0</ele><time>2026-05-02T15:19:03.602Z</time></trkpt><trkpt lat="42.1368499" lon="13.2981276"><ele>928.0</ele><time>2026-05-02T15:19:05.602Z</time></trkpt><trkpt lat="42.1367501" lon="13.2981214"><ele>928.0</ele><time>2026-05-02T15:19:07.602Z</time></trkpt><trkpt lat="42.1366669" lon="13.2980896"><ele>927.9999999999999</ele><time>2026-05-02T15:19:09.603Z</time></trkpt><trkpt lat="42.1365948" lon="13.2980232"><ele>928.0</ele><time>2026-05-02T15:19:11.602Z</time></trkpt><trkpt lat="42.1365525" lon="13.2979298"><ele>928.8</ele><time>2026-05-02T15:19:13.602Z</time></trkpt><trkpt lat="42.13655" lon="13.2978055"><ele>929.5999999999999</ele><time>2026-05-02T15:19:15.603Z</time></trkpt><trkpt lat="42.1365948" lon="13.297688"><ele>930.4000000000001</ele><time>2026-05-02T15:19:17.602Z</time></trkpt><trkpt lat="42.136656" lon="13.2975732"><ele>931.2</ele><time>2026-05-02T15:19:19.603Z</time></trkpt><trkpt lat="42.1366951" lon="13.2974345"><ele>932.0</ele><time>2026-05-02T15:19:21.602Z</time></trkpt><trkpt lat="42.1366998" lon="13.2972689"><ele>931.4285714285714</ele><time>2026-05-02T15:19:23.602Z</time></trkpt><trkpt lat="42.1366994" lon="13.2971817"><ele>930.8571428571429</ele><time>2026-05-02T15:19:24.603Z</time></trkpt><trkpt lat="42.1366985" lon="13.2970902"><ele>930.2857142857143</ele><time>2026-05-02T15:19:25.602Z</time></trkpt><trkpt lat="42.1366951" lon="13.2969921"><ele>929.7142857142858</ele><time>2026-05-02T15:19:26.603Z</time></trkpt><trkpt lat="42.1366985" lon="13.2968904"><ele>929.1428571428571</ele><time>2026-05-02T15:19:27.603Z</time></trkpt><trkpt lat="42.1367083" lon="13.2967784"><ele>928.5714285714287</ele><time>2026-05-02T15:19:28.603Z</time></trkpt><trkpt lat="42.1367211" lon="13.2966667"><ele>928.0000000000001</ele><time>2026-05-02T15:19:29.602Z</time></trkpt><trkpt lat="42.1367268" lon="13.2965542"><ele>928.0</ele><time>2026-05-02T15:19:30.603Z</time></trkpt><trkpt lat="42.1367212" lon="13.2964265"><ele>928.0</ele><time>2026-05-02T15:19:31.602Z</time></trkpt><trkpt lat="42.1367096" lon="13.2962998"><ele>928.0</ele><time>2026-05-02T15:19:32.602Z</time></trkpt><trkpt lat="42.1366968" lon="13.2961701"><ele>928.0</ele><time>2026-05-02T15:19:33.602Z</time></trkpt><trkpt lat="42.1366866" lon="13.2960474"><ele>928.0</ele><time>2026-05-02T15:19:34.602Z</time></trkpt><trkpt lat="42.136679" lon="13.2959284"><ele>927.1666666666666</ele><time>2026-05-02T15:19:35.603Z</time></trkpt><trkpt lat="42.1366703" lon="13.295815"><ele>926.3333333333333</ele><time>2026-05-02T15:19:36.603Z</time></trkpt><trkpt lat="42.136668" lon="13.2957043"><ele>925.5</ele><time>2026-05-02T15:19:37.602Z</time></trkpt><trkpt lat="42.136673" lon="13.2956011"><ele>924.6666666666667</ele><time>2026-05-02T15:19:38.603Z</time></trkpt><trkpt lat="42.1366781" lon="13.2954965"><ele>923.8333333333334</ele><time>2026-05-02T15:19:39.602Z</time></trkpt><trkpt lat="42.1366804" lon="13.2953967"><ele>923.0</ele><time>2026-05-02T15:19:40.603Z</time></trkpt><trkpt lat="42.1366784" lon="13.2953035"><ele>922.2857142857142</ele><time>2026-05-02T15:19:41.602Z</time></trkpt><trkpt lat="42.1366696" lon="13.2952105"><ele>921.5714285714287</ele><time>2026-05-02T15:19:42.602Z</time></trkpt><trkpt lat="42.1366572" lon="13.2951137"><ele>920.8571428571429</ele><time>2026-05-02T15:19:43.602Z</time></trkpt><trkpt lat="42.1366423" lon="13.2950223"><ele>920.1428571428571</ele><time>2026-05-02T15:19:44.603Z</time></trkpt><trkpt lat="42.1366251" lon="13.2949354"><ele>919.4285714285713</ele><time>2026-05-02T15:19:45.602Z</time></trkpt><trkpt lat="42.1366061" lon="13.294845"><ele>918.7142857142858</ele><time>2026-05-02T15:19:46.602Z</time></trkpt><trkpt lat="42.136594" lon="13.2947557"><ele>918.0</ele><time>2026-05-02T15:19:47.602Z</time></trkpt><trkpt lat="42.1365771" lon="13.2946722"><ele>917.5999999999999</ele><time>2026-05-02T15:19:48.602Z</time></trkpt><trkpt lat="42.1365613" lon="13.2945757"><ele>917.1999999999999</ele><time>2026-05-02T15:19:49.602Z</time></trkpt><trkpt lat="42.1365446" lon="13.2944754"><ele>916.8</ele><time>2026-05-02T15:19:50.603Z</time></trkpt><trkpt lat="42.136532" lon="13.2943893"><ele>916.4</ele><time>2026-05-02T15:19:51.602Z</time></trkpt><trkpt lat="42.1365078" lon="13.2942242"><ele>916.0</ele><time>2026-05-02T15:19:53.602Z</time></trkpt><trkpt lat="42.1365" lon="13.2940627"><ele>914.8333333333333</ele><time>2026-05-02T15:19:55.603Z</time></trkpt><trkpt lat="42.1365237" lon="13.2939332"><ele>913.6666666666666</ele><time>2026-05-02T15:19:57.603Z</time></trkpt><trkpt lat="42.1365083" lon="13.2938254"><ele>912.5</ele><time>2026-05-02T15:19:59.602Z</time></trkpt><trkpt lat="42.1364506" lon="13.2937583"><ele>911.3333333333333</ele><time>2026-05-02T15:20:01.602Z</time></trkpt><trkpt lat="42.1363929" lon="13.2936721"><ele>910.1666666666666</ele><time>2026-05-02T15:20:03.602Z</time></trkpt><trkpt lat="42.1363505" lon="13.2935527"><ele>909.0</ele><time>2026-05-02T15:20:05.603Z</time></trkpt><trkpt lat="42.1363479" lon="13.293424"><ele>909.0</ele><time>2026-05-02T15:20:07.603Z</time></trkpt><trkpt lat="42.1363381" lon="13.2932896"><ele>909.0000000000001</ele><time>2026-05-02T15:20:09.603Z</time></trkpt><trkpt lat="42.1363071" lon="13.2931748"><ele>909.0000000000001</ele><time>2026-05-02T15:20:11.602Z</time></trkpt><trkpt lat="42.1362616" lon="13.2930461"><ele>909.0</ele><time>2026-05-02T15:20:13.602Z</time></trkpt><trkpt lat="42.1362231" lon="13.292897"><ele>909.0</ele><time>2026-05-02T15:20:15.602Z</time></trkpt><trkpt lat="42.1362074" lon="13.2927393"><ele>908.6666666666666</ele><time>2026-05-02T15:20:17.602Z</time></trkpt><trkpt lat="42.1362232" lon="13.2925929"><ele>908.3333333333333</ele><time>2026-05-02T15:20:19.603Z</time></trkpt><trkpt lat="42.1362334" lon="13.2924364"><ele>908.0</ele><time>2026-05-02T15:20:21.602Z</time></trkpt><trkpt lat="42.1362436" lon="13.2923523"><ele>907.6666666666666</ele><time>2026-05-02T15:20:22.602Z</time></trkpt><trkpt lat="42.1362534" lon="13.292268"><ele>907.3333333333333</ele><time>2026-05-02T15:20:23.602Z</time></trkpt><trkpt lat="42.1362656" lon="13.2921813"><ele>907.0</ele><time>2026-05-02T15:20:24.603Z</time></trkpt><trkpt lat="42.1362783" lon="13.2920922"><ele>905.4999999999999</ele><time>2026-05-02T15:20:25.602Z</time></trkpt><trkpt lat="42.136288" lon="13.292002"><ele>904.0</ele><time>2026-05-02T15:20:26.602Z</time></trkpt><trkpt lat="42.1362956" lon="13.2919071"><ele>902.5</ele><time>2026-05-02T15:20:27.602Z</time></trkpt><trkpt lat="42.1362997" lon="13.2918098"><ele>901.0</ele><time>2026-05-02T15:20:28.602Z</time></trkpt><trkpt lat="42.1362935" lon="13.2916671"><ele>899.4999999999999</ele><time>2026-05-02T15:20:30.603Z</time></trkpt><trkpt lat="42.1362937" lon="13.2915781"><ele>898.0</ele><time>2026-05-02T15:20:32.602Z</time></trkpt><trkpt lat="42.1363095" lon="13.2914824"><ele>895.4</ele><time>2026-05-02T15:20:35.602Z</time></trkpt><trkpt lat="42.1363749" lon="13.2914159"><ele>892.8</ele><time>2026-05-02T15:20:38.602Z</time></trkpt><trkpt lat="42.1364447" lon="13.2913209"><ele>890.2</ele><time>2026-05-02T15:20:40.602Z</time></trkpt><trkpt lat="42.1364777" lon="13.2911967"><ele>887.6</ele><time>2026-05-02T15:20:42.602Z</time></trkpt><trkpt lat="42.1364923" lon="13.2910756"><ele>885.0</ele><time>2026-05-02T15:20:44.602Z</time></trkpt><trkpt lat="42.1365145" lon="13.2909602"><ele>886.1666666666666</ele><time>2026-05-02T15:20:46.602Z</time></trkpt><trkpt lat="42.1365532" lon="13.2908559"><ele>887.3333333333333</ele><time>2026-05-02T15:20:48.602Z</time></trkpt><trkpt lat="42.1366168" lon="13.2907892"><ele>888.5</ele><time>2026-05-02T15:20:50.602Z</time></trkpt><trkpt lat="42.1367039" lon="13.2907651"><ele>889.6666666666666</ele><time>2026-05-02T15:20:52.603Z</time></trkpt><trkpt lat="42.1368253" lon="13.2907507"><ele>890.8333333333333</ele><time>2026-05-02T15:20:54.602Z</time></trkpt><trkpt lat="42.1368909" lon="13.2907473"><ele>892.0</ele><time>2026-05-02T15:20:55.602Z</time></trkpt><trkpt lat="42.1369554" lon="13.2907437"><ele>891.9999999999999</ele><time>2026-05-02T15:20:56.603Z</time></trkpt><trkpt lat="42.1370703" lon="13.2907396"><ele>892.0</ele><time>2026-05-02T15:20:58.602Z</time></trkpt><trkpt lat="42.137159" lon="13.2907206"><ele>892.0</ele><time>2026-05-02T15:21:00.602Z</time></trkpt><trkpt lat="42.1372175" lon="13.2906655"><ele>892.0</ele><time>2026-05-02T15:21:02.602Z</time></trkpt><trkpt lat="42.1372163" lon="13.2905575"><ele>891.9999999999999</ele><time>2026-05-02T15:21:05.602Z</time></trkpt><trkpt lat="42.1371539" lon="13.2904935"><ele>892.0</ele><time>2026-05-02T15:21:09.554Z</time></trkpt><trkpt lat="42.1370865" lon="13.2904909"><ele>889.4999999999999</ele><time>2026-05-02T15:21:11.598Z</time></trkpt><trkpt lat="42.1369973" lon="13.290461"><ele>887.0</ele><time>2026-05-02T15:21:13.602Z</time></trkpt><trkpt lat="42.1368998" lon="13.2904064"><ele>884.5</ele><time>2026-05-02T15:21:15.602Z</time></trkpt><trkpt lat="42.1368387" lon="13.2903416"><ele>882.0</ele><time>2026-05-02T15:21:17.602Z</time></trkpt><trkpt lat="42.1368457" lon="13.2902307"><ele>879.4999999999999</ele><time>2026-05-02T15:21:20.602Z</time></trkpt><trkpt lat="42.1369084" lon="13.2901469"><ele>877.0</ele><time>2026-05-02T15:21:22.602Z</time></trkpt><trkpt lat="42.1369875" lon="13.2900409"><ele>877.0</ele><time>2026-05-02T15:21:24.603Z</time></trkpt><trkpt lat="42.1370638" lon="13.2899387"><ele>877.0</ele><time>2026-05-02T15:21:26.603Z</time></trkpt><trkpt lat="42.1371287" lon="13.2897975"><ele>877.0</ele><time>2026-05-02T15:21:28.603Z</time></trkpt><trkpt lat="42.1371497" lon="13.2897168"><ele>877.0</ele><time>2026-05-02T15:21:29.602Z</time></trkpt><trkpt lat="42.1371743" lon="13.2895747"><ele>877.0</ele><time>2026-05-02T15:21:31.603Z</time></trkpt><trkpt lat="42.137171" lon="13.2894513"><ele>874.6666666666666</ele><time>2026-05-02T15:21:33.603Z</time></trkpt><trkpt lat="42.1371248" lon="13.2893529"><ele>872.3333333333333</ele><time>2026-05-02T15:21:35.602Z</time></trkpt><trkpt lat="42.137081" lon="13.2892577"><ele>870.0</ele><time>2026-05-02T15:21:37.602Z</time></trkpt><trkpt lat="42.1370685" lon="13.2891618"><ele>867.6666666666667</ele><time>2026-05-02T15:21:39.602Z</time></trkpt><trkpt lat="42.1371055" lon="13.2890766"><ele>865.3333333333334</ele><time>2026-05-02T15:21:42.603Z</time></trkpt><trkpt lat="42.1371717" lon="13.2890229"><ele>863.0</ele><time>2026-05-02T15:21:44.602Z</time></trkpt><trkpt lat="42.1372278" lon="13.2889482"><ele>861.6666666666667</ele><time>2026-05-02T15:21:46.602Z</time></trkpt><trkpt lat="42.1372003" lon="13.2888229"><ele>860.3333333333334</ele><time>2026-05-02T15:21:48.603Z</time></trkpt><trkpt lat="42.1371473" lon="13.2886932"><ele>859.0</ele><time>2026-05-02T15:21:50.602Z</time></trkpt><trkpt lat="42.1371144" lon="13.2886132"><ele>857.6666666666667</ele><time>2026-05-02T15:21:51.603Z</time></trkpt><trkpt lat="42.1370853" lon="13.288517"><ele>856.3333333333334</ele><time>2026-05-02T15:21:52.602Z</time></trkpt><trkpt lat="42.1370624" lon="13.2884176"><ele>855.0</ele><time>2026-05-02T15:21:53.602Z</time></trkpt><trkpt lat="42.1370452" lon="13.2883218"><ele>855.0</ele><time>2026-05-02T15:21:54.602Z</time></trkpt><trkpt lat="42.137033" lon="13.2882369"><ele>855.0</ele><time>2026-05-02T15:21:55.602Z</time></trkpt><trkpt lat="42.137036" lon="13.2881215"><ele>855.0</ele><time>2026-05-02T15:21:57.602Z</time></trkpt><trkpt lat="42.1370724" lon="13.2880473"><ele>855.0</ele><time>2026-05-02T15:21:59.603Z</time></trkpt><trkpt lat="42.1371459" lon="13.2880372"><ele>855.0</ele><time>2026-05-02T15:22:02.602Z</time></trkpt><trkpt lat="42.1371881" lon="13.288102"><ele>855.0</ele><time>2026-05-02T15:22:05.603Z</time></trkpt><trkpt lat="42.1372202" lon="13.2881843"><ele>855.0</ele><time>2026-05-02T15:22:12.602Z</time></trkpt><trkpt lat="42.1373138" lon="13.2882599"><ele>855.3333333333334</ele><time>2026-05-02T15:22:14.602Z</time></trkpt><trkpt lat="42.137428" lon="13.2883461"><ele>855.6666666666667</ele><time>2026-05-02T15:22:16.603Z</time></trkpt><trkpt lat="42.1374885" lon="13.2883906"><ele>856.0</ele><time>2026-05-02T15:22:17.603Z</time></trkpt><trkpt lat="42.1375553" lon="13.2884411"><ele>856.3333333333334</ele><time>2026-05-02T15:22:18.602Z</time></trkpt><trkpt lat="42.1376167" lon="13.2884943"><ele>856.6666666666667</ele><time>2026-05-02T15:22:19.603Z</time></trkpt><trkpt lat="42.1376735" lon="13.2885398"><ele>857.0</ele><time>2026-05-02T15:22:20.603Z</time></trkpt><trkpt lat="42.1377777" lon="13.2885712"><ele>857.0</ele><time>2026-05-02T15:22:22.602Z</time></trkpt><trkpt lat="42.1378608" lon="13.2885245"><ele>857.0</ele><time>2026-05-02T15:22:24.602Z</time></trkpt><trkpt lat="42.1379062" lon="13.2883993"><ele>857.0</ele><time>2026-05-02T15:22:26.602Z</time></trkpt><trkpt lat="42.1379041" lon="13.2882307"><ele>857.0</ele><time>2026-05-02T15:22:28.602Z</time></trkpt><trkpt lat="42.1378873" lon="13.288127"><ele>857.0</ele><time>2026-05-02T15:22:29.602Z</time></trkpt><trkpt lat="42.1378654" lon="13.2880144"><ele>855.4000000000001</ele><time>2026-05-02T15:22:30.602Z</time></trkpt><trkpt lat="42.1378411" lon="13.2878972"><ele>853.8000000000001</ele><time>2026-05-02T15:22:31.603Z</time></trkpt><trkpt lat="42.1378109" lon="13.2877698"><ele>852.2</ele><time>2026-05-02T15:22:32.603Z</time></trkpt><trkpt lat="42.1377815" lon="13.2876398"><ele>850.6</ele><time>2026-05-02T15:22:33.602Z</time></trkpt><trkpt lat="42.1377551" lon="13.2875022"><ele>849.0</ele><time>2026-05-02T15:22:34.603Z</time></trkpt><trkpt lat="42.1377323" lon="13.2873622"><ele>847.4000000000001</ele><time>2026-05-02T15:22:35.603Z</time></trkpt><trkpt lat="42.1377172" lon="13.2872364"><ele>845.8</ele><time>2026-05-02T15:22:36.602Z</time></trkpt><trkpt lat="42.1377092" lon="13.2871215"><ele>844.2</ele><time>2026-05-02T15:22:37.603Z</time></trkpt><trkpt lat="42.137705" lon="13.2870218"><ele>842.5999999999999</ele><time>2026-05-02T15:22:38.603Z</time></trkpt><trkpt lat="42.1376979" lon="13.2868743"><ele>841.0</ele><time>2026-05-02T15:22:40.602Z</time></trkpt><trkpt lat="42.137686" lon="13.2867379"><ele>841.0</ele><time>2026-05-02T15:22:42.603Z</time></trkpt><trkpt lat="42.1376784" lon="13.2866503"><ele>841.0</ele><time>2026-05-02T15:22:43.602Z</time></trkpt><trkpt lat="42.1376704" lon="13.2865518"><ele>841.0</ele><time>2026-05-02T15:22:44.603Z</time></trkpt><trkpt lat="42.1376615" lon="13.2864506"><ele>841.0</ele><time>2026-05-02T15:22:45.602Z</time></trkpt><trkpt lat="42.1376557" lon="13.2863517"><ele>841.0</ele><time>2026-05-02T15:22:46.602Z</time></trkpt><trkpt lat="42.1376463" lon="13.2862591"><ele>841.0</ele><time>2026-05-02T15:22:47.602Z</time></trkpt><trkpt lat="42.1376378" lon="13.286173"><ele>841.0</ele><time>2026-05-02T15:22:48.603Z</time></trkpt><trkpt lat="42.1376102" lon="13.2860239"><ele>840.6666666666666</ele><time>2026-05-02T15:22:50.602Z</time></trkpt><trkpt lat="42.137593" lon="13.285932"><ele>840.3333333333333</ele><time>2026-05-02T15:22:52.603Z</time></trkpt><trkpt lat="42.1376584" lon="13.285918"><ele>840.0</ele><time>2026-05-02T15:23:23.602Z</time></trkpt><trkpt lat="42.1377143" lon="13.2859968"><ele>839.6666666666667</ele><time>2026-05-02T15:23:25.603Z</time></trkpt><trkpt lat="42.1377799" lon="13.2860519"><ele>839.3333333333334</ele><time>2026-05-02T15:23:27.603Z</time></trkpt><trkpt lat="42.137913" lon="13.2860433"><ele>839.0</ele><time>2026-05-02T15:23:30.602Z</time></trkpt><trkpt lat="42.1379796" lon="13.2860271"><ele>839.0</ele><time>2026-05-02T15:23:31.602Z</time></trkpt><trkpt lat="42.1380899" lon="13.2860028"><ele>839.0</ele><time>2026-05-02T15:23:33.602Z</time></trkpt><trkpt lat="42.1381844" lon="13.28599"><ele>839.0</ele><time>2026-05-02T15:23:35.602Z</time></trkpt><trkpt lat="42.1382753" lon="13.2859652"><ele>839.0</ele><time>2026-05-02T15:23:37.603Z</time></trkpt><trkpt lat="42.1383754" lon="13.2859215"><ele>839.0</ele><time>2026-05-02T15:23:39.603Z</time></trkpt><trkpt lat="42.1384566" lon="13.2859002"><ele>839.1666666666667</ele><time>2026-05-02T15:23:41.602Z</time></trkpt><trkpt lat="42.1385472" lon="13.2858891"><ele>839.3333333333334</ele><time>2026-05-02T15:23:43.602Z</time></trkpt><trkpt lat="42.1386261" lon="13.2858897"><ele>839.5</ele><time>2026-05-02T15:23:45.603Z</time></trkpt><trkpt lat="42.138693" lon="13.2858763"><ele>839.6666666666667</ele><time>2026-05-02T15:23:47.603Z</time></trkpt><trkpt lat="42.1387684" lon="13.2858717"><ele>839.8333333333334</ele><time>2026-05-02T15:23:49.603Z</time></trkpt><trkpt lat="42.1388516" lon="13.2858756"><ele>840.0</ele><time>2026-05-02T15:23:51.602Z</time></trkpt><trkpt lat="42.1389172" lon="13.285896"><ele>840.0</ele><time>2026-05-02T15:23:53.602Z</time></trkpt><trkpt lat="42.1389976" lon="13.2859226"><ele>840.0</ele><time>2026-05-02T15:23:55.603Z</time></trkpt><trkpt lat="42.1390989" lon="13.2859165"><ele>840.0</ele><time>2026-05-02T15:23:57.602Z</time></trkpt><trkpt lat="42.1392143" lon="13.2858985"><ele>840.0</ele><time>2026-05-02T15:23:59.603Z</time></trkpt><trkpt lat="42.1393307" lon="13.2858889"><ele>840.0</ele><time>2026-05-02T15:24:01.602Z</time></trkpt><trkpt lat="42.1393952" lon="13.2858929"><ele>839.4</ele><time>2026-05-02T15:24:02.602Z</time></trkpt><trkpt lat="42.1395004" lon="13.2859049"><ele>838.8</ele><time>2026-05-02T15:24:04.603Z</time></trkpt><trkpt lat="42.1396052" lon="13.2859102"><ele>838.2</ele><time>2026-05-02T15:24:06.602Z</time></trkpt><trkpt lat="42.1397167" lon="13.2859041"><ele>837.6</ele><time>2026-05-02T15:24:08.602Z</time></trkpt><trkpt lat="42.139781" lon="13.2858992"><ele>837.0</ele><time>2026-05-02T15:24:09.602Z</time></trkpt><trkpt lat="42.139846" lon="13.2858984"><ele>835.3333333333334</ele><time>2026-05-02T15:24:10.603Z</time></trkpt><trkpt lat="42.1399109" lon="13.2858946"><ele>833.6666666666667</ele><time>2026-05-02T15:24:11.602Z</time></trkpt><trkpt lat="42.1399765" lon="13.2858912"><ele>832.0</ele><time>2026-05-02T15:24:12.602Z</time></trkpt><trkpt lat="42.1400441" lon="13.2858987"><ele>830.3333333333334</ele><time>2026-05-02T15:24:13.602Z</time></trkpt><trkpt lat="42.1401683" lon="13.2859224"><ele>828.6666666666667</ele><time>2026-05-02T15:24:15.602Z</time></trkpt><trkpt lat="42.1402366" lon="13.2859295"><ele>827.0</ele><time>2026-05-02T15:24:16.603Z</time></trkpt><trkpt lat="42.1403068" lon="13.2859359"><ele>827.0</ele><time>2026-05-02T15:24:17.602Z</time></trkpt><trkpt lat="42.1403892" lon="13.2859498"><ele>827.0</ele><time>2026-05-02T15:24:18.602Z</time></trkpt><trkpt lat="42.1404753" lon="13.2859685"><ele>827.0</ele><time>2026-05-02T15:24:19.602Z</time></trkpt><trkpt lat="42.1405458" lon="13.2859839"><ele>827.0</ele><time>2026-05-02T15:24:20.602Z</time></trkpt><trkpt lat="42.1406113" lon="13.2859932"><ele>827.0</ele><time>2026-05-02T15:24:21.603Z</time></trkpt><trkpt lat="42.1406785" lon="13.2859931"><ele>827.0</ele><time>2026-05-02T15:24:22.602Z</time></trkpt><trkpt lat="42.1407428" lon="13.2859876"><ele>827.0</ele><time>2026-05-02T15:24:23.603Z</time></trkpt><trkpt lat="42.1408542" lon="13.2859679"><ele>825.4000000000001</ele><time>2026-05-02T15:24:25.603Z</time></trkpt><trkpt lat="42.1409431" lon="13.2859738"><ele>823.8000000000001</ele><time>2026-05-02T15:24:27.602Z</time></trkpt><trkpt lat="42.1410405" lon="13.286055"><ele>822.2</ele><time>2026-05-02T15:24:29.602Z</time></trkpt><trkpt lat="42.1410974" lon="13.2860994"><ele>820.6</ele><time>2026-05-02T15:24:30.603Z</time></trkpt><trkpt lat="42.1412114" lon="13.2861252"><ele>819.0</ele><time>2026-05-02T15:24:32.602Z</time></trkpt><trkpt lat="42.1413021" lon="13.2860759"><ele>819.0</ele><time>2026-05-02T15:24:34.602Z</time></trkpt><trkpt lat="42.1413641" lon="13.2860483"><ele>819.0</ele><time>2026-05-02T15:24:35.602Z</time></trkpt><trkpt lat="42.1414365" lon="13.2860187"><ele>819.0</ele><time>2026-05-02T15:24:36.602Z</time></trkpt><trkpt lat="42.1415137" lon="13.2859895"><ele>819.0</ele><time>2026-05-02T15:24:37.603Z</time></trkpt><trkpt lat="42.1415919" lon="13.2859688"><ele>819.0</ele><time>2026-05-02T15:24:38.602Z</time></trkpt><trkpt lat="42.1416783" lon="13.2859613"><ele>819.0</ele><time>2026-05-02T15:24:39.602Z</time></trkpt><trkpt lat="42.1417687" lon="13.2859696"><ele>815.6666666666666</ele><time>2026-05-02T15:24:40.602Z</time></trkpt><trkpt lat="42.1418539" lon="13.2859785"><ele>812.3333333333333</ele><time>2026-05-02T15:24:41.603Z</time></trkpt><trkpt lat="42.1419374" lon="13.2859808"><ele>809.0</ele><time>2026-05-02T15:24:42.602Z</time></trkpt><trkpt lat="42.1420141" lon="13.2859816"><ele>805.6666666666666</ele><time>2026-05-02T15:24:43.602Z</time></trkpt><trkpt lat="42.1420805" lon="13.2859835"><ele>802.3333333333333</ele><time>2026-05-02T15:24:44.602Z</time></trkpt><trkpt lat="42.1421452" lon="13.2859907"><ele>799.0</ele><time>2026-05-02T15:24:45.603Z</time></trkpt><trkpt lat="42.1422491" lon="13.2859707"><ele>798.9999999999999</ele><time>2026-05-02T15:24:47.602Z</time></trkpt><trkpt lat="42.1423376" lon="13.2859277"><ele>799.0</ele><time>2026-05-02T15:24:49.603Z</time></trkpt><trkpt lat="42.1424089" lon="13.2859109"><ele>799.0</ele><time>2026-05-02T15:24:51.602Z</time></trkpt><trkpt lat="42.1424682" lon="13.285943"><ele>799.0</ele><time>2026-05-02T15:24:53.602Z</time></trkpt><trkpt lat="42.1425205" lon="13.2860573"><ele>798.9999999999999</ele><time>2026-05-02T15:24:56.602Z</time></trkpt><trkpt lat="42.1425544" lon="13.2861462"><ele>799.0</ele><time>2026-05-02T15:24:58.602Z</time></trkpt><trkpt lat="42.1426145" lon="13.286222"><ele>798.6</ele><time>2026-05-02T15:25:00.602Z</time></trkpt><trkpt lat="42.1426978" lon="13.2862925"><ele>798.2</ele><time>2026-05-02T15:25:02.602Z</time></trkpt><trkpt lat="42.1427981" lon="13.2863563"><ele>797.8000000000001</ele><time>2026-05-02T15:25:04.602Z</time></trkpt><trkpt lat="42.1429058" lon="13.2864246"><ele>797.4000000000001</ele><time>2026-05-02T15:25:06.603Z</time></trkpt><trkpt lat="42.1429978" lon="13.2865308"><ele>797.0</ele><time>2026-05-02T15:25:08.603Z</time></trkpt><trkpt lat="42.1430455" lon="13.2866088"><ele>797.0</ele><time>2026-05-02T15:25:09.602Z</time></trkpt><trkpt lat="42.1430858" lon="13.2866796"><ele>797.0</ele><time>2026-05-02T15:25:10.603Z</time></trkpt><trkpt lat="42.1431296" lon="13.2867609"><ele>797.0</ele><time>2026-05-02T15:25:11.603Z</time></trkpt><trkpt lat="42.1431628" lon="13.2868491"><ele>797.0</ele><time>2026-05-02T15:25:12.602Z</time></trkpt><trkpt lat="42.1431944" lon="13.2869468"><ele>797.0</ele><time>2026-05-02T15:25:13.602Z</time></trkpt><trkpt lat="42.1432206" lon="13.2870386"><ele>797.0</ele><time>2026-05-02T15:25:14.602Z</time></trkpt><trkpt lat="42.1432408" lon="13.2871236"><ele>797.0</ele><time>2026-05-02T15:25:15.602Z</time></trkpt><trkpt lat="42.143252" lon="13.2872106"><ele>794.5000000000001</ele><time>2026-05-02T15:25:16.602Z</time></trkpt><trkpt lat="42.1432537" lon="13.287313"><ele>792.0</ele><time>2026-05-02T15:25:17.602Z</time></trkpt><trkpt lat="42.143254" lon="13.2874162"><ele>789.5</ele><time>2026-05-02T15:25:18.603Z</time></trkpt><trkpt lat="42.1432551" lon="13.2875099"><ele>787.0</ele><time>2026-05-02T15:25:19.602Z</time></trkpt><trkpt lat="42.1432718" lon="13.2876605"><ele>784.5000000000001</ele><time>2026-05-02T15:25:21.603Z</time></trkpt><trkpt lat="42.1433457" lon="13.2877521"><ele>782.0</ele><time>2026-05-02T15:25:23.602Z</time></trkpt><trkpt lat="42.1434145" lon="13.2877824"><ele>782.0000000000001</ele><time>2026-05-02T15:25:25.602Z</time></trkpt><trkpt lat="42.143476" lon="13.2878129"><ele>782.0</ele><time>2026-05-02T15:25:27.602Z</time></trkpt><trkpt lat="42.1435809" lon="13.2878592"><ele>782.0</ele><time>2026-05-02T15:25:29.603Z</time></trkpt><trkpt lat="42.143681" lon="13.2878478"><ele>782.0</ele><time>2026-05-02T15:25:31.603Z</time></trkpt><trkpt lat="42.1437517" lon="13.2877648"><ele>782.0000000000001</ele><time>2026-05-02T15:25:33.602Z</time></trkpt><trkpt lat="42.1437968" lon="13.2876935"><ele>782.0</ele><time>2026-05-02T15:25:34.602Z</time></trkpt><trkpt lat="42.1438397" lon="13.2876204"><ele>782.0</ele><time>2026-05-02T15:25:35.602Z</time></trkpt><trkpt lat="42.1439286" lon="13.2875161"><ele>782.0</ele><time>2026-05-02T15:25:37.602Z</time></trkpt><trkpt lat="42.1440268" lon="13.2874353"><ele>782.0</ele><time>2026-05-02T15:25:39.602Z</time></trkpt><trkpt lat="42.1441192" lon="13.2873778"><ele>782.0</ele><time>2026-05-02T15:25:41.603Z</time></trkpt><trkpt lat="42.1442288" lon="13.2873786"><ele>782.0</ele><time>2026-05-02T15:25:43.603Z</time></trkpt><trkpt lat="42.1443366" lon="13.287385"><ele>783.2</ele><time>2026-05-02T15:25:45.602Z</time></trkpt><trkpt lat="42.1444508" lon="13.2873817"><ele>784.4000000000001</ele><time>2026-05-02T15:25:47.602Z</time></trkpt><trkpt lat="42.1445785" lon="13.2873667"><ele>785.5999999999999</ele><time>2026-05-02T15:25:49.602Z</time></trkpt><trkpt lat="42.144647" lon="13.2873674"><ele>786.8</ele><time>2026-05-02T15:25:50.602Z</time></trkpt><trkpt lat="42.1447161" lon="13.2873674"><ele>788.0</ele><time>2026-05-02T15:25:51.602Z</time></trkpt><trkpt lat="42.1448251" lon="13.287371"><ele>789.5999999999999</ele><time>2026-05-02T15:25:53.603Z</time></trkpt><trkpt lat="42.1449175" lon="13.287428"><ele>791.1999999999999</ele><time>2026-05-02T15:25:55.602Z</time></trkpt><trkpt lat="42.145003" lon="13.2875163"><ele>792.8</ele><time>2026-05-02T15:25:57.603Z</time></trkpt><trkpt lat="42.1450504" lon="13.2876144"><ele>794.4</ele><time>2026-05-02T15:25:59.602Z</time></trkpt><trkpt lat="42.1450745" lon="13.2877265"><ele>796.0</ele><time>2026-05-02T15:26:01.602Z</time></trkpt><trkpt lat="42.1450656" lon="13.2878592"><ele>796.0</ele><time>2026-05-02T15:26:03.602Z</time></trkpt><trkpt lat="42.1450341" lon="13.2880189"><ele>796.0</ele><time>2026-05-02T15:26:05.603Z</time></trkpt><trkpt lat="42.1450181" lon="13.2881198"><ele>796.0</ele><time>2026-05-02T15:26:06.602Z</time></trkpt><trkpt lat="42.1450069" lon="13.2882326"><ele>796.0</ele><time>2026-05-02T15:26:07.602Z</time></trkpt><trkpt lat="42.1449966" lon="13.2883458"><ele>796.0</ele><time>2026-05-02T15:26:08.602Z</time></trkpt><trkpt lat="42.1449894" lon="13.2884584"><ele>796.1666666666666</ele><time>2026-05-02T15:26:09.602Z</time></trkpt><trkpt lat="42.1449847" lon="13.2885658"><ele>796.3333333333333</ele><time>2026-05-02T15:26:10.602Z</time></trkpt><trkpt lat="42.1449804" lon="13.2886646"><ele>796.5</ele><time>2026-05-02T15:26:11.603Z</time></trkpt><trkpt lat="42.1449725" lon="13.2887548"><ele>796.6666666666667</ele><time>2026-05-02T15:26:12.602Z</time></trkpt><trkpt lat="42.1449659" lon="13.2888413"><ele>796.8333333333334</ele><time>2026-05-02T15:26:13.602Z</time></trkpt><trkpt lat="42.1449616" lon="13.2890111"><ele>797.0</ele><time>2026-05-02T15:26:15.602Z</time></trkpt><trkpt lat="42.1449659" lon="13.2891719"><ele>797.1666666666667</ele><time>2026-05-02T15:26:17.602Z</time></trkpt><trkpt lat="42.1449697" lon="13.2892586"><ele>797.3333333333334</ele><time>2026-05-02T15:26:18.602Z</time></trkpt><trkpt lat="42.144977" lon="13.289349"><ele>797.5</ele><time>2026-05-02T15:26:19.602Z</time></trkpt><trkpt lat="42.1449808" lon="13.2894406"><ele>797.6666666666667</ele><time>2026-05-02T15:26:20.602Z</time></trkpt><trkpt lat="42.1449858" lon="13.2895313"><ele>797.8333333333334</ele><time>2026-05-02T15:26:21.602Z</time></trkpt><trkpt lat="42.1449973" lon="13.2896188"><ele>798.0</ele><time>2026-05-02T15:26:22.602Z</time></trkpt><trkpt lat="42.145038" lon="13.2897723"><ele>798.0</ele><time>2026-05-02T15:26:24.602Z</time></trkpt><trkpt lat="42.1450985" lon="13.2898968"><ele>798.0</ele><time>2026-05-02T15:26:26.603Z</time></trkpt><trkpt lat="42.145164" lon="13.2900155"><ele>798.0</ele><time>2026-05-02T15:26:28.603Z</time></trkpt><trkpt lat="42.1452254" lon="13.2901569"><ele>798.0</ele><time>2026-05-02T15:26:30.603Z</time></trkpt><trkpt lat="42.1452605" lon="13.2902277"><ele>798.0</ele><time>2026-05-02T15:26:31.603Z</time></trkpt><trkpt lat="42.1453" lon="13.2902989"><ele>798.0</ele><time>2026-05-02T15:26:32.602Z</time></trkpt><trkpt lat="42.1453429" lon="13.290364"><ele>798.0</ele><time>2026-05-02T15:26:33.602Z</time></trkpt><trkpt lat="42.1453905" lon="13.2904329"><ele>798.0</ele><time>2026-05-02T15:26:34.602Z</time></trkpt><trkpt lat="42.1454421" lon="13.2905113"><ele>798.0</ele><time>2026-05-02T15:26:35.602Z</time></trkpt><trkpt lat="42.1454995" lon="13.2905903"><ele>798.0</ele><time>2026-05-02T15:26:36.602Z</time></trkpt><trkpt lat="42.1455589" lon="13.2906605"><ele>798.0</ele><time>2026-05-02T15:26:37.603Z</time></trkpt><trkpt lat="42.1456258" lon="13.2907244"><ele>798.8333333333334</ele><time>2026-05-02T15:26:38.602Z</time></trkpt><trkpt lat="42.1456968" lon="13.2907814"><ele>799.6666666666667</ele><time>2026-05-02T15:26:39.602Z</time></trkpt><trkpt lat="42.1457644" lon="13.2908377"><ele>800.5</ele><time>2026-05-02T15:26:40.602Z</time></trkpt><trkpt lat="42.1458334" lon="13.2908972"><ele>801.3333333333334</ele><time>2026-05-02T15:26:41.603Z</time></trkpt><trkpt lat="42.1459036" lon="13.2909566"><ele>802.1666666666667</ele><time>2026-05-02T15:26:42.602Z</time></trkpt><trkpt lat="42.1459671" lon="13.2910164"><ele>803.0</ele><time>2026-05-02T15:26:43.602Z</time></trkpt><trkpt lat="42.1460209" lon="13.2910785"><ele>801.2</ele><time>2026-05-02T15:26:44.603Z</time></trkpt><trkpt lat="42.146087" lon="13.2911586"><ele>799.4</ele><time>2026-05-02T15:26:46.603Z</time></trkpt><trkpt lat="42.1461345" lon="13.2912202"><ele>797.6</ele><time>2026-05-02T15:26:49.602Z</time></trkpt><trkpt lat="42.1462236" lon="13.2913533"><ele>795.8000000000001</ele><time>2026-05-02T15:26:51.602Z</time></trkpt><trkpt lat="42.1462881" lon="13.2914375"><ele>794.0</ele><time>2026-05-02T15:26:52.602Z</time></trkpt><trkpt lat="42.1463609" lon="13.2915198"><ele>794.0</ele><time>2026-05-02T15:26:53.602Z</time></trkpt><trkpt lat="42.1464335" lon="13.2916043"><ele>794.0</ele><time>2026-05-02T15:26:54.603Z</time></trkpt><trkpt lat="42.146502" lon="13.2916979"><ele>794.0</ele><time>2026-05-02T15:26:55.602Z</time></trkpt><trkpt lat="42.1465697" lon="13.2917933"><ele>794.0</ele><time>2026-05-02T15:26:56.602Z</time></trkpt><trkpt lat="42.1466309" lon="13.2918697"><ele>794.0</ele><time>2026-05-02T15:26:57.603Z</time></trkpt><trkpt lat="42.1467262" lon="13.2918984"><ele>791.2</ele><time>2026-05-02T15:26:59.602Z</time></trkpt><trkpt lat="42.1468455" lon="13.2918068"><ele>788.4000000000001</ele><time>2026-05-02T15:27:01.603Z</time></trkpt><trkpt lat="42.1469114" lon="13.2917367"><ele>785.6</ele><time>2026-05-02T15:27:02.602Z</time></trkpt><trkpt lat="42.1469785" lon="13.2916581"><ele>782.8</ele><time>2026-05-02T15:27:03.602Z</time></trkpt><trkpt lat="42.1470435" lon="13.2915983"><ele>780.0</ele><time>2026-05-02T15:27:04.602Z</time></trkpt><trkpt lat="42.1471135" lon="13.2915659"><ele>780.0</ele><time>2026-05-02T15:27:05.603Z</time></trkpt><trkpt lat="42.1471918" lon="13.291544"><ele>780.0</ele><time>2026-05-02T15:27:06.603Z</time></trkpt><trkpt lat="42.1473116" lon="13.2915326"><ele>780.0</ele><time>2026-05-02T15:27:08.602Z</time></trkpt><trkpt lat="42.1474191" lon="13.2915585"><ele>780.0</ele><time>2026-05-02T15:27:10.602Z</time></trkpt><trkpt lat="42.1475166" lon="13.2916157"><ele>780.0</ele><time>2026-05-02T15:27:12.602Z</time></trkpt><trkpt lat="42.1475832" lon="13.2916163"><ele>776.6</ele><time>2026-05-02T15:27:15.602Z</time></trkpt><trkpt lat="42.1475588" lon="13.2914945"><ele>773.2</ele><time>2026-05-02T15:27:18.602Z</time></trkpt><trkpt lat="42.1475136" lon="13.291382"><ele>769.8</ele><time>2026-05-02T15:27:20.602Z</time></trkpt><trkpt lat="42.1474612" lon="13.2912546"><ele>766.4</ele><time>2026-05-02T15:27:22.602Z</time></trkpt><trkpt lat="42.1474153" lon="13.2911538"><ele>763.0</ele><time>2026-05-02T15:27:24.602Z</time></trkpt><trkpt lat="42.1474136" lon="13.2910602"><ele>761.0</ele><time>2026-05-02T15:27:26.603Z</time></trkpt><trkpt lat="42.1474613" lon="13.2909504"><ele>759.0</ele><time>2026-05-02T15:27:28.603Z</time></trkpt><trkpt lat="42.1475315" lon="13.2908194"><ele>757.0</ele><time>2026-05-02T15:27:30.602Z</time></trkpt><trkpt lat="42.1476004" lon="13.2906825"><ele>755.0</ele><time>2026-05-02T15:27:32.602Z</time></trkpt><trkpt lat="42.1476394" lon="13.2906055"><ele>753.0</ele><time>2026-05-02T15:27:33.602Z</time></trkpt><trkpt lat="42.1476803" lon="13.2905359"><ele>753.0</ele><time>2026-05-02T15:27:34.602Z</time></trkpt><trkpt lat="42.1477281" lon="13.2904728"><ele>753.0</ele><time>2026-05-02T15:27:35.602Z</time></trkpt><trkpt lat="42.1477861" lon="13.2904143"><ele>753.0</ele><time>2026-05-02T15:27:36.602Z</time></trkpt><trkpt lat="42.1478488" lon="13.2903597"><ele>753.0</ele><time>2026-05-02T15:27:37.603Z</time></trkpt><trkpt lat="42.1479178" lon="13.2903177"><ele>753.0</ele><time>2026-05-02T15:27:38.602Z</time></trkpt><trkpt lat="42.1479906" lon="13.2902734"><ele>753.0</ele><time>2026-05-02T15:27:39.602Z</time></trkpt><trkpt lat="42.1480662" lon="13.290223"><ele>753.0</ele><time>2026-05-02T15:27:40.602Z</time></trkpt><trkpt lat="42.1481424" lon="13.2901745"><ele>753.0</ele><time>2026-05-02T15:27:41.603Z</time></trkpt><trkpt lat="42.1482158" lon="13.2901269"><ele>753.0</ele><time>2026-05-02T15:27:42.602Z</time></trkpt><trkpt lat="42.1482859" lon="13.290078"><ele>753.0</ele><time>2026-05-02T15:27:43.602Z</time></trkpt><trkpt lat="42.1483517" lon="13.2900337"><ele>753.0</ele><time>2026-05-02T15:27:44.602Z</time></trkpt><trkpt lat="42.1484153" lon="13.289986"><ele>753.0</ele><time>2026-05-02T15:27:45.602Z</time></trkpt><trkpt lat="42.1484753" lon="13.2899382"><ele>750.6666666666666</ele><time>2026-05-02T15:27:46.602Z</time></trkpt><trkpt lat="42.1485364" lon="13.2898851"><ele>748.3333333333334</ele><time>2026-05-02T15:27:47.602Z</time></trkpt><trkpt lat="42.1485984" lon="13.2898365"><ele>746.0</ele><time>2026-05-02T15:27:48.603Z</time></trkpt><trkpt lat="42.1486643" lon="13.2897859"><ele>743.6666666666667</ele><time>2026-05-02T15:27:49.602Z</time></trkpt><trkpt lat="42.1487282" lon="13.2897401"><ele>741.3333333333334</ele><time>2026-05-02T15:27:50.602Z</time></trkpt><trkpt lat="42.1488029" lon="13.2896884"><ele>739.0</ele><time>2026-05-02T15:27:51.603Z</time></trkpt><trkpt lat="42.1488795" lon="13.2896277"><ele>739.2</ele><time>2026-05-02T15:27:52.603Z</time></trkpt><trkpt lat="42.1489486" lon="13.2895582"><ele>739.4000000000001</ele><time>2026-05-02T15:27:53.603Z</time></trkpt><trkpt lat="42.1490182" lon="13.2894826"><ele>739.6</ele><time>2026-05-02T15:27:54.602Z</time></trkpt><trkpt lat="42.1490819" lon="13.2894001"><ele>739.8</ele><time>2026-05-02T15:27:55.602Z</time></trkpt><trkpt lat="42.1491447" lon="13.2893016"><ele>740.0</ele><time>2026-05-02T15:27:56.602Z</time></trkpt><trkpt lat="42.149199" lon="13.2892039"><ele>740.0</ele><time>2026-05-02T15:27:57.602Z</time></trkpt><trkpt lat="42.1492544" lon="13.2891068"><ele>740.0</ele><time>2026-05-02T15:27:58.603Z</time></trkpt><trkpt lat="42.1493096" lon="13.2890255"><ele>740.0</ele><time>2026-05-02T15:27:59.602Z</time></trkpt><trkpt lat="42.1493679" lon="13.2889568"><ele>740.0</ele><time>2026-05-02T15:28:00.602Z</time></trkpt><trkpt lat="42.1494315" lon="13.2888934"><ele>740.0</ele><time>2026-05-02T15:28:01.603Z</time></trkpt><trkpt lat="42.1494928" lon="13.2888286"><ele>740.0</ele><time>2026-05-02T15:28:02.603Z</time></trkpt><trkpt lat="42.1495502" lon="13.2887635"><ele>740.6</ele><time>2026-05-02T15:28:03.603Z</time></trkpt><trkpt lat="42.1496104" lon="13.288687"><ele>741.2</ele><time>2026-05-02T15:28:04.603Z</time></trkpt><trkpt lat="42.1496772" lon="13.2886053"><ele>741.8</ele><time>2026-05-02T15:28:05.602Z</time></trkpt><trkpt lat="42.1497452" lon="13.2885206"><ele>742.4</ele><time>2026-05-02T15:28:06.602Z</time></trkpt><trkpt lat="42.1498152" lon="13.2884282"><ele>743.0</ele><time>2026-05-02T15:28:07.602Z</time></trkpt><trkpt lat="42.1498797" lon="13.2883277"><ele>741.4</ele><time>2026-05-02T15:28:08.602Z</time></trkpt><trkpt lat="42.149945" lon="13.2882255"><ele>739.8</ele><time>2026-05-02T15:28:09.603Z</time></trkpt><trkpt lat="42.1500068" lon="13.288114"><ele>738.2</ele><time>2026-05-02T15:28:10.602Z</time></trkpt><trkpt lat="42.1500631" lon="13.2880014"><ele>736.6</ele><time>2026-05-02T15:28:11.602Z</time></trkpt><trkpt lat="42.1501186" lon="13.2879015"><ele>735.0</ele><time>2026-05-02T15:28:12.602Z</time></trkpt><trkpt lat="42.150167" lon="13.2878162"><ele>734.6666666666666</ele><time>2026-05-02T15:28:13.603Z</time></trkpt><trkpt lat="42.1502053" lon="13.2877405"><ele>734.3333333333334</ele><time>2026-05-02T15:28:14.602Z</time></trkpt><trkpt lat="42.1502464" lon="13.2876697"><ele>734.0</ele><time>2026-05-02T15:28:15.602Z</time></trkpt><trkpt lat="42.1503049" lon="13.2875449"><ele>733.6666666666667</ele><time>2026-05-02T15:28:17.603Z</time></trkpt><trkpt lat="42.150346" lon="13.287443"><ele>733.3333333333334</ele><time>2026-05-02T15:28:19.602Z</time></trkpt><trkpt lat="42.150403" lon="13.2873456"><ele>733.0</ele><time>2026-05-02T15:28:21.603Z</time></trkpt><trkpt lat="42.1504799" lon="13.2872166"><ele>732.8</ele><time>2026-05-02T15:28:23.602Z</time></trkpt><trkpt lat="42.1505607" lon="13.2870907"><ele>732.5999999999999</ele><time>2026-05-02T15:28:25.602Z</time></trkpt><trkpt lat="42.1506454" lon="13.2869869"><ele>732.4000000000001</ele><time>2026-05-02T15:28:27.602Z</time></trkpt><trkpt lat="42.1507231" lon="13.2869136"><ele>732.2</ele><time>2026-05-02T15:28:29.602Z</time></trkpt><trkpt lat="42.1508074" lon="13.2868596"><ele>732.0</ele><time>2026-05-02T15:28:32.603Z</time></trkpt><trkpt lat="42.1508939" lon="13.2867886"><ele>731.6666666666666</ele><time>2026-05-02T15:28:34.603Z</time></trkpt><trkpt lat="42.1509562" lon="13.2867276"><ele>731.3333333333334</ele><time>2026-05-02T15:28:35.602Z</time></trkpt><trkpt lat="42.1510227" lon="13.2866489"><ele>731.0</ele><time>2026-05-02T15:28:36.603Z</time></trkpt><trkpt lat="42.1510877" lon="13.2865644"><ele>730.6666666666667</ele><time>2026-05-02T15:28:37.603Z</time></trkpt><trkpt lat="42.1511486" lon="13.286482"><ele>730.3333333333334</ele><time>2026-05-02T15:28:38.602Z</time></trkpt><trkpt lat="42.1512075" lon="13.2863925"><ele>730.0</ele><time>2026-05-02T15:28:39.602Z</time></trkpt><trkpt lat="42.1512602" lon="13.2863033"><ele>729.6666666666667</ele><time>2026-05-02T15:28:40.602Z</time></trkpt><trkpt lat="42.1513164" lon="13.2862174"><ele>729.3333333333334</ele><time>2026-05-02T15:28:41.602Z</time></trkpt><trkpt lat="42.1513703" lon="13.286131"><ele>729.0</ele><time>2026-05-02T15:28:42.602Z</time></trkpt><trkpt lat="42.1514234" lon="13.2860457"><ele>728.6666666666666</ele><time>2026-05-02T15:28:43.602Z</time></trkpt><trkpt lat="42.1514773" lon="13.2859655"><ele>728.3333333333333</ele><time>2026-05-02T15:28:44.603Z</time></trkpt><trkpt lat="42.151531" lon="13.2858908"><ele>728.0</ele><time>2026-05-02T15:28:45.602Z</time></trkpt><trkpt lat="42.1515862" lon="13.2858267"><ele>727.6666666666666</ele><time>2026-05-02T15:28:46.602Z</time></trkpt><trkpt lat="42.1516449" lon="13.2857725"><ele>727.3333333333333</ele><time>2026-05-02T15:28:47.602Z</time></trkpt><trkpt lat="42.1517029" lon="13.2857227"><ele>727.0</ele><time>2026-05-02T15:28:48.603Z</time></trkpt><trkpt lat="42.1517621" lon="13.2856633"><ele>726.6666666666666</ele><time>2026-05-02T15:28:49.603Z</time></trkpt><trkpt lat="42.1518191" lon="13.2855949"><ele>726.3333333333334</ele><time>2026-05-02T15:28:50.602Z</time></trkpt><trkpt lat="42.151878" lon="13.2855244"><ele>726.0</ele><time>2026-05-02T15:28:51.602Z</time></trkpt><trkpt lat="42.1519429" lon="13.2854565"><ele>726.0</ele><time>2026-05-02T15:28:52.603Z</time></trkpt><trkpt lat="42.1520103" lon="13.2853877"><ele>726.0</ele><time>2026-05-02T15:28:53.603Z</time></trkpt><trkpt lat="42.1520758" lon="13.2853111"><ele>726.0</ele><time>2026-05-02T15:28:54.602Z</time></trkpt><trkpt lat="42.1521418" lon="13.2852282"><ele>726.0</ele><time>2026-05-02T15:28:55.603Z</time></trkpt><trkpt lat="42.1522114" lon="13.2851511"><ele>726.0</ele><time>2026-05-02T15:28:56.602Z</time></trkpt><trkpt lat="42.152283" lon="13.2850808"><ele>726.0</ele><time>2026-05-02T15:28:57.602Z</time></trkpt><trkpt lat="42.1523586" lon="13.2850072"><ele>726.0</ele><time>2026-05-02T15:28:58.602Z</time></trkpt><trkpt lat="42.1524288" lon="13.2849327"><ele>726.0</ele><time>2026-05-02T15:28:59.602Z</time></trkpt><trkpt lat="42.1525029" lon="13.2848656"><ele>726.0</ele><time>2026-05-02T15:29:00.603Z</time></trkpt><trkpt lat="42.1525717" lon="13.2847939"><ele>726.0</ele><time>2026-05-02T15:29:01.602Z</time></trkpt><trkpt lat="42.152638" lon="13.2847097"><ele>726.0</ele><time>2026-05-02T15:29:02.602Z</time></trkpt><trkpt lat="42.1527077" lon="13.2846307"><ele>726.0</ele><time>2026-05-02T15:29:03.602Z</time></trkpt><trkpt lat="42.1527764" lon="13.2845548"><ele>725.5999999999999</ele><time>2026-05-02T15:29:04.602Z</time></trkpt><trkpt lat="42.1528457" lon="13.2844676"><ele>725.2</ele><time>2026-05-02T15:29:05.602Z</time></trkpt><trkpt lat="42.1529141" lon="13.2843779"><ele>724.8</ele><time>2026-05-02T15:29:06.603Z</time></trkpt><trkpt lat="42.152984" lon="13.2842819"><ele>724.4000000000001</ele><time>2026-05-02T15:29:07.603Z</time></trkpt><trkpt lat="42.1530582" lon="13.2841825"><ele>724.0</ele><time>2026-05-02T15:29:08.603Z</time></trkpt><trkpt lat="42.1531301" lon="13.2840839"><ele>724.0</ele><time>2026-05-02T15:29:09.602Z</time></trkpt><trkpt lat="42.1532021" lon="13.2839808"><ele>724.0</ele><time>2026-05-02T15:29:10.603Z</time></trkpt><trkpt lat="42.1532706" lon="13.2838702"><ele>724.0</ele><time>2026-05-02T15:29:11.602Z</time></trkpt><trkpt lat="42.1533337" lon="13.2837485"><ele>724.0</ele><time>2026-05-02T15:29:12.602Z</time></trkpt><trkpt lat="42.1533991" lon="13.2836262"><ele>724.0</ele><time>2026-05-02T15:29:13.602Z</time></trkpt><trkpt lat="42.1534671" lon="13.2835032"><ele>724.75</ele><time>2026-05-02T15:29:14.602Z</time></trkpt><trkpt lat="42.1535385" lon="13.2833818"><ele>725.5</ele><time>2026-05-02T15:29:15.603Z</time></trkpt><trkpt lat="42.1536127" lon="13.2832602"><ele>726.25</ele><time>2026-05-02T15:29:16.602Z</time></trkpt><trkpt lat="42.1536903" lon="13.2831437"><ele>727.0</ele><time>2026-05-02T15:29:17.602Z</time></trkpt><trkpt lat="42.153771" lon="13.2830298"><ele>727.0</ele><time>2026-05-02T15:29:18.602Z</time></trkpt><trkpt lat="42.1538521" lon="13.2829202"><ele>727.0</ele><time>2026-05-02T15:29:19.602Z</time></trkpt><trkpt lat="42.1539321" lon="13.2828163"><ele>727.0</ele><time>2026-05-02T15:29:20.603Z</time></trkpt><trkpt lat="42.154011" lon="13.2827108"><ele>727.0</ele><time>2026-05-02T15:29:21.602Z</time></trkpt><trkpt lat="42.1540893" lon="13.2826003"><ele>727.25</ele><time>2026-05-02T15:29:22.602Z</time></trkpt><trkpt lat="42.1541681" lon="13.2824921"><ele>727.5</ele><time>2026-05-02T15:29:23.602Z</time></trkpt><trkpt lat="42.1542491" lon="13.2823864"><ele>727.75</ele><time>2026-05-02T15:29:24.602Z</time></trkpt><trkpt lat="42.154332" lon="13.2822772"><ele>728.0</ele><time>2026-05-02T15:29:25.602Z</time></trkpt><trkpt lat="42.1544196" lon="13.2821725"><ele>728.2</ele><time>2026-05-02T15:29:26.603Z</time></trkpt><trkpt lat="42.1545069" lon="13.2820823"><ele>728.4</ele><time>2026-05-02T15:29:27.602Z</time></trkpt><trkpt lat="42.1545923" lon="13.2820043"><ele>728.6</ele><time>2026-05-02T15:29:28.603Z</time></trkpt><trkpt lat="42.1546739" lon="13.2819367"><ele>728.8000000000001</ele><time>2026-05-02T15:29:29.602Z</time></trkpt><trkpt lat="42.1547566" lon="13.2818747"><ele>729.0</ele><time>2026-05-02T15:29:30.603Z</time></trkpt><trkpt lat="42.154843" lon="13.2818152"><ele>729.6</ele><time>2026-05-02T15:29:31.603Z</time></trkpt><trkpt lat="42.1549359" lon="13.2817567"><ele>730.2</ele><time>2026-05-02T15:29:32.602Z</time></trkpt><trkpt lat="42.1550301" lon="13.2816944"><ele>730.8000000000001</ele><time>2026-05-02T15:29:33.603Z</time></trkpt><trkpt lat="42.1551258" lon="13.2816269"><ele>731.4000000000001</ele><time>2026-05-02T15:29:34.602Z</time></trkpt><trkpt lat="42.1552217" lon="13.2815517"><ele>732.0</ele><time>2026-05-02T15:29:35.602Z</time></trkpt><trkpt lat="42.1553168" lon="13.2814705"><ele>731.6</ele><time>2026-05-02T15:29:36.603Z</time></trkpt><trkpt lat="42.15541" lon="13.2813888"><ele>731.2</ele><time>2026-05-02T15:29:37.602Z</time></trkpt><trkpt lat="42.1555008" lon="13.2813041"><ele>730.8</ele><time>2026-05-02T15:29:38.602Z</time></trkpt><trkpt lat="42.1555922" lon="13.2812217"><ele>730.4</ele><time>2026-05-02T15:29:39.602Z</time></trkpt><trkpt lat="42.1556859" lon="13.2811343"><ele>730.0</ele><time>2026-05-02T15:29:40.603Z</time></trkpt><trkpt lat="42.1557816" lon="13.2810469"><ele>731.0</ele><time>2026-05-02T15:29:41.603Z</time></trkpt><trkpt lat="42.1558798" lon="13.2809624"><ele>732.0</ele><time>2026-05-02T15:29:42.602Z</time></trkpt><trkpt lat="42.1559793" lon="13.2808789"><ele>733.0</ele><time>2026-05-02T15:29:43.603Z</time></trkpt><trkpt lat="42.1560808" lon="13.2807953"><ele>734.0</ele><time>2026-05-02T15:29:44.602Z</time></trkpt><trkpt lat="42.1561852" lon="13.2807082"><ele>734.0</ele><time>2026-05-02T15:29:45.602Z</time></trkpt><trkpt lat="42.1562887" lon="13.2806223"><ele>734.0</ele><time>2026-05-02T15:29:46.602Z</time></trkpt><trkpt lat="42.1563939" lon="13.2805336"><ele>734.0</ele><time>2026-05-02T15:29:47.603Z</time></trkpt><trkpt lat="42.1564937" lon="13.2804448"><ele>734.0</ele><time>2026-05-02T15:29:48.602Z</time></trkpt><trkpt lat="42.156588" lon="13.280359"><ele>734.8000000000001</ele><time>2026-05-02T15:29:49.602Z</time></trkpt><trkpt lat="42.1566787" lon="13.2802761"><ele>735.6</ele><time>2026-05-02T15:29:50.603Z</time></trkpt><trkpt lat="42.156773" lon="13.2801947"><ele>736.4</ele><time>2026-05-02T15:29:51.602Z</time></trkpt><trkpt lat="42.1568694" lon="13.2801169"><ele>737.2</ele><time>2026-05-02T15:29:52.602Z</time></trkpt><trkpt lat="42.1569706" lon="13.2800427"><ele>738.0</ele><time>2026-05-02T15:29:53.602Z</time></trkpt><trkpt lat="42.1570787" lon="13.2799717"><ele>738.0</ele><time>2026-05-02T15:29:54.603Z</time></trkpt><trkpt lat="42.1571928" lon="13.2799073"><ele>738.0</ele><time>2026-05-02T15:29:55.602Z</time></trkpt><trkpt lat="42.1573079" lon="13.2798504"><ele>738.0</ele><time>2026-05-02T15:29:56.603Z</time></trkpt><trkpt lat="42.1574243" lon="13.2797997"><ele>738.0</ele><time>2026-05-02T15:29:57.603Z</time></trkpt><trkpt lat="42.1575434" lon="13.279751"><ele>738.25</ele><time>2026-05-02T15:29:58.602Z</time></trkpt><trkpt lat="42.1576629" lon="13.2797079"><ele>738.5</ele><time>2026-05-02T15:29:59.602Z</time></trkpt><trkpt lat="42.1577826" lon="13.2796698"><ele>738.75</ele><time>2026-05-02T15:30:00.603Z</time></trkpt><trkpt lat="42.1579018" lon="13.2796327"><ele>739.0</ele><time>2026-05-02T15:30:01.602Z</time></trkpt><trkpt lat="42.1580177" lon="13.2795974"><ele>739.0</ele><time>2026-05-02T15:30:02.602Z</time></trkpt><trkpt lat="42.1581298" lon="13.2795668"><ele>739.0</ele><time>2026-05-02T15:30:03.602Z</time></trkpt><trkpt lat="42.1582444" lon="13.2795456"><ele>739.0</ele><time>2026-05-02T15:30:04.602Z</time></trkpt><trkpt lat="42.1583577" lon="13.2795282"><ele>739.0</ele><time>2026-05-02T15:30:05.602Z</time></trkpt><trkpt lat="42.1584692" lon="13.2795102"><ele>740.0</ele><time>2026-05-02T15:30:06.602Z</time></trkpt><trkpt lat="42.1585819" lon="13.2794933"><ele>741.0</ele><time>2026-05-02T15:30:07.602Z</time></trkpt><trkpt lat="42.1586956" lon="13.2794748"><ele>742.0</ele><time>2026-05-02T15:30:08.602Z</time></trkpt><trkpt lat="42.1588095" lon="13.2794556"><ele>743.0</ele><time>2026-05-02T15:30:09.603Z</time></trkpt><trkpt lat="42.1589232" lon="13.2794352"><ele>744.25</ele><time>2026-05-02T15:30:10.602Z</time></trkpt><trkpt lat="42.1590377" lon="13.2794102"><ele>745.5</ele><time>2026-05-02T15:30:11.602Z</time></trkpt><trkpt lat="42.159153" lon="13.2793805"><ele>746.75</ele><time>2026-05-02T15:30:12.603Z</time></trkpt><trkpt lat="42.1592673" lon="13.2793474"><ele>748.0</ele><time>2026-05-02T15:30:13.602Z</time></trkpt><trkpt lat="42.1593818" lon="13.2793164"><ele>748.0</ele><time>2026-05-02T15:30:14.602Z</time></trkpt><trkpt lat="42.1594982" lon="13.2792858"><ele>748.0</ele><time>2026-05-02T15:30:15.602Z</time></trkpt><trkpt lat="42.1596151" lon="13.2792555"><ele>748.0</ele><time>2026-05-02T15:30:16.602Z</time></trkpt><trkpt lat="42.1597337" lon="13.2792274"><ele>748.0</ele><time>2026-05-02T15:30:17.603Z</time></trkpt><trkpt lat="42.1598536" lon="13.2792"><ele>748.75</ele><time>2026-05-02T15:30:18.603Z</time></trkpt><trkpt lat="42.1599729" lon="13.279171"><ele>749.5</ele><time>2026-05-02T15:30:19.602Z</time></trkpt><trkpt lat="42.1600923" lon="13.2791411"><ele>750.25</ele><time>2026-05-02T15:30:20.603Z</time></trkpt><trkpt lat="42.1602147" lon="13.2791103"><ele>751.0</ele><time>2026-05-02T15:30:21.603Z</time></trkpt><trkpt lat="42.1603396" lon="13.2790752"><ele>751.0</ele><time>2026-05-02T15:30:22.603Z</time></trkpt><trkpt lat="42.1604647" lon="13.2790365"><ele>751.0</ele><time>2026-05-02T15:30:23.603Z</time></trkpt><trkpt lat="42.1605917" lon="13.2789947"><ele>751.0</ele><time>2026-05-02T15:30:24.602Z</time></trkpt><trkpt lat="42.1607189" lon="13.2789481"><ele>751.0</ele><time>2026-05-02T15:30:25.602Z</time></trkpt><trkpt lat="42.1608464" lon="13.2789017"><ele>751.75</ele><time>2026-05-02T15:30:26.603Z</time></trkpt><trkpt lat="42.1609749" lon="13.278858"><ele>752.5</ele><time>2026-05-02T15:30:27.602Z</time></trkpt><trkpt lat="42.1611019" lon="13.2788163"><ele>753.25</ele><time>2026-05-02T15:30:28.602Z</time></trkpt><trkpt lat="42.1612281" lon="13.2787784"><ele>754.0</ele><time>2026-05-02T15:30:29.603Z</time></trkpt><trkpt lat="42.1613563" lon="13.278744"><ele>754.0</ele><time>2026-05-02T15:30:30.603Z</time></trkpt><trkpt lat="42.1614842" lon="13.2787072"><ele>754.0</ele><time>2026-05-02T15:30:31.603Z</time></trkpt><trkpt lat="42.1616099" lon="13.2786678"><ele>754.0</ele><time>2026-05-02T15:30:32.602Z</time></trkpt><trkpt lat="42.1617351" lon="13.2786294"><ele>754.0</ele><time>2026-05-02T15:30:33.603Z</time></trkpt><trkpt lat="42.1618605" lon="13.2785916"><ele>754.75</ele><time>2026-05-02T15:30:34.602Z</time></trkpt><trkpt lat="42.161984" lon="13.2785493"><ele>755.5</ele><time>2026-05-02T15:30:35.602Z</time></trkpt><trkpt lat="42.1621064" lon="13.2785054"><ele>756.25</ele><time>2026-05-02T15:30:36.602Z</time></trkpt><trkpt lat="42.162228" lon="13.2784608"><ele>757.0</ele><time>2026-05-02T15:30:37.602Z</time></trkpt><trkpt lat="42.1623496" lon="13.278416"><ele>758.0</ele><time>2026-05-02T15:30:38.603Z</time></trkpt><trkpt lat="42.1624699" lon="13.2783713"><ele>759.0</ele><time>2026-05-02T15:30:39.603Z</time></trkpt><trkpt lat="42.16259" lon="13.2783297"><ele>760.0</ele><time>2026-05-02T15:30:40.603Z</time></trkpt><trkpt lat="42.1627113" lon="13.278292"><ele>761.0</ele><time>2026-05-02T15:30:41.603Z</time></trkpt><trkpt lat="42.1628323" lon="13.2782539"><ele>761.0</ele><time>2026-05-02T15:30:42.602Z</time></trkpt><trkpt lat="42.1629535" lon="13.2782183"><ele>761.0</ele><time>2026-05-02T15:30:43.603Z</time></trkpt><trkpt lat="42.1630741" lon="13.2781845"><ele>761.0</ele><time>2026-05-02T15:30:44.603Z</time></trkpt><trkpt lat="42.1631902" lon="13.2781507"><ele>761.0</ele><time>2026-05-02T15:30:45.602Z</time></trkpt><trkpt lat="42.1633008" lon="13.2781143"><ele>762.0</ele><time>2026-05-02T15:30:46.602Z</time></trkpt><trkpt lat="42.1634108" lon="13.2780705"><ele>763.0</ele><time>2026-05-02T15:30:47.603Z</time></trkpt><trkpt lat="42.1635186" lon="13.2780189"><ele>764.0</ele><time>2026-05-02T15:30:48.602Z</time></trkpt><trkpt lat="42.1636238" lon="13.2779591"><ele>765.0</ele><time>2026-05-02T15:30:49.602Z</time></trkpt><trkpt lat="42.1637274" lon="13.2778886"><ele>765.0</ele><time>2026-05-02T15:30:50.603Z</time></trkpt><trkpt lat="42.1638262" lon="13.2778087"><ele>765.0</ele><time>2026-05-02T15:30:51.602Z</time></trkpt><trkpt lat="42.1639161" lon="13.277727"><ele>765.0</ele><time>2026-05-02T15:30:52.602Z</time></trkpt><trkpt lat="42.1640006" lon="13.2776523"><ele>765.0</ele><time>2026-05-02T15:30:53.603Z</time></trkpt><trkpt lat="42.1640856" lon="13.2775914"><ele>765.0</ele><time>2026-05-02T15:30:54.602Z</time></trkpt><trkpt lat="42.1641687" lon="13.2775447"><ele>765.0</ele><time>2026-05-02T15:30:55.602Z</time></trkpt><trkpt lat="42.1642404" lon="13.2775139"><ele>765.0</ele><time>2026-05-02T15:30:56.602Z</time></trkpt><trkpt lat="42.1643599" lon="13.2774835"><ele>765.0</ele><time>2026-05-02T15:30:58.602Z</time></trkpt><trkpt lat="42.1644304" lon="13.2774779"><ele>765.0</ele><time>2026-05-02T15:30:59.603Z</time></trkpt><trkpt lat="42.164511" lon="13.2774743"><ele>765.0</ele><time>2026-05-02T15:31:00.602Z</time></trkpt><trkpt lat="42.1646013" lon="13.2774725"><ele>765.0</ele><time>2026-05-02T15:31:01.602Z</time></trkpt><trkpt lat="42.1646941" lon="13.2774777"><ele>765.0</ele><time>2026-05-02T15:31:02.602Z</time></trkpt><trkpt lat="42.1647868" lon="13.2774855"><ele>765.0</ele><time>2026-05-02T15:31:03.602Z</time></trkpt><trkpt lat="42.1648898" lon="13.2774878"><ele>765.0</ele><time>2026-05-02T15:31:04.602Z</time></trkpt><trkpt lat="42.1649909" lon="13.2774874"><ele>765.0</ele><time>2026-05-02T15:31:05.603Z</time></trkpt><trkpt lat="42.165085" lon="13.2774823"><ele>765.0</ele><time>2026-05-02T15:31:06.603Z</time></trkpt><trkpt lat="42.1651768" lon="13.277475"><ele>764.6666666666666</ele><time>2026-05-02T15:31:07.602Z</time></trkpt><trkpt lat="42.1652665" lon="13.2774694"><ele>764.3333333333334</ele><time>2026-05-02T15:31:08.602Z</time></trkpt><trkpt lat="42.1653539" lon="13.2774612"><ele>764.0</ele><time>2026-05-02T15:31:09.602Z</time></trkpt><trkpt lat="42.1654395" lon="13.2774548"><ele>763.6666666666667</ele><time>2026-05-02T15:31:10.602Z</time></trkpt><trkpt lat="42.1655233" lon="13.2774544"><ele>763.3333333333334</ele><time>2026-05-02T15:31:11.603Z</time></trkpt><trkpt lat="42.1656077" lon="13.2774541"><ele>763.0</ele><time>2026-05-02T15:31:12.602Z</time></trkpt><trkpt lat="42.1656967" lon="13.2774496"><ele>762.5999999999999</ele><time>2026-05-02T15:31:13.603Z</time></trkpt><trkpt lat="42.1657916" lon="13.2774382"><ele>762.1999999999999</ele><time>2026-05-02T15:31:14.603Z</time></trkpt><trkpt lat="42.1658915" lon="13.2774148"><ele>761.8</ele><time>2026-05-02T15:31:15.602Z</time></trkpt><trkpt lat="42.1659908" lon="13.2773835"><ele>761.4</ele><time>2026-05-02T15:31:16.602Z</time></trkpt><trkpt lat="42.1660878" lon="13.2773542"><ele>761.0</ele><time>2026-05-02T15:31:17.603Z</time></trkpt><trkpt lat="42.1661872" lon="13.2773266"><ele>761.0</ele><time>2026-05-02T15:31:18.603Z</time></trkpt><trkpt lat="42.1662861" lon="13.27729"><ele>761.0</ele><time>2026-05-02T15:31:19.602Z</time></trkpt><trkpt lat="42.1663813" lon="13.2772473"><ele>761.0</ele><time>2026-05-02T15:31:20.602Z</time></trkpt><trkpt lat="42.1664732" lon="13.2772052"><ele>761.0</ele><time>2026-05-02T15:31:21.602Z</time></trkpt><trkpt lat="42.1665594" lon="13.2771623"><ele>761.0</ele><time>2026-05-02T15:31:22.602Z</time></trkpt><trkpt lat="42.1666426" lon="13.2771116"><ele>762.0</ele><time>2026-05-02T15:31:23.602Z</time></trkpt><trkpt lat="42.1667236" lon="13.2770604"><ele>763.0</ele><time>2026-05-02T15:31:24.602Z</time></trkpt><trkpt lat="42.1667922" lon="13.2770192"><ele>764.0</ele><time>2026-05-02T15:31:25.602Z</time></trkpt><trkpt lat="42.1668933" lon="13.2769638"><ele>765.0</ele><time>2026-05-02T15:31:27.602Z</time></trkpt><trkpt lat="42.1669809" lon="13.276928"><ele>766.0</ele><time>2026-05-02T15:31:29.603Z</time></trkpt><trkpt lat="42.1670661" lon="13.2769274"><ele>766.0</ele><time>2026-05-02T15:31:31.602Z</time></trkpt><trkpt lat="42.1671494" lon="13.2769318"><ele>766.0</ele><time>2026-05-02T15:31:33.602Z</time></trkpt><trkpt lat="42.1672581" lon="13.2769286"><ele>766.0</ele><time>2026-05-02T15:31:35.602Z</time></trkpt><trkpt lat="42.1673711" lon="13.2769283"><ele>766.0</ele><time>2026-05-02T15:31:37.603Z</time></trkpt><trkpt lat="42.167446" lon="13.2768898"><ele>766.0</ele><time>2026-05-02T15:31:39.602Z</time></trkpt><trkpt lat="42.1675079" lon="13.2767897"><ele>768.1999999999999</ele><time>2026-05-02T15:31:42.603Z</time></trkpt><trkpt lat="42.1675305" lon="13.2766811"><ele>770.4</ele><time>2026-05-02T15:31:44.603Z</time></trkpt><trkpt lat="42.1676367" lon="13.2765667"><ele>772.6</ele><time>2026-05-02T15:31:46.603Z</time></trkpt><trkpt lat="42.1676948" lon="13.2764969"><ele>774.8</ele><time>2026-05-02T15:31:47.603Z</time></trkpt><trkpt lat="42.1677132" lon="13.276414"><ele>777.0</ele><time>2026-05-02T15:31:48.603Z</time></trkpt><trkpt lat="42.1677372" lon="13.276289"><ele>778.0</ele><time>2026-05-02T15:31:50.602Z</time></trkpt><trkpt lat="42.167803" lon="13.2762231"><ele>779.0</ele><time>2026-05-02T15:31:52.603Z</time></trkpt><trkpt lat="42.1678887" lon="13.2762245"><ele>780.0</ele><time>2026-05-02T15:31:54.603Z</time></trkpt><trkpt lat="42.1679843" lon="13.2762722"><ele>781.0</ele><time>2026-05-02T15:31:56.602Z</time></trkpt><trkpt lat="42.1680971" lon="13.2763134"><ele>782.0</ele><time>2026-05-02T15:31:58.602Z</time></trkpt><trkpt lat="42.1682204" lon="13.276316"><ele>781.9999999999999</ele><time>2026-05-02T15:32:00.602Z</time></trkpt><trkpt lat="42.1682841" lon="13.2763092"><ele>782.0</ele><time>2026-05-02T15:32:01.602Z</time></trkpt><trkpt lat="42.1683484" lon="13.2762958"><ele>782.0</ele><time>2026-05-02T15:32:02.602Z</time></trkpt><trkpt lat="42.1684159" lon="13.2762795"><ele>782.0</ele><time>2026-05-02T15:32:03.602Z</time></trkpt><trkpt lat="42.1684863" lon="13.2762675"><ele>782.0</ele><time>2026-05-02T15:32:04.602Z</time></trkpt><trkpt lat="42.168559" lon="13.2762563"><ele>781.9999999999999</ele><time>2026-05-02T15:32:05.602Z</time></trkpt><trkpt lat="42.1686334" lon="13.2762439"><ele>782.0</ele><time>2026-05-02T15:32:06.602Z</time></trkpt><trkpt lat="42.1687098" lon="13.276227"><ele>782.0</ele><time>2026-05-02T15:32:07.602Z</time></trkpt><trkpt lat="42.1687934" lon="13.2761996"><ele>782.0</ele><time>2026-05-02T15:32:08.602Z</time></trkpt><trkpt lat="42.1688854" lon="13.2761693"><ele>782.0</ele><time>2026-05-02T15:32:09.602Z</time></trkpt><trkpt lat="42.1689836" lon="13.276139"><ele>782.0</ele><time>2026-05-02T15:32:10.602Z</time></trkpt><trkpt lat="42.1690872" lon="13.2761048"><ele>782.0</ele><time>2026-05-02T15:32:11.602Z</time></trkpt><trkpt lat="42.1691924" lon="13.2760711"><ele>783.4000000000001</ele><time>2026-05-02T15:32:12.603Z</time></trkpt><trkpt lat="42.1692939" lon="13.2760407"><ele>784.8000000000001</ele><time>2026-05-02T15:32:13.603Z</time></trkpt><trkpt lat="42.1693946" lon="13.2760095"><ele>786.2</ele><time>2026-05-02T15:32:14.603Z</time></trkpt><trkpt lat="42.1694968" lon="13.2759759"><ele>787.6</ele><time>2026-05-02T15:32:15.603Z</time></trkpt><trkpt lat="42.1695994" lon="13.275943"><ele>789.0</ele><time>2026-05-02T15:32:16.602Z</time></trkpt><trkpt lat="42.1697005" lon="13.2759116"><ele>789.0</ele><time>2026-05-02T15:32:17.602Z</time></trkpt><trkpt lat="42.1697987" lon="13.2758803"><ele>789.0</ele><time>2026-05-02T15:32:18.602Z</time></trkpt><trkpt lat="42.1698966" lon="13.2758487"><ele>789.0</ele><time>2026-05-02T15:32:19.603Z</time></trkpt><trkpt lat="42.1699961" lon="13.2758176"><ele>789.0</ele><time>2026-05-02T15:32:20.602Z</time></trkpt><trkpt lat="42.1700867" lon="13.2757893"><ele>789.0</ele><time>2026-05-02T15:32:21.602Z</time></trkpt><trkpt lat="42.1701691" lon="13.2757662"><ele>789.8333333333334</ele><time>2026-05-02T15:32:22.603Z</time></trkpt><trkpt lat="42.1702584" lon="13.2757438"><ele>790.6666666666667</ele><time>2026-05-02T15:32:23.603Z</time></trkpt><trkpt lat="42.1703444" lon="13.2757275"><ele>791.5</ele><time>2026-05-02T15:32:24.603Z</time></trkpt><trkpt lat="42.1704182" lon="13.2757183"><ele>792.3333333333334</ele><time>2026-05-02T15:32:25.603Z</time></trkpt><trkpt lat="42.1704892" lon="13.2757126"><ele>793.1666666666667</ele><time>2026-05-02T15:32:26.603Z</time></trkpt><trkpt lat="42.1705561" lon="13.2757102"><ele>794.0</ele><time>2026-05-02T15:32:27.602Z</time></trkpt><trkpt lat="42.1706733" lon="13.275698"><ele>795.2</ele><time>2026-05-02T15:32:29.602Z</time></trkpt><trkpt lat="42.1707598" lon="13.2756762"><ele>796.4000000000001</ele><time>2026-05-02T15:32:31.602Z</time></trkpt><trkpt lat="42.1708564" lon="13.2756748"><ele>797.6</ele><time>2026-05-02T15:32:34.603Z</time></trkpt><trkpt lat="42.1709611" lon="13.2756315"><ele>798.8</ele><time>2026-05-02T15:32:36.603Z</time></trkpt><trkpt lat="42.1710413" lon="13.2756208"><ele>800.0</ele><time>2026-05-02T15:32:37.602Z</time></trkpt><trkpt lat="42.1711461" lon="13.2756415"><ele>800.0</ele><time>2026-05-02T15:32:38.602Z</time></trkpt><trkpt lat="42.1712814" lon="13.2756739"><ele>800.0</ele><time>2026-05-02T15:32:39.602Z</time></trkpt><trkpt lat="42.1714264" lon="13.2757021"><ele>800.0</ele><time>2026-05-02T15:32:40.602Z</time></trkpt><trkpt lat="42.17157" lon="13.2757506"><ele>800.0</ele><time>2026-05-02T15:32:41.603Z</time></trkpt><trkpt lat="42.1717152" lon="13.2758384"><ele>800.3333333333334</ele><time>2026-05-02T15:32:42.602Z</time></trkpt><trkpt lat="42.1718593" lon="13.2759362"><ele>800.6666666666667</ele><time>2026-05-02T15:32:43.603Z</time></trkpt><trkpt lat="42.172005" lon="13.2760062"><ele>801.0</ele><time>2026-05-02T15:32:44.603Z</time></trkpt><trkpt lat="42.1721438" lon="13.2760531"><ele>801.0</ele><time>2026-05-02T15:32:45.603Z</time></trkpt><trkpt lat="42.1722688" lon="13.2761022"><ele>801.0</ele><time>2026-05-02T15:32:46.602Z</time></trkpt><trkpt lat="42.1723832" lon="13.2761512"><ele>801.0</ele><time>2026-05-02T15:32:47.603Z</time></trkpt><trkpt lat="42.1724888" lon="13.2761919"><ele>801.0</ele><time>2026-05-02T15:32:48.603Z</time></trkpt><trkpt lat="42.1725817" lon="13.2762285"><ele>801.1666666666666</ele><time>2026-05-02T15:32:49.603Z</time></trkpt><trkpt lat="42.1726602" lon="13.276262"><ele>801.3333333333333</ele><time>2026-05-02T15:32:50.603Z</time></trkpt><trkpt lat="42.1727354" lon="13.2762881"><ele>801.5</ele><time>2026-05-02T15:32:51.603Z</time></trkpt><trkpt lat="42.1728137" lon="13.2763098"><ele>801.6666666666666</ele><time>2026-05-02T15:32:52.602Z</time></trkpt><trkpt lat="42.1728929" lon="13.2763333"><ele>801.8333333333333</ele><time>2026-05-02T15:32:53.603Z</time></trkpt><trkpt lat="42.1729741" lon="13.2763606"><ele>802.0</ele><time>2026-05-02T15:32:54.602Z</time></trkpt><trkpt lat="42.1730528" lon="13.2763835"><ele>802.0</ele><time>2026-05-02T15:32:55.602Z</time></trkpt><trkpt lat="42.1731273" lon="13.2763952"><ele>802.0</ele><time>2026-05-02T15:32:56.602Z</time></trkpt><trkpt lat="42.1731957" lon="13.2763924"><ele>802.0</ele><time>2026-05-02T15:32:57.602Z</time></trkpt><trkpt lat="42.1733071" lon="13.2763281"><ele>802.0</ele><time>2026-05-02T15:32:59.603Z</time></trkpt><trkpt lat="42.173422" lon="13.276257"><ele>802.0</ele><time>2026-05-02T15:33:01.602Z</time></trkpt><trkpt lat="42.1734927" lon="13.2762365"><ele>803.6666666666666</ele><time>2026-05-02T15:33:02.603Z</time></trkpt><trkpt lat="42.173569" lon="13.2762248"><ele>805.3333333333333</ele><time>2026-05-02T15:33:03.603Z</time></trkpt><trkpt lat="42.1736481" lon="13.276206"><ele>807.0</ele><time>2026-05-02T15:33:04.602Z</time></trkpt><trkpt lat="42.17373" lon="13.2761757"><ele>808.6666666666667</ele><time>2026-05-02T15:33:05.603Z</time></trkpt><trkpt lat="42.1738136" lon="13.2761458"><ele>810.3333333333334</ele><time>2026-05-02T15:33:06.602Z</time></trkpt><trkpt lat="42.1738935" lon="13.2761229"><ele>812.0</ele><time>2026-05-02T15:33:07.602Z</time></trkpt><trkpt lat="42.173962" lon="13.2761057"><ele>814.2</ele><time>2026-05-02T15:33:08.602Z</time></trkpt><trkpt lat="42.1740715" lon="13.2761096"><ele>816.4000000000001</ele><time>2026-05-02T15:33:10.602Z</time></trkpt><trkpt lat="42.174159" lon="13.2761496"><ele>818.5999999999999</ele><time>2026-05-02T15:33:12.603Z</time></trkpt><trkpt lat="42.1742691" lon="13.2762687"><ele>820.8</ele><time>2026-05-02T15:33:14.602Z</time></trkpt><trkpt lat="42.174351" lon="13.2763494"><ele>823.0</ele><time>2026-05-02T15:33:15.603Z</time></trkpt><trkpt lat="42.1744418" lon="13.2764249"><ele>823.4</ele><time>2026-05-02T15:33:16.603Z</time></trkpt><trkpt lat="42.1745405" lon="13.2765012"><ele>823.8</ele><time>2026-05-02T15:33:17.602Z</time></trkpt><trkpt lat="42.17464" lon="13.2765654"><ele>824.2</ele><time>2026-05-02T15:33:18.602Z</time></trkpt><trkpt lat="42.1747365" lon="13.2766134"><ele>824.6</ele><time>2026-05-02T15:33:19.602Z</time></trkpt><trkpt lat="42.1748451" lon="13.2766353"><ele>825.0</ele><time>2026-05-02T15:33:20.603Z</time></trkpt><trkpt lat="42.174959" lon="13.2766134"><ele>826.0</ele><time>2026-05-02T15:33:21.602Z</time></trkpt><trkpt lat="42.175064" lon="13.276551"><ele>827.0</ele><time>2026-05-02T15:33:22.602Z</time></trkpt><trkpt lat="42.1751605" lon="13.2764534"><ele>828.0</ele><time>2026-05-02T15:33:23.602Z</time></trkpt><trkpt lat="42.1752466" lon="13.276321"><ele>829.0</ele><time>2026-05-02T15:33:24.602Z</time></trkpt><trkpt lat="42.1753208" lon="13.2761631"><ele>829.25</ele><time>2026-05-02T15:33:25.602Z</time></trkpt><trkpt lat="42.1753912" lon="13.2759912"><ele>829.5</ele><time>2026-05-02T15:33:26.602Z</time></trkpt><trkpt lat="42.1754691" lon="13.2758182"><ele>829.75</ele><time>2026-05-02T15:33:27.603Z</time></trkpt><trkpt lat="42.1755497" lon="13.2756565"><ele>830.0</ele><time>2026-05-02T15:33:28.602Z</time></trkpt><trkpt lat="42.1756245" lon="13.2755276"><ele>830.0</ele><time>2026-05-02T15:33:29.602Z</time></trkpt><trkpt lat="42.1756999" lon="13.2754455"><ele>830.0</ele><time>2026-05-02T15:33:30.602Z</time></trkpt><trkpt lat="42.1757958" lon="13.2754004"><ele>830.0</ele><time>2026-05-02T15:33:31.603Z</time></trkpt><trkpt lat="42.1759181" lon="13.2753713"><ele>830.0</ele><time>2026-05-02T15:33:32.602Z</time></trkpt><trkpt lat="42.1760558" lon="13.2753371"><ele>830.0</ele><time>2026-05-02T15:33:33.602Z</time></trkpt><trkpt lat="42.1761996" lon="13.2752918"><ele>830.0</ele><time>2026-05-02T15:33:34.602Z</time></trkpt><trkpt lat="42.1763473" lon="13.2752472"><ele>830.0</ele><time>2026-05-02T15:33:35.602Z</time></trkpt><trkpt lat="42.1764926" lon="13.2752105"><ele>830.0</ele><time>2026-05-02T15:33:36.603Z</time></trkpt><trkpt lat="42.1766298" lon="13.275172"><ele>828.0</ele><time>2026-05-02T15:33:37.603Z</time></trkpt><trkpt lat="42.1767609" lon="13.2751301"><ele>826.0</ele><time>2026-05-02T15:33:38.603Z</time></trkpt><trkpt lat="42.1768862" lon="13.2750862"><ele>824.0</ele><time>2026-05-02T15:33:39.602Z</time></trkpt><trkpt lat="42.1770049" lon="13.2750375"><ele>822.0</ele><time>2026-05-02T15:33:40.602Z</time></trkpt><trkpt lat="42.1771093" lon="13.2750034"><ele>822.0</ele><time>2026-05-02T15:33:41.603Z</time></trkpt><trkpt lat="42.1771914" lon="13.2750026"><ele>822.0</ele><time>2026-05-02T15:33:42.603Z</time></trkpt><trkpt lat="42.1772548" lon="13.2750298"><ele>822.0</ele><time>2026-05-02T15:33:43.602Z</time></trkpt><trkpt lat="42.1773567" lon="13.2750691"><ele>822.0</ele><time>2026-05-02T15:33:45.602Z</time></trkpt><trkpt lat="42.177468" lon="13.2750613"><ele>822.0</ele><time>2026-05-02T15:33:47.602Z</time></trkpt><trkpt lat="42.1775352" lon="13.2751303"><ele>821.6</ele><time>2026-05-02T15:33:49.603Z</time></trkpt><trkpt lat="42.1775411" lon="13.2752796"><ele>821.2</ele><time>2026-05-02T15:33:51.602Z</time></trkpt><trkpt lat="42.1775336" lon="13.2753934"><ele>820.8</ele><time>2026-05-02T15:33:52.603Z</time></trkpt><trkpt lat="42.1775331" lon="13.2755218"><ele>820.4</ele><time>2026-05-02T15:33:53.602Z</time></trkpt><trkpt lat="42.1775443" lon="13.2756526"><ele>820.0</ele><time>2026-05-02T15:33:54.602Z</time></trkpt><trkpt lat="42.1775727" lon="13.2757713"><ele>820.0</ele><time>2026-05-02T15:33:55.602Z</time></trkpt><trkpt lat="42.1776064" lon="13.2758694"><ele>820.0</ele><time>2026-05-02T15:33:56.602Z</time></trkpt><trkpt lat="42.1776334" lon="13.2759622"><ele>820.0</ele><time>2026-05-02T15:33:57.602Z</time></trkpt><trkpt lat="42.1776524" lon="13.2760467"><ele>820.0</ele><time>2026-05-02T15:33:58.603Z</time></trkpt><trkpt lat="42.1776661" lon="13.2761381"><ele>820.0</ele><time>2026-05-02T15:33:59.602Z</time></trkpt><trkpt lat="42.1776727" lon="13.2762272"><ele>820.0</ele><time>2026-05-02T15:34:00.602Z</time></trkpt><trkpt lat="42.1776747" lon="13.2763288"><ele>820.0</ele><time>2026-05-02T15:34:01.602Z</time></trkpt><trkpt lat="42.1776704" lon="13.2764237"><ele>820.2857142857143</ele><time>2026-05-02T15:34:02.603Z</time></trkpt><trkpt lat="42.1776563" lon="13.276522"><ele>820.5714285714286</ele><time>2026-05-02T15:34:03.602Z</time></trkpt><trkpt lat="42.1776393" lon="13.2766158"><ele>820.8571428571429</ele><time>2026-05-02T15:34:04.602Z</time></trkpt><trkpt lat="42.1776211" lon="13.2767129"><ele>821.1428571428571</ele><time>2026-05-02T15:34:05.603Z</time></trkpt><trkpt lat="42.177607" lon="13.2768092"><ele>821.4285714285713</ele><time>2026-05-02T15:34:06.603Z</time></trkpt><trkpt lat="42.1775963" lon="13.2769043"><ele>821.7142857142857</ele><time>2026-05-02T15:34:07.602Z</time></trkpt><trkpt lat="42.1775891" lon="13.2770003"><ele>822.0</ele><time>2026-05-02T15:34:08.602Z</time></trkpt><trkpt lat="42.1775833" lon="13.2771006"><ele>822.0</ele><time>2026-05-02T15:34:09.603Z</time></trkpt><trkpt lat="42.1775776" lon="13.2772002"><ele>822.0</ele><time>2026-05-02T15:34:10.603Z</time></trkpt><trkpt lat="42.1775694" lon="13.2773015"><ele>822.0</ele><time>2026-05-02T15:34:11.603Z</time></trkpt><trkpt lat="42.1775642" lon="13.2774024"><ele>822.0</ele><time>2026-05-02T15:34:12.602Z</time></trkpt><trkpt lat="42.1775627" lon="13.2775038"><ele>822.0</ele><time>2026-05-02T15:34:13.602Z</time></trkpt><trkpt lat="42.1775616" lon="13.2776067"><ele>822.0</ele><time>2026-05-02T15:34:14.603Z</time></trkpt><trkpt lat="42.1775584" lon="13.2777127"><ele>822.3333333333334</ele><time>2026-05-02T15:34:15.602Z</time></trkpt><trkpt lat="42.1775486" lon="13.2778131"><ele>822.6666666666667</ele><time>2026-05-02T15:34:16.602Z</time></trkpt><trkpt lat="42.1775295" lon="13.2779076"><ele>823.0</ele><time>2026-05-02T15:34:17.602Z</time></trkpt><trkpt lat="42.1775106" lon="13.2779963"><ele>823.3333333333334</ele><time>2026-05-02T15:34:18.602Z</time></trkpt><trkpt lat="42.177465" lon="13.2781488"><ele>823.6666666666667</ele><time>2026-05-02T15:34:20.603Z</time></trkpt><trkpt lat="42.1774285" lon="13.2782242"><ele>824.0</ele><time>2026-05-02T15:34:21.602Z</time></trkpt><trkpt lat="42.1773833" lon="13.2782935"><ele>825.5000000000001</ele><time>2026-05-02T15:34:22.603Z</time></trkpt><trkpt lat="42.1773283" lon="13.2783591"><ele>827.0</ele><time>2026-05-02T15:34:23.603Z</time></trkpt><trkpt lat="42.1772717" lon="13.2784222"><ele>828.5</ele><time>2026-05-02T15:34:24.602Z</time></trkpt><trkpt lat="42.177223" lon="13.2784948"><ele>830.0</ele><time>2026-05-02T15:34:25.603Z</time></trkpt><trkpt lat="42.1771865" lon="13.2785748"><ele>831.5000000000001</ele><time>2026-05-02T15:34:26.602Z</time></trkpt><trkpt lat="42.1771556" lon="13.2786509"><ele>833.0</ele><time>2026-05-02T15:34:27.602Z</time></trkpt><trkpt lat="42.1770874" lon="13.2787837"><ele>833.0000000000001</ele><time>2026-05-02T15:34:29.602Z</time></trkpt><trkpt lat="42.1770057" lon="13.2788829"><ele>833.0</ele><time>2026-05-02T15:34:31.602Z</time></trkpt><trkpt lat="42.1769454" lon="13.2789654"><ele>833.0</ele><time>2026-05-02T15:34:33.602Z</time></trkpt><trkpt lat="42.1769691" lon="13.2790944"><ele>833.0</ele><time>2026-05-02T15:34:36.602Z</time></trkpt><trkpt lat="42.177019" lon="13.2791622"><ele>833.0000000000001</ele><time>2026-05-02T15:34:38.602Z</time></trkpt><trkpt lat="42.177061" lon="13.2792392"><ele>833.0</ele><time>2026-05-02T15:34:40.603Z</time></trkpt><trkpt lat="42.1770791" lon="13.2793355"><ele>833.4</ele><time>2026-05-02T15:34:42.603Z</time></trkpt><trkpt lat="42.1771303" lon="13.2794648"><ele>833.8</ele><time>2026-05-02T15:34:44.602Z</time></trkpt><trkpt lat="42.1771481" lon="13.2795463"><ele>834.2</ele><time>2026-05-02T15:34:45.603Z</time></trkpt><trkpt lat="42.1772006" lon="13.2797017"><ele>834.6</ele><time>2026-05-02T15:34:47.602Z</time></trkpt><trkpt lat="42.1772458" lon="13.2797856"><ele>835.0</ele><time>2026-05-02T15:34:48.602Z</time></trkpt><trkpt lat="42.1773033" lon="13.2798877"><ele>835.2</ele><time>2026-05-02T15:34:49.603Z</time></trkpt><trkpt lat="42.1773648" lon="13.2799879"><ele>835.4</ele><time>2026-05-02T15:34:50.602Z</time></trkpt><trkpt lat="42.1774202" lon="13.2800905"><ele>835.5999999999999</ele><time>2026-05-02T15:34:51.603Z</time></trkpt><trkpt lat="42.1774782" lon="13.2802022"><ele>835.8</ele><time>2026-05-02T15:34:52.602Z</time></trkpt><trkpt lat="42.1775326" lon="13.2803153"><ele>836.0</ele><time>2026-05-02T15:34:53.602Z</time></trkpt><trkpt lat="42.1775942" lon="13.2804313"><ele>836.0</ele><time>2026-05-02T15:34:54.602Z</time></trkpt><trkpt lat="42.1776582" lon="13.280541"><ele>836.0</ele><time>2026-05-02T15:34:55.603Z</time></trkpt><trkpt lat="42.1777176" lon="13.2806499"><ele>836.0</ele><time>2026-05-02T15:34:56.602Z</time></trkpt><trkpt lat="42.1777755" lon="13.2807652"><ele>836.0</ele><time>2026-05-02T15:34:57.602Z</time></trkpt><trkpt lat="42.1778228" lon="13.2808697"><ele>836.0</ele><time>2026-05-02T15:34:58.603Z</time></trkpt><trkpt lat="42.1778764" lon="13.2809724"><ele>836.5000000000001</ele><time>2026-05-02T15:34:59.603Z</time></trkpt><trkpt lat="42.1779296" lon="13.2810751"><ele>837.0</ele><time>2026-05-02T15:35:00.602Z</time></trkpt><trkpt lat="42.1779755" lon="13.2811775"><ele>837.5</ele><time>2026-05-02T15:35:01.602Z</time></trkpt><trkpt lat="42.1780116" lon="13.2812868"><ele>838.0</ele><time>2026-05-02T15:35:02.603Z</time></trkpt><trkpt lat="42.1780542" lon="13.2813776"><ele>838.5000000000001</ele><time>2026-05-02T15:35:03.602Z</time></trkpt><trkpt lat="42.1781005" lon="13.2814497"><ele>839.0</ele><time>2026-05-02T15:35:04.602Z</time></trkpt><trkpt lat="42.1781552" lon="13.2815172"><ele>839.3333333333334</ele><time>2026-05-02T15:35:05.602Z</time></trkpt><trkpt lat="42.1782161" lon="13.2815737"><ele>839.6666666666667</ele><time>2026-05-02T15:35:06.603Z</time></trkpt><trkpt lat="42.1782798" lon="13.2816288"><ele>840.0</ele><time>2026-05-02T15:35:07.603Z</time></trkpt><trkpt lat="42.1783456" lon="13.2816867"><ele>840.3333333333333</ele><time>2026-05-02T15:35:08.602Z</time></trkpt><trkpt lat="42.1784095" lon="13.281736"><ele>840.6666666666666</ele><time>2026-05-02T15:35:09.602Z</time></trkpt><trkpt lat="42.1784694" lon="13.2817731"><ele>841.0</ele><time>2026-05-02T15:35:10.602Z</time></trkpt><trkpt lat="42.1785841" lon="13.2818052"><ele>841.0</ele><time>2026-05-02T15:35:12.603Z</time></trkpt><trkpt lat="42.1786893" lon="13.2817928"><ele>841.0</ele><time>2026-05-02T15:35:14.602Z</time></trkpt><trkpt lat="42.1787833" lon="13.2817453"><ele>841.0</ele><time>2026-05-02T15:35:16.602Z</time></trkpt><trkpt lat="42.1788754" lon="13.281669"><ele>841.0</ele><time>2026-05-02T15:35:18.602Z</time></trkpt><trkpt lat="42.1789655" lon="13.2815998"><ele>841.0</ele><time>2026-05-02T15:35:20.603Z</time></trkpt><trkpt lat="42.1790486" lon="13.2815575"><ele>839.8333333333333</ele><time>2026-05-02T15:35:22.603Z</time></trkpt><trkpt lat="42.1791171" lon="13.2815588"><ele>838.6666666666666</ele><time>2026-05-02T15:35:24.603Z</time></trkpt><trkpt lat="42.1791812" lon="13.281611"><ele>837.5</ele><time>2026-05-02T15:35:26.602Z</time></trkpt><trkpt lat="42.1792299" lon="13.2817089"><ele>836.3333333333333</ele><time>2026-05-02T15:35:28.602Z</time></trkpt><trkpt lat="42.1792885" lon="13.2817983"><ele>835.1666666666666</ele><time>2026-05-02T15:35:30.602Z</time></trkpt><trkpt lat="42.1793738" lon="13.2817971"><ele>834.0</ele><time>2026-05-02T15:35:33.602Z</time></trkpt><trkpt lat="42.1794141" lon="13.2817183"><ele>834.0</ele><time>2026-05-02T15:35:35.607Z</time></trkpt><trkpt lat="42.1794466" lon="13.2815936"><ele>834.0</ele><time>2026-05-02T15:35:37.603Z</time></trkpt><trkpt lat="42.1795073" lon="13.2814812"><ele>834.0</ele><time>2026-05-02T15:35:39.602Z</time></trkpt><trkpt lat="42.1795714" lon="13.2814173"><ele>834.0</ele><time>2026-05-02T15:35:41.602Z</time></trkpt><trkpt lat="42.1796511" lon="13.2812618"><ele>834.0</ele><time>2026-05-02T15:35:43.603Z</time></trkpt><trkpt lat="42.1796941" lon="13.2811399"><ele>833.0</ele><time>2026-05-02T15:35:44.602Z</time></trkpt><trkpt lat="42.1797447" lon="13.281011"><ele>832.0</ele><time>2026-05-02T15:35:45.603Z</time></trkpt><trkpt lat="42.1798063" lon="13.2808772"><ele>831.0</ele><time>2026-05-02T15:35:46.602Z</time></trkpt><trkpt lat="42.1798742" lon="13.280735"><ele>830.0</ele><time>2026-05-02T15:35:47.602Z</time></trkpt><trkpt lat="42.1799459" lon="13.2805874"><ele>828.3333333333334</ele><time>2026-05-02T15:35:48.602Z</time></trkpt><trkpt lat="42.1800329" lon="13.2804284"><ele>826.6666666666667</ele><time>2026-05-02T15:35:49.602Z</time></trkpt><trkpt lat="42.1801309" lon="13.2802661"><ele>825.0</ele><time>2026-05-02T15:35:50.602Z</time></trkpt><trkpt lat="42.1802409" lon="13.2801109"><ele>825.0</ele><time>2026-05-02T15:35:51.602Z</time></trkpt><trkpt lat="42.1803669" lon="13.2799823"><ele>825.0</ele><time>2026-05-02T15:35:52.602Z</time></trkpt><trkpt lat="42.1804925" lon="13.279856"><ele>825.0</ele><time>2026-05-02T15:35:53.602Z</time></trkpt><trkpt lat="42.1805973" lon="13.279732"><ele>824.3333333333334</ele><time>2026-05-02T15:35:54.603Z</time></trkpt><trkpt lat="42.180654" lon="13.2796571"><ele>823.6666666666667</ele><time>2026-05-02T15:35:55.603Z</time></trkpt><trkpt lat="42.1806855" lon="13.2795691"><ele>823.0</ele><time>2026-05-02T15:35:56.602Z</time></trkpt><trkpt lat="42.180695" lon="13.2794674"><ele>822.3333333333334</ele><time>2026-05-02T15:35:57.602Z</time></trkpt><trkpt lat="42.1806791" lon="13.2793459"><ele>821.6666666666667</ele><time>2026-05-02T15:35:58.602Z</time></trkpt><trkpt lat="42.1806432" lon="13.279215"><ele>821.0</ele><time>2026-05-02T15:35:59.603Z</time></trkpt><trkpt lat="42.1806073" lon="13.2790705"><ele>820.5</ele><time>2026-05-02T15:36:00.602Z</time></trkpt><trkpt lat="42.1805874" lon="13.2789066"><ele>820.0</ele><time>2026-05-02T15:36:01.603Z</time></trkpt><trkpt lat="42.1805911" lon="13.2787223"><ele>819.5</ele><time>2026-05-02T15:36:02.603Z</time></trkpt><trkpt lat="42.1806116" lon="13.2785211"><ele>819.0</ele><time>2026-05-02T15:36:03.603Z</time></trkpt><trkpt lat="42.1806351" lon="13.2783001"><ele>818.6666666666667</ele><time>2026-05-02T15:36:04.602Z</time></trkpt><trkpt lat="42.1806639" lon="13.2780656"><ele>818.3333333333334</ele><time>2026-05-02T15:36:05.602Z</time></trkpt><trkpt lat="42.1806964" lon="13.2778275"><ele>818.0</ele><time>2026-05-02T15:36:06.603Z</time></trkpt><trkpt lat="42.1807284" lon="13.2775903"><ele>817.0</ele><time>2026-05-02T15:36:07.603Z</time></trkpt><trkpt lat="42.1807603" lon="13.2773468"><ele>816.0</ele><time>2026-05-02T15:36:08.602Z</time></trkpt><trkpt lat="42.1807976" lon="13.2771045"><ele>815.0</ele><time>2026-05-02T15:36:09.602Z</time></trkpt><trkpt lat="42.1808362" lon="13.2768656"><ele>814.3333333333334</ele><time>2026-05-02T15:36:10.602Z</time></trkpt><trkpt lat="42.1808726" lon="13.2766411"><ele>813.6666666666667</ele><time>2026-05-02T15:36:11.602Z</time></trkpt><trkpt lat="42.1809082" lon="13.2764231"><ele>813.0</ele><time>2026-05-02T15:36:12.602Z</time></trkpt><trkpt lat="42.1809396" lon="13.276209"><ele>812.3333333333333</ele><time>2026-05-02T15:36:13.602Z</time></trkpt><trkpt lat="42.1809732" lon="13.2759899"><ele>811.6666666666666</ele><time>2026-05-02T15:36:14.602Z</time></trkpt><trkpt lat="42.1810135" lon="13.2757739"><ele>811.0</ele><time>2026-05-02T15:36:15.603Z</time></trkpt><trkpt lat="42.1810581" lon="13.2755592"><ele>810.3333333333333</ele><time>2026-05-02T15:36:16.603Z</time></trkpt><trkpt lat="42.1811002" lon="13.2753488"><ele>809.6666666666667</ele><time>2026-05-02T15:36:17.602Z</time></trkpt><trkpt lat="42.1811406" lon="13.2751426"><ele>809.0</ele><time>2026-05-02T15:36:18.602Z</time></trkpt><trkpt lat="42.1811813" lon="13.2749394"><ele>808.0</ele><time>2026-05-02T15:36:19.602Z</time></trkpt><trkpt lat="42.1812226" lon="13.2747389"><ele>807.0</ele><time>2026-05-02T15:36:20.603Z</time></trkpt><trkpt lat="42.1812666" lon="13.2745445"><ele>806.0</ele><time>2026-05-02T15:36:21.602Z</time></trkpt><trkpt lat="42.1813149" lon="13.2743675"><ele>805.0</ele><time>2026-05-02T15:36:22.602Z</time></trkpt><trkpt lat="42.1813584" lon="13.2742135"><ele>804.9999999999999</ele><time>2026-05-02T15:36:23.602Z</time></trkpt><trkpt lat="42.1813885" lon="13.2740981"><ele>805.0</ele><time>2026-05-02T15:36:24.602Z</time></trkpt><trkpt lat="42.1814154" lon="13.2740109"><ele>805.0</ele><time>2026-05-02T15:36:25.603Z</time></trkpt><trkpt lat="42.1814497" lon="13.2739165"><ele>805.0</ele><time>2026-05-02T15:36:27.602Z</time></trkpt><trkpt lat="42.18153" lon="13.2738393"><ele>804.9999999999999</ele><time>2026-05-02T15:36:30.603Z</time></trkpt><trkpt lat="42.1815952" lon="13.2738234"><ele>805.0</ele><time>2026-05-02T15:36:31.602Z</time></trkpt><trkpt lat="42.1816821" lon="13.2738051"><ele>804.5</ele><time>2026-05-02T15:36:32.602Z</time></trkpt><trkpt lat="42.181791" lon="13.2737808"><ele>804.0</ele><time>2026-05-02T15:36:33.602Z</time></trkpt><trkpt lat="42.181915" lon="13.2737499"><ele>803.5</ele><time>2026-05-02T15:36:34.602Z</time></trkpt><trkpt lat="42.1820355" lon="13.2737143"><ele>803.0</ele><time>2026-05-02T15:36:35.602Z</time></trkpt><trkpt lat="42.1821781" lon="13.2736689"><ele>803.0</ele><time>2026-05-02T15:36:36.602Z</time></trkpt><trkpt lat="42.1823293" lon="13.273621"><ele>803.0</ele><time>2026-05-02T15:36:37.603Z</time></trkpt><trkpt lat="42.1824523" lon="13.2735904"><ele>803.0</ele><time>2026-05-02T15:36:38.602Z</time></trkpt><trkpt lat="42.1825511" lon="13.2735677"><ele>803.0</ele><time>2026-05-02T15:36:39.602Z</time></trkpt><trkpt lat="42.1826353" lon="13.2735501"><ele>802.8333333333334</ele><time>2026-05-02T15:36:40.602Z</time></trkpt><trkpt lat="42.1827029" lon="13.2735371"><ele>802.6666666666667</ele><time>2026-05-02T15:36:41.602Z</time></trkpt><trkpt lat="42.1827816" lon="13.2735144"><ele>802.5</ele><time>2026-05-02T15:36:44.602Z</time></trkpt><trkpt lat="42.1827094" lon="13.2734674"><ele>802.3333333333333</ele><time>2026-05-02T15:36:48.603Z</time></trkpt><trkpt lat="42.1826373" lon="13.2734904"><ele>802.1666666666666</ele><time>2026-05-02T15:36:49.602Z</time></trkpt><trkpt lat="42.1825531" lon="13.2735142"><ele>802.0</ele><time>2026-05-02T15:36:50.603Z</time></trkpt><trkpt lat="42.1824408" lon="13.2735448"><ele>802.25</ele><time>2026-05-02T15:36:51.602Z</time></trkpt><trkpt lat="42.1823178" lon="13.2735797"><ele>802.5</ele><time>2026-05-02T15:36:52.602Z</time></trkpt><trkpt lat="42.1821861" lon="13.2736179"><ele>802.75</ele><time>2026-05-02T15:36:53.602Z</time></trkpt><trkpt lat="42.1820565" lon="13.2736501"><ele>803.0</ele><time>2026-05-02T15:36:54.603Z</time></trkpt><trkpt lat="42.1819356" lon="13.2736806"><ele>803.0</ele><time>2026-05-02T15:36:55.603Z</time></trkpt><trkpt lat="42.1818233" lon="13.273714"><ele>803.0</ele><time>2026-05-02T15:36:56.603Z</time></trkpt><trkpt lat="42.1817206" lon="13.2737459"><ele>803.0</ele><time>2026-05-02T15:36:57.602Z</time></trkpt><trkpt lat="42.1816246" lon="13.2737732"><ele>803.0</ele><time>2026-05-02T15:36:58.603Z</time></trkpt><trkpt lat="42.1815368" lon="13.2737981"><ele>803.0</ele><time>2026-05-02T15:36:59.602Z</time></trkpt><trkpt lat="42.1814439" lon="13.2737857"><ele>803.0000000000001</ele><time>2026-05-02T15:37:01.602Z</time></trkpt><trkpt lat="42.1814708" lon="13.2737056"><ele>803.0</ele><time>2026-05-02T15:37:05.602Z</time></trkpt><trkpt lat="42.1815685" lon="13.2736598"><ele>803.0</ele><time>2026-05-02T15:37:07.602Z</time></trkpt><trkpt lat="42.1816275" lon="13.2736124"><ele>803.0</ele><time>2026-05-02T15:37:08.602Z</time></trkpt><trkpt lat="42.1816827" lon="13.2735539"><ele>803.0000000000001</ele><time>2026-05-02T15:37:09.603Z</time></trkpt><trkpt lat="42.1817381" lon="13.2734839"><ele>803.0</ele><time>2026-05-02T15:37:10.603Z</time></trkpt><trkpt lat="42.1817915" lon="13.2734122"><ele>802.9999999999999</ele><time>2026-05-02T15:37:11.603Z</time></trkpt><trkpt lat="42.1818437" lon="13.273335"><ele>803.0</ele><time>2026-05-02T15:37:12.602Z</time></trkpt><trkpt lat="42.1818891" lon="13.2732602"><ele>803.0</ele><time>2026-05-02T15:37:13.603Z</time></trkpt><trkpt lat="42.1819341" lon="13.27319"><ele>803.0</ele><time>2026-05-02T15:37:14.602Z</time></trkpt><trkpt lat="42.1819811" lon="13.2731201"><ele>803.0</ele><time>2026-05-02T15:37:15.602Z</time></trkpt><trkpt lat="42.1820229" lon="13.2730499"><ele>802.9999999999999</ele><time>2026-05-02T15:37:16.602Z</time></trkpt><trkpt lat="42.18206" lon="13.2729797"><ele>803.0</ele><time>2026-05-02T15:37:17.603Z</time></trkpt><trkpt lat="42.1821498" lon="13.2728545"><ele>802.8333333333334</ele><time>2026-05-02T15:37:19.602Z</time></trkpt><trkpt lat="42.182202" lon="13.2727895"><ele>802.6666666666667</ele><time>2026-05-02T15:37:20.603Z</time></trkpt><trkpt lat="42.1822622" lon="13.2727281"><ele>802.5</ele><time>2026-05-02T15:37:21.602Z</time></trkpt><trkpt lat="42.1823281" lon="13.2726763"><ele>802.3333333333333</ele><time>2026-05-02T15:37:22.603Z</time></trkpt><trkpt lat="42.1823982" lon="13.2726234"><ele>802.1666666666666</ele><time>2026-05-02T15:37:23.603Z</time></trkpt><trkpt lat="42.1824679" lon="13.2725585"><ele>802.0</ele><time>2026-05-02T15:37:24.603Z</time></trkpt><trkpt lat="42.1825311" lon="13.2724767"><ele>802.0</ele><time>2026-05-02T15:37:25.603Z</time></trkpt><trkpt lat="42.1825873" lon="13.2723877"><ele>802.0</ele><time>2026-05-02T15:37:26.603Z</time></trkpt><trkpt lat="42.1826425" lon="13.2722939"><ele>802.0</ele><time>2026-05-02T15:37:27.602Z</time></trkpt><trkpt lat="42.1827067" lon="13.2722027"><ele>802.0</ele><time>2026-05-02T15:37:28.603Z</time></trkpt><trkpt lat="42.1827751" lon="13.2721058"><ele>802.0</ele><time>2026-05-02T15:37:29.602Z</time></trkpt><trkpt lat="42.1828364" lon="13.2720117"><ele>801.9999999999999</ele><time>2026-05-02T15:37:30.603Z</time></trkpt><trkpt lat="42.1828957" lon="13.2719173"><ele>802.0</ele><time>2026-05-02T15:37:31.602Z</time></trkpt><trkpt lat="42.1829486" lon="13.2718278"><ele>802.0</ele><time>2026-05-02T15:37:32.603Z</time></trkpt><trkpt lat="42.1829962" lon="13.2717389"><ele>802.0</ele><time>2026-05-02T15:37:33.602Z</time></trkpt><trkpt lat="42.1830383" lon="13.2716513"><ele>801.9999999999999</ele><time>2026-05-02T15:37:34.602Z</time></trkpt><trkpt lat="42.1830773" lon="13.2715591"><ele>802.0</ele><time>2026-05-02T15:37:35.602Z</time></trkpt><trkpt lat="42.1831125" lon="13.2714571"><ele>802.1428571428571</ele><time>2026-05-02T15:37:36.602Z</time></trkpt><trkpt lat="42.1831482" lon="13.2713545"><ele>802.2857142857143</ele><time>2026-05-02T15:37:37.603Z</time></trkpt><trkpt lat="42.1831904" lon="13.2712637"><ele>802.4285714285713</ele><time>2026-05-02T15:37:38.602Z</time></trkpt><trkpt lat="42.1832343" lon="13.2711845"><ele>802.5714285714286</ele><time>2026-05-02T15:37:39.602Z</time></trkpt><trkpt lat="42.1832817" lon="13.2711151"><ele>802.7142857142857</ele><time>2026-05-02T15:37:40.602Z</time></trkpt><trkpt lat="42.1833303" lon="13.2710539"><ele>802.8571428571428</ele><time>2026-05-02T15:37:41.602Z</time></trkpt><trkpt lat="42.1833811" lon="13.2710016"><ele>803.0</ele><time>2026-05-02T15:37:42.602Z</time></trkpt><trkpt lat="42.183439" lon="13.2709678"><ele>802.5000000000001</ele><time>2026-05-02T15:37:43.602Z</time></trkpt><trkpt lat="42.1835036" lon="13.2709526"><ele>802.0</ele><time>2026-05-02T15:37:44.602Z</time></trkpt><trkpt lat="42.1835752" lon="13.2709427"><ele>801.5</ele><time>2026-05-02T15:37:45.603Z</time></trkpt><trkpt lat="42.1836543" lon="13.270941"><ele>801.0</ele><time>2026-05-02T15:37:46.603Z</time></trkpt><trkpt lat="42.1837386" lon="13.2709475"><ele>800.5000000000001</ele><time>2026-05-02T15:37:47.602Z</time></trkpt><trkpt lat="42.1838206" lon="13.27095"><ele>800.0</ele><time>2026-05-02T15:37:48.602Z</time></trkpt><trkpt lat="42.1839043" lon="13.270943"><ele>800.0000000000001</ele><time>2026-05-02T15:37:49.602Z</time></trkpt><trkpt lat="42.1839898" lon="13.2709298"><ele>800.0</ele><time>2026-05-02T15:37:50.603Z</time></trkpt><trkpt lat="42.184071" lon="13.2709183"><ele>800.0</ele><time>2026-05-02T15:37:51.602Z</time></trkpt><trkpt lat="42.1841497" lon="13.2709102"><ele>800.0</ele><time>2026-05-02T15:37:52.602Z</time></trkpt><trkpt lat="42.1842256" lon="13.2708978"><ele>800.0000000000001</ele><time>2026-05-02T15:37:53.602Z</time></trkpt><trkpt lat="42.1842958" lon="13.2708753"><ele>800.0</ele><time>2026-05-02T15:37:54.603Z</time></trkpt><trkpt lat="42.1843614" lon="13.2708442"><ele>800.0000000000001</ele><time>2026-05-02T15:37:55.603Z</time></trkpt><trkpt lat="42.1844296" lon="13.2708013"><ele>800.0</ele><time>2026-05-02T15:37:56.602Z</time></trkpt><trkpt lat="42.1844998" lon="13.2707507"><ele>800.0</ele><time>2026-05-02T15:37:57.602Z</time></trkpt><trkpt lat="42.1845747" lon="13.2706972"><ele>800.0</ele><time>2026-05-02T15:37:58.602Z</time></trkpt><trkpt lat="42.1846487" lon="13.2706364"><ele>800.0000000000001</ele><time>2026-05-02T15:37:59.602Z</time></trkpt><trkpt lat="42.1847208" lon="13.2705677"><ele>800.0</ele><time>2026-05-02T15:38:00.603Z</time></trkpt><trkpt lat="42.1847942" lon="13.2704928"><ele>800.4</ele><time>2026-05-02T15:38:01.602Z</time></trkpt><trkpt lat="42.1848729" lon="13.2704139"><ele>800.8</ele><time>2026-05-02T15:38:02.603Z</time></trkpt><trkpt lat="42.1849537" lon="13.270336"><ele>801.2</ele><time>2026-05-02T15:38:03.603Z</time></trkpt><trkpt lat="42.1850336" lon="13.2702568"><ele>801.6</ele><time>2026-05-02T15:38:04.603Z</time></trkpt><trkpt lat="42.1851115" lon="13.2701824"><ele>802.0</ele><time>2026-05-02T15:38:05.602Z</time></trkpt><trkpt lat="42.1851876" lon="13.270112"><ele>802.0</ele><time>2026-05-02T15:38:06.603Z</time></trkpt><trkpt lat="42.1852714" lon="13.2700456"><ele>802.0</ele><time>2026-05-02T15:38:07.602Z</time></trkpt><trkpt lat="42.1853632" lon="13.2699777"><ele>802.0</ele><time>2026-05-02T15:38:08.603Z</time></trkpt><trkpt lat="42.1854565" lon="13.2699092"><ele>802.0</ele><time>2026-05-02T15:38:09.602Z</time></trkpt><trkpt lat="42.1855472" lon="13.2698449"><ele>802.0</ele><time>2026-05-02T15:38:10.602Z</time></trkpt><trkpt lat="42.1856387" lon="13.2697823"><ele>802.2</ele><time>2026-05-02T15:38:11.602Z</time></trkpt><trkpt lat="42.1857334" lon="13.269719"><ele>802.4000000000001</ele><time>2026-05-02T15:38:12.602Z</time></trkpt><trkpt lat="42.1858219" lon="13.2696608"><ele>802.5999999999999</ele><time>2026-05-02T15:38:13.603Z</time></trkpt><trkpt lat="42.1859022" lon="13.2696067"><ele>802.8</ele><time>2026-05-02T15:38:14.602Z</time></trkpt><trkpt lat="42.1859826" lon="13.2695531"><ele>803.0</ele><time>2026-05-02T15:38:15.602Z</time></trkpt><trkpt lat="42.1860644" lon="13.2695032"><ele>803.0</ele><time>2026-05-02T15:38:16.602Z</time></trkpt><trkpt lat="42.1861448" lon="13.2694458"><ele>803.0</ele><time>2026-05-02T15:38:17.603Z</time></trkpt><trkpt lat="42.186227" lon="13.2693885"><ele>803.0</ele><time>2026-05-02T15:38:18.602Z</time></trkpt><trkpt lat="42.1863097" lon="13.2693425"><ele>803.0</ele><time>2026-05-02T15:38:19.602Z</time></trkpt><trkpt lat="42.1863921" lon="13.2692953"><ele>803.0</ele><time>2026-05-02T15:38:20.602Z</time></trkpt><trkpt lat="42.1864736" lon="13.269246"><ele>803.0000000000001</ele><time>2026-05-02T15:38:21.602Z</time></trkpt><trkpt lat="42.186557" lon="13.2692007"><ele>803.0</ele><time>2026-05-02T15:38:22.602Z</time></trkpt><trkpt lat="42.1866416" lon="13.2691561"><ele>803.0</ele><time>2026-05-02T15:38:23.603Z</time></trkpt><trkpt lat="42.1867236" lon="13.269107"><ele>803.0</ele><time>2026-05-02T15:38:24.602Z</time></trkpt><trkpt lat="42.1868003" lon="13.269048"><ele>803.0000000000001</ele><time>2026-05-02T15:38:25.602Z</time></trkpt><trkpt lat="42.186876" lon="13.2689813"><ele>803.0</ele><time>2026-05-02T15:38:26.602Z</time></trkpt><trkpt lat="42.1869492" lon="13.2689142"><ele>802.8333333333334</ele><time>2026-05-02T15:38:27.602Z</time></trkpt><trkpt lat="42.1870204" lon="13.2688479"><ele>802.6666666666667</ele><time>2026-05-02T15:38:28.603Z</time></trkpt><trkpt lat="42.1870875" lon="13.2687831"><ele>802.5</ele><time>2026-05-02T15:38:29.603Z</time></trkpt><trkpt lat="42.1871545" lon="13.2687164"><ele>802.3333333333333</ele><time>2026-05-02T15:38:30.602Z</time></trkpt><trkpt lat="42.1872278" lon="13.268652"><ele>802.1666666666666</ele><time>2026-05-02T15:38:31.603Z</time></trkpt><trkpt lat="42.1873029" lon="13.2685941"><ele>802.0</ele><time>2026-05-02T15:38:32.602Z</time></trkpt><trkpt lat="42.1873765" lon="13.268537"><ele>801.9999999999999</ele><time>2026-05-02T15:38:33.602Z</time></trkpt><trkpt lat="42.1874515" lon="13.2684796"><ele>802.0</ele><time>2026-05-02T15:38:34.602Z</time></trkpt><trkpt lat="42.187525" lon="13.2684238"><ele>802.0</ele><time>2026-05-02T15:38:35.603Z</time></trkpt><trkpt lat="42.1875961" lon="13.2683709"><ele>802.0</ele><time>2026-05-02T15:38:36.602Z</time></trkpt><trkpt lat="42.187667" lon="13.2683142"><ele>801.9999999999999</ele><time>2026-05-02T15:38:37.602Z</time></trkpt><trkpt lat="42.1877361" lon="13.2682564"><ele>802.0</ele><time>2026-05-02T15:38:38.602Z</time></trkpt><trkpt lat="42.1877993" lon="13.2682045"><ele>802.0</ele><time>2026-05-02T15:38:39.602Z</time></trkpt><trkpt lat="42.1878589" lon="13.2681557"><ele>802.0</ele><time>2026-05-02T15:38:40.602Z</time></trkpt><trkpt lat="42.1879183" lon="13.2681081"><ele>802.0</ele><time>2026-05-02T15:38:41.602Z</time></trkpt><trkpt lat="42.1880182" lon="13.2680196"><ele>802.0</ele><time>2026-05-02T15:38:43.602Z</time></trkpt><trkpt lat="42.1881038" lon="13.2679495"><ele>802.0</ele><time>2026-05-02T15:38:45.602Z</time></trkpt><trkpt lat="42.1882084" lon="13.2679046"><ele>802.4999999999999</ele><time>2026-05-02T15:38:47.602Z</time></trkpt><trkpt lat="42.1882756" lon="13.267885"><ele>803.0</ele><time>2026-05-02T15:38:48.602Z</time></trkpt><trkpt lat="42.18835" lon="13.2678666"><ele>803.5</ele><time>2026-05-02T15:38:49.602Z</time></trkpt><trkpt lat="42.1884259" lon="13.2678408"><ele>804.0</ele><time>2026-05-02T15:38:50.602Z</time></trkpt><trkpt lat="42.1884985" lon="13.2678101"><ele>804.4999999999999</ele><time>2026-05-02T15:38:51.602Z</time></trkpt><trkpt lat="42.1885735" lon="13.2677803"><ele>805.0</ele><time>2026-05-02T15:38:52.602Z</time></trkpt><trkpt lat="42.1886507" lon="13.2677486"><ele>804.9999999999999</ele><time>2026-05-02T15:38:53.602Z</time></trkpt><trkpt lat="42.1887227" lon="13.2677165"><ele>805.0</ele><time>2026-05-02T15:38:54.602Z</time></trkpt><trkpt lat="42.1887863" lon="13.2676822"><ele>805.0</ele><time>2026-05-02T15:38:55.602Z</time></trkpt><trkpt lat="42.1888429" lon="13.2676436"><ele>805.0</ele><time>2026-05-02T15:38:56.602Z</time></trkpt><trkpt lat="42.1888972" lon="13.2675983"><ele>804.9999999999999</ele><time>2026-05-02T15:38:57.602Z</time></trkpt><trkpt lat="42.1890027" lon="13.2675118"><ele>805.0</ele><time>2026-05-02T15:38:59.602Z</time></trkpt><trkpt lat="42.1891129" lon="13.2674433"><ele>805.1666666666666</ele><time>2026-05-02T15:39:01.602Z</time></trkpt><trkpt lat="42.1892223" lon="13.2673609"><ele>805.3333333333333</ele><time>2026-05-02T15:39:03.602Z</time></trkpt><trkpt lat="42.1892823" lon="13.267313"><ele>805.5</ele><time>2026-05-02T15:39:04.602Z</time></trkpt><trkpt lat="42.1893469" lon="13.2672589"><ele>805.6666666666667</ele><time>2026-05-02T15:39:05.603Z</time></trkpt><trkpt lat="42.1894148" lon="13.2671964"><ele>805.8333333333334</ele><time>2026-05-02T15:39:06.603Z</time></trkpt><trkpt lat="42.1894875" lon="13.2671255"><ele>806.0</ele><time>2026-05-02T15:39:07.602Z</time></trkpt><trkpt lat="42.189565" lon="13.2670494"><ele>805.5999999999999</ele><time>2026-05-02T15:39:08.603Z</time></trkpt><trkpt lat="42.1896416" lon="13.2669699"><ele>805.2</ele><time>2026-05-02T15:39:09.603Z</time></trkpt><trkpt lat="42.1897178" lon="13.2668915"><ele>804.8</ele><time>2026-05-02T15:39:10.602Z</time></trkpt><trkpt lat="42.1897974" lon="13.2668189"><ele>804.4000000000001</ele><time>2026-05-02T15:39:11.603Z</time></trkpt><trkpt lat="42.1898791" lon="13.2667514"><ele>804.0</ele><time>2026-05-02T15:39:12.603Z</time></trkpt><trkpt lat="42.1899572" lon="13.2666927"><ele>804.3333333333334</ele><time>2026-05-02T15:39:13.602Z</time></trkpt><trkpt lat="42.1900311" lon="13.2666438"><ele>804.6666666666667</ele><time>2026-05-02T15:39:14.603Z</time></trkpt><trkpt lat="42.1901019" lon="13.2666009"><ele>805.0</ele><time>2026-05-02T15:39:15.602Z</time></trkpt><trkpt lat="42.1901749" lon="13.2665613"><ele>805.3333333333334</ele><time>2026-05-02T15:39:16.603Z</time></trkpt><trkpt lat="42.1902488" lon="13.2665247"><ele>805.6666666666667</ele><time>2026-05-02T15:39:17.603Z</time></trkpt><trkpt lat="42.1903133" lon="13.2664824"><ele>806.0</ele><time>2026-05-02T15:39:18.602Z</time></trkpt><trkpt lat="42.1903699" lon="13.2664253"><ele>806.0000000000001</ele><time>2026-05-02T15:39:19.603Z</time></trkpt><trkpt lat="42.190425" lon="13.2663537"><ele>806.0</ele><time>2026-05-02T15:39:20.603Z</time></trkpt><trkpt lat="42.1904836" lon="13.2662817"><ele>806.0</ele><time>2026-05-02T15:39:21.602Z</time></trkpt><trkpt lat="42.190547" lon="13.2662158"><ele>806.0</ele><time>2026-05-02T15:39:22.603Z</time></trkpt><trkpt lat="42.1906162" lon="13.2661487"><ele>806.0000000000001</ele><time>2026-05-02T15:39:23.602Z</time></trkpt><trkpt lat="42.1906878" lon="13.26608"><ele>806.0</ele><time>2026-05-02T15:39:24.602Z</time></trkpt><trkpt lat="42.1907586" lon="13.2660053"><ele>806.1666666666667</ele><time>2026-05-02T15:39:25.602Z</time></trkpt><trkpt lat="42.1908248" lon="13.2659217"><ele>806.3333333333334</ele><time>2026-05-02T15:39:26.602Z</time></trkpt><trkpt lat="42.1908868" lon="13.2658376"><ele>806.5</ele><time>2026-05-02T15:39:27.602Z</time></trkpt><trkpt lat="42.190947" lon="13.2657543"><ele>806.6666666666667</ele><time>2026-05-02T15:39:28.603Z</time></trkpt><trkpt lat="42.1910078" lon="13.2656702"><ele>806.8333333333334</ele><time>2026-05-02T15:39:29.602Z</time></trkpt><trkpt lat="42.1910689" lon="13.2655863"><ele>807.0</ele><time>2026-05-02T15:39:30.603Z</time></trkpt><trkpt lat="42.1911371" lon="13.2655036"><ele>807.0</ele><time>2026-05-02T15:39:31.602Z</time></trkpt><trkpt lat="42.1912168" lon="13.2654189"><ele>807.0</ele><time>2026-05-02T15:39:32.603Z</time></trkpt><trkpt lat="42.1913008" lon="13.2653256"><ele>807.0</ele><time>2026-05-02T15:39:33.602Z</time></trkpt><trkpt lat="42.1913757" lon="13.2652238"><ele>807.0</ele><time>2026-05-02T15:39:34.602Z</time></trkpt><trkpt lat="42.1914424" lon="13.2651137"><ele>807.0</ele><time>2026-05-02T15:39:35.603Z</time></trkpt><trkpt lat="42.1915013" lon="13.2650104"><ele>807.3333333333334</ele><time>2026-05-02T15:39:36.602Z</time></trkpt><trkpt lat="42.1915543" lon="13.2649188"><ele>807.6666666666667</ele><time>2026-05-02T15:39:37.603Z</time></trkpt><trkpt lat="42.191608" lon="13.2648337"><ele>808.0</ele><time>2026-05-02T15:39:38.602Z</time></trkpt><trkpt lat="42.1916657" lon="13.2647601"><ele>808.3333333333334</ele><time>2026-05-02T15:39:39.603Z</time></trkpt><trkpt lat="42.1917271" lon="13.2647006"><ele>808.6666666666667</ele><time>2026-05-02T15:39:40.602Z</time></trkpt><trkpt lat="42.1917937" lon="13.2646495"><ele>809.0</ele><time>2026-05-02T15:39:41.602Z</time></trkpt><trkpt lat="42.1918643" lon="13.2645995"><ele>809.0000000000001</ele><time>2026-05-02T15:39:42.602Z</time></trkpt><trkpt lat="42.1919294" lon="13.2645489"><ele>809.0</ele><time>2026-05-02T15:39:43.602Z</time></trkpt><trkpt lat="42.1919929" lon="13.2644989"><ele>809.0</ele><time>2026-05-02T15:39:44.602Z</time></trkpt><trkpt lat="42.1920597" lon="13.264452"><ele>809.0</ele><time>2026-05-02T15:39:45.603Z</time></trkpt><trkpt lat="42.1921344" lon="13.2644073"><ele>809.0000000000001</ele><time>2026-05-02T15:39:46.603Z</time></trkpt><trkpt lat="42.1922174" lon="13.2643672"><ele>809.0</ele><time>2026-05-02T15:39:47.602Z</time></trkpt><trkpt lat="42.1923027" lon="13.2643282"><ele>809.8000000000001</ele><time>2026-05-02T15:39:48.602Z</time></trkpt><trkpt lat="42.1923853" lon="13.264291"><ele>810.6</ele><time>2026-05-02T15:39:49.603Z</time></trkpt><trkpt lat="42.1924689" lon="13.2642527"><ele>811.4</ele><time>2026-05-02T15:39:50.603Z</time></trkpt><trkpt lat="42.1925544" lon="13.2642055"><ele>812.2</ele><time>2026-05-02T15:39:51.602Z</time></trkpt><trkpt lat="42.1926403" lon="13.2641491"><ele>813.0</ele><time>2026-05-02T15:39:52.602Z</time></trkpt><trkpt lat="42.1927282" lon="13.2640935"><ele>813.0</ele><time>2026-05-02T15:39:53.602Z</time></trkpt><trkpt lat="42.1928218" lon="13.2640419"><ele>813.0</ele><time>2026-05-02T15:39:54.603Z</time></trkpt><trkpt lat="42.1929172" lon="13.2639912"><ele>813.0</ele><time>2026-05-02T15:39:55.602Z</time></trkpt><trkpt lat="42.193012" lon="13.2639402"><ele>813.0</ele><time>2026-05-02T15:39:56.603Z</time></trkpt><trkpt lat="42.1931041" lon="13.2638884"><ele>813.0</ele><time>2026-05-02T15:39:57.602Z</time></trkpt><trkpt lat="42.1931955" lon="13.2638271"><ele>813.2</ele><time>2026-05-02T15:39:58.602Z</time></trkpt><trkpt lat="42.19329" lon="13.2637571"><ele>813.4</ele><time>2026-05-02T15:39:59.602Z</time></trkpt><trkpt lat="42.1933842" lon="13.263685"><ele>813.6</ele><time>2026-05-02T15:40:00.602Z</time></trkpt><trkpt lat="42.1934751" lon="13.2636111"><ele>813.8000000000001</ele><time>2026-05-02T15:40:01.602Z</time></trkpt><trkpt lat="42.1935667" lon="13.263533"><ele>814.0</ele><time>2026-05-02T15:40:02.603Z</time></trkpt><trkpt lat="42.1936576" lon="13.2634515"><ele>814.0</ele><time>2026-05-02T15:40:03.602Z</time></trkpt><trkpt lat="42.1937442" lon="13.2633769"><ele>814.0</ele><time>2026-05-02T15:40:04.602Z</time></trkpt><trkpt lat="42.1938313" lon="13.2633079"><ele>814.0</ele><time>2026-05-02T15:40:05.602Z</time></trkpt><trkpt lat="42.1939201" lon="13.2632413"><ele>814.0</ele><time>2026-05-02T15:40:06.603Z</time></trkpt><trkpt lat="42.194007" lon="13.2631824"><ele>814.0</ele><time>2026-05-02T15:40:07.602Z</time></trkpt><trkpt lat="42.1940877" lon="13.2631255"><ele>814.1666666666666</ele><time>2026-05-02T15:40:08.602Z</time></trkpt><trkpt lat="42.1941616" lon="13.2630669"><ele>814.3333333333333</ele><time>2026-05-02T15:40:09.602Z</time></trkpt><trkpt lat="42.1942319" lon="13.2630213"><ele>814.5</ele><time>2026-05-02T15:40:10.603Z</time></trkpt><trkpt lat="42.1943057" lon="13.2629953"><ele>814.6666666666667</ele><time>2026-05-02T15:40:11.603Z</time></trkpt><trkpt lat="42.1943785" lon="13.2629856"><ele>814.8333333333334</ele><time>2026-05-02T15:40:12.602Z</time></trkpt><trkpt lat="42.1944485" lon="13.2629787"><ele>815.0</ele><time>2026-05-02T15:40:13.602Z</time></trkpt><trkpt lat="42.1945152" lon="13.2629652"><ele>815.0</ele><time>2026-05-02T15:40:14.603Z</time></trkpt><trkpt lat="42.1945799" lon="13.262944"><ele>815.0</ele><time>2026-05-02T15:40:15.603Z</time></trkpt><trkpt lat="42.1946471" lon="13.2629135"><ele>815.0</ele><time>2026-05-02T15:40:16.603Z</time></trkpt><trkpt lat="42.1947141" lon="13.2628832"><ele>815.0</ele><time>2026-05-02T15:40:17.602Z</time></trkpt><trkpt lat="42.1947785" lon="13.2628608"><ele>815.0</ele><time>2026-05-02T15:40:18.602Z</time></trkpt><trkpt lat="42.1948433" lon="13.2628466"><ele>815.0</ele><time>2026-05-02T15:40:19.602Z</time></trkpt><trkpt lat="42.1949109" lon="13.2628381"><ele>815.0</ele><time>2026-05-02T15:40:20.602Z</time></trkpt><trkpt lat="42.1949854" lon="13.2628426"><ele>815.0000000000001</ele><time>2026-05-02T15:40:21.602Z</time></trkpt><trkpt lat="42.1950572" lon="13.2628599"><ele>815.0</ele><time>2026-05-02T15:40:22.603Z</time></trkpt><trkpt lat="42.1951344" lon="13.2628857"><ele>815.0</ele><time>2026-05-02T15:40:23.602Z</time></trkpt><trkpt lat="42.1952031" lon="13.2629143"><ele>815.0</ele><time>2026-05-02T15:40:24.602Z</time></trkpt><trkpt lat="42.1952659" lon="13.2629432"><ele>815.0000000000001</ele><time>2026-05-02T15:40:25.602Z</time></trkpt><trkpt lat="42.1953721" lon="13.2629842"><ele>815.0</ele><time>2026-05-02T15:40:27.602Z</time></trkpt><trkpt lat="42.1954581" lon="13.2629499"><ele>815.0</ele><time>2026-05-02T15:40:29.602Z</time></trkpt><trkpt lat="42.1955447" lon="13.262828"><ele>815.0</ele><time>2026-05-02T15:40:31.603Z</time></trkpt><trkpt lat="42.195586" lon="13.2627304"><ele>815.0</ele><time>2026-05-02T15:40:32.602Z</time></trkpt><trkpt lat="42.1956334" lon="13.2626101"><ele>815.0</ele><time>2026-05-02T15:40:33.602Z</time></trkpt><trkpt lat="42.1956795" lon="13.2624814"><ele>815.0</ele><time>2026-05-02T15:40:34.602Z</time></trkpt><trkpt lat="42.1957258" lon="13.2623465"><ele>815.0</ele><time>2026-05-02T15:40:35.603Z</time></trkpt><trkpt lat="42.1957773" lon="13.262216"><ele>815.0</ele><time>2026-05-02T15:40:36.602Z</time></trkpt><trkpt lat="42.1958357" lon="13.2620866"><ele>815.0</ele><time>2026-05-02T15:40:37.602Z</time></trkpt><trkpt lat="42.1958834" lon="13.2619672"><ele>815.0</ele><time>2026-05-02T15:40:38.603Z</time></trkpt><trkpt lat="42.1959308" lon="13.2618375"><ele>815.0</ele><time>2026-05-02T15:40:39.602Z</time></trkpt><trkpt lat="42.1959727" lon="13.2617017"><ele>815.0</ele><time>2026-05-02T15:40:40.603Z</time></trkpt><trkpt lat="42.1960102" lon="13.2615772"><ele>815.0</ele><time>2026-05-02T15:40:41.602Z</time></trkpt><trkpt lat="42.1960461" lon="13.2614646"><ele>815.0</ele><time>2026-05-02T15:40:42.602Z</time></trkpt><trkpt lat="42.1960852" lon="13.2613534"><ele>815.0</ele><time>2026-05-02T15:40:43.602Z</time></trkpt><trkpt lat="42.1961214" lon="13.2612339"><ele>815.0</ele><time>2026-05-02T15:40:44.602Z</time></trkpt><trkpt lat="42.1961526" lon="13.2611135"><ele>814.8333333333334</ele><time>2026-05-02T15:40:45.602Z</time></trkpt><trkpt lat="42.1961773" lon="13.2609915"><ele>814.6666666666667</ele><time>2026-05-02T15:40:46.602Z</time></trkpt><trkpt lat="42.1961966" lon="13.260877"><ele>814.5</ele><time>2026-05-02T15:40:47.602Z</time></trkpt><trkpt lat="42.1962126" lon="13.2607688"><ele>814.3333333333333</ele><time>2026-05-02T15:40:48.602Z</time></trkpt><trkpt lat="42.1962338" lon="13.2606677"><ele>814.1666666666666</ele><time>2026-05-02T15:40:49.603Z</time></trkpt><trkpt lat="42.1962607" lon="13.2605811"><ele>814.0</ele><time>2026-05-02T15:40:50.602Z</time></trkpt><trkpt lat="42.1963188" lon="13.2604718"><ele>813.4000000000001</ele><time>2026-05-02T15:40:52.603Z</time></trkpt><trkpt lat="42.1964055" lon="13.2604068"><ele>812.8</ele><time>2026-05-02T15:40:54.603Z</time></trkpt><trkpt lat="42.1965044" lon="13.2603726"><ele>812.2</ele><time>2026-05-02T15:40:56.602Z</time></trkpt><trkpt lat="42.1966095" lon="13.2603597"><ele>811.5999999999999</ele><time>2026-05-02T15:40:58.602Z</time></trkpt><trkpt lat="42.1967253" lon="13.2603674"><ele>811.0</ele><time>2026-05-02T15:41:00.603Z</time></trkpt><trkpt lat="42.1968492" lon="13.2603382"><ele>810.6666666666666</ele><time>2026-05-02T15:41:02.603Z</time></trkpt><trkpt lat="42.196912" lon="13.260319"><ele>810.3333333333333</ele><time>2026-05-02T15:41:03.602Z</time></trkpt><trkpt lat="42.1970351" lon="13.2602838"><ele>810.0</ele><time>2026-05-02T15:41:05.602Z</time></trkpt><trkpt lat="42.1971032" lon="13.2602587"><ele>809.6666666666667</ele><time>2026-05-02T15:41:06.602Z</time></trkpt><trkpt lat="42.1971755" lon="13.2602307"><ele>809.3333333333334</ele><time>2026-05-02T15:41:07.603Z</time></trkpt><trkpt lat="42.1972465" lon="13.2602057"><ele>809.0</ele><time>2026-05-02T15:41:08.603Z</time></trkpt><trkpt lat="42.1973232" lon="13.2601705"><ele>809.3333333333334</ele><time>2026-05-02T15:41:09.602Z</time></trkpt><trkpt lat="42.1973939" lon="13.2601294"><ele>809.6666666666667</ele><time>2026-05-02T15:41:10.602Z</time></trkpt><trkpt lat="42.197466" lon="13.2600849"><ele>810.0</ele><time>2026-05-02T15:41:11.602Z</time></trkpt><trkpt lat="42.1975346" lon="13.2600391"><ele>810.3333333333333</ele><time>2026-05-02T15:41:12.603Z</time></trkpt><trkpt lat="42.1976029" lon="13.2599824"><ele>810.6666666666666</ele><time>2026-05-02T15:41:13.603Z</time></trkpt><trkpt lat="42.1976716" lon="13.2599243"><ele>811.0</ele><time>2026-05-02T15:41:14.602Z</time></trkpt><trkpt lat="42.1977395" lon="13.2598629"><ele>810.9999999999999</ele><time>2026-05-02T15:41:15.602Z</time></trkpt><trkpt lat="42.197807" lon="13.2597939"><ele>811.0</ele><time>2026-05-02T15:41:16.602Z</time></trkpt><trkpt lat="42.1978761" lon="13.2597261"><ele>811.0</ele><time>2026-05-02T15:41:17.602Z</time></trkpt><trkpt lat="42.197938" lon="13.2596664"><ele>811.0</ele><time>2026-05-02T15:41:18.602Z</time></trkpt><trkpt lat="42.1979955" lon="13.2596118"><ele>810.9999999999999</ele><time>2026-05-02T15:41:19.602Z</time></trkpt><trkpt lat="42.198049" lon="13.259559"><ele>811.0</ele><time>2026-05-02T15:41:20.603Z</time></trkpt><trkpt lat="42.1981498" lon="13.2594719"><ele>811.4</ele><time>2026-05-02T15:41:22.603Z</time></trkpt><trkpt lat="42.1982476" lon="13.2594203"><ele>811.8</ele><time>2026-05-02T15:41:24.602Z</time></trkpt><trkpt lat="42.198372" lon="13.2594338"><ele>812.1999999999999</ele><time>2026-05-02T15:41:26.602Z</time></trkpt><trkpt lat="42.1984424" lon="13.2594438"><ele>812.5999999999999</ele><time>2026-05-02T15:41:27.602Z</time></trkpt><trkpt lat="42.1985183" lon="13.2594391"><ele>813.0</ele><time>2026-05-02T15:41:28.603Z</time></trkpt><trkpt lat="42.1985977" lon="13.2594149"><ele>813.0</ele><time>2026-05-02T15:41:29.603Z</time></trkpt><trkpt lat="42.1986812" lon="13.2593771"><ele>813.0</ele><time>2026-05-02T15:41:30.602Z</time></trkpt><trkpt lat="42.1987697" lon="13.2593294"><ele>813.0</ele><time>2026-05-02T15:41:31.602Z</time></trkpt><trkpt lat="42.1988662" lon="13.2592767"><ele>813.0</ele><time>2026-05-02T15:41:32.602Z</time></trkpt><trkpt lat="42.1989651" lon="13.2592184"><ele>813.0</ele><time>2026-05-02T15:41:33.602Z</time></trkpt><trkpt lat="42.1990601" lon="13.2591562"><ele>813.5</ele><time>2026-05-02T15:41:34.602Z</time></trkpt><trkpt lat="42.1991465" lon="13.2590963"><ele>814.0</ele><time>2026-05-02T15:41:35.602Z</time></trkpt><trkpt lat="42.1992245" lon="13.2590444"><ele>814.5</ele><time>2026-05-02T15:41:36.603Z</time></trkpt><trkpt lat="42.1992984" lon="13.2590118"><ele>815.0</ele><time>2026-05-02T15:41:37.603Z</time></trkpt><trkpt lat="42.1993764" lon="13.259005"><ele>815.5</ele><time>2026-05-02T15:41:38.602Z</time></trkpt><trkpt lat="42.1994668" lon="13.259018"><ele>816.0</ele><time>2026-05-02T15:41:39.602Z</time></trkpt><trkpt lat="42.1995582" lon="13.2590448"><ele>816.0</ele><time>2026-05-02T15:41:40.603Z</time></trkpt><trkpt lat="42.1996356" lon="13.2590829"><ele>816.0</ele><time>2026-05-02T15:41:41.602Z</time></trkpt><trkpt lat="42.1997045" lon="13.2591273"><ele>816.0</ele><time>2026-05-02T15:41:42.603Z</time></trkpt><trkpt lat="42.199763" lon="13.259174"><ele>816.0</ele><time>2026-05-02T15:41:43.602Z</time></trkpt><trkpt lat="42.1998431" lon="13.2592436"><ele>816.0</ele><time>2026-05-02T15:41:45.602Z</time></trkpt><trkpt lat="42.1999079" lon="13.2592113"><ele>816.0</ele><time>2026-05-02T15:41:48.602Z</time></trkpt><trkpt lat="42.1999168" lon="13.2591029"><ele>815.8</ele><time>2026-05-02T15:41:50.603Z</time></trkpt><trkpt lat="42.1998666" lon="13.2589367"><ele>815.5999999999999</ele><time>2026-05-02T15:41:52.602Z</time></trkpt><trkpt lat="42.1998317" lon="13.2588283"><ele>815.4</ele><time>2026-05-02T15:41:53.603Z</time></trkpt><trkpt lat="42.1997923" lon="13.2586934"><ele>815.2</ele><time>2026-05-02T15:41:54.602Z</time></trkpt><trkpt lat="42.1997478" lon="13.2585449"><ele>815.0</ele><time>2026-05-02T15:41:55.602Z</time></trkpt><trkpt lat="42.1997037" lon="13.2584046"><ele>815.0000000000001</ele><time>2026-05-02T15:41:56.602Z</time></trkpt><trkpt lat="42.1996605" lon="13.2582805"><ele>815.0</ele><time>2026-05-02T15:41:57.602Z</time></trkpt><trkpt lat="42.1996197" lon="13.2581655"><ele>815.0</ele><time>2026-05-02T15:41:58.602Z</time></trkpt><trkpt lat="42.1995901" lon="13.2580565"><ele>815.0</ele><time>2026-05-02T15:41:59.603Z</time></trkpt><trkpt lat="42.1995782" lon="13.257955"><ele>815.0000000000001</ele><time>2026-05-02T15:42:00.602Z</time></trkpt><trkpt lat="42.1995816" lon="13.2578496"><ele>815.0</ele><time>2026-05-02T15:42:01.603Z</time></trkpt><trkpt lat="42.199598" lon="13.2577364"><ele>815.3333333333334</ele><time>2026-05-02T15:42:02.602Z</time></trkpt><trkpt lat="42.1996272" lon="13.2576277"><ele>815.6666666666667</ele><time>2026-05-02T15:42:03.602Z</time></trkpt><trkpt lat="42.1996571" lon="13.2575296"><ele>816.0</ele><time>2026-05-02T15:42:04.603Z</time></trkpt><trkpt lat="42.1996865" lon="13.2574477"><ele>816.3333333333333</ele><time>2026-05-02T15:42:05.602Z</time></trkpt><trkpt lat="42.1997368" lon="13.257322"><ele>816.6666666666666</ele><time>2026-05-02T15:42:07.602Z</time></trkpt><trkpt lat="42.199826" lon="13.2572473"><ele>817.0</ele><time>2026-05-02T15:42:09.602Z</time></trkpt><trkpt lat="42.1998894" lon="13.2572001"><ele>818.6</ele><time>2026-05-02T15:42:12.602Z</time></trkpt><trkpt lat="42.1999459" lon="13.2572832"><ele>820.2</ele><time>2026-05-02T15:42:21.603Z</time></trkpt><trkpt lat="42.2000525" lon="13.257347"><ele>821.8</ele><time>2026-05-02T15:42:23.602Z</time></trkpt><trkpt lat="42.2001627" lon="13.2574074"><ele>823.4</ele><time>2026-05-02T15:42:25.602Z</time></trkpt><trkpt lat="42.2002463" lon="13.2574641"><ele>825.0</ele><time>2026-05-02T15:42:27.603Z</time></trkpt><trkpt lat="42.2003181" lon="13.2575082"><ele>825.0</ele><time>2026-05-02T15:42:29.602Z</time></trkpt><trkpt lat="42.2003866" lon="13.2575601"><ele>825.0</ele><time>2026-05-02T15:42:31.602Z</time></trkpt><trkpt lat="42.2004425" lon="13.2576156"><ele>825.0</ele><time>2026-05-02T15:42:33.602Z</time></trkpt><trkpt lat="42.2003736" lon="13.2575138"><ele>825.0</ele><time>2026-05-02T15:42:45.603Z</time></trkpt><trkpt lat="42.2002683" lon="13.2574557"><ele>825.0</ele><time>2026-05-02T15:42:47.603Z</time></trkpt><trkpt lat="42.2001644" lon="13.257403"><ele>825.0</ele><time>2026-05-02T15:42:49.603Z</time></trkpt><trkpt lat="42.2000793" lon="13.2573552"><ele>825.0</ele><time>2026-05-02T15:42:51.602Z</time></trkpt><trkpt lat="42.2000076" lon="13.2573182"><ele>825.0</ele><time>2026-05-02T15:42:53.602Z</time></trkpt><trkpt lat="42.1999265" lon="13.2572709"><ele>825.0</ele><time>2026-05-02T15:42:55.602Z</time></trkpt><trkpt lat="42.1998685" lon="13.2572103"><ele>825.0</ele><time>2026-05-02T15:42:59.603Z</time></trkpt><trkpt lat="42.1999275" lon="13.2571685"><ele>825.0</ele><time>2026-05-02T15:43:07.603Z</time></trkpt><trkpt lat="42.2000124" lon="13.2571935"><ele>825.0</ele><time>2026-05-02T15:43:09.602Z</time></trkpt><trkpt lat="42.2000971" lon="13.2572271"><ele>825.0</ele><time>2026-05-02T15:43:11.603Z</time></trkpt><trkpt lat="42.2001648" lon="13.2572587"><ele>825.0</ele><time>2026-05-02T15:43:13.602Z</time></trkpt><trkpt lat="42.200228" lon="13.2573163"><ele>825.0</ele><time>2026-05-02T15:43:15.603Z</time></trkpt><trkpt lat="42.2002928" lon="13.2573088"><ele>825.0</ele><time>2026-05-02T15:43:19.603Z</time></trkpt><trkpt lat="42.2002221" lon="13.2572602"><ele>825.0</ele><time>2026-05-02T15:43:22.603Z</time></trkpt><trkpt lat="42.2001359" lon="13.2572397"><ele>824.5</ele><time>2026-05-02T15:43:24.603Z</time></trkpt><trkpt lat="42.2000555" lon="13.2572031"><ele>824.0</ele><time>2026-05-02T15:43:26.602Z</time></trkpt><trkpt lat="42.1999757" lon="13.2571755"><ele>823.5</ele><time>2026-05-02T15:43:28.602Z</time></trkpt><trkpt lat="42.1998999" lon="13.2571583"><ele>823.0</ele><time>2026-05-02T15:43:30.603Z</time></trkpt><trkpt lat="42.1998322" lon="13.2570985"><ele>822.5</ele><time>2026-05-02T15:43:33.603Z</time></trkpt><trkpt lat="42.1997942" lon="13.257012"><ele>822.0</ele><time>2026-05-02T15:43:35.602Z</time></trkpt><trkpt lat="42.1997275" lon="13.2569101"><ele>822.0</ele><time>2026-05-02T15:43:37.602Z</time></trkpt><trkpt lat="42.1996677" lon="13.2568143"><ele>822.0</ele><time>2026-05-02T15:43:39.602Z</time></trkpt><trkpt lat="42.1996389" lon="13.2566981"><ele>822.0</ele><time>2026-05-02T15:43:42.602Z</time></trkpt><trkpt lat="42.1996999" lon="13.2566727"><ele>822.0</ele><time>2026-05-02T15:43:44.603Z</time></trkpt><trkpt lat="42.1997598" lon="13.2567046"><ele>822.0</ele><time>2026-05-02T15:43:46.602Z</time></trkpt><trkpt lat="42.19985" lon="13.2567873"><ele>822.0</ele><time>2026-05-02T15:43:48.602Z</time></trkpt><trkpt lat="42.1999051" lon="13.2568393"><ele>824.5</ele><time>2026-05-02T15:43:49.602Z</time></trkpt><trkpt lat="42.199988" lon="13.2568965"><ele>827.0</ele><time>2026-05-02T15:43:51.602Z</time></trkpt><trkpt lat="42.2000572" lon="13.256904"><ele>829.5</ele><time>2026-05-02T15:43:55.602Z</time></trkpt><trkpt lat="42.2001234" lon="13.2569046"><ele>832.0</ele><time>2026-05-02T15:43:58.602Z</time></trkpt><trkpt lat="42.2001885" lon="13.2569378"><ele>834.5</ele><time>2026-05-02T15:44:05.602Z</time></trkpt><trkpt lat="42.2002938" lon="13.2569761"><ele>837.0</ele><time>2026-05-02T15:44:07.603Z</time></trkpt><trkpt lat="42.2003647" lon="13.2569905"><ele>837.0</ele><time>2026-05-02T15:44:08.602Z</time></trkpt><trkpt lat="42.2004414" lon="13.2570033"><ele>837.0</ele><time>2026-05-02T15:44:09.603Z</time></trkpt><trkpt lat="42.2005204" lon="13.2570181"><ele>837.0</ele><time>2026-05-02T15:44:10.602Z</time></trkpt><trkpt lat="42.2006075" lon="13.2570304"><ele>837.0</ele><time>2026-05-02T15:44:11.602Z</time></trkpt><trkpt lat="42.2006955" lon="13.2570373"><ele>837.0</ele><time>2026-05-02T15:44:12.602Z</time></trkpt><trkpt lat="42.2007695" lon="13.2570455"><ele>837.0</ele><time>2026-05-02T15:44:13.602Z</time></trkpt><trkpt lat="42.2008697" lon="13.2570788"><ele>837.0</ele><time>2026-05-02T15:44:15.602Z</time></trkpt><trkpt lat="42.2009428" lon="13.2570818"><ele>837.0</ele><time>2026-05-02T15:44:18.602Z</time></trkpt><trkpt lat="42.2010302" lon="13.2571617"><ele>837.0</ele><time>2026-05-02T15:44:21.603Z</time></trkpt><trkpt lat="42.2010809" lon="13.2572409"><ele>837.0</ele><time>2026-05-02T15:44:23.602Z</time></trkpt><trkpt lat="42.2011287" lon="13.2573077"><ele>837.0</ele><time>2026-05-02T15:44:26.602Z</time></trkpt><trkpt lat="42.2011756" lon="13.2573655"><ele>837.0</ele><time>2026-05-02T15:44:28.602Z</time></trkpt><trkpt lat="42.2012277" lon="13.2574193"><ele>837.0</ele><time>2026-05-02T15:44:30.602Z</time></trkpt><trkpt lat="42.2011673" lon="13.2573409"><ele>837.0</ele><time>2026-05-02T15:44:43.603Z</time></trkpt><trkpt lat="42.201113" lon="13.2572632"><ele>837.0</ele><time>2026-05-02T15:44:46.602Z</time></trkpt><trkpt lat="42.201201" lon="13.2572498"><ele>837.0</ele><time>2026-05-02T15:44:51.603Z</time></trkpt><trkpt lat="42.201288" lon="13.2572687"><ele>837.0</ele><time>2026-05-02T15:44:53.602Z</time></trkpt><trkpt lat="42.2013688" lon="13.2572924"><ele>837.0</ele><time>2026-05-02T15:44:55.603Z</time></trkpt><trkpt lat="42.2014265" lon="13.2573307"><ele>839.2</ele><time>2026-05-02T15:44:57.602Z</time></trkpt><trkpt lat="42.2015096" lon="13.2573507"><ele>841.4000000000001</ele><time>2026-05-02T15:45:00.603Z</time></trkpt><trkpt lat="42.2015895" lon="13.2573585"><ele>843.5999999999999</ele><time>2026-05-02T15:45:02.603Z</time></trkpt><trkpt lat="42.201688" lon="13.2573607"><ele>845.8</ele><time>2026-05-02T15:45:05.602Z</time></trkpt><trkpt lat="42.2017841" lon="13.2573789"><ele>848.0</ele><time>2026-05-02T15:45:07.603Z</time></trkpt><trkpt lat="42.2018979" lon="13.2573869"><ele>848.0000000000001</ele><time>2026-05-02T15:45:09.602Z</time></trkpt><trkpt lat="42.2020014" lon="13.2573768"><ele>848.0</ele><time>2026-05-02T15:45:11.603Z</time></trkpt><trkpt lat="42.2020807" lon="13.2574023"><ele>848.0</ele><time>2026-05-02T15:45:13.602Z</time></trkpt><trkpt lat="42.2021498" lon="13.2574112"><ele>848.0</ele><time>2026-05-02T15:45:16.602Z</time></trkpt><trkpt lat="42.2020826" lon="13.2573803"><ele>848.0000000000001</ele><time>2026-05-02T15:45:26.603Z</time></trkpt><trkpt lat="42.2019864" lon="13.2573615"><ele>848.0</ele><time>2026-05-02T15:45:27.602Z</time></trkpt><trkpt lat="42.2019169" lon="13.257348"><ele>848.0</ele><time>2026-05-02T15:45:28.603Z</time></trkpt><trkpt lat="42.2018514" lon="13.257343"><ele>848.0</ele><time>2026-05-02T15:45:29.602Z</time></trkpt><trkpt lat="42.2017827" lon="13.2573424"><ele>848.0</ele><time>2026-05-02T15:45:30.602Z</time></trkpt><trkpt lat="42.2017145" lon="13.2573319"><ele>848.0</ele><time>2026-05-02T15:45:31.602Z</time></trkpt><trkpt lat="42.2016486" lon="13.2573217"><ele>848.0</ele><time>2026-05-02T15:45:32.602Z</time></trkpt><trkpt lat="42.2015835" lon="13.257321"><ele>848.0</ele><time>2026-05-02T15:45:33.602Z</time></trkpt><trkpt lat="42.2014882" lon="13.257307"><ele>848.0</ele><time>2026-05-02T15:45:35.603Z</time></trkpt><trkpt lat="42.2013892" lon="13.2572748"><ele>848.8333333333334</ele><time>2026-05-02T15:45:37.602Z</time></trkpt><trkpt lat="42.2012862" lon="13.257242"><ele>849.6666666666667</ele><time>2026-05-02T15:45:39.602Z</time></trkpt><trkpt lat="42.2011841" lon="13.2572146"><ele>850.5</ele><time>2026-05-02T15:45:41.602Z</time></trkpt><trkpt lat="42.2011099" lon="13.2571945"><ele>851.3333333333333</ele><time>2026-05-02T15:45:43.603Z</time></trkpt><trkpt lat="42.2010496" lon="13.2571581"><ele>852.1666666666666</ele><time>2026-05-02T15:45:45.602Z</time></trkpt><trkpt lat="42.2009863" lon="13.2570889"><ele>853.0</ele><time>2026-05-02T15:45:47.602Z</time></trkpt><trkpt lat="42.2009161" lon="13.2570513"><ele>852.9999999999999</ele><time>2026-05-02T15:45:56.602Z</time></trkpt><trkpt lat="42.2008141" lon="13.2570311"><ele>853.0</ele><time>2026-05-02T15:45:58.602Z</time></trkpt><trkpt lat="42.2006886" lon="13.2570135"><ele>853.0</ele><time>2026-05-02T15:46:00.602Z</time></trkpt><trkpt lat="42.2006258" lon="13.2570055"><ele>853.0</ele><time>2026-05-02T15:46:01.602Z</time></trkpt><trkpt lat="42.2005628" lon="13.2569961"><ele>852.9999999999999</ele><time>2026-05-02T15:46:02.602Z</time></trkpt><trkpt lat="42.2005001" lon="13.2569852"><ele>853.0</ele><time>2026-05-02T15:46:03.602Z</time></trkpt><trkpt lat="42.2004365" lon="13.2569766"><ele>849.0</ele><time>2026-05-02T15:46:04.602Z</time></trkpt><trkpt lat="42.2003173" lon="13.2569615"><ele>845.0</ele><time>2026-05-02T15:46:06.602Z</time></trkpt><trkpt lat="42.2001995" lon="13.2569381"><ele>841.0</ele><time>2026-05-02T15:46:08.602Z</time></trkpt><trkpt lat="42.2000873" lon="13.2568966"><ele>837.0</ele><time>2026-05-02T15:46:10.602Z</time></trkpt><trkpt lat="42.1999782" lon="13.2568647"><ele>837.0</ele><time>2026-05-02T15:46:12.603Z</time></trkpt><trkpt lat="42.1998848" lon="13.2567887"><ele>837.0</ele><time>2026-05-02T15:46:14.602Z</time></trkpt><trkpt lat="42.1997976" lon="13.256714"><ele>837.0</ele><time>2026-05-02T15:46:16.603Z</time></trkpt><trkpt lat="42.1997343" lon="13.2566569"><ele>837.0</ele><time>2026-05-02T15:46:18.603Z</time></trkpt><trkpt lat="42.1996695" lon="13.2566189"><ele>837.0</ele><time>2026-05-02T15:46:20.602Z</time></trkpt><trkpt lat="42.1997152" lon="13.2566929"><ele>837.0</ele><time>2026-05-02T15:46:25.602Z</time></trkpt><trkpt lat="42.1998233" lon="13.2567579"><ele>837.0</ele><time>2026-05-02T15:46:27.602Z</time></trkpt><trkpt lat="42.1998882" lon="13.2568202"><ele>837.0</ele><time>2026-05-02T15:46:28.603Z</time></trkpt><trkpt lat="42.1999632" lon="13.2568792"><ele>837.0</ele><time>2026-05-02T15:46:29.602Z</time></trkpt><trkpt lat="42.200037" lon="13.2569049"><ele>837.0</ele><time>2026-05-02T15:46:30.602Z</time></trkpt><trkpt lat="42.200116" lon="13.2569274"><ele>837.0</ele><time>2026-05-02T15:46:31.602Z</time></trkpt><trkpt lat="42.2001968" lon="13.2569464"><ele>837.0</ele><time>2026-05-02T15:46:32.602Z</time></trkpt><trkpt lat="42.2002835" lon="13.2569661"><ele>837.0</ele><time>2026-05-02T15:46:33.603Z</time></trkpt><trkpt lat="42.2003751" lon="13.256985"><ele>837.0</ele><time>2026-05-02T15:46:34.603Z</time></trkpt><trkpt lat="42.2004713" lon="13.256998"><ele>837.0</ele><time>2026-05-02T15:46:35.602Z</time></trkpt><trkpt lat="42.2005701" lon="13.2570142"><ele>837.0</ele><time>2026-05-02T15:46:36.603Z</time></trkpt><trkpt lat="42.2006678" lon="13.2570318"><ele>837.0</ele><time>2026-05-02T15:46:37.602Z</time></trkpt><trkpt lat="42.2007533" lon="13.2570417"><ele>839.6666666666666</ele><time>2026-05-02T15:46:38.602Z</time></trkpt><trkpt lat="42.2008177" lon="13.2570536"><ele>842.3333333333333</ele><time>2026-05-02T15:46:39.603Z</time></trkpt><trkpt lat="42.2008954" lon="13.2570822"><ele>845.0</ele><time>2026-05-02T15:46:41.603Z</time></trkpt><trkpt lat="42.2009704" lon="13.2570727"><ele>847.6666666666666</ele><time>2026-05-02T15:46:49.602Z</time></trkpt><trkpt lat="42.2008954" lon="13.2569676"><ele>850.3333333333333</ele><time>2026-05-02T15:46:56.602Z</time></trkpt><trkpt lat="42.2008911" lon="13.2568772"><ele>853.0</ele><time>2026-05-02T15:47:00.602Z</time></trkpt><trkpt lat="42.2009633" lon="13.2568574"><ele>852.9999999999999</ele><time>2026-05-02T15:47:03.602Z</time></trkpt><trkpt lat="42.2010468" lon="13.2568519"><ele>853.0</ele><time>2026-05-02T15:47:05.602Z</time></trkpt><trkpt lat="42.2011317" lon="13.2568674"><ele>853.0</ele><time>2026-05-02T15:47:07.603Z</time></trkpt><trkpt lat="42.2012086" lon="13.2568743"><ele>853.0</ele><time>2026-05-02T15:47:09.603Z</time></trkpt><trkpt lat="42.2012907" lon="13.2568735"><ele>852.9999999999999</ele><time>2026-05-02T15:47:11.602Z</time></trkpt><trkpt lat="42.2013699" lon="13.256863"><ele>853.0</ele><time>2026-05-02T15:47:13.602Z</time></trkpt><trkpt lat="42.2014338" lon="13.2568369"><ele>855.8333333333333</ele><time>2026-05-02T15:47:15.603Z</time></trkpt><trkpt lat="42.2015126" lon="13.2568407"><ele>858.6666666666666</ele><time>2026-05-02T15:47:17.602Z</time></trkpt><trkpt lat="42.2015901" lon="13.2568451"><ele>861.5</ele><time>2026-05-02T15:47:19.603Z</time></trkpt><trkpt lat="42.2016787" lon="13.2568435"><ele>864.3333333333333</ele><time>2026-05-02T15:47:21.602Z</time></trkpt><trkpt lat="42.2017763" lon="13.2568447"><ele>867.1666666666666</ele><time>2026-05-02T15:47:23.602Z</time></trkpt><trkpt lat="42.201876" lon="13.2568585"><ele>870.0</ele><time>2026-05-02T15:47:25.602Z</time></trkpt><trkpt lat="42.2019643" lon="13.2568582"><ele>870.0</ele><time>2026-05-02T15:47:27.602Z</time></trkpt><trkpt lat="42.2020626" lon="13.2568493"><ele>870.0</ele><time>2026-05-02T15:47:29.602Z</time></trkpt><trkpt lat="42.2021645" lon="13.2568384"><ele>870.0</ele><time>2026-05-02T15:47:31.602Z</time></trkpt><trkpt lat="42.20226" lon="13.2568215"><ele>870.0</ele><time>2026-05-02T15:47:33.602Z</time></trkpt><trkpt lat="42.2023531" lon="13.2568071"><ele>870.0</ele><time>2026-05-02T15:47:35.602Z</time></trkpt><trkpt lat="42.2024286" lon="13.2567582"><ele>871.4</ele><time>2026-05-02T15:47:37.603Z</time></trkpt><trkpt lat="42.2025078" lon="13.2567183"><ele>872.8</ele><time>2026-05-02T15:47:39.602Z</time></trkpt><trkpt lat="42.2026117" lon="13.256715"><ele>874.2</ele><time>2026-05-02T15:47:41.602Z</time></trkpt><trkpt lat="42.2027087" lon="13.25669"><ele>875.6</ele><time>2026-05-02T15:47:43.602Z</time></trkpt><trkpt lat="42.2027894" lon="13.2566392"><ele>877.0</ele><time>2026-05-02T15:47:45.602Z</time></trkpt><trkpt lat="42.2028462" lon="13.2565561"><ele>876.9999999999999</ele><time>2026-05-02T15:47:47.602Z</time></trkpt><trkpt lat="42.2029066" lon="13.256465"><ele>877.0</ele><time>2026-05-02T15:47:49.602Z</time></trkpt><trkpt lat="42.2029563" lon="13.2563812"><ele>877.0</ele><time>2026-05-02T15:47:51.603Z</time></trkpt><trkpt lat="42.2030055" lon="13.2562704"><ele>877.0</ele><time>2026-05-02T15:47:53.602Z</time></trkpt><trkpt lat="42.2030473" lon="13.2561724"><ele>876.9999999999999</ele><time>2026-05-02T15:47:55.602Z</time></trkpt><trkpt lat="42.2030932" lon="13.2560698"><ele>877.0</ele><time>2026-05-02T15:47:57.603Z</time></trkpt><trkpt lat="42.2031659" lon="13.2559397"><ele>878.2</ele><time>2026-05-02T15:47:59.603Z</time></trkpt><trkpt lat="42.2032399" lon="13.2558303"><ele>879.4000000000001</ele><time>2026-05-02T15:48:01.602Z</time></trkpt><trkpt lat="42.2033102" lon="13.2557209"><ele>880.5999999999999</ele><time>2026-05-02T15:48:03.602Z</time></trkpt><trkpt lat="42.2033504" lon="13.2555988"><ele>881.8</ele><time>2026-05-02T15:48:05.602Z</time></trkpt><trkpt lat="42.2033207" lon="13.2554536"><ele>883.0</ele><time>2026-05-02T15:48:07.602Z</time></trkpt><trkpt lat="42.2033026" lon="13.2553709"><ele>884.8333333333333</ele><time>2026-05-02T15:48:08.602Z</time></trkpt><trkpt lat="42.2032862" lon="13.2552836"><ele>886.6666666666666</ele><time>2026-05-02T15:48:09.603Z</time></trkpt><trkpt lat="42.2032757" lon="13.2551908"><ele>888.5</ele><time>2026-05-02T15:48:10.603Z</time></trkpt><trkpt lat="42.2032712" lon="13.2550905"><ele>890.3333333333333</ele><time>2026-05-02T15:48:11.602Z</time></trkpt><trkpt lat="42.203278" lon="13.2549509"><ele>892.1666666666666</ele><time>2026-05-02T15:48:13.602Z</time></trkpt><trkpt lat="42.2033545" lon="13.2549365"><ele>894.0</ele><time>2026-05-02T15:48:16.602Z</time></trkpt><trkpt lat="42.2034134" lon="13.2550157"><ele>894.0</ele><time>2026-05-02T15:48:18.602Z</time></trkpt><trkpt lat="42.2034831" lon="13.2550775"><ele>894.0</ele><time>2026-05-02T15:48:20.602Z</time></trkpt><trkpt lat="42.2035815" lon="13.2551265"><ele>894.0</ele><time>2026-05-02T15:48:22.602Z</time></trkpt><trkpt lat="42.2036369" lon="13.255177"><ele>894.0</ele><time>2026-05-02T15:48:23.602Z</time></trkpt><trkpt lat="42.2036993" lon="13.2552376"><ele>894.0</ele><time>2026-05-02T15:48:24.602Z</time></trkpt><trkpt lat="42.2037622" lon="13.2553019"><ele>894.0</ele><time>2026-05-02T15:48:25.603Z</time></trkpt><trkpt lat="42.2038313" lon="13.2553713"><ele>894.0</ele><time>2026-05-02T15:48:26.602Z</time></trkpt><trkpt lat="42.2039018" lon="13.2554403"><ele>894.0000000000001</ele><time>2026-05-02T15:48:27.602Z</time></trkpt><trkpt lat="42.2039709" lon="13.2555179"><ele>894.0000000000001</ele><time>2026-05-02T15:48:28.602Z</time></trkpt><trkpt lat="42.2040352" lon="13.2556071"><ele>894.0</ele><time>2026-05-02T15:48:29.602Z</time></trkpt><trkpt lat="42.2040999" lon="13.2557037"><ele>894.0</ele><time>2026-05-02T15:48:30.602Z</time></trkpt><trkpt lat="42.2041703" lon="13.2557975"><ele>895.2</ele><time>2026-05-02T15:48:31.602Z</time></trkpt><trkpt lat="42.2042527" lon="13.2558844"><ele>896.4000000000001</ele><time>2026-05-02T15:48:32.602Z</time></trkpt><trkpt lat="42.2043434" lon="13.2559633"><ele>897.6</ele><time>2026-05-02T15:48:33.603Z</time></trkpt><trkpt lat="42.2044331" lon="13.2560311"><ele>898.8</ele><time>2026-05-02T15:48:34.602Z</time></trkpt><trkpt lat="42.2045296" lon="13.2560935"><ele>900.0</ele><time>2026-05-02T15:48:35.603Z</time></trkpt><trkpt lat="42.2046292" lon="13.2561528"><ele>900.0</ele><time>2026-05-02T15:48:36.603Z</time></trkpt><trkpt lat="42.2047316" lon="13.2562227"><ele>900.0</ele><time>2026-05-02T15:48:37.602Z</time></trkpt><trkpt lat="42.2048288" lon="13.2563181"><ele>900.0</ele><time>2026-05-02T15:48:38.602Z</time></trkpt><trkpt lat="42.2049295" lon="13.2564405"><ele>900.0</ele><time>2026-05-02T15:48:39.602Z</time></trkpt><trkpt lat="42.205027" lon="13.2565985"><ele>903.3333333333333</ele><time>2026-05-02T15:48:40.602Z</time></trkpt><trkpt lat="42.2051268" lon="13.2567793"><ele>906.6666666666666</ele><time>2026-05-02T15:48:41.603Z</time></trkpt><trkpt lat="42.2052221" lon="13.2569656"><ele>910.0</ele><time>2026-05-02T15:48:42.602Z</time></trkpt><trkpt lat="42.2053109" lon="13.2571612"><ele>907.0</ele><time>2026-05-02T15:48:43.603Z</time></trkpt><trkpt lat="42.2053853" lon="13.2573542"><ele>904.0</ele><time>2026-05-02T15:48:44.602Z</time></trkpt><trkpt lat="42.205455" lon="13.2575184"><ele>901.0</ele><time>2026-05-02T15:48:45.603Z</time></trkpt><trkpt lat="42.2055267" lon="13.2576579"><ele>898.0</ele><time>2026-05-02T15:48:46.602Z</time></trkpt><trkpt lat="42.2055923" lon="13.2577617"><ele>905.2</ele><time>2026-05-02T15:48:47.602Z</time></trkpt><trkpt lat="42.2056665" lon="13.2578323"><ele>912.4</ele><time>2026-05-02T15:48:48.602Z</time></trkpt><trkpt lat="42.2057661" lon="13.2578993"><ele>919.6000000000001</ele><time>2026-05-02T15:48:49.603Z</time></trkpt><trkpt lat="42.2058762" lon="13.257959"><ele>926.8000000000001</ele><time>2026-05-02T15:48:50.603Z</time></trkpt><trkpt lat="42.2059802" lon="13.2580252"><ele>934.0</ele><time>2026-05-02T15:48:51.602Z</time></trkpt><trkpt lat="42.206067" lon="13.2580982"><ele>930.6</ele><time>2026-05-02T15:48:52.602Z</time></trkpt><trkpt lat="42.2061298" lon="13.2581906"><ele>927.2</ele><time>2026-05-02T15:48:53.602Z</time></trkpt><trkpt lat="42.2061718" lon="13.2583007"><ele>923.8000000000001</ele><time>2026-05-02T15:48:54.603Z</time></trkpt><trkpt lat="42.2061888" lon="13.2584326"><ele>920.4000000000001</ele><time>2026-05-02T15:48:55.603Z</time></trkpt><trkpt lat="42.2061867" lon="13.2585897"><ele>917.0</ele><time>2026-05-02T15:48:56.603Z</time></trkpt><trkpt lat="42.2061761" lon="13.2587698"><ele>915.5</ele><time>2026-05-02T15:48:57.603Z</time></trkpt><trkpt lat="42.2061633" lon="13.2589621"><ele>914.0</ele><time>2026-05-02T15:48:58.602Z</time></trkpt><trkpt lat="42.2061556" lon="13.2591487"><ele>912.5</ele><time>2026-05-02T15:48:59.602Z</time></trkpt><trkpt lat="42.2061577" lon="13.2593195"><ele>911.0</ele><time>2026-05-02T15:49:00.602Z</time></trkpt><trkpt lat="42.206163" lon="13.2594778"><ele>911.0</ele><time>2026-05-02T15:49:01.602Z</time></trkpt><trkpt lat="42.2061829" lon="13.2596239"><ele>911.0</ele><time>2026-05-02T15:49:02.602Z</time></trkpt><trkpt lat="42.2062397" lon="13.2597518"><ele>911.0</ele><time>2026-05-02T15:49:03.603Z</time></trkpt><trkpt lat="42.2063144" lon="13.2598791"><ele>911.0</ele><time>2026-05-02T15:49:04.602Z</time></trkpt><trkpt lat="42.2064059" lon="13.2600104"><ele>921.6666666666667</ele><time>2026-05-02T15:49:05.603Z</time></trkpt><trkpt lat="42.2065062" lon="13.260157"><ele>932.3333333333333</ele><time>2026-05-02T15:49:06.603Z</time></trkpt><trkpt lat="42.2066133" lon="13.2603184"><ele>943.0</ele><time>2026-05-02T15:49:07.603Z</time></trkpt><trkpt lat="42.2067234" lon="13.2604849"><ele>937.3333333333333</ele><time>2026-05-02T15:49:08.602Z</time></trkpt><trkpt lat="42.2068342" lon="13.2606578"><ele>931.6666666666667</ele><time>2026-05-02T15:49:09.603Z</time></trkpt><trkpt lat="42.2069441" lon="13.2608346"><ele>926.0</ele><time>2026-05-02T15:49:10.602Z</time></trkpt><trkpt lat="42.2070489" lon="13.2610162"><ele>926.0</ele><time>2026-05-02T15:49:11.603Z</time></trkpt><trkpt lat="42.2071484" lon="13.2611969"><ele>926.0</ele><time>2026-05-02T15:49:12.602Z</time></trkpt><trkpt lat="42.2072417" lon="13.2613771"><ele>926.0</ele><time>2026-05-02T15:49:13.602Z</time></trkpt><trkpt lat="42.2073309" lon="13.2615413"><ele>929.4</ele><time>2026-05-02T15:49:14.603Z</time></trkpt><trkpt lat="42.2074176" lon="13.2616783"><ele>932.8</ele><time>2026-05-02T15:49:15.602Z</time></trkpt><trkpt lat="42.2075051" lon="13.2617893"><ele>936.1999999999999</ele><time>2026-05-02T15:49:16.602Z</time></trkpt><trkpt lat="42.2075841" lon="13.2618526"><ele>939.5999999999999</ele><time>2026-05-02T15:49:17.603Z</time></trkpt><trkpt lat="42.2076536" lon="13.2618732"><ele>943.0</ele><time>2026-05-02T15:49:18.603Z</time></trkpt><trkpt lat="42.2077755" lon="13.2618013"><ele>942.9999999999999</ele><time>2026-05-02T15:49:20.603Z</time></trkpt><trkpt lat="42.207834" lon="13.2617358"><ele>943.0</ele><time>2026-05-02T15:49:21.602Z</time></trkpt><trkpt lat="42.2078798" lon="13.2616758"><ele>943.0</ele><time>2026-05-02T15:49:22.602Z</time></trkpt><trkpt lat="42.2078913" lon="13.261558"><ele>943.0</ele><time>2026-05-02T15:49:24.603Z</time></trkpt><trkpt lat="42.2078113" lon="13.261533"><ele>942.9999999999999</ele><time>2026-05-02T15:49:26.603Z</time></trkpt><trkpt lat="42.2077047" lon="13.2615954"><ele>943.0</ele><time>2026-05-02T15:49:28.602Z</time></trkpt><trkpt lat="42.2076358" lon="13.2615243"><ele>947.4</ele><time>2026-05-02T15:49:30.602Z</time></trkpt><trkpt lat="42.2076091" lon="13.2614363"><ele>951.8</ele><time>2026-05-02T15:49:31.603Z</time></trkpt><trkpt lat="42.2075714" lon="13.2613187"><ele>956.2</ele><time>2026-05-02T15:49:32.603Z</time></trkpt><trkpt lat="42.2075169" lon="13.2611767"><ele>960.6</ele><time>2026-05-02T15:49:33.603Z</time></trkpt><trkpt lat="42.2074429" lon="13.2610134"><ele>965.0</ele><time>2026-05-02T15:49:34.603Z</time></trkpt><trkpt lat="42.2073538" lon="13.2608237"><ele>957.6666666666667</ele><time>2026-05-02T15:49:35.602Z</time></trkpt><trkpt lat="42.2072629" lon="13.2606156"><ele>950.3333333333333</ele><time>2026-05-02T15:49:36.603Z</time></trkpt><trkpt lat="42.2071783" lon="13.2603969"><ele>943.0</ele><time>2026-05-02T15:49:37.602Z</time></trkpt><trkpt lat="42.2071006" lon="13.2601765"><ele>943.0</ele><time>2026-05-02T15:49:38.602Z</time></trkpt><trkpt lat="42.2070404" lon="13.2599813"><ele>943.0</ele><time>2026-05-02T15:49:39.602Z</time></trkpt><trkpt lat="42.2069854" lon="13.2598058"><ele>943.0</ele><time>2026-05-02T15:49:40.602Z</time></trkpt><trkpt lat="42.2069413" lon="13.2596542"><ele>943.0</ele><time>2026-05-02T15:49:41.602Z</time></trkpt><trkpt lat="42.2069171" lon="13.2595342"><ele>944.5999999999999</ele><time>2026-05-02T15:49:42.602Z</time></trkpt><trkpt lat="42.2069222" lon="13.2594325"><ele>946.1999999999999</ele><time>2026-05-02T15:49:43.603Z</time></trkpt><trkpt lat="42.2069534" lon="13.2593148"><ele>947.8</ele><time>2026-05-02T15:49:44.602Z</time></trkpt><trkpt lat="42.2069989" lon="13.2591725"><ele>949.4</ele><time>2026-05-02T15:49:45.603Z</time></trkpt><trkpt lat="42.2070596" lon="13.2590225"><ele>951.0</ele><time>2026-05-02T15:49:46.602Z</time></trkpt><trkpt lat="42.2071327" lon="13.2588675"><ele>951.0</ele><time>2026-05-02T15:49:47.602Z</time></trkpt><trkpt lat="42.2071899" lon="13.2586967"><ele>951.0</ele><time>2026-05-02T15:49:48.603Z</time></trkpt><trkpt lat="42.207233" lon="13.258498"><ele>951.0</ele><time>2026-05-02T15:49:49.602Z</time></trkpt><trkpt lat="42.2072663" lon="13.2582999"><ele>951.0</ele><time>2026-05-02T15:49:50.602Z</time></trkpt><trkpt lat="42.2072862" lon="13.2581219"><ele>954.0</ele><time>2026-05-02T15:49:51.602Z</time></trkpt><trkpt lat="42.2072952" lon="13.257961"><ele>956.9999999999999</ele><time>2026-05-02T15:49:52.602Z</time></trkpt><trkpt lat="42.2072865" lon="13.2578201"><ele>959.9999999999999</ele><time>2026-05-02T15:49:53.602Z</time></trkpt><trkpt lat="42.2072559" lon="13.2576997"><ele>963.0</ele><time>2026-05-02T15:49:54.602Z</time></trkpt><trkpt lat="42.2072" lon="13.2575746"><ele>966.0</ele><time>2026-05-02T15:49:55.603Z</time></trkpt><trkpt lat="42.207118" lon="13.2574446"><ele>966.0</ele><time>2026-05-02T15:49:56.602Z</time></trkpt><trkpt lat="42.2070202" lon="13.2573086"><ele>966.0</ele><time>2026-05-02T15:49:57.602Z</time></trkpt><trkpt lat="42.2069113" lon="13.2571664"><ele>966.0</ele><time>2026-05-02T15:49:58.603Z</time></trkpt><trkpt lat="42.2068118" lon="13.257037"><ele>966.0</ele><time>2026-05-02T15:49:59.603Z</time></trkpt><trkpt lat="42.2067301" lon="13.2569137"><ele>971.25</ele><time>2026-05-02T15:50:00.602Z</time></trkpt><trkpt lat="42.2066715" lon="13.2567913"><ele>976.5</ele><time>2026-05-02T15:50:01.603Z</time></trkpt><trkpt lat="42.2066183" lon="13.2566558"><ele>981.75</ele><time>2026-05-02T15:50:02.602Z</time></trkpt><trkpt lat="42.2065641" lon="13.2565069"><ele>987.0</ele><time>2026-05-02T15:50:03.603Z</time></trkpt><trkpt lat="42.2065189" lon="13.2563467"><ele>981.0</ele><time>2026-05-02T15:50:04.602Z</time></trkpt><trkpt lat="42.2064843" lon="13.2561766"><ele>975.0</ele><time>2026-05-02T15:50:05.602Z</time></trkpt><trkpt lat="42.2064541" lon="13.2560006"><ele>969.0</ele><time>2026-05-02T15:50:06.603Z</time></trkpt><trkpt lat="42.2064408" lon="13.2558212"><ele>963.0</ele><time>2026-05-02T15:50:07.602Z</time></trkpt><trkpt lat="42.2064408" lon="13.2556411"><ele>966.0</ele><time>2026-05-02T15:50:08.602Z</time></trkpt><trkpt lat="42.2064555" lon="13.2554678"><ele>969.0</ele><time>2026-05-02T15:50:09.602Z</time></trkpt><trkpt lat="42.2064717" lon="13.2553044"><ele>972.0</ele><time>2026-05-02T15:50:10.602Z</time></trkpt><trkpt lat="42.2064758" lon="13.2551276"><ele>975.0</ele><time>2026-05-02T15:50:11.602Z</time></trkpt><trkpt lat="42.2064651" lon="13.2549323"><ele>976.0</ele><time>2026-05-02T15:50:12.603Z</time></trkpt><trkpt lat="42.2064449" lon="13.2547369"><ele>977.0</ele><time>2026-05-02T15:50:13.602Z</time></trkpt><trkpt lat="42.2064225" lon="13.2545492"><ele>978.0</ele><time>2026-05-02T15:50:14.602Z</time></trkpt><trkpt lat="42.2064064" lon="13.2543702"><ele>979.0</ele><time>2026-05-02T15:50:15.603Z</time></trkpt><trkpt lat="42.2064029" lon="13.2541969"><ele>979.0</ele><time>2026-05-02T15:50:16.602Z</time></trkpt><trkpt lat="42.2064189" lon="13.2540193"><ele>979.0</ele><time>2026-05-02T15:50:17.602Z</time></trkpt><trkpt lat="42.2064453" lon="13.2538385"><ele>979.0</ele><time>2026-05-02T15:50:18.602Z</time></trkpt><trkpt lat="42.206487" lon="13.2536565"><ele>979.0</ele><time>2026-05-02T15:50:19.602Z</time></trkpt><trkpt lat="42.2065492" lon="13.2534617"><ele>985.0</ele><time>2026-05-02T15:50:20.602Z</time></trkpt><trkpt lat="42.2066147" lon="13.2532727"><ele>991.0</ele><time>2026-05-02T15:50:21.602Z</time></trkpt><trkpt lat="42.2066686" lon="13.2531082"><ele>997.0</ele><time>2026-05-02T15:50:22.602Z</time></trkpt><trkpt lat="42.2067189" lon="13.2529646"><ele>1003.0</ele><time>2026-05-02T15:50:23.603Z</time></trkpt><trkpt lat="42.2067623" lon="13.252839"><ele>1003.0</ele><time>2026-05-02T15:50:24.602Z</time></trkpt><trkpt lat="42.2068026" lon="13.2527298"><ele>1003.0</ele><time>2026-05-02T15:50:25.602Z</time></trkpt><trkpt lat="42.2068454" lon="13.2526477"><ele>1003.0</ele><time>2026-05-02T15:50:27.602Z</time></trkpt><trkpt lat="42.2068877" lon="13.252747"><ele>1003.0</ele><time>2026-05-02T15:50:31.602Z</time></trkpt><trkpt lat="42.2068673" lon="13.2528622"><ele>1003.0</ele><time>2026-05-02T15:50:33.603Z</time></trkpt><trkpt lat="42.2068492" lon="13.2530232"><ele>1003.8333333333333</ele><time>2026-05-02T15:50:35.602Z</time></trkpt><trkpt lat="42.2068304" lon="13.2531959"><ele>1004.6666666666666</ele><time>2026-05-02T15:50:37.602Z</time></trkpt><trkpt lat="42.2068258" lon="13.2532907"><ele>1005.5</ele><time>2026-05-02T15:50:38.602Z</time></trkpt><trkpt lat="42.206827" lon="13.2533805"><ele>1006.3333333333333</ele><time>2026-05-02T15:50:39.602Z</time></trkpt><trkpt lat="42.2068311" lon="13.2534665"><ele>1007.1666666666666</ele><time>2026-05-02T15:50:40.603Z</time></trkpt><trkpt lat="42.2068416" lon="13.2535532"><ele>1008.0</ele><time>2026-05-02T15:50:41.602Z</time></trkpt><trkpt lat="42.2068462" lon="13.2536402"><ele>1008.0</ele><time>2026-05-02T15:50:42.603Z</time></trkpt><trkpt lat="42.2068483" lon="13.253726"><ele>1008.0</ele><time>2026-05-02T15:50:43.603Z</time></trkpt><trkpt lat="42.2068693" lon="13.2538596"><ele>1008.0</ele><time>2026-05-02T15:50:45.602Z</time></trkpt><trkpt lat="42.2069217" lon="13.2539953"><ele>1008.0</ele><time>2026-05-02T15:50:47.602Z</time></trkpt><trkpt lat="42.2069836" lon="13.2541299"><ele>1008.0</ele><time>2026-05-02T15:50:49.602Z</time></trkpt><trkpt lat="42.2070348" lon="13.2542768"><ele>1007.5999999999999</ele><time>2026-05-02T15:50:51.602Z</time></trkpt><trkpt lat="42.207061" lon="13.2544318"><ele>1007.1999999999999</ele><time>2026-05-02T15:50:53.603Z</time></trkpt><trkpt lat="42.2070894" lon="13.2545924"><ele>1006.8</ele><time>2026-05-02T15:50:55.602Z</time></trkpt><trkpt lat="42.2071329" lon="13.2547526"><ele>1006.4</ele><time>2026-05-02T15:50:57.602Z</time></trkpt><trkpt lat="42.2071578" lon="13.2548364"><ele>1006.0</ele><time>2026-05-02T15:50:58.602Z</time></trkpt><trkpt lat="42.2071846" lon="13.2549208"><ele>1006.0</ele><time>2026-05-02T15:50:59.602Z</time></trkpt><trkpt lat="42.2072049" lon="13.2550076"><ele>1006.0000000000001</ele><time>2026-05-02T15:51:00.602Z</time></trkpt><trkpt lat="42.2072241" lon="13.255099"><ele>1006.0</ele><time>2026-05-02T15:51:01.602Z</time></trkpt><trkpt lat="42.2072411" lon="13.2551926"><ele>1006.0</ele><time>2026-05-02T15:51:02.603Z</time></trkpt><trkpt lat="42.2072583" lon="13.2552921"><ele>1006.0000000000001</ele><time>2026-05-02T15:51:03.602Z</time></trkpt><trkpt lat="42.2072746" lon="13.2553923"><ele>1006.0</ele><time>2026-05-02T15:51:04.602Z</time></trkpt><trkpt lat="42.207292" lon="13.2554932"><ele>1006.0</ele><time>2026-05-02T15:51:05.602Z</time></trkpt><trkpt lat="42.2073145" lon="13.2555973"><ele>1011.1666666666666</ele><time>2026-05-02T15:51:06.602Z</time></trkpt><trkpt lat="42.2073373" lon="13.2557018"><ele>1016.3333333333333</ele><time>2026-05-02T15:51:07.602Z</time></trkpt><trkpt lat="42.2073615" lon="13.2558072"><ele>1021.5</ele><time>2026-05-02T15:51:08.603Z</time></trkpt><trkpt lat="42.2073892" lon="13.2559073"><ele>1026.6666666666667</ele><time>2026-05-02T15:51:09.602Z</time></trkpt><trkpt lat="42.2074158" lon="13.2560073"><ele>1031.8333333333335</ele><time>2026-05-02T15:51:10.602Z</time></trkpt><trkpt lat="42.2074419" lon="13.2560973"><ele>1037.0</ele><time>2026-05-02T15:51:11.603Z</time></trkpt><trkpt lat="42.2074716" lon="13.2561856"><ele>1037.0</ele><time>2026-05-02T15:51:12.603Z</time></trkpt><trkpt lat="42.2075042" lon="13.2562613"><ele>1037.0</ele><time>2026-05-02T15:51:13.602Z</time></trkpt><trkpt lat="42.2075451" lon="13.2563331"><ele>1037.0</ele><time>2026-05-02T15:51:14.602Z</time></trkpt><trkpt lat="42.2075941" lon="13.2563954"><ele>1037.0</ele><time>2026-05-02T15:51:15.602Z</time></trkpt><trkpt lat="42.2076462" lon="13.2564553"><ele>1037.0</ele><time>2026-05-02T15:51:16.602Z</time></trkpt><trkpt lat="42.2076997" lon="13.2565129"><ele>1037.0</ele><time>2026-05-02T15:51:17.602Z</time></trkpt><trkpt lat="42.2077535" lon="13.2565708"><ele>1037.0</ele><time>2026-05-02T15:51:18.602Z</time></trkpt><trkpt lat="42.2078062" lon="13.2566287"><ele>1034.857142857143</ele><time>2026-05-02T15:51:19.602Z</time></trkpt><trkpt lat="42.2078587" lon="13.2566876"><ele>1032.7142857142858</ele><time>2026-05-02T15:51:20.603Z</time></trkpt><trkpt lat="42.2079063" lon="13.2567505"><ele>1030.5714285714284</ele><time>2026-05-02T15:51:21.602Z</time></trkpt><trkpt lat="42.207957" lon="13.2568121"><ele>1028.4285714285716</ele><time>2026-05-02T15:51:22.602Z</time></trkpt><trkpt lat="42.2080047" lon="13.2568762"><ele>1026.2857142857142</ele><time>2026-05-02T15:51:23.602Z</time></trkpt><trkpt lat="42.2080514" lon="13.256947"><ele>1024.142857142857</ele><time>2026-05-02T15:51:24.602Z</time></trkpt><trkpt lat="42.2080972" lon="13.2570187"><ele>1022.0</ele><time>2026-05-02T15:51:25.602Z</time></trkpt><trkpt lat="42.2081418" lon="13.2570985"><ele>1025.4285714285713</ele><time>2026-05-02T15:51:26.603Z</time></trkpt><trkpt lat="42.208183" lon="13.257178"><ele>1028.857142857143</ele><time>2026-05-02T15:51:27.602Z</time></trkpt><trkpt lat="42.2082233" lon="13.2572568"><ele>1032.2857142857142</ele><time>2026-05-02T15:51:28.602Z</time></trkpt><trkpt lat="42.2082594" lon="13.2573361"><ele>1035.7142857142858</ele><time>2026-05-02T15:51:29.602Z</time></trkpt><trkpt lat="42.2082917" lon="13.2574183"><ele>1039.142857142857</ele><time>2026-05-02T15:51:30.602Z</time></trkpt><trkpt lat="42.2083205" lon="13.2575023"><ele>1042.5714285714284</ele><time>2026-05-02T15:51:31.602Z</time></trkpt><trkpt lat="42.2083437" lon="13.25759"><ele>1046.0</ele><time>2026-05-02T15:51:32.602Z</time></trkpt><trkpt lat="42.2083634" lon="13.2576853"><ele>1046.0</ele><time>2026-05-02T15:51:33.602Z</time></trkpt><trkpt lat="42.20838" lon="13.2577873"><ele>1046.0</ele><time>2026-05-02T15:51:34.602Z</time></trkpt><trkpt lat="42.2083915" lon="13.2579015"><ele>1046.0</ele><time>2026-05-02T15:51:35.603Z</time></trkpt><trkpt lat="42.2083995" lon="13.2580185"><ele>1046.0</ele><time>2026-05-02T15:51:36.603Z</time></trkpt><trkpt lat="42.2084077" lon="13.2581461"><ele>1046.0</ele><time>2026-05-02T15:51:37.603Z</time></trkpt><trkpt lat="42.2084167" lon="13.2582685"><ele>1046.0</ele><time>2026-05-02T15:51:38.602Z</time></trkpt><trkpt lat="42.2084307" lon="13.2583883"><ele>1044.8333333333335</ele><time>2026-05-02T15:51:39.602Z</time></trkpt><trkpt lat="42.2084485" lon="13.2585031"><ele>1043.6666666666667</ele><time>2026-05-02T15:51:40.603Z</time></trkpt><trkpt lat="42.208467" lon="13.2586022"><ele>1042.5</ele><time>2026-05-02T15:51:41.603Z</time></trkpt><trkpt lat="42.2084875" lon="13.2586998"><ele>1041.3333333333333</ele><time>2026-05-02T15:51:42.602Z</time></trkpt><trkpt lat="42.2085123" lon="13.2587884"><ele>1040.1666666666665</ele><time>2026-05-02T15:51:43.603Z</time></trkpt><trkpt lat="42.2085405" lon="13.2588681"><ele>1039.0</ele><time>2026-05-02T15:51:44.603Z</time></trkpt><trkpt lat="42.2086035" lon="13.2589737"><ele>1037.8333333333333</ele><time>2026-05-02T15:51:46.602Z</time></trkpt><trkpt lat="42.2086777" lon="13.259034"><ele>1036.6666666666665</ele><time>2026-05-02T15:51:48.602Z</time></trkpt><trkpt lat="42.2087687" lon="13.2590704"><ele>1035.5</ele><time>2026-05-02T15:51:50.602Z</time></trkpt><trkpt lat="42.2088941" lon="13.2591038"><ele>1034.3333333333333</ele><time>2026-05-02T15:51:52.602Z</time></trkpt><trkpt lat="42.208959" lon="13.2591224"><ele>1033.1666666666667</ele><time>2026-05-02T15:51:53.602Z</time></trkpt><trkpt lat="42.2090247" lon="13.2591375"><ele>1032.0</ele><time>2026-05-02T15:51:54.602Z</time></trkpt><trkpt lat="42.209089" lon="13.2591544"><ele>1035.9999999999998</ele><time>2026-05-02T15:51:55.602Z</time></trkpt><trkpt lat="42.209155" lon="13.2591707"><ele>1040.0</ele><time>2026-05-02T15:51:56.602Z</time></trkpt><trkpt lat="42.2092222" lon="13.2591883"><ele>1044.0</ele><time>2026-05-02T15:51:57.602Z</time></trkpt><trkpt lat="42.2092863" lon="13.2592042"><ele>1048.0</ele><time>2026-05-02T15:51:58.603Z</time></trkpt><trkpt lat="42.2093516" lon="13.2592236"><ele>1052.0</ele><time>2026-05-02T15:51:59.602Z</time></trkpt><trkpt lat="42.2094186" lon="13.2592366"><ele>1055.9999999999998</ele><time>2026-05-02T15:52:00.602Z</time></trkpt><trkpt lat="42.2094875" lon="13.2592518"><ele>1060.0</ele><time>2026-05-02T15:52:01.603Z</time></trkpt><trkpt lat="42.2095503" lon="13.2592691"><ele>1060.0</ele><time>2026-05-02T15:52:02.603Z</time></trkpt><trkpt lat="42.209614" lon="13.2592895"><ele>1060.0</ele><time>2026-05-02T15:52:03.602Z</time></trkpt><trkpt lat="42.209736" lon="13.2593324"><ele>1060.0</ele><time>2026-05-02T15:52:05.602Z</time></trkpt><trkpt lat="42.2097976" lon="13.2593532"><ele>1060.0</ele><time>2026-05-02T15:52:06.602Z</time></trkpt><trkpt lat="42.2098595" lon="13.2593801"><ele>1060.0</ele><time>2026-05-02T15:52:07.602Z</time></trkpt><trkpt lat="42.2099223" lon="13.2594146"><ele>1060.0</ele><time>2026-05-02T15:52:08.602Z</time></trkpt><trkpt lat="42.209985" lon="13.2594521"><ele>1059.2857142857142</ele><time>2026-05-02T15:52:09.602Z</time></trkpt><trkpt lat="42.2100491" lon="13.2594951"><ele>1058.5714285714284</ele><time>2026-05-02T15:52:10.602Z</time></trkpt><trkpt lat="42.2101108" lon="13.2595393"><ele>1057.857142857143</ele><time>2026-05-02T15:52:11.602Z</time></trkpt><trkpt lat="42.2101718" lon="13.2595872"><ele>1057.142857142857</ele><time>2026-05-02T15:52:12.603Z</time></trkpt><trkpt lat="42.210232" lon="13.2596366"><ele>1056.4285714285716</ele><time>2026-05-02T15:52:13.602Z</time></trkpt><trkpt lat="42.2102873" lon="13.2596897"><ele>1055.7142857142858</ele><time>2026-05-02T15:52:14.602Z</time></trkpt><trkpt lat="42.2103389" lon="13.2597479"><ele>1055.0</ele><time>2026-05-02T15:52:15.603Z</time></trkpt><trkpt lat="42.2103905" lon="13.2598053"><ele>1055.0</ele><time>2026-05-02T15:52:16.603Z</time></trkpt><trkpt lat="42.2104393" lon="13.2598648"><ele>1055.0</ele><time>2026-05-02T15:52:17.603Z</time></trkpt><trkpt lat="42.2104869" lon="13.2599264"><ele>1055.0</ele><time>2026-05-02T15:52:18.602Z</time></trkpt><trkpt lat="42.2105321" lon="13.2599861"><ele>1055.0</ele><time>2026-05-02T15:52:19.602Z</time></trkpt><trkpt lat="42.2106117" lon="13.2601132"><ele>1055.0</ele><time>2026-05-02T15:52:21.602Z</time></trkpt><trkpt lat="42.210646" lon="13.2601864"><ele>1055.0</ele><time>2026-05-02T15:52:22.602Z</time></trkpt><trkpt lat="42.2106824" lon="13.2602613"><ele>1055.0</ele><time>2026-05-02T15:52:23.603Z</time></trkpt><trkpt lat="42.2107202" lon="13.2603335"><ele>1056.7142857142858</ele><time>2026-05-02T15:52:24.602Z</time></trkpt><trkpt lat="42.2107618" lon="13.2604033"><ele>1058.4285714285716</ele><time>2026-05-02T15:52:25.602Z</time></trkpt><trkpt lat="42.2108092" lon="13.2604698"><ele>1060.142857142857</ele><time>2026-05-02T15:52:26.602Z</time></trkpt><trkpt lat="42.2108579" lon="13.2605355"><ele>1061.857142857143</ele><time>2026-05-02T15:52:27.602Z</time></trkpt><trkpt lat="42.2109072" lon="13.2605969"><ele>1063.5714285714284</ele><time>2026-05-02T15:52:28.602Z</time></trkpt><trkpt lat="42.2109563" lon="13.2606534"><ele>1065.2857142857142</ele><time>2026-05-02T15:52:29.603Z</time></trkpt><trkpt lat="42.2110095" lon="13.2607054"><ele>1067.0</ele><time>2026-05-02T15:52:30.602Z</time></trkpt><trkpt lat="42.2110644" lon="13.2607508"><ele>1066.9999999999998</ele><time>2026-05-02T15:52:31.602Z</time></trkpt><trkpt lat="42.21112" lon="13.2607952"><ele>1067.0</ele><time>2026-05-02T15:52:32.603Z</time></trkpt><trkpt lat="42.2111788" lon="13.2608365"><ele>1067.0</ele><time>2026-05-02T15:52:33.602Z</time></trkpt><trkpt lat="42.2112392" lon="13.2608678"><ele>1067.0</ele><time>2026-05-02T15:52:34.602Z</time></trkpt><trkpt lat="42.2112985" lon="13.2608966"><ele>1067.0</ele><time>2026-05-02T15:52:35.602Z</time></trkpt><trkpt lat="42.2113591" lon="13.2609225"><ele>1066.9999999999998</ele><time>2026-05-02T15:52:36.603Z</time></trkpt><trkpt lat="42.2114819" lon="13.2609657"><ele>1067.0</ele><time>2026-05-02T15:52:38.603Z</time></trkpt><trkpt lat="42.2115477" lon="13.2609794"><ele>1073.8</ele><time>2026-05-02T15:52:39.602Z</time></trkpt><trkpt lat="42.2116615" lon="13.2610176"><ele>1080.6</ele><time>2026-05-02T15:52:41.602Z</time></trkpt><trkpt lat="42.2117635" lon="13.2610895"><ele>1087.3999999999999</ele><time>2026-05-02T15:52:43.603Z</time></trkpt><trkpt lat="42.2118487" lon="13.2611721"><ele>1094.2</ele><time>2026-05-02T15:52:45.603Z</time></trkpt><trkpt lat="42.2119377" lon="13.2612446"><ele>1101.0</ele><time>2026-05-02T15:52:47.603Z</time></trkpt><trkpt lat="42.2120414" lon="13.261287"><ele>1101.0</ele><time>2026-05-02T15:52:49.602Z</time></trkpt><trkpt lat="42.212151" lon="13.2612952"><ele>1101.0</ele><time>2026-05-02T15:52:51.602Z</time></trkpt><trkpt lat="42.2122741" lon="13.2612792"><ele>1101.0</ele><time>2026-05-02T15:52:53.602Z</time></trkpt><trkpt lat="42.2123426" lon="13.2612684"><ele>1101.0</ele><time>2026-05-02T15:52:54.602Z</time></trkpt><trkpt lat="42.2124094" lon="13.2612597"><ele>1101.0</ele><time>2026-05-02T15:52:55.602Z</time></trkpt><trkpt lat="42.212506" lon="13.2612614"><ele>1100.6</ele><time>2026-05-02T15:52:57.602Z</time></trkpt><trkpt lat="42.2125889" lon="13.2613311"><ele>1100.1999999999998</ele><time>2026-05-02T15:52:59.602Z</time></trkpt><trkpt lat="42.2126605" lon="13.2614712"><ele>1099.8000000000002</ele><time>2026-05-02T15:53:01.602Z</time></trkpt><trkpt lat="42.2126964" lon="13.2615531"><ele>1099.4</ele><time>2026-05-02T15:53:02.602Z</time></trkpt><trkpt lat="42.2127361" lon="13.261626"><ele>1099.0</ele><time>2026-05-02T15:53:03.602Z</time></trkpt><trkpt lat="42.2127996" lon="13.2617255"><ele>1099.0</ele><time>2026-05-02T15:53:05.602Z</time></trkpt><trkpt lat="42.2128919" lon="13.2618612"><ele>1099.0</ele><time>2026-05-02T15:53:07.602Z</time></trkpt><trkpt lat="42.2129519" lon="13.2619456"><ele>1099.0</ele><time>2026-05-02T15:53:08.603Z</time></trkpt><trkpt lat="42.2130111" lon="13.2620287"><ele>1099.0</ele><time>2026-05-02T15:53:09.602Z</time></trkpt><trkpt lat="42.2130646" lon="13.2620989"><ele>1099.0</ele><time>2026-05-02T15:53:10.602Z</time></trkpt><trkpt lat="42.2131107" lon="13.2621667"><ele>1100.142857142857</ele><time>2026-05-02T15:53:11.603Z</time></trkpt><trkpt lat="42.2131599" lon="13.2622361"><ele>1101.2857142857142</ele><time>2026-05-02T15:53:12.602Z</time></trkpt><trkpt lat="42.2132121" lon="13.2623027"><ele>1102.4285714285716</ele><time>2026-05-02T15:53:13.602Z</time></trkpt><trkpt lat="42.2132648" lon="13.262367"><ele>1103.5714285714284</ele><time>2026-05-02T15:53:14.603Z</time></trkpt><trkpt lat="42.2133177" lon="13.2624289"><ele>1104.7142857142858</ele><time>2026-05-02T15:53:15.603Z</time></trkpt><trkpt lat="42.2133739" lon="13.2624919"><ele>1105.857142857143</ele><time>2026-05-02T15:53:16.602Z</time></trkpt><trkpt lat="42.2134355" lon="13.2625561"><ele>1107.0</ele><time>2026-05-02T15:53:17.602Z</time></trkpt><trkpt lat="42.2134975" lon="13.2626179"><ele>1107.0</ele><time>2026-05-02T15:53:18.602Z</time></trkpt><trkpt lat="42.2135603" lon="13.2626763"><ele>1107.0</ele><time>2026-05-02T15:53:19.603Z</time></trkpt><trkpt lat="42.213621" lon="13.2627368"><ele>1107.0</ele><time>2026-05-02T15:53:20.602Z</time></trkpt><trkpt lat="42.2136803" lon="13.2627988"><ele>1107.0</ele><time>2026-05-02T15:53:21.603Z</time></trkpt><trkpt lat="42.2137404" lon="13.2628574"><ele>1107.0</ele><time>2026-05-02T15:53:22.603Z</time></trkpt><trkpt lat="42.2137974" lon="13.2629108"><ele>1107.0</ele><time>2026-05-02T15:53:23.602Z</time></trkpt><trkpt lat="42.2138553" lon="13.2629547"><ele>1107.0</ele><time>2026-05-02T15:53:24.602Z</time></trkpt><trkpt lat="42.2139656" lon="13.2630194"><ele>1107.7142857142858</ele><time>2026-05-02T15:53:26.602Z</time></trkpt><trkpt lat="42.214029" lon="13.2630576"><ele>1108.4285714285713</ele><time>2026-05-02T15:53:27.602Z</time></trkpt><trkpt lat="42.214102" lon="13.2630789"><ele>1109.142857142857</ele><time>2026-05-02T15:53:28.602Z</time></trkpt><trkpt lat="42.2141717" lon="13.263097"><ele>1109.857142857143</ele><time>2026-05-02T15:53:29.602Z</time></trkpt><trkpt lat="42.2142401" lon="13.2631163"><ele>1110.5714285714287</ele><time>2026-05-02T15:53:30.602Z</time></trkpt><trkpt lat="42.2143149" lon="13.26313"><ele>1111.2857142857142</ele><time>2026-05-02T15:53:31.603Z</time></trkpt><trkpt lat="42.2143986" lon="13.2631377"><ele>1112.0</ele><time>2026-05-02T15:53:32.602Z</time></trkpt><trkpt lat="42.2144772" lon="13.2631402"><ele>1112.0</ele><time>2026-05-02T15:53:33.602Z</time></trkpt><trkpt lat="42.2145472" lon="13.2631464"><ele>1112.0</ele><time>2026-05-02T15:53:34.602Z</time></trkpt><trkpt lat="42.2146238" lon="13.2631359"><ele>1112.0</ele><time>2026-05-02T15:53:35.602Z</time></trkpt><trkpt lat="42.2147016" lon="13.263124"><ele>1112.0</ele><time>2026-05-02T15:53:36.602Z</time></trkpt><trkpt lat="42.2147732" lon="13.2631094"><ele>1112.0</ele><time>2026-05-02T15:53:37.602Z</time></trkpt><trkpt lat="42.2148439" lon="13.2631084"><ele>1112.0</ele><time>2026-05-02T15:53:38.602Z</time></trkpt><trkpt lat="42.2149107" lon="13.263113"><ele>1112.0</ele><time>2026-05-02T15:53:39.602Z</time></trkpt><trkpt lat="42.2149794" lon="13.2631264"><ele>1109.6666666666667</ele><time>2026-05-02T15:53:40.603Z</time></trkpt><trkpt lat="42.2150485" lon="13.2631378"><ele>1107.3333333333335</ele><time>2026-05-02T15:53:41.602Z</time></trkpt><trkpt lat="42.2151168" lon="13.2631483"><ele>1105.0</ele><time>2026-05-02T15:53:42.603Z</time></trkpt><trkpt lat="42.2152378" lon="13.26321"><ele>1102.6666666666667</ele><time>2026-05-02T15:53:44.602Z</time></trkpt><trkpt lat="42.2153035" lon="13.2632705"><ele>1100.3333333333333</ele><time>2026-05-02T15:53:45.603Z</time></trkpt><trkpt lat="42.2153634" lon="13.2633319"><ele>1098.0</ele><time>2026-05-02T15:53:46.602Z</time></trkpt><trkpt lat="42.2154147" lon="13.2633872"><ele>1098.0</ele><time>2026-05-02T15:53:47.602Z</time></trkpt><trkpt lat="42.2155088" lon="13.2634967"><ele>1098.0</ele><time>2026-05-02T15:53:49.602Z</time></trkpt><trkpt lat="42.2155493" lon="13.2636033"><ele>1098.0</ele><time>2026-05-02T15:53:51.602Z</time></trkpt><trkpt lat="42.2155466" lon="13.2636995"><ele>1098.0</ele><time>2026-05-02T15:53:53.603Z</time></trkpt><trkpt lat="42.2154695" lon="13.2638077"><ele>1098.0</ele><time>2026-05-02T15:53:55.602Z</time></trkpt><trkpt lat="42.2153985" lon="13.2638712"><ele>1098.0</ele><time>2026-05-02T15:53:57.602Z</time></trkpt><trkpt lat="42.2153734" lon="13.2639564"><ele>1098.0</ele><time>2026-05-02T15:53:59.602Z</time></trkpt><trkpt lat="42.2154093" lon="13.2640542"><ele>1098.0</ele><time>2026-05-02T15:54:01.603Z</time></trkpt><trkpt lat="42.2155039" lon="13.2641576"><ele>1098.0</ele><time>2026-05-02T15:54:03.602Z</time></trkpt><trkpt lat="42.2155719" lon="13.2642043"><ele>1098.0</ele><time>2026-05-02T15:54:04.603Z</time></trkpt><trkpt lat="42.2156315" lon="13.2642505"><ele>1098.0</ele><time>2026-05-02T15:54:05.602Z</time></trkpt><trkpt lat="42.215698" lon="13.2642842"><ele>1100.5</ele><time>2026-05-02T15:54:06.602Z</time></trkpt><trkpt lat="42.2157754" lon="13.2642978"><ele>1103.0</ele><time>2026-05-02T15:54:07.602Z</time></trkpt><trkpt lat="42.215854" lon="13.2643007"><ele>1105.5</ele><time>2026-05-02T15:54:08.603Z</time></trkpt><trkpt lat="42.2159229" lon="13.2643054"><ele>1108.0</ele><time>2026-05-02T15:54:09.603Z</time></trkpt><trkpt lat="42.2160208" lon="13.2643399"><ele>1110.5</ele><time>2026-05-02T15:54:11.602Z</time></trkpt><trkpt lat="42.2161067" lon="13.2644335"><ele>1113.0</ele><time>2026-05-02T15:54:14.603Z</time></trkpt><trkpt lat="42.2161439" lon="13.2645027"><ele>1113.0</ele><time>2026-05-02T15:54:15.602Z</time></trkpt><trkpt lat="42.2161704" lon="13.2645812"><ele>1113.0</ele><time>2026-05-02T15:54:16.603Z</time></trkpt><trkpt lat="42.2161927" lon="13.264733"><ele>1113.0</ele><time>2026-05-02T15:54:18.602Z</time></trkpt><trkpt lat="42.2161987" lon="13.2648833"><ele>1113.0</ele><time>2026-05-02T15:54:20.603Z</time></trkpt><trkpt lat="42.2161279" lon="13.2649758"><ele>1113.0</ele><time>2026-05-02T15:54:22.602Z</time></trkpt><trkpt lat="42.2160925" lon="13.2651027"><ele>1114.5</ele><time>2026-05-02T15:54:24.602Z</time></trkpt><trkpt lat="42.2161117" lon="13.2651916"><ele>1116.0</ele><time>2026-05-02T15:54:25.602Z</time></trkpt><trkpt lat="42.216184" lon="13.2653396"><ele>1117.5</ele><time>2026-05-02T15:54:27.602Z</time></trkpt><trkpt lat="42.2162389" lon="13.2653919"><ele>1119.0</ele><time>2026-05-02T15:54:28.603Z</time></trkpt><trkpt lat="42.2162947" lon="13.2654509"><ele>1120.5</ele><time>2026-05-02T15:54:29.603Z</time></trkpt><trkpt lat="42.2163478" lon="13.265502"><ele>1122.0</ele><time>2026-05-02T15:54:30.603Z</time></trkpt><trkpt lat="42.2163994" lon="13.2655564"><ele>1121.6666666666667</ele><time>2026-05-02T15:54:31.603Z</time></trkpt><trkpt lat="42.2164537" lon="13.2656173"><ele>1121.3333333333333</ele><time>2026-05-02T15:54:32.602Z</time></trkpt><trkpt lat="42.216542" lon="13.265744"><ele>1121.0</ele><time>2026-05-02T15:54:34.602Z</time></trkpt><trkpt lat="42.2165971" lon="13.2657976"><ele>1120.6666666666665</ele><time>2026-05-02T15:54:35.602Z</time></trkpt><trkpt lat="42.2166639" lon="13.2658365"><ele>1120.3333333333333</ele><time>2026-05-02T15:54:36.602Z</time></trkpt><trkpt lat="42.2167319" lon="13.2658726"><ele>1120.0</ele><time>2026-05-02T15:54:37.602Z</time></trkpt><trkpt lat="42.2168648" lon="13.2659395"><ele>1120.0</ele><time>2026-05-02T15:54:39.602Z</time></trkpt><trkpt lat="42.2169325" lon="13.2659719"><ele>1120.0</ele><time>2026-05-02T15:54:40.603Z</time></trkpt><trkpt lat="42.2170068" lon="13.26601"><ele>1120.0</ele><time>2026-05-02T15:54:41.602Z</time></trkpt><trkpt lat="42.2170918" lon="13.2660256"><ele>1120.0</ele><time>2026-05-02T15:54:42.603Z</time></trkpt><trkpt lat="42.2171755" lon="13.2660452"><ele>1120.0</ele><time>2026-05-02T15:54:43.602Z</time></trkpt><trkpt lat="42.2161067" lon="13.2644335"><ele>1120.4</ele><time>2026-05-02T15:54:14.603Z</time></trkpt><trkpt lat="42.2161439" lon="13.2645027"><ele>1120.8</ele><time>2026-05-02T15:54:15.602Z</time></trkpt><trkpt lat="42.2161704" lon="13.2645812"><ele>1121.2</ele><time>2026-05-02T15:54:16.603Z</time></trkpt><trkpt lat="42.2161927" lon="13.264733"><ele>1121.6</ele><time>2026-05-02T15:54:18.602Z</time></trkpt><trkpt lat="42.2161987" lon="13.2648833"><ele>1122.0</ele><time>2026-05-02T15:54:20.603Z</time></trkpt><trkpt lat="42.2161279" lon="13.2649758"><ele>1122.0</ele><time>2026-05-02T15:54:22.602Z</time></trkpt><trkpt lat="42.2160925" lon="13.2651027"><ele>1122.0</ele><time>2026-05-02T15:54:24.602Z</time></trkpt><trkpt lat="42.2161117" lon="13.2651916"><ele>1122.0</ele><time>2026-05-02T15:54:25.602Z</time></trkpt><trkpt lat="42.216184" lon="13.2653396"><ele>1122.0</ele><time>2026-05-02T15:54:27.602Z</time></trkpt><trkpt lat="42.2162389" lon="13.2653919"><ele>1122.0</ele><time>2026-05-02T15:54:28.603Z</time></trkpt><trkpt lat="42.2162947" lon="13.2654509"><ele>1122.0</ele><time>2026-05-02T15:54:29.603Z</time></trkpt><trkpt lat="42.2163478" lon="13.265502"><ele>1122.0</ele><time>2026-05-02T15:54:30.603Z</time></trkpt><trkpt lat="42.2163994" lon="13.2655564"><ele>1122.0</ele><time>2026-05-02T15:54:31.603Z</time></trkpt><trkpt lat="42.2164537" lon="13.2656173"><ele>1122.0</ele><time>2026-05-02T15:54:32.602Z</time></trkpt><trkpt lat="42.216542" lon="13.265744"><ele>1122.0</ele><time>2026-05-02T15:54:34.602Z</time></trkpt><trkpt lat="42.2165971" lon="13.2657976"><ele>1122.0</ele><time>2026-05-02T15:54:35.602Z</time></trkpt><trkpt lat="42.2166639" lon="13.2658365"><ele>1122.0</ele><time>2026-05-02T15:54:36.602Z</time></trkpt><trkpt lat="42.2167319" lon="13.2658726"><ele>1121.6</ele><time>2026-05-02T15:54:37.602Z</time></trkpt><trkpt lat="42.2168648" lon="13.2659395"><ele>1121.2</ele><time>2026-05-02T15:54:39.602Z</time></trkpt><trkpt lat="42.2169325" lon="13.2659719"><ele>1120.8</ele><time>2026-05-02T15:54:40.603Z</time></trkpt><trkpt lat="42.2170068" lon="13.26601"><ele>1120.4</ele><time>2026-05-02T15:54:41.602Z</time></trkpt><trkpt lat="42.2170918" lon="13.2660256"><ele>1120.0</ele><time>2026-05-02T15:54:42.603Z</time></trkpt><trkpt lat="42.2171755" lon="13.2660452"><ele>1120.0</ele><time>2026-05-02T15:54:43.602Z</time></trkpt><trkpt lat="42.2172489" lon="13.2660605"><ele>1120.0</ele><time>2026-05-02T15:54:44.603Z</time></trkpt><trkpt lat="42.2173174" lon="13.2660684"><ele>1120.0</ele><time>2026-05-02T15:54:45.603Z</time></trkpt><trkpt lat="42.2173818" lon="13.266069"><ele>1120.0</ele><time>2026-05-02T15:54:46.603Z</time></trkpt><trkpt lat="42.2175053" lon="13.2660541"><ele>1120.0</ele><time>2026-05-02T15:54:48.603Z</time></trkpt><trkpt lat="42.2176114" lon="13.2660577"><ele>1120.0</ele><time>2026-05-02T15:54:50.602Z</time></trkpt><trkpt lat="42.2176934" lon="13.266116"><ele>1118.0</ele><time>2026-05-02T15:54:52.602Z</time></trkpt><trkpt lat="42.2177803" lon="13.2661914"><ele>1116.0</ele><time>2026-05-02T15:54:54.603Z</time></trkpt><trkpt lat="42.2178866" lon="13.2662646"><ele>1114.0</ele><time>2026-05-02T15:54:56.603Z</time></trkpt><trkpt lat="42.2179915" lon="13.2662374"><ele>1112.0</ele><time>2026-05-02T15:54:58.602Z</time></trkpt><trkpt lat="42.2180565" lon="13.2661769"><ele>1110.0</ele><time>2026-05-02T15:55:00.603Z</time></trkpt><trkpt lat="42.2180942" lon="13.2660671"><ele>1110.0</ele><time>2026-05-02T15:55:02.602Z</time></trkpt><trkpt lat="42.2181316" lon="13.2659736"><ele>1110.0</ele><time>2026-05-02T15:55:04.602Z</time></trkpt><trkpt lat="42.2182028" lon="13.2659054"><ele>1110.0</ele><time>2026-05-02T15:55:06.602Z</time></trkpt><trkpt lat="42.2182992" lon="13.2658603"><ele>1110.0</ele><time>2026-05-02T15:55:08.602Z</time></trkpt><trkpt lat="42.2183987" lon="13.2658594"><ele>1110.0</ele><time>2026-05-02T15:55:10.602Z</time></trkpt><trkpt lat="42.2185086" lon="13.2658552"><ele>1110.5</ele><time>2026-05-02T15:55:12.603Z</time></trkpt><trkpt lat="42.2185722" lon="13.2658491"><ele>1111.0</ele><time>2026-05-02T15:55:13.603Z</time></trkpt><trkpt lat="42.218683" lon="13.2657895"><ele>1111.5</ele><time>2026-05-02T15:55:15.602Z</time></trkpt><trkpt lat="42.2187549" lon="13.2657429"><ele>1112.0</ele><time>2026-05-02T15:55:16.603Z</time></trkpt><trkpt lat="42.2188279" lon="13.2657017"><ele>1112.5</ele><time>2026-05-02T15:55:17.602Z</time></trkpt><trkpt lat="42.2188971" lon="13.2656694"><ele>1113.0</ele><time>2026-05-02T15:55:18.602Z</time></trkpt><trkpt lat="42.2190171" lon="13.2656365"><ele>1113.75</ele><time>2026-05-02T15:55:20.602Z</time></trkpt><trkpt lat="42.2191241" lon="13.2655868"><ele>1114.5</ele><time>2026-05-02T15:55:22.602Z</time></trkpt><trkpt lat="42.2192205" lon="13.265485"><ele>1115.25</ele><time>2026-05-02T15:55:24.602Z</time></trkpt><trkpt lat="42.2193137" lon="13.2653972"><ele>1116.0</ele><time>2026-05-02T15:55:26.603Z</time></trkpt><trkpt lat="42.2194078" lon="13.2653059"><ele>1116.0</ele><time>2026-05-02T15:55:28.602Z</time></trkpt><trkpt lat="42.2195134" lon="13.2652336"><ele>1116.0</ele><time>2026-05-02T15:55:30.602Z</time></trkpt><trkpt lat="42.2195705" lon="13.2651894"><ele>1116.0</ele><time>2026-05-02T15:55:31.602Z</time></trkpt><trkpt lat="42.2196267" lon="13.2651345"><ele>1116.0</ele><time>2026-05-02T15:55:32.602Z</time></trkpt><trkpt lat="42.219684" lon="13.2650751"><ele>1116.0</ele><time>2026-05-02T15:55:33.602Z</time></trkpt><trkpt lat="42.2197353" lon="13.265013"><ele>1116.0</ele><time>2026-05-02T15:55:34.602Z</time></trkpt><trkpt lat="42.2197764" lon="13.2649419"><ele>1116.0</ele><time>2026-05-02T15:55:35.602Z</time></trkpt><trkpt lat="42.2198076" lon="13.264868"><ele>1116.0</ele><time>2026-05-02T15:55:36.602Z</time></trkpt><trkpt lat="42.2198419" lon="13.2647949"><ele>1116.0</ele><time>2026-05-02T15:55:37.602Z</time></trkpt><trkpt lat="42.2198777" lon="13.2646579"><ele>1116.0</ele><time>2026-05-02T15:55:39.602Z</time></trkpt><trkpt lat="42.2199696" lon="13.264565"><ele>1116.0</ele><time>2026-05-02T15:55:41.602Z</time></trkpt><trkpt lat="42.2200357" lon="13.2645368"><ele>1116.0</ele><time>2026-05-02T15:55:42.603Z</time></trkpt><trkpt lat="42.2201353" lon="13.2645206"><ele>1117.3999999999999</ele><time>2026-05-02T15:55:44.602Z</time></trkpt><trkpt lat="42.2202212" lon="13.2645697"><ele>1118.8</ele><time>2026-05-02T15:55:46.603Z</time></trkpt><trkpt lat="42.2202446" lon="13.2646551"><ele>1120.1999999999998</ele><time>2026-05-02T15:55:48.603Z</time></trkpt><trkpt lat="42.2203153" lon="13.2647239"><ele>1121.6</ele><time>2026-05-02T15:55:50.603Z</time></trkpt><trkpt lat="42.220446" lon="13.2647625"><ele>1123.0</ele><time>2026-05-02T15:55:52.602Z</time></trkpt><trkpt lat="42.220516" lon="13.2647557"><ele>1122.9999999999998</ele><time>2026-05-02T15:55:53.602Z</time></trkpt><trkpt lat="42.2205806" lon="13.2647476"><ele>1123.0</ele><time>2026-05-02T15:55:54.602Z</time></trkpt><trkpt lat="42.2206603" lon="13.2647546"><ele>1123.0</ele><time>2026-05-02T15:55:55.603Z</time></trkpt><trkpt lat="42.2207335" lon="13.2647668"><ele>1123.0</ele><time>2026-05-02T15:55:56.602Z</time></trkpt><trkpt lat="42.2208112" lon="13.2647871"><ele>1123.0</ele><time>2026-05-02T15:55:57.602Z</time></trkpt><trkpt lat="42.2208796" lon="13.2648037"><ele>1122.9999999999998</ele><time>2026-05-02T15:55:58.602Z</time></trkpt><trkpt lat="42.2209448" lon="13.2648499"><ele>1123.0</ele><time>2026-05-02T15:55:59.602Z</time></trkpt><trkpt lat="42.2210114" lon="13.2648651"><ele>1124.0</ele><time>2026-05-02T15:56:00.603Z</time></trkpt><trkpt lat="42.2210805" lon="13.264909"><ele>1125.0</ele><time>2026-05-02T15:56:01.602Z</time></trkpt><trkpt lat="42.221151" lon="13.2649563"><ele>1126.0</ele><time>2026-05-02T15:56:02.603Z</time></trkpt><trkpt lat="42.2212093" lon="13.265028"><ele>1127.0</ele><time>2026-05-02T15:56:03.602Z</time></trkpt><trkpt lat="42.2212628" lon="13.2650927"><ele>1128.0</ele><time>2026-05-02T15:56:04.603Z</time></trkpt><trkpt lat="42.221314" lon="13.2651569"><ele>1129.0</ele><time>2026-05-02T15:56:05.602Z</time></trkpt><trkpt lat="42.2214022" lon="13.2652286"><ele>1129.0</ele><time>2026-05-02T15:56:07.602Z</time></trkpt><trkpt lat="42.2214738" lon="13.2652141"><ele>1129.0</ele><time>2026-05-02T15:56:09.602Z</time></trkpt><trkpt lat="42.2215383" lon="13.2651328"><ele>1129.0</ele><time>2026-05-02T15:56:11.602Z</time></trkpt><trkpt lat="42.2216238" lon="13.2650264"><ele>1129.0</ele><time>2026-05-02T15:56:13.602Z</time></trkpt><trkpt lat="42.2216776" lon="13.2649772"><ele>1129.0</ele><time>2026-05-02T15:56:14.602Z</time></trkpt><trkpt lat="42.2217342" lon="13.2649279"><ele>1129.0</ele><time>2026-05-02T15:56:15.603Z</time></trkpt><trkpt lat="42.221787" lon="13.2648715"><ele>1128.0</ele><time>2026-05-02T15:56:16.602Z</time></trkpt><trkpt lat="42.2218302" lon="13.2648087"><ele>1127.0</ele><time>2026-05-02T15:56:17.602Z</time></trkpt><trkpt lat="42.221902" lon="13.2646841"><ele>1126.0</ele><time>2026-05-02T15:56:19.603Z</time></trkpt><trkpt lat="42.2219941" lon="13.2646156"><ele>1125.0</ele><time>2026-05-02T15:56:21.602Z</time></trkpt><trkpt lat="42.222106" lon="13.2645632"><ele>1124.0</ele><time>2026-05-02T15:56:23.602Z</time></trkpt><trkpt lat="42.2222222" lon="13.2644965"><ele>1124.5</ele><time>2026-05-02T15:56:25.602Z</time></trkpt><trkpt lat="42.22234" lon="13.2644129"><ele>1125.0</ele><time>2026-05-02T15:56:27.602Z</time></trkpt><trkpt lat="42.2223877" lon="13.2643508"><ele>1125.5</ele><time>2026-05-02T15:56:28.602Z</time></trkpt><trkpt lat="42.2224349" lon="13.2642862"><ele>1126.0</ele><time>2026-05-02T15:56:29.602Z</time></trkpt><trkpt lat="42.2224871" lon="13.2642292"><ele>1126.5</ele><time>2026-05-02T15:56:30.602Z</time></trkpt><trkpt lat="42.2225665" lon="13.26416"><ele>1127.0</ele><time>2026-05-02T15:56:32.602Z</time></trkpt><trkpt lat="42.2226252" lon="13.2641207"><ele>1127.0</ele><time>2026-05-02T15:56:34.602Z</time></trkpt><trkpt lat="42.2226998" lon="13.2640992"><ele>1127.0</ele><time>2026-05-02T15:56:36.602Z</time></trkpt><trkpt lat="42.2228026" lon="13.2640344"><ele>1127.0</ele><time>2026-05-02T15:56:38.602Z</time></trkpt><trkpt lat="42.2228656" lon="13.2639812"><ele>1127.0</ele><time>2026-05-02T15:56:39.602Z</time></trkpt><trkpt lat="42.222926" lon="13.2639379"><ele>1127.0</ele><time>2026-05-02T15:56:40.602Z</time></trkpt><trkpt lat="42.2229863" lon="13.2638952"><ele>1127.0</ele><time>2026-05-02T15:56:41.602Z</time></trkpt><trkpt lat="42.2230596" lon="13.2638465"><ele>1127.0</ele><time>2026-05-02T15:56:42.602Z</time></trkpt><trkpt lat="42.2231265" lon="13.2637986"><ele>1127.0</ele><time>2026-05-02T15:56:43.603Z</time></trkpt><trkpt lat="42.2231899" lon="13.2637495"><ele>1127.0</ele><time>2026-05-02T15:56:44.603Z</time></trkpt><trkpt lat="42.223254" lon="13.2637039"><ele>1127.0</ele><time>2026-05-02T15:56:45.602Z</time></trkpt><trkpt lat="42.2233112" lon="13.2636679"><ele>1127.0</ele><time>2026-05-02T15:56:46.602Z</time></trkpt><trkpt lat="42.2233596" lon="13.2636095"><ele>1127.0</ele><time>2026-05-02T15:56:47.602Z</time></trkpt><trkpt lat="42.2234421" lon="13.2635002"><ele>1127.0</ele><time>2026-05-02T15:56:49.602Z</time></trkpt><trkpt lat="42.2235315" lon="13.2634379"><ele>1127.0</ele><time>2026-05-02T15:56:51.602Z</time></trkpt><trkpt lat="42.2236101" lon="13.2634168"><ele>1127.0</ele><time>2026-05-02T15:56:53.603Z</time></trkpt><trkpt lat="42.2236975" lon="13.2634249"><ele>1127.0</ele><time>2026-05-02T15:56:56.603Z</time></trkpt><trkpt lat="42.2237924" lon="13.2634409"><ele>1127.0</ele><time>2026-05-02T15:56:58.602Z</time></trkpt><trkpt lat="42.2239091" lon="13.2634496"><ele>1129.5</ele><time>2026-05-02T15:57:00.602Z</time></trkpt><trkpt lat="42.2240284" lon="13.263454"><ele>1132.0</ele><time>2026-05-02T15:57:02.603Z</time></trkpt><trkpt lat="42.2241272" lon="13.2634795"><ele>1134.5</ele><time>2026-05-02T15:57:04.602Z</time></trkpt><trkpt lat="42.224242" lon="13.263482"><ele>1137.0</ele><time>2026-05-02T15:57:06.602Z</time></trkpt><trkpt lat="42.2243617" lon="13.2634788"><ele>1136.9999999999998</ele><time>2026-05-02T15:57:08.602Z</time></trkpt><trkpt lat="42.2244305" lon="13.2634795"><ele>1137.0</ele><time>2026-05-02T15:57:09.602Z</time></trkpt><trkpt lat="42.2244992" lon="13.2634952"><ele>1137.0</ele><time>2026-05-02T15:57:10.602Z</time></trkpt><trkpt lat="42.2245636" lon="13.263507"><ele>1137.0</ele><time>2026-05-02T15:57:11.602Z</time></trkpt><trkpt lat="42.2246289" lon="13.263528"><ele>1137.0</ele><time>2026-05-02T15:57:12.602Z</time></trkpt><trkpt lat="42.2247422" lon="13.2635121"><ele>1136.9999999999998</ele><time>2026-05-02T15:57:14.603Z</time></trkpt><trkpt lat="42.2248017" lon="13.2634841"><ele>1137.0</ele><time>2026-05-02T15:57:15.602Z</time></trkpt><trkpt lat="42.2248707" lon="13.2634783"><ele>1138.3333333333333</ele><time>2026-05-02T15:57:16.602Z</time></trkpt><trkpt lat="42.2249447" lon="13.2634554"><ele>1139.6666666666667</ele><time>2026-05-02T15:57:17.602Z</time></trkpt><trkpt lat="42.2250107" lon="13.2634184"><ele>1141.0</ele><time>2026-05-02T15:57:18.602Z</time></trkpt><trkpt lat="42.2251191" lon="13.2633965"><ele>1142.3333333333335</ele><time>2026-05-02T15:57:20.602Z</time></trkpt><trkpt lat="42.2252052" lon="13.2633904"><ele>1143.6666666666667</ele><time>2026-05-02T15:57:22.602Z</time></trkpt><trkpt lat="42.2253058" lon="13.2633941"><ele>1145.0</ele><time>2026-05-02T15:57:24.602Z</time></trkpt><trkpt lat="42.2254111" lon="13.2633875"><ele>1145.0</ele><time>2026-05-02T15:57:26.602Z</time></trkpt><trkpt lat="42.2255298" lon="13.2633445"><ele>1145.0</ele><time>2026-05-02T15:57:28.601Z</time></trkpt><trkpt lat="42.2255979" lon="13.2633085"><ele>1145.0</ele><time>2026-05-02T15:57:29.602Z</time></trkpt><trkpt lat="42.2256645" lon="13.2632746"><ele>1145.0</ele><time>2026-05-02T15:57:30.602Z</time></trkpt><trkpt lat="42.2257282" lon="13.2632443"><ele>1145.0</ele><time>2026-05-02T15:57:31.602Z</time></trkpt><trkpt lat="42.2257991" lon="13.2632249"><ele>1145.0</ele><time>2026-05-02T15:57:32.603Z</time></trkpt><trkpt lat="42.2258654" lon="13.263208"><ele>1146.1666666666667</ele><time>2026-05-02T15:57:33.603Z</time></trkpt><trkpt lat="42.2259314" lon="13.2631942"><ele>1147.3333333333335</ele><time>2026-05-02T15:57:34.602Z</time></trkpt><trkpt lat="42.2259957" lon="13.2631909"><ele>1148.5</ele><time>2026-05-02T15:57:35.602Z</time></trkpt><trkpt lat="42.2260663" lon="13.2631875"><ele>1149.6666666666667</ele><time>2026-05-02T15:57:36.602Z</time></trkpt><trkpt lat="42.2261911" lon="13.2631884"><ele>1150.8333333333333</ele><time>2026-05-02T15:57:38.603Z</time></trkpt><trkpt lat="42.2263117" lon="13.2632053"><ele>1152.0</ele><time>2026-05-02T15:57:40.602Z</time></trkpt><trkpt lat="42.2264183" lon="13.2632444"><ele>1152.0</ele><time>2026-05-02T15:57:42.603Z</time></trkpt><trkpt lat="42.2265161" lon="13.2633025"><ele>1152.0</ele><time>2026-05-02T15:57:44.602Z</time></trkpt><trkpt lat="42.2265955" lon="13.2634106"><ele>1152.0</ele><time>2026-05-02T15:57:46.603Z</time></trkpt><trkpt lat="42.2266673" lon="13.2635427"><ele>1152.0</ele><time>2026-05-02T15:57:48.602Z</time></trkpt><trkpt lat="42.2267239" lon="13.2636896"><ele>1152.0</ele><time>2026-05-02T15:57:50.603Z</time></trkpt><trkpt lat="42.2267761" lon="13.2638293"><ele>1152.0</ele><time>2026-05-02T15:57:52.603Z</time></trkpt><trkpt lat="42.22681" lon="13.263976"><ele>1152.0</ele><time>2026-05-02T15:57:54.602Z</time></trkpt><trkpt lat="42.2268557" lon="13.2640723"><ele>1152.0</ele><time>2026-05-02T15:57:56.603Z</time></trkpt><trkpt lat="42.226925" lon="13.2641947"><ele>1152.0</ele><time>2026-05-02T15:57:58.602Z</time></trkpt><trkpt lat="42.2269758" lon="13.2643"><ele>1154.5</ele><time>2026-05-02T15:58:00.602Z</time></trkpt><trkpt lat="42.2270446" lon="13.2644265"><ele>1157.0</ele><time>2026-05-02T15:58:02.602Z</time></trkpt><trkpt lat="42.2271272" lon="13.2645296"><ele>1159.5</ele><time>2026-05-02T15:58:04.602Z</time></trkpt><trkpt lat="42.2272215" lon="13.2646009"><ele>1162.0</ele><time>2026-05-02T15:58:06.603Z</time></trkpt><trkpt lat="42.2273342" lon="13.2646199"><ele>1162.0</ele><time>2026-05-02T15:58:08.603Z</time></trkpt><trkpt lat="42.2274555" lon="13.2645826"><ele>1162.0</ele><time>2026-05-02T15:58:10.602Z</time></trkpt><trkpt lat="42.227517" lon="13.2645537"><ele>1162.0</ele><time>2026-05-02T15:58:11.602Z</time></trkpt><trkpt lat="42.2275825" lon="13.2645384"><ele>1162.0</ele><time>2026-05-02T15:58:12.602Z</time></trkpt><trkpt lat="42.2276489" lon="13.2645211"><ele>1162.0</ele><time>2026-05-02T15:58:13.602Z</time></trkpt><trkpt lat="42.2277175" lon="13.2645085"><ele>1162.0</ele><time>2026-05-02T15:58:14.603Z</time></trkpt><trkpt lat="42.2277813" lon="13.2644982"><ele>1162.0</ele><time>2026-05-02T15:58:15.603Z</time></trkpt><trkpt lat="42.2278493" lon="13.2644856"><ele>1162.0</ele><time>2026-05-02T15:58:16.602Z</time></trkpt><trkpt lat="42.227915" lon="13.2644576"><ele>1162.0</ele><time>2026-05-02T15:58:17.602Z</time></trkpt><trkpt lat="42.2279822" lon="13.2644213"><ele>1162.0</ele><time>2026-05-02T15:58:18.602Z</time></trkpt><trkpt lat="42.2280449" lon="13.264392"><ele>1162.0</ele><time>2026-05-02T15:58:19.603Z</time></trkpt><trkpt lat="42.2281128" lon="13.26436"><ele>1162.0</ele><time>2026-05-02T15:58:20.602Z</time></trkpt><trkpt lat="42.228182" lon="13.2643252"><ele>1162.0</ele><time>2026-05-02T15:58:21.602Z</time></trkpt><trkpt lat="42.2282416" lon="13.2642855"><ele>1162.1666666666665</ele><time>2026-05-02T15:58:22.602Z</time></trkpt><trkpt lat="42.2283406" lon="13.264205"><ele>1162.3333333333333</ele><time>2026-05-02T15:58:24.602Z</time></trkpt><trkpt lat="42.2284249" lon="13.264078"><ele>1162.5</ele><time>2026-05-02T15:58:26.602Z</time></trkpt><trkpt lat="42.2284658" lon="13.2640089"><ele>1162.6666666666667</ele><time>2026-05-02T15:58:27.602Z</time></trkpt><trkpt lat="42.2285123" lon="13.263947"><ele>1162.8333333333335</ele><time>2026-05-02T15:58:28.603Z</time></trkpt><trkpt lat="42.2285629" lon="13.263881"><ele>1163.0</ele><time>2026-05-02T15:58:29.602Z</time></trkpt><trkpt lat="42.2286197" lon="13.2638175"><ele>1163.0</ele><time>2026-05-02T15:58:30.602Z</time></trkpt><trkpt lat="42.228682" lon="13.2637586"><ele>1163.0</ele><time>2026-05-02T15:58:31.602Z</time></trkpt><trkpt lat="42.2287396" lon="13.2636969"><ele>1163.0</ele><time>2026-05-02T15:58:32.602Z</time></trkpt><trkpt lat="42.2287931" lon="13.2636328"><ele>1163.0</ele><time>2026-05-02T15:58:33.603Z</time></trkpt><trkpt lat="42.2288427" lon="13.2635774"><ele>1163.0</ele><time>2026-05-02T15:58:34.602Z</time></trkpt><trkpt lat="42.2288961" lon="13.2635237"><ele>1163.0</ele><time>2026-05-02T15:58:35.602Z</time></trkpt><trkpt lat="42.2289517" lon="13.2634733"><ele>1163.0</ele><time>2026-05-02T15:58:36.602Z</time></trkpt><trkpt lat="42.2290093" lon="13.2634183"><ele>1165.4285714285716</ele><time>2026-05-02T15:58:37.602Z</time></trkpt><trkpt lat="42.2290656" lon="13.2633618"><ele>1167.857142857143</ele><time>2026-05-02T15:58:38.603Z</time></trkpt><trkpt lat="42.2291232" lon="13.2633142"><ele>1170.2857142857142</ele><time>2026-05-02T15:58:39.603Z</time></trkpt><trkpt lat="42.2291826" lon="13.2632656"><ele>1172.7142857142858</ele><time>2026-05-02T15:58:40.603Z</time></trkpt><trkpt lat="42.2292399" lon="13.2632152"><ele>1175.142857142857</ele><time>2026-05-02T15:58:41.603Z</time></trkpt><trkpt lat="42.2292883" lon="13.2631604"><ele>1177.5714285714287</ele><time>2026-05-02T15:58:42.602Z</time></trkpt><trkpt lat="42.2293653" lon="13.2630566"><ele>1180.0</ele><time>2026-05-02T15:58:44.602Z</time></trkpt><trkpt lat="42.2294318" lon="13.2629442"><ele>1180.0</ele><time>2026-05-02T15:58:46.602Z</time></trkpt><trkpt lat="42.2294476" lon="13.2627895"><ele>1180.0</ele><time>2026-05-02T15:58:48.602Z</time></trkpt><trkpt lat="42.2294343" lon="13.2627013"><ele>1180.0</ele><time>2026-05-02T15:58:49.602Z</time></trkpt><trkpt lat="42.2294067" lon="13.2626053"><ele>1180.0</ele><time>2026-05-02T15:58:50.603Z</time></trkpt><trkpt lat="42.2293831" lon="13.2625225"><ele>1180.0</ele><time>2026-05-02T15:58:51.602Z</time></trkpt><trkpt lat="42.2293612" lon="13.2624416"><ele>1180.0</ele><time>2026-05-02T15:58:52.602Z</time></trkpt><trkpt lat="42.2293544" lon="13.2622987"><ele>1179.6</ele><time>2026-05-02T15:58:54.602Z</time></trkpt><trkpt lat="42.229403" lon="13.2621882"><ele>1179.2</ele><time>2026-05-02T15:58:56.603Z</time></trkpt><trkpt lat="42.2294983" lon="13.2620628"><ele>1178.8</ele><time>2026-05-02T15:58:58.602Z</time></trkpt><trkpt lat="42.2295814" lon="13.2619352"><ele>1178.4</ele><time>2026-05-02T15:59:00.601Z</time></trkpt><trkpt lat="42.2296149" lon="13.2618623"><ele>1178.0</ele><time>2026-05-02T15:59:01.602Z</time></trkpt><trkpt lat="42.2296481" lon="13.2617846"><ele>1178.0</ele><time>2026-05-02T15:59:02.602Z</time></trkpt><trkpt lat="42.2296961" lon="13.2616419"><ele>1178.0</ele><time>2026-05-02T15:59:04.603Z</time></trkpt><trkpt lat="42.2297236" lon="13.2615212"><ele>1178.0</ele><time>2026-05-02T15:59:06.602Z</time></trkpt><trkpt lat="42.2296998" lon="13.2613975"><ele>1178.0</ele><time>2026-05-02T15:59:08.602Z</time></trkpt><trkpt lat="42.2296605" lon="13.2612738"><ele>1178.0</ele><time>2026-05-02T15:59:10.602Z</time></trkpt><trkpt lat="42.2296416" lon="13.2611556"><ele>1177.2</ele><time>2026-05-02T15:59:12.602Z</time></trkpt><trkpt lat="42.2296505" lon="13.2610274"><ele>1176.4</ele><time>2026-05-02T15:59:14.602Z</time></trkpt><trkpt lat="42.2297001" lon="13.2608976"><ele>1175.6000000000001</ele><time>2026-05-02T15:59:16.602Z</time></trkpt><trkpt lat="42.2298023" lon="13.2608141"><ele>1174.8</ele><time>2026-05-02T15:59:18.602Z</time></trkpt><trkpt lat="42.2299185" lon="13.2607924"><ele>1174.0</ele><time>2026-05-02T15:59:20.603Z</time></trkpt><trkpt lat="42.2299837" lon="13.2607987"><ele>1178.6000000000001</ele><time>2026-05-02T15:59:21.603Z</time></trkpt><trkpt lat="42.2301017" lon="13.2608356"><ele>1183.2</ele><time>2026-05-02T15:59:23.602Z</time></trkpt><trkpt lat="42.2301647" lon="13.2608619"><ele>1187.8000000000002</ele><time>2026-05-02T15:59:24.602Z</time></trkpt><trkpt lat="42.230231" lon="13.2609003"><ele>1192.4</ele><time>2026-05-02T15:59:25.603Z</time></trkpt><trkpt lat="42.2303465" lon="13.2609452"><ele>1197.0</ele><time>2026-05-02T15:59:27.602Z</time></trkpt><trkpt lat="42.2304651" lon="13.260943"><ele>1197.0</ele><time>2026-05-02T15:59:29.602Z</time></trkpt><trkpt lat="42.2305144" lon="13.2608853"><ele>1197.0</ele><time>2026-05-02T15:59:30.602Z</time></trkpt><trkpt lat="42.2305804" lon="13.2608259"><ele>1197.0</ele><time>2026-05-02T15:59:31.602Z</time></trkpt><trkpt lat="42.2306376" lon="13.2607694"><ele>1197.0</ele><time>2026-05-02T15:59:32.603Z</time></trkpt><trkpt lat="42.2306946" lon="13.2606843"><ele>1197.0</ele><time>2026-05-02T15:59:33.602Z</time></trkpt><trkpt lat="42.2307396" lon="13.2606051"><ele>1197.0</ele><time>2026-05-02T15:59:34.602Z</time></trkpt><trkpt lat="42.2307888" lon="13.2605434"><ele>1197.0</ele><time>2026-05-02T15:59:35.603Z</time></trkpt><trkpt lat="42.2308521" lon="13.2604985"><ele>1195.8333333333333</ele><time>2026-05-02T15:59:36.602Z</time></trkpt><trkpt lat="42.2309605" lon="13.260429"><ele>1194.6666666666667</ele><time>2026-05-02T15:59:38.602Z</time></trkpt><trkpt lat="42.2310394" lon="13.2604324"><ele>1193.5</ele><time>2026-05-02T15:59:39.603Z</time></trkpt><trkpt lat="42.2311022" lon="13.2604453"><ele>1192.3333333333335</ele><time>2026-05-02T15:59:40.602Z</time></trkpt><trkpt lat="42.2311773" lon="13.2604422"><ele>1191.1666666666667</ele><time>2026-05-02T15:59:41.602Z</time></trkpt><trkpt lat="42.2312459" lon="13.2604411"><ele>1190.0</ele><time>2026-05-02T15:59:42.602Z</time></trkpt><trkpt lat="42.2313227" lon="13.2604522"><ele>1190.0</ele><time>2026-05-02T15:59:43.603Z</time></trkpt><trkpt lat="42.231392" lon="13.2604659"><ele>1190.0</ele><time>2026-05-02T15:59:44.602Z</time></trkpt><trkpt lat="42.2314961" lon="13.2604679"><ele>1190.0</ele><time>2026-05-02T15:59:46.603Z</time></trkpt><trkpt lat="42.2315973" lon="13.2605193"><ele>1190.0</ele><time>2026-05-02T15:59:48.602Z</time></trkpt><trkpt lat="42.2317018" lon="13.2606021"><ele>1190.0</ele><time>2026-05-02T15:59:50.602Z</time></trkpt><trkpt lat="42.2318084" lon="13.2606708"><ele>1194.0</ele><time>2026-05-02T15:59:52.603Z</time></trkpt><trkpt lat="42.2319191" lon="13.2607389"><ele>1198.0</ele><time>2026-05-02T15:59:54.602Z</time></trkpt><trkpt lat="42.232038" lon="13.2607892"><ele>1202.0</ele><time>2026-05-02T15:59:56.602Z</time></trkpt><trkpt lat="42.2321084" lon="13.2608211"><ele>1206.0</ele><time>2026-05-02T15:59:57.602Z</time></trkpt><trkpt lat="42.2321787" lon="13.2608633"><ele>1210.0</ele><time>2026-05-02T15:59:58.603Z</time></trkpt><trkpt lat="42.232249" lon="13.2609097"><ele>1208.8333333333333</ele><time>2026-05-02T15:59:59.602Z</time></trkpt><trkpt lat="42.2323085" lon="13.2609517"><ele>1207.6666666666665</ele><time>2026-05-02T16:00:00.602Z</time></trkpt><trkpt lat="42.2323846" lon="13.2609978"><ele>1206.5</ele><time>2026-05-02T16:00:01.603Z</time></trkpt><trkpt lat="42.2324417" lon="13.2610533"><ele>1205.3333333333333</ele><time>2026-05-02T16:00:02.603Z</time></trkpt><trkpt lat="42.2325054" lon="13.2610875"><ele>1204.1666666666667</ele><time>2026-05-02T16:00:03.602Z</time></trkpt><trkpt lat="42.2325652" lon="13.2611355"><ele>1203.0</ele><time>2026-05-02T16:00:04.603Z</time></trkpt><trkpt lat="42.2326616" lon="13.261208"><ele>1203.0</ele><time>2026-05-02T16:00:06.602Z</time></trkpt><trkpt lat="42.2327826" lon="13.2612869"><ele>1203.0</ele><time>2026-05-02T16:00:08.603Z</time></trkpt><trkpt lat="42.2328346" lon="13.2613447"><ele>1203.0</ele><time>2026-05-02T16:00:09.602Z</time></trkpt><trkpt lat="42.2328923" lon="13.261387"><ele>1203.0</ele><time>2026-05-02T16:00:10.603Z</time></trkpt><trkpt lat="42.2329422" lon="13.2614397"><ele>1203.0</ele><time>2026-05-02T16:00:11.603Z</time></trkpt><trkpt lat="42.2329994" lon="13.2614832"><ele>1203.0</ele><time>2026-05-02T16:00:12.602Z</time></trkpt><trkpt lat="42.2330986" lon="13.2616104"><ele>1203.5</ele><time>2026-05-02T16:00:14.602Z</time></trkpt><trkpt lat="42.2331546" lon="13.2616863"><ele>1204.0</ele><time>2026-05-02T16:00:15.603Z</time></trkpt><trkpt lat="42.2332042" lon="13.2617593"><ele>1204.5</ele><time>2026-05-02T16:00:16.602Z</time></trkpt><trkpt lat="42.2333129" lon="13.2618329"><ele>1205.0</ele><time>2026-05-02T16:00:18.602Z</time></trkpt><trkpt lat="42.2333933" lon="13.2618622"><ele>1205.5</ele><time>2026-05-02T16:00:19.602Z</time></trkpt><trkpt lat="42.2334518" lon="13.2619002"><ele>1206.0</ele><time>2026-05-02T16:00:20.602Z</time></trkpt><trkpt lat="42.2335314" lon="13.261934"><ele>1206.0</ele><time>2026-05-02T16:00:21.602Z</time></trkpt><trkpt lat="42.2335978" lon="13.261971"><ele>1206.0</ele><time>2026-05-02T16:00:22.602Z</time></trkpt><trkpt lat="42.2336995" lon="13.2620293"><ele>1206.0</ele><time>2026-05-02T16:00:24.603Z</time></trkpt><trkpt lat="42.2337647" lon="13.2620847"><ele>1206.0</ele><time>2026-05-02T16:00:25.603Z</time></trkpt><trkpt lat="42.2338626" lon="13.2621476"><ele>1206.0</ele><time>2026-05-02T16:00:27.602Z</time></trkpt><trkpt lat="42.2339974" lon="13.2621637"><ele>1204.75</ele><time>2026-05-02T16:00:29.602Z</time></trkpt><trkpt lat="42.2341124" lon="13.2620954"><ele>1203.5</ele><time>2026-05-02T16:00:31.602Z</time></trkpt><trkpt lat="42.2342172" lon="13.2620509"><ele>1202.25</ele><time>2026-05-02T16:00:33.602Z</time></trkpt><trkpt lat="42.2343087" lon="13.2619952"><ele>1201.0</ele><time>2026-05-02T16:00:35.602Z</time></trkpt><trkpt lat="42.2344171" lon="13.2619452"><ele>1201.0000000000002</ele><time>2026-05-02T16:00:37.602Z</time></trkpt><trkpt lat="42.2344796" lon="13.2619141"><ele>1201.0</ele><time>2026-05-02T16:00:38.602Z</time></trkpt><trkpt lat="42.2345405" lon="13.2618777"><ele>1201.0</ele><time>2026-05-02T16:00:39.602Z</time></trkpt><trkpt lat="42.2346067" lon="13.2618374"><ele>1201.0</ele><time>2026-05-02T16:00:40.603Z</time></trkpt><trkpt lat="42.2346796" lon="13.2617972"><ele>1201.0</ele><time>2026-05-02T16:00:41.603Z</time></trkpt><trkpt lat="42.2347507" lon="13.2617557"><ele>1201.0000000000002</ele><time>2026-05-02T16:00:42.602Z</time></trkpt><trkpt lat="42.2348175" lon="13.2617155"><ele>1201.0</ele><time>2026-05-02T16:00:43.602Z</time></trkpt><trkpt lat="42.2348847" lon="13.2616848"><ele>1203.3333333333333</ele><time>2026-05-02T16:00:44.603Z</time></trkpt><trkpt lat="42.2349462" lon="13.2616554"><ele>1205.6666666666665</ele><time>2026-05-02T16:00:45.602Z</time></trkpt><trkpt lat="42.2350103" lon="13.2616261"><ele>1208.0</ele><time>2026-05-02T16:00:46.602Z</time></trkpt><trkpt lat="42.2350715" lon="13.2615986"><ele>1210.3333333333333</ele><time>2026-05-02T16:00:47.602Z</time></trkpt><trkpt lat="42.2351325" lon="13.2615765"><ele>1212.6666666666667</ele><time>2026-05-02T16:00:48.602Z</time></trkpt><trkpt lat="42.2352501" lon="13.2615506"><ele>1215.0</ele><time>2026-05-02T16:00:50.602Z</time></trkpt><trkpt lat="42.2353504" lon="13.2614924"><ele>1216.6</ele><time>2026-05-02T16:00:52.602Z</time></trkpt><trkpt lat="42.2354399" lon="13.261417"><ele>1218.2</ele><time>2026-05-02T16:00:54.603Z</time></trkpt><trkpt lat="42.2355356" lon="13.2613174"><ele>1219.8</ele><time>2026-05-02T16:00:56.603Z</time></trkpt><trkpt lat="42.2355907" lon="13.2612732"><ele>1221.4</ele><time>2026-05-02T16:00:57.602Z</time></trkpt><trkpt lat="42.2356619" lon="13.2612005"><ele>1223.0</ele><time>2026-05-02T16:00:58.603Z</time></trkpt><trkpt lat="42.235742" lon="13.2611404"><ele>1223.0</ele><time>2026-05-02T16:00:59.602Z</time></trkpt><trkpt lat="42.2358152" lon="13.2610871"><ele>1223.0</ele><time>2026-05-02T16:01:00.602Z</time></trkpt><trkpt lat="42.2358815" lon="13.2610455"><ele>1223.0</ele><time>2026-05-02T16:01:01.602Z</time></trkpt><trkpt lat="42.235953" lon="13.2610141"><ele>1223.0</ele><time>2026-05-02T16:01:02.602Z</time></trkpt><trkpt lat="42.2360269" lon="13.2609928"><ele>1223.0</ele><time>2026-05-02T16:01:03.602Z</time></trkpt><trkpt lat="42.2360938" lon="13.2609817"><ele>1223.0</ele><time>2026-05-02T16:01:04.603Z</time></trkpt><trkpt lat="42.2361767" lon="13.2609646"><ele>1223.0</ele><time>2026-05-02T16:01:05.603Z</time></trkpt><trkpt lat="42.2362475" lon="13.2609264"><ele>1223.0</ele><time>2026-05-02T16:01:06.602Z</time></trkpt><trkpt lat="42.2363179" lon="13.2609015"><ele>1223.0</ele><time>2026-05-02T16:01:07.602Z</time></trkpt><trkpt lat="42.2363906" lon="13.2608808"><ele>1223.0</ele><time>2026-05-02T16:01:08.602Z</time></trkpt><trkpt lat="42.2364643" lon="13.2608607"><ele>1223.0</ele><time>2026-05-02T16:01:09.602Z</time></trkpt><trkpt lat="42.2365349" lon="13.2608312"><ele>1223.0</ele><time>2026-05-02T16:01:10.602Z</time></trkpt><trkpt lat="42.2366102" lon="13.2607931"><ele>1223.5714285714284</ele><time>2026-05-02T16:01:11.602Z</time></trkpt><trkpt lat="42.2366876" lon="13.2607484"><ele>1224.1428571428573</ele><time>2026-05-02T16:01:12.603Z</time></trkpt><trkpt lat="42.2367563" lon="13.2606952"><ele>1224.7142857142858</ele><time>2026-05-02T16:01:13.603Z</time></trkpt><trkpt lat="42.23683" lon="13.2606604"><ele>1225.2857142857142</ele><time>2026-05-02T16:01:14.602Z</time></trkpt><trkpt lat="42.2368921" lon="13.2606278"><ele>1225.8571428571427</ele><time>2026-05-02T16:01:15.602Z</time></trkpt><trkpt lat="42.2369586" lon="13.2606114"><ele>1226.4285714285716</ele><time>2026-05-02T16:01:16.602Z</time></trkpt><trkpt lat="42.2370279" lon="13.2606111"><ele>1227.0</ele><time>2026-05-02T16:01:17.603Z</time></trkpt><trkpt lat="42.2371034" lon="13.2606209"><ele>1227.0</ele><time>2026-05-02T16:01:18.602Z</time></trkpt><trkpt lat="42.2371728" lon="13.2606403"><ele>1227.0</ele><time>2026-05-02T16:01:19.603Z</time></trkpt><trkpt lat="42.2372432" lon="13.2606663"><ele>1227.0</ele><time>2026-05-02T16:01:20.602Z</time></trkpt><trkpt lat="42.2373137" lon="13.2606891"><ele>1227.0</ele><time>2026-05-02T16:01:21.603Z</time></trkpt><trkpt lat="42.237386" lon="13.2606933"><ele>1227.0</ele><time>2026-05-02T16:01:22.602Z</time></trkpt><trkpt lat="42.2374604" lon="13.2606805"><ele>1227.0</ele><time>2026-05-02T16:01:23.602Z</time></trkpt><trkpt lat="42.2375361" lon="13.2606651"><ele>1227.0</ele><time>2026-05-02T16:01:24.602Z</time></trkpt><trkpt lat="42.2376086" lon="13.2606544"><ele>1226.857142857143</ele><time>2026-05-02T16:01:25.602Z</time></trkpt><trkpt lat="42.2376808" lon="13.2606556"><ele>1226.7142857142856</ele><time>2026-05-02T16:01:26.603Z</time></trkpt><trkpt lat="42.2377555" lon="13.2606501"><ele>1226.5714285714284</ele><time>2026-05-02T16:01:27.603Z</time></trkpt><trkpt lat="42.2378279" lon="13.2606302"><ele>1226.4285714285716</ele><time>2026-05-02T16:01:28.602Z</time></trkpt><trkpt lat="42.2378932" lon="13.2606018"><ele>1226.2857142857142</ele><time>2026-05-02T16:01:29.602Z</time></trkpt><trkpt lat="42.237953" lon="13.2605689"><ele>1226.142857142857</ele><time>2026-05-02T16:01:30.602Z</time></trkpt><trkpt lat="42.2380134" lon="13.2605304"><ele>1226.0</ele><time>2026-05-02T16:01:31.602Z</time></trkpt><trkpt lat="42.2380773" lon="13.2605066"><ele>1225.1666666666667</ele><time>2026-05-02T16:01:32.603Z</time></trkpt><trkpt lat="42.2381474" lon="13.2604976"><ele>1224.3333333333335</ele><time>2026-05-02T16:01:33.602Z</time></trkpt><trkpt lat="42.2382163" lon="13.2604918"><ele>1223.5</ele><time>2026-05-02T16:01:34.602Z</time></trkpt><trkpt lat="42.2382877" lon="13.2604813"><ele>1222.6666666666667</ele><time>2026-05-02T16:01:35.602Z</time></trkpt><trkpt lat="42.2384092" lon="13.260451"><ele>1221.8333333333333</ele><time>2026-05-02T16:01:37.602Z</time></trkpt><trkpt lat="42.2384731" lon="13.260421"><ele>1221.0</ele><time>2026-05-02T16:01:38.603Z</time></trkpt><trkpt lat="42.2385339" lon="13.2603759"><ele>1221.0</ele><time>2026-05-02T16:01:39.602Z</time></trkpt><trkpt lat="42.2385906" lon="13.2603197"><ele>1221.0</ele><time>2026-05-02T16:01:40.602Z</time></trkpt><trkpt lat="42.2386885" lon="13.260226"><ele>1221.0</ele><time>2026-05-02T16:01:42.602Z</time></trkpt><trkpt lat="42.2388064" lon="13.2601823"><ele>1221.0</ele><time>2026-05-02T16:01:44.602Z</time></trkpt><trkpt lat="42.2389301" lon="13.2602069"><ele>1221.0</ele><time>2026-05-02T16:01:46.602Z</time></trkpt><trkpt lat="42.2390403" lon="13.2602937"><ele>1220.1666666666667</ele><time>2026-05-02T16:01:48.603Z</time></trkpt><trkpt lat="42.2391015" lon="13.2603723"><ele>1219.3333333333333</ele><time>2026-05-02T16:01:49.602Z</time></trkpt><trkpt lat="42.2391659" lon="13.260435"><ele>1218.5</ele><time>2026-05-02T16:01:50.603Z</time></trkpt><trkpt lat="42.2392388" lon="13.2604871"><ele>1217.6666666666665</ele><time>2026-05-02T16:01:51.603Z</time></trkpt><trkpt lat="42.2393242" lon="13.2605389"><ele>1216.8333333333333</ele><time>2026-05-02T16:01:52.602Z</time></trkpt><trkpt lat="42.2393962" lon="13.2605971"><ele>1216.0</ele><time>2026-05-02T16:01:53.603Z</time></trkpt><trkpt lat="42.239469" lon="13.2606539"><ele>1218.1666666666665</ele><time>2026-05-02T16:01:54.602Z</time></trkpt><trkpt lat="42.2395369" lon="13.2607074"><ele>1220.3333333333333</ele><time>2026-05-02T16:01:55.602Z</time></trkpt><trkpt lat="42.2396133" lon="13.2607501"><ele>1222.5</ele><time>2026-05-02T16:01:56.602Z</time></trkpt><trkpt lat="42.2396939" lon="13.2607822"><ele>1224.6666666666667</ele><time>2026-05-02T16:01:57.603Z</time></trkpt><trkpt lat="42.2397684" lon="13.2607957"><ele>1226.8333333333335</ele><time>2026-05-02T16:01:58.602Z</time></trkpt><trkpt lat="42.2398347" lon="13.2608071"><ele>1229.0</ele><time>2026-05-02T16:01:59.603Z</time></trkpt><trkpt lat="42.2399584" lon="13.2608096"><ele>1229.0</ele><time>2026-05-02T16:02:01.602Z</time></trkpt><trkpt lat="42.2400328" lon="13.2607984"><ele>1229.0</ele><time>2026-05-02T16:02:02.602Z</time></trkpt><trkpt lat="42.2401105" lon="13.2607461"><ele>1229.0</ele><time>2026-05-02T16:02:03.602Z</time></trkpt><trkpt lat="42.2401895" lon="13.2607243"><ele>1229.0</ele><time>2026-05-02T16:02:04.602Z</time></trkpt><trkpt lat="42.2402653" lon="13.2606914"><ele>1229.0</ele><time>2026-05-02T16:02:05.602Z</time></trkpt><trkpt lat="42.2403405" lon="13.2606615"><ele>1229.0</ele><time>2026-05-02T16:02:06.603Z</time></trkpt><trkpt lat="42.240422" lon="13.2606266"><ele>1227.3333333333335</ele><time>2026-05-02T16:02:07.602Z</time></trkpt><trkpt lat="42.240502" lon="13.2605965"><ele>1225.6666666666667</ele><time>2026-05-02T16:02:08.602Z</time></trkpt><trkpt lat="42.2405698" lon="13.2605743"><ele>1224.0</ele><time>2026-05-02T16:02:09.602Z</time></trkpt><trkpt lat="42.2406402" lon="13.2605672"><ele>1222.3333333333333</ele><time>2026-05-02T16:02:10.602Z</time></trkpt><trkpt lat="42.2407158" lon="13.2605647"><ele>1220.6666666666665</ele><time>2026-05-02T16:02:11.602Z</time></trkpt><trkpt lat="42.2407787" lon="13.2605515"><ele>1219.0</ele><time>2026-05-02T16:02:12.602Z</time></trkpt><trkpt lat="42.2408611" lon="13.2605117"><ele>1219.0</ele><time>2026-05-02T16:02:14.602Z</time></trkpt><trkpt lat="42.2409386" lon="13.2604635"><ele>1219.0</ele><time>2026-05-02T16:02:16.602Z</time></trkpt><trkpt lat="42.2410065" lon="13.2604532"><ele>1219.0</ele><time>2026-05-02T16:02:18.602Z</time></trkpt><trkpt lat="42.24109" lon="13.2604168"><ele>1219.0</ele><time>2026-05-02T16:02:20.602Z</time></trkpt><trkpt lat="42.2411704" lon="13.2603477"><ele>1219.0</ele><time>2026-05-02T16:02:22.602Z</time></trkpt><trkpt lat="42.2412501" lon="13.2602694"><ele>1219.0</ele><time>2026-05-02T16:02:24.602Z</time></trkpt><trkpt lat="42.2413234" lon="13.2601777"><ele>1219.0</ele><time>2026-05-02T16:02:26.603Z</time></trkpt><trkpt lat="42.2413747" lon="13.2600918"><ele>1219.0</ele><time>2026-05-02T16:02:28.602Z</time></trkpt><trkpt lat="42.2414578" lon="13.260033"><ele>1219.0</ele><time>2026-05-02T16:02:31.603Z</time></trkpt><trkpt lat="42.2415464" lon="13.2600292"><ele>1219.0</ele><time>2026-05-02T16:02:33.602Z</time></trkpt><trkpt lat="42.241646" lon="13.260022"><ele>1219.0</ele><time>2026-05-02T16:02:35.602Z</time></trkpt><trkpt lat="42.2417098" lon="13.2600306"><ele>1219.0</ele><time>2026-05-02T16:02:36.602Z</time></trkpt><trkpt lat="42.2417853" lon="13.2600478"><ele>1221.3333333333333</ele><time>2026-05-02T16:02:38.602Z</time></trkpt><trkpt lat="42.2418467" lon="13.2600686"><ele>1223.6666666666665</ele><time>2026-05-02T16:02:40.603Z</time></trkpt><trkpt lat="42.2419117" lon="13.2600317"><ele>1226.0</ele><time>2026-05-02T16:02:55.602Z</time></trkpt><trkpt lat="42.2419832" lon="13.2599683"><ele>1228.3333333333333</ele><time>2026-05-02T16:02:57.603Z</time></trkpt><trkpt lat="42.2420885" lon="13.2599012"><ele>1230.6666666666667</ele><time>2026-05-02T16:02:59.602Z</time></trkpt><trkpt lat="42.2421636" lon="13.2598701"><ele>1233.0</ele><time>2026-05-02T16:03:00.602Z</time></trkpt><trkpt lat="42.2422335" lon="13.2598437"><ele>1232.0</ele><time>2026-05-02T16:03:01.602Z</time></trkpt><trkpt lat="42.2423022" lon="13.2598275"><ele>1231.0</ele><time>2026-05-02T16:03:02.603Z</time></trkpt><trkpt lat="42.2423675" lon="13.2597955"><ele>1230.0</ele><time>2026-05-02T16:03:03.603Z</time></trkpt><trkpt lat="42.2424255" lon="13.2597612"><ele>1229.0</ele><time>2026-05-02T16:03:04.602Z</time></trkpt><trkpt lat="42.2424859" lon="13.2597136"><ele>1228.0</ele><time>2026-05-02T16:03:05.602Z</time></trkpt><trkpt lat="42.2426038" lon="13.2596861"><ele>1227.0</ele><time>2026-05-02T16:03:07.602Z</time></trkpt><trkpt lat="42.242672" lon="13.2596864"><ele>1227.0</ele><time>2026-05-02T16:03:08.602Z</time></trkpt><trkpt lat="42.242752" lon="13.2596933"><ele>1227.0</ele><time>2026-05-02T16:03:09.602Z</time></trkpt><trkpt lat="42.2428143" lon="13.2596786"><ele>1227.0</ele><time>2026-05-02T16:03:10.603Z</time></trkpt><trkpt lat="42.242882" lon="13.2596685"><ele>1227.0</ele><time>2026-05-02T16:03:11.602Z</time></trkpt><trkpt lat="42.2429484" lon="13.2596508"><ele>1227.0</ele><time>2026-05-02T16:03:12.603Z</time></trkpt><trkpt lat="42.2430106" lon="13.2596268"><ele>1227.0</ele><time>2026-05-02T16:03:13.602Z</time></trkpt><trkpt lat="42.2430993" lon="13.2595809"><ele>1227.0</ele><time>2026-05-02T16:03:15.601Z</time></trkpt><trkpt lat="42.2431785" lon="13.2595082"><ele>1230.4</ele><time>2026-05-02T16:03:17.603Z</time></trkpt><trkpt lat="42.2432428" lon="13.2594256"><ele>1233.8000000000002</ele><time>2026-05-02T16:03:19.603Z</time></trkpt><trkpt lat="42.2433402" lon="13.2593567"><ele>1237.2</ele><time>2026-05-02T16:03:21.602Z</time></trkpt><trkpt lat="42.2434199" lon="13.2592698"><ele>1240.6000000000001</ele><time>2026-05-02T16:03:23.602Z</time></trkpt><trkpt lat="42.2435058" lon="13.2592079"><ele>1244.0</ele><time>2026-05-02T16:03:25.602Z</time></trkpt><trkpt lat="42.2436289" lon="13.2591365"><ele>1244.0</ele><time>2026-05-02T16:03:27.603Z</time></trkpt><trkpt lat="42.2437061" lon="13.2590858"><ele>1244.0</ele><time>2026-05-02T16:03:28.602Z</time></trkpt><trkpt lat="42.2437737" lon="13.2590493"><ele>1244.0</ele><time>2026-05-02T16:03:29.602Z</time></trkpt><trkpt lat="42.2438332" lon="13.2590081"><ele>1244.0</ele><time>2026-05-02T16:03:30.602Z</time></trkpt><trkpt lat="42.2438848" lon="13.258956"><ele>1244.0</ele><time>2026-05-02T16:03:31.602Z</time></trkpt><trkpt lat="42.2439402" lon="13.2588949"><ele>1244.0</ele><time>2026-05-02T16:03:32.602Z</time></trkpt><trkpt lat="42.2439798" lon="13.2588096"><ele>1244.0</ele><time>2026-05-02T16:03:33.602Z</time></trkpt><trkpt lat="42.2440622" lon="13.2586925"><ele>1245.4</ele><time>2026-05-02T16:03:35.601Z</time></trkpt><trkpt lat="42.2441686" lon="13.2586104"><ele>1246.8000000000002</ele><time>2026-05-02T16:03:37.602Z</time></trkpt><trkpt lat="42.2442294" lon="13.2585858"><ele>1248.1999999999998</ele><time>2026-05-02T16:03:38.602Z</time></trkpt><trkpt lat="42.2443498" lon="13.2585526"><ele>1249.6</ele><time>2026-05-02T16:03:40.602Z</time></trkpt><trkpt lat="42.2444764" lon="13.2585439"><ele>1251.0</ele><time>2026-05-02T16:03:42.603Z</time></trkpt><trkpt lat="42.2445397" lon="13.2585571"><ele>1251.0</ele><time>2026-05-02T16:03:43.603Z</time></trkpt><trkpt lat="42.2446656" lon="13.2586186"><ele>1251.0</ele><time>2026-05-02T16:03:45.602Z</time></trkpt><trkpt lat="42.2447311" lon="13.2586587"><ele>1251.0</ele><time>2026-05-02T16:03:46.603Z</time></trkpt><trkpt lat="42.2447903" lon="13.2587035"><ele>1251.0</ele><time>2026-05-02T16:03:47.603Z</time></trkpt><trkpt lat="42.2448929" lon="13.2587808"><ele>1251.0</ele><time>2026-05-02T16:03:49.603Z</time></trkpt><trkpt lat="42.2449427" lon="13.2588354"><ele>1250.5</ele><time>2026-05-02T16:03:50.603Z</time></trkpt><trkpt lat="42.245004" lon="13.2588971"><ele>1250.0</ele><time>2026-05-02T16:03:51.602Z</time></trkpt><trkpt lat="42.2450696" lon="13.2589623"><ele>1249.5</ele><time>2026-05-02T16:03:52.602Z</time></trkpt><trkpt lat="42.2451324" lon="13.2590256"><ele>1249.0</ele><time>2026-05-02T16:03:53.603Z</time></trkpt><trkpt lat="42.245195" lon="13.2590845"><ele>1248.5</ele><time>2026-05-02T16:03:54.603Z</time></trkpt><trkpt lat="42.2452621" lon="13.2591293"><ele>1248.0</ele><time>2026-05-02T16:03:55.603Z</time></trkpt><trkpt lat="42.2453367" lon="13.2591681"><ele>1247.2</ele><time>2026-05-02T16:03:56.603Z</time></trkpt><trkpt lat="42.2454174" lon="13.2592066"><ele>1246.4</ele><time>2026-05-02T16:03:57.603Z</time></trkpt><trkpt lat="42.245497" lon="13.2592414"><ele>1245.6000000000001</ele><time>2026-05-02T16:03:58.602Z</time></trkpt><trkpt lat="42.2455643" lon="13.2592658"><ele>1244.8</ele><time>2026-05-02T16:03:59.603Z</time></trkpt><trkpt lat="42.2456266" lon="13.2592829"><ele>1244.0</ele><time>2026-05-02T16:04:00.602Z</time></trkpt><trkpt lat="42.2438332" lon="13.2590081"><ele>1244.0</ele><time>2026-05-02T16:03:30.602Z</time></trkpt><trkpt lat="42.2438848" lon="13.258956"><ele>1244.0</ele><time>2026-05-02T16:03:31.602Z</time></trkpt><trkpt lat="42.2439402" lon="13.2588949"><ele>1244.0</ele><time>2026-05-02T16:03:32.602Z</time></trkpt><trkpt lat="42.2439798" lon="13.2588096"><ele>1244.0</ele><time>2026-05-02T16:03:33.602Z</time></trkpt><trkpt lat="42.2440622" lon="13.2586925"><ele>1244.0</ele><time>2026-05-02T16:03:35.601Z</time></trkpt><trkpt lat="42.2441686" lon="13.2586104"><ele>1245.4</ele><time>2026-05-02T16:03:37.602Z</time></trkpt><trkpt lat="42.2442294" lon="13.2585858"><ele>1246.8000000000002</ele><time>2026-05-02T16:03:38.602Z</time></trkpt><trkpt lat="42.2443498" lon="13.2585526"><ele>1248.1999999999998</ele><time>2026-05-02T16:03:40.602Z</time></trkpt><trkpt lat="42.2444764" lon="13.2585439"><ele>1249.6</ele><time>2026-05-02T16:03:42.603Z</time></trkpt><trkpt lat="42.2445397" lon="13.2585571"><ele>1251.0</ele><time>2026-05-02T16:03:43.603Z</time></trkpt><trkpt lat="42.2446656" lon="13.2586186"><ele>1251.0</ele><time>2026-05-02T16:03:45.602Z</time></trkpt><trkpt lat="42.2447311" lon="13.2586587"><ele>1251.0</ele><time>2026-05-02T16:03:46.603Z</time></trkpt><trkpt lat="42.2447903" lon="13.2587035"><ele>1251.0</ele><time>2026-05-02T16:03:47.603Z</time></trkpt><trkpt lat="42.2448929" lon="13.2587808"><ele>1251.0</ele><time>2026-05-02T16:03:49.603Z</time></trkpt><trkpt lat="42.2449427" lon="13.2588354"><ele>1251.0</ele><time>2026-05-02T16:03:50.603Z</time></trkpt><trkpt lat="42.245004" lon="13.2588971"><ele>1251.0</ele><time>2026-05-02T16:03:51.602Z</time></trkpt><trkpt lat="42.2450696" lon="13.2589623"><ele>1251.6666666666667</ele><time>2026-05-02T16:03:52.602Z</time></trkpt><trkpt lat="42.2451324" lon="13.2590256"><ele>1252.3333333333333</ele><time>2026-05-02T16:03:53.603Z</time></trkpt><trkpt lat="42.245195" lon="13.2590845"><ele>1253.0</ele><time>2026-05-02T16:03:54.603Z</time></trkpt><trkpt lat="42.2452621" lon="13.2591293"><ele>1253.6666666666665</ele><time>2026-05-02T16:03:55.603Z</time></trkpt><trkpt lat="42.2453367" lon="13.2591681"><ele>1254.3333333333333</ele><time>2026-05-02T16:03:56.603Z</time></trkpt><trkpt lat="42.2454174" lon="13.2592066"><ele>1255.0</ele><time>2026-05-02T16:03:57.603Z</time></trkpt><trkpt lat="42.245497" lon="13.2592414"><ele>1255.0</ele><time>2026-05-02T16:03:58.602Z</time></trkpt><trkpt lat="42.2455643" lon="13.2592658"><ele>1255.0</ele><time>2026-05-02T16:03:59.603Z</time></trkpt><trkpt lat="42.2456266" lon="13.2592829"><ele>1255.0</ele><time>2026-05-02T16:04:00.602Z</time></trkpt><trkpt lat="42.2456909" lon="13.2593015"><ele>1255.0</ele><time>2026-05-02T16:04:01.602Z</time></trkpt><trkpt lat="42.2457556" lon="13.2593218"><ele>1255.0</ele><time>2026-05-02T16:04:02.602Z</time></trkpt><trkpt lat="42.2458698" lon="13.2593627"><ele>1255.0</ele><time>2026-05-02T16:04:04.602Z</time></trkpt><trkpt lat="42.2459774" lon="13.2594163"><ele>1254.8</ele><time>2026-05-02T16:04:06.603Z</time></trkpt><trkpt lat="42.2460907" lon="13.2594623"><ele>1254.6</ele><time>2026-05-02T16:04:08.603Z</time></trkpt><trkpt lat="42.2461774" lon="13.2595439"><ele>1254.4</ele><time>2026-05-02T16:04:10.602Z</time></trkpt><trkpt lat="42.2462289" lon="13.2596429"><ele>1254.2</ele><time>2026-05-02T16:04:12.602Z</time></trkpt><trkpt lat="42.2462426" lon="13.2597288"><ele>1254.0</ele><time>2026-05-02T16:04:14.602Z</time></trkpt><trkpt lat="42.2462382" lon="13.2598446"><ele>1257.0</ele><time>2026-05-02T16:04:16.602Z</time></trkpt><trkpt lat="42.2462261" lon="13.2599439"><ele>1260.0</ele><time>2026-05-02T16:04:18.603Z</time></trkpt><trkpt lat="42.2462499" lon="13.2600367"><ele>1263.0</ele><time>2026-05-02T16:04:20.602Z</time></trkpt><trkpt lat="42.2463053" lon="13.2601055"><ele>1266.0</ele><time>2026-05-02T16:04:22.603Z</time></trkpt><trkpt lat="42.2464193" lon="13.2601196"><ele>1269.0</ele><time>2026-05-02T16:04:24.602Z</time></trkpt><trkpt lat="42.2464911" lon="13.2601209"><ele>1272.0</ele><time>2026-05-02T16:04:25.602Z</time></trkpt><trkpt lat="42.2465578" lon="13.2601175"><ele>1271.1666666666667</ele><time>2026-05-02T16:04:26.603Z</time></trkpt><trkpt lat="42.2466217" lon="13.2601022"><ele>1270.3333333333333</ele><time>2026-05-02T16:04:27.603Z</time></trkpt><trkpt lat="42.2466864" lon="13.260066"><ele>1269.5</ele><time>2026-05-02T16:04:28.602Z</time></trkpt><trkpt lat="42.2467473" lon="13.2600158"><ele>1268.6666666666665</ele><time>2026-05-02T16:04:29.602Z</time></trkpt><trkpt lat="42.2467991" lon="13.2599643"><ele>1267.8333333333333</ele><time>2026-05-02T16:04:30.602Z</time></trkpt><trkpt lat="42.2468802" lon="13.2598513"><ele>1267.0</ele><time>2026-05-02T16:04:32.602Z</time></trkpt><trkpt lat="42.2469409" lon="13.2597523"><ele>1267.0</ele><time>2026-05-02T16:04:34.602Z</time></trkpt><trkpt lat="42.2470211" lon="13.2597117"><ele>1267.0</ele><time>2026-05-02T16:04:37.602Z</time></trkpt><trkpt lat="42.2470828" lon="13.2597818"><ele>1267.0</ele><time>2026-05-02T16:04:39.602Z</time></trkpt><trkpt lat="42.2471091" lon="13.2598964"><ele>1267.0</ele><time>2026-05-02T16:04:41.602Z</time></trkpt><trkpt lat="42.247091" lon="13.2600305"><ele>1267.0</ele><time>2026-05-02T16:04:43.602Z</time></trkpt><trkpt lat="42.2470567" lon="13.2601733"><ele>1268.8333333333333</ele><time>2026-05-02T16:04:45.602Z</time></trkpt><trkpt lat="42.2470587" lon="13.2602706"><ele>1270.6666666666665</ele><time>2026-05-02T16:04:47.602Z</time></trkpt><trkpt lat="42.2471346" lon="13.2603424"><ele>1272.5</ele><time>2026-05-02T16:04:50.603Z</time></trkpt><trkpt lat="42.2472039" lon="13.2603402"><ele>1274.3333333333333</ele><time>2026-05-02T16:04:52.602Z</time></trkpt><trkpt lat="42.2472773" lon="13.2601923"><ele>1276.1666666666667</ele><time>2026-05-02T16:04:55.602Z</time></trkpt><trkpt lat="42.247309" lon="13.2601002"><ele>1278.0</ele><time>2026-05-02T16:04:56.602Z</time></trkpt><trkpt lat="42.2473323" lon="13.2599913"><ele>1279.3333333333333</ele><time>2026-05-02T16:04:57.602Z</time></trkpt><trkpt lat="42.2473474" lon="13.2598902"><ele>1280.6666666666667</ele><time>2026-05-02T16:04:58.603Z</time></trkpt><trkpt lat="42.2473655" lon="13.2598034"><ele>1282.0</ele><time>2026-05-02T16:04:59.603Z</time></trkpt><trkpt lat="42.2473902" lon="13.259717"><ele>1283.3333333333335</ele><time>2026-05-02T16:05:00.602Z</time></trkpt><trkpt lat="42.2474518" lon="13.259581"><ele>1284.6666666666667</ele><time>2026-05-02T16:05:02.603Z</time></trkpt><trkpt lat="42.2474934" lon="13.2595168"><ele>1286.0</ele><time>2026-05-02T16:05:03.602Z</time></trkpt><trkpt lat="42.2475428" lon="13.2594602"><ele>1286.0</ele><time>2026-05-02T16:05:04.602Z</time></trkpt><trkpt lat="42.2475988" lon="13.2594211"><ele>1286.0</ele><time>2026-05-02T16:05:05.602Z</time></trkpt><trkpt lat="42.2476978" lon="13.2593299"><ele>1286.0</ele><time>2026-05-02T16:05:07.603Z</time></trkpt><trkpt lat="42.2477388" lon="13.2591857"><ele>1286.0</ele><time>2026-05-02T16:05:09.602Z</time></trkpt><trkpt lat="42.2477813" lon="13.2590764"><ele>1286.0</ele><time>2026-05-02T16:05:11.602Z</time></trkpt><trkpt lat="42.247883" lon="13.2589998"><ele>1286.0</ele><time>2026-05-02T16:05:13.603Z</time></trkpt><trkpt lat="42.2479443" lon="13.2589628"><ele>1286.0</ele><time>2026-05-02T16:05:14.602Z</time></trkpt><trkpt lat="42.2479948" lon="13.2589104"><ele>1286.0</ele><time>2026-05-02T16:05:15.602Z</time></trkpt><trkpt lat="42.2480338" lon="13.2588405"><ele>1286.0</ele><time>2026-05-02T16:05:16.603Z</time></trkpt><trkpt lat="42.2480678" lon="13.2587603"><ele>1286.0</ele><time>2026-05-02T16:05:17.602Z</time></trkpt><trkpt lat="42.2481003" lon="13.2586739"><ele>1286.0</ele><time>2026-05-02T16:05:18.602Z</time></trkpt><trkpt lat="42.2481302" lon="13.2585843"><ele>1286.0</ele><time>2026-05-02T16:05:19.602Z</time></trkpt><trkpt lat="42.2481579" lon="13.2584943"><ele>1285.7142857142856</ele><time>2026-05-02T16:05:20.602Z</time></trkpt><trkpt lat="42.248183" lon="13.258407"><ele>1285.4285714285716</ele><time>2026-05-02T16:05:21.603Z</time></trkpt><trkpt lat="42.2482109" lon="13.2583276"><ele>1285.142857142857</ele><time>2026-05-02T16:05:22.602Z</time></trkpt><trkpt lat="42.2482437" lon="13.2582484"><ele>1284.8571428571427</ele><time>2026-05-02T16:05:23.603Z</time></trkpt><trkpt lat="42.2482877" lon="13.2581641"><ele>1284.5714285714284</ele><time>2026-05-02T16:05:24.602Z</time></trkpt><trkpt lat="42.2483435" lon="13.2580768"><ele>1284.2857142857142</ele><time>2026-05-02T16:05:25.602Z</time></trkpt><trkpt lat="42.2483993" lon="13.2579936"><ele>1284.0</ele><time>2026-05-02T16:05:26.602Z</time></trkpt><trkpt lat="42.2484458" lon="13.2579086"><ele>1284.0</ele><time>2026-05-02T16:05:27.602Z</time></trkpt><trkpt lat="42.2484809" lon="13.2578154"><ele>1284.0</ele><time>2026-05-02T16:05:28.603Z</time></trkpt><trkpt lat="42.2485106" lon="13.2577145"><ele>1284.0</ele><time>2026-05-02T16:05:29.602Z</time></trkpt><trkpt lat="42.2485431" lon="13.2576165"><ele>1284.0</ele><time>2026-05-02T16:05:30.603Z</time></trkpt><trkpt lat="42.2485807" lon="13.25752"><ele>1284.0</ele><time>2026-05-02T16:05:31.602Z</time></trkpt><trkpt lat="42.2486222" lon="13.2574273"><ele>1284.0</ele><time>2026-05-02T16:05:32.603Z</time></trkpt><trkpt lat="42.2486669" lon="13.2573505"><ele>1285.1666666666667</ele><time>2026-05-02T16:05:33.602Z</time></trkpt><trkpt lat="42.2487144" lon="13.2572792"><ele>1286.3333333333333</ele><time>2026-05-02T16:05:34.602Z</time></trkpt><trkpt lat="42.2487578" lon="13.2572154"><ele>1287.5</ele><time>2026-05-02T16:05:35.603Z</time></trkpt><trkpt lat="42.2488574" lon="13.2571218"><ele>1288.6666666666665</ele><time>2026-05-02T16:05:37.602Z</time></trkpt><trkpt lat="42.2489182" lon="13.2570827"><ele>1289.8333333333333</ele><time>2026-05-02T16:05:38.603Z</time></trkpt><trkpt lat="42.248978" lon="13.2570432"><ele>1291.0</ele><time>2026-05-02T16:05:39.602Z</time></trkpt><trkpt lat="42.2490387" lon="13.2570139"><ele>1290.9999999999998</ele><time>2026-05-02T16:05:40.603Z</time></trkpt><trkpt lat="42.2491016" lon="13.2569816"><ele>1291.0</ele><time>2026-05-02T16:05:41.602Z</time></trkpt><trkpt lat="42.2491649" lon="13.25695"><ele>1291.0</ele><time>2026-05-02T16:05:42.602Z</time></trkpt><trkpt lat="42.24923" lon="13.2569206"><ele>1291.0</ele><time>2026-05-02T16:05:43.603Z</time></trkpt><trkpt lat="42.2492962" lon="13.2568981"><ele>1291.0</ele><time>2026-05-02T16:05:44.603Z</time></trkpt><trkpt lat="42.249361" lon="13.2568862"><ele>1290.9999999999998</ele><time>2026-05-02T16:05:45.603Z</time></trkpt><trkpt lat="42.2494254" lon="13.2568759"><ele>1291.0</ele><time>2026-05-02T16:05:46.603Z</time></trkpt><trkpt lat="42.2494962" lon="13.2568759"><ele>1291.0</ele><time>2026-05-02T16:05:47.602Z</time></trkpt><trkpt lat="42.2495758" lon="13.2568755"><ele>1291.0</ele><time>2026-05-02T16:05:48.602Z</time></trkpt><trkpt lat="42.2496519" lon="13.2568731"><ele>1291.0</ele><time>2026-05-02T16:05:49.602Z</time></trkpt><trkpt lat="42.2497193" lon="13.2568697"><ele>1291.0</ele><time>2026-05-02T16:05:50.602Z</time></trkpt><trkpt lat="42.2498338" lon="13.256865"><ele>1291.0</ele><time>2026-05-02T16:05:52.602Z</time></trkpt><trkpt lat="42.2499305" lon="13.2568183"><ele>1291.0</ele><time>2026-05-02T16:05:54.603Z</time></trkpt><trkpt lat="42.2499882" lon="13.2567791"><ele>1291.5</ele><time>2026-05-02T16:05:55.602Z</time></trkpt><trkpt lat="42.2500545" lon="13.2567379"><ele>1292.0</ele><time>2026-05-02T16:05:56.603Z</time></trkpt><trkpt lat="42.2501201" lon="13.2567011"><ele>1292.5</ele><time>2026-05-02T16:05:57.603Z</time></trkpt><trkpt lat="42.2501748" lon="13.2566561"><ele>1293.0</ele><time>2026-05-02T16:05:58.602Z</time></trkpt><trkpt lat="42.2502769" lon="13.2565668"><ele>1293.5</ele><time>2026-05-02T16:06:00.602Z</time></trkpt><trkpt lat="42.2503659" lon="13.2565001"><ele>1294.0</ele><time>2026-05-02T16:06:02.602Z</time></trkpt><trkpt lat="42.2504432" lon="13.2564447"><ele>1290.6000000000001</ele><time>2026-05-02T16:06:04.603Z</time></trkpt><trkpt lat="42.2505539" lon="13.2564044"><ele>1287.2</ele><time>2026-05-02T16:06:06.602Z</time></trkpt><trkpt lat="42.2506397" lon="13.2564022"><ele>1283.8000000000002</ele><time>2026-05-02T16:06:07.603Z</time></trkpt><trkpt lat="42.2507345" lon="13.256396"><ele>1280.4</ele><time>2026-05-02T16:06:08.602Z</time></trkpt><trkpt lat="42.2508262" lon="13.2563843"><ele>1277.0</ele><time>2026-05-02T16:06:09.602Z</time></trkpt><trkpt lat="42.2509074" lon="13.2563737"><ele>1277.0</ele><time>2026-05-02T16:06:10.602Z</time></trkpt><trkpt lat="42.250979" lon="13.2563678"><ele>1277.0</ele><time>2026-05-02T16:06:11.602Z</time></trkpt><trkpt lat="42.2510445" lon="13.256372"><ele>1277.0</ele><time>2026-05-02T16:06:12.602Z</time></trkpt><trkpt lat="42.251151" lon="13.256397"><ele>1277.0</ele><time>2026-05-02T16:06:14.603Z</time></trkpt><trkpt lat="42.2512616" lon="13.256449"><ele>1277.0</ele><time>2026-05-02T16:06:16.602Z</time></trkpt><trkpt lat="42.2513798" lon="13.2565213"><ele>1280.0</ele><time>2026-05-02T16:06:18.602Z</time></trkpt><trkpt lat="42.2514481" lon="13.2565575"><ele>1283.0</ele><time>2026-05-02T16:06:19.602Z</time></trkpt><trkpt lat="42.2515164" lon="13.2565977"><ele>1286.0</ele><time>2026-05-02T16:06:20.603Z</time></trkpt><trkpt lat="42.2515837" lon="13.2566355"><ele>1289.0</ele><time>2026-05-02T16:06:21.602Z</time></trkpt><trkpt lat="42.2516463" lon="13.2566668"><ele>1292.0</ele><time>2026-05-02T16:06:22.602Z</time></trkpt><trkpt lat="42.2517377" lon="13.256715"><ele>1295.0</ele><time>2026-05-02T16:06:24.602Z</time></trkpt><trkpt lat="42.2518227" lon="13.2566848"><ele>1295.5</ele><time>2026-05-02T16:06:27.603Z</time></trkpt><trkpt lat="42.2518634" lon="13.2566148"><ele>1296.0</ele><time>2026-05-02T16:06:29.602Z</time></trkpt><trkpt lat="42.251931" lon="13.2565156"><ele>1296.5</ele><time>2026-05-02T16:06:31.602Z</time></trkpt><trkpt lat="42.2520138" lon="13.2563942"><ele>1297.0</ele><time>2026-05-02T16:06:33.603Z</time></trkpt><trkpt lat="42.2520481" lon="13.2563152"><ele>1297.5</ele><time>2026-05-02T16:06:34.603Z</time></trkpt><trkpt lat="42.252085" lon="13.2562264"><ele>1298.0</ele><time>2026-05-02T16:06:35.602Z</time></trkpt><trkpt lat="42.2521284" lon="13.2561352"><ele>1298.5</ele><time>2026-05-02T16:06:36.602Z</time></trkpt><trkpt lat="42.2521859" lon="13.256045"><ele>1299.0</ele><time>2026-05-02T16:06:37.602Z</time></trkpt><trkpt lat="42.2522478" lon="13.2559491"><ele>1299.5</ele><time>2026-05-02T16:06:38.602Z</time></trkpt><trkpt lat="42.2523079" lon="13.2558509"><ele>1300.0</ele><time>2026-05-02T16:06:39.602Z</time></trkpt><trkpt lat="42.252365" lon="13.2557551"><ele>1300.5</ele><time>2026-05-02T16:06:40.603Z</time></trkpt><trkpt lat="42.2524141" lon="13.2556666"><ele>1301.0</ele><time>2026-05-02T16:06:41.602Z</time></trkpt><trkpt lat="42.2524585" lon="13.2555936"><ele>1298.8333333333335</ele><time>2026-05-02T16:06:42.602Z</time></trkpt><trkpt lat="42.2525129" lon="13.2555223"><ele>1296.6666666666667</ele><time>2026-05-02T16:06:43.603Z</time></trkpt><trkpt lat="42.2525821" lon="13.2554438"><ele>1294.5</ele><time>2026-05-02T16:06:44.603Z</time></trkpt><trkpt lat="42.2526597" lon="13.2553668"><ele>1292.3333333333333</ele><time>2026-05-02T16:06:45.603Z</time></trkpt><trkpt lat="42.2527366" lon="13.2552991"><ele>1290.1666666666665</ele><time>2026-05-02T16:06:46.602Z</time></trkpt><trkpt lat="42.2528096" lon="13.2552384"><ele>1288.0</ele><time>2026-05-02T16:06:47.602Z</time></trkpt><trkpt lat="42.2528827" lon="13.2551846"><ele>1288.0</ele><time>2026-05-02T16:06:48.601Z</time></trkpt><trkpt lat="42.2529552" lon="13.2551439"><ele>1288.0</ele><time>2026-05-02T16:06:49.602Z</time></trkpt><trkpt lat="42.2530303" lon="13.255117"><ele>1288.0</ele><time>2026-05-02T16:06:50.603Z</time></trkpt><trkpt lat="42.2531092" lon="13.2550913"><ele>1288.0</ele><time>2026-05-02T16:06:51.602Z</time></trkpt><trkpt lat="42.2531904" lon="13.2550632"><ele>1288.0</ele><time>2026-05-02T16:06:52.603Z</time></trkpt><trkpt lat="42.2532652" lon="13.2550322"><ele>1288.0</ele><time>2026-05-02T16:06:53.603Z</time></trkpt><trkpt lat="42.2533381" lon="13.2550004"><ele>1289.0</ele><time>2026-05-02T16:06:54.602Z</time></trkpt><trkpt lat="42.2534088" lon="13.2549766"><ele>1290.0</ele><time>2026-05-02T16:06:55.602Z</time></trkpt><trkpt lat="42.2534758" lon="13.2549467"><ele>1291.0</ele><time>2026-05-02T16:06:56.602Z</time></trkpt><trkpt lat="42.253546" lon="13.2549036"><ele>1292.0</ele><time>2026-05-02T16:06:57.602Z</time></trkpt><trkpt lat="42.2536164" lon="13.2548551"><ele>1293.0</ele><time>2026-05-02T16:06:58.602Z</time></trkpt><trkpt lat="42.2536854" lon="13.2548051"><ele>1294.0</ele><time>2026-05-02T16:06:59.602Z</time></trkpt><trkpt lat="42.2537585" lon="13.2547585"><ele>1292.3333333333333</ele><time>2026-05-02T16:07:00.603Z</time></trkpt><trkpt lat="42.2538357" lon="13.2547125"><ele>1290.6666666666665</ele><time>2026-05-02T16:07:01.603Z</time></trkpt><trkpt lat="42.2539141" lon="13.2546635"><ele>1289.0</ele><time>2026-05-02T16:07:02.603Z</time></trkpt><trkpt lat="42.253992" lon="13.2546184"><ele>1287.3333333333333</ele><time>2026-05-02T16:07:03.602Z</time></trkpt><trkpt lat="42.25407" lon="13.2545749"><ele>1285.6666666666667</ele><time>2026-05-02T16:07:04.602Z</time></trkpt><trkpt lat="42.2541451" lon="13.2545315"><ele>1284.0</ele><time>2026-05-02T16:07:05.602Z</time></trkpt><trkpt lat="42.2542179" lon="13.2544925"><ele>1284.0</ele><time>2026-05-02T16:07:06.602Z</time></trkpt><trkpt lat="42.2542977" lon="13.2544522"><ele>1284.0</ele><time>2026-05-02T16:07:07.602Z</time></trkpt><trkpt lat="42.2543788" lon="13.2544059"><ele>1284.0</ele><time>2026-05-02T16:07:08.602Z</time></trkpt><trkpt lat="42.2544583" lon="13.2543515"><ele>1284.0</ele><time>2026-05-02T16:07:09.602Z</time></trkpt><trkpt lat="42.2545376" lon="13.2542989"><ele>1284.0</ele><time>2026-05-02T16:07:10.602Z</time></trkpt><trkpt lat="42.254612" lon="13.2542478"><ele>1284.0</ele><time>2026-05-02T16:07:11.602Z</time></trkpt><trkpt lat="42.254682" lon="13.2541979"><ele>1284.0</ele><time>2026-05-02T16:07:12.603Z</time></trkpt><trkpt lat="42.2547468" lon="13.2541566"><ele>1284.0</ele><time>2026-05-02T16:07:13.602Z</time></trkpt><trkpt lat="42.2548162" lon="13.254117"><ele>1284.0</ele><time>2026-05-02T16:07:14.602Z</time></trkpt><trkpt lat="42.2548969" lon="13.2540786"><ele>1284.0</ele><time>2026-05-02T16:07:15.602Z</time></trkpt><trkpt lat="42.2549801" lon="13.254043"><ele>1284.0</ele><time>2026-05-02T16:07:16.603Z</time></trkpt><trkpt lat="42.2550594" lon="13.2540113"><ele>1284.0</ele><time>2026-05-02T16:07:17.601Z</time></trkpt><trkpt lat="42.2551376" lon="13.2539804"><ele>1282.5</ele><time>2026-05-02T16:07:18.601Z</time></trkpt><trkpt lat="42.255217" lon="13.2539479"><ele>1281.0</ele><time>2026-05-02T16:07:19.602Z</time></trkpt><trkpt lat="42.2552927" lon="13.2539115"><ele>1279.5</ele><time>2026-05-02T16:07:20.601Z</time></trkpt><trkpt lat="42.2553648" lon="13.2538662"><ele>1278.0</ele><time>2026-05-02T16:07:21.602Z</time></trkpt><trkpt lat="42.2554358" lon="13.2538176"><ele>1276.5</ele><time>2026-05-02T16:07:22.603Z</time></trkpt><trkpt lat="42.2555058" lon="13.2537596"><ele>1275.0</ele><time>2026-05-02T16:07:23.602Z</time></trkpt><trkpt lat="42.2555762" lon="13.253702"><ele>1276.857142857143</ele><time>2026-05-02T16:07:24.602Z</time></trkpt><trkpt lat="42.2556413" lon="13.2536514"><ele>1278.7142857142858</ele><time>2026-05-02T16:07:25.602Z</time></trkpt><trkpt lat="42.2556992" lon="13.2535958"><ele>1280.5714285714284</ele><time>2026-05-02T16:07:26.602Z</time></trkpt><trkpt lat="42.2557456" lon="13.253528"><ele>1282.4285714285716</ele><time>2026-05-02T16:07:27.602Z</time></trkpt><trkpt lat="42.2557787" lon="13.2534474"><ele>1284.2857142857142</ele><time>2026-05-02T16:07:28.603Z</time></trkpt><trkpt lat="42.2558013" lon="13.2533512"><ele>1286.142857142857</ele><time>2026-05-02T16:07:29.603Z</time></trkpt><trkpt lat="42.2558172" lon="13.2532437"><ele>1288.0</ele><time>2026-05-02T16:07:30.602Z</time></trkpt><trkpt lat="42.255825" lon="13.2531373"><ele>1287.857142857143</ele><time>2026-05-02T16:07:31.603Z</time></trkpt><trkpt lat="42.2558272" lon="13.2530363"><ele>1287.7142857142858</ele><time>2026-05-02T16:07:32.602Z</time></trkpt><trkpt lat="42.2558284" lon="13.2529373"><ele>1287.5714285714284</ele><time>2026-05-02T16:07:33.602Z</time></trkpt><trkpt lat="42.2558339" lon="13.2528435"><ele>1287.4285714285716</ele><time>2026-05-02T16:07:34.603Z</time></trkpt><trkpt lat="42.2558456" lon="13.2527474"><ele>1287.2857142857142</ele><time>2026-05-02T16:07:35.601Z</time></trkpt><trkpt lat="42.2558653" lon="13.2526501"><ele>1287.142857142857</ele><time>2026-05-02T16:07:36.602Z</time></trkpt><trkpt lat="42.2558887" lon="13.2525555"><ele>1287.0</ele><time>2026-05-02T16:07:37.603Z</time></trkpt><trkpt lat="42.2559138" lon="13.2524632"><ele>1287.0</ele><time>2026-05-02T16:07:38.603Z</time></trkpt><trkpt lat="42.2559396" lon="13.2523756"><ele>1287.0</ele><time>2026-05-02T16:07:39.602Z</time></trkpt><trkpt lat="42.2559988" lon="13.2522394"><ele>1287.0</ele><time>2026-05-02T16:07:41.601Z</time></trkpt><trkpt lat="42.2560917" lon="13.2521439"><ele>1287.0</ele><time>2026-05-02T16:07:43.603Z</time></trkpt><trkpt lat="42.2561893" lon="13.2520533"><ele>1287.0</ele><time>2026-05-02T16:07:45.603Z</time></trkpt><trkpt lat="42.256288" lon="13.2519561"><ele>1286.4285714285713</ele><time>2026-05-02T16:07:47.602Z</time></trkpt><trkpt lat="42.2563321" lon="13.251892"><ele>1285.857142857143</ele><time>2026-05-02T16:07:48.603Z</time></trkpt><trkpt lat="42.2563815" lon="13.2518248"><ele>1285.2857142857142</ele><time>2026-05-02T16:07:49.602Z</time></trkpt><trkpt lat="42.2564319" lon="13.2517667"><ele>1284.7142857142858</ele><time>2026-05-02T16:07:50.603Z</time></trkpt><trkpt lat="42.2564889" lon="13.2517224"><ele>1284.142857142857</ele><time>2026-05-02T16:07:51.602Z</time></trkpt><trkpt lat="42.256554" lon="13.2516842"><ele>1283.5714285714287</ele><time>2026-05-02T16:07:52.603Z</time></trkpt><trkpt lat="42.2566293" lon="13.2516505"><ele>1283.0</ele><time>2026-05-02T16:07:53.602Z</time></trkpt><trkpt lat="42.2567128" lon="13.2516155"><ele>1285.3333333333335</ele><time>2026-05-02T16:07:54.602Z</time></trkpt><trkpt lat="42.2567961" lon="13.2515832"><ele>1287.6666666666667</ele><time>2026-05-02T16:07:55.602Z</time></trkpt><trkpt lat="42.2568648" lon="13.2515614"><ele>1290.0</ele><time>2026-05-02T16:07:56.602Z</time></trkpt><trkpt lat="42.2569736" lon="13.2515261"><ele>1292.3333333333333</ele><time>2026-05-02T16:07:58.602Z</time></trkpt><trkpt lat="42.257049" lon="13.2515543"><ele>1294.6666666666665</ele><time>2026-05-02T16:08:00.602Z</time></trkpt><trkpt lat="42.2570954" lon="13.2516733"><ele>1297.0</ele><time>2026-05-02T16:08:02.602Z</time></trkpt><trkpt lat="42.2571228" lon="13.2518189"><ele>1297.0</ele><time>2026-05-02T16:08:04.602Z</time></trkpt><trkpt lat="42.2571442" lon="13.2519649"><ele>1297.0</ele><time>2026-05-02T16:08:06.603Z</time></trkpt><trkpt lat="42.2571633" lon="13.2521199"><ele>1297.0</ele><time>2026-05-02T16:08:08.602Z</time></trkpt><trkpt lat="42.2571772" lon="13.2522555"><ele>1297.0</ele><time>2026-05-02T16:08:10.601Z</time></trkpt><trkpt lat="42.2571847" lon="13.2524246"><ele>1298.0</ele><time>2026-05-02T16:08:12.602Z</time></trkpt><trkpt lat="42.257207" lon="13.2525669"><ele>1299.0</ele><time>2026-05-02T16:08:14.602Z</time></trkpt><trkpt lat="42.2572556" lon="13.2526607"><ele>1300.0</ele><time>2026-05-02T16:08:16.602Z</time></trkpt><trkpt lat="42.2573407" lon="13.2526774"><ele>1301.0</ele><time>2026-05-02T16:08:18.602Z</time></trkpt><trkpt lat="42.2574334" lon="13.2526133"><ele>1302.0</ele><time>2026-05-02T16:08:20.602Z</time></trkpt><trkpt lat="42.257523" lon="13.2525597"><ele>1300.0</ele><time>2026-05-02T16:08:22.602Z</time></trkpt><trkpt lat="42.2576304" lon="13.252562"><ele>1298.0</ele><time>2026-05-02T16:08:24.601Z</time></trkpt><trkpt lat="42.2576969" lon="13.2525711"><ele>1296.0</ele><time>2026-05-02T16:08:25.602Z</time></trkpt><trkpt lat="42.2577694" lon="13.2525829"><ele>1294.0</ele><time>2026-05-02T16:08:26.602Z</time></trkpt><trkpt lat="42.2578449" lon="13.2525866"><ele>1292.0</ele><time>2026-05-02T16:08:27.602Z</time></trkpt><trkpt lat="42.25792" lon="13.2525877"><ele>1290.0</ele><time>2026-05-02T16:08:28.602Z</time></trkpt><trkpt lat="42.2579931" lon="13.2525832"><ele>1290.0</ele><time>2026-05-02T16:08:29.603Z</time></trkpt><trkpt lat="42.2581313" lon="13.2525479"><ele>1290.0</ele><time>2026-05-02T16:08:31.601Z</time></trkpt><trkpt lat="42.258203" lon="13.2525227"><ele>1290.0</ele><time>2026-05-02T16:08:32.602Z</time></trkpt><trkpt lat="42.2582778" lon="13.2524838"><ele>1290.0</ele><time>2026-05-02T16:08:33.603Z</time></trkpt><trkpt lat="42.2583507" lon="13.2524307"><ele>1290.0</ele><time>2026-05-02T16:08:34.603Z</time></trkpt><trkpt lat="42.2584139" lon="13.2523744"><ele>1290.0</ele><time>2026-05-02T16:08:35.602Z</time></trkpt><trkpt lat="42.2584683" lon="13.2523263"><ele>1290.0</ele><time>2026-05-02T16:08:36.602Z</time></trkpt><trkpt lat="42.2585583" lon="13.2522102"><ele>1290.0</ele><time>2026-05-02T16:08:38.602Z</time></trkpt><trkpt lat="42.2585956" lon="13.2521344"><ele>1290.0</ele><time>2026-05-02T16:08:39.602Z</time></trkpt><trkpt lat="42.2586276" lon="13.252053"><ele>1290.0</ele><time>2026-05-02T16:08:40.602Z</time></trkpt><trkpt lat="42.2586588" lon="13.2519654"><ele>1290.0</ele><time>2026-05-02T16:08:41.602Z</time></trkpt><trkpt lat="42.2586983" lon="13.2518847"><ele>1289.5714285714287</ele><time>2026-05-02T16:08:42.603Z</time></trkpt><trkpt lat="42.2587441" lon="13.2518032"><ele>1289.142857142857</ele><time>2026-05-02T16:08:43.603Z</time></trkpt><trkpt lat="42.2587955" lon="13.2517323"><ele>1288.7142857142858</ele><time>2026-05-02T16:08:44.602Z</time></trkpt><trkpt lat="42.2588532" lon="13.2516639"><ele>1288.2857142857142</ele><time>2026-05-02T16:08:45.602Z</time></trkpt><trkpt lat="42.2589102" lon="13.2515933"><ele>1287.857142857143</ele><time>2026-05-02T16:08:46.602Z</time></trkpt><trkpt lat="42.2589672" lon="13.251529"><ele>1287.4285714285713</ele><time>2026-05-02T16:08:47.603Z</time></trkpt><trkpt lat="42.2590266" lon="13.2514772"><ele>1287.0</ele><time>2026-05-02T16:08:48.603Z</time></trkpt><trkpt lat="42.2590885" lon="13.251435"><ele>1284.2857142857142</ele><time>2026-05-02T16:08:49.601Z</time></trkpt><trkpt lat="42.25915" lon="13.2514005"><ele>1281.5714285714287</ele><time>2026-05-02T16:08:50.603Z</time></trkpt><trkpt lat="42.2592098" lon="13.2513718"><ele>1278.857142857143</ele><time>2026-05-02T16:08:51.602Z</time></trkpt><trkpt lat="42.2592717" lon="13.2513522"><ele>1276.142857142857</ele><time>2026-05-02T16:08:52.602Z</time></trkpt><trkpt lat="42.2593347" lon="13.2513308"><ele>1273.4285714285713</ele><time>2026-05-02T16:08:53.602Z</time></trkpt><trkpt lat="42.2593949" lon="13.2513048"><ele>1270.7142857142858</ele><time>2026-05-02T16:08:54.603Z</time></trkpt><trkpt lat="42.2594558" lon="13.2512657"><ele>1268.0</ele><time>2026-05-02T16:08:55.602Z</time></trkpt><trkpt lat="42.2595144" lon="13.2512215"><ele>1268.0</ele><time>2026-05-02T16:08:56.602Z</time></trkpt><trkpt lat="42.2595713" lon="13.2511712"><ele>1268.0</ele><time>2026-05-02T16:08:57.603Z</time></trkpt><trkpt lat="42.2596234" lon="13.2511126"><ele>1268.0</ele><time>2026-05-02T16:08:58.602Z</time></trkpt><trkpt lat="42.259665" lon="13.2510301"><ele>1268.0</ele><time>2026-05-02T16:08:59.602Z</time></trkpt><trkpt lat="42.2596999" lon="13.2509356"><ele>1268.0</ele><time>2026-05-02T16:09:00.602Z</time></trkpt><trkpt lat="42.259724" lon="13.2508446"><ele>1268.0</ele><time>2026-05-02T16:09:01.602Z</time></trkpt><trkpt lat="42.2597525" lon="13.2507554"><ele>1268.0</ele><time>2026-05-02T16:09:02.602Z</time></trkpt><trkpt lat="42.2597978" lon="13.2506584"><ele>1268.6666666666667</ele><time>2026-05-02T16:09:03.602Z</time></trkpt><trkpt lat="42.2598297" lon="13.250557"><ele>1269.3333333333335</ele><time>2026-05-02T16:09:04.603Z</time></trkpt><trkpt lat="42.2598578" lon="13.250457"><ele>1270.0</ele><time>2026-05-02T16:09:05.6Z</time></trkpt><trkpt lat="42.2598797" lon="13.2503551"><ele>1270.6666666666667</ele><time>2026-05-02T16:09:06.603Z</time></trkpt><trkpt lat="42.2598949" lon="13.25025"><ele>1271.3333333333333</ele><time>2026-05-02T16:09:07.602Z</time></trkpt><trkpt lat="42.2599004" lon="13.2501433"><ele>1272.0</ele><time>2026-05-02T16:09:08.602Z</time></trkpt><trkpt lat="42.2599028" lon="13.2500349"><ele>1272.0</ele><time>2026-05-02T16:09:09.603Z</time></trkpt><trkpt lat="42.2599122" lon="13.2499268"><ele>1272.0</ele><time>2026-05-02T16:09:10.602Z</time></trkpt><trkpt lat="42.2599264" lon="13.2498257"><ele>1272.0</ele><time>2026-05-02T16:09:11.602Z</time></trkpt><trkpt lat="42.259944" lon="13.2497214"><ele>1272.0</ele><time>2026-05-02T16:09:12.602Z</time></trkpt><trkpt lat="42.2599693" lon="13.2496157"><ele>1272.0</ele><time>2026-05-02T16:09:13.602Z</time></trkpt><trkpt lat="42.2600018" lon="13.2495189"><ele>1272.0</ele><time>2026-05-02T16:09:14.602Z</time></trkpt><trkpt lat="42.2600303" lon="13.2494259"><ele>1270.6666666666667</ele><time>2026-05-02T16:09:15.602Z</time></trkpt><trkpt lat="42.2600539" lon="13.249331"><ele>1269.3333333333333</ele><time>2026-05-02T16:09:16.603Z</time></trkpt><trkpt lat="42.2600776" lon="13.2492308"><ele>1268.0</ele><time>2026-05-02T16:09:17.601Z</time></trkpt><trkpt lat="42.2600997" lon="13.2491235"><ele>1266.6666666666665</ele><time>2026-05-02T16:09:18.602Z</time></trkpt><trkpt lat="42.2601229" lon="13.2490068"><ele>1265.3333333333333</ele><time>2026-05-02T16:09:19.603Z</time></trkpt><trkpt lat="42.2601464" lon="13.2488887"><ele>1264.0</ele><time>2026-05-02T16:09:20.603Z</time></trkpt><trkpt lat="42.2601668" lon="13.2487758"><ele>1263.1666666666665</ele><time>2026-05-02T16:09:21.602Z</time></trkpt><trkpt lat="42.2601842" lon="13.2486643"><ele>1262.3333333333333</ele><time>2026-05-02T16:09:22.603Z</time></trkpt><trkpt lat="42.2602016" lon="13.2485493"><ele>1261.5</ele><time>2026-05-02T16:09:23.603Z</time></trkpt><trkpt lat="42.2602212" lon="13.2484334"><ele>1260.6666666666667</ele><time>2026-05-02T16:09:24.602Z</time></trkpt><trkpt lat="42.2602364" lon="13.2483153"><ele>1259.8333333333335</ele><time>2026-05-02T16:09:25.602Z</time></trkpt><trkpt lat="42.2602507" lon="13.2481988"><ele>1259.0</ele><time>2026-05-02T16:09:26.602Z</time></trkpt><trkpt lat="42.2602671" lon="13.2480776"><ele>1258.0</ele><time>2026-05-02T16:09:27.601Z</time></trkpt><trkpt lat="42.2602845" lon="13.2479603"><ele>1257.0</ele><time>2026-05-02T16:09:28.602Z</time></trkpt><trkpt lat="42.2603018" lon="13.2478518"><ele>1256.0</ele><time>2026-05-02T16:09:29.603Z</time></trkpt><trkpt lat="42.2603175" lon="13.2477487"><ele>1255.0</ele><time>2026-05-02T16:09:30.603Z</time></trkpt><trkpt lat="42.2603331" lon="13.2476503"><ele>1254.0</ele><time>2026-05-02T16:09:31.602Z</time></trkpt><trkpt lat="42.2603488" lon="13.247557"><ele>1253.0</ele><time>2026-05-02T16:09:32.603Z</time></trkpt><trkpt lat="42.2603799" lon="13.2474105"><ele>1253.0</ele><time>2026-05-02T16:09:34.602Z</time></trkpt><trkpt lat="42.2604539" lon="13.2472676"><ele>1253.0</ele><time>2026-05-02T16:09:36.602Z</time></trkpt><trkpt lat="42.2605096" lon="13.2471929"><ele>1253.0</ele><time>2026-05-02T16:09:37.603Z</time></trkpt><trkpt lat="42.2605698" lon="13.247113"><ele>1253.0</ele><time>2026-05-02T16:09:38.603Z</time></trkpt><trkpt lat="42.2606277" lon="13.2470255"><ele>1253.0</ele><time>2026-05-02T16:09:39.602Z</time></trkpt><trkpt lat="42.2606877" lon="13.2469336"><ele>1252.6</ele><time>2026-05-02T16:09:40.602Z</time></trkpt><trkpt lat="42.2607412" lon="13.2468388"><ele>1252.1999999999998</ele><time>2026-05-02T16:09:41.602Z</time></trkpt><trkpt lat="42.2607998" lon="13.2467307"><ele>1251.8</ele><time>2026-05-02T16:09:42.603Z</time></trkpt><trkpt lat="42.2608593" lon="13.2466207"><ele>1251.3999999999999</ele><time>2026-05-02T16:09:43.602Z</time></trkpt><trkpt lat="42.2609205" lon="13.2465088"><ele>1251.0</ele><time>2026-05-02T16:09:44.603Z</time></trkpt><trkpt lat="42.2609793" lon="13.2463928"><ele>1251.0</ele><time>2026-05-02T16:09:45.602Z</time></trkpt><trkpt lat="42.2610342" lon="13.2462734"><ele>1251.0</ele><time>2026-05-02T16:09:46.602Z</time></trkpt><trkpt lat="42.2610918" lon="13.2461516"><ele>1251.0</ele><time>2026-05-02T16:09:47.602Z</time></trkpt><trkpt lat="42.2611559" lon="13.2460245"><ele>1251.0</ele><time>2026-05-02T16:09:48.602Z</time></trkpt><trkpt lat="42.261222" lon="13.245899"><ele>1251.0</ele><time>2026-05-02T16:09:49.602Z</time></trkpt><trkpt lat="42.2612907" lon="13.2457757"><ele>1251.0</ele><time>2026-05-02T16:09:50.602Z</time></trkpt><trkpt lat="42.261357" lon="13.2456573"><ele>1251.0</ele><time>2026-05-02T16:09:51.602Z</time></trkpt><trkpt lat="42.2614186" lon="13.2455371"><ele>1251.0</ele><time>2026-05-02T16:09:52.603Z</time></trkpt><trkpt lat="42.2614769" lon="13.2454166"><ele>1251.0</ele><time>2026-05-02T16:09:53.601Z</time></trkpt><trkpt lat="42.261532" lon="13.2453012"><ele>1251.0</ele><time>2026-05-02T16:09:54.602Z</time></trkpt><trkpt lat="42.2615851" lon="13.2451876"><ele>1251.3999999999999</ele><time>2026-05-02T16:09:55.602Z</time></trkpt><trkpt lat="42.2616335" lon="13.2450731"><ele>1251.8</ele><time>2026-05-02T16:09:56.603Z</time></trkpt><trkpt lat="42.2616791" lon="13.2449604"><ele>1252.1999999999998</ele><time>2026-05-02T16:09:57.602Z</time></trkpt><trkpt lat="42.2617165" lon="13.2448459"><ele>1252.6</ele><time>2026-05-02T16:09:58.603Z</time></trkpt><trkpt lat="42.2617434" lon="13.2447321"><ele>1253.0</ele><time>2026-05-02T16:09:59.603Z</time></trkpt><trkpt lat="42.2617592" lon="13.2446142"><ele>1253.0</ele><time>2026-05-02T16:10:00.602Z</time></trkpt><trkpt lat="42.2617662" lon="13.2444952"><ele>1253.0</ele><time>2026-05-02T16:10:01.602Z</time></trkpt><trkpt lat="42.2617586" lon="13.2443765"><ele>1253.0</ele><time>2026-05-02T16:10:02.602Z</time></trkpt><trkpt lat="42.2617417" lon="13.2442598"><ele>1253.0</ele><time>2026-05-02T16:10:03.602Z</time></trkpt><trkpt lat="42.2617103" lon="13.2441479"><ele>1253.0</ele><time>2026-05-02T16:10:04.601Z</time></trkpt><trkpt lat="42.2616724" lon="13.2440377"><ele>1253.0</ele><time>2026-05-02T16:10:05.602Z</time></trkpt><trkpt lat="42.2616241" lon="13.2439288"><ele>1253.0</ele><time>2026-05-02T16:10:06.602Z</time></trkpt><trkpt lat="42.2615612" lon="13.2438268"><ele>1253.0</ele><time>2026-05-02T16:10:07.602Z</time></trkpt><trkpt lat="42.2614847" lon="13.2437349"><ele>1253.0</ele><time>2026-05-02T16:10:08.602Z</time></trkpt><trkpt lat="42.2614053" lon="13.2436539"><ele>1253.0</ele><time>2026-05-02T16:10:09.602Z</time></trkpt><trkpt lat="42.2613244" lon="13.243578"><ele>1253.0</ele><time>2026-05-02T16:10:10.602Z</time></trkpt><trkpt lat="42.2612402" lon="13.2434989"><ele>1253.0</ele><time>2026-05-02T16:10:11.603Z</time></trkpt><trkpt lat="42.2611596" lon="13.243419"><ele>1253.0</ele><time>2026-05-02T16:10:12.603Z</time></trkpt><trkpt lat="42.2610863" lon="13.2433478"><ele>1253.0</ele><time>2026-05-02T16:10:13.602Z</time></trkpt><trkpt lat="42.2610173" lon="13.2432867"><ele>1253.0</ele><time>2026-05-02T16:10:14.602Z</time></trkpt><trkpt lat="42.2609523" lon="13.2432188"><ele>1253.0</ele><time>2026-05-02T16:10:15.602Z</time></trkpt><trkpt lat="42.2608988" lon="13.2431476"><ele>1253.0</ele><time>2026-05-02T16:10:16.602Z</time></trkpt><trkpt lat="42.2608606" lon="13.2430745"><ele>1253.0</ele><time>2026-05-02T16:10:17.603Z</time></trkpt><trkpt lat="42.2608344" lon="13.2429876"><ele>1253.0</ele><time>2026-05-02T16:10:18.603Z</time></trkpt><trkpt lat="42.2608184" lon="13.2428818"><ele>1253.0</ele><time>2026-05-02T16:10:19.602Z</time></trkpt><trkpt lat="42.2608137" lon="13.2427571"><ele>1253.0</ele><time>2026-05-02T16:10:20.603Z</time></trkpt><trkpt lat="42.2608099" lon="13.2426224"><ele>1253.0</ele><time>2026-05-02T16:10:21.602Z</time></trkpt><trkpt lat="42.2607966" lon="13.2424994"><ele>1253.0</ele><time>2026-05-02T16:10:22.602Z</time></trkpt><trkpt lat="42.2607763" lon="13.2423858"><ele>1252.6666666666667</ele><time>2026-05-02T16:10:23.602Z</time></trkpt><trkpt lat="42.2607476" lon="13.2422685"><ele>1252.3333333333335</ele><time>2026-05-02T16:10:24.603Z</time></trkpt><trkpt lat="42.2607097" lon="13.2421554"><ele>1252.0</ele><time>2026-05-02T16:10:25.603Z</time></trkpt><trkpt lat="42.2606723" lon="13.2420562"><ele>1251.6666666666667</ele><time>2026-05-02T16:10:26.603Z</time></trkpt><trkpt lat="42.2606408" lon="13.2419626"><ele>1251.3333333333333</ele><time>2026-05-02T16:10:27.602Z</time></trkpt><trkpt lat="42.2606162" lon="13.2418652"><ele>1251.0</ele><time>2026-05-02T16:10:28.602Z</time></trkpt><trkpt lat="42.2605985" lon="13.2417615"><ele>1249.6666666666667</ele><time>2026-05-02T16:10:29.602Z</time></trkpt><trkpt lat="42.2605887" lon="13.2416491"><ele>1248.3333333333333</ele><time>2026-05-02T16:10:30.603Z</time></trkpt><trkpt lat="42.2605888" lon="13.2415324"><ele>1247.0</ele><time>2026-05-02T16:10:31.603Z</time></trkpt><trkpt lat="42.2605966" lon="13.2414205"><ele>1245.6666666666665</ele><time>2026-05-02T16:10:32.602Z</time></trkpt><trkpt lat="42.2606077" lon="13.2413142"><ele>1244.3333333333333</ele><time>2026-05-02T16:10:33.602Z</time></trkpt><trkpt lat="42.2606213" lon="13.2412119"><ele>1243.0</ele><time>2026-05-02T16:10:34.602Z</time></trkpt><trkpt lat="42.2606394" lon="13.2411213"><ele>1243.0</ele><time>2026-05-02T16:10:35.602Z</time></trkpt><trkpt lat="42.2606934" lon="13.2409839"><ele>1243.0</ele><time>2026-05-02T16:10:37.602Z</time></trkpt><trkpt lat="42.2607966" lon="13.240875"><ele>1243.0</ele><time>2026-05-02T16:10:39.603Z</time></trkpt><trkpt lat="42.2608658" lon="13.2408225"><ele>1243.0</ele><time>2026-05-02T16:10:40.602Z</time></trkpt><trkpt lat="42.2609459" lon="13.2407694"><ele>1243.0</ele><time>2026-05-02T16:10:41.603Z</time></trkpt><trkpt lat="42.2610263" lon="13.2407189"><ele>1243.0</ele><time>2026-05-02T16:10:42.602Z</time></trkpt><trkpt lat="42.26111" lon="13.240666"><ele>1243.0</ele><time>2026-05-02T16:10:43.602Z</time></trkpt><trkpt lat="42.2611878" lon="13.240617"><ele>1243.0</ele><time>2026-05-02T16:10:44.602Z</time></trkpt><trkpt lat="42.2612643" lon="13.2405716"><ele>1243.0</ele><time>2026-05-02T16:10:45.602Z</time></trkpt><trkpt lat="42.2613384" lon="13.2405288"><ele>1243.0</ele><time>2026-05-02T16:10:46.602Z</time></trkpt><trkpt lat="42.2614121" lon="13.240488"><ele>1243.0</ele><time>2026-05-02T16:10:47.602Z</time></trkpt><trkpt lat="42.2614797" lon="13.2404402"><ele>1241.8333333333333</ele><time>2026-05-02T16:10:48.602Z</time></trkpt><trkpt lat="42.2615471" lon="13.2403894"><ele>1240.6666666666665</ele><time>2026-05-02T16:10:49.602Z</time></trkpt><trkpt lat="42.2616023" lon="13.2403158"><ele>1239.5</ele><time>2026-05-02T16:10:50.603Z</time></trkpt><trkpt lat="42.2616647" lon="13.2402504"><ele>1238.3333333333333</ele><time>2026-05-02T16:10:51.602Z</time></trkpt><trkpt lat="42.2617582" lon="13.2401271"><ele>1237.1666666666667</ele><time>2026-05-02T16:10:53.603Z</time></trkpt><trkpt lat="42.2618222" lon="13.2400732"><ele>1236.0</ele><time>2026-05-02T16:10:54.602Z</time></trkpt><trkpt lat="42.2618859" lon="13.2400326"><ele>1236.0</ele><time>2026-05-02T16:10:55.602Z</time></trkpt><trkpt lat="42.2619553" lon="13.2399887"><ele>1236.0</ele><time>2026-05-02T16:10:56.603Z</time></trkpt><trkpt lat="42.2620265" lon="13.2399562"><ele>1236.0</ele><time>2026-05-02T16:10:57.603Z</time></trkpt><trkpt lat="42.2620898" lon="13.2399185"><ele>1236.0</ele><time>2026-05-02T16:10:58.603Z</time></trkpt><trkpt lat="42.2621521" lon="13.239884"><ele>1236.0</ele><time>2026-05-02T16:10:59.603Z</time></trkpt><trkpt lat="42.2622285" lon="13.2398488"><ele>1236.0</ele><time>2026-05-02T16:11:00.603Z</time></trkpt><trkpt lat="42.2623122" lon="13.2398111"><ele>1232.6666666666667</ele><time>2026-05-02T16:11:01.602Z</time></trkpt><trkpt lat="42.2624104" lon="13.2397949"><ele>1229.3333333333333</ele><time>2026-05-02T16:11:02.601Z</time></trkpt><trkpt lat="42.2624938" lon="13.2397823"><ele>1226.0</ele><time>2026-05-02T16:11:03.602Z</time></trkpt><trkpt lat="42.2625812" lon="13.2397849"><ele>1222.6666666666665</ele><time>2026-05-02T16:11:04.602Z</time></trkpt><trkpt lat="42.2626672" lon="13.2397766"><ele>1219.3333333333333</ele><time>2026-05-02T16:11:05.603Z</time></trkpt><trkpt lat="42.2627511" lon="13.2397744"><ele>1216.0</ele><time>2026-05-02T16:11:06.601Z</time></trkpt><trkpt lat="42.2628312" lon="13.2397741"><ele>1216.0</ele><time>2026-05-02T16:11:07.602Z</time></trkpt><trkpt lat="42.2629128" lon="13.239772"><ele>1216.0</ele><time>2026-05-02T16:11:08.602Z</time></trkpt><trkpt lat="42.2629874" lon="13.2397622"><ele>1216.0</ele><time>2026-05-02T16:11:09.603Z</time></trkpt><trkpt lat="42.2630481" lon="13.2397362"><ele>1216.0</ele><time>2026-05-02T16:11:10.603Z</time></trkpt><trkpt lat="42.2631405" lon="13.2396598"><ele>1216.0</ele><time>2026-05-02T16:11:12.602Z</time></trkpt><trkpt lat="42.2632108" lon="13.2395632"><ele>1216.0</ele><time>2026-05-02T16:11:14.602Z</time></trkpt><trkpt lat="42.2632168" lon="13.2394742"><ele>1215.8333333333333</ele><time>2026-05-02T16:11:15.602Z</time></trkpt><trkpt lat="42.2632316" lon="13.2393749"><ele>1215.6666666666665</ele><time>2026-05-02T16:11:16.603Z</time></trkpt><trkpt lat="42.2632393" lon="13.2392646"><ele>1215.5</ele><time>2026-05-02T16:11:17.603Z</time></trkpt><trkpt lat="42.2632523" lon="13.2391524"><ele>1215.3333333333333</ele><time>2026-05-02T16:11:18.603Z</time></trkpt><trkpt lat="42.2632612" lon="13.2390469"><ele>1215.1666666666667</ele><time>2026-05-02T16:11:19.603Z</time></trkpt><trkpt lat="42.2632682" lon="13.238941"><ele>1215.0</ele><time>2026-05-02T16:11:20.603Z</time></trkpt><trkpt lat="42.2632721" lon="13.2388403"><ele>1215.0000000000002</ele><time>2026-05-02T16:11:21.602Z</time></trkpt><trkpt lat="42.2632757" lon="13.2387413"><ele>1215.0</ele><time>2026-05-02T16:11:22.602Z</time></trkpt><trkpt lat="42.2632865" lon="13.2386498"><ele>1215.0</ele><time>2026-05-02T16:11:23.602Z</time></trkpt><trkpt lat="42.2633034" lon="13.2385649"><ele>1215.0</ele><time>2026-05-02T16:11:24.603Z</time></trkpt><trkpt lat="42.2633285" lon="13.2384819"><ele>1215.0</ele><time>2026-05-02T16:11:25.602Z</time></trkpt><trkpt lat="42.2633638" lon="13.2384093"><ele>1215.0000000000002</ele><time>2026-05-02T16:11:26.603Z</time></trkpt><trkpt lat="42.2634072" lon="13.2383296"><ele>1215.0</ele><time>2026-05-02T16:11:27.603Z</time></trkpt><trkpt lat="42.2634539" lon="13.2382482"><ele>1215.0000000000002</ele><time>2026-05-02T16:11:28.602Z</time></trkpt><trkpt lat="42.2635028" lon="13.2381652"><ele>1215.0</ele><time>2026-05-02T16:11:29.602Z</time></trkpt><trkpt lat="42.2635513" lon="13.2380817"><ele>1215.0</ele><time>2026-05-02T16:11:30.602Z</time></trkpt><trkpt lat="42.2635999" lon="13.2379977"><ele>1215.0</ele><time>2026-05-02T16:11:31.602Z</time></trkpt><trkpt lat="42.2636491" lon="13.237924"><ele>1215.0</ele><time>2026-05-02T16:11:32.602Z</time></trkpt><trkpt lat="42.2636936" lon="13.2378592"><ele>1215.0000000000002</ele><time>2026-05-02T16:11:33.602Z</time></trkpt><trkpt lat="42.2637365" lon="13.2377942"><ele>1215.0</ele><time>2026-05-02T16:11:34.602Z</time></trkpt><trkpt lat="42.2638006" lon="13.237702"><ele>1214.4</ele><time>2026-05-02T16:11:36.602Z</time></trkpt><trkpt lat="42.2638621" lon="13.2376683"><ele>1213.8</ele><time>2026-05-02T16:11:38.602Z</time></trkpt><trkpt lat="42.2639824" lon="13.2376274"><ele>1213.2</ele><time>2026-05-02T16:11:40.603Z</time></trkpt><trkpt lat="42.2640681" lon="13.2375686"><ele>1212.6</ele><time>2026-05-02T16:11:41.601Z</time></trkpt><trkpt lat="42.2641791" lon="13.2374936"><ele>1212.0</ele><time>2026-05-02T16:11:42.602Z</time></trkpt><trkpt lat="42.2642877" lon="13.2374415"><ele>1212.0</ele><time>2026-05-02T16:11:43.601Z</time></trkpt><trkpt lat="42.2643919" lon="13.2374033"><ele>1212.0</ele><time>2026-05-02T16:11:44.601Z</time></trkpt><trkpt lat="42.264488" lon="13.2373891"><ele>1212.0</ele><time>2026-05-02T16:11:45.603Z</time></trkpt><trkpt lat="42.2645749" lon="13.2374011"><ele>1212.0</ele><time>2026-05-02T16:11:46.602Z</time></trkpt><trkpt lat="42.2646437" lon="13.2374313"><ele>1212.0</ele><time>2026-05-02T16:11:47.602Z</time></trkpt><trkpt lat="42.2647442" lon="13.2375243"><ele>1212.6</ele><time>2026-05-02T16:11:49.602Z</time></trkpt><trkpt lat="42.2648019" lon="13.2376024"><ele>1213.2</ele><time>2026-05-02T16:11:50.602Z</time></trkpt><trkpt lat="42.2648717" lon="13.237698"><ele>1213.8</ele><time>2026-05-02T16:11:51.602Z</time></trkpt><trkpt lat="42.2649443" lon="13.2377869"><ele>1214.4</ele><time>2026-05-02T16:11:52.602Z</time></trkpt><trkpt lat="42.2650232" lon="13.2378626"><ele>1215.0</ele><time>2026-05-02T16:11:53.602Z</time></trkpt><trkpt lat="42.2651034" lon="13.2379346"><ele>1215.0</ele><time>2026-05-02T16:11:54.602Z</time></trkpt><trkpt lat="42.2651777" lon="13.2380134"><ele>1215.0</ele><time>2026-05-02T16:11:55.602Z</time></trkpt><trkpt lat="42.265244" lon="13.2381127"><ele>1215.0</ele><time>2026-05-02T16:11:56.602Z</time></trkpt><trkpt lat="42.2653032" lon="13.238239"><ele>1215.0</ele><time>2026-05-02T16:11:57.603Z</time></trkpt><trkpt lat="42.2653599" lon="13.2383855"><ele>1215.0</ele><time>2026-05-02T16:11:58.602Z</time></trkpt><trkpt lat="42.2654268" lon="13.2385319"><ele>1215.0</ele><time>2026-05-02T16:11:59.602Z</time></trkpt><trkpt lat="42.2654988" lon="13.2386667"><ele>1215.0</ele><time>2026-05-02T16:12:00.602Z</time></trkpt><trkpt lat="42.2655699" lon="13.2388006"><ele>1215.0</ele><time>2026-05-02T16:12:01.602Z</time></trkpt><trkpt lat="42.2656367" lon="13.2389338"><ele>1215.0</ele><time>2026-05-02T16:12:02.603Z</time></trkpt><trkpt lat="42.2656808" lon="13.2390379"><ele>1212.6</ele><time>2026-05-02T16:12:03.603Z</time></trkpt><trkpt lat="42.265724" lon="13.2391542"><ele>1210.2</ele><time>2026-05-02T16:12:04.603Z</time></trkpt><trkpt lat="42.2657586" lon="13.2392819"><ele>1207.8</ele><time>2026-05-02T16:12:05.602Z</time></trkpt><trkpt lat="42.2657982" lon="13.2394237"><ele>1205.4</ele><time>2026-05-02T16:12:06.603Z</time></trkpt><trkpt lat="42.2658472" lon="13.2395605"><ele>1203.0</ele><time>2026-05-02T16:12:07.603Z</time></trkpt><trkpt lat="42.2659146" lon="13.2396968"><ele>1201.0</ele><time>2026-05-02T16:12:08.602Z</time></trkpt><trkpt lat="42.2660026" lon="13.2398352"><ele>1199.0</ele><time>2026-05-02T16:12:09.602Z</time></trkpt><trkpt lat="42.2660983" lon="13.2399684"><ele>1197.0</ele><time>2026-05-02T16:12:10.602Z</time></trkpt><trkpt lat="42.2661939" lon="13.2401051"><ele>1195.0</ele><time>2026-05-02T16:12:11.602Z</time></trkpt><trkpt lat="42.2662952" lon="13.240238"><ele>1195.0</ele><time>2026-05-02T16:12:12.602Z</time></trkpt><trkpt lat="42.2664016" lon="13.2403613"><ele>1195.0</ele><time>2026-05-02T16:12:13.602Z</time></trkpt><trkpt lat="42.266514" lon="13.2404666"><ele>1195.0</ele><time>2026-05-02T16:12:14.602Z</time></trkpt><trkpt lat="42.2666356" lon="13.2405583"><ele>1195.0</ele><time>2026-05-02T16:12:15.603Z</time></trkpt><trkpt lat="42.2667674" lon="13.240637"><ele>1191.6666666666665</ele><time>2026-05-02T16:12:16.603Z</time></trkpt><trkpt lat="42.2669129" lon="13.2407081"><ele>1188.3333333333333</ele><time>2026-05-02T16:12:17.603Z</time></trkpt><trkpt lat="42.2670588" lon="13.2407689"><ele>1185.0</ele><time>2026-05-02T16:12:18.603Z</time></trkpt><trkpt lat="42.2672024" lon="13.2408214"><ele>1184.75</ele><time>2026-05-02T16:12:19.603Z</time></trkpt><trkpt lat="42.2673437" lon="13.2408652"><ele>1184.5</ele><time>2026-05-02T16:12:20.602Z</time></trkpt><trkpt lat="42.2674786" lon="13.2409119"><ele>1184.25</ele><time>2026-05-02T16:12:21.602Z</time></trkpt><trkpt lat="42.2676037" lon="13.240974"><ele>1184.0</ele><time>2026-05-02T16:12:22.602Z</time></trkpt><trkpt lat="42.2677195" lon="13.2410509"><ele>1184.0</ele><time>2026-05-02T16:12:23.602Z</time></trkpt><trkpt lat="42.2678252" lon="13.2411392"><ele>1184.0</ele><time>2026-05-02T16:12:24.603Z</time></trkpt><trkpt lat="42.267892" lon="13.241214"><ele>1184.0</ele><time>2026-05-02T16:12:25.602Z</time></trkpt><trkpt lat="42.2679245" lon="13.2412939"><ele>1184.0</ele><time>2026-05-02T16:12:26.602Z</time></trkpt><trkpt lat="42.2679404" lon="13.241401"><ele>1184.0</ele><time>2026-05-02T16:12:27.603Z</time></trkpt><trkpt lat="42.2679446" lon="13.2415345"><ele>1183.0</ele><time>2026-05-02T16:12:28.603Z</time></trkpt><trkpt lat="42.2679455" lon="13.2416881"><ele>1182.0</ele><time>2026-05-02T16:12:29.602Z</time></trkpt><trkpt lat="42.2679454" lon="13.2418513"><ele>1181.0</ele><time>2026-05-02T16:12:30.603Z</time></trkpt><trkpt lat="42.2679549" lon="13.242012"><ele>1180.0</ele><time>2026-05-02T16:12:31.603Z</time></trkpt><trkpt lat="42.2679802" lon="13.2421759"><ele>1179.75</ele><time>2026-05-02T16:12:32.602Z</time></trkpt><trkpt lat="42.2680161" lon="13.2423411"><ele>1179.5</ele><time>2026-05-02T16:12:33.602Z</time></trkpt><trkpt lat="42.2680554" lon="13.2424928"><ele>1179.25</ele><time>2026-05-02T16:12:34.602Z</time></trkpt><trkpt lat="42.2680956" lon="13.2426342"><ele>1179.0</ele><time>2026-05-02T16:12:35.602Z</time></trkpt><trkpt lat="42.2681414" lon="13.2427635"><ele>1179.0</ele><time>2026-05-02T16:12:36.602Z</time></trkpt><trkpt lat="42.2681948" lon="13.2428655"><ele>1179.0</ele><time>2026-05-02T16:12:37.602Z</time></trkpt><trkpt lat="42.2682621" lon="13.2429416"><ele>1179.0</ele><time>2026-05-02T16:12:38.602Z</time></trkpt><trkpt lat="42.2683406" lon="13.2429884"><ele>1179.0</ele><time>2026-05-02T16:12:39.603Z</time></trkpt><trkpt lat="42.2684335" lon="13.2430091"><ele>1179.0</ele><time>2026-05-02T16:12:40.602Z</time></trkpt><trkpt lat="42.268539" lon="13.2430131"><ele>1179.0</ele><time>2026-05-02T16:12:41.603Z</time></trkpt><trkpt lat="42.2686518" lon="13.2430121"><ele>1179.0</ele><time>2026-05-02T16:12:42.602Z</time></trkpt><trkpt lat="42.2687612" lon="13.2430215"><ele>1179.0</ele><time>2026-05-02T16:12:43.603Z</time></trkpt><trkpt lat="42.2688732" lon="13.2430502"><ele>1179.0</ele><time>2026-05-02T16:12:44.602Z</time></trkpt><trkpt lat="42.2689958" lon="13.2430952"><ele>1180.6000000000001</ele><time>2026-05-02T16:12:45.603Z</time></trkpt><trkpt lat="42.2691167" lon="13.2431544"><ele>1182.2</ele><time>2026-05-02T16:12:46.602Z</time></trkpt><trkpt lat="42.269224" lon="13.243218"><ele>1183.8000000000002</ele><time>2026-05-02T16:12:47.602Z</time></trkpt><trkpt lat="42.269322" lon="13.2432646"><ele>1185.4</ele><time>2026-05-02T16:12:48.602Z</time></trkpt><trkpt lat="42.2694113" lon="13.2433022"><ele>1187.0</ele><time>2026-05-02T16:12:49.601Z</time></trkpt><trkpt lat="42.2694973" lon="13.2433355"><ele>1187.0</ele><time>2026-05-02T16:12:50.603Z</time></trkpt><trkpt lat="42.2695707" lon="13.2433634"><ele>1187.0</ele><time>2026-05-02T16:12:51.603Z</time></trkpt><trkpt lat="42.2696472" lon="13.2433814"><ele>1187.0</ele><time>2026-05-02T16:12:52.603Z</time></trkpt><trkpt lat="42.2697249" lon="13.2433894"><ele>1187.0</ele><time>2026-05-02T16:12:53.602Z</time></trkpt><trkpt lat="42.2698036" lon="13.2433796"><ele>1187.0</ele><time>2026-05-02T16:12:54.602Z</time></trkpt><trkpt lat="42.269883" lon="13.2433615"><ele>1187.0</ele><time>2026-05-02T16:12:55.603Z</time></trkpt><trkpt lat="42.2699534" lon="13.2433338"><ele>1188.0</ele><time>2026-05-02T16:12:56.603Z</time></trkpt><trkpt lat="42.2700216" lon="13.2433003"><ele>1189.0</ele><time>2026-05-02T16:12:57.602Z</time></trkpt><trkpt lat="42.2700995" lon="13.2432555"><ele>1190.0</ele><time>2026-05-02T16:12:58.602Z</time></trkpt><trkpt lat="42.2701798" lon="13.2431738"><ele>1191.0</ele><time>2026-05-02T16:12:59.602Z</time></trkpt><trkpt lat="42.2702368" lon="13.2430858"><ele>1192.0</ele><time>2026-05-02T16:13:00.602Z</time></trkpt><trkpt lat="42.2703035" lon="13.2429954"><ele>1193.0</ele><time>2026-05-02T16:13:01.602Z</time></trkpt><trkpt lat="42.2703771" lon="13.2429211"><ele>1193.4</ele><time>2026-05-02T16:13:02.602Z</time></trkpt><trkpt lat="42.2704577" lon="13.2428635"><ele>1193.8</ele><time>2026-05-02T16:13:03.602Z</time></trkpt><trkpt lat="42.2705368" lon="13.242806"><ele>1194.2</ele><time>2026-05-02T16:13:04.603Z</time></trkpt><trkpt lat="42.2706266" lon="13.2427556"><ele>1194.6</ele><time>2026-05-02T16:13:05.602Z</time></trkpt><trkpt lat="42.2707099" lon="13.242702"><ele>1195.0</ele><time>2026-05-02T16:13:06.603Z</time></trkpt><trkpt lat="42.2707934" lon="13.2426482"><ele>1194.0</ele><time>2026-05-02T16:13:07.6Z</time></trkpt><trkpt lat="42.2708767" lon="13.2425931"><ele>1193.0</ele><time>2026-05-02T16:13:08.602Z</time></trkpt><trkpt lat="42.2709622" lon="13.2425265"><ele>1192.0</ele><time>2026-05-02T16:13:09.603Z</time></trkpt><trkpt lat="42.2710504" lon="13.2424635"><ele>1191.0</ele><time>2026-05-02T16:13:10.602Z</time></trkpt><trkpt lat="42.27114" lon="13.2424046"><ele>1190.0</ele><time>2026-05-02T16:13:11.603Z</time></trkpt><trkpt lat="42.27123" lon="13.242347"><ele>1189.4</ele><time>2026-05-02T16:13:12.602Z</time></trkpt><trkpt lat="42.2713189" lon="13.2422883"><ele>1188.8</ele><time>2026-05-02T16:13:13.602Z</time></trkpt><trkpt lat="42.2714091" lon="13.2422367"><ele>1188.2</ele><time>2026-05-02T16:13:14.602Z</time></trkpt><trkpt lat="42.2714961" lon="13.2421794"><ele>1187.6</ele><time>2026-05-02T16:13:15.602Z</time></trkpt><trkpt lat="42.2715759" lon="13.2421193"><ele>1187.0</ele><time>2026-05-02T16:13:16.602Z</time></trkpt><trkpt lat="42.2716484" lon="13.2420468"><ele>1187.0</ele><time>2026-05-02T16:13:17.602Z</time></trkpt><trkpt lat="42.2717156" lon="13.2419714"><ele>1187.0</ele><time>2026-05-02T16:13:18.602Z</time></trkpt><trkpt lat="42.2717844" lon="13.2418941"><ele>1187.0</ele><time>2026-05-02T16:13:19.603Z</time></trkpt><trkpt lat="42.2718507" lon="13.2418189"><ele>1187.0</ele><time>2026-05-02T16:13:20.602Z</time></trkpt><trkpt lat="42.2719177" lon="13.2417467"><ele>1187.0</ele><time>2026-05-02T16:13:21.602Z</time></trkpt><trkpt lat="42.2719854" lon="13.2416784"><ele>1187.0</ele><time>2026-05-02T16:13:22.602Z</time></trkpt><trkpt lat="42.2720543" lon="13.2416184"><ele>1187.0</ele><time>2026-05-02T16:13:23.602Z</time></trkpt><trkpt lat="42.2721309" lon="13.2415713"><ele>1187.0</ele><time>2026-05-02T16:13:24.603Z</time></trkpt><trkpt lat="42.2722107" lon="13.2415439"><ele>1187.0</ele><time>2026-05-02T16:13:25.603Z</time></trkpt><trkpt lat="42.272293" lon="13.2415295"><ele>1187.0</ele><time>2026-05-02T16:13:26.602Z</time></trkpt><trkpt lat="42.2723783" lon="13.2415344"><ele>1187.0</ele><time>2026-05-02T16:13:27.602Z</time></trkpt><trkpt lat="42.2724673" lon="13.2415485"><ele>1187.0</ele><time>2026-05-02T16:13:28.602Z</time></trkpt><trkpt lat="42.2725603" lon="13.2415672"><ele>1186.0</ele><time>2026-05-02T16:13:29.602Z</time></trkpt><trkpt lat="42.2726578" lon="13.241589"><ele>1185.0</ele><time>2026-05-02T16:13:30.602Z</time></trkpt><trkpt lat="42.2727589" lon="13.2416123"><ele>1184.0</ele><time>2026-05-02T16:13:31.603Z</time></trkpt><trkpt lat="42.2728565" lon="13.2416326"><ele>1183.0</ele><time>2026-05-02T16:13:32.602Z</time></trkpt><trkpt lat="42.2729589" lon="13.2416462"><ele>1182.0</ele><time>2026-05-02T16:13:33.602Z</time></trkpt><trkpt lat="42.2730637" lon="13.2416573"><ele>1181.5</ele><time>2026-05-02T16:13:34.602Z</time></trkpt><trkpt lat="42.2731638" lon="13.2416705"><ele>1181.0</ele><time>2026-05-02T16:13:35.602Z</time></trkpt><trkpt lat="42.2732571" lon="13.2416753"><ele>1180.5</ele><time>2026-05-02T16:13:36.602Z</time></trkpt><trkpt lat="42.2733392" lon="13.2416802"><ele>1180.0</ele><time>2026-05-02T16:13:37.603Z</time></trkpt><trkpt lat="42.2734096" lon="13.2416838"><ele>1179.5</ele><time>2026-05-02T16:13:38.602Z</time></trkpt><trkpt lat="42.273474" lon="13.2417009"><ele>1179.0</ele><time>2026-05-02T16:13:39.602Z</time></trkpt><trkpt lat="42.2735354" lon="13.2417295"><ele>1179.0</ele><time>2026-05-02T16:13:40.601Z</time></trkpt><trkpt lat="42.273591" lon="13.2417729"><ele>1179.0</ele><time>2026-05-02T16:13:41.603Z</time></trkpt><trkpt lat="42.2736489" lon="13.2418304"><ele>1179.0</ele><time>2026-05-02T16:13:42.602Z</time></trkpt><trkpt lat="42.2737103" lon="13.2419018"><ele>1179.0</ele><time>2026-05-02T16:13:43.602Z</time></trkpt><trkpt lat="42.2737699" lon="13.2419818"><ele>1179.0</ele><time>2026-05-02T16:13:44.602Z</time></trkpt><trkpt lat="42.2738314" lon="13.2420568"><ele>1179.0</ele><time>2026-05-02T16:13:45.603Z</time></trkpt><trkpt lat="42.2738869" lon="13.2421139"><ele>1179.5</ele><time>2026-05-02T16:13:46.602Z</time></trkpt><trkpt lat="42.2739409" lon="13.2421622"><ele>1180.0</ele><time>2026-05-02T16:13:47.602Z</time></trkpt><trkpt lat="42.2740351" lon="13.2422311"><ele>1180.5</ele><time>2026-05-02T16:13:49.602Z</time></trkpt><trkpt lat="42.2741159" lon="13.2422891"><ele>1181.0</ele><time>2026-05-02T16:13:51.603Z</time></trkpt><trkpt lat="42.2741702" lon="13.2423591"><ele>1181.5</ele><time>2026-05-02T16:13:53.602Z</time></trkpt><trkpt lat="42.2742046" lon="13.2424555"><ele>1182.0</ele><time>2026-05-02T16:13:55.602Z</time></trkpt><trkpt lat="42.2742386" lon="13.2425543"><ele>1183.0</ele><time>2026-05-02T16:13:57.603Z</time></trkpt><trkpt lat="42.2742392" lon="13.2426585"><ele>1184.0</ele><time>2026-05-02T16:13:59.602Z</time></trkpt><trkpt lat="42.2742265" lon="13.2427423"><ele>1185.0</ele><time>2026-05-02T16:14:01.602Z</time></trkpt><trkpt lat="42.2742414" lon="13.2428628"><ele>1186.0</ele><time>2026-05-02T16:14:03.602Z</time></trkpt><trkpt lat="42.2742621" lon="13.2429873"><ele>1187.0</ele><time>2026-05-02T16:14:05.602Z</time></trkpt><trkpt lat="42.2742966" lon="13.243107"><ele>1188.0</ele><time>2026-05-02T16:14:07.602Z</time></trkpt><trkpt lat="42.2743548" lon="13.2432203"><ele>1188.0</ele><time>2026-05-02T16:14:09.602Z</time></trkpt><trkpt lat="42.2744513" lon="13.2433369"><ele>1188.0</ele><time>2026-05-02T16:14:11.602Z</time></trkpt><trkpt lat="42.2745116" lon="13.2433941"><ele>1188.0</ele><time>2026-05-02T16:14:12.602Z</time></trkpt><trkpt lat="42.2745737" lon="13.2434477"><ele>1188.0</ele><time>2026-05-02T16:14:13.602Z</time></trkpt><trkpt lat="42.2746462" lon="13.2435003"><ele>1188.0</ele><time>2026-05-02T16:14:14.602Z</time></trkpt><trkpt lat="42.2747175" lon="13.2435505"><ele>1188.0</ele><time>2026-05-02T16:14:15.603Z</time></trkpt><trkpt lat="42.2747893" lon="13.2436066"><ele>1191.0</ele><time>2026-05-02T16:14:16.602Z</time></trkpt><trkpt lat="42.274861" lon="13.243666"><ele>1194.0</ele><time>2026-05-02T16:14:17.602Z</time></trkpt><trkpt lat="42.2749315" lon="13.2437233"><ele>1197.0</ele><time>2026-05-02T16:14:18.602Z</time></trkpt><trkpt lat="42.2750055" lon="13.2437817"><ele>1200.0</ele><time>2026-05-02T16:14:19.602Z</time></trkpt><trkpt lat="42.2750897" lon="13.2438457"><ele>1203.0</ele><time>2026-05-02T16:14:20.603Z</time></trkpt><trkpt lat="42.2751888" lon="13.2439216"><ele>1202.5</ele><time>2026-05-02T16:14:21.601Z</time></trkpt><trkpt lat="42.2752892" lon="13.243998"><ele>1202.0</ele><time>2026-05-02T16:14:22.601Z</time></trkpt><trkpt lat="42.2753743" lon="13.244061"><ele>1201.5</ele><time>2026-05-02T16:14:23.602Z</time></trkpt><trkpt lat="42.275449" lon="13.2441164"><ele>1201.0</ele><time>2026-05-02T16:14:24.602Z</time></trkpt><trkpt lat="42.2755139" lon="13.2441698"><ele>1200.5</ele><time>2026-05-02T16:14:25.601Z</time></trkpt><trkpt lat="42.2755743" lon="13.2442274"><ele>1200.0</ele><time>2026-05-02T16:14:26.602Z</time></trkpt><trkpt lat="42.2756309" lon="13.2442813"><ele>1201.2857142857142</ele><time>2026-05-02T16:14:27.602Z</time></trkpt><trkpt lat="42.2756917" lon="13.2443323"><ele>1202.5714285714284</ele><time>2026-05-02T16:14:28.602Z</time></trkpt><trkpt lat="42.2757567" lon="13.2443798"><ele>1203.8571428571427</ele><time>2026-05-02T16:14:29.603Z</time></trkpt><trkpt lat="42.275826" lon="13.2444218"><ele>1205.142857142857</ele><time>2026-05-02T16:14:30.602Z</time></trkpt><trkpt lat="42.2758893" lon="13.244457"><ele>1206.4285714285716</ele><time>2026-05-02T16:14:31.601Z</time></trkpt><trkpt lat="42.2759505" lon="13.244484"><ele>1207.7142857142856</ele><time>2026-05-02T16:14:32.601Z</time></trkpt><trkpt lat="42.2760162" lon="13.2444992"><ele>1209.0</ele><time>2026-05-02T16:14:33.602Z</time></trkpt><trkpt lat="42.2760839" lon="13.2445189"><ele>1209.0</ele><time>2026-05-02T16:14:34.602Z</time></trkpt><trkpt lat="42.2761523" lon="13.2445345"><ele>1209.0</ele><time>2026-05-02T16:14:35.602Z</time></trkpt><trkpt lat="42.2762124" lon="13.2445604"><ele>1209.0</ele><time>2026-05-02T16:14:36.603Z</time></trkpt><trkpt lat="42.276302" lon="13.2445983"><ele>1209.0</ele><time>2026-05-02T16:14:38.601Z</time></trkpt><trkpt lat="42.2763897" lon="13.2446786"><ele>1209.0</ele><time>2026-05-02T16:14:40.602Z</time></trkpt><trkpt lat="42.2764405" lon="13.2447289"><ele>1209.0</ele><time>2026-05-02T16:14:41.603Z</time></trkpt><trkpt lat="42.2764935" lon="13.2447805"><ele>1209.6666666666667</ele><time>2026-05-02T16:14:42.601Z</time></trkpt><trkpt lat="42.2765485" lon="13.2448405"><ele>1210.3333333333333</ele><time>2026-05-02T16:14:43.603Z</time></trkpt><trkpt lat="42.2766091" lon="13.2449013"><ele>1211.0</ele><time>2026-05-02T16:14:44.602Z</time></trkpt><trkpt lat="42.2766634" lon="13.2449631"><ele>1211.6666666666665</ele><time>2026-05-02T16:14:45.602Z</time></trkpt><trkpt lat="42.2767541" lon="13.2450496"><ele>1212.3333333333333</ele><time>2026-05-02T16:14:47.602Z</time></trkpt><trkpt lat="42.276853" lon="13.2451294"><ele>1213.0</ele><time>2026-05-02T16:14:49.602Z</time></trkpt><trkpt lat="42.2769138" lon="13.2451696"><ele>1213.0</ele><time>2026-05-02T16:14:50.602Z</time></trkpt><trkpt lat="42.2769757" lon="13.2452056"><ele>1213.0</ele><time>2026-05-02T16:14:51.602Z</time></trkpt><trkpt lat="42.2770391" lon="13.2452374"><ele>1213.0</ele><time>2026-05-02T16:14:52.602Z</time></trkpt><trkpt lat="42.2771038" lon="13.2452641"><ele>1213.0</ele><time>2026-05-02T16:14:53.599Z</time></trkpt><trkpt lat="42.2771613" lon="13.2453064"><ele>1213.0</ele><time>2026-05-02T16:14:54.602Z</time></trkpt><trkpt lat="42.2772664" lon="13.2453931"><ele>1213.0</ele><time>2026-05-02T16:14:56.602Z</time></trkpt><trkpt lat="42.2773467" lon="13.2455134"><ele>1211.857142857143</ele><time>2026-05-02T16:14:58.602Z</time></trkpt><trkpt lat="42.2773884" lon="13.2455859"><ele>1210.7142857142856</ele><time>2026-05-02T16:14:59.603Z</time></trkpt><trkpt lat="42.2774207" lon="13.2456651"><ele>1209.5714285714284</ele><time>2026-05-02T16:15:00.602Z</time></trkpt><trkpt lat="42.2774728" lon="13.2457358"><ele>1208.4285714285716</ele><time>2026-05-02T16:15:01.602Z</time></trkpt><trkpt lat="42.2775277" lon="13.2457937"><ele>1207.2857142857142</ele><time>2026-05-02T16:15:02.602Z</time></trkpt><trkpt lat="42.2775907" lon="13.2458284"><ele>1206.142857142857</ele><time>2026-05-02T16:15:03.602Z</time></trkpt><trkpt lat="42.2776719" lon="13.2458425"><ele>1205.0</ele><time>2026-05-02T16:15:04.602Z</time></trkpt><trkpt lat="42.2777679" lon="13.2458615"><ele>1205.0</ele><time>2026-05-02T16:15:05.603Z</time></trkpt><trkpt lat="42.2778614" lon="13.2458785"><ele>1205.0</ele><time>2026-05-02T16:15:06.602Z</time></trkpt><trkpt lat="42.2779565" lon="13.2458986"><ele>1205.0</ele><time>2026-05-02T16:15:07.603Z</time></trkpt><trkpt lat="42.2780635" lon="13.2459152"><ele>1205.0</ele><time>2026-05-02T16:15:08.603Z</time></trkpt><trkpt lat="42.2781601" lon="13.2459248"><ele>1205.0</ele><time>2026-05-02T16:15:09.602Z</time></trkpt><trkpt lat="42.2782516" lon="13.2459334"><ele>1202.6</ele><time>2026-05-02T16:15:10.603Z</time></trkpt><trkpt lat="42.2783457" lon="13.2459332"><ele>1200.2</ele><time>2026-05-02T16:15:11.602Z</time></trkpt><trkpt lat="42.2784438" lon="13.2459178"><ele>1197.8</ele><time>2026-05-02T16:15:12.603Z</time></trkpt><trkpt lat="42.278547" lon="13.2458842"><ele>1195.4</ele><time>2026-05-02T16:15:13.602Z</time></trkpt><trkpt lat="42.2786445" lon="13.2458391"><ele>1193.0</ele><time>2026-05-02T16:15:14.6Z</time></trkpt><trkpt lat="42.2787412" lon="13.2457884"><ele>1193.0</ele><time>2026-05-02T16:15:15.601Z</time></trkpt><trkpt lat="42.2788461" lon="13.2457368"><ele>1193.0</ele><time>2026-05-02T16:15:16.602Z</time></trkpt><trkpt lat="42.2789552" lon="13.2456907"><ele>1193.0</ele><time>2026-05-02T16:15:17.603Z</time></trkpt><trkpt lat="42.2790702" lon="13.245652"><ele>1193.0</ele><time>2026-05-02T16:15:18.601Z</time></trkpt><trkpt lat="42.2791852" lon="13.2456201"><ele>1194.25</ele><time>2026-05-02T16:15:19.602Z</time></trkpt><trkpt lat="42.2792998" lon="13.2455856"><ele>1195.5</ele><time>2026-05-02T16:15:20.599Z</time></trkpt><trkpt lat="42.2794123" lon="13.2455473"><ele>1196.75</ele><time>2026-05-02T16:15:21.601Z</time></trkpt><trkpt lat="42.2795247" lon="13.2454994"><ele>1198.0</ele><time>2026-05-02T16:15:22.602Z</time></trkpt><trkpt lat="42.2796322" lon="13.2454539"><ele>1198.0</ele><time>2026-05-02T16:15:23.602Z</time></trkpt><trkpt lat="42.2797377" lon="13.2454061"><ele>1198.0</ele><time>2026-05-02T16:15:24.602Z</time></trkpt><trkpt lat="42.2798467" lon="13.2453507"><ele>1198.0</ele><time>2026-05-02T16:15:25.602Z</time></trkpt><trkpt lat="42.2799541" lon="13.2452876"><ele>1198.0</ele><time>2026-05-02T16:15:26.601Z</time></trkpt><trkpt lat="42.2800594" lon="13.2452144"><ele>1196.5</ele><time>2026-05-02T16:15:27.602Z</time></trkpt><trkpt lat="42.2801629" lon="13.2451295"><ele>1195.0</ele><time>2026-05-02T16:15:28.602Z</time></trkpt><trkpt lat="42.2802679" lon="13.2450383"><ele>1193.5</ele><time>2026-05-02T16:15:29.603Z</time></trkpt><trkpt lat="42.2803749" lon="13.2449502"><ele>1192.0</ele><time>2026-05-02T16:15:30.603Z</time></trkpt><trkpt lat="42.2804847" lon="13.244867"><ele>1192.0</ele><time>2026-05-02T16:15:31.603Z</time></trkpt><trkpt lat="42.280599" lon="13.2447977"><ele>1192.0</ele><time>2026-05-02T16:15:32.602Z</time></trkpt><trkpt lat="42.2807166" lon="13.244738"><ele>1192.0</ele><time>2026-05-02T16:15:33.603Z</time></trkpt><trkpt lat="42.2808303" lon="13.2446926"><ele>1192.0</ele><time>2026-05-02T16:15:34.602Z</time></trkpt><trkpt lat="42.2809411" lon="13.2446457"><ele>1192.6</ele><time>2026-05-02T16:15:35.603Z</time></trkpt><trkpt lat="42.2810464" lon="13.2445952"><ele>1193.2</ele><time>2026-05-02T16:15:36.602Z</time></trkpt><trkpt lat="42.2811435" lon="13.244558"><ele>1193.8</ele><time>2026-05-02T16:15:37.602Z</time></trkpt><trkpt lat="42.2812266" lon="13.2445297"><ele>1194.4</ele><time>2026-05-02T16:15:38.602Z</time></trkpt><trkpt lat="42.2813035" lon="13.244516"><ele>1195.0</ele><time>2026-05-02T16:15:39.602Z</time></trkpt><trkpt lat="42.2813901" lon="13.244521"><ele>1193.4</ele><time>2026-05-02T16:15:40.602Z</time></trkpt><trkpt lat="42.2814833" lon="13.244539"><ele>1191.8</ele><time>2026-05-02T16:15:41.602Z</time></trkpt><trkpt lat="42.281581" lon="13.2445684"><ele>1190.2</ele><time>2026-05-02T16:15:42.602Z</time></trkpt><trkpt lat="42.2816818" lon="13.244605"><ele>1188.6</ele><time>2026-05-02T16:15:43.602Z</time></trkpt><trkpt lat="42.2817783" lon="13.2446349"><ele>1187.0</ele><time>2026-05-02T16:15:44.603Z</time></trkpt><trkpt lat="42.2818719" lon="13.2446636"><ele>1187.0</ele><time>2026-05-02T16:15:45.602Z</time></trkpt><trkpt lat="42.2819624" lon="13.2446884"><ele>1187.0</ele><time>2026-05-02T16:15:46.602Z</time></trkpt><trkpt lat="42.2820463" lon="13.2447031"><ele>1187.0</ele><time>2026-05-02T16:15:47.603Z</time></trkpt><trkpt lat="42.2821157" lon="13.2447092"><ele>1187.0</ele><time>2026-05-02T16:15:48.602Z</time></trkpt><trkpt lat="42.2822215" lon="13.2447002"><ele>1187.0</ele><time>2026-05-02T16:15:50.603Z</time></trkpt><trkpt lat="42.282285" lon="13.244647"><ele>1187.0</ele><time>2026-05-02T16:15:52.601Z</time></trkpt><trkpt lat="42.2823083" lon="13.2445248"><ele>1187.0</ele><time>2026-05-02T16:15:54.602Z</time></trkpt><trkpt lat="42.282319" lon="13.2444343"><ele>1187.0</ele><time>2026-05-02T16:15:55.602Z</time></trkpt><trkpt lat="42.2823359" lon="13.2443295"><ele>1187.0</ele><time>2026-05-02T16:15:56.602Z</time></trkpt><trkpt lat="42.282367" lon="13.2442266"><ele>1187.0</ele><time>2026-05-02T16:15:57.603Z</time></trkpt><trkpt lat="42.2824119" lon="13.2441286"><ele>1187.0</ele><time>2026-05-02T16:15:58.602Z</time></trkpt><trkpt lat="42.2824696" lon="13.244034"><ele>1187.0</ele><time>2026-05-02T16:15:59.603Z</time></trkpt><trkpt lat="42.2825384" lon="13.2439439"><ele>1187.0</ele><time>2026-05-02T16:16:00.602Z</time></trkpt><trkpt lat="42.2826144" lon="13.2438578"><ele>1187.0</ele><time>2026-05-02T16:16:01.602Z</time></trkpt><trkpt lat="42.2826926" lon="13.2437724"><ele>1187.0</ele><time>2026-05-02T16:16:02.603Z</time></trkpt><trkpt lat="42.2827619" lon="13.243688"><ele>1187.0</ele><time>2026-05-02T16:16:03.602Z</time></trkpt><trkpt lat="42.2828239" lon="13.2436129"><ele>1187.0</ele><time>2026-05-02T16:16:04.602Z</time></trkpt><trkpt lat="42.2828832" lon="13.2435354"><ele>1187.0</ele><time>2026-05-02T16:16:05.6Z</time></trkpt><trkpt lat="42.2829333" lon="13.2434431"><ele>1187.0</ele><time>2026-05-02T16:16:06.603Z</time></trkpt><trkpt lat="42.2829699" lon="13.2433427"><ele>1187.0</ele><time>2026-05-02T16:16:07.602Z</time></trkpt><trkpt lat="42.2829926" lon="13.2432431"><ele>1187.0</ele><time>2026-05-02T16:16:08.602Z</time></trkpt><trkpt lat="42.2830058" lon="13.2431478"><ele>1187.0</ele><time>2026-05-02T16:16:09.602Z</time></trkpt><trkpt lat="42.2830068" lon="13.2430446"><ele>1187.0</ele><time>2026-05-02T16:16:10.602Z</time></trkpt><trkpt lat="42.2829904" lon="13.2429253"><ele>1186.0</ele><time>2026-05-02T16:16:11.602Z</time></trkpt><trkpt lat="42.282962" lon="13.2427957"><ele>1185.0</ele><time>2026-05-02T16:16:12.603Z</time></trkpt><trkpt lat="42.28293" lon="13.2426611"><ele>1184.0</ele><time>2026-05-02T16:16:13.602Z</time></trkpt><trkpt lat="42.282898" lon="13.2425272"><ele>1183.0</ele><time>2026-05-02T16:16:14.603Z</time></trkpt><trkpt lat="42.2828682" lon="13.2424001"><ele>1182.0</ele><time>2026-05-02T16:16:15.602Z</time></trkpt><trkpt lat="42.2828503" lon="13.2422791"><ele>1181.1666666666667</ele><time>2026-05-02T16:16:16.603Z</time></trkpt><trkpt lat="42.2828401" lon="13.2421635"><ele>1180.3333333333333</ele><time>2026-05-02T16:16:17.601Z</time></trkpt><trkpt lat="42.2828301" lon="13.2420572"><ele>1179.5</ele><time>2026-05-02T16:16:18.603Z</time></trkpt><trkpt lat="42.2828307" lon="13.2419684"><ele>1178.6666666666665</ele><time>2026-05-02T16:16:19.601Z</time></trkpt><trkpt lat="42.2828668" lon="13.2418634"><ele>1177.8333333333333</ele><time>2026-05-02T16:16:21.603Z</time></trkpt><trkpt lat="42.2829503" lon="13.2418165"><ele>1177.0</ele><time>2026-05-02T16:16:23.602Z</time></trkpt><trkpt lat="42.283076" lon="13.241825"><ele>1178.3333333333333</ele><time>2026-05-02T16:16:25.599Z</time></trkpt><trkpt lat="42.2831511" lon="13.2418429"><ele>1179.6666666666665</ele><time>2026-05-02T16:16:26.6Z</time></trkpt><trkpt lat="42.28323" lon="13.2418558"><ele>1181.0</ele><time>2026-05-02T16:16:27.602Z</time></trkpt><trkpt lat="42.283315" lon="13.2418632"><ele>1182.3333333333333</ele><time>2026-05-02T16:16:28.602Z</time></trkpt><trkpt lat="42.2834027" lon="13.2418758"><ele>1183.6666666666667</ele><time>2026-05-02T16:16:29.602Z</time></trkpt><trkpt lat="42.2834879" lon="13.2418941"><ele>1185.0</ele><time>2026-05-02T16:16:30.602Z</time></trkpt><trkpt lat="42.2835706" lon="13.241908"><ele>1185.0</ele><time>2026-05-02T16:16:31.603Z</time></trkpt><trkpt lat="42.2836552" lon="13.2419116"><ele>1185.0</ele><time>2026-05-02T16:16:32.602Z</time></trkpt><trkpt lat="42.2837397" lon="13.2419012"><ele>1185.0</ele><time>2026-05-02T16:16:33.602Z</time></trkpt><trkpt lat="42.2838108" lon="13.2418727"><ele>1185.0</ele><time>2026-05-02T16:16:34.602Z</time></trkpt><trkpt lat="42.2838771" lon="13.2418343"><ele>1185.0</ele><time>2026-05-02T16:16:35.602Z</time></trkpt><trkpt lat="42.2839414" lon="13.2417867"><ele>1185.0</ele><time>2026-05-02T16:16:36.602Z</time></trkpt><trkpt lat="42.2840005" lon="13.2417306"><ele>1186.0</ele><time>2026-05-02T16:16:37.602Z</time></trkpt><trkpt lat="42.284065" lon="13.2416666"><ele>1187.0</ele><time>2026-05-02T16:16:38.602Z</time></trkpt><trkpt lat="42.2841492" lon="13.2415877"><ele>1188.0</ele><time>2026-05-02T16:16:39.601Z</time></trkpt><trkpt lat="42.2842638" lon="13.241489"><ele>1189.0</ele><time>2026-05-02T16:16:40.602Z</time></trkpt><trkpt lat="42.2843991" lon="13.241388"><ele>1189.6666666666665</ele><time>2026-05-02T16:16:41.603Z</time></trkpt><trkpt lat="42.2845333" lon="13.2412821"><ele>1190.3333333333333</ele><time>2026-05-02T16:16:42.602Z</time></trkpt><trkpt lat="42.2846727" lon="13.2411435"><ele>1191.0</ele><time>2026-05-02T16:16:43.603Z</time></trkpt><trkpt lat="42.2848067" lon="13.2409741"><ele>1191.0</ele><time>2026-05-02T16:16:44.602Z</time></trkpt><trkpt lat="42.2849343" lon="13.2407984"><ele>1191.0</ele><time>2026-05-02T16:16:45.6Z</time></trkpt><trkpt lat="42.2850678" lon="13.2406362"><ele>1191.0</ele><time>2026-05-02T16:16:46.602Z</time></trkpt><trkpt lat="42.2852083" lon="13.2404994"><ele>1196.6666666666667</ele><time>2026-05-02T16:16:47.603Z</time></trkpt><trkpt lat="42.285363" lon="13.2403839"><ele>1202.3333333333335</ele><time>2026-05-02T16:16:48.602Z</time></trkpt><trkpt lat="42.2855344" lon="13.2402824"><ele>1208.0</ele><time>2026-05-02T16:16:49.602Z</time></trkpt><trkpt lat="42.2857054" lon="13.2401801"><ele>1208.0</ele><time>2026-05-02T16:16:50.602Z</time></trkpt><trkpt lat="42.2858703" lon="13.2400693"><ele>1208.0</ele><time>2026-05-02T16:16:51.603Z</time></trkpt><trkpt lat="42.2860336" lon="13.239965"><ele>1208.0</ele><time>2026-05-02T16:16:52.602Z</time></trkpt><trkpt lat="42.2861992" lon="13.2398816"><ele>1208.0</ele><time>2026-05-02T16:16:53.6Z</time></trkpt><trkpt lat="42.2863629" lon="13.2398046"><ele>1208.0</ele><time>2026-05-02T16:16:54.602Z</time></trkpt><trkpt lat="42.2865117" lon="13.2397179"><ele>1208.0</ele><time>2026-05-02T16:16:55.601Z</time></trkpt><trkpt lat="42.2866447" lon="13.2396449"><ele>1213.25</ele><time>2026-05-02T16:16:56.602Z</time></trkpt><trkpt lat="42.2867711" lon="13.2396217"><ele>1218.5</ele><time>2026-05-02T16:16:57.6Z</time></trkpt><trkpt lat="42.2869112" lon="13.2396446"><ele>1223.75</ele><time>2026-05-02T16:16:58.601Z</time></trkpt><trkpt lat="42.2870617" lon="13.2396667"><ele>1229.0</ele><time>2026-05-02T16:16:59.602Z</time></trkpt><trkpt lat="42.2872047" lon="13.2396565"><ele>1227.75</ele><time>2026-05-02T16:17:00.602Z</time></trkpt><trkpt lat="42.2873316" lon="13.2396331"><ele>1226.5</ele><time>2026-05-02T16:17:01.603Z</time></trkpt><trkpt lat="42.2874502" lon="13.2396411"><ele>1225.25</ele><time>2026-05-02T16:17:02.602Z</time></trkpt><trkpt lat="42.2875548" lon="13.2396873"><ele>1224.0</ele><time>2026-05-02T16:17:03.603Z</time></trkpt><trkpt lat="42.2876428" lon="13.2397659"><ele>1225.2</ele><time>2026-05-02T16:17:04.602Z</time></trkpt><trkpt lat="42.2877298" lon="13.2398415"><ele>1226.4</ele><time>2026-05-02T16:17:05.602Z</time></trkpt><trkpt lat="42.287827" lon="13.2398728"><ele>1227.6</ele><time>2026-05-02T16:17:06.602Z</time></trkpt><trkpt lat="42.287931" lon="13.2398665"><ele>1228.8</ele><time>2026-05-02T16:17:07.602Z</time></trkpt><trkpt lat="42.2880411" lon="13.2398189"><ele>1230.0</ele><time>2026-05-02T16:17:08.602Z</time></trkpt><trkpt lat="42.2881694" lon="13.2397402"><ele>1230.0</ele><time>2026-05-02T16:17:09.602Z</time></trkpt><trkpt lat="42.288316" lon="13.2396522"><ele>1230.0</ele><time>2026-05-02T16:17:10.602Z</time></trkpt><trkpt lat="42.2884819" lon="13.2395719"><ele>1230.0</ele><time>2026-05-02T16:17:11.602Z</time></trkpt><trkpt lat="42.2886622" lon="13.2394981"><ele>1230.0</ele><time>2026-05-02T16:17:12.602Z</time></trkpt><trkpt lat="42.2888423" lon="13.2394254"><ele>1230.0</ele><time>2026-05-02T16:17:13.602Z</time></trkpt><trkpt lat="42.2890185" lon="13.2393519"><ele>1230.0</ele><time>2026-05-02T16:17:14.6Z</time></trkpt><trkpt lat="42.2891818" lon="13.2393051"><ele>1229.3333333333333</ele><time>2026-05-02T16:17:15.602Z</time></trkpt><trkpt lat="42.2893464" lon="13.2393007"><ele>1228.6666666666665</ele><time>2026-05-02T16:17:16.602Z</time></trkpt><trkpt lat="42.2894923" lon="13.2393233"><ele>1228.0</ele><time>2026-05-02T16:17:17.602Z</time></trkpt><trkpt lat="42.2896423" lon="13.2393263"><ele>1229.0</ele><time>2026-05-02T16:17:18.602Z</time></trkpt><trkpt lat="42.2897959" lon="13.2392826"><ele>1230.0</ele><time>2026-05-02T16:17:19.602Z</time></trkpt><trkpt lat="42.2899383" lon="13.2392147"><ele>1231.0</ele><time>2026-05-02T16:17:20.603Z</time></trkpt><trkpt lat="42.2900696" lon="13.239173"><ele>1232.0</ele><time>2026-05-02T16:17:21.602Z</time></trkpt><trkpt lat="42.2901958" lon="13.2391732"><ele>1232.0</ele><time>2026-05-02T16:17:22.602Z</time></trkpt><trkpt lat="42.2903326" lon="13.2392072"><ele>1232.0</ele><time>2026-05-02T16:17:23.602Z</time></trkpt><trkpt lat="42.2904591" lon="13.2392585"><ele>1232.0</ele><time>2026-05-02T16:17:24.603Z</time></trkpt><trkpt lat="42.2905804" lon="13.2392845"><ele>1232.0</ele><time>2026-05-02T16:17:25.603Z</time></trkpt><trkpt lat="42.2907221" lon="13.2392712"><ele>1232.3333333333335</ele><time>2026-05-02T16:17:26.602Z</time></trkpt><trkpt lat="42.2908703" lon="13.239211"><ele>1232.6666666666667</ele><time>2026-05-02T16:17:27.602Z</time></trkpt><trkpt lat="42.2910135" lon="13.2391174"><ele>1233.0</ele><time>2026-05-02T16:17:28.602Z</time></trkpt><trkpt lat="42.2911599" lon="13.2390328"><ele>1233.0</ele><time>2026-05-02T16:17:29.602Z</time></trkpt><trkpt lat="42.2913269" lon="13.238984"><ele>1233.0</ele><time>2026-05-02T16:17:30.603Z</time></trkpt><trkpt lat="42.2915025" lon="13.2389512"><ele>1233.0</ele><time>2026-05-02T16:17:31.6Z</time></trkpt><trkpt lat="42.2916807" lon="13.2389135"><ele>1243.3333333333333</ele><time>2026-05-02T16:17:32.603Z</time></trkpt><trkpt lat="42.2918616" lon="13.2388488"><ele>1253.6666666666665</ele><time>2026-05-02T16:17:33.601Z</time></trkpt><trkpt lat="42.2920388" lon="13.2387729"><ele>1264.0</ele><time>2026-05-02T16:17:34.602Z</time></trkpt><trkpt lat="42.2922184" lon="13.2387177"><ele>1262.3333333333333</ele><time>2026-05-02T16:17:35.601Z</time></trkpt><trkpt lat="42.2923986" lon="13.2386953"><ele>1260.6666666666667</ele><time>2026-05-02T16:17:36.603Z</time></trkpt><trkpt lat="42.2925739" lon="13.2386781"><ele>1259.0</ele><time>2026-05-02T16:17:37.602Z</time></trkpt><trkpt lat="42.2927498" lon="13.2386415"><ele>1259.0</ele><time>2026-05-02T16:17:38.601Z</time></trkpt><trkpt lat="42.2929288" lon="13.2385638"><ele>1259.0</ele><time>2026-05-02T16:17:39.603Z</time></trkpt><trkpt lat="42.2931068" lon="13.2384482"><ele>1259.0</ele><time>2026-05-02T16:17:40.602Z</time></trkpt><trkpt lat="42.2932903" lon="13.2383202"><ele>1255.3333333333335</ele><time>2026-05-02T16:17:41.603Z</time></trkpt><trkpt lat="42.2934849" lon="13.2382038"><ele>1251.6666666666667</ele><time>2026-05-02T16:17:42.602Z</time></trkpt><trkpt lat="42.2936824" lon="13.2380932"><ele>1248.0</ele><time>2026-05-02T16:17:43.602Z</time></trkpt><trkpt lat="42.2938801" lon="13.2379789"><ele>1254.6666666666667</ele><time>2026-05-02T16:17:44.602Z</time></trkpt><trkpt lat="42.2940745" lon="13.2378672"><ele>1261.3333333333335</ele><time>2026-05-02T16:17:45.603Z</time></trkpt><trkpt lat="42.294266" lon="13.2377455"><ele>1268.0</ele><time>2026-05-02T16:17:46.602Z</time></trkpt><trkpt lat="42.2944478" lon="13.2376244"><ele>1268.0</ele><time>2026-05-02T16:17:47.601Z</time></trkpt><trkpt lat="42.2946204" lon="13.2375272"><ele>1268.0</ele><time>2026-05-02T16:17:48.601Z</time></trkpt><trkpt lat="42.2947979" lon="13.2374655"><ele>1268.0</ele><time>2026-05-02T16:17:49.602Z</time></trkpt><trkpt lat="42.2949935" lon="13.2374193"><ele>1265.0</ele><time>2026-05-02T16:17:50.601Z</time></trkpt><trkpt lat="42.2951967" lon="13.2373775"><ele>1262.0</ele><time>2026-05-02T16:17:51.603Z</time></trkpt><trkpt lat="42.295406" lon="13.2373322"><ele>1259.0</ele><time>2026-05-02T16:17:52.602Z</time></trkpt><trkpt lat="42.2956131" lon="13.2372859"><ele>1271.0</ele><time>2026-05-02T16:17:53.603Z</time></trkpt><trkpt lat="42.2958164" lon="13.2372394"><ele>1283.0</ele><time>2026-05-02T16:17:54.603Z</time></trkpt><trkpt lat="42.2960165" lon="13.2371951"><ele>1295.0</ele><time>2026-05-02T16:17:55.601Z</time></trkpt><trkpt lat="42.2962115" lon="13.237157"><ele>1295.0</ele><time>2026-05-02T16:17:56.602Z</time></trkpt><trkpt lat="42.2963971" lon="13.23713"><ele>1295.0</ele><time>2026-05-02T16:17:57.602Z</time></trkpt><trkpt lat="42.2965785" lon="13.2371195"><ele>1295.0</ele><time>2026-05-02T16:17:58.602Z</time></trkpt><trkpt lat="42.2967696" lon="13.2371165"><ele>1294.6666666666667</ele><time>2026-05-02T16:17:59.603Z</time></trkpt><trkpt lat="42.2969567" lon="13.237165"><ele>1294.3333333333333</ele><time>2026-05-02T16:18:00.602Z</time></trkpt><trkpt lat="42.2971509" lon="13.2371986"><ele>1294.0</ele><time>2026-05-02T16:18:01.602Z</time></trkpt><trkpt lat="42.2973396" lon="13.2372342"><ele>1294.0</ele><time>2026-05-02T16:18:02.603Z</time></trkpt><trkpt lat="42.2975242" lon="13.2372734"><ele>1294.0</ele><time>2026-05-02T16:18:03.602Z</time></trkpt><trkpt lat="42.2977017" lon="13.237323"><ele>1294.0</ele><time>2026-05-02T16:18:04.603Z</time></trkpt><trkpt lat="42.2978689" lon="13.2373872"><ele>1288.3333333333333</ele><time>2026-05-02T16:18:05.6Z</time></trkpt><trkpt lat="42.2980244" lon="13.237456"><ele>1282.6666666666667</ele><time>2026-05-02T16:18:06.602Z</time></trkpt><trkpt lat="42.2981662" lon="13.2375384"><ele>1277.0</ele><time>2026-05-02T16:18:07.602Z</time></trkpt><trkpt lat="42.2982916" lon="13.2376443"><ele>1277.0</ele><time>2026-05-02T16:18:08.602Z</time></trkpt><trkpt lat="42.2984011" lon="13.2377641"><ele>1277.0</ele><time>2026-05-02T16:18:09.602Z</time></trkpt><trkpt lat="42.2985079" lon="13.23787"><ele>1277.0</ele><time>2026-05-02T16:18:10.603Z</time></trkpt><trkpt lat="42.2986239" lon="13.237949"><ele>1277.0</ele><time>2026-05-02T16:18:11.602Z</time></trkpt><trkpt lat="42.2987427" lon="13.237993"><ele>1277.0</ele><time>2026-05-02T16:18:12.603Z</time></trkpt><trkpt lat="42.2988585" lon="13.2379974"><ele>1277.0</ele><time>2026-05-02T16:18:13.601Z</time></trkpt><trkpt lat="42.2989769" lon="13.2379604"><ele>1277.0</ele><time>2026-05-02T16:18:14.602Z</time></trkpt><trkpt lat="42.2990989" lon="13.2378995"><ele>1277.0</ele><time>2026-05-02T16:18:15.602Z</time></trkpt><trkpt lat="42.2992303" lon="13.2378485"><ele>1276.75</ele><time>2026-05-02T16:18:16.601Z</time></trkpt><trkpt lat="42.2993718" lon="13.2378163"><ele>1276.5</ele><time>2026-05-02T16:18:17.602Z</time></trkpt><trkpt lat="42.2995146" lon="13.2378046"><ele>1276.25</ele><time>2026-05-02T16:18:18.602Z</time></trkpt><trkpt lat="42.2996578" lon="13.2378313"><ele>1276.0</ele><time>2026-05-02T16:18:19.602Z</time></trkpt><trkpt lat="42.2997968" lon="13.2378901"><ele>1276.0</ele><time>2026-05-02T16:18:20.603Z</time></trkpt><trkpt lat="42.2999396" lon="13.2379446"><ele>1276.0</ele><time>2026-05-02T16:18:21.602Z</time></trkpt><trkpt lat="42.3000924" lon="13.2379663"><ele>1276.0</ele><time>2026-05-02T16:18:22.602Z</time></trkpt><trkpt lat="42.3002514" lon="13.2379579"><ele>1276.0</ele><time>2026-05-02T16:18:23.602Z</time></trkpt><trkpt lat="42.3004102" lon="13.2379159"><ele>1276.0</ele><time>2026-05-02T16:18:24.603Z</time></trkpt><trkpt lat="42.3005667" lon="13.2378436"><ele>1276.0</ele><time>2026-05-02T16:18:25.602Z</time></trkpt><trkpt lat="42.3007221" lon="13.237767"><ele>1276.3333333333333</ele><time>2026-05-02T16:18:26.601Z</time></trkpt><trkpt lat="42.3008786" lon="13.2377262"><ele>1276.6666666666667</ele><time>2026-05-02T16:18:27.602Z</time></trkpt><trkpt lat="42.3010418" lon="13.2377126"><ele>1277.0</ele><time>2026-05-02T16:18:28.602Z</time></trkpt><trkpt lat="42.3012126" lon="13.2377208"><ele>1277.0</ele><time>2026-05-02T16:18:29.602Z</time></trkpt><trkpt lat="42.3013862" lon="13.2377397"><ele>1277.0</ele><time>2026-05-02T16:18:30.602Z</time></trkpt><trkpt lat="42.3015614" lon="13.237752"><ele>1277.0</ele><time>2026-05-02T16:18:31.602Z</time></trkpt><trkpt lat="42.3017387" lon="13.2377538"><ele>1275.3333333333335</ele><time>2026-05-02T16:18:32.602Z</time></trkpt><trkpt lat="42.3019153" lon="13.2377448"><ele>1273.6666666666667</ele><time>2026-05-02T16:18:33.603Z</time></trkpt><trkpt lat="42.3020831" lon="13.2377257"><ele>1272.0</ele><time>2026-05-02T16:18:34.603Z</time></trkpt><trkpt lat="42.3022408" lon="13.2376996"><ele>1272.3333333333333</ele><time>2026-05-02T16:18:35.602Z</time></trkpt><trkpt lat="42.3023941" lon="13.2376797"><ele>1272.6666666666665</ele><time>2026-05-02T16:18:36.602Z</time></trkpt><trkpt lat="42.3025584" lon="13.2376872"><ele>1273.0</ele><time>2026-05-02T16:18:37.601Z</time></trkpt><trkpt lat="42.3027264" lon="13.2377348"><ele>1273.0</ele><time>2026-05-02T16:18:38.602Z</time></trkpt><trkpt lat="42.302895" lon="13.2377978"><ele>1273.0</ele><time>2026-05-02T16:18:39.601Z</time></trkpt><trkpt lat="42.3030562" lon="13.2378595"><ele>1273.0</ele><time>2026-05-02T16:18:40.602Z</time></trkpt><trkpt lat="42.3032163" lon="13.2379233"><ele>1273.3333333333333</ele><time>2026-05-02T16:18:41.602Z</time></trkpt><trkpt lat="42.3033658" lon="13.2379915"><ele>1273.6666666666667</ele><time>2026-05-02T16:18:42.602Z</time></trkpt><trkpt lat="42.3034985" lon="13.2380855"><ele>1274.0</ele><time>2026-05-02T16:18:43.602Z</time></trkpt><trkpt lat="42.3036056" lon="13.2382138"><ele>1274.75</ele><time>2026-05-02T16:18:44.602Z</time></trkpt><trkpt lat="42.3036886" lon="13.2383697"><ele>1275.5</ele><time>2026-05-02T16:18:45.603Z</time></trkpt><trkpt lat="42.3037756" lon="13.2385158"><ele>1276.25</ele><time>2026-05-02T16:18:46.602Z</time></trkpt><trkpt lat="42.3038895" lon="13.2386341"><ele>1277.0</ele><time>2026-05-02T16:18:47.602Z</time></trkpt><trkpt lat="42.3040233" lon="13.2387224"><ele>1277.0</ele><time>2026-05-02T16:18:48.603Z</time></trkpt><trkpt lat="42.3041748" lon="13.2387783"><ele>1277.0</ele><time>2026-05-02T16:18:49.602Z</time></trkpt><trkpt lat="42.3043205" lon="13.2388137"><ele>1277.0</ele><time>2026-05-02T16:18:50.601Z</time></trkpt><trkpt lat="42.3044313" lon="13.2388457"><ele>1277.0</ele><time>2026-05-02T16:18:51.602Z</time></trkpt><trkpt lat="42.3045057" lon="13.238873"><ele>1277.0</ele><time>2026-05-02T16:18:52.602Z</time></trkpt><trkpt lat="42.3045715" lon="13.2389012"><ele>1277.0</ele><time>2026-05-02T16:18:54.602Z</time></trkpt><trkpt lat="42.3045139" lon="13.238824"><ele>1277.0</ele><time>2026-05-02T16:18:59.603Z</time></trkpt><trkpt lat="42.3044217" lon="13.238811"><ele>1277.0</ele><time>2026-05-02T16:19:00.602Z</time></trkpt><trkpt lat="42.3043119" lon="13.2387947"><ele>1277.0</ele><time>2026-05-02T16:19:01.599Z</time></trkpt><trkpt lat="42.3041733" lon="13.2387576"><ele>1277.0</ele><time>2026-05-02T16:19:02.602Z</time></trkpt><trkpt lat="42.3040425" lon="13.2387029"><ele>1277.0</ele><time>2026-05-02T16:19:03.602Z</time></trkpt><trkpt lat="42.3039296" lon="13.2386258"><ele>1277.0</ele><time>2026-05-02T16:19:04.603Z</time></trkpt><trkpt lat="42.3038265" lon="13.2385192"><ele>1277.0</ele><time>2026-05-02T16:19:05.602Z</time></trkpt><trkpt lat="42.3037395" lon="13.2383819"><ele>1276.25</ele><time>2026-05-02T16:19:06.603Z</time></trkpt><trkpt lat="42.3036603" lon="13.2382344"><ele>1275.5</ele><time>2026-05-02T16:19:07.602Z</time></trkpt><trkpt lat="42.3035741" lon="13.2381133"><ele>1274.75</ele><time>2026-05-02T16:19:08.602Z</time></trkpt><trkpt lat="42.3034642" lon="13.2380131"><ele>1274.0</ele><time>2026-05-02T16:19:09.602Z</time></trkpt><trkpt lat="42.3033374" lon="13.2379369"><ele>1274.0</ele><time>2026-05-02T16:19:10.602Z</time></trkpt><trkpt lat="42.3031977" lon="13.2378763"><ele>1274.0</ele><time>2026-05-02T16:19:11.603Z</time></trkpt><trkpt lat="42.3030531" lon="13.2378184"><ele>1274.0</ele><time>2026-05-02T16:19:12.602Z</time></trkpt><trkpt lat="42.3029138" lon="13.2377567"><ele>1274.0</ele><time>2026-05-02T16:19:13.602Z</time></trkpt><trkpt lat="42.3027845" lon="13.237699"><ele>1273.8</ele><time>2026-05-02T16:19:14.602Z</time></trkpt><trkpt lat="42.3026601" lon="13.2376524"><ele>1273.6000000000001</ele><time>2026-05-02T16:19:15.602Z</time></trkpt><trkpt lat="42.3025411" lon="13.2376255"><ele>1273.4</ele><time>2026-05-02T16:19:16.602Z</time></trkpt><trkpt lat="42.3024368" lon="13.2376267"><ele>1273.2</ele><time>2026-05-02T16:19:17.601Z</time></trkpt><trkpt lat="42.3023578" lon="13.2376369"><ele>1273.0</ele><time>2026-05-02T16:19:18.602Z</time></trkpt><trkpt lat="42.3022907" lon="13.2376499"><ele>1273.0</ele><time>2026-05-02T16:19:19.602Z</time></trkpt><trkpt lat="42.3022258" lon="13.237719"><ele>1273.0</ele><time>2026-05-02T16:19:21.602Z</time></trkpt><trkpt lat="42.3022716" lon="13.2378112"><ele>1273.0</ele><time>2026-05-02T16:19:24.602Z</time></trkpt><trkpt lat="42.302379" lon="13.237905"><ele>1273.0</ele><time>2026-05-02T16:19:26.601Z</time></trkpt><trkpt lat="42.3024602" lon="13.2380159"><ele>1273.0</ele><time>2026-05-02T16:19:28.601Z</time></trkpt><trkpt lat="42.3025013" lon="13.2381475"><ele>1272.142857142857</ele><time>2026-05-02T16:19:30.602Z</time></trkpt><trkpt lat="42.3025186" lon="13.2382302"><ele>1271.2857142857142</ele><time>2026-05-02T16:19:31.603Z</time></trkpt><trkpt lat="42.3025526" lon="13.2383162"><ele>1270.4285714285716</ele><time>2026-05-02T16:19:32.601Z</time></trkpt><trkpt lat="42.3026011" lon="13.2383981"><ele>1269.5714285714284</ele><time>2026-05-02T16:19:33.6Z</time></trkpt><trkpt lat="42.3026538" lon="13.2384675"><ele>1268.7142857142858</ele><time>2026-05-02T16:19:34.602Z</time></trkpt><trkpt lat="42.3027118" lon="13.2385333"><ele>1267.857142857143</ele><time>2026-05-02T16:19:35.603Z</time></trkpt><trkpt lat="42.302778" lon="13.2385921"><ele>1267.0</ele><time>2026-05-02T16:19:36.602Z</time></trkpt><trkpt lat="42.3028536" lon="13.2386456"><ele>1267.0</ele><time>2026-05-02T16:19:37.601Z</time></trkpt><trkpt lat="42.3029328" lon="13.2386977"><ele>1267.0</ele><time>2026-05-02T16:19:38.601Z</time></trkpt><trkpt lat="42.3030114" lon="13.2387429"><ele>1267.0</ele><time>2026-05-02T16:19:39.603Z</time></trkpt><trkpt lat="42.3030925" lon="13.2387861"><ele>1267.0</ele><time>2026-05-02T16:19:40.602Z</time></trkpt><trkpt lat="42.3031653" lon="13.2388433"><ele>1267.0</ele><time>2026-05-02T16:19:41.603Z</time></trkpt><trkpt lat="42.3032315" lon="13.2389094"><ele>1267.0</ele><time>2026-05-02T16:19:42.602Z</time></trkpt><trkpt lat="42.3032947" lon="13.2389756"><ele>1268.6666666666665</ele><time>2026-05-02T16:19:43.602Z</time></trkpt><trkpt lat="42.3033583" lon="13.2390416"><ele>1270.3333333333333</ele><time>2026-05-02T16:19:44.603Z</time></trkpt><trkpt lat="42.3034206" lon="13.2391002"><ele>1272.0</ele><time>2026-05-02T16:19:45.603Z</time></trkpt><trkpt lat="42.3034827" lon="13.239168"><ele>1273.6666666666667</ele><time>2026-05-02T16:19:46.603Z</time></trkpt><trkpt lat="42.3035457" lon="13.2392409"><ele>1275.3333333333335</ele><time>2026-05-02T16:19:47.603Z</time></trkpt><trkpt lat="42.3036101" lon="13.2392986"><ele>1277.0</ele><time>2026-05-02T16:19:48.602Z</time></trkpt><trkpt lat="42.303664" lon="13.2393503"><ele>1277.0</ele><time>2026-05-02T16:19:49.602Z</time></trkpt><trkpt lat="42.3037633" lon="13.2394417"><ele>1277.0</ele><time>2026-05-02T16:19:51.6Z</time></trkpt><trkpt lat="42.3038134" lon="13.2395035"><ele>1277.0</ele><time>2026-05-02T16:19:52.603Z</time></trkpt><trkpt lat="42.3038591" lon="13.2395722"><ele>1277.0</ele><time>2026-05-02T16:19:53.601Z</time></trkpt><trkpt lat="42.3038994" lon="13.2396554"><ele>1277.0</ele><time>2026-05-02T16:19:54.602Z</time></trkpt><trkpt lat="42.3039269" lon="13.239753"><ele>1277.0</ele><time>2026-05-02T16:19:55.602Z</time></trkpt><trkpt lat="42.3039437" lon="13.2398633"><ele>1276.6666666666667</ele><time>2026-05-02T16:19:56.602Z</time></trkpt><trkpt lat="42.303953" lon="13.2399774"><ele>1276.3333333333335</ele><time>2026-05-02T16:19:57.602Z</time></trkpt><trkpt lat="42.303963" lon="13.2400902"><ele>1276.0</ele><time>2026-05-02T16:19:58.602Z</time></trkpt><trkpt lat="42.3039766" lon="13.2402005"><ele>1275.6666666666667</ele><time>2026-05-02T16:19:59.602Z</time></trkpt><trkpt lat="42.3039948" lon="13.2403077"><ele>1275.3333333333333</ele><time>2026-05-02T16:20:00.602Z</time></trkpt><trkpt lat="42.3040209" lon="13.240411"><ele>1275.0</ele><time>2026-05-02T16:20:01.602Z</time></trkpt><trkpt lat="42.3040422" lon="13.2405195"><ele>1275.0</ele><time>2026-05-02T16:20:02.603Z</time></trkpt><trkpt lat="42.30406" lon="13.2406307"><ele>1275.0</ele><time>2026-05-02T16:20:03.602Z</time></trkpt><trkpt lat="42.3040766" lon="13.2407422"><ele>1275.0</ele><time>2026-05-02T16:20:04.603Z</time></trkpt><trkpt lat="42.304089" lon="13.2408551"><ele>1275.0</ele><time>2026-05-02T16:20:05.602Z</time></trkpt><trkpt lat="42.3040973" lon="13.2409694"><ele>1275.0</ele><time>2026-05-02T16:20:06.602Z</time></trkpt><trkpt lat="42.3041022" lon="13.2410745"><ele>1275.0</ele><time>2026-05-02T16:20:07.603Z</time></trkpt><trkpt lat="42.3041005" lon="13.24117"><ele>1275.5</ele><time>2026-05-02T16:20:08.602Z</time></trkpt><trkpt lat="42.3040894" lon="13.2412659"><ele>1276.0</ele><time>2026-05-02T16:20:09.602Z</time></trkpt><trkpt lat="42.304064" lon="13.2413604"><ele>1276.5</ele><time>2026-05-02T16:20:10.602Z</time></trkpt><trkpt lat="42.3040367" lon="13.2414471"><ele>1277.0</ele><time>2026-05-02T16:20:11.602Z</time></trkpt><trkpt lat="42.3040045" lon="13.2416046"><ele>1277.5</ele><time>2026-05-02T16:20:13.602Z</time></trkpt><trkpt lat="42.303964" lon="13.2417439"><ele>1278.0</ele><time>2026-05-02T16:20:15.602Z</time></trkpt><trkpt lat="42.3039133" lon="13.2418794"><ele>1281.3333333333333</ele><time>2026-05-02T16:20:17.602Z</time></trkpt><trkpt lat="42.3038523" lon="13.2420063"><ele>1284.6666666666667</ele><time>2026-05-02T16:20:19.602Z</time></trkpt><trkpt lat="42.3038144" lon="13.2420872"><ele>1288.0</ele><time>2026-05-02T16:20:20.603Z</time></trkpt><trkpt lat="42.3037723" lon="13.2421726"><ele>1291.3333333333335</ele><time>2026-05-02T16:20:21.602Z</time></trkpt><trkpt lat="42.3037303" lon="13.2422682"><ele>1294.6666666666667</ele><time>2026-05-02T16:20:22.602Z</time></trkpt><trkpt lat="42.3036932" lon="13.2423788"><ele>1298.0</ele><time>2026-05-02T16:20:23.602Z</time></trkpt><trkpt lat="42.3036628" lon="13.2425022"><ele>1298.0</ele><time>2026-05-02T16:20:24.602Z</time></trkpt><trkpt lat="42.3036351" lon="13.2426307"><ele>1298.0</ele><time>2026-05-02T16:20:25.599Z</time></trkpt><trkpt lat="42.3036076" lon="13.2427534"><ele>1298.0</ele><time>2026-05-02T16:20:26.601Z</time></trkpt><trkpt lat="42.3035867" lon="13.2428628"><ele>1298.0</ele><time>2026-05-02T16:20:27.603Z</time></trkpt><trkpt lat="42.3035778" lon="13.242965"><ele>1298.0</ele><time>2026-05-02T16:20:28.603Z</time></trkpt><trkpt lat="42.3035755" lon="13.2430695"><ele>1298.0</ele><time>2026-05-02T16:20:29.601Z</time></trkpt><trkpt lat="42.3035782" lon="13.2431778"><ele>1298.0</ele><time>2026-05-02T16:20:30.601Z</time></trkpt><trkpt lat="42.3035763" lon="13.2432828"><ele>1298.0</ele><time>2026-05-02T16:20:31.601Z</time></trkpt><trkpt lat="42.3035666" lon="13.24339"><ele>1298.0</ele><time>2026-05-02T16:20:32.603Z</time></trkpt><trkpt lat="42.3035648" lon="13.2435019"><ele>1298.0</ele><time>2026-05-02T16:20:33.602Z</time></trkpt><trkpt lat="42.3035734" lon="13.2436063"><ele>1298.0</ele><time>2026-05-02T16:20:34.602Z</time></trkpt><trkpt lat="42.3035843" lon="13.2437022"><ele>1298.0</ele><time>2026-05-02T16:20:35.602Z</time></trkpt><trkpt lat="42.3035983" lon="13.2437992"><ele>1297.9999999999998</ele><time>2026-05-02T16:20:36.6Z</time></trkpt><trkpt lat="42.3036108" lon="13.2439"><ele>1298.0</ele><time>2026-05-02T16:20:37.6Z</time></trkpt><trkpt lat="42.3036147" lon="13.2440012"><ele>1298.0</ele><time>2026-05-02T16:20:38.601Z</time></trkpt><trkpt lat="42.3036112" lon="13.2441026"><ele>1298.0</ele><time>2026-05-02T16:20:39.602Z</time></trkpt><trkpt lat="42.3035973" lon="13.2441998"><ele>1298.0</ele><time>2026-05-02T16:20:40.602Z</time></trkpt><trkpt lat="42.3035697" lon="13.2442871"><ele>1297.9999999999998</ele><time>2026-05-02T16:20:41.602Z</time></trkpt><trkpt lat="42.3035391" lon="13.2443685"><ele>1298.0</ele><time>2026-05-02T16:20:42.602Z</time></trkpt><trkpt lat="42.3035157" lon="13.2444494"><ele>1299.0</ele><time>2026-05-02T16:20:43.602Z</time></trkpt><trkpt lat="42.3034689" lon="13.2446101"><ele>1300.0</ele><time>2026-05-02T16:20:45.601Z</time></trkpt><trkpt lat="42.3034392" lon="13.2447011"><ele>1301.0</ele><time>2026-05-02T16:20:46.602Z</time></trkpt><trkpt lat="42.3034026" lon="13.2447929"><ele>1302.0</ele><time>2026-05-02T16:20:47.602Z</time></trkpt><trkpt lat="42.3033633" lon="13.2448802"><ele>1303.0</ele><time>2026-05-02T16:20:48.602Z</time></trkpt><trkpt lat="42.3033256" lon="13.244969"><ele>1304.0</ele><time>2026-05-02T16:20:49.602Z</time></trkpt><trkpt lat="42.3032823" lon="13.2450614"><ele>1304.7142857142858</ele><time>2026-05-02T16:20:50.602Z</time></trkpt><trkpt lat="42.3032394" lon="13.2451554"><ele>1305.4285714285713</ele><time>2026-05-02T16:20:51.602Z</time></trkpt><trkpt lat="42.3032084" lon="13.245243"><ele>1306.142857142857</ele><time>2026-05-02T16:20:52.602Z</time></trkpt><trkpt lat="42.3031879" lon="13.2453277"><ele>1306.857142857143</ele><time>2026-05-02T16:20:53.603Z</time></trkpt><trkpt lat="42.3031738" lon="13.2454127"><ele>1307.5714285714284</ele><time>2026-05-02T16:20:54.602Z</time></trkpt><trkpt lat="42.3031691" lon="13.2455016"><ele>1308.2857142857142</ele><time>2026-05-02T16:20:55.602Z</time></trkpt><trkpt lat="42.3031598" lon="13.245591"><ele>1309.0</ele><time>2026-05-02T16:20:56.602Z</time></trkpt><trkpt lat="42.3031407" lon="13.245676"><ele>1310.0</ele><time>2026-05-02T16:20:57.601Z</time></trkpt><trkpt lat="42.3031119" lon="13.2457583"><ele>1311.0</ele><time>2026-05-02T16:20:58.602Z</time></trkpt><trkpt lat="42.303073" lon="13.2458359"><ele>1312.0</ele><time>2026-05-02T16:20:59.602Z</time></trkpt><trkpt lat="42.3030304" lon="13.2459107"><ele>1313.0</ele><time>2026-05-02T16:21:00.602Z</time></trkpt><trkpt lat="42.3030013" lon="13.2459927"><ele>1314.0</ele><time>2026-05-02T16:21:01.603Z</time></trkpt><trkpt lat="42.3029813" lon="13.2460754"><ele>1315.0</ele><time>2026-05-02T16:21:02.603Z</time></trkpt><trkpt lat="42.3029491" lon="13.2461963"><ele>1316.0</ele><time>2026-05-02T16:21:04.602Z</time></trkpt><trkpt lat="42.3028907" lon="13.246322"><ele>1316.0</ele><time>2026-05-02T16:21:06.603Z</time></trkpt><trkpt lat="42.3028271" lon="13.2464308"><ele>1316.0</ele><time>2026-05-02T16:21:08.602Z</time></trkpt><trkpt lat="42.3027755" lon="13.2465535"><ele>1316.0</ele><time>2026-05-02T16:21:10.602Z</time></trkpt><trkpt lat="42.3027217" lon="13.2467009"><ele>1316.0</ele><time>2026-05-02T16:21:12.602Z</time></trkpt><trkpt lat="42.3026918" lon="13.2467887"><ele>1316.0</ele><time>2026-05-02T16:21:13.602Z</time></trkpt><trkpt lat="42.3026537" lon="13.2468706"><ele>1317.5</ele><time>2026-05-02T16:21:14.602Z</time></trkpt><trkpt lat="42.3026081" lon="13.2469495"><ele>1319.0</ele><time>2026-05-02T16:21:15.6Z</time></trkpt><trkpt lat="42.3025573" lon="13.2470256"><ele>1320.5</ele><time>2026-05-02T16:21:16.602Z</time></trkpt><trkpt lat="42.3025076" lon="13.2470972"><ele>1322.0</ele><time>2026-05-02T16:21:17.603Z</time></trkpt><trkpt lat="42.302469" lon="13.247169"><ele>1323.5</ele><time>2026-05-02T16:21:18.602Z</time></trkpt><trkpt lat="42.3024088" lon="13.247309"><ele>1325.0</ele><time>2026-05-02T16:21:20.601Z</time></trkpt><trkpt lat="42.3023382" lon="13.2474346"><ele>1327.2857142857144</ele><time>2026-05-02T16:21:22.603Z</time></trkpt><trkpt lat="42.3022993" lon="13.2475024"><ele>1329.5714285714284</ele><time>2026-05-02T16:21:23.602Z</time></trkpt><trkpt lat="42.3022566" lon="13.2475707"><ele>1331.857142857143</ele><time>2026-05-02T16:21:24.603Z</time></trkpt><trkpt lat="42.3022106" lon="13.2476337"><ele>1334.1428571428573</ele><time>2026-05-02T16:21:25.602Z</time></trkpt><trkpt lat="42.3021622" lon="13.2476997"><ele>1336.4285714285716</ele><time>2026-05-02T16:21:26.602Z</time></trkpt><trkpt lat="42.3021145" lon="13.2477732"><ele>1338.7142857142858</ele><time>2026-05-02T16:21:27.602Z</time></trkpt><trkpt lat="42.3020687" lon="13.2478525"><ele>1341.0</ele><time>2026-05-02T16:21:28.603Z</time></trkpt><trkpt lat="42.3020282" lon="13.2479394"><ele>1342.1999999999998</ele><time>2026-05-02T16:21:29.603Z</time></trkpt><trkpt lat="42.3019625" lon="13.2480548"><ele>1343.3999999999999</ele><time>2026-05-02T16:21:31.603Z</time></trkpt><trkpt lat="42.3018764" lon="13.2481846"><ele>1344.6</ele><time>2026-05-02T16:21:33.602Z</time></trkpt><trkpt lat="42.3018022" lon="13.2483158"><ele>1345.8</ele><time>2026-05-02T16:21:35.602Z</time></trkpt><trkpt lat="42.3017657" lon="13.2483894"><ele>1347.0</ele><time>2026-05-02T16:21:36.603Z</time></trkpt><trkpt lat="42.3016868" lon="13.2485158"><ele>1347.8</ele><time>2026-05-02T16:21:38.602Z</time></trkpt><trkpt lat="42.3016122" lon="13.2486465"><ele>1348.6</ele><time>2026-05-02T16:21:40.603Z</time></trkpt><trkpt lat="42.3015816" lon="13.2487362"><ele>1349.3999999999999</ele><time>2026-05-02T16:21:41.602Z</time></trkpt><trkpt lat="42.3015617" lon="13.2488502"><ele>1350.1999999999998</ele><time>2026-05-02T16:21:42.602Z</time></trkpt><trkpt lat="42.3015451" lon="13.2489906"><ele>1351.0</ele><time>2026-05-02T16:21:43.602Z</time></trkpt><trkpt lat="42.3015214" lon="13.2491448"><ele>1352.75</ele><time>2026-05-02T16:21:44.603Z</time></trkpt><trkpt lat="42.301493" lon="13.249305"><ele>1354.5</ele><time>2026-05-02T16:21:45.602Z</time></trkpt><trkpt lat="42.3014701" lon="13.2494795"><ele>1356.25</ele><time>2026-05-02T16:21:46.602Z</time></trkpt><trkpt lat="42.3014568" lon="13.2496633"><ele>1358.0</ele><time>2026-05-02T16:21:47.602Z</time></trkpt><trkpt lat="42.3014502" lon="13.2498433"><ele>1358.0</ele><time>2026-05-02T16:21:48.602Z</time></trkpt><trkpt lat="42.3014526" lon="13.2500224"><ele>1358.0</ele><time>2026-05-02T16:21:49.603Z</time></trkpt><trkpt lat="42.301469" lon="13.2502102"><ele>1358.0</ele><time>2026-05-02T16:21:50.603Z</time></trkpt><trkpt lat="42.3015067" lon="13.2503926"><ele>1358.0</ele><time>2026-05-02T16:21:51.603Z</time></trkpt><trkpt lat="42.3015668" lon="13.250569"><ele>1354.25</ele><time>2026-05-02T16:21:52.603Z</time></trkpt><trkpt lat="42.3016358" lon="13.250738"><ele>1350.5</ele><time>2026-05-02T16:21:53.602Z</time></trkpt><trkpt lat="42.3017011" lon="13.2508983"><ele>1346.75</ele><time>2026-05-02T16:21:54.603Z</time></trkpt><trkpt lat="42.3017612" lon="13.2510588"><ele>1343.0</ele><time>2026-05-02T16:21:55.603Z</time></trkpt><trkpt lat="42.3018221" lon="13.2512137"><ele>1343.0</ele><time>2026-05-02T16:21:56.602Z</time></trkpt><trkpt lat="42.3018977" lon="13.2513624"><ele>1343.0</ele><time>2026-05-02T16:21:57.602Z</time></trkpt><trkpt lat="42.3019948" lon="13.2515035"><ele>1343.0</ele><time>2026-05-02T16:21:58.602Z</time></trkpt><trkpt lat="42.3021104" lon="13.2516361"><ele>1343.0</ele><time>2026-05-02T16:21:59.602Z</time></trkpt><trkpt lat="42.3022402" lon="13.2517509"><ele>1343.3333333333335</ele><time>2026-05-02T16:22:00.602Z</time></trkpt><trkpt lat="42.3023827" lon="13.2518326"><ele>1343.6666666666667</ele><time>2026-05-02T16:22:01.603Z</time></trkpt><trkpt lat="42.3025346" lon="13.251873"><ele>1344.0</ele><time>2026-05-02T16:22:02.601Z</time></trkpt><trkpt lat="42.3026885" lon="13.2518701"><ele>1344.0</ele><time>2026-05-02T16:22:03.602Z</time></trkpt><trkpt lat="42.3028412" lon="13.2518387"><ele>1344.0</ele><time>2026-05-02T16:22:04.602Z</time></trkpt><trkpt lat="42.3029896" lon="13.2518163"><ele>1344.0</ele><time>2026-05-02T16:22:05.602Z</time></trkpt><trkpt lat="42.3031346" lon="13.2518217"><ele>1344.0</ele><time>2026-05-02T16:22:06.603Z</time></trkpt><trkpt lat="42.3032762" lon="13.2518358"><ele>1345.5</ele><time>2026-05-02T16:22:07.6Z</time></trkpt><trkpt lat="42.3034158" lon="13.2518436"><ele>1347.0</ele><time>2026-05-02T16:22:08.602Z</time></trkpt><trkpt lat="42.3035538" lon="13.2518606"><ele>1348.5</ele><time>2026-05-02T16:22:09.602Z</time></trkpt><trkpt lat="42.3036847" lon="13.2519091"><ele>1350.0</ele><time>2026-05-02T16:22:10.602Z</time></trkpt><trkpt lat="42.3038064" lon="13.2519861"><ele>1347.25</ele><time>2026-05-02T16:22:11.602Z</time></trkpt><trkpt lat="42.3039162" lon="13.2520818"><ele>1344.5</ele><time>2026-05-02T16:22:12.602Z</time></trkpt><trkpt lat="42.3040086" lon="13.2522052"><ele>1341.75</ele><time>2026-05-02T16:22:13.603Z</time></trkpt><trkpt lat="42.3040879" lon="13.2523691"><ele>1339.0</ele><time>2026-05-02T16:22:14.603Z</time></trkpt><trkpt lat="42.3041564" lon="13.252572"><ele>1339.0</ele><time>2026-05-02T16:22:15.602Z</time></trkpt><trkpt lat="42.3042192" lon="13.2528022"><ele>1339.0</ele><time>2026-05-02T16:22:16.602Z</time></trkpt><trkpt lat="42.3042855" lon="13.2530395"><ele>1339.0</ele><time>2026-05-02T16:22:17.602Z</time></trkpt><trkpt lat="42.3043543" lon="13.253278"><ele>1331.0</ele><time>2026-05-02T16:22:18.6Z</time></trkpt><trkpt lat="42.3044298" lon="13.2535223"><ele>1323.0</ele><time>2026-05-02T16:22:19.601Z</time></trkpt><trkpt lat="42.304513" lon="13.253758"><ele>1315.0</ele><time>2026-05-02T16:22:20.601Z</time></trkpt><trkpt lat="42.3045972" lon="13.2539775"><ele>1319.0</ele><time>2026-05-02T16:22:21.602Z</time></trkpt><trkpt lat="42.3046759" lon="13.2541874"><ele>1323.0</ele><time>2026-05-02T16:22:22.602Z</time></trkpt><trkpt lat="42.3047383" lon="13.254364"><ele>1327.0</ele><time>2026-05-02T16:22:23.602Z</time></trkpt><trkpt lat="42.3047904" lon="13.2544847"><ele>1331.0</ele><time>2026-05-02T16:22:24.603Z</time></trkpt><trkpt lat="42.3048569" lon="13.2545673"><ele>1331.0</ele><time>2026-05-02T16:22:25.603Z</time></trkpt><trkpt lat="42.3049334" lon="13.2546039"><ele>1331.0</ele><time>2026-05-02T16:22:26.602Z</time></trkpt><trkpt lat="42.3050188" lon="13.2545946"><ele>1331.0</ele><time>2026-05-02T16:22:27.602Z</time></trkpt><trkpt lat="42.3051267" lon="13.2545661"><ele>1331.0</ele><time>2026-05-02T16:22:28.601Z</time></trkpt><trkpt lat="42.3052537" lon="13.2545198"><ele>1331.0</ele><time>2026-05-02T16:22:29.601Z</time></trkpt><trkpt lat="42.3053956" lon="13.2544551"><ele>1331.0</ele><time>2026-05-02T16:22:30.601Z</time></trkpt><trkpt lat="42.3055425" lon="13.2543701"><ele>1331.0</ele><time>2026-05-02T16:22:31.602Z</time></trkpt><trkpt lat="42.3056749" lon="13.2542803"><ele>1331.0</ele><time>2026-05-02T16:22:32.603Z</time></trkpt><trkpt lat="42.3058072" lon="13.254197"><ele>1328.3333333333335</ele><time>2026-05-02T16:22:33.602Z</time></trkpt><trkpt lat="42.305946" lon="13.2541322"><ele>1325.6666666666667</ele><time>2026-05-02T16:22:34.601Z</time></trkpt><trkpt lat="42.3061088" lon="13.2540943"><ele>1323.0</ele><time>2026-05-02T16:22:35.602Z</time></trkpt><trkpt lat="42.306277" lon="13.2540487"><ele>1318.0</ele><time>2026-05-02T16:22:36.603Z</time></trkpt><trkpt lat="42.3064533" lon="13.2539999"><ele>1313.0</ele><time>2026-05-02T16:22:37.601Z</time></trkpt><trkpt lat="42.3066325" lon="13.2539572"><ele>1308.0</ele><time>2026-05-02T16:22:38.6Z</time></trkpt><trkpt lat="42.306819" lon="13.2539137"><ele>1317.3333333333333</ele><time>2026-05-02T16:22:39.602Z</time></trkpt><trkpt lat="42.3070042" lon="13.253873"><ele>1326.6666666666665</ele><time>2026-05-02T16:22:40.602Z</time></trkpt><trkpt lat="42.3071786" lon="13.2538151"><ele>1336.0</ele><time>2026-05-02T16:22:41.602Z</time></trkpt><trkpt lat="42.3073472" lon="13.2537618"><ele>1336.0</ele><time>2026-05-02T16:22:42.602Z</time></trkpt><trkpt lat="42.307516" lon="13.2537352"><ele>1336.0</ele><time>2026-05-02T16:22:43.602Z</time></trkpt><trkpt lat="42.3076992" lon="13.2537396"><ele>1336.0</ele><time>2026-05-02T16:22:44.602Z</time></trkpt><trkpt lat="42.3078878" lon="13.2537479"><ele>1332.6666666666665</ele><time>2026-05-02T16:22:45.602Z</time></trkpt><trkpt lat="42.3080822" lon="13.2537567"><ele>1329.3333333333333</ele><time>2026-05-02T16:22:46.602Z</time></trkpt><trkpt lat="42.3082725" lon="13.2537752"><ele>1326.0</ele><time>2026-05-02T16:22:47.603Z</time></trkpt><trkpt lat="42.3084548" lon="13.2538144"><ele>1326.0</ele><time>2026-05-02T16:22:48.601Z</time></trkpt><trkpt lat="42.3086373" lon="13.2538736"><ele>1326.0</ele><time>2026-05-02T16:22:49.603Z</time></trkpt><trkpt lat="42.3088167" lon="13.2539446"><ele>1326.0</ele><time>2026-05-02T16:22:50.602Z</time></trkpt><trkpt lat="42.3089883" lon="13.2540099"><ele>1319.0</ele><time>2026-05-02T16:22:51.602Z</time></trkpt><trkpt lat="42.3091328" lon="13.2540483"><ele>1312.0</ele><time>2026-05-02T16:22:52.602Z</time></trkpt><trkpt lat="42.3092317" lon="13.2540545"><ele>1305.0</ele><time>2026-05-02T16:22:53.602Z</time></trkpt><trkpt lat="42.3093324" lon="13.2540267"><ele>1298.0</ele><time>2026-05-02T16:22:54.602Z</time></trkpt><trkpt lat="42.309429" lon="13.2539621"><ele>1300.25</ele><time>2026-05-02T16:22:55.602Z</time></trkpt><trkpt lat="42.3095402" lon="13.2538771"><ele>1302.5</ele><time>2026-05-02T16:22:56.602Z</time></trkpt><trkpt lat="42.3096667" lon="13.2537801"><ele>1304.75</ele><time>2026-05-02T16:22:57.603Z</time></trkpt><trkpt lat="42.3098045" lon="13.2536786"><ele>1307.0</ele><time>2026-05-02T16:22:58.602Z</time></trkpt><trkpt lat="42.3099527" lon="13.2535725"><ele>1307.0</ele><time>2026-05-02T16:22:59.602Z</time></trkpt><trkpt lat="42.3101039" lon="13.2534567"><ele>1307.0</ele><time>2026-05-02T16:23:00.603Z</time></trkpt><trkpt lat="42.3102483" lon="13.2533387"><ele>1307.0</ele><time>2026-05-02T16:23:01.602Z</time></trkpt><trkpt lat="42.3103858" lon="13.2532254"><ele>1307.0</ele><time>2026-05-02T16:23:02.603Z</time></trkpt><trkpt lat="42.3105233" lon="13.2531275"><ele>1307.0</ele><time>2026-05-02T16:23:03.602Z</time></trkpt><trkpt lat="42.3106603" lon="13.2530457"><ele>1307.0</ele><time>2026-05-02T16:23:04.602Z</time></trkpt><trkpt lat="42.3107994" lon="13.2529827"><ele>1309.6666666666667</ele><time>2026-05-02T16:23:05.602Z</time></trkpt><trkpt lat="42.3109491" lon="13.2529432"><ele>1312.3333333333333</ele><time>2026-05-02T16:23:06.602Z</time></trkpt><trkpt lat="42.3111085" lon="13.2529266"><ele>1315.0</ele><time>2026-05-02T16:23:07.603Z</time></trkpt><trkpt lat="42.311272" lon="13.2529056"><ele>1311.6666666666665</ele><time>2026-05-02T16:23:08.602Z</time></trkpt><trkpt lat="42.3114331" lon="13.2528682"><ele>1308.3333333333333</ele><time>2026-05-02T16:23:09.602Z</time></trkpt><trkpt lat="42.3115878" lon="13.2528343"><ele>1305.0</ele><time>2026-05-02T16:23:10.603Z</time></trkpt><trkpt lat="42.3117382" lon="13.2528224"><ele>1305.0</ele><time>2026-05-02T16:23:11.602Z</time></trkpt><trkpt lat="42.3118835" lon="13.2528303"><ele>1305.0</ele><time>2026-05-02T16:23:12.603Z</time></trkpt><trkpt lat="42.312019" lon="13.252869"><ele>1305.0</ele><time>2026-05-02T16:23:13.603Z</time></trkpt><trkpt lat="42.3121447" lon="13.2529"><ele>1305.0</ele><time>2026-05-02T16:23:14.602Z</time></trkpt><trkpt lat="42.3122469" lon="13.2529013"><ele>1302.0</ele><time>2026-05-02T16:23:15.602Z</time></trkpt><trkpt lat="42.3123407" lon="13.2528632"><ele>1299.0</ele><time>2026-05-02T16:23:16.602Z</time></trkpt><trkpt lat="42.3124309" lon="13.2527876"><ele>1296.0</ele><time>2026-05-02T16:23:17.602Z</time></trkpt><trkpt lat="42.3125238" lon="13.2526913"><ele>1293.0</ele><time>2026-05-02T16:23:18.603Z</time></trkpt><trkpt lat="42.3126342" lon="13.2526137"><ele>1290.0</ele><time>2026-05-02T16:23:19.601Z</time></trkpt><trkpt lat="42.3127403" lon="13.2525325"><ele>1290.0</ele><time>2026-05-02T16:23:20.601Z</time></trkpt><trkpt lat="42.3128257" lon="13.2524191"><ele>1290.0</ele><time>2026-05-02T16:23:21.603Z</time></trkpt><trkpt lat="42.3128851" lon="13.2522774"><ele>1290.0</ele><time>2026-05-02T16:23:22.602Z</time></trkpt><trkpt lat="42.3129333" lon="13.2521366"><ele>1290.0</ele><time>2026-05-02T16:23:23.602Z</time></trkpt><trkpt lat="42.3130002" lon="13.2520117"><ele>1288.8</ele><time>2026-05-02T16:23:24.602Z</time></trkpt><trkpt lat="42.313084" lon="13.2519152"><ele>1287.6</ele><time>2026-05-02T16:23:25.603Z</time></trkpt><trkpt lat="42.3131875" lon="13.2518447"><ele>1286.4</ele><time>2026-05-02T16:23:26.601Z</time></trkpt><trkpt lat="42.3132951" lon="13.2518016"><ele>1285.2</ele><time>2026-05-02T16:23:27.602Z</time></trkpt><trkpt lat="42.3133939" lon="13.2517487"><ele>1284.0</ele><time>2026-05-02T16:23:28.603Z</time></trkpt><trkpt lat="42.3134805" lon="13.2516679"><ele>1284.0</ele><time>2026-05-02T16:23:29.601Z</time></trkpt><trkpt lat="42.3135451" lon="13.2515628"><ele>1284.0</ele><time>2026-05-02T16:23:30.602Z</time></trkpt><trkpt lat="42.3136076" lon="13.2514592"><ele>1284.0</ele><time>2026-05-02T16:23:31.602Z</time></trkpt><trkpt lat="42.3136909" lon="13.2513812"><ele>1284.0</ele><time>2026-05-02T16:23:32.602Z</time></trkpt><trkpt lat="42.3137993" lon="13.2513299"><ele>1284.0</ele><time>2026-05-02T16:23:33.602Z</time></trkpt><trkpt lat="42.3139305" lon="13.2512931"><ele>1287.0</ele><time>2026-05-02T16:23:34.603Z</time></trkpt><trkpt lat="42.3140673" lon="13.2512395"><ele>1290.0</ele><time>2026-05-02T16:23:35.602Z</time></trkpt><trkpt lat="42.3141947" lon="13.2511735"><ele>1293.0</ele><time>2026-05-02T16:23:36.603Z</time></trkpt><trkpt lat="42.3143144" lon="13.2511198"><ele>1296.0</ele><time>2026-05-02T16:23:37.602Z</time></trkpt><trkpt lat="42.3144174" lon="13.2511014"><ele>1296.0</ele><time>2026-05-02T16:23:38.603Z</time></trkpt><trkpt lat="42.3145164" lon="13.2511249"><ele>1296.0</ele><time>2026-05-02T16:23:39.602Z</time></trkpt><trkpt lat="42.31461" lon="13.2511899"><ele>1296.0</ele><time>2026-05-02T16:23:40.602Z</time></trkpt><trkpt lat="42.3147061" lon="13.2512855"><ele>1296.0</ele><time>2026-05-02T16:23:41.603Z</time></trkpt><trkpt lat="42.3148122" lon="13.2513978"><ele>1290.25</ele><time>2026-05-02T16:23:42.602Z</time></trkpt><trkpt lat="42.3149226" lon="13.2515157"><ele>1284.5</ele><time>2026-05-02T16:23:43.602Z</time></trkpt><trkpt lat="42.315036" lon="13.2516372"><ele>1278.75</ele><time>2026-05-02T16:23:44.602Z</time></trkpt><trkpt lat="42.3151385" lon="13.2517528"><ele>1273.0</ele><time>2026-05-02T16:23:45.602Z</time></trkpt><trkpt lat="42.315231" lon="13.2518813"><ele>1273.0</ele><time>2026-05-02T16:23:46.602Z</time></trkpt><trkpt lat="42.3153147" lon="13.2520132"><ele>1273.0</ele><time>2026-05-02T16:23:47.603Z</time></trkpt><trkpt lat="42.3154033" lon="13.2521137"><ele>1273.0</ele><time>2026-05-02T16:23:48.602Z</time></trkpt><trkpt lat="42.3155048" lon="13.2521732"><ele>1273.0</ele><time>2026-05-02T16:23:49.602Z</time></trkpt><trkpt lat="42.3156333" lon="13.2522055"><ele>1280.3333333333333</ele><time>2026-05-02T16:23:50.603Z</time></trkpt><trkpt lat="42.3157787" lon="13.2522071"><ele>1287.6666666666667</ele><time>2026-05-02T16:23:51.601Z</time></trkpt><trkpt lat="42.315929" lon="13.2521753"><ele>1295.0</ele><time>2026-05-02T16:23:52.602Z</time></trkpt><trkpt lat="42.3160762" lon="13.2521216"><ele>1295.0</ele><time>2026-05-02T16:23:53.602Z</time></trkpt><trkpt lat="42.3162115" lon="13.2520657"><ele>1295.0</ele><time>2026-05-02T16:23:54.603Z</time></trkpt><trkpt lat="42.3163329" lon="13.2520272"><ele>1295.0</ele><time>2026-05-02T16:23:55.603Z</time></trkpt><trkpt lat="42.3164311" lon="13.2520109"><ele>1295.0</ele><time>2026-05-02T16:23:56.602Z</time></trkpt><trkpt lat="42.3165107" lon="13.2520261"><ele>1295.0</ele><time>2026-05-02T16:23:57.602Z</time></trkpt><trkpt lat="42.3165794" lon="13.2520785"><ele>1294.3333333333335</ele><time>2026-05-02T16:23:58.603Z</time></trkpt><trkpt lat="42.3166225" lon="13.252153"><ele>1293.6666666666667</ele><time>2026-05-02T16:23:59.602Z</time></trkpt><trkpt lat="42.3166452" lon="13.2522771"><ele>1293.0</ele><time>2026-05-02T16:24:01.602Z</time></trkpt><trkpt lat="42.3166524" lon="13.252381"><ele>1292.3333333333333</ele><time>2026-05-02T16:24:04.602Z</time></trkpt><trkpt lat="42.3166049" lon="13.2525015"><ele>1291.6666666666665</ele><time>2026-05-02T16:24:06.602Z</time></trkpt><trkpt lat="42.31655" lon="13.2525937"><ele>1291.0</ele><time>2026-05-02T16:24:07.603Z</time></trkpt><trkpt lat="42.3164919" lon="13.2526949"><ele>1288.1666666666665</ele><time>2026-05-02T16:24:08.6Z</time></trkpt><trkpt lat="42.3164438" lon="13.2527923"><ele>1285.3333333333333</ele><time>2026-05-02T16:24:09.601Z</time></trkpt><trkpt lat="42.3164203" lon="13.2528964"><ele>1282.5</ele><time>2026-05-02T16:24:10.602Z</time></trkpt><trkpt lat="42.316428" lon="13.2529895"><ele>1279.6666666666667</ele><time>2026-05-02T16:24:11.602Z</time></trkpt><trkpt lat="42.3165158" lon="13.2530842"><ele>1276.8333333333335</ele><time>2026-05-02T16:24:13.602Z</time></trkpt><trkpt lat="42.3165881" lon="13.2530815"><ele>1274.0</ele><time>2026-05-02T16:24:14.602Z</time></trkpt><trkpt lat="42.316682" lon="13.2530484"><ele>1274.0</ele><time>2026-05-02T16:24:15.602Z</time></trkpt><trkpt lat="42.3167867" lon="13.2530092"><ele>1274.0</ele><time>2026-05-02T16:24:16.602Z</time></trkpt><trkpt lat="42.3169029" lon="13.2529713"><ele>1274.0</ele><time>2026-05-02T16:24:17.602Z</time></trkpt><trkpt lat="42.3170302" lon="13.2529293"><ele>1274.0</ele><time>2026-05-02T16:24:18.603Z</time></trkpt><trkpt lat="42.3171718" lon="13.2528836"><ele>1274.6666666666667</ele><time>2026-05-02T16:24:19.603Z</time></trkpt><trkpt lat="42.3173232" lon="13.2528305"><ele>1275.3333333333333</ele><time>2026-05-02T16:24:20.602Z</time></trkpt><trkpt lat="42.3174736" lon="13.2527699"><ele>1276.0</ele><time>2026-05-02T16:24:21.603Z</time></trkpt><trkpt lat="42.3176333" lon="13.2527068"><ele>1276.0</ele><time>2026-05-02T16:24:22.6Z</time></trkpt><trkpt lat="42.3178008" lon="13.2526493"><ele>1276.0</ele><time>2026-05-02T16:24:23.602Z</time></trkpt><trkpt lat="42.3179747" lon="13.2526058"><ele>1276.0</ele><time>2026-05-02T16:24:24.601Z</time></trkpt><trkpt lat="42.3181535" lon="13.2525843"><ele>1274.0</ele><time>2026-05-02T16:24:25.602Z</time></trkpt><trkpt lat="42.3183373" lon="13.252575"><ele>1272.0</ele><time>2026-05-02T16:24:26.602Z</time></trkpt><trkpt lat="42.3185235" lon="13.2525572"><ele>1270.0</ele><time>2026-05-02T16:24:27.602Z</time></trkpt><trkpt lat="42.3187097" lon="13.2525247"><ele>1270.0</ele><time>2026-05-02T16:24:28.602Z</time></trkpt><trkpt lat="42.318889" lon="13.2524859"><ele>1270.0</ele><time>2026-05-02T16:24:29.601Z</time></trkpt><trkpt lat="42.3190591" lon="13.2524487"><ele>1270.0</ele><time>2026-05-02T16:24:30.601Z</time></trkpt><trkpt lat="42.3192235" lon="13.2524187"><ele>1268.3333333333333</ele><time>2026-05-02T16:24:31.602Z</time></trkpt><trkpt lat="42.3193822" lon="13.2523964"><ele>1266.6666666666667</ele><time>2026-05-02T16:24:32.602Z</time></trkpt><trkpt lat="42.3195353" lon="13.2523718"><ele>1265.0</ele><time>2026-05-02T16:24:33.602Z</time></trkpt><trkpt lat="42.3196691" lon="13.252325"><ele>1269.0</ele><time>2026-05-02T16:24:34.602Z</time></trkpt><trkpt lat="42.3197816" lon="13.2522474"><ele>1273.0</ele><time>2026-05-02T16:24:35.601Z</time></trkpt><trkpt lat="42.3198778" lon="13.2521318"><ele>1277.0</ele><time>2026-05-02T16:24:36.603Z</time></trkpt><trkpt lat="42.3199645" lon="13.2519926"><ele>1281.0</ele><time>2026-05-02T16:24:37.602Z</time></trkpt><trkpt lat="42.3200598" lon="13.2518507"><ele>1281.0</ele><time>2026-05-02T16:24:38.602Z</time></trkpt><trkpt lat="42.3201549" lon="13.2517008"><ele>1281.0</ele><time>2026-05-02T16:24:39.6Z</time></trkpt><trkpt lat="42.3202351" lon="13.2515335"><ele>1281.0</ele><time>2026-05-02T16:24:40.601Z</time></trkpt><trkpt lat="42.3203006" lon="13.2513627"><ele>1281.0</ele><time>2026-05-02T16:24:41.602Z</time></trkpt><trkpt lat="42.3203719" lon="13.2512012"><ele>1284.0</ele><time>2026-05-02T16:24:42.602Z</time></trkpt><trkpt lat="42.3204268" lon="13.2510353"><ele>1287.0</ele><time>2026-05-02T16:24:43.6Z</time></trkpt><trkpt lat="42.3204616" lon="13.2508631"><ele>1290.0</ele><time>2026-05-02T16:24:44.603Z</time></trkpt><trkpt lat="42.320494" lon="13.2507134"><ele>1293.0</ele><time>2026-05-02T16:24:45.603Z</time></trkpt><trkpt lat="42.3205282" lon="13.250603"><ele>1289.2</ele><time>2026-05-02T16:24:46.602Z</time></trkpt><trkpt lat="42.3205831" lon="13.2505086"><ele>1285.4</ele><time>2026-05-02T16:24:47.602Z</time></trkpt><trkpt lat="42.3206567" lon="13.2504345"><ele>1281.6000000000001</ele><time>2026-05-02T16:24:48.601Z</time></trkpt><trkpt lat="42.320752" lon="13.250388"><ele>1277.8000000000002</ele><time>2026-05-02T16:24:49.6Z</time></trkpt><trkpt lat="42.3208587" lon="13.2503716"><ele>1274.0</ele><time>2026-05-02T16:24:50.601Z</time></trkpt><trkpt lat="42.3209727" lon="13.2503869"><ele>1274.0</ele><time>2026-05-02T16:24:51.6Z</time></trkpt><trkpt lat="42.3210889" lon="13.2504316"><ele>1274.0</ele><time>2026-05-02T16:24:52.602Z</time></trkpt><trkpt lat="42.3212121" lon="13.2504998"><ele>1274.0</ele><time>2026-05-02T16:24:53.602Z</time></trkpt><trkpt lat="42.3213468" lon="13.2505792"><ele>1274.0</ele><time>2026-05-02T16:24:54.603Z</time></trkpt><trkpt lat="42.32149" lon="13.2506617"><ele>1267.75</ele><time>2026-05-02T16:24:55.603Z</time></trkpt><trkpt lat="42.3216303" lon="13.250741"><ele>1261.5</ele><time>2026-05-02T16:24:56.601Z</time></trkpt><trkpt lat="42.3217591" lon="13.2508224"><ele>1255.25</ele><time>2026-05-02T16:24:57.601Z</time></trkpt><trkpt lat="42.3218768" lon="13.250912"><ele>1249.0</ele><time>2026-05-02T16:24:58.603Z</time></trkpt><trkpt lat="42.3219605" lon="13.2509893"><ele>1249.0</ele><time>2026-05-02T16:24:59.603Z</time></trkpt><trkpt lat="42.3220122" lon="13.251063"><ele>1249.0</ele><time>2026-05-02T16:25:00.602Z</time></trkpt><trkpt lat="42.3220335" lon="13.2512145"><ele>1249.0</ele><time>2026-05-02T16:25:02.602Z</time></trkpt><trkpt lat="42.3219429" lon="13.2512975"><ele>1249.0</ele><time>2026-05-02T16:25:04.602Z</time></trkpt><trkpt lat="42.3218662" lon="13.2512974"><ele>1249.0</ele><time>2026-05-02T16:25:05.603Z</time></trkpt><trkpt lat="42.3217717" lon="13.2512857"><ele>1249.0</ele><time>2026-05-02T16:25:06.602Z</time></trkpt><trkpt lat="42.3216708" lon="13.2512608"><ele>1249.0</ele><time>2026-05-02T16:25:07.6Z</time></trkpt><trkpt lat="42.3215727" lon="13.2511979"><ele>1249.0</ele><time>2026-05-02T16:25:08.601Z</time></trkpt><trkpt lat="42.3214838" lon="13.2511027"><ele>1249.0</ele><time>2026-05-02T16:25:09.6Z</time></trkpt><trkpt lat="42.3214057" lon="13.2509888"><ele>1249.0</ele><time>2026-05-02T16:25:10.602Z</time></trkpt><trkpt lat="42.3213281" lon="13.2508749"><ele>1249.4</ele><time>2026-05-02T16:25:11.603Z</time></trkpt><trkpt lat="42.3212414" lon="13.2507745"><ele>1249.8000000000002</ele><time>2026-05-02T16:25:12.601Z</time></trkpt><trkpt lat="42.3211451" lon="13.2506953"><ele>1250.1999999999998</ele><time>2026-05-02T16:25:13.602Z</time></trkpt><trkpt lat="42.3210427" lon="13.250644"><ele>1250.6</ele><time>2026-05-02T16:25:14.602Z</time></trkpt><trkpt lat="42.3209444" lon="13.2506138"><ele>1251.0</ele><time>2026-05-02T16:25:15.602Z</time></trkpt><trkpt lat="42.3208674" lon="13.250606"><ele>1251.0</ele><time>2026-05-02T16:25:16.603Z</time></trkpt><trkpt lat="42.3208043" lon="13.2506294"><ele>1251.0</ele><time>2026-05-02T16:25:17.602Z</time></trkpt><trkpt lat="42.3207612" lon="13.2506916"><ele>1251.0</ele><time>2026-05-02T16:25:18.603Z</time></trkpt><trkpt lat="42.3207321" lon="13.250879"><ele>1251.0</ele><time>2026-05-02T16:25:20.601Z</time></trkpt><trkpt lat="42.3207022" lon="13.2509936"><ele>1251.0</ele><time>2026-05-02T16:25:21.602Z</time></trkpt><trkpt lat="42.3206502" lon="13.2511224"><ele>1251.0</ele><time>2026-05-02T16:25:22.601Z</time></trkpt><trkpt lat="42.3205858" lon="13.251268"><ele>1251.0</ele><time>2026-05-02T16:25:23.599Z</time></trkpt><trkpt lat="42.3205222" lon="13.2514256"><ele>1251.0</ele><time>2026-05-02T16:25:24.602Z</time></trkpt><trkpt lat="42.3204722" lon="13.251595"><ele>1251.0</ele><time>2026-05-02T16:25:25.602Z</time></trkpt><trkpt lat="42.32041" lon="13.2517547"><ele>1250.25</ele><time>2026-05-02T16:25:26.602Z</time></trkpt><trkpt lat="42.3203419" lon="13.2519056"><ele>1249.5</ele><time>2026-05-02T16:25:27.603Z</time></trkpt><trkpt lat="42.3202737" lon="13.2520541"><ele>1248.75</ele><time>2026-05-02T16:25:28.602Z</time></trkpt><trkpt lat="42.3202101" lon="13.2521999"><ele>1248.0</ele><time>2026-05-02T16:25:29.602Z</time></trkpt><trkpt lat="42.3201562" lon="13.2523525"><ele>1248.0</ele><time>2026-05-02T16:25:30.603Z</time></trkpt><trkpt lat="42.3200969" lon="13.2524995"><ele>1248.0</ele><time>2026-05-02T16:25:31.602Z</time></trkpt><trkpt lat="42.3200226" lon="13.2526297"><ele>1248.0</ele><time>2026-05-02T16:25:32.603Z</time></trkpt><trkpt lat="42.3199307" lon="13.2527412"><ele>1248.0</ele><time>2026-05-02T16:25:33.603Z</time></trkpt><trkpt lat="42.3198228" lon="13.2528308"><ele>1252.25</ele><time>2026-05-02T16:25:34.603Z</time></trkpt><trkpt lat="42.3196989" lon="13.2528988"><ele>1256.5</ele><time>2026-05-02T16:25:35.602Z</time></trkpt><trkpt lat="42.3195577" lon="13.2529481"><ele>1260.75</ele><time>2026-05-02T16:25:36.603Z</time></trkpt><trkpt lat="42.3194022" lon="13.2529944"><ele>1265.0</ele><time>2026-05-02T16:25:37.603Z</time></trkpt><trkpt lat="42.3192484" lon="13.2530528"><ele>1265.0</ele><time>2026-05-02T16:25:38.602Z</time></trkpt><trkpt lat="42.3191037" lon="13.2531128"><ele>1265.0</ele><time>2026-05-02T16:25:39.603Z</time></trkpt><trkpt lat="42.3189633" lon="13.253173"><ele>1265.0</ele><time>2026-05-02T16:25:40.603Z</time></trkpt><trkpt lat="42.3188113" lon="13.2532232"><ele>1254.6666666666667</ele><time>2026-05-02T16:25:41.603Z</time></trkpt><trkpt lat="42.3186543" lon="13.2532506"><ele>1244.3333333333333</ele><time>2026-05-02T16:25:42.602Z</time></trkpt><trkpt lat="42.3184927" lon="13.2532702"><ele>1234.0</ele><time>2026-05-02T16:25:43.601Z</time></trkpt><trkpt lat="42.3183274" lon="13.2533116"><ele>1234.0</ele><time>2026-05-02T16:25:44.603Z</time></trkpt><trkpt lat="42.318158" lon="13.2533757"><ele>1234.0</ele><time>2026-05-02T16:25:45.603Z</time></trkpt><trkpt lat="42.3179832" lon="13.2534475"><ele>1234.0</ele><time>2026-05-02T16:25:46.602Z</time></trkpt><trkpt lat="42.317801" lon="13.2535164"><ele>1236.6666666666665</ele><time>2026-05-02T16:25:47.602Z</time></trkpt><trkpt lat="42.3176212" lon="13.2535785"><ele>1239.3333333333333</ele><time>2026-05-02T16:25:48.602Z</time></trkpt><trkpt lat="42.317448" lon="13.2536385"><ele>1242.0</ele><time>2026-05-02T16:25:49.602Z</time></trkpt><trkpt lat="42.3172788" lon="13.2537088"><ele>1245.3333333333333</ele><time>2026-05-02T16:25:50.602Z</time></trkpt><trkpt lat="42.3171164" lon="13.2537956"><ele>1248.6666666666665</ele><time>2026-05-02T16:25:51.602Z</time></trkpt><trkpt lat="42.3169621" lon="13.2538847"><ele>1252.0</ele><time>2026-05-02T16:25:52.603Z</time></trkpt><trkpt lat="42.3168085" lon="13.2539695"><ele>1241.5</ele><time>2026-05-02T16:25:53.602Z</time></trkpt><trkpt lat="42.3166572" lon="13.2540514"><ele>1231.0</ele><time>2026-05-02T16:25:54.603Z</time></trkpt><trkpt lat="42.316512" lon="13.2541234"><ele>1220.5</ele><time>2026-05-02T16:25:55.602Z</time></trkpt><trkpt lat="42.3163853" lon="13.2541601"><ele>1210.0</ele><time>2026-05-02T16:25:56.603Z</time></trkpt><trkpt lat="42.3162726" lon="13.2541623"><ele>1208.75</ele><time>2026-05-02T16:25:57.602Z</time></trkpt><trkpt lat="42.3161571" lon="13.2541222"><ele>1207.5</ele><time>2026-05-02T16:25:58.603Z</time></trkpt><trkpt lat="42.3160437" lon="13.2540452"><ele>1206.25</ele><time>2026-05-02T16:25:59.602Z</time></trkpt><trkpt lat="42.3159194" lon="13.2539758"><ele>1205.0</ele><time>2026-05-02T16:26:00.602Z</time></trkpt><trkpt lat="42.3157921" lon="13.2539251"><ele>1205.75</ele><time>2026-05-02T16:26:01.602Z</time></trkpt><trkpt lat="42.3156656" lon="13.253882"><ele>1206.5</ele><time>2026-05-02T16:26:02.603Z</time></trkpt><trkpt lat="42.3155488" lon="13.2538272"><ele>1207.25</ele><time>2026-05-02T16:26:03.602Z</time></trkpt><trkpt lat="42.315451" lon="13.2537488"><ele>1208.0</ele><time>2026-05-02T16:26:04.602Z</time></trkpt><trkpt lat="42.3153798" lon="13.2536424"><ele>1208.0</ele><time>2026-05-02T16:26:05.603Z</time></trkpt><trkpt lat="42.3153293" lon="13.2535217"><ele>1208.0</ele><time>2026-05-02T16:26:06.602Z</time></trkpt><trkpt lat="42.3152702" lon="13.2534138"><ele>1208.0</ele><time>2026-05-02T16:26:07.602Z</time></trkpt><trkpt lat="42.3151893" lon="13.253343"><ele>1208.0</ele><time>2026-05-02T16:26:08.602Z</time></trkpt><trkpt lat="42.3150921" lon="13.253299"><ele>1208.0</ele><time>2026-05-02T16:26:09.602Z</time></trkpt><trkpt lat="42.3149858" lon="13.253259"><ele>1208.0</ele><time>2026-05-02T16:26:10.603Z</time></trkpt><trkpt lat="42.3148826" lon="13.2531913"><ele>1208.0</ele><time>2026-05-02T16:26:11.602Z</time></trkpt><trkpt lat="42.3147918" lon="13.2531029"><ele>1208.0</ele><time>2026-05-02T16:26:12.602Z</time></trkpt><trkpt lat="42.3147064" lon="13.2530165"><ele>1208.0</ele><time>2026-05-02T16:26:13.603Z</time></trkpt><trkpt lat="42.3146116" lon="13.252964"><ele>1208.0</ele><time>2026-05-02T16:26:14.602Z</time></trkpt><trkpt lat="42.3145148" lon="13.2529512"><ele>1207.0</ele><time>2026-05-02T16:26:15.602Z</time></trkpt><trkpt lat="42.3144114" lon="13.2529726"><ele>1206.0</ele><time>2026-05-02T16:26:16.601Z</time></trkpt><trkpt lat="42.314302" lon="13.2530233"><ele>1205.0</ele><time>2026-05-02T16:26:17.603Z</time></trkpt><trkpt lat="42.3141935" lon="13.2530925"><ele>1204.0</ele><time>2026-05-02T16:26:18.602Z</time></trkpt><trkpt lat="42.3140966" lon="13.2531815"><ele>1204.0</ele><time>2026-05-02T16:26:19.6Z</time></trkpt><trkpt lat="42.3140176" lon="13.2532977"><ele>1204.0</ele><time>2026-05-02T16:26:20.602Z</time></trkpt><trkpt lat="42.3139495" lon="13.2534384"><ele>1204.0</ele><time>2026-05-02T16:26:21.601Z</time></trkpt><trkpt lat="42.3138779" lon="13.2535837"><ele>1204.0</ele><time>2026-05-02T16:26:22.602Z</time></trkpt><trkpt lat="42.3137907" lon="13.2537193"><ele>1209.75</ele><time>2026-05-02T16:26:23.602Z</time></trkpt><trkpt lat="42.313707" lon="13.253865"><ele>1215.5</ele><time>2026-05-02T16:26:24.602Z</time></trkpt><trkpt lat="42.3136439" lon="13.2540328"><ele>1221.25</ele><time>2026-05-02T16:26:25.603Z</time></trkpt><trkpt lat="42.3136033" lon="13.2542235"><ele>1227.0</ele><time>2026-05-02T16:26:26.603Z</time></trkpt><trkpt lat="42.3135806" lon="13.2544229"><ele>1227.0</ele><time>2026-05-02T16:26:27.601Z</time></trkpt><trkpt lat="42.313551" lon="13.2546239"><ele>1227.0</ele><time>2026-05-02T16:26:28.603Z</time></trkpt><trkpt lat="42.3135118" lon="13.2548189"><ele>1227.0</ele><time>2026-05-02T16:26:29.603Z</time></trkpt><trkpt lat="42.3134672" lon="13.254989"><ele>1227.0</ele><time>2026-05-02T16:26:30.602Z</time></trkpt><trkpt lat="42.3134193" lon="13.2551173"><ele>1226.2</ele><time>2026-05-02T16:26:31.602Z</time></trkpt><trkpt lat="42.3133617" lon="13.2552158"><ele>1225.4</ele><time>2026-05-02T16:26:32.602Z</time></trkpt><trkpt lat="42.3132902" lon="13.2552784"><ele>1224.6</ele><time>2026-05-02T16:26:33.602Z</time></trkpt><trkpt lat="42.3132052" lon="13.2553045"><ele>1223.8</ele><time>2026-05-02T16:26:34.602Z</time></trkpt><trkpt lat="42.313111" lon="13.2552889"><ele>1223.0</ele><time>2026-05-02T16:26:35.602Z</time></trkpt><trkpt lat="42.313007" lon="13.2552502"><ele>1223.0</ele><time>2026-05-02T16:26:36.603Z</time></trkpt><trkpt lat="42.3128926" lon="13.2552092"><ele>1223.0</ele><time>2026-05-02T16:26:37.602Z</time></trkpt><trkpt lat="42.3127794" lon="13.2551667"><ele>1223.0</ele><time>2026-05-02T16:26:38.602Z</time></trkpt><trkpt lat="42.3126664" lon="13.2551335"><ele>1223.0</ele><time>2026-05-02T16:26:39.602Z</time></trkpt><trkpt lat="42.3125545" lon="13.2551337"><ele>1223.0</ele><time>2026-05-02T16:26:40.602Z</time></trkpt><trkpt lat="42.3124496" lon="13.2551779"><ele>1223.0</ele><time>2026-05-02T16:26:41.602Z</time></trkpt><trkpt lat="42.3123641" lon="13.2552627"><ele>1223.0</ele><time>2026-05-02T16:26:42.602Z</time></trkpt><trkpt lat="42.3123054" lon="13.2553773"><ele>1223.0</ele><time>2026-05-02T16:26:43.601Z</time></trkpt><trkpt lat="42.3122755" lon="13.2555148"><ele>1223.0</ele><time>2026-05-02T16:26:44.603Z</time></trkpt><trkpt lat="42.3122718" lon="13.2556703"><ele>1217.8</ele><time>2026-05-02T16:26:45.602Z</time></trkpt><trkpt lat="42.3122832" lon="13.255821"><ele>1212.6</ele><time>2026-05-02T16:26:46.602Z</time></trkpt><trkpt lat="42.3122952" lon="13.2559691"><ele>1207.4</ele><time>2026-05-02T16:26:47.602Z</time></trkpt><trkpt lat="42.3123" lon="13.2561079"><ele>1202.2</ele><time>2026-05-02T16:26:48.603Z</time></trkpt><trkpt lat="42.3122872" lon="13.2562459"><ele>1197.0</ele><time>2026-05-02T16:26:49.603Z</time></trkpt><trkpt lat="42.3122446" lon="13.2563687"><ele>1196.2</ele><time>2026-05-02T16:26:50.602Z</time></trkpt><trkpt lat="42.3121853" lon="13.2564748"><ele>1195.4</ele><time>2026-05-02T16:26:51.603Z</time></trkpt><trkpt lat="42.3121046" lon="13.2565704"><ele>1194.6</ele><time>2026-05-02T16:26:52.602Z</time></trkpt><trkpt lat="42.3120158" lon="13.2566419"><ele>1193.8</ele><time>2026-05-02T16:26:53.602Z</time></trkpt><trkpt lat="42.311922" lon="13.2566719"><ele>1193.0</ele><time>2026-05-02T16:26:54.603Z</time></trkpt><trkpt lat="42.3118222" lon="13.2566672"><ele>1193.0</ele><time>2026-05-02T16:26:55.602Z</time></trkpt><trkpt lat="42.3117178" lon="13.2566285"><ele>1193.0</ele><time>2026-05-02T16:26:56.603Z</time></trkpt><trkpt lat="42.3116184" lon="13.2565725"><ele>1193.0</ele><time>2026-05-02T16:26:57.602Z</time></trkpt><trkpt lat="42.3115204" lon="13.2565215"><ele>1193.0</ele><time>2026-05-02T16:26:58.602Z</time></trkpt><trkpt lat="42.3114182" lon="13.2564949"><ele>1193.0</ele><time>2026-05-02T16:26:59.602Z</time></trkpt><trkpt lat="42.3113149" lon="13.2565099"><ele>1197.25</ele><time>2026-05-02T16:27:00.602Z</time></trkpt><trkpt lat="42.3112191" lon="13.2565711"><ele>1201.5</ele><time>2026-05-02T16:27:01.603Z</time></trkpt><trkpt lat="42.3111298" lon="13.2566768"><ele>1205.75</ele><time>2026-05-02T16:27:02.602Z</time></trkpt><trkpt lat="42.3110507" lon="13.2568188"><ele>1210.0</ele><time>2026-05-02T16:27:03.603Z</time></trkpt><trkpt lat="42.3109789" lon="13.2569836"><ele>1210.0</ele><time>2026-05-02T16:27:04.603Z</time></trkpt><trkpt lat="42.3109198" lon="13.2571545"><ele>1210.0</ele><time>2026-05-02T16:27:05.603Z</time></trkpt><trkpt lat="42.3108641" lon="13.2573181"><ele>1210.0</ele><time>2026-05-02T16:27:06.603Z</time></trkpt><trkpt lat="42.3108058" lon="13.2574711"><ele>1210.0</ele><time>2026-05-02T16:27:07.603Z</time></trkpt><trkpt lat="42.3107389" lon="13.2576114"><ele>1209.25</ele><time>2026-05-02T16:27:08.603Z</time></trkpt><trkpt lat="42.3106591" lon="13.2577329"><ele>1208.5</ele><time>2026-05-02T16:27:09.602Z</time></trkpt><trkpt lat="42.3105713" lon="13.2578362"><ele>1207.75</ele><time>2026-05-02T16:27:10.602Z</time></trkpt><trkpt lat="42.3104662" lon="13.2579179"><ele>1207.0</ele><time>2026-05-02T16:27:11.602Z</time></trkpt><trkpt lat="42.3103495" lon="13.2579535"><ele>1207.0</ele><time>2026-05-02T16:27:12.601Z</time></trkpt><trkpt lat="42.3102326" lon="13.2579524"><ele>1207.0</ele><time>2026-05-02T16:27:13.602Z</time></trkpt><trkpt lat="42.310119" lon="13.2579624"><ele>1207.0</ele><time>2026-05-02T16:27:14.602Z</time></trkpt><trkpt lat="42.3100098" lon="13.2579975"><ele>1207.0</ele><time>2026-05-02T16:27:15.602Z</time></trkpt><trkpt lat="42.3099054" lon="13.2580706"><ele>1204.5</ele><time>2026-05-02T16:27:16.6Z</time></trkpt><trkpt lat="42.3098165" lon="13.258189"><ele>1202.0</ele><time>2026-05-02T16:27:17.601Z</time></trkpt><trkpt lat="42.3097455" lon="13.2583374"><ele>1199.5</ele><time>2026-05-02T16:27:18.602Z</time></trkpt><trkpt lat="42.3096752" lon="13.2584924"><ele>1197.0</ele><time>2026-05-02T16:27:19.603Z</time></trkpt><trkpt lat="42.3095944" lon="13.2586366"><ele>1197.0</ele><time>2026-05-02T16:27:20.601Z</time></trkpt><trkpt lat="42.3095042" lon="13.2587672"><ele>1197.0</ele><time>2026-05-02T16:27:21.6Z</time></trkpt><trkpt lat="42.3094053" lon="13.2588847"><ele>1197.0</ele><time>2026-05-02T16:27:22.601Z</time></trkpt><trkpt lat="42.3092967" lon="13.2589776"><ele>1197.0</ele><time>2026-05-02T16:27:23.603Z</time></trkpt><trkpt lat="42.3091723" lon="13.2590439"><ele>1190.6666666666667</ele><time>2026-05-02T16:27:24.601Z</time></trkpt><trkpt lat="42.3090354" lon="13.2590877"><ele>1184.3333333333335</ele><time>2026-05-02T16:27:25.603Z</time></trkpt><trkpt lat="42.3088907" lon="13.2591468"><ele>1178.0</ele><time>2026-05-02T16:27:26.602Z</time></trkpt><trkpt lat="42.3087377" lon="13.2592377"><ele>1178.0</ele><time>2026-05-02T16:27:27.601Z</time></trkpt><trkpt lat="42.3085895" lon="13.2593356"><ele>1178.0</ele><time>2026-05-02T16:27:28.601Z</time></trkpt><trkpt lat="42.3084504" lon="13.2594367"><ele>1178.0</ele><time>2026-05-02T16:27:29.602Z</time></trkpt><trkpt lat="42.3083163" lon="13.2595377"><ele>1178.0</ele><time>2026-05-02T16:27:30.602Z</time></trkpt><trkpt lat="42.3081875" lon="13.2596353"><ele>1178.0</ele><time>2026-05-02T16:27:31.602Z</time></trkpt><trkpt lat="42.3080612" lon="13.2597295"><ele>1178.0</ele><time>2026-05-02T16:27:32.602Z</time></trkpt><trkpt lat="42.3079382" lon="13.2598229"><ele>1178.0</ele><time>2026-05-02T16:27:33.6Z</time></trkpt><trkpt lat="42.3078131" lon="13.2598968"><ele>1172.5</ele><time>2026-05-02T16:27:34.6Z</time></trkpt><trkpt lat="42.3076837" lon="13.2599467"><ele>1167.0</ele><time>2026-05-02T16:27:35.602Z</time></trkpt><trkpt lat="42.3075538" lon="13.2599644"><ele>1161.5</ele><time>2026-05-02T16:27:36.602Z</time></trkpt><trkpt lat="42.307441" lon="13.259945"><ele>1156.0</ele><time>2026-05-02T16:27:37.602Z</time></trkpt><trkpt lat="42.3073436" lon="13.2598916"><ele>1156.0</ele><time>2026-05-02T16:27:38.603Z</time></trkpt><trkpt lat="42.3072546" lon="13.2597998"><ele>1156.0</ele><time>2026-05-02T16:27:39.601Z</time></trkpt><trkpt lat="42.3071694" lon="13.2596714"><ele>1156.0</ele><time>2026-05-02T16:27:40.603Z</time></trkpt><trkpt lat="42.3070759" lon="13.2595264"><ele>1156.0</ele><time>2026-05-02T16:27:41.603Z</time></trkpt><trkpt lat="42.3069814" lon="13.2593764"><ele>1155.75</ele><time>2026-05-02T16:27:42.602Z</time></trkpt><trkpt lat="42.306903" lon="13.2592189"><ele>1155.5</ele><time>2026-05-02T16:27:43.602Z</time></trkpt><trkpt lat="42.3068439" lon="13.2590514"><ele>1155.25</ele><time>2026-05-02T16:27:44.602Z</time></trkpt><trkpt lat="42.306792" lon="13.2588833"><ele>1155.0</ele><time>2026-05-02T16:27:45.602Z</time></trkpt><trkpt lat="42.3067376" lon="13.2587077"><ele>1155.0</ele><time>2026-05-02T16:27:46.603Z</time></trkpt><trkpt lat="42.3066797" lon="13.2585313"><ele>1155.0</ele><time>2026-05-02T16:27:47.602Z</time></trkpt><trkpt lat="42.3066113" lon="13.258365"><ele>1155.0</ele><time>2026-05-02T16:27:48.603Z</time></trkpt><trkpt lat="42.3065337" lon="13.2582133"><ele>1155.0</ele><time>2026-05-02T16:27:49.603Z</time></trkpt><trkpt lat="42.3064469" lon="13.258076"><ele>1157.0</ele><time>2026-05-02T16:27:50.602Z</time></trkpt><trkpt lat="42.3063479" lon="13.2579546"><ele>1159.0</ele><time>2026-05-02T16:27:51.603Z</time></trkpt><trkpt lat="42.3062332" lon="13.2578647"><ele>1161.0</ele><time>2026-05-02T16:27:52.602Z</time></trkpt><trkpt lat="42.3061015" lon="13.2578103"><ele>1163.0</ele><time>2026-05-02T16:27:53.602Z</time></trkpt><trkpt lat="42.3059543" lon="13.2577901"><ele>1163.0</ele><time>2026-05-02T16:27:54.602Z</time></trkpt><trkpt lat="42.3058026" lon="13.2578025"><ele>1163.0</ele><time>2026-05-02T16:27:55.602Z</time></trkpt><trkpt lat="42.3056604" lon="13.2578346"><ele>1163.0</ele><time>2026-05-02T16:27:56.602Z</time></trkpt><trkpt lat="42.3055217" lon="13.2578708"><ele>1163.0</ele><time>2026-05-02T16:27:57.602Z</time></trkpt><trkpt lat="42.3053842" lon="13.2579039"><ele>1161.75</ele><time>2026-05-02T16:27:58.602Z</time></trkpt><trkpt lat="42.305238" lon="13.2579151"><ele>1160.5</ele><time>2026-05-02T16:27:59.602Z</time></trkpt><trkpt lat="42.3050903" lon="13.2578969"><ele>1159.25</ele><time>2026-05-02T16:28:00.602Z</time></trkpt><trkpt lat="42.3049505" lon="13.2578719"><ele>1158.0</ele><time>2026-05-02T16:28:01.602Z</time></trkpt><trkpt lat="42.3048023" lon="13.2578521"><ele>1160.0</ele><time>2026-05-02T16:28:02.602Z</time></trkpt><trkpt lat="42.3046485" lon="13.2578674"><ele>1162.0</ele><time>2026-05-02T16:28:03.601Z</time></trkpt><trkpt lat="42.3044927" lon="13.2579141"><ele>1164.0</ele><time>2026-05-02T16:28:04.602Z</time></trkpt><trkpt lat="42.3043345" lon="13.2579692"><ele>1164.0</ele><time>2026-05-02T16:28:05.602Z</time></trkpt><trkpt lat="42.3041803" lon="13.2580263"><ele>1164.0</ele><time>2026-05-02T16:28:06.601Z</time></trkpt><trkpt lat="42.3040327" lon="13.2580827"><ele>1164.0</ele><time>2026-05-02T16:28:07.602Z</time></trkpt><trkpt lat="42.3038903" lon="13.2581362"><ele>1155.25</ele><time>2026-05-02T16:28:08.602Z</time></trkpt><trkpt lat="42.3037529" lon="13.2581907"><ele>1146.5</ele><time>2026-05-02T16:28:09.602Z</time></trkpt><trkpt lat="42.303618" lon="13.2582422"><ele>1137.75</ele><time>2026-05-02T16:28:10.602Z</time></trkpt><trkpt lat="42.303485" lon="13.2582909"><ele>1129.0</ele><time>2026-05-02T16:28:11.602Z</time></trkpt><trkpt lat="42.3033573" lon="13.2583197"><ele>1129.0</ele><time>2026-05-02T16:28:12.602Z</time></trkpt><trkpt lat="42.3032506" lon="13.2583212"><ele>1129.0</ele><time>2026-05-02T16:28:13.602Z</time></trkpt><trkpt lat="42.3031578" lon="13.2582921"><ele>1129.0</ele><time>2026-05-02T16:28:14.603Z</time></trkpt><trkpt lat="42.3030697" lon="13.2582246"><ele>1129.0</ele><time>2026-05-02T16:28:15.602Z</time></trkpt><trkpt lat="42.3029858" lon="13.2581259"><ele>1129.0</ele><time>2026-05-02T16:28:16.601Z</time></trkpt><trkpt lat="42.3028949" lon="13.2580137"><ele>1130.0</ele><time>2026-05-02T16:28:17.602Z</time></trkpt><trkpt lat="42.302793" lon="13.2578957"><ele>1131.0</ele><time>2026-05-02T16:28:18.602Z</time></trkpt><trkpt lat="42.3026875" lon="13.2577694"><ele>1132.0</ele><time>2026-05-02T16:28:19.601Z</time></trkpt><trkpt lat="42.3025843" lon="13.2576418"><ele>1133.0</ele><time>2026-05-02T16:28:20.601Z</time></trkpt><trkpt lat="42.3024822" lon="13.2575175"><ele>1133.0</ele><time>2026-05-02T16:28:21.602Z</time></trkpt><trkpt lat="42.3023771" lon="13.2574021"><ele>1133.0</ele><time>2026-05-02T16:28:22.603Z</time></trkpt><trkpt lat="42.3022695" lon="13.2572953"><ele>1133.0</ele><time>2026-05-02T16:28:23.602Z</time></trkpt><trkpt lat="42.3021593" lon="13.2571988"><ele>1133.0</ele><time>2026-05-02T16:28:24.603Z</time></trkpt><trkpt lat="42.3020455" lon="13.2571152"><ele>1132.25</ele><time>2026-05-02T16:28:25.603Z</time></trkpt><trkpt lat="42.3019324" lon="13.2570376"><ele>1131.5</ele><time>2026-05-02T16:28:26.602Z</time></trkpt><trkpt lat="42.3018225" lon="13.256959"><ele>1130.75</ele><time>2026-05-02T16:28:27.602Z</time></trkpt><trkpt lat="42.3017143" lon="13.2568795"><ele>1130.0</ele><time>2026-05-02T16:28:28.601Z</time></trkpt><trkpt lat="42.3016099" lon="13.2568209"><ele>1130.0</ele><time>2026-05-02T16:28:29.603Z</time></trkpt><trkpt lat="42.3015198" lon="13.2568015"><ele>1130.0</ele><time>2026-05-02T16:28:30.603Z</time></trkpt><trkpt lat="42.3014304" lon="13.2568179"><ele>1130.0</ele><time>2026-05-02T16:28:31.603Z</time></trkpt><trkpt lat="42.3013557" lon="13.2568733"><ele>1130.0</ele><time>2026-05-02T16:28:32.603Z</time></trkpt><trkpt lat="42.3012973" lon="13.2569514"><ele>1130.0</ele><time>2026-05-02T16:28:33.603Z</time></trkpt><trkpt lat="42.3012516" lon="13.2570581"><ele>1130.0</ele><time>2026-05-02T16:28:34.603Z</time></trkpt><trkpt lat="42.301211" lon="13.2571947"><ele>1135.25</ele><time>2026-05-02T16:28:35.603Z</time></trkpt><trkpt lat="42.3011736" lon="13.2573531"><ele>1140.5</ele><time>2026-05-02T16:28:36.603Z</time></trkpt><trkpt lat="42.3011452" lon="13.2575317"><ele>1145.75</ele><time>2026-05-02T16:28:37.603Z</time></trkpt><trkpt lat="42.3011154" lon="13.2577206"><ele>1151.0</ele><time>2026-05-02T16:28:38.602Z</time></trkpt><trkpt lat="42.3010835" lon="13.257911"><ele>1151.0</ele><time>2026-05-02T16:28:39.603Z</time></trkpt><trkpt lat="42.3010585" lon="13.2581003"><ele>1151.0</ele><time>2026-05-02T16:28:40.602Z</time></trkpt><trkpt lat="42.3010316" lon="13.2582786"><ele>1151.0</ele><time>2026-05-02T16:28:41.601Z</time></trkpt><trkpt lat="42.3010077" lon="13.2584502"><ele>1151.0</ele><time>2026-05-02T16:28:42.602Z</time></trkpt><trkpt lat="42.3009874" lon="13.2586115"><ele>1148.0</ele><time>2026-05-02T16:28:43.599Z</time></trkpt><trkpt lat="42.3009717" lon="13.258776"><ele>1145.0</ele><time>2026-05-02T16:28:44.603Z</time></trkpt><trkpt lat="42.3009694" lon="13.2589577"><ele>1142.0</ele><time>2026-05-02T16:28:45.602Z</time></trkpt><trkpt lat="42.3009739" lon="13.2591443"><ele>1139.0</ele><time>2026-05-02T16:28:46.603Z</time></trkpt><trkpt lat="42.3009794" lon="13.2593413"><ele>1138.0</ele><time>2026-05-02T16:28:47.603Z</time></trkpt><trkpt lat="42.3009869" lon="13.2595424"><ele>1137.0</ele><time>2026-05-02T16:28:48.602Z</time></trkpt><trkpt lat="42.3010029" lon="13.2597387"><ele>1136.0</ele><time>2026-05-02T16:28:49.602Z</time></trkpt><trkpt lat="42.3010312" lon="13.2599336"><ele>1135.0</ele><time>2026-05-02T16:28:50.603Z</time></trkpt><trkpt lat="42.3010655" lon="13.260123"><ele>1134.25</ele><time>2026-05-02T16:28:51.602Z</time></trkpt><trkpt lat="42.3011017" lon="13.2603104"><ele>1133.5</ele><time>2026-05-02T16:28:52.602Z</time></trkpt><trkpt lat="42.3011354" lon="13.260495"><ele>1132.75</ele><time>2026-05-02T16:28:53.602Z</time></trkpt><trkpt lat="42.3011608" lon="13.2606726"><ele>1132.0</ele><time>2026-05-02T16:28:54.602Z</time></trkpt><trkpt lat="42.3011666" lon="13.2608187"><ele>1129.4</ele><time>2026-05-02T16:28:55.601Z</time></trkpt><trkpt lat="42.3011577" lon="13.2609277"><ele>1126.8000000000002</ele><time>2026-05-02T16:28:56.602Z</time></trkpt><trkpt lat="42.3011185" lon="13.2610196"><ele>1124.2</ele><time>2026-05-02T16:28:57.602Z</time></trkpt><trkpt lat="42.3010558" lon="13.2611045"><ele>1121.6000000000001</ele><time>2026-05-02T16:28:58.603Z</time></trkpt><trkpt lat="42.300974" lon="13.2611915"><ele>1119.0</ele><time>2026-05-02T16:28:59.603Z</time></trkpt><trkpt lat="42.3008846" lon="13.2612826"><ele>1119.0</ele><time>2026-05-02T16:29:00.602Z</time></trkpt><trkpt lat="42.3007804" lon="13.2613559"><ele>1119.0</ele><time>2026-05-02T16:29:01.602Z</time></trkpt><trkpt lat="42.3006699" lon="13.2614056"><ele>1119.0</ele><time>2026-05-02T16:29:02.603Z</time></trkpt><trkpt lat="42.3005603" lon="13.2614465"><ele>1119.0</ele><time>2026-05-02T16:29:03.602Z</time></trkpt><trkpt lat="42.3004633" lon="13.2615178"><ele>1117.25</ele><time>2026-05-02T16:29:04.602Z</time></trkpt><trkpt lat="42.3003777" lon="13.2616132"><ele>1115.5</ele><time>2026-05-02T16:29:05.6Z</time></trkpt><trkpt lat="42.300302" lon="13.2617448"><ele>1113.75</ele><time>2026-05-02T16:29:06.6Z</time></trkpt><trkpt lat="42.3002423" lon="13.261892"><ele>1112.0</ele><time>2026-05-02T16:29:07.601Z</time></trkpt><trkpt lat="42.3001915" lon="13.2620354"><ele>1112.0</ele><time>2026-05-02T16:29:08.602Z</time></trkpt><trkpt lat="42.3001372" lon="13.2621401"><ele>1112.0</ele><time>2026-05-02T16:29:09.602Z</time></trkpt><trkpt lat="42.3000563" lon="13.262225"><ele>1112.0</ele><time>2026-05-02T16:29:10.603Z</time></trkpt><trkpt lat="42.2999543" lon="13.2622868"><ele>1112.0</ele><time>2026-05-02T16:29:11.603Z</time></trkpt><trkpt lat="42.2998439" lon="13.2623521"><ele>1112.0</ele><time>2026-05-02T16:29:12.602Z</time></trkpt><trkpt lat="42.299744" lon="13.2624396"><ele>1106.0</ele><time>2026-05-02T16:29:13.6Z</time></trkpt><trkpt lat="42.2996505" lon="13.2625315"><ele>1100.0</ele><time>2026-05-02T16:29:14.602Z</time></trkpt><trkpt lat="42.2995631" lon="13.2626063"><ele>1094.0</ele><time>2026-05-02T16:29:15.6Z</time></trkpt><trkpt lat="42.2994888" lon="13.2626431"><ele>1088.0</ele><time>2026-05-02T16:29:16.602Z</time></trkpt><trkpt lat="42.2994056" lon="13.2626411"><ele>1082.0</ele><time>2026-05-02T16:29:17.601Z</time></trkpt><trkpt lat="42.2993297" lon="13.2625905"><ele>1082.0</ele><time>2026-05-02T16:29:18.6Z</time></trkpt><trkpt lat="42.2992593" lon="13.2625008"><ele>1082.0</ele><time>2026-05-02T16:29:19.602Z</time></trkpt><trkpt lat="42.2991989" lon="13.2623731"><ele>1082.0</ele><time>2026-05-02T16:29:20.602Z</time></trkpt><trkpt lat="42.2991529" lon="13.2622169"><ele>1082.0</ele><time>2026-05-02T16:29:21.602Z</time></trkpt><trkpt lat="42.2991133" lon="13.262057"><ele>1085.0</ele><time>2026-05-02T16:29:22.602Z</time></trkpt><trkpt lat="42.299076" lon="13.2619045"><ele>1088.0</ele><time>2026-05-02T16:29:23.602Z</time></trkpt><trkpt lat="42.2990367" lon="13.2617565"><ele>1091.0</ele><time>2026-05-02T16:29:24.602Z</time></trkpt><trkpt lat="42.2989921" lon="13.2616299"><ele>1094.0</ele><time>2026-05-02T16:29:25.603Z</time></trkpt><trkpt lat="42.2989408" lon="13.2615415"><ele>1097.0</ele><time>2026-05-02T16:29:26.602Z</time></trkpt><trkpt lat="42.2988792" lon="13.2614954"><ele>1097.0</ele><time>2026-05-02T16:29:27.602Z</time></trkpt><trkpt lat="42.298813" lon="13.2614879"><ele>1097.0</ele><time>2026-05-02T16:29:28.602Z</time></trkpt><trkpt lat="42.2987466" lon="13.2615213"><ele>1097.0</ele><time>2026-05-02T16:29:29.602Z</time></trkpt><trkpt lat="42.2986771" lon="13.261597"><ele>1097.0</ele><time>2026-05-02T16:29:30.602Z</time></trkpt><trkpt lat="42.2986032" lon="13.261688"><ele>1097.0</ele><time>2026-05-02T16:29:31.602Z</time></trkpt><trkpt lat="42.2985225" lon="13.2617775"><ele>1097.0</ele><time>2026-05-02T16:29:32.602Z</time></trkpt><trkpt lat="42.2984388" lon="13.2618532"><ele>1097.0</ele><time>2026-05-02T16:29:33.6Z</time></trkpt><trkpt lat="42.2983457" lon="13.2619151"><ele>1097.0</ele><time>2026-05-02T16:29:34.601Z</time></trkpt><trkpt lat="42.298242" lon="13.2619501"><ele>1097.0</ele><time>2026-05-02T16:29:35.6Z</time></trkpt><trkpt lat="42.2981383" lon="13.2619762"><ele>1097.0</ele><time>2026-05-02T16:29:36.603Z</time></trkpt><trkpt lat="42.2980433" lon="13.2620327"><ele>1097.0</ele><time>2026-05-02T16:29:37.602Z</time></trkpt><trkpt lat="42.2979602" lon="13.2621137"><ele>1096.6</ele><time>2026-05-02T16:29:38.602Z</time></trkpt><trkpt lat="42.2979044" lon="13.2622159"><ele>1096.2</ele><time>2026-05-02T16:29:39.603Z</time></trkpt><trkpt lat="42.2978809" lon="13.2623362"><ele>1095.8</ele><time>2026-05-02T16:29:40.599Z</time></trkpt><trkpt lat="42.2978824" lon="13.2624692"><ele>1095.4</ele><time>2026-05-02T16:29:41.602Z</time></trkpt><trkpt lat="42.2978833" lon="13.2626009"><ele>1095.0</ele><time>2026-05-02T16:29:42.601Z</time></trkpt><trkpt lat="42.2978642" lon="13.2627421"><ele>1095.0</ele><time>2026-05-02T16:29:43.601Z</time></trkpt><trkpt lat="42.2978328" lon="13.2628786"><ele>1095.0</ele><time>2026-05-02T16:29:44.602Z</time></trkpt><trkpt lat="42.2977902" lon="13.263005"><ele>1095.0</ele><time>2026-05-02T16:29:45.601Z</time></trkpt><trkpt lat="42.2977299" lon="13.26311"><ele>1095.0</ele><time>2026-05-02T16:29:46.602Z</time></trkpt><trkpt lat="42.2976535" lon="13.2631778"><ele>1095.0</ele><time>2026-05-02T16:29:47.602Z</time></trkpt><trkpt lat="42.2975592" lon="13.2632184"><ele>1093.4</ele><time>2026-05-02T16:29:48.603Z</time></trkpt><trkpt lat="42.2974523" lon="13.2632315"><ele>1091.8</ele><time>2026-05-02T16:29:49.602Z</time></trkpt><trkpt lat="42.2973418" lon="13.2632132"><ele>1090.2</ele><time>2026-05-02T16:29:50.602Z</time></trkpt><trkpt lat="42.2972343" lon="13.2631793"><ele>1088.6</ele><time>2026-05-02T16:29:51.602Z</time></trkpt><trkpt lat="42.2971278" lon="13.2631603"><ele>1087.0</ele><time>2026-05-02T16:29:52.602Z</time></trkpt><trkpt lat="42.2970243" lon="13.263181"><ele>1087.0</ele><time>2026-05-02T16:29:53.601Z</time></trkpt><trkpt lat="42.2969353" lon="13.2632419"><ele>1087.0</ele><time>2026-05-02T16:29:54.6Z</time></trkpt><trkpt lat="42.2968611" lon="13.2633315"><ele>1087.0</ele><time>2026-05-02T16:29:55.6Z</time></trkpt><trkpt lat="42.2968051" lon="13.2634413"><ele>1087.0</ele><time>2026-05-02T16:29:56.603Z</time></trkpt><trkpt lat="42.296768" lon="13.2635608"><ele>1087.0</ele><time>2026-05-02T16:29:57.603Z</time></trkpt><trkpt lat="42.2967565" lon="13.263698"><ele>1087.0</ele><time>2026-05-02T16:29:58.602Z</time></trkpt><trkpt lat="42.2967675" lon="13.2638344"><ele>1087.0</ele><time>2026-05-02T16:29:59.603Z</time></trkpt><trkpt lat="42.2967782" lon="13.263969"><ele>1087.0</ele><time>2026-05-02T16:30:00.603Z</time></trkpt><trkpt lat="42.2967657" lon="13.2641008"><ele>1087.0</ele><time>2026-05-02T16:30:01.6Z</time></trkpt><trkpt lat="42.2967196" lon="13.2642213"><ele>1087.0</ele><time>2026-05-02T16:30:02.602Z</time></trkpt><trkpt lat="42.2966491" lon="13.2643231"><ele>1083.8</ele><time>2026-05-02T16:30:03.602Z</time></trkpt><trkpt lat="42.2965769" lon="13.2644231"><ele>1080.6</ele><time>2026-05-02T16:30:04.602Z</time></trkpt><trkpt lat="42.2965222" lon="13.2645416"><ele>1077.3999999999999</ele><time>2026-05-02T16:30:05.603Z</time></trkpt><trkpt lat="42.2964959" lon="13.264678"><ele>1074.2</ele><time>2026-05-02T16:30:06.603Z</time></trkpt><trkpt lat="42.2964924" lon="13.2648196"><ele>1071.0</ele><time>2026-05-02T16:30:07.602Z</time></trkpt><trkpt lat="42.2964925" lon="13.2649565"><ele>1072.0</ele><time>2026-05-02T16:30:08.602Z</time></trkpt><trkpt lat="42.2964778" lon="13.2650915"><ele>1073.0</ele><time>2026-05-02T16:30:09.602Z</time></trkpt><trkpt lat="42.2964449" lon="13.2652252"><ele>1074.0</ele><time>2026-05-02T16:30:10.602Z</time></trkpt><trkpt lat="42.2963936" lon="13.2653632"><ele>1075.0</ele><time>2026-05-02T16:30:11.602Z</time></trkpt><trkpt lat="42.2963404" lon="13.2655089"><ele>1076.0</ele><time>2026-05-02T16:30:12.601Z</time></trkpt><trkpt lat="42.2962896" lon="13.2656543"><ele>1076.0</ele><time>2026-05-02T16:30:13.601Z</time></trkpt><trkpt lat="42.2962403" lon="13.2657978"><ele>1076.0</ele><time>2026-05-02T16:30:14.602Z</time></trkpt><trkpt lat="42.2961951" lon="13.2659383"><ele>1076.0</ele><time>2026-05-02T16:30:15.602Z</time></trkpt><trkpt lat="42.2961531" lon="13.2660786"><ele>1076.0</ele><time>2026-05-02T16:30:16.602Z</time></trkpt><trkpt lat="42.296109" lon="13.2662067"><ele>1076.0</ele><time>2026-05-02T16:30:17.603Z</time></trkpt><trkpt lat="42.2960654" lon="13.2663054"><ele>1076.0</ele><time>2026-05-02T16:30:18.602Z</time></trkpt><trkpt lat="42.2960144" lon="13.2664"><ele>1076.0</ele><time>2026-05-02T16:30:20.602Z</time></trkpt><trkpt lat="42.2960756" lon="13.2663742"><ele>1076.0</ele><time>2026-05-02T16:30:25.602Z</time></trkpt><trkpt lat="42.2961042" lon="13.2662955"><ele>1076.0</ele><time>2026-05-02T16:30:26.602Z</time></trkpt><trkpt lat="42.2961457" lon="13.2661622"><ele>1076.0</ele><time>2026-05-02T16:30:27.602Z</time></trkpt><trkpt lat="42.296177" lon="13.2660453"><ele>1076.0</ele><time>2026-05-02T16:30:28.603Z</time></trkpt><trkpt lat="42.2962171" lon="13.2659125"><ele>1076.0</ele><time>2026-05-02T16:30:29.602Z</time></trkpt><trkpt lat="42.2962699" lon="13.2657636"><ele>1076.0</ele><time>2026-05-02T16:30:30.601Z</time></trkpt><trkpt lat="42.2963157" lon="13.2656374"><ele>1076.0</ele><time>2026-05-02T16:30:31.602Z</time></trkpt><trkpt lat="42.2963552" lon="13.2655262"><ele>1076.0</ele><time>2026-05-02T16:30:32.602Z</time></trkpt><trkpt lat="42.2963922" lon="13.2654356"><ele>1076.0</ele><time>2026-05-02T16:30:33.603Z</time></trkpt><trkpt lat="42.2964512" lon="13.2653784"><ele>1076.0</ele><time>2026-05-02T16:30:38.602Z</time></trkpt><trkpt lat="42.2964643" lon="13.2655069"><ele>1076.0</ele><time>2026-05-02T16:30:41.602Z</time></trkpt><trkpt lat="42.2964312" lon="13.265599"><ele>1076.0</ele><time>2026-05-02T16:30:42.602Z</time></trkpt><trkpt lat="42.2963944" lon="13.2657139"><ele>1076.0</ele><time>2026-05-02T16:30:43.602Z</time></trkpt><trkpt lat="42.2963584" lon="13.2658283"><ele>1076.0</ele><time>2026-05-02T16:30:44.602Z</time></trkpt><trkpt lat="42.2963289" lon="13.2659403"><ele>1076.0</ele><time>2026-05-02T16:30:45.602Z</time></trkpt><trkpt lat="42.2963151" lon="13.2660269"><ele>1076.0</ele><time>2026-05-02T16:30:46.601Z</time></trkpt><trkpt lat="42.2963696" lon="13.2661196"><ele>1076.0</ele><time>2026-05-02T16:30:48.6Z</time></trkpt><trkpt lat="42.2965102" lon="13.266064"><ele>1076.0</ele><time>2026-05-02T16:30:50.602Z</time></trkpt><trkpt lat="42.2966045" lon="13.2660095"><ele>1076.0</ele><time>2026-05-02T16:30:51.602Z</time></trkpt><trkpt lat="42.2967033" lon="13.2659699"><ele>1076.0</ele><time>2026-05-02T16:30:52.602Z</time></trkpt><trkpt lat="42.2968081" lon="13.2659471"><ele>1070.0</ele><time>2026-05-02T16:30:53.602Z</time></trkpt><trkpt lat="42.2969107" lon="13.2659395"><ele>1064.0</ele><time>2026-05-02T16:30:54.602Z</time></trkpt><trkpt lat="42.2970013" lon="13.265952"><ele>1058.0</ele><time>2026-05-02T16:30:55.603Z</time></trkpt><trkpt lat="42.2970854" lon="13.2660018"><ele>1052.0</ele><time>2026-05-02T16:30:56.602Z</time></trkpt><trkpt lat="42.2971559" lon="13.2660837"><ele>1046.0</ele><time>2026-05-02T16:30:57.601Z</time></trkpt><trkpt lat="42.2971962" lon="13.2661752"><ele>1046.0</ele><time>2026-05-02T16:30:58.602Z</time></trkpt><trkpt lat="42.2971642" lon="13.2663203"><ele>1046.0</ele><time>2026-05-02T16:31:00.602Z</time></trkpt><trkpt lat="42.2970954" lon="13.2663569"><ele>1046.0</ele><time>2026-05-02T16:31:01.601Z</time></trkpt><trkpt lat="42.297006" lon="13.266382"><ele>1046.0</ele><time>2026-05-02T16:31:02.601Z</time></trkpt><trkpt lat="42.2969282" lon="13.2664321"><ele>1046.0</ele><time>2026-05-02T16:31:03.602Z</time></trkpt><trkpt lat="42.2968616" lon="13.2665127"><ele>1043.0</ele><time>2026-05-02T16:31:04.602Z</time></trkpt><trkpt lat="42.2968005" lon="13.2666193"><ele>1040.0</ele><time>2026-05-02T16:31:05.602Z</time></trkpt><trkpt lat="42.2967447" lon="13.2667349"><ele>1037.0</ele><time>2026-05-02T16:31:06.603Z</time></trkpt><trkpt lat="42.2966891" lon="13.2668621"><ele>1034.0</ele><time>2026-05-02T16:31:07.602Z</time></trkpt><trkpt lat="42.2966337" lon="13.2669988"><ele>1031.0</ele><time>2026-05-02T16:31:08.602Z</time></trkpt><trkpt lat="42.2965739" lon="13.2671419"><ele>1033.75</ele><time>2026-05-02T16:31:09.602Z</time></trkpt><trkpt lat="42.2965128" lon="13.2672911"><ele>1036.5</ele><time>2026-05-02T16:31:10.602Z</time></trkpt><trkpt lat="42.2964567" lon="13.2674486"><ele>1039.25</ele><time>2026-05-02T16:31:11.602Z</time></trkpt><trkpt lat="42.2964147" lon="13.2676046"><ele>1042.0</ele><time>2026-05-02T16:31:12.602Z</time></trkpt><trkpt lat="42.296382" lon="13.2677522"><ele>1042.0</ele><time>2026-05-02T16:31:13.603Z</time></trkpt><trkpt lat="42.2963563" lon="13.2679183"><ele>1042.0</ele><time>2026-05-02T16:31:14.602Z</time></trkpt><trkpt lat="42.2963441" lon="13.2680916"><ele>1042.0</ele><time>2026-05-02T16:31:15.602Z</time></trkpt><trkpt lat="42.2963312" lon="13.2682688"><ele>1042.0</ele><time>2026-05-02T16:31:16.602Z</time></trkpt><trkpt lat="42.2963051" lon="13.2684493"><ele>1036.25</ele><time>2026-05-02T16:31:17.603Z</time></trkpt><trkpt lat="42.2962638" lon="13.2686274"><ele>1030.5</ele><time>2026-05-02T16:31:18.601Z</time></trkpt><trkpt lat="42.2962082" lon="13.2687971"><ele>1024.75</ele><time>2026-05-02T16:31:19.602Z</time></trkpt><trkpt lat="42.2961425" lon="13.2689596"><ele>1019.0</ele><time>2026-05-02T16:31:20.602Z</time></trkpt><trkpt lat="42.2960785" lon="13.2691192"><ele>1015.6</ele><time>2026-05-02T16:31:21.602Z</time></trkpt><trkpt lat="42.2960219" lon="13.2692473"><ele>1012.2</ele><time>2026-05-02T16:31:22.602Z</time></trkpt><trkpt lat="42.2959755" lon="13.2693346"><ele>1008.8000000000001</ele><time>2026-05-02T16:31:23.602Z</time></trkpt><trkpt lat="42.2959504" lon="13.2694177"><ele>1005.4000000000001</ele><time>2026-05-02T16:31:24.602Z</time></trkpt><trkpt lat="42.2960201" lon="13.2695315"><ele>1002.0</ele><time>2026-05-02T16:31:26.603Z</time></trkpt><trkpt lat="42.2961428" lon="13.2695071"><ele>1002.0</ele><time>2026-05-02T16:31:28.602Z</time></trkpt><trkpt lat="42.2962204" lon="13.2694497"><ele>1002.0</ele><time>2026-05-02T16:31:29.603Z</time></trkpt><trkpt lat="42.2963111" lon="13.2693823"><ele>1002.0</ele><time>2026-05-02T16:31:30.602Z</time></trkpt><trkpt lat="42.2964122" lon="13.2693099"><ele>1002.0</ele><time>2026-05-02T16:31:31.603Z</time></trkpt><trkpt lat="42.2965201" lon="13.2692468"><ele>1002.0</ele><time>2026-05-02T16:31:32.602Z</time></trkpt><trkpt lat="42.2966236" lon="13.2691969"><ele>998.3333333333334</ele><time>2026-05-02T16:31:33.602Z</time></trkpt><trkpt lat="42.2967071" lon="13.2691673"><ele>994.6666666666667</ele><time>2026-05-02T16:31:34.603Z</time></trkpt><trkpt lat="42.2967783" lon="13.269176"><ele>991.0</ele><time>2026-05-02T16:31:35.603Z</time></trkpt><trkpt lat="42.29683" lon="13.2692255"><ele>987.3333333333334</ele><time>2026-05-02T16:31:36.601Z</time></trkpt><trkpt lat="42.2968653" lon="13.269314"><ele>983.6666666666667</ele><time>2026-05-02T16:31:37.602Z</time></trkpt><trkpt lat="42.2968988" lon="13.269429"><ele>980.0</ele><time>2026-05-02T16:31:38.602Z</time></trkpt><trkpt lat="42.2969334" lon="13.2695652"><ele>980.0</ele><time>2026-05-02T16:31:39.603Z</time></trkpt><trkpt lat="42.2969554" lon="13.2697159"><ele>980.0</ele><time>2026-05-02T16:31:40.602Z</time></trkpt><trkpt lat="42.2969773" lon="13.2698735"><ele>980.0</ele><time>2026-05-02T16:31:41.602Z</time></trkpt><trkpt lat="42.2969979" lon="13.2700345"><ele>980.0</ele><time>2026-05-02T16:31:42.603Z</time></trkpt><trkpt lat="42.2970159" lon="13.2702016"><ele>979.0</ele><time>2026-05-02T16:31:43.602Z</time></trkpt><trkpt lat="42.2970395" lon="13.2703706"><ele>978.0</ele><time>2026-05-02T16:31:44.601Z</time></trkpt><trkpt lat="42.2970681" lon="13.2705355"><ele>977.0</ele><time>2026-05-02T16:31:45.602Z</time></trkpt><trkpt lat="42.2971007" lon="13.2706748"><ele>976.0</ele><time>2026-05-02T16:31:46.602Z</time></trkpt><trkpt lat="42.2971291" lon="13.2707876"><ele>975.0</ele><time>2026-05-02T16:31:47.602Z</time></trkpt><trkpt lat="42.2971548" lon="13.2708736"><ele>973.1666666666666</ele><time>2026-05-02T16:31:48.603Z</time></trkpt><trkpt lat="42.2971824" lon="13.2709667"><ele>971.3333333333333</ele><time>2026-05-02T16:31:49.603Z</time></trkpt><trkpt lat="42.2972118" lon="13.2710517"><ele>969.5</ele><time>2026-05-02T16:31:50.602Z</time></trkpt><trkpt lat="42.2972471" lon="13.2711468"><ele>967.6666666666666</ele><time>2026-05-02T16:31:51.603Z</time></trkpt><trkpt lat="42.2972926" lon="13.2712523"><ele>965.8333333333333</ele><time>2026-05-02T16:31:52.602Z</time></trkpt><trkpt lat="42.2973521" lon="13.2713665"><ele>964.0</ele><time>2026-05-02T16:31:53.603Z</time></trkpt><trkpt lat="42.2974295" lon="13.271479"><ele>960.8000000000001</ele><time>2026-05-02T16:31:54.602Z</time></trkpt><trkpt lat="42.2975187" lon="13.2715841"><ele>957.6000000000001</ele><time>2026-05-02T16:31:55.603Z</time></trkpt><trkpt lat="42.2976103" lon="13.2716874"><ele>954.4</ele><time>2026-05-02T16:31:56.602Z</time></trkpt><trkpt lat="42.2977004" lon="13.2717865"><ele>951.2</ele><time>2026-05-02T16:31:57.602Z</time></trkpt><trkpt lat="42.2977707" lon="13.271854"><ele>948.0</ele><time>2026-05-02T16:31:58.602Z</time></trkpt><trkpt lat="42.2978356" lon="13.2718954"><ele>948.0</ele><time>2026-05-02T16:31:59.602Z</time></trkpt><trkpt lat="42.2979005" lon="13.271892"><ele>948.0</ele><time>2026-05-02T16:32:00.602Z</time></trkpt><trkpt lat="42.2979587" lon="13.2718471"><ele>948.0</ele><time>2026-05-02T16:32:01.602Z</time></trkpt><trkpt lat="42.2980112" lon="13.2717667"><ele>948.0</ele><time>2026-05-02T16:32:02.602Z</time></trkpt><trkpt lat="42.2980606" lon="13.2716641"><ele>948.0</ele><time>2026-05-02T16:32:03.602Z</time></trkpt><trkpt lat="42.2981076" lon="13.271556"><ele>948.0</ele><time>2026-05-02T16:32:04.602Z</time></trkpt><trkpt lat="42.2981477" lon="13.2714509"><ele>945.0</ele><time>2026-05-02T16:32:05.603Z</time></trkpt><trkpt lat="42.2981793" lon="13.2713738"><ele>942.0</ele><time>2026-05-02T16:32:06.603Z</time></trkpt><trkpt lat="42.2982696" lon="13.2712983"><ele>939.0</ele><time>2026-05-02T16:32:08.602Z</time></trkpt><trkpt lat="42.298333" lon="13.2713181"><ele>936.0</ele><time>2026-05-02T16:32:09.6Z</time></trkpt><trkpt lat="42.2984038" lon="13.2713784"><ele>933.0</ele><time>2026-05-02T16:32:10.602Z</time></trkpt><trkpt lat="42.2984827" lon="13.2714723"><ele>930.0</ele><time>2026-05-02T16:32:11.601Z</time></trkpt><trkpt lat="42.2985659" lon="13.2715988"><ele>930.0</ele><time>2026-05-02T16:32:12.603Z</time></trkpt><trkpt lat="42.2986397" lon="13.2717451"><ele>930.0</ele><time>2026-05-02T16:32:13.602Z</time></trkpt><trkpt lat="42.2987079" lon="13.2718932"><ele>930.0</ele><time>2026-05-02T16:32:14.602Z</time></trkpt><trkpt lat="42.2987758" lon="13.2720241"><ele>930.0</ele><time>2026-05-02T16:32:15.602Z</time></trkpt><trkpt lat="42.2988325" lon="13.2721191"><ele>930.0</ele><time>2026-05-02T16:32:16.602Z</time></trkpt><trkpt lat="42.2989" lon="13.2721936"><ele>930.0</ele><time>2026-05-02T16:32:17.601Z</time></trkpt><trkpt lat="42.2989824" lon="13.2722498"><ele>930.0</ele><time>2026-05-02T16:32:18.602Z</time></trkpt><trkpt lat="42.2990752" lon="13.2722811"><ele>930.0</ele><time>2026-05-02T16:32:19.6Z</time></trkpt><trkpt lat="42.2991775" lon="13.2722952"><ele>930.0</ele><time>2026-05-02T16:32:20.602Z</time></trkpt><trkpt lat="42.2992885" lon="13.2723089"><ele>925.75</ele><time>2026-05-02T16:32:21.603Z</time></trkpt><trkpt lat="42.299405" lon="13.2723307"><ele>921.5</ele><time>2026-05-02T16:32:22.602Z</time></trkpt><trkpt lat="42.2995264" lon="13.2723632"><ele>917.25</ele><time>2026-05-02T16:32:23.602Z</time></trkpt><trkpt lat="42.2996483" lon="13.2724075"><ele>913.0</ele><time>2026-05-02T16:32:24.602Z</time></trkpt><trkpt lat="42.2997687" lon="13.2724577"><ele>909.25</ele><time>2026-05-02T16:32:25.603Z</time></trkpt><trkpt lat="42.2998906" lon="13.2725059"><ele>905.5</ele><time>2026-05-02T16:32:26.6Z</time></trkpt><trkpt lat="42.3000099" lon="13.272554"><ele>901.75</ele><time>2026-05-02T16:32:27.602Z</time></trkpt><trkpt lat="42.3001231" lon="13.2726143"><ele>898.0</ele><time>2026-05-02T16:32:28.602Z</time></trkpt><trkpt lat="42.3002084" lon="13.2726714"><ele>897.9999999999999</ele><time>2026-05-02T16:32:29.602Z</time></trkpt><trkpt lat="42.3002683" lon="13.2727261"><ele>898.0</ele><time>2026-05-02T16:32:30.602Z</time></trkpt><trkpt lat="42.3003002" lon="13.2728051"><ele>898.0</ele><time>2026-05-02T16:32:31.602Z</time></trkpt><trkpt lat="42.3002988" lon="13.2729031"><ele>898.0</ele><time>2026-05-02T16:32:32.601Z</time></trkpt><trkpt lat="42.3002684" lon="13.273012"><ele>897.9999999999999</ele><time>2026-05-02T16:32:33.602Z</time></trkpt><trkpt lat="42.3002554" lon="13.2731322"><ele>898.0</ele><time>2026-05-02T16:32:34.602Z</time></trkpt><trkpt lat="42.30028" lon="13.2732571"><ele>896.5</ele><time>2026-05-02T16:32:35.602Z</time></trkpt><trkpt lat="42.3003293" lon="13.2734118"><ele>895.0</ele><time>2026-05-02T16:32:36.602Z</time></trkpt><trkpt lat="42.3004085" lon="13.2735867"><ele>893.5</ele><time>2026-05-02T16:32:37.602Z</time></trkpt><trkpt lat="42.300479" lon="13.2737778"><ele>892.0</ele><time>2026-05-02T16:32:38.6Z</time></trkpt><trkpt lat="42.300552" lon="13.273974"><ele>889.0</ele><time>2026-05-02T16:32:39.601Z</time></trkpt><trkpt lat="42.3006275" lon="13.2741709"><ele>886.0</ele><time>2026-05-02T16:32:40.601Z</time></trkpt><trkpt lat="42.3007047" lon="13.2743688"><ele>883.0</ele><time>2026-05-02T16:32:41.603Z</time></trkpt><trkpt lat="42.3007773" lon="13.2745541"><ele>883.0</ele><time>2026-05-02T16:32:42.602Z</time></trkpt><trkpt lat="42.300845" lon="13.2747035"><ele>883.0</ele><time>2026-05-02T16:32:43.602Z</time></trkpt><trkpt lat="42.3009197" lon="13.2748444"><ele>883.0</ele><time>2026-05-02T16:32:44.602Z</time></trkpt><trkpt lat="42.300999" lon="13.2749814"><ele>883.0</ele><time>2026-05-02T16:32:45.602Z</time></trkpt><trkpt lat="42.3010798" lon="13.2751166"><ele>880.0</ele><time>2026-05-02T16:32:46.6Z</time></trkpt><trkpt lat="42.3011515" lon="13.2752476"><ele>877.0</ele><time>2026-05-02T16:32:47.6Z</time></trkpt><trkpt lat="42.3011964" lon="13.2753492"><ele>874.0</ele><time>2026-05-02T16:32:48.599Z</time></trkpt><trkpt lat="42.3012421" lon="13.2754483"><ele>871.0</ele><time>2026-05-02T16:32:49.601Z</time></trkpt><trkpt lat="42.301289" lon="13.2755373"><ele>868.0</ele><time>2026-05-02T16:32:50.603Z</time></trkpt><trkpt lat="42.3013442" lon="13.2756191"><ele>865.8</ele><time>2026-05-02T16:32:51.602Z</time></trkpt><trkpt lat="42.3013934" lon="13.2756963"><ele>863.5999999999999</ele><time>2026-05-02T16:32:52.602Z</time></trkpt><trkpt lat="42.3014505" lon="13.2758073"><ele>861.4000000000001</ele><time>2026-05-02T16:32:54.602Z</time></trkpt><trkpt lat="42.3015152" lon="13.2758114"><ele>859.2</ele><time>2026-05-02T16:32:56.603Z</time></trkpt><trkpt lat="42.3016025" lon="13.2756887"><ele>857.0</ele><time>2026-05-02T16:32:58.602Z</time></trkpt><trkpt lat="42.3016511" lon="13.2755863"><ele>857.0000000000001</ele><time>2026-05-02T16:32:59.602Z</time></trkpt><trkpt lat="42.3016997" lon="13.2754806"><ele>857.0</ele><time>2026-05-02T16:33:00.603Z</time></trkpt><trkpt lat="42.301745" lon="13.2753726"><ele>857.0</ele><time>2026-05-02T16:33:01.602Z</time></trkpt><trkpt lat="42.3017841" lon="13.2752888"><ele>857.0</ele><time>2026-05-02T16:33:02.602Z</time></trkpt><trkpt lat="42.301846" lon="13.2752213"><ele>857.0000000000001</ele><time>2026-05-02T16:33:04.601Z</time></trkpt><trkpt lat="42.3019166" lon="13.2753288"><ele>857.0</ele><time>2026-05-02T16:33:07.602Z</time></trkpt><trkpt lat="42.3019482" lon="13.2754217"><ele>857.0000000000001</ele><time>2026-05-02T16:33:08.602Z</time></trkpt><trkpt lat="42.3019911" lon="13.2755229"><ele>857.0</ele><time>2026-05-02T16:33:09.602Z</time></trkpt><trkpt lat="42.3020278" lon="13.275635"><ele>857.0</ele><time>2026-05-02T16:33:10.602Z</time></trkpt><trkpt lat="42.3020582" lon="13.2757387"><ele>857.0</ele><time>2026-05-02T16:33:11.602Z</time></trkpt><trkpt lat="42.3020872" lon="13.2758382"><ele>857.0000000000001</ele><time>2026-05-02T16:33:12.603Z</time></trkpt><trkpt lat="42.302114" lon="13.2759212"><ele>857.0</ele><time>2026-05-02T16:33:13.6Z</time></trkpt><trkpt lat="42.3021512" lon="13.2760139"><ele>856.0000000000001</ele><time>2026-05-02T16:33:15.603Z</time></trkpt><trkpt lat="42.3021741" lon="13.2761004"><ele>855.0</ele><time>2026-05-02T16:33:17.603Z</time></trkpt><trkpt lat="42.3022062" lon="13.2762179"><ele>854.0</ele><time>2026-05-02T16:33:20.602Z</time></trkpt><trkpt lat="42.3022117" lon="13.2763097"><ele>853.0</ele><time>2026-05-02T16:33:30.602Z</time></trkpt><trkpt lat="42.3022326" lon="13.2764103"><ele>852.0000000000001</ele><time>2026-05-02T16:33:32.603Z</time></trkpt><trkpt lat="42.3022254" lon="13.2765152"><ele>851.0</ele><time>2026-05-02T16:33:34.602Z</time></trkpt><trkpt lat="42.3022168" lon="13.2766114"><ele>850.1999999999999</ele><time>2026-05-02T16:33:41.602Z</time></trkpt><trkpt lat="42.3021967" lon="13.2767291"><ele>849.4</ele><time>2026-05-02T16:33:44.603Z</time></trkpt><trkpt lat="42.3021577" lon="13.2768452"><ele>848.6</ele><time>2026-05-02T16:33:46.603Z</time></trkpt><trkpt lat="42.3021189" lon="13.2769654"><ele>847.8</ele><time>2026-05-02T16:33:48.602Z</time></trkpt><trkpt lat="42.3020854" lon="13.2770983"><ele>847.0</ele><time>2026-05-02T16:33:50.601Z</time></trkpt><trkpt lat="42.30206" lon="13.2772412"><ele>845.3333333333333</ele><time>2026-05-02T16:33:52.602Z</time></trkpt><trkpt lat="42.3020624" lon="13.2773983"><ele>843.6666666666666</ele><time>2026-05-02T16:33:54.6Z</time></trkpt><trkpt lat="42.3020729" lon="13.2774841"><ele>842.0</ele><time>2026-05-02T16:33:55.602Z</time></trkpt><trkpt lat="42.3020922" lon="13.2775699"><ele>840.3333333333333</ele><time>2026-05-02T16:33:56.603Z</time></trkpt><trkpt lat="42.3021171" lon="13.2776544"><ele>838.6666666666666</ele><time>2026-05-02T16:33:57.602Z</time></trkpt><trkpt lat="42.3021542" lon="13.2777351"><ele>837.0</ele><time>2026-05-02T16:33:58.602Z</time></trkpt><trkpt lat="42.3022" lon="13.2778069"><ele>836.8333333333334</ele><time>2026-05-02T16:33:59.602Z</time></trkpt><trkpt lat="42.3022693" lon="13.2778824"><ele>836.6666666666667</ele><time>2026-05-02T16:34:01.6Z</time></trkpt><trkpt lat="42.3023089" lon="13.277963"><ele>836.5</ele><time>2026-05-02T16:34:04.6Z</time></trkpt><trkpt lat="42.3022912" lon="13.2780626"><ele>836.3333333333334</ele><time>2026-05-02T16:34:06.603Z</time></trkpt><trkpt lat="42.3022485" lon="13.2781389"><ele>836.1666666666667</ele><time>2026-05-02T16:34:07.602Z</time></trkpt><trkpt lat="42.3022041" lon="13.2782104"><ele>836.0</ele><time>2026-05-02T16:34:08.602Z</time></trkpt><trkpt lat="42.3021455" lon="13.2782735"><ele>834.4</ele><time>2026-05-02T16:34:09.602Z</time></trkpt><trkpt lat="42.3020759" lon="13.2783167"><ele>832.8</ele><time>2026-05-02T16:34:10.602Z</time></trkpt><trkpt lat="42.3019764" lon="13.2783268"><ele>831.1999999999999</ele><time>2026-05-02T16:34:11.602Z</time></trkpt><trkpt lat="42.301882" lon="13.2783345"><ele>829.5999999999999</ele><time>2026-05-02T16:34:12.603Z</time></trkpt><trkpt lat="42.301788" lon="13.2783235"><ele>828.0</ele><time>2026-05-02T16:34:13.602Z</time></trkpt><trkpt lat="42.3017042" lon="13.2782895"><ele>828.0</ele><time>2026-05-02T16:34:14.603Z</time></trkpt><trkpt lat="42.3016313" lon="13.278222"><ele>828.0</ele><time>2026-05-02T16:34:15.601Z</time></trkpt><trkpt lat="42.3015643" lon="13.2781228"><ele>828.0</ele><time>2026-05-02T16:34:16.602Z</time></trkpt><trkpt lat="42.3015065" lon="13.2780124"><ele>828.0</ele><time>2026-05-02T16:34:17.6Z</time></trkpt><trkpt lat="42.3014516" lon="13.2779018"><ele>828.0</ele><time>2026-05-02T16:34:18.603Z</time></trkpt><trkpt lat="42.3013843" lon="13.2777972"><ele>827.4</ele><time>2026-05-02T16:34:19.602Z</time></trkpt><trkpt lat="42.3013026" lon="13.2777133"><ele>826.8</ele><time>2026-05-02T16:34:20.602Z</time></trkpt><trkpt lat="42.3012104" lon="13.2776448"><ele>826.2</ele><time>2026-05-02T16:34:21.602Z</time></trkpt><trkpt lat="42.3011091" lon="13.2775882"><ele>825.6</ele><time>2026-05-02T16:34:22.603Z</time></trkpt><trkpt lat="42.3010014" lon="13.277533"><ele>825.0</ele><time>2026-05-02T16:34:23.603Z</time></trkpt><trkpt lat="42.3008964" lon="13.2774831"><ele>825.0</ele><time>2026-05-02T16:34:24.602Z</time></trkpt><trkpt lat="42.3007873" lon="13.2774572"><ele>825.0</ele><time>2026-05-02T16:34:25.602Z</time></trkpt><trkpt lat="42.3006698" lon="13.2774613"><ele>825.0</ele><time>2026-05-02T16:34:26.602Z</time></trkpt><trkpt lat="42.3005509" lon="13.2774958"><ele>825.0</ele><time>2026-05-02T16:34:27.602Z</time></trkpt><trkpt lat="42.3004298" lon="13.2775439"><ele>826.0</ele><time>2026-05-02T16:34:28.602Z</time></trkpt><trkpt lat="42.3003091" lon="13.2775878"><ele>827.0</ele><time>2026-05-02T16:34:29.602Z</time></trkpt><trkpt lat="42.3001848" lon="13.2776127"><ele>828.0</ele><time>2026-05-02T16:34:30.602Z</time></trkpt><trkpt lat="42.3000524" lon="13.277621"><ele>829.0</ele><time>2026-05-02T16:34:31.601Z</time></trkpt><trkpt lat="42.2999152" lon="13.2776157"><ele>829.0</ele><time>2026-05-02T16:34:32.602Z</time></trkpt><trkpt lat="42.2997802" lon="13.27761"><ele>829.0</ele><time>2026-05-02T16:34:33.602Z</time></trkpt><trkpt lat="42.2996559" lon="13.2776063"><ele>829.0</ele><time>2026-05-02T16:34:34.602Z</time></trkpt><trkpt lat="42.2995285" lon="13.277606"><ele>829.0</ele><time>2026-05-02T16:34:35.601Z</time></trkpt><trkpt lat="42.2994155" lon="13.2776135"><ele>828.6</ele><time>2026-05-02T16:34:36.603Z</time></trkpt><trkpt lat="42.2993079" lon="13.2776221"><ele>828.2</ele><time>2026-05-02T16:34:37.601Z</time></trkpt><trkpt lat="42.2992046" lon="13.2776385"><ele>827.8000000000001</ele><time>2026-05-02T16:34:38.601Z</time></trkpt><trkpt lat="42.2991025" lon="13.277688"><ele>827.4000000000001</ele><time>2026-05-02T16:34:39.602Z</time></trkpt><trkpt lat="42.2990176" lon="13.2777631"><ele>827.0</ele><time>2026-05-02T16:34:40.602Z</time></trkpt><trkpt lat="42.2989537" lon="13.2778672"><ele>828.2</ele><time>2026-05-02T16:34:41.603Z</time></trkpt><trkpt lat="42.2989056" lon="13.2779953"><ele>829.4000000000001</ele><time>2026-05-02T16:34:42.602Z</time></trkpt><trkpt lat="42.2988696" lon="13.2781347"><ele>830.5999999999999</ele><time>2026-05-02T16:34:43.602Z</time></trkpt><trkpt lat="42.298823" lon="13.278262"><ele>831.8</ele><time>2026-05-02T16:34:44.602Z</time></trkpt><trkpt lat="42.2987618" lon="13.2783733"><ele>833.0</ele><time>2026-05-02T16:34:45.603Z</time></trkpt><trkpt lat="42.2986768" lon="13.2784759"><ele>833.0</ele><time>2026-05-02T16:34:46.6Z</time></trkpt><trkpt lat="42.2985749" lon="13.278555"><ele>833.0</ele><time>2026-05-02T16:34:47.602Z</time></trkpt><trkpt lat="42.2984588" lon="13.2786175"><ele>833.0</ele><time>2026-05-02T16:34:48.603Z</time></trkpt><trkpt lat="42.2983373" lon="13.2786783"><ele>833.0</ele><time>2026-05-02T16:34:49.602Z</time></trkpt><trkpt lat="42.2982164" lon="13.2787573"><ele>833.0</ele><time>2026-05-02T16:34:50.601Z</time></trkpt><trkpt lat="42.2981076" lon="13.2788588"><ele>833.0</ele><time>2026-05-02T16:34:51.602Z</time></trkpt><trkpt lat="42.2980064" lon="13.2789735"><ele>833.0</ele><time>2026-05-02T16:34:52.599Z</time></trkpt><trkpt lat="42.2979138" lon="13.279108"><ele>833.0</ele><time>2026-05-02T16:34:53.601Z</time></trkpt><trkpt lat="42.2978272" lon="13.279249"><ele>833.5</ele><time>2026-05-02T16:34:54.602Z</time></trkpt><trkpt lat="42.2977473" lon="13.2793905"><ele>834.0</ele><time>2026-05-02T16:34:55.602Z</time></trkpt><trkpt lat="42.2976836" lon="13.2795295"><ele>834.5</ele><time>2026-05-02T16:34:56.602Z</time></trkpt><trkpt lat="42.2976457" lon="13.2796759"><ele>835.0</ele><time>2026-05-02T16:34:57.601Z</time></trkpt><trkpt lat="42.2976411" lon="13.2798239"><ele>835.0</ele><time>2026-05-02T16:34:58.603Z</time></trkpt><trkpt lat="42.2976611" lon="13.2799775"><ele>835.0</ele><time>2026-05-02T16:34:59.601Z</time></trkpt><trkpt lat="42.2977026" lon="13.2801274"><ele>835.0</ele><time>2026-05-02T16:35:00.602Z</time></trkpt><trkpt lat="42.2977586" lon="13.2802581"><ele>835.0</ele><time>2026-05-02T16:35:01.602Z</time></trkpt><trkpt lat="42.2978367" lon="13.2803691"><ele>835.0</ele><time>2026-05-02T16:35:02.603Z</time></trkpt><trkpt lat="42.2979325" lon="13.2804521"><ele>835.0</ele><time>2026-05-02T16:35:03.602Z</time></trkpt><trkpt lat="42.2980383" lon="13.280501"><ele>835.0</ele><time>2026-05-02T16:35:04.603Z</time></trkpt><trkpt lat="42.2981686" lon="13.280508"><ele>835.0</ele><time>2026-05-02T16:35:05.603Z</time></trkpt><trkpt lat="42.2982926" lon="13.2804942"><ele>832.25</ele><time>2026-05-02T16:35:06.603Z</time></trkpt><trkpt lat="42.2984172" lon="13.2804605"><ele>829.5</ele><time>2026-05-02T16:35:07.603Z</time></trkpt><trkpt lat="42.2985414" lon="13.2804442"><ele>826.75</ele><time>2026-05-02T16:35:08.603Z</time></trkpt><trkpt lat="42.298659" lon="13.280452"><ele>824.0</ele><time>2026-05-02T16:35:09.603Z</time></trkpt><trkpt lat="42.2987715" lon="13.2804945"><ele>824.0</ele><time>2026-05-02T16:35:10.602Z</time></trkpt><trkpt lat="42.2988829" lon="13.2805722"><ele>824.0</ele><time>2026-05-02T16:35:11.602Z</time></trkpt><trkpt lat="42.2989996" lon="13.2806702"><ele>824.0</ele><time>2026-05-02T16:35:12.602Z</time></trkpt><trkpt lat="42.2991305" lon="13.2807716"><ele>824.0</ele><time>2026-05-02T16:35:13.602Z</time></trkpt><trkpt lat="42.2992785" lon="13.2808852"><ele>821.0</ele><time>2026-05-02T16:35:14.603Z</time></trkpt><trkpt lat="42.2994348" lon="13.2810037"><ele>818.0</ele><time>2026-05-02T16:35:15.602Z</time></trkpt><trkpt lat="42.2995946" lon="13.2811302"><ele>815.0</ele><time>2026-05-02T16:35:16.602Z</time></trkpt><trkpt lat="42.2997553" lon="13.2812609"><ele>815.0</ele><time>2026-05-02T16:35:17.602Z</time></trkpt><trkpt lat="42.2999096" lon="13.281386"><ele>815.0</ele><time>2026-05-02T16:35:18.602Z</time></trkpt><trkpt lat="42.3000532" lon="13.2815053"><ele>815.0</ele><time>2026-05-02T16:35:19.603Z</time></trkpt><trkpt lat="42.3001883" lon="13.2816155"><ele>820.75</ele><time>2026-05-02T16:35:20.602Z</time></trkpt><trkpt lat="42.3003093" lon="13.2817226"><ele>826.5</ele><time>2026-05-02T16:35:21.602Z</time></trkpt><trkpt lat="42.3004116" lon="13.2818448"><ele>832.25</ele><time>2026-05-02T16:35:22.602Z</time></trkpt><trkpt lat="42.3004919" lon="13.2819827"><ele>838.0</ele><time>2026-05-02T16:35:23.603Z</time></trkpt><trkpt lat="42.3005465" lon="13.2821316"><ele>838.75</ele><time>2026-05-02T16:35:24.6Z</time></trkpt><trkpt lat="42.3005676" lon="13.2822693"><ele>839.5</ele><time>2026-05-02T16:35:25.603Z</time></trkpt><trkpt lat="42.3005589" lon="13.2824165"><ele>840.25</ele><time>2026-05-02T16:35:26.601Z</time></trkpt><trkpt lat="42.3005463" lon="13.2825778"><ele>841.0</ele><time>2026-05-02T16:35:27.602Z</time></trkpt><trkpt lat="42.3005365" lon="13.2827393"><ele>841.0</ele><time>2026-05-02T16:35:28.602Z</time></trkpt><trkpt lat="42.3005262" lon="13.2829003"><ele>841.0</ele><time>2026-05-02T16:35:29.602Z</time></trkpt><trkpt lat="42.3005202" lon="13.2830628"><ele>841.0</ele><time>2026-05-02T16:35:30.601Z</time></trkpt><trkpt lat="42.3005141" lon="13.2832181"><ele>841.0</ele><time>2026-05-02T16:35:31.602Z</time></trkpt><trkpt lat="42.3005006" lon="13.2833091"><ele>841.0</ele><time>2026-05-02T16:35:32.603Z</time></trkpt><trkpt lat="42.3004063" lon="13.2833919"><ele>839.0</ele><time>2026-05-02T16:35:34.603Z</time></trkpt><trkpt lat="42.3003306" lon="13.2834015"><ele>837.0</ele><time>2026-05-02T16:35:35.603Z</time></trkpt><trkpt lat="42.3002328" lon="13.283416"><ele>835.0</ele><time>2026-05-02T16:35:36.603Z</time></trkpt><trkpt lat="42.3001171" lon="13.283435"><ele>833.0</ele><time>2026-05-02T16:35:37.602Z</time></trkpt><trkpt lat="42.2999869" lon="13.2834677"><ele>831.0</ele><time>2026-05-02T16:35:38.602Z</time></trkpt><trkpt lat="42.2998467" lon="13.2835246"><ele>831.6666666666667</ele><time>2026-05-02T16:35:39.602Z</time></trkpt><trkpt lat="42.2997043" lon="13.283609"><ele>832.3333333333334</ele><time>2026-05-02T16:35:40.602Z</time></trkpt><trkpt lat="42.2995645" lon="13.2837111"><ele>833.0</ele><time>2026-05-02T16:35:41.603Z</time></trkpt><trkpt lat="42.2994345" lon="13.2838234"><ele>833.0</ele><time>2026-05-02T16:35:42.602Z</time></trkpt><trkpt lat="42.2993068" lon="13.2839234"><ele>833.0</ele><time>2026-05-02T16:35:43.603Z</time></trkpt><trkpt lat="42.2991791" lon="13.2839912"><ele>833.0</ele><time>2026-05-02T16:35:44.603Z</time></trkpt><trkpt lat="42.2990541" lon="13.284023"><ele>833.0</ele><time>2026-05-02T16:35:45.602Z</time></trkpt><trkpt lat="42.2989361" lon="13.2840108"><ele>832.5</ele><time>2026-05-02T16:35:46.601Z</time></trkpt><trkpt lat="42.2988143" lon="13.2839625"><ele>832.0</ele><time>2026-05-02T16:35:47.603Z</time></trkpt><trkpt lat="42.2986891" lon="13.2838903"><ele>831.5</ele><time>2026-05-02T16:35:48.603Z</time></trkpt><trkpt lat="42.2985659" lon="13.2838161"><ele>831.0</ele><time>2026-05-02T16:35:49.603Z</time></trkpt><trkpt lat="42.2984483" lon="13.283775"><ele>831.0</ele><time>2026-05-02T16:35:50.602Z</time></trkpt><trkpt lat="42.2983319" lon="13.283763"><ele>831.0</ele><time>2026-05-02T16:35:51.602Z</time></trkpt><trkpt lat="42.2982147" lon="13.2837882"><ele>831.0</ele><time>2026-05-02T16:35:52.602Z</time></trkpt><trkpt lat="42.2980938" lon="13.2838506"><ele>831.0</ele><time>2026-05-02T16:35:53.603Z</time></trkpt><trkpt lat="42.2979838" lon="13.2839237"><ele>829.8333333333334</ele><time>2026-05-02T16:35:54.602Z</time></trkpt><trkpt lat="42.2979122" lon="13.2839779"><ele>828.6666666666667</ele><time>2026-05-02T16:35:55.602Z</time></trkpt><trkpt lat="42.2978771" lon="13.2840827"><ele>827.5</ele><time>2026-05-02T16:35:57.602Z</time></trkpt><trkpt lat="42.2979421" lon="13.2841619"><ele>826.3333333333334</ele><time>2026-05-02T16:35:59.602Z</time></trkpt><trkpt lat="42.2980202" lon="13.2841849"><ele>825.1666666666667</ele><time>2026-05-02T16:36:00.602Z</time></trkpt><trkpt lat="42.2981305" lon="13.2841955"><ele>824.0</ele><time>2026-05-02T16:36:01.602Z</time></trkpt><trkpt lat="42.2982632" lon="13.2842195"><ele>822.25</ele><time>2026-05-02T16:36:02.602Z</time></trkpt><trkpt lat="42.2984028" lon="13.2842488"><ele>820.5</ele><time>2026-05-02T16:36:03.602Z</time></trkpt><trkpt lat="42.2985303" lon="13.2842932"><ele>818.75</ele><time>2026-05-02T16:36:04.602Z</time></trkpt><trkpt lat="42.2986569" lon="13.2843631"><ele>817.0</ele><time>2026-05-02T16:36:05.602Z</time></trkpt><trkpt lat="42.2987666" lon="13.2844541"><ele>817.0</ele><time>2026-05-02T16:36:06.602Z</time></trkpt><trkpt lat="42.2988721" lon="13.2845784"><ele>817.0</ele><time>2026-05-02T16:36:07.602Z</time></trkpt><trkpt lat="42.2989689" lon="13.2847182"><ele>817.0</ele><time>2026-05-02T16:36:08.602Z</time></trkpt><trkpt lat="42.2990631" lon="13.2848714"><ele>817.0</ele><time>2026-05-02T16:36:09.602Z</time></trkpt><trkpt lat="42.2991493" lon="13.2850355"><ele>815.5</ele><time>2026-05-02T16:36:10.6Z</time></trkpt><trkpt lat="42.2992242" lon="13.2852126"><ele>814.0</ele><time>2026-05-02T16:36:11.603Z</time></trkpt><trkpt lat="42.2992862" lon="13.2853896"><ele>812.5</ele><time>2026-05-02T16:36:12.602Z</time></trkpt><trkpt lat="42.2993359" lon="13.2855677"><ele>811.0</ele><time>2026-05-02T16:36:13.602Z</time></trkpt><trkpt lat="42.2993762" lon="13.2857517"><ele>809.3333333333333</ele><time>2026-05-02T16:36:14.602Z</time></trkpt><trkpt lat="42.2994061" lon="13.285951"><ele>807.6666666666667</ele><time>2026-05-02T16:36:15.602Z</time></trkpt><trkpt lat="42.2994279" lon="13.2861575"><ele>806.0</ele><time>2026-05-02T16:36:16.602Z</time></trkpt><trkpt lat="42.2994389" lon="13.2863624"><ele>804.5</ele><time>2026-05-02T16:36:17.601Z</time></trkpt><trkpt lat="42.2994469" lon="13.2865654"><ele>803.0</ele><time>2026-05-02T16:36:18.602Z</time></trkpt><trkpt lat="42.2994551" lon="13.2867626"><ele>801.5</ele><time>2026-05-02T16:36:19.602Z</time></trkpt><trkpt lat="42.299466" lon="13.286957"><ele>800.0</ele><time>2026-05-02T16:36:20.602Z</time></trkpt><trkpt lat="42.2994879" lon="13.2871445"><ele>800.5</ele><time>2026-05-02T16:36:21.602Z</time></trkpt><trkpt lat="42.2995295" lon="13.2873241"><ele>801.0</ele><time>2026-05-02T16:36:22.6Z</time></trkpt><trkpt lat="42.2995964" lon="13.2874848"><ele>801.5</ele><time>2026-05-02T16:36:23.602Z</time></trkpt><trkpt lat="42.2996832" lon="13.2876137"><ele>802.0</ele><time>2026-05-02T16:36:24.602Z</time></trkpt><trkpt lat="42.2997728" lon="13.2876876"><ele>802.0</ele><time>2026-05-02T16:36:25.602Z</time></trkpt><trkpt lat="42.2998781" lon="13.287723"><ele>802.0</ele><time>2026-05-02T16:36:26.602Z</time></trkpt><trkpt lat="42.300003" lon="13.2877173"><ele>802.0</ele><time>2026-05-02T16:36:27.603Z</time></trkpt><trkpt lat="42.3001435" lon="13.287687"><ele>802.0</ele><time>2026-05-02T16:36:28.601Z</time></trkpt><trkpt lat="42.3003006" lon="13.2876618"><ele>802.0</ele><time>2026-05-02T16:36:29.602Z</time></trkpt><trkpt lat="42.3004796" lon="13.2876605"><ele>802.0</ele><time>2026-05-02T16:36:30.603Z</time></trkpt><trkpt lat="42.3006641" lon="13.2876593"><ele>802.0</ele><time>2026-05-02T16:36:31.602Z</time></trkpt><trkpt lat="42.3008417" lon="13.2876558"><ele>800.3333333333333</ele><time>2026-05-02T16:36:32.602Z</time></trkpt><trkpt lat="42.3010134" lon="13.2876496"><ele>798.6666666666667</ele><time>2026-05-02T16:36:33.602Z</time></trkpt><trkpt lat="42.3011762" lon="13.2876165"><ele>797.0</ele><time>2026-05-02T16:36:34.603Z</time></trkpt><trkpt lat="42.3013286" lon="13.2875536"><ele>793.0</ele><time>2026-05-02T16:36:35.603Z</time></trkpt><trkpt lat="42.3014679" lon="13.2874727"><ele>789.0</ele><time>2026-05-02T16:36:36.602Z</time></trkpt><trkpt lat="42.3016058" lon="13.2873958"><ele>785.0</ele><time>2026-05-02T16:36:37.601Z</time></trkpt><trkpt lat="42.3017406" lon="13.2873391"><ele>781.0</ele><time>2026-05-02T16:36:38.601Z</time></trkpt><trkpt lat="42.3018739" lon="13.2872832"><ele>781.0</ele><time>2026-05-02T16:36:39.602Z</time></trkpt><trkpt lat="42.3020014" lon="13.2872649"><ele>781.0</ele><time>2026-05-02T16:36:40.602Z</time></trkpt><trkpt lat="42.3021688" lon="13.2873473"><ele>781.0</ele><time>2026-05-02T16:36:41.603Z</time></trkpt><trkpt lat="42.3022809" lon="13.2873686"><ele>781.0</ele><time>2026-05-02T16:36:42.602Z</time></trkpt><trkpt lat="42.3023606" lon="13.2873942"><ele>780.6666666666666</ele><time>2026-05-02T16:36:43.603Z</time></trkpt><trkpt lat="42.3024344" lon="13.2874131"><ele>780.3333333333333</ele><time>2026-05-02T16:36:44.603Z</time></trkpt><trkpt lat="42.3025209" lon="13.287436"><ele>780.0</ele><time>2026-05-02T16:36:45.603Z</time></trkpt><trkpt lat="42.3025931" lon="13.2874627"><ele>779.6666666666667</ele><time>2026-05-02T16:36:46.602Z</time></trkpt><trkpt lat="42.3026688" lon="13.2874896"><ele>779.3333333333334</ele><time>2026-05-02T16:36:47.603Z</time></trkpt><trkpt lat="42.3027515" lon="13.2875083"><ele>779.0</ele><time>2026-05-02T16:36:48.603Z</time></trkpt><trkpt lat="42.3028545" lon="13.2875299"><ele>779.0</ele><time>2026-05-02T16:36:49.602Z</time></trkpt><trkpt lat="42.3029767" lon="13.287548"><ele>779.0</ele><time>2026-05-02T16:36:50.602Z</time></trkpt><trkpt lat="42.3031142" lon="13.2875679"><ele>779.0</ele><time>2026-05-02T16:36:51.603Z</time></trkpt><trkpt lat="42.3032636" lon="13.2875957"><ele>779.0</ele><time>2026-05-02T16:36:52.602Z</time></trkpt><trkpt lat="42.3034152" lon="13.2876243"><ele>778.25</ele><time>2026-05-02T16:36:53.603Z</time></trkpt><trkpt lat="42.3035558" lon="13.2876462"><ele>777.5</ele><time>2026-05-02T16:36:54.602Z</time></trkpt><trkpt lat="42.3036904" lon="13.2876609"><ele>776.75</ele><time>2026-05-02T16:36:55.602Z</time></trkpt><trkpt lat="42.3038312" lon="13.2876578"><ele>776.0</ele><time>2026-05-02T16:36:56.603Z</time></trkpt><trkpt lat="42.3039835" lon="13.2876308"><ele>775.0</ele><time>2026-05-02T16:36:57.602Z</time></trkpt><trkpt lat="42.3041412" lon="13.2875876"><ele>774.0</ele><time>2026-05-02T16:36:58.601Z</time></trkpt><trkpt lat="42.3043073" lon="13.2875338"><ele>773.0</ele><time>2026-05-02T16:36:59.602Z</time></trkpt><trkpt lat="42.3044739" lon="13.2874785"><ele>773.0</ele><time>2026-05-02T16:37:00.602Z</time></trkpt><trkpt lat="42.3046425" lon="13.2874202"><ele>773.0</ele><time>2026-05-02T16:37:01.603Z</time></trkpt><trkpt lat="42.3048112" lon="13.2873521"><ele>773.0</ele><time>2026-05-02T16:37:02.602Z</time></trkpt><trkpt lat="42.3049812" lon="13.2872718"><ele>776.3333333333334</ele><time>2026-05-02T16:37:03.602Z</time></trkpt><trkpt lat="42.30515" lon="13.2871812"><ele>779.6666666666667</ele><time>2026-05-02T16:37:04.602Z</time></trkpt><trkpt lat="42.3053104" lon="13.2870935"><ele>783.0</ele><time>2026-05-02T16:37:05.602Z</time></trkpt><trkpt lat="42.3054639" lon="13.2870087"><ele>778.0</ele><time>2026-05-02T16:37:06.602Z</time></trkpt><trkpt lat="42.3056085" lon="13.2869206"><ele>773.0</ele><time>2026-05-02T16:37:07.603Z</time></trkpt><trkpt lat="42.3057489" lon="13.286822"><ele>768.0</ele><time>2026-05-02T16:37:08.601Z</time></trkpt><trkpt lat="42.3058795" lon="13.2867146"><ele>768.0</ele><time>2026-05-02T16:37:09.601Z</time></trkpt><trkpt lat="42.306001" lon="13.2866062"><ele>768.0</ele><time>2026-05-02T16:37:10.602Z</time></trkpt><trkpt lat="42.3061188" lon="13.2865067"><ele>768.0</ele><time>2026-05-02T16:37:11.603Z</time></trkpt><trkpt lat="42.3062172" lon="13.2864325"><ele>768.0</ele><time>2026-05-02T16:37:12.603Z</time></trkpt><trkpt lat="42.3063009" lon="13.2863918"><ele>766.8</ele><time>2026-05-02T16:37:13.602Z</time></trkpt><trkpt lat="42.3063865" lon="13.2863908"><ele>765.5999999999999</ele><time>2026-05-02T16:37:14.602Z</time></trkpt><trkpt lat="42.3064589" lon="13.2864307"><ele>764.4000000000001</ele><time>2026-05-02T16:37:15.602Z</time></trkpt><trkpt lat="42.3065311" lon="13.2865"><ele>763.2</ele><time>2026-05-02T16:37:16.602Z</time></trkpt><trkpt lat="42.3066014" lon="13.2865919"><ele>762.0</ele><time>2026-05-02T16:37:17.602Z</time></trkpt><trkpt lat="42.306668" lon="13.2866971"><ele>762.0</ele><time>2026-05-02T16:37:18.602Z</time></trkpt><trkpt lat="42.3067339" lon="13.2868093"><ele>762.0</ele><time>2026-05-02T16:37:19.602Z</time></trkpt><trkpt lat="42.3068007" lon="13.2869041"><ele>762.0</ele><time>2026-05-02T16:37:20.602Z</time></trkpt><trkpt lat="42.306871" lon="13.286968"><ele>762.0</ele><time>2026-05-02T16:37:21.602Z</time></trkpt><trkpt lat="42.3069476" lon="13.2869836"><ele>762.0</ele><time>2026-05-02T16:37:22.602Z</time></trkpt><trkpt lat="42.3070299" lon="13.2869622"><ele>762.0</ele><time>2026-05-02T16:37:23.603Z</time></trkpt><trkpt lat="42.307118" lon="13.2869153"><ele>762.0</ele><time>2026-05-02T16:37:24.602Z</time></trkpt><trkpt lat="42.3072226" lon="13.2868539"><ele>762.0</ele><time>2026-05-02T16:37:25.599Z</time></trkpt><trkpt lat="42.307333" lon="13.2867925"><ele>762.0</ele><time>2026-05-02T16:37:26.602Z</time></trkpt><trkpt lat="42.3074483" lon="13.2867365"><ele>762.0</ele><time>2026-05-02T16:37:27.602Z</time></trkpt><trkpt lat="42.3075544" lon="13.2866905"><ele>762.1666666666666</ele><time>2026-05-02T16:37:28.603Z</time></trkpt><trkpt lat="42.3076413" lon="13.2866611"><ele>762.3333333333334</ele><time>2026-05-02T16:37:29.6Z</time></trkpt><trkpt lat="42.3077065" lon="13.2866486"><ele>762.5</ele><time>2026-05-02T16:37:30.602Z</time></trkpt><trkpt lat="42.3078205" lon="13.2866416"><ele>762.6666666666667</ele><time>2026-05-02T16:37:32.601Z</time></trkpt><trkpt lat="42.3078949" lon="13.2866275"><ele>762.8333333333334</ele><time>2026-05-02T16:37:33.602Z</time></trkpt><trkpt lat="42.3079899" lon="13.2865861"><ele>763.0</ele><time>2026-05-02T16:37:34.602Z</time></trkpt><trkpt lat="42.3081033" lon="13.2865176"><ele>764.0</ele><time>2026-05-02T16:37:35.602Z</time></trkpt><trkpt lat="42.3082283" lon="13.2864372"><ele>765.0</ele><time>2026-05-02T16:37:36.602Z</time></trkpt><trkpt lat="42.3083636" lon="13.2863465"><ele>766.0</ele><time>2026-05-02T16:37:37.602Z</time></trkpt><trkpt lat="42.3085038" lon="13.2862529"><ele>767.0</ele><time>2026-05-02T16:37:38.6Z</time></trkpt><trkpt lat="42.3086433" lon="13.2861625"><ele>763.6666666666666</ele><time>2026-05-02T16:37:39.603Z</time></trkpt><trkpt lat="42.3087773" lon="13.2860812"><ele>760.3333333333334</ele><time>2026-05-02T16:37:40.599Z</time></trkpt><trkpt lat="42.308921" lon="13.2860095"><ele>757.0</ele><time>2026-05-02T16:37:41.601Z</time></trkpt><trkpt lat="42.3090732" lon="13.2859577"><ele>757.0</ele><time>2026-05-02T16:37:42.602Z</time></trkpt><trkpt lat="42.309216" lon="13.2859333"><ele>757.0</ele><time>2026-05-02T16:37:43.603Z</time></trkpt><trkpt lat="42.3093541" lon="13.2859167"><ele>757.0</ele><time>2026-05-02T16:37:44.602Z</time></trkpt><trkpt lat="42.3094812" lon="13.2858943"><ele>757.0</ele><time>2026-05-02T16:37:45.603Z</time></trkpt><trkpt lat="42.3095809" lon="13.285876"><ele>757.0</ele><time>2026-05-02T16:37:46.602Z</time></trkpt><trkpt lat="42.3096496" lon="13.2858636"><ele>757.0</ele><time>2026-05-02T16:37:47.603Z</time></trkpt><trkpt lat="42.3097228" lon="13.2858743"><ele>757.0</ele><time>2026-05-02T16:37:50.603Z</time></trkpt><trkpt lat="42.3096435" lon="13.2859518"><ele>757.0</ele><time>2026-05-02T16:37:54.603Z</time></trkpt><trkpt lat="42.3095785" lon="13.2859588"><ele>757.0</ele><time>2026-05-02T16:37:55.602Z</time></trkpt><trkpt lat="42.3095005" lon="13.2859615"><ele>757.0</ele><time>2026-05-02T16:37:56.601Z</time></trkpt><trkpt lat="42.3094187" lon="13.2859694"><ele>757.0</ele><time>2026-05-02T16:37:57.602Z</time></trkpt><trkpt lat="42.3093142" lon="13.2859801"><ele>757.0</ele><time>2026-05-02T16:37:58.603Z</time></trkpt><trkpt lat="42.3092077" lon="13.2860046"><ele>757.0</ele><time>2026-05-02T16:37:59.602Z</time></trkpt><trkpt lat="42.3090981" lon="13.2860469"><ele>757.0</ele><time>2026-05-02T16:38:00.602Z</time></trkpt><trkpt lat="42.3089856" lon="13.2860995"><ele>757.0</ele><time>2026-05-02T16:38:01.603Z</time></trkpt><trkpt lat="42.3088721" lon="13.2861587"><ele>757.0</ele><time>2026-05-02T16:38:02.602Z</time></trkpt><trkpt lat="42.3087654" lon="13.2862177"><ele>757.0</ele><time>2026-05-02T16:38:03.602Z</time></trkpt><trkpt lat="42.3086764" lon="13.2862696"><ele>757.0</ele><time>2026-05-02T16:38:04.602Z</time></trkpt><trkpt lat="42.3085984" lon="13.2863156"><ele>757.0</ele><time>2026-05-02T16:38:05.602Z</time></trkpt><trkpt lat="42.3085305" lon="13.2863594"><ele>757.0</ele><time>2026-05-02T16:38:06.602Z</time></trkpt><trkpt lat="42.3084801" lon="13.2864221"><ele>757.0</ele><time>2026-05-02T16:38:07.603Z</time></trkpt><trkpt lat="42.3084834" lon="13.2865695"><ele>759.0</ele><time>2026-05-02T16:38:09.603Z</time></trkpt><trkpt lat="42.3085951" lon="13.2866206"><ele>761.0</ele><time>2026-05-02T16:38:11.602Z</time></trkpt><trkpt lat="42.3086844" lon="13.2866079"><ele>763.0</ele><time>2026-05-02T16:38:12.602Z</time></trkpt><trkpt lat="42.308796" lon="13.286594"><ele>765.0</ele><time>2026-05-02T16:38:13.603Z</time></trkpt><trkpt lat="42.3089239" lon="13.2865867"><ele>767.0</ele><time>2026-05-02T16:38:14.602Z</time></trkpt><trkpt lat="42.3090649" lon="13.2865763"><ele>768.5</ele><time>2026-05-02T16:38:15.602Z</time></trkpt><trkpt lat="42.3092127" lon="13.2865609"><ele>770.0</ele><time>2026-05-02T16:38:16.602Z</time></trkpt><trkpt lat="42.3093601" lon="13.2865417"><ele>771.5</ele><time>2026-05-02T16:38:17.602Z</time></trkpt><trkpt lat="42.3095119" lon="13.2865222"><ele>773.0</ele><time>2026-05-02T16:38:18.602Z</time></trkpt><trkpt lat="42.3096734" lon="13.2865013"><ele>769.6666666666667</ele><time>2026-05-02T16:38:19.603Z</time></trkpt><trkpt lat="42.3098355" lon="13.2864762"><ele>766.3333333333334</ele><time>2026-05-02T16:38:20.601Z</time></trkpt><trkpt lat="42.3100003" lon="13.2864516"><ele>763.0</ele><time>2026-05-02T16:38:21.602Z</time></trkpt><trkpt lat="42.3101649" lon="13.2864248"><ele>763.0</ele><time>2026-05-02T16:38:22.603Z</time></trkpt><trkpt lat="42.3103284" lon="13.2864002"><ele>763.0</ele><time>2026-05-02T16:38:23.601Z</time></trkpt><trkpt lat="42.3104873" lon="13.2863867"><ele>763.0</ele><time>2026-05-02T16:38:24.601Z</time></trkpt><trkpt lat="42.3106312" lon="13.2863641"><ele>765.0</ele><time>2026-05-02T16:38:25.603Z</time></trkpt><trkpt lat="42.3107606" lon="13.2863604"><ele>767.0</ele><time>2026-05-02T16:38:26.602Z</time></trkpt><trkpt lat="42.3108732" lon="13.2863561"><ele>769.0</ele><time>2026-05-02T16:38:27.603Z</time></trkpt><trkpt lat="42.3109698" lon="13.2863578"><ele>771.0</ele><time>2026-05-02T16:38:28.602Z</time></trkpt><trkpt lat="42.3110531" lon="13.2863648"><ele>773.0</ele><time>2026-05-02T16:38:29.603Z</time></trkpt><trkpt lat="42.311128" lon="13.286357"><ele>773.0000000000001</ele><time>2026-05-02T16:38:30.6Z</time></trkpt><trkpt lat="42.3112056" lon="13.2863365"><ele>773.0</ele><time>2026-05-02T16:38:31.602Z</time></trkpt><trkpt lat="42.3112844" lon="13.2862929"><ele>773.0</ele><time>2026-05-02T16:38:32.602Z</time></trkpt><trkpt lat="42.3113653" lon="13.2862253"><ele>773.0</ele><time>2026-05-02T16:38:33.602Z</time></trkpt><trkpt lat="42.3114443" lon="13.2861464"><ele>773.0000000000001</ele><time>2026-05-02T16:38:34.602Z</time></trkpt><trkpt lat="42.3115167" lon="13.2860703"><ele>773.0</ele><time>2026-05-02T16:38:35.602Z</time></trkpt><trkpt lat="42.3115867" lon="13.2860411"><ele>775.4</ele><time>2026-05-02T16:38:36.602Z</time></trkpt><trkpt lat="42.3116605" lon="13.286098"><ele>777.8</ele><time>2026-05-02T16:38:38.603Z</time></trkpt><trkpt lat="42.3116287" lon="13.2862501"><ele>780.2</ele><time>2026-05-02T16:38:40.602Z</time></trkpt><trkpt lat="42.3115705" lon="13.2863735"><ele>782.6</ele><time>2026-05-02T16:38:41.603Z</time></trkpt><trkpt lat="42.3115017" lon="13.2865338"><ele>785.0</ele><time>2026-05-02T16:38:42.602Z</time></trkpt><trkpt lat="42.3114258" lon="13.2867166"><ele>787.0</ele><time>2026-05-02T16:38:43.602Z</time></trkpt><trkpt lat="42.3113449" lon="13.2868949"><ele>789.0</ele><time>2026-05-02T16:38:44.603Z</time></trkpt><trkpt lat="42.311255" lon="13.2870726"><ele>791.0</ele><time>2026-05-02T16:38:45.603Z</time></trkpt><trkpt lat="42.311162" lon="13.2872269"><ele>792.5</ele><time>2026-05-02T16:38:46.601Z</time></trkpt><trkpt lat="42.3110627" lon="13.2873682"><ele>794.0</ele><time>2026-05-02T16:38:47.602Z</time></trkpt><trkpt lat="42.3109548" lon="13.2875025"><ele>795.5</ele><time>2026-05-02T16:38:48.602Z</time></trkpt><trkpt lat="42.3108327" lon="13.2876288"><ele>797.0</ele><time>2026-05-02T16:38:49.602Z</time></trkpt><trkpt lat="42.310703" lon="13.2877545"><ele>796.6666666666667</ele><time>2026-05-02T16:38:50.603Z</time></trkpt><trkpt lat="42.3105718" lon="13.2878858"><ele>796.3333333333333</ele><time>2026-05-02T16:38:51.602Z</time></trkpt><trkpt lat="42.3104334" lon="13.288029"><ele>796.0</ele><time>2026-05-02T16:38:52.602Z</time></trkpt><trkpt lat="42.3102941" lon="13.2881854"><ele>796.6666666666666</ele><time>2026-05-02T16:38:53.602Z</time></trkpt><trkpt lat="42.3101549" lon="13.2883464"><ele>797.3333333333333</ele><time>2026-05-02T16:38:54.602Z</time></trkpt><trkpt lat="42.3100122" lon="13.2885083"><ele>798.0</ele><time>2026-05-02T16:38:55.602Z</time></trkpt><trkpt lat="42.3098664" lon="13.2886703"><ele>798.0</ele><time>2026-05-02T16:38:56.603Z</time></trkpt><trkpt lat="42.3097275" lon="13.2888262"><ele>798.0</ele><time>2026-05-02T16:38:57.603Z</time></trkpt><trkpt lat="42.3095971" lon="13.28897"><ele>798.0</ele><time>2026-05-02T16:38:58.603Z</time></trkpt><trkpt lat="42.3094753" lon="13.2891049"><ele>798.0</ele><time>2026-05-02T16:38:59.602Z</time></trkpt><trkpt lat="42.3093617" lon="13.2892313"><ele>798.0</ele><time>2026-05-02T16:39:00.602Z</time></trkpt><trkpt lat="42.3092517" lon="13.2893536"><ele>798.0</ele><time>2026-05-02T16:39:01.603Z</time></trkpt><trkpt lat="42.3091489" lon="13.2894652"><ele>798.0</ele><time>2026-05-02T16:39:02.602Z</time></trkpt><trkpt lat="42.3090505" lon="13.2895687"><ele>798.0</ele><time>2026-05-02T16:39:03.602Z</time></trkpt><trkpt lat="42.3089618" lon="13.2896617"><ele>798.0</ele><time>2026-05-02T16:39:04.602Z</time></trkpt><trkpt lat="42.3088858" lon="13.2897464"><ele>798.0</ele><time>2026-05-02T16:39:05.602Z</time></trkpt><trkpt lat="42.3088357" lon="13.2898163"><ele>798.0</ele><time>2026-05-02T16:39:06.602Z</time></trkpt><trkpt lat="42.3088161" lon="13.2899337"><ele>798.0</ele><time>2026-05-02T16:39:08.602Z</time></trkpt><trkpt lat="42.3088372" lon="13.2900555"><ele>798.6666666666666</ele><time>2026-05-02T16:39:10.603Z</time></trkpt><trkpt lat="42.3089094" lon="13.29019"><ele>799.3333333333333</ele><time>2026-05-02T16:39:12.603Z</time></trkpt><trkpt lat="42.3089515" lon="13.2902617"><ele>800.0</ele><time>2026-05-02T16:39:13.603Z</time></trkpt><trkpt lat="42.3089945" lon="13.290336"><ele>800.6666666666666</ele><time>2026-05-02T16:39:14.602Z</time></trkpt><trkpt lat="42.3090351" lon="13.2904099"><ele>801.3333333333333</ele><time>2026-05-02T16:39:15.602Z</time></trkpt><trkpt lat="42.3090768" lon="13.2904796"><ele>802.0</ele><time>2026-05-02T16:39:16.603Z</time></trkpt><trkpt lat="42.3091173" lon="13.2905479"><ele>801.9999999999999</ele><time>2026-05-02T16:39:17.602Z</time></trkpt><trkpt lat="42.3091657" lon="13.2906478"><ele>802.0</ele><time>2026-05-02T16:39:19.602Z</time></trkpt><trkpt lat="42.309167" lon="13.2907573"><ele>802.0</ele><time>2026-05-02T16:39:21.602Z</time></trkpt><trkpt lat="42.309173" lon="13.2909121"><ele>802.0</ele><time>2026-05-02T16:39:23.602Z</time></trkpt><trkpt lat="42.3091931" lon="13.2910005"><ele>801.9999999999999</ele><time>2026-05-02T16:39:24.602Z</time></trkpt><trkpt lat="42.3092169" lon="13.2910924"><ele>802.0</ele><time>2026-05-02T16:39:25.603Z</time></trkpt><trkpt lat="42.3092425" lon="13.2911851"><ele>801.9999999999999</ele><time>2026-05-02T16:39:26.602Z</time></trkpt><trkpt lat="42.3092616" lon="13.2912777"><ele>802.0</ele><time>2026-05-02T16:39:27.601Z</time></trkpt><trkpt lat="42.3092818" lon="13.2913692"><ele>802.0</ele><time>2026-05-02T16:39:28.602Z</time></trkpt><trkpt lat="42.309303" lon="13.2914574"><ele>802.0</ele><time>2026-05-02T16:39:29.602Z</time></trkpt><trkpt lat="42.3093197" lon="13.2915443"><ele>801.9999999999999</ele><time>2026-05-02T16:39:30.602Z</time></trkpt><trkpt lat="42.3093358" lon="13.2916277"><ele>802.0</ele><time>2026-05-02T16:39:31.602Z</time></trkpt><trkpt lat="42.309362" lon="13.2917913"><ele>801.6</ele><time>2026-05-02T16:39:33.602Z</time></trkpt><trkpt lat="42.3093839" lon="13.2919482"><ele>801.2</ele><time>2026-05-02T16:39:35.6Z</time></trkpt><trkpt lat="42.309401" lon="13.2920938"><ele>800.8</ele><time>2026-05-02T16:39:37.602Z</time></trkpt><trkpt lat="42.3094124" lon="13.2922422"><ele>800.4</ele><time>2026-05-02T16:39:39.6Z</time></trkpt><trkpt lat="42.3094282" lon="13.2923734"><ele>800.0</ele><time>2026-05-02T16:39:41.6Z</time></trkpt><trkpt lat="42.3094584" lon="13.2925107"><ele>799.6</ele><time>2026-05-02T16:39:43.602Z</time></trkpt><trkpt lat="42.3095016" lon="13.2926499"><ele>799.2</ele><time>2026-05-02T16:39:45.6Z</time></trkpt><trkpt lat="42.3095176" lon="13.2927501"><ele>798.8</ele><time>2026-05-02T16:39:46.602Z</time></trkpt><trkpt lat="42.3095322" lon="13.2928852"><ele>798.4</ele><time>2026-05-02T16:39:47.602Z</time></trkpt><trkpt lat="42.3095439" lon="13.2930178"><ele>798.0</ele><time>2026-05-02T16:39:48.602Z</time></trkpt><trkpt lat="42.3095532" lon="13.2931375"><ele>797.1666666666666</ele><time>2026-05-02T16:39:49.6Z</time></trkpt><trkpt lat="42.3095614" lon="13.2932523"><ele>796.3333333333333</ele><time>2026-05-02T16:39:50.602Z</time></trkpt><trkpt lat="42.3095697" lon="13.2933595"><ele>795.5</ele><time>2026-05-02T16:39:51.601Z</time></trkpt><trkpt lat="42.3095718" lon="13.2934519"><ele>794.6666666666666</ele><time>2026-05-02T16:39:52.602Z</time></trkpt><trkpt lat="42.3095751" lon="13.2935778"><ele>793.8333333333333</ele><time>2026-05-02T16:39:54.6Z</time></trkpt><trkpt lat="42.309631" lon="13.2936477"><ele>793.0</ele><time>2026-05-02T16:39:56.602Z</time></trkpt><trkpt lat="42.3097203" lon="13.2936573"><ele>790.8</ele><time>2026-05-02T16:39:58.602Z</time></trkpt><trkpt lat="42.3098079" lon="13.2935942"><ele>788.5999999999999</ele><time>2026-05-02T16:40:00.601Z</time></trkpt><trkpt lat="42.3099036" lon="13.2935334"><ele>786.4000000000001</ele><time>2026-05-02T16:40:02.6Z</time></trkpt><trkpt lat="42.3099946" lon="13.2935621"><ele>784.2</ele><time>2026-05-02T16:40:04.602Z</time></trkpt><trkpt lat="42.3100658" lon="13.2936551"><ele>782.0</ele><time>2026-05-02T16:40:06.602Z</time></trkpt><trkpt lat="42.3100964" lon="13.2937911"><ele>782.2</ele><time>2026-05-02T16:40:08.602Z</time></trkpt><trkpt lat="42.3100708" lon="13.2939235"><ele>782.4000000000001</ele><time>2026-05-02T16:40:10.602Z</time></trkpt><trkpt lat="42.3100082" lon="13.2940249"><ele>782.5999999999999</ele><time>2026-05-02T16:40:12.602Z</time></trkpt><trkpt lat="42.3098844" lon="13.294085"><ele>782.8</ele><time>2026-05-02T16:40:14.603Z</time></trkpt><trkpt lat="42.3098027" lon="13.294105"><ele>783.0</ele><time>2026-05-02T16:40:15.602Z</time></trkpt><trkpt lat="42.3097284" lon="13.2941209"><ele>783.0</ele><time>2026-05-02T16:40:16.602Z</time></trkpt><trkpt lat="42.3096596" lon="13.2941401"><ele>783.0</ele><time>2026-05-02T16:40:17.603Z</time></trkpt><trkpt lat="42.3095908" lon="13.2941623"><ele>783.0</ele><time>2026-05-02T16:40:18.6Z</time></trkpt><trkpt lat="42.3095306" lon="13.2941933"><ele>783.0</ele><time>2026-05-02T16:40:19.602Z</time></trkpt><trkpt lat="42.3094588" lon="13.2943"><ele>783.0</ele><time>2026-05-02T16:40:21.602Z</time></trkpt><trkpt lat="42.3094304" lon="13.2944027"><ele>783.0</ele><time>2026-05-02T16:40:23.602Z</time></trkpt><trkpt lat="42.3094516" lon="13.2945423"><ele>783.0</ele><time>2026-05-02T16:40:25.602Z</time></trkpt><trkpt lat="42.3094884" lon="13.2946864"><ele>783.0</ele><time>2026-05-02T16:40:27.603Z</time></trkpt><trkpt lat="42.3094907" lon="13.2948433"><ele>783.0</ele><time>2026-05-02T16:40:29.603Z</time></trkpt><trkpt lat="42.3094341" lon="13.2950125"><ele>783.0</ele><time>2026-05-02T16:40:31.602Z</time></trkpt><trkpt lat="42.3093953" lon="13.2951162"><ele>782.1666666666666</ele><time>2026-05-02T16:40:32.602Z</time></trkpt><trkpt lat="42.3093537" lon="13.2952144"><ele>781.3333333333333</ele><time>2026-05-02T16:40:33.602Z</time></trkpt><trkpt lat="42.3093092" lon="13.2953221"><ele>780.5</ele><time>2026-05-02T16:40:34.603Z</time></trkpt><trkpt lat="42.3092695" lon="13.2954281"><ele>779.6666666666666</ele><time>2026-05-02T16:40:35.603Z</time></trkpt><trkpt lat="42.3092314" lon="13.2955256"><ele>778.8333333333333</ele><time>2026-05-02T16:40:36.602Z</time></trkpt><trkpt lat="42.3091993" lon="13.295616"><ele>778.0</ele><time>2026-05-02T16:40:37.602Z</time></trkpt><trkpt lat="42.3091693" lon="13.2957054"><ele>778.4999999999999</ele><time>2026-05-02T16:40:38.602Z</time></trkpt><trkpt lat="42.3091118" lon="13.2958551"><ele>779.0</ele><time>2026-05-02T16:40:40.602Z</time></trkpt><trkpt lat="42.3090768" lon="13.2959431"><ele>779.5</ele><time>2026-05-02T16:40:41.601Z</time></trkpt><trkpt lat="42.3090258" lon="13.2960181"><ele>780.0</ele><time>2026-05-02T16:40:42.603Z</time></trkpt><trkpt lat="42.3089801" lon="13.2961056"><ele>780.4999999999999</ele><time>2026-05-02T16:40:43.602Z</time></trkpt><trkpt lat="42.3089265" lon="13.2962118"><ele>781.0</ele><time>2026-05-02T16:40:44.602Z</time></trkpt><trkpt lat="42.3088701" lon="13.2963192"><ele>779.5999999999999</ele><time>2026-05-02T16:40:45.602Z</time></trkpt><trkpt lat="42.3088193" lon="13.2964288"><ele>778.2</ele><time>2026-05-02T16:40:46.602Z</time></trkpt><trkpt lat="42.3087745" lon="13.2965422"><ele>776.8</ele><time>2026-05-02T16:40:47.602Z</time></trkpt><trkpt lat="42.3087325" lon="13.2966555"><ele>775.4000000000001</ele><time>2026-05-02T16:40:48.603Z</time></trkpt><trkpt lat="42.3086899" lon="13.2967666"><ele>774.0</ele><time>2026-05-02T16:40:49.602Z</time></trkpt><trkpt lat="42.3086586" lon="13.2968636"><ele>774.0</ele><time>2026-05-02T16:40:50.602Z</time></trkpt><trkpt lat="42.3086128" lon="13.2969763"><ele>774.0</ele><time>2026-05-02T16:40:51.602Z</time></trkpt><trkpt lat="42.3085639" lon="13.2970943"><ele>774.0</ele><time>2026-05-02T16:40:52.602Z</time></trkpt><trkpt lat="42.3085079" lon="13.2972023"><ele>774.0</ele><time>2026-05-02T16:40:53.6Z</time></trkpt><trkpt lat="42.3084514" lon="13.2972958"><ele>774.0</ele><time>2026-05-02T16:40:54.601Z</time></trkpt><trkpt lat="42.308398" lon="13.2973828"><ele>773.5714285714286</ele><time>2026-05-02T16:40:55.599Z</time></trkpt><trkpt lat="42.3083598" lon="13.2974668"><ele>773.1428571428571</ele><time>2026-05-02T16:40:56.603Z</time></trkpt><trkpt lat="42.308338" lon="13.2975558"><ele>772.7142857142858</ele><time>2026-05-02T16:40:57.602Z</time></trkpt><trkpt lat="42.3083337" lon="13.297647"><ele>772.2857142857142</ele><time>2026-05-02T16:40:58.602Z</time></trkpt><trkpt lat="42.3083375" lon="13.297749"><ele>771.8571428571428</ele><time>2026-05-02T16:40:59.603Z</time></trkpt><trkpt lat="42.3083447" lon="13.2978608"><ele>771.4285714285714</ele><time>2026-05-02T16:41:00.601Z</time></trkpt><trkpt lat="42.3083537" lon="13.2979662"><ele>771.0</ele><time>2026-05-02T16:41:01.602Z</time></trkpt><trkpt lat="42.3083663" lon="13.2980539"><ele>770.4</ele><time>2026-05-02T16:41:02.6Z</time></trkpt><trkpt lat="42.3083863" lon="13.2982049"><ele>769.8</ele><time>2026-05-02T16:41:04.602Z</time></trkpt><trkpt lat="42.3083513" lon="13.2983197"><ele>769.1999999999999</ele><time>2026-05-02T16:41:06.602Z</time></trkpt><trkpt lat="42.3082535" lon="13.2984264"><ele>768.5999999999999</ele><time>2026-05-02T16:41:08.603Z</time></trkpt><trkpt lat="42.3082005" lon="13.2984751"><ele>768.0</ele><time>2026-05-02T16:41:09.603Z</time></trkpt><trkpt lat="42.3080815" lon="13.2985417"><ele>769.1666666666666</ele><time>2026-05-02T16:41:11.602Z</time></trkpt><trkpt lat="42.308014" lon="13.2985629"><ele>770.3333333333333</ele><time>2026-05-02T16:41:12.602Z</time></trkpt><trkpt lat="42.3079384" lon="13.2985673"><ele>771.5</ele><time>2026-05-02T16:41:13.602Z</time></trkpt><trkpt lat="42.307868" lon="13.2985785"><ele>772.6666666666666</ele><time>2026-05-02T16:41:14.6Z</time></trkpt><trkpt lat="42.3077934" lon="13.2985808"><ele>773.8333333333333</ele><time>2026-05-02T16:41:15.6Z</time></trkpt><trkpt lat="42.3077282" lon="13.2986055"><ele>775.0</ele><time>2026-05-02T16:41:16.599Z</time></trkpt><trkpt lat="42.3076235" lon="13.298699"><ele>775.0</ele><time>2026-05-02T16:41:18.602Z</time></trkpt><trkpt lat="42.3075367" lon="13.2988093"><ele>775.0</ele><time>2026-05-02T16:41:20.602Z</time></trkpt><trkpt lat="42.3074893" lon="13.298941"><ele>775.0</ele><time>2026-05-02T16:41:22.602Z</time></trkpt><trkpt lat="42.3074674" lon="13.2990974"><ele>775.0</ele><time>2026-05-02T16:41:24.602Z</time></trkpt><trkpt lat="42.3074117" lon="13.2992103"><ele>775.0</ele><time>2026-05-02T16:41:26.602Z</time></trkpt><trkpt lat="42.3073136" lon="13.2992578"><ele>775.2</ele><time>2026-05-02T16:41:28.602Z</time></trkpt><trkpt lat="42.3071858" lon="13.2992665"><ele>775.4</ele><time>2026-05-02T16:41:30.602Z</time></trkpt><trkpt lat="42.3071184" lon="13.2992709"><ele>775.5999999999999</ele><time>2026-05-02T16:41:31.603Z</time></trkpt><trkpt lat="42.3070176" lon="13.2992388"><ele>775.8</ele><time>2026-05-02T16:41:33.6Z</time></trkpt><trkpt lat="42.3069354" lon="13.2992531"><ele>776.0</ele><time>2026-05-02T16:41:35.601Z</time></trkpt><trkpt lat="42.3068767" lon="13.2993428"><ele>776.0000000000001</ele><time>2026-05-02T16:41:37.602Z</time></trkpt><trkpt lat="42.3068154" lon="13.2994401"><ele>776.0</ele><time>2026-05-02T16:41:39.602Z</time></trkpt><trkpt lat="42.3067455" lon="13.2994316"><ele>776.0</ele><time>2026-05-02T16:41:41.602Z</time></trkpt><trkpt lat="42.3066596" lon="13.2994263"><ele>776.0</ele><time>2026-05-02T16:41:43.602Z</time></trkpt><trkpt lat="42.3065983" lon="13.2994764"><ele>776.0000000000001</ele><time>2026-05-02T16:41:45.602Z</time></trkpt><trkpt lat="42.3065596" lon="13.299579"><ele>776.0</ele><time>2026-05-02T16:41:47.603Z</time></trkpt><trkpt lat="42.3065258" lon="13.2996829"><ele>776.1666666666667</ele><time>2026-05-02T16:41:49.603Z</time></trkpt><trkpt lat="42.3064772" lon="13.2997593"><ele>776.3333333333334</ele><time>2026-05-02T16:41:51.601Z</time></trkpt><trkpt lat="42.3064128" lon="13.2998063"><ele>776.5</ele><time>2026-05-02T16:41:53.6Z</time></trkpt><trkpt lat="42.3063335" lon="13.2998279"><ele>776.6666666666667</ele><time>2026-05-02T16:41:55.601Z</time></trkpt><trkpt lat="42.3062671" lon="13.2999144"><ele>776.8333333333334</ele><time>2026-05-02T16:41:57.601Z</time></trkpt><trkpt lat="42.3061789" lon="13.2999944"><ele>777.0</ele><time>2026-05-02T16:41:59.602Z</time></trkpt><trkpt lat="42.3061065" lon="13.3000135"><ele>777.0</ele><time>2026-05-02T16:42:01.6Z</time></trkpt><trkpt lat="42.3060321" lon="13.2999878"><ele>777.0</ele><time>2026-05-02T16:42:03.602Z</time></trkpt><trkpt lat="42.3059584" lon="13.2999921"><ele>777.0</ele><time>2026-05-02T16:42:05.603Z</time></trkpt><trkpt lat="42.305869" lon="13.3000309"><ele>777.0</ele><time>2026-05-02T16:42:07.602Z</time></trkpt><trkpt lat="42.3057898" lon="13.3000952"><ele>777.0</ele><time>2026-05-02T16:42:09.602Z</time></trkpt><trkpt lat="42.3056899" lon="13.300163"><ele>777.0</ele><time>2026-05-02T16:42:11.602Z</time></trkpt><trkpt lat="42.305603" lon="13.3002096"><ele>778.1666666666666</ele><time>2026-05-02T16:42:13.599Z</time></trkpt><trkpt lat="42.3055237" lon="13.3002849"><ele>779.3333333333333</ele><time>2026-05-02T16:42:15.601Z</time></trkpt><trkpt lat="42.3054559" lon="13.3003708"><ele>780.5</ele><time>2026-05-02T16:42:17.602Z</time></trkpt><trkpt lat="42.3053848" lon="13.3004054"><ele>781.6666666666666</ele><time>2026-05-02T16:42:19.603Z</time></trkpt><trkpt lat="42.305309" lon="13.3004134"><ele>782.8333333333333</ele><time>2026-05-02T16:42:21.602Z</time></trkpt><trkpt lat="42.3052131" lon="13.3004378"><ele>784.0</ele><time>2026-05-02T16:42:24.602Z</time></trkpt><trkpt lat="42.3051377" lon="13.3005646"><ele>783.4285714285714</ele><time>2026-05-02T16:42:26.602Z</time></trkpt><trkpt lat="42.3050367" lon="13.3006422"><ele>782.8571428571429</ele><time>2026-05-02T16:42:28.602Z</time></trkpt><trkpt lat="42.3049802" lon="13.3006821"><ele>782.2857142857142</ele><time>2026-05-02T16:42:29.603Z</time></trkpt><trkpt lat="42.3049233" lon="13.3007277"><ele>781.7142857142858</ele><time>2026-05-02T16:42:30.602Z</time></trkpt><trkpt lat="42.3048666" lon="13.300772"><ele>781.1428571428571</ele><time>2026-05-02T16:42:31.602Z</time></trkpt><trkpt lat="42.3048029" lon="13.3008167"><ele>780.5714285714286</ele><time>2026-05-02T16:42:32.603Z</time></trkpt><trkpt lat="42.3047439" lon="13.3008515"><ele>780.0</ele><time>2026-05-02T16:42:33.602Z</time></trkpt><trkpt lat="42.3046432" lon="13.3008998"><ele>780.0</ele><time>2026-05-02T16:42:35.603Z</time></trkpt><trkpt lat="42.3045527" lon="13.3009178"><ele>780.0</ele><time>2026-05-02T16:42:37.601Z</time></trkpt><trkpt lat="42.3044581" lon="13.3008925"><ele>780.0</ele><time>2026-05-02T16:42:39.601Z</time></trkpt><trkpt lat="42.304363" lon="13.3008684"><ele>780.0</ele><time>2026-05-02T16:42:41.603Z</time></trkpt><trkpt lat="42.3042622" lon="13.3008788"><ele>780.0</ele><time>2026-05-02T16:42:43.602Z</time></trkpt><trkpt lat="42.3041702" lon="13.3009697"><ele>780.0</ele><time>2026-05-02T16:42:45.602Z</time></trkpt><trkpt lat="42.3041287" lon="13.3010401"><ele>780.0</ele><time>2026-05-02T16:42:46.602Z</time></trkpt><trkpt lat="42.3040862" lon="13.3011171"><ele>780.0</ele><time>2026-05-02T16:42:47.599Z</time></trkpt><trkpt lat="42.304037" lon="13.3011925"><ele>780.0</ele><time>2026-05-02T16:42:48.602Z</time></trkpt><trkpt lat="42.3039893" lon="13.3012553"><ele>780.0</ele><time>2026-05-02T16:42:49.601Z</time></trkpt><trkpt lat="42.3039341" lon="13.3013131"><ele>780.0</ele><time>2026-05-02T16:42:50.6Z</time></trkpt><trkpt lat="42.3038497" lon="13.3013864"><ele>780.0</ele><time>2026-05-02T16:42:52.6Z</time></trkpt><trkpt lat="42.3037623" lon="13.3014007"><ele>781.0</ele><time>2026-05-02T16:42:54.601Z</time></trkpt><trkpt lat="42.3036764" lon="13.3013523"><ele>782.0</ele><time>2026-05-02T16:42:56.602Z</time></trkpt><trkpt lat="42.303575" lon="13.3013235"><ele>783.0</ele><time>2026-05-02T16:42:58.603Z</time></trkpt><trkpt lat="42.3034818" lon="13.3013889"><ele>784.0</ele><time>2026-05-02T16:43:00.602Z</time></trkpt><trkpt lat="42.3034315" lon="13.301447"><ele>785.0</ele><time>2026-05-02T16:43:01.6Z</time></trkpt><trkpt lat="42.3033265" lon="13.3015009"><ele>785.0000000000001</ele><time>2026-05-02T16:43:03.602Z</time></trkpt><trkpt lat="42.3032424" lon="13.3015045"><ele>785.0</ele><time>2026-05-02T16:43:05.599Z</time></trkpt><trkpt lat="42.3031594" lon="13.301493"><ele>785.0</ele><time>2026-05-02T16:43:07.6Z</time></trkpt><trkpt lat="42.3030482" lon="13.3015031"><ele>785.0</ele><time>2026-05-02T16:43:09.602Z</time></trkpt><trkpt lat="42.3029774" lon="13.3015275"><ele>785.0000000000001</ele><time>2026-05-02T16:43:10.603Z</time></trkpt><trkpt lat="42.3029091" lon="13.3015534"><ele>785.0</ele><time>2026-05-02T16:43:11.602Z</time></trkpt><trkpt lat="42.3028461" lon="13.3015775"><ele>785.4</ele><time>2026-05-02T16:43:12.599Z</time></trkpt><trkpt lat="42.3027834" lon="13.3016075"><ele>785.8</ele><time>2026-05-02T16:43:13.602Z</time></trkpt><trkpt lat="42.3026674" lon="13.3016642"><ele>786.2</ele><time>2026-05-02T16:43:15.602Z</time></trkpt><trkpt lat="42.3025477" lon="13.301642"><ele>786.6</ele><time>2026-05-02T16:43:17.602Z</time></trkpt><trkpt lat="42.3024434" lon="13.3016166"><ele>787.0</ele><time>2026-05-02T16:43:19.602Z</time></trkpt><trkpt lat="42.3023489" lon="13.301662"><ele>786.9999999999999</ele><time>2026-05-02T16:43:21.602Z</time></trkpt><trkpt lat="42.3022955" lon="13.3017123"><ele>787.0</ele><time>2026-05-02T16:43:22.602Z</time></trkpt><trkpt lat="42.3022417" lon="13.3017625"><ele>787.0</ele><time>2026-05-02T16:43:23.603Z</time></trkpt><trkpt lat="42.3021349" lon="13.301823"><ele>787.0</ele><time>2026-05-02T16:43:25.603Z</time></trkpt><trkpt lat="42.3020319" lon="13.3018413"><ele>786.9999999999999</ele><time>2026-05-02T16:43:27.602Z</time></trkpt><trkpt lat="42.3019677" lon="13.3019093"><ele>787.0</ele><time>2026-05-02T16:43:29.602Z</time></trkpt><trkpt lat="42.3019203" lon="13.3020203"><ele>787.0</ele><time>2026-05-02T16:43:31.6Z</time></trkpt><trkpt lat="42.3018613" lon="13.3021497"><ele>787.0</ele><time>2026-05-02T16:43:33.602Z</time></trkpt><trkpt lat="42.3017837" lon="13.3022596"><ele>787.0</ele><time>2026-05-02T16:43:35.602Z</time></trkpt><trkpt lat="42.3017733" lon="13.3023499"><ele>787.0</ele><time>2026-05-02T16:43:41.602Z</time></trkpt><trkpt lat="42.3018836" lon="13.3023269"><ele>787.0</ele><time>2026-05-02T16:43:44.602Z</time></trkpt><trkpt lat="42.3019692" lon="13.3023791"><ele>787.9999999999999</ele><time>2026-05-02T16:43:46.602Z</time></trkpt><trkpt lat="42.3020532" lon="13.3025208"><ele>789.0</ele><time>2026-05-02T16:43:48.599Z</time></trkpt><trkpt lat="42.302098" lon="13.3025857"><ele>790.0</ele><time>2026-05-02T16:43:49.601Z</time></trkpt><trkpt lat="42.3021527" lon="13.3026322"><ele>791.0</ele><time>2026-05-02T16:43:50.6Z</time></trkpt><trkpt lat="42.3022162" lon="13.30266"><ele>791.9999999999999</ele><time>2026-05-02T16:43:51.602Z</time></trkpt><trkpt lat="42.3022812" lon="13.302681"><ele>793.0</ele><time>2026-05-02T16:43:52.602Z</time></trkpt><trkpt lat="42.3023507" lon="13.3027029"><ele>792.9999999999999</ele><time>2026-05-02T16:43:53.602Z</time></trkpt><trkpt lat="42.302422" lon="13.3027333"><ele>793.0</ele><time>2026-05-02T16:43:54.602Z</time></trkpt><trkpt lat="42.302496" lon="13.3027734"><ele>793.0</ele><time>2026-05-02T16:43:55.602Z</time></trkpt><trkpt lat="42.302571" lon="13.3028151"><ele>793.0</ele><time>2026-05-02T16:43:56.603Z</time></trkpt><trkpt lat="42.3026512" lon="13.3028535"><ele>792.9999999999999</ele><time>2026-05-02T16:43:57.602Z</time></trkpt><trkpt lat="42.3027371" lon="13.3028768"><ele>793.0</ele><time>2026-05-02T16:43:58.603Z</time></trkpt><trkpt lat="42.3028272" lon="13.3028799"><ele>793.0</ele><time>2026-05-02T16:43:59.602Z</time></trkpt><trkpt lat="42.3029259" lon="13.302866"><ele>793.0</ele><time>2026-05-02T16:44:00.601Z</time></trkpt><trkpt lat="42.3030505" lon="13.3028439"><ele>793.0</ele><time>2026-05-02T16:44:01.602Z</time></trkpt><trkpt lat="42.3031807" lon="13.302817"><ele>793.0</ele><time>2026-05-02T16:44:02.6Z</time></trkpt><trkpt lat="42.3033283" lon="13.3027829"><ele>793.0</ele><time>2026-05-02T16:44:03.602Z</time></trkpt><trkpt lat="42.3034767" lon="13.302749"><ele>793.0</ele><time>2026-05-02T16:44:04.602Z</time></trkpt><trkpt lat="42.3036296" lon="13.3027238"><ele>793.0</ele><time>2026-05-02T16:44:05.601Z</time></trkpt><trkpt lat="42.303793" lon="13.3027186"><ele>794.3333333333333</ele><time>2026-05-02T16:44:06.6Z</time></trkpt><trkpt lat="42.3039675" lon="13.3027337"><ele>795.6666666666667</ele><time>2026-05-02T16:44:07.601Z</time></trkpt><trkpt lat="42.3041368" lon="13.3027584"><ele>797.0</ele><time>2026-05-02T16:44:08.602Z</time></trkpt><trkpt lat="42.3042971" lon="13.3027815"><ele>797.0</ele><time>2026-05-02T16:44:09.602Z</time></trkpt><trkpt lat="42.3044497" lon="13.3027831"><ele>797.0</ele><time>2026-05-02T16:44:10.601Z</time></trkpt><trkpt lat="42.3046138" lon="13.3027457"><ele>797.0</ele><time>2026-05-02T16:44:11.603Z</time></trkpt><trkpt lat="42.3047831" lon="13.3026775"><ele>799.3333333333334</ele><time>2026-05-02T16:44:12.602Z</time></trkpt><trkpt lat="42.3049502" lon="13.3026085"><ele>801.6666666666667</ele><time>2026-05-02T16:44:13.601Z</time></trkpt><trkpt lat="42.3051187" lon="13.3025492"><ele>804.0</ele><time>2026-05-02T16:44:14.6Z</time></trkpt><trkpt lat="42.305289" lon="13.3024991"><ele>804.0</ele><time>2026-05-02T16:44:15.602Z</time></trkpt><trkpt lat="42.3054654" lon="13.3024501"><ele>804.0</ele><time>2026-05-02T16:44:16.6Z</time></trkpt><trkpt lat="42.3056464" lon="13.302402"><ele>804.0</ele><time>2026-05-02T16:44:17.602Z</time></trkpt><trkpt lat="42.3058322" lon="13.3023552"><ele>804.6666666666667</ele><time>2026-05-02T16:44:18.603Z</time></trkpt><trkpt lat="42.306025" lon="13.3023019"><ele>805.3333333333334</ele><time>2026-05-02T16:44:19.601Z</time></trkpt><trkpt lat="42.3062186" lon="13.3022354"><ele>806.0</ele><time>2026-05-02T16:44:20.602Z</time></trkpt><trkpt lat="42.3064108" lon="13.3021573"><ele>803.0</ele><time>2026-05-02T16:44:21.602Z</time></trkpt><trkpt lat="42.3065969" lon="13.3020727"><ele>800.0</ele><time>2026-05-02T16:44:22.602Z</time></trkpt><trkpt lat="42.3067857" lon="13.3019898"><ele>797.0</ele><time>2026-05-02T16:44:23.602Z</time></trkpt><trkpt lat="42.3069757" lon="13.3019202"><ele>797.0</ele><time>2026-05-02T16:44:24.6Z</time></trkpt><trkpt lat="42.3071674" lon="13.3018609"><ele>797.0</ele><time>2026-05-02T16:44:25.603Z</time></trkpt><trkpt lat="42.3073581" lon="13.3018043"><ele>797.0</ele><time>2026-05-02T16:44:26.602Z</time></trkpt><trkpt lat="42.3075395" lon="13.3017534"><ele>798.0</ele><time>2026-05-02T16:44:27.602Z</time></trkpt><trkpt lat="42.3077098" lon="13.3016966"><ele>799.0</ele><time>2026-05-02T16:44:28.601Z</time></trkpt><trkpt lat="42.3078731" lon="13.3016309"><ele>800.0</ele><time>2026-05-02T16:44:29.603Z</time></trkpt><trkpt lat="42.3080129" lon="13.3015499"><ele>799.25</ele><time>2026-05-02T16:44:30.602Z</time></trkpt><trkpt lat="42.3081342" lon="13.3014439"><ele>798.5</ele><time>2026-05-02T16:44:31.603Z</time></trkpt><trkpt lat="42.3082465" lon="13.3013078"><ele>797.75</ele><time>2026-05-02T16:44:32.602Z</time></trkpt><trkpt lat="42.3083501" lon="13.3011657"><ele>797.0</ele><time>2026-05-02T16:44:33.6Z</time></trkpt><trkpt lat="42.3084501" lon="13.3010385"><ele>797.0</ele><time>2026-05-02T16:44:34.602Z</time></trkpt><trkpt lat="42.3085544" lon="13.3009185"><ele>797.0</ele><time>2026-05-02T16:44:35.603Z</time></trkpt><trkpt lat="42.3086608" lon="13.3008056"><ele>797.0</ele><time>2026-05-02T16:44:36.603Z</time></trkpt><trkpt lat="42.3087659" lon="13.3006999"><ele>797.0</ele><time>2026-05-02T16:44:37.602Z</time></trkpt><trkpt lat="42.3088812" lon="13.3006073"><ele>796.5</ele><time>2026-05-02T16:44:38.602Z</time></trkpt><trkpt lat="42.3090052" lon="13.3005244"><ele>796.0</ele><time>2026-05-02T16:44:39.602Z</time></trkpt><trkpt lat="42.3091388" lon="13.3004489"><ele>795.5</ele><time>2026-05-02T16:44:40.602Z</time></trkpt><trkpt lat="42.3092768" lon="13.3003844"><ele>795.0</ele><time>2026-05-02T16:44:41.602Z</time></trkpt><trkpt lat="42.3094209" lon="13.3003264"><ele>795.0</ele><time>2026-05-02T16:44:42.602Z</time></trkpt><trkpt lat="42.3095657" lon="13.3002797"><ele>795.0</ele><time>2026-05-02T16:44:43.601Z</time></trkpt><trkpt lat="42.3097002" lon="13.30024"><ele>795.0</ele><time>2026-05-02T16:44:44.6Z</time></trkpt><trkpt lat="42.3098287" lon="13.3001969"><ele>795.0</ele><time>2026-05-02T16:44:45.6Z</time></trkpt><trkpt lat="42.3099478" lon="13.3001412"><ele>797.25</ele><time>2026-05-02T16:44:46.603Z</time></trkpt><trkpt lat="42.3100507" lon="13.300064"><ele>799.5</ele><time>2026-05-02T16:44:47.602Z</time></trkpt><trkpt lat="42.3101366" lon="13.2999572"><ele>801.75</ele><time>2026-05-02T16:44:48.603Z</time></trkpt><trkpt lat="42.3102066" lon="13.2998244"><ele>804.0</ele><time>2026-05-02T16:44:49.602Z</time></trkpt><trkpt lat="42.3102673" lon="13.2996806"><ele>804.0</ele><time>2026-05-02T16:44:50.6Z</time></trkpt><trkpt lat="42.3103367" lon="13.2995466"><ele>804.0</ele><time>2026-05-02T16:44:51.602Z</time></trkpt><trkpt lat="42.3104193" lon="13.2994244"><ele>804.0</ele><time>2026-05-02T16:44:52.603Z</time></trkpt><trkpt lat="42.310517" lon="13.2993141"><ele>804.0</ele><time>2026-05-02T16:44:53.602Z</time></trkpt><trkpt lat="42.3106293" lon="13.2992075"><ele>805.5</ele><time>2026-05-02T16:44:54.603Z</time></trkpt><trkpt lat="42.3107462" lon="13.2991093"><ele>807.0</ele><time>2026-05-02T16:44:55.602Z</time></trkpt><trkpt lat="42.3108521" lon="13.2990184"><ele>808.5</ele><time>2026-05-02T16:44:56.602Z</time></trkpt><trkpt lat="42.3109522" lon="13.2989305"><ele>810.0</ele><time>2026-05-02T16:44:57.6Z</time></trkpt><trkpt lat="42.3110462" lon="13.2988468"><ele>810.0</ele><time>2026-05-02T16:44:58.602Z</time></trkpt><trkpt lat="42.3111424" lon="13.2987691"><ele>810.0</ele><time>2026-05-02T16:44:59.602Z</time></trkpt><trkpt lat="42.3112434" lon="13.298699"><ele>810.0</ele><time>2026-05-02T16:45:00.603Z</time></trkpt><trkpt lat="42.3113489" lon="13.2986292"><ele>810.0</ele><time>2026-05-02T16:45:01.603Z</time></trkpt><trkpt lat="42.3114586" lon="13.2985589"><ele>810.5</ele><time>2026-05-02T16:45:02.602Z</time></trkpt><trkpt lat="42.3115692" lon="13.2984918"><ele>811.0</ele><time>2026-05-02T16:45:03.602Z</time></trkpt><trkpt lat="42.3116765" lon="13.2984293"><ele>811.5</ele><time>2026-05-02T16:45:04.602Z</time></trkpt><trkpt lat="42.3117822" lon="13.298368"><ele>812.0</ele><time>2026-05-02T16:45:05.601Z</time></trkpt><trkpt lat="42.3118859" lon="13.2983138"><ele>812.0</ele><time>2026-05-02T16:45:06.602Z</time></trkpt><trkpt lat="42.3119924" lon="13.2982688"><ele>812.0</ele><time>2026-05-02T16:45:07.602Z</time></trkpt><trkpt lat="42.3121036" lon="13.2982317"><ele>812.0</ele><time>2026-05-02T16:45:08.602Z</time></trkpt><trkpt lat="42.312218" lon="13.2982048"><ele>812.0</ele><time>2026-05-02T16:45:09.602Z</time></trkpt><trkpt lat="42.312334" lon="13.2981872"><ele>811.8</ele><time>2026-05-02T16:45:10.602Z</time></trkpt><trkpt lat="42.3124466" lon="13.2981719"><ele>811.6</ele><time>2026-05-02T16:45:11.603Z</time></trkpt><trkpt lat="42.3125556" lon="13.2981566"><ele>811.4</ele><time>2026-05-02T16:45:12.601Z</time></trkpt><trkpt lat="42.3126579" lon="13.2981419"><ele>811.1999999999999</ele><time>2026-05-02T16:45:13.602Z</time></trkpt><trkpt lat="42.3127553" lon="13.2981285"><ele>811.0</ele><time>2026-05-02T16:45:14.6Z</time></trkpt><trkpt lat="42.3128484" lon="13.2981187"><ele>810.9999999999999</ele><time>2026-05-02T16:45:15.603Z</time></trkpt><trkpt lat="42.3129353" lon="13.2981168"><ele>811.0</ele><time>2026-05-02T16:45:16.602Z</time></trkpt><trkpt lat="42.3130209" lon="13.2981126"><ele>811.0</ele><time>2026-05-02T16:45:17.602Z</time></trkpt><trkpt lat="42.3131057" lon="13.298092"><ele>811.0</ele><time>2026-05-02T16:45:18.6Z</time></trkpt><trkpt lat="42.3131888" lon="13.2980593"><ele>810.9999999999999</ele><time>2026-05-02T16:45:19.602Z</time></trkpt><trkpt lat="42.3132786" lon="13.2980214"><ele>811.0</ele><time>2026-05-02T16:45:20.602Z</time></trkpt><trkpt lat="42.3133632" lon="13.2979876"><ele>810.4999999999999</ele><time>2026-05-02T16:45:21.603Z</time></trkpt><trkpt lat="42.3134454" lon="13.2979353"><ele>810.0</ele><time>2026-05-02T16:45:22.602Z</time></trkpt><trkpt lat="42.3135229" lon="13.2978755"><ele>809.5</ele><time>2026-05-02T16:45:23.601Z</time></trkpt><trkpt lat="42.3135963" lon="13.297819"><ele>809.0</ele><time>2026-05-02T16:45:24.6Z</time></trkpt><trkpt lat="42.313671" lon="13.2977688"><ele>808.4999999999999</ele><time>2026-05-02T16:45:25.602Z</time></trkpt><trkpt lat="42.3137463" lon="13.297723"><ele>808.0</ele><time>2026-05-02T16:45:26.601Z</time></trkpt><trkpt lat="42.3138218" lon="13.2976789"><ele>807.9999999999999</ele><time>2026-05-02T16:45:27.603Z</time></trkpt><trkpt lat="42.3138994" lon="13.2976471"><ele>808.0</ele><time>2026-05-02T16:45:28.603Z</time></trkpt><trkpt lat="42.3139796" lon="13.297634"><ele>808.0</ele><time>2026-05-02T16:45:29.602Z</time></trkpt><trkpt lat="42.314059" lon="13.2976418"><ele>808.0</ele><time>2026-05-02T16:45:30.601Z</time></trkpt><trkpt lat="42.3141423" lon="13.297678"><ele>807.9999999999999</ele><time>2026-05-02T16:45:31.602Z</time></trkpt><trkpt lat="42.3142306" lon="13.2977171"><ele>808.0</ele><time>2026-05-02T16:45:32.6Z</time></trkpt><trkpt lat="42.3143224" lon="13.297738"><ele>807.4</ele><time>2026-05-02T16:45:33.601Z</time></trkpt><trkpt lat="42.3144237" lon="13.2977405"><ele>806.8</ele><time>2026-05-02T16:45:34.602Z</time></trkpt><trkpt lat="42.3145294" lon="13.2977277"><ele>806.2</ele><time>2026-05-02T16:45:35.602Z</time></trkpt><trkpt lat="42.3146226" lon="13.2977138"><ele>805.6</ele><time>2026-05-02T16:45:36.602Z</time></trkpt><trkpt lat="42.3147108" lon="13.2976984"><ele>805.0</ele><time>2026-05-02T16:45:38.602Z</time></trkpt><trkpt lat="42.3146496" lon="13.2976479"><ele>804.9999999999999</ele><time>2026-05-02T16:45:43.601Z</time></trkpt><trkpt lat="42.3145872" lon="13.2976727"><ele>805.0</ele><time>2026-05-02T16:45:44.602Z</time></trkpt><trkpt lat="42.3145065" lon="13.2976974"><ele>805.0</ele><time>2026-05-02T16:45:45.602Z</time></trkpt><trkpt lat="42.3144202" lon="13.2977086"><ele>805.0</ele><time>2026-05-02T16:45:46.602Z</time></trkpt><trkpt lat="42.3143291" lon="13.2977012"><ele>804.9999999999999</ele><time>2026-05-02T16:45:47.602Z</time></trkpt><trkpt lat="42.3142482" lon="13.2976736"><ele>805.0</ele><time>2026-05-02T16:45:48.603Z</time></trkpt><trkpt lat="42.3141465" lon="13.2976515"><ele>805.0</ele><time>2026-05-02T16:45:50.603Z</time></trkpt><trkpt lat="42.314109" lon="13.2977371"><ele>805.0</ele><time>2026-05-02T16:45:52.602Z</time></trkpt><trkpt lat="42.3141252" lon="13.2979283"><ele>805.0</ele><time>2026-05-02T16:45:54.603Z</time></trkpt><trkpt lat="42.3141421" lon="13.2980453"><ele>805.0</ele><time>2026-05-02T16:45:55.602Z</time></trkpt><trkpt lat="42.314164" lon="13.2981773"><ele>805.0</ele><time>2026-05-02T16:45:56.603Z</time></trkpt><trkpt lat="42.3141885" lon="13.2983214"><ele>805.0</ele><time>2026-05-02T16:45:57.602Z</time></trkpt><trkpt lat="42.3142194" lon="13.2984724"><ele>805.0</ele><time>2026-05-02T16:45:58.601Z</time></trkpt><trkpt lat="42.3142533" lon="13.2986186"><ele>805.0</ele><time>2026-05-02T16:45:59.6Z</time></trkpt><trkpt lat="42.3142855" lon="13.2987641"><ele>805.0</ele><time>2026-05-02T16:46:00.603Z</time></trkpt><trkpt lat="42.3143127" lon="13.2989112"><ele>804.0</ele><time>2026-05-02T16:46:01.602Z</time></trkpt><trkpt lat="42.3143417" lon="13.2990465"><ele>803.0</ele><time>2026-05-02T16:46:02.602Z</time></trkpt><trkpt lat="42.3143794" lon="13.299157"><ele>802.0</ele><time>2026-05-02T16:46:03.603Z</time></trkpt><trkpt lat="42.3144368" lon="13.2992452"><ele>801.0</ele><time>2026-05-02T16:46:04.602Z</time></trkpt><trkpt lat="42.314512" lon="13.2993047"><ele>800.0</ele><time>2026-05-02T16:46:05.602Z</time></trkpt><trkpt lat="42.3146126" lon="13.2993505"><ele>800.0</ele><time>2026-05-02T16:46:06.603Z</time></trkpt><trkpt lat="42.314729" lon="13.2993827"><ele>800.0</ele><time>2026-05-02T16:46:07.602Z</time></trkpt><trkpt lat="42.3148528" lon="13.2994115"><ele>800.0</ele><time>2026-05-02T16:46:08.602Z</time></trkpt><trkpt lat="42.3149755" lon="13.2994324"><ele>800.0</ele><time>2026-05-02T16:46:09.602Z</time></trkpt><trkpt lat="42.3151005" lon="13.2994411"><ele>798.0</ele><time>2026-05-02T16:46:10.602Z</time></trkpt><trkpt lat="42.315228" lon="13.2994526"><ele>796.0</ele><time>2026-05-02T16:46:11.601Z</time></trkpt><trkpt lat="42.3153607" lon="13.2994727"><ele>794.0</ele><time>2026-05-02T16:46:12.603Z</time></trkpt><trkpt lat="42.3154824" lon="13.2994715"><ele>792.0</ele><time>2026-05-02T16:46:13.602Z</time></trkpt><trkpt lat="42.3156028" lon="13.2995055"><ele>791.2</ele><time>2026-05-02T16:46:14.603Z</time></trkpt><trkpt lat="42.3156948" lon="13.2995631"><ele>790.4000000000001</ele><time>2026-05-02T16:46:15.603Z</time></trkpt><trkpt lat="42.3157855" lon="13.2996372"><ele>789.5999999999999</ele><time>2026-05-02T16:46:16.601Z</time></trkpt><trkpt lat="42.3158683" lon="13.2997289"><ele>788.8</ele><time>2026-05-02T16:46:17.601Z</time></trkpt><trkpt lat="42.3159645" lon="13.2998178"><ele>788.0</ele><time>2026-05-02T16:46:18.599Z</time></trkpt><trkpt lat="42.3160685" lon="13.2998853"><ele>788.0</ele><time>2026-05-02T16:46:19.601Z</time></trkpt><trkpt lat="42.3161911" lon="13.2999265"><ele>788.0</ele><time>2026-05-02T16:46:20.603Z</time></trkpt><trkpt lat="42.3163404" lon="13.2999467"><ele>788.0</ele><time>2026-05-02T16:46:21.602Z</time></trkpt><trkpt lat="42.3165112" lon="13.2999474"><ele>788.0</ele><time>2026-05-02T16:46:22.603Z</time></trkpt><trkpt lat="42.3166906" lon="13.2999387"><ele>789.0</ele><time>2026-05-02T16:46:23.602Z</time></trkpt><trkpt lat="42.3168716" lon="13.2999394"><ele>790.0</ele><time>2026-05-02T16:46:24.602Z</time></trkpt><trkpt lat="42.317061" lon="13.2999434"><ele>791.0</ele><time>2026-05-02T16:46:25.602Z</time></trkpt><trkpt lat="42.3172336" lon="13.2999519"><ele>791.5</ele><time>2026-05-02T16:46:26.6Z</time></trkpt><trkpt lat="42.3173961" lon="13.2999629"><ele>792.0</ele><time>2026-05-02T16:46:27.602Z</time></trkpt><trkpt lat="42.3175434" lon="13.2999797"><ele>792.5</ele><time>2026-05-02T16:46:28.6Z</time></trkpt><trkpt lat="42.3176787" lon="13.2999944"><ele>793.0</ele><time>2026-05-02T16:46:29.6Z</time></trkpt><trkpt lat="42.3177961" lon="13.3000295"><ele>793.0</ele><time>2026-05-02T16:46:30.602Z</time></trkpt><trkpt lat="42.317883" lon="13.3000929"><ele>793.0</ele><time>2026-05-02T16:46:31.602Z</time></trkpt><trkpt lat="42.3179481" lon="13.3001911"><ele>793.0</ele><time>2026-05-02T16:46:32.602Z</time></trkpt><trkpt lat="42.3180227" lon="13.300326"><ele>793.0</ele><time>2026-05-02T16:46:33.603Z</time></trkpt><trkpt lat="42.3181139" lon="13.3004766"><ele>796.0</ele><time>2026-05-02T16:46:34.603Z</time></trkpt><trkpt lat="42.3182163" lon="13.3006281"><ele>799.0</ele><time>2026-05-02T16:46:35.603Z</time></trkpt><trkpt lat="42.3183261" lon="13.3007652"><ele>802.0</ele><time>2026-05-02T16:46:36.603Z</time></trkpt><trkpt lat="42.3184423" lon="13.3008797"><ele>805.0</ele><time>2026-05-02T16:46:37.603Z</time></trkpt><trkpt lat="42.3185517" lon="13.3009677"><ele>805.0</ele><time>2026-05-02T16:46:38.601Z</time></trkpt><trkpt lat="42.3186559" lon="13.3010369"><ele>805.0</ele><time>2026-05-02T16:46:39.603Z</time></trkpt><trkpt lat="42.3187528" lon="13.3010929"><ele>805.0</ele><time>2026-05-02T16:46:40.602Z</time></trkpt><trkpt lat="42.3188278" lon="13.3011349"><ele>805.0</ele><time>2026-05-02T16:46:41.602Z</time></trkpt><trkpt lat="42.3188999" lon="13.3011765"><ele>805.0</ele><time>2026-05-02T16:46:43.603Z</time></trkpt><trkpt lat="42.3189161" lon="13.30128"><ele>804.9999999999999</ele><time>2026-05-02T16:46:47.602Z</time></trkpt><trkpt lat="42.3188784" lon="13.3013813"><ele>805.0</ele><time>2026-05-02T16:46:49.602Z</time></trkpt><trkpt lat="42.3188228" lon="13.3015267"><ele>805.0</ele><time>2026-05-02T16:46:51.603Z</time></trkpt><trkpt lat="42.318787" lon="13.3016005"><ele>805.0</ele><time>2026-05-02T16:46:52.602Z</time></trkpt><trkpt lat="42.3187451" lon="13.3016823"><ele>804.9999999999999</ele><time>2026-05-02T16:46:53.603Z</time></trkpt><trkpt lat="42.3187034" lon="13.3017657"><ele>805.0</ele><time>2026-05-02T16:46:54.601Z</time></trkpt><trkpt lat="42.3186622" lon="13.3018585"><ele>805.2857142857143</ele><time>2026-05-02T16:46:55.603Z</time></trkpt><trkpt lat="42.3186218" lon="13.3019533"><ele>805.5714285714286</ele><time>2026-05-02T16:46:56.603Z</time></trkpt><trkpt lat="42.318586" lon="13.3020395"><ele>805.8571428571429</ele><time>2026-05-02T16:46:57.602Z</time></trkpt><trkpt lat="42.3185486" lon="13.3021199"><ele>806.1428571428571</ele><time>2026-05-02T16:46:58.601Z</time></trkpt><trkpt lat="42.3185139" lon="13.3021992"><ele>806.4285714285714</ele><time>2026-05-02T16:46:59.599Z</time></trkpt><trkpt lat="42.318481" lon="13.302276"><ele>806.7142857142858</ele><time>2026-05-02T16:47:00.6Z</time></trkpt><trkpt lat="42.3184505" lon="13.3023551"><ele>807.0</ele><time>2026-05-02T16:47:01.601Z</time></trkpt><trkpt lat="42.3184209" lon="13.3024338"><ele>807.0000000000001</ele><time>2026-05-02T16:47:02.603Z</time></trkpt><trkpt lat="42.3183869" lon="13.3025063"><ele>807.0</ele><time>2026-05-02T16:47:03.601Z</time></trkpt><trkpt lat="42.3183471" lon="13.3025754"><ele>807.0</ele><time>2026-05-02T16:47:04.602Z</time></trkpt><trkpt lat="42.3183113" lon="13.3026511"><ele>807.0</ele><time>2026-05-02T16:47:05.602Z</time></trkpt><trkpt lat="42.3182776" lon="13.3027328"><ele>807.0</ele><time>2026-05-02T16:47:06.603Z</time></trkpt><trkpt lat="42.3182427" lon="13.3028221"><ele>807.0000000000001</ele><time>2026-05-02T16:47:07.602Z</time></trkpt><trkpt lat="42.3182078" lon="13.3029207"><ele>807.0</ele><time>2026-05-02T16:47:08.602Z</time></trkpt><trkpt lat="42.3181749" lon="13.3030318"><ele>806.6666666666666</ele><time>2026-05-02T16:47:09.602Z</time></trkpt><trkpt lat="42.318147" lon="13.3031467"><ele>806.3333333333333</ele><time>2026-05-02T16:47:10.602Z</time></trkpt><trkpt lat="42.3181212" lon="13.3032538"><ele>806.0</ele><time>2026-05-02T16:47:11.602Z</time></trkpt><trkpt lat="42.3180958" lon="13.3033482"><ele>805.6666666666666</ele><time>2026-05-02T16:47:12.6Z</time></trkpt><trkpt lat="42.3180671" lon="13.303443"><ele>805.3333333333333</ele><time>2026-05-02T16:47:13.602Z</time></trkpt><trkpt lat="42.3180361" lon="13.3035382"><ele>805.0</ele><time>2026-05-02T16:47:14.602Z</time></trkpt><trkpt lat="42.3180009" lon="13.3036258"><ele>807.3333333333333</ele><time>2026-05-02T16:47:15.599Z</time></trkpt><trkpt lat="42.317968" lon="13.3037188"><ele>809.6666666666666</ele><time>2026-05-02T16:47:16.599Z</time></trkpt><trkpt lat="42.317941" lon="13.3038151"><ele>812.0</ele><time>2026-05-02T16:47:17.6Z</time></trkpt><trkpt lat="42.3179133" lon="13.303913"><ele>814.3333333333333</ele><time>2026-05-02T16:47:18.603Z</time></trkpt><trkpt lat="42.3178844" lon="13.3040071"><ele>816.6666666666666</ele><time>2026-05-02T16:47:19.602Z</time></trkpt><trkpt lat="42.3178529" lon="13.3040992"><ele>819.0</ele><time>2026-05-02T16:47:20.603Z</time></trkpt><trkpt lat="42.3178233" lon="13.304194"><ele>819.0</ele><time>2026-05-02T16:47:21.602Z</time></trkpt><trkpt lat="42.3177925" lon="13.3042915"><ele>819.0</ele><time>2026-05-02T16:47:22.603Z</time></trkpt><trkpt lat="42.317761" lon="13.3043838"><ele>819.0</ele><time>2026-05-02T16:47:23.601Z</time></trkpt><trkpt lat="42.3177247" lon="13.3044813"><ele>819.0</ele><time>2026-05-02T16:47:24.602Z</time></trkpt><trkpt lat="42.3176838" lon="13.3045764"><ele>819.0</ele><time>2026-05-02T16:47:25.601Z</time></trkpt><trkpt lat="42.3176404" lon="13.3046729"><ele>819.0</ele><time>2026-05-02T16:47:26.601Z</time></trkpt><trkpt lat="42.3175983" lon="13.3047688"><ele>818.3333333333334</ele><time>2026-05-02T16:47:27.602Z</time></trkpt><trkpt lat="42.3175538" lon="13.3048567"><ele>817.6666666666667</ele><time>2026-05-02T16:47:28.603Z</time></trkpt><trkpt lat="42.3175064" lon="13.3049402"><ele>817.0</ele><time>2026-05-02T16:47:29.6Z</time></trkpt><trkpt lat="42.3174626" lon="13.3050249"><ele>816.3333333333334</ele><time>2026-05-02T16:47:30.603Z</time></trkpt><trkpt lat="42.3174162" lon="13.3051132"><ele>815.6666666666667</ele><time>2026-05-02T16:47:31.602Z</time></trkpt><trkpt lat="42.3173738" lon="13.3052044"><ele>815.0</ele><time>2026-05-02T16:47:32.602Z</time></trkpt><trkpt lat="42.3173318" lon="13.3052929"><ele>815.0000000000001</ele><time>2026-05-02T16:47:33.602Z</time></trkpt><trkpt lat="42.3172897" lon="13.3053802"><ele>815.0</ele><time>2026-05-02T16:47:34.598Z</time></trkpt><trkpt lat="42.3172535" lon="13.3054681"><ele>815.0</ele><time>2026-05-02T16:47:35.602Z</time></trkpt><trkpt lat="42.3172223" lon="13.305563"><ele>815.0</ele><time>2026-05-02T16:47:36.602Z</time></trkpt><trkpt lat="42.3172022" lon="13.3056669"><ele>815.0000000000001</ele><time>2026-05-02T16:47:37.603Z</time></trkpt><trkpt lat="42.3171903" lon="13.3057752"><ele>815.0</ele><time>2026-05-02T16:47:38.602Z</time></trkpt><trkpt lat="42.3171779" lon="13.3058892"><ele>816.0</ele><time>2026-05-02T16:47:39.6Z</time></trkpt><trkpt lat="42.3171665" lon="13.3060058"><ele>817.0</ele><time>2026-05-02T16:47:40.601Z</time></trkpt><trkpt lat="42.3171552" lon="13.3061251"><ele>818.0</ele><time>2026-05-02T16:47:41.601Z</time></trkpt><trkpt lat="42.3171436" lon="13.3062469"><ele>819.0</ele><time>2026-05-02T16:47:42.603Z</time></trkpt><trkpt lat="42.317131" lon="13.3063731"><ele>820.0</ele><time>2026-05-02T16:47:43.602Z</time></trkpt><trkpt lat="42.3171185" lon="13.306499"><ele>820.0</ele><time>2026-05-02T16:47:44.602Z</time></trkpt><trkpt lat="42.317107" lon="13.3066328"><ele>820.0</ele><time>2026-05-02T16:47:45.602Z</time></trkpt><trkpt lat="42.3170933" lon="13.3067683"><ele>820.0</ele><time>2026-05-02T16:47:46.603Z</time></trkpt><trkpt lat="42.3170752" lon="13.306907"><ele>820.0</ele><time>2026-05-02T16:47:47.6Z</time></trkpt><trkpt lat="42.3170565" lon="13.3070434"><ele>820.0</ele><time>2026-05-02T16:47:48.602Z</time></trkpt><trkpt lat="42.3170365" lon="13.3071756"><ele>820.6</ele><time>2026-05-02T16:47:49.603Z</time></trkpt><trkpt lat="42.317019" lon="13.3073019"><ele>821.2</ele><time>2026-05-02T16:47:50.601Z</time></trkpt><trkpt lat="42.3170015" lon="13.3074242"><ele>821.8</ele><time>2026-05-02T16:47:51.602Z</time></trkpt><trkpt lat="42.3169814" lon="13.3075461"><ele>822.4</ele><time>2026-05-02T16:47:52.602Z</time></trkpt><trkpt lat="42.316955" lon="13.3076653"><ele>823.0</ele><time>2026-05-02T16:47:53.602Z</time></trkpt><trkpt lat="42.3169288" lon="13.3077785"><ele>823.0</ele><time>2026-05-02T16:47:54.602Z</time></trkpt><trkpt lat="42.316894" lon="13.3078918"><ele>823.0</ele><time>2026-05-02T16:47:55.602Z</time></trkpt><trkpt lat="42.3168433" lon="13.3080036"><ele>823.0</ele><time>2026-05-02T16:47:56.602Z</time></trkpt><trkpt lat="42.3167839" lon="13.3081173"><ele>823.0</ele><time>2026-05-02T16:47:57.6Z</time></trkpt><trkpt lat="42.3167196" lon="13.3082314"><ele>823.0</ele><time>2026-05-02T16:47:58.6Z</time></trkpt><trkpt lat="42.3166537" lon="13.3083353"><ele>822.9999999999999</ele><time>2026-05-02T16:47:59.602Z</time></trkpt><trkpt lat="42.3165937" lon="13.3084315"><ele>823.0</ele><time>2026-05-02T16:48:00.601Z</time></trkpt><trkpt lat="42.3165391" lon="13.3085315"><ele>823.0</ele><time>2026-05-02T16:48:01.603Z</time></trkpt><trkpt lat="42.3164962" lon="13.3086348"><ele>823.0</ele><time>2026-05-02T16:48:02.599Z</time></trkpt><trkpt lat="42.3164612" lon="13.3087359"><ele>822.9999999999999</ele><time>2026-05-02T16:48:03.599Z</time></trkpt><trkpt lat="42.3164308" lon="13.3088427"><ele>823.0</ele><time>2026-05-02T16:48:04.599Z</time></trkpt><trkpt lat="42.3163926" lon="13.3089437"><ele>822.9999999999999</ele><time>2026-05-02T16:48:05.602Z</time></trkpt><trkpt lat="42.3163434" lon="13.3090383"><ele>823.0</ele><time>2026-05-02T16:48:06.603Z</time></trkpt><trkpt lat="42.3162902" lon="13.3091295"><ele>823.0</ele><time>2026-05-02T16:48:07.601Z</time></trkpt><trkpt lat="42.3162351" lon="13.3092226"><ele>823.0</ele><time>2026-05-02T16:48:08.6Z</time></trkpt><trkpt lat="42.3161784" lon="13.3093174"><ele>822.9999999999999</ele><time>2026-05-02T16:48:09.603Z</time></trkpt><trkpt lat="42.3161184" lon="13.3094113"><ele>823.0</ele><time>2026-05-02T16:48:10.603Z</time></trkpt><trkpt lat="42.3160577" lon="13.309508"><ele>823.0</ele><time>2026-05-02T16:48:11.602Z</time></trkpt><trkpt lat="42.3159955" lon="13.309602"><ele>823.0</ele><time>2026-05-02T16:48:12.603Z</time></trkpt><trkpt lat="42.3159315" lon="13.3097008"><ele>823.0</ele><time>2026-05-02T16:48:13.603Z</time></trkpt><trkpt lat="42.3158736" lon="13.3098029"><ele>823.0</ele><time>2026-05-02T16:48:14.602Z</time></trkpt><trkpt lat="42.3158159" lon="13.3099126"><ele>823.0</ele><time>2026-05-02T16:48:15.602Z</time></trkpt><trkpt lat="42.3157601" lon="13.3100223"><ele>823.8333333333333</ele><time>2026-05-02T16:48:16.602Z</time></trkpt><trkpt lat="42.3157073" lon="13.3101214"><ele>824.6666666666666</ele><time>2026-05-02T16:48:17.6Z</time></trkpt><trkpt lat="42.3156563" lon="13.3102097"><ele>825.5</ele><time>2026-05-02T16:48:18.603Z</time></trkpt><trkpt lat="42.3156024" lon="13.3102984"><ele>826.3333333333333</ele><time>2026-05-02T16:48:19.6Z</time></trkpt><trkpt lat="42.3155452" lon="13.31038"><ele>827.1666666666666</ele><time>2026-05-02T16:48:20.602Z</time></trkpt><trkpt lat="42.315494" lon="13.3104549"><ele>828.0</ele><time>2026-05-02T16:48:21.602Z</time></trkpt><trkpt lat="42.3154473" lon="13.3105331"><ele>829.4</ele><time>2026-05-02T16:48:22.602Z</time></trkpt><trkpt lat="42.3154045" lon="13.3105991"><ele>830.8</ele><time>2026-05-02T16:48:23.602Z</time></trkpt><trkpt lat="42.3153341" lon="13.3107386"><ele>832.2</ele><time>2026-05-02T16:48:25.602Z</time></trkpt><trkpt lat="42.3152912" lon="13.3108069"><ele>833.6</ele><time>2026-05-02T16:48:26.602Z</time></trkpt><trkpt lat="42.3152457" lon="13.3108723"><ele>835.0</ele><time>2026-05-02T16:48:27.603Z</time></trkpt><trkpt lat="42.3151492" lon="13.3109891"><ele>834.9999999999999</ele><time>2026-05-02T16:48:29.603Z</time></trkpt><trkpt lat="42.3150913" lon="13.311037"><ele>835.0</ele><time>2026-05-02T16:48:30.6Z</time></trkpt><trkpt lat="42.3150333" lon="13.3110876"><ele>835.0</ele><time>2026-05-02T16:48:31.602Z</time></trkpt><trkpt lat="42.3149711" lon="13.3111272"><ele>835.0</ele><time>2026-05-02T16:48:32.602Z</time></trkpt><trkpt lat="42.3148826" lon="13.3111958"><ele>834.9999999999999</ele><time>2026-05-02T16:48:34.603Z</time></trkpt><trkpt lat="42.3148363" lon="13.3112774"><ele>835.0</ele><time>2026-05-02T16:48:36.602Z</time></trkpt><trkpt lat="42.3148262" lon="13.3113726"><ele>833.6</ele><time>2026-05-02T16:48:38.599Z</time></trkpt><trkpt lat="42.3148494" lon="13.3114795"><ele>832.2</ele><time>2026-05-02T16:48:40.603Z</time></trkpt><trkpt lat="42.3148921" lon="13.3115464"><ele>830.8</ele><time>2026-05-02T16:48:42.601Z</time></trkpt><trkpt lat="42.314975" lon="13.3116151"><ele>829.4</ele><time>2026-05-02T16:48:44.599Z</time></trkpt><trkpt lat="42.3150694" lon="13.311702"><ele>828.0</ele><time>2026-05-02T16:48:46.602Z</time></trkpt><trkpt lat="42.3151466" lon="13.3118134"><ele>828.0</ele><time>2026-05-02T16:48:48.602Z</time></trkpt><trkpt lat="42.3152185" lon="13.3119397"><ele>828.0</ele><time>2026-05-02T16:48:50.602Z</time></trkpt><trkpt lat="42.315292" lon="13.3120699"><ele>828.0</ele><time>2026-05-02T16:48:52.602Z</time></trkpt><trkpt lat="42.3153357" lon="13.3121387"><ele>828.0</ele><time>2026-05-02T16:48:53.602Z</time></trkpt><trkpt lat="42.3153848" lon="13.3122178"><ele>828.0</ele><time>2026-05-02T16:48:54.6Z</time></trkpt><trkpt lat="42.3154289" lon="13.312296"><ele>828.3333333333334</ele><time>2026-05-02T16:48:55.6Z</time></trkpt><trkpt lat="42.3154783" lon="13.3123727"><ele>828.6666666666667</ele><time>2026-05-02T16:48:56.6Z</time></trkpt><trkpt lat="42.3155264" lon="13.3124394"><ele>829.0</ele><time>2026-05-02T16:48:57.603Z</time></trkpt><trkpt lat="42.315578" lon="13.3124945"><ele>829.3333333333334</ele><time>2026-05-02T16:48:58.603Z</time></trkpt><trkpt lat="42.3156698" lon="13.3125531"><ele>829.6666666666667</ele><time>2026-05-02T16:49:00.603Z</time></trkpt><trkpt lat="42.3157716" lon="13.3125393"><ele>830.0</ele><time>2026-05-02T16:49:02.602Z</time></trkpt><trkpt lat="42.3158882" lon="13.3125401"><ele>830.4</ele><time>2026-05-02T16:49:04.602Z</time></trkpt><trkpt lat="42.316003" lon="13.3125975"><ele>830.8</ele><time>2026-05-02T16:49:06.603Z</time></trkpt><trkpt lat="42.316114" lon="13.3126668"><ele>831.2</ele><time>2026-05-02T16:49:08.598Z</time></trkpt><trkpt lat="42.3162196" lon="13.3127247"><ele>831.6</ele><time>2026-05-02T16:49:10.602Z</time></trkpt><trkpt lat="42.3162766" lon="13.3127644"><ele>832.0</ele><time>2026-05-02T16:49:11.603Z</time></trkpt><trkpt lat="42.3163349" lon="13.3128056"><ele>832.0</ele><time>2026-05-02T16:49:12.603Z</time></trkpt><trkpt lat="42.3163929" lon="13.3128531"><ele>832.0</ele><time>2026-05-02T16:49:13.602Z</time></trkpt><trkpt lat="42.3164543" lon="13.3128942"><ele>832.0</ele><time>2026-05-02T16:49:14.602Z</time></trkpt><trkpt lat="42.3165163" lon="13.312926"><ele>832.0</ele><time>2026-05-02T16:49:15.603Z</time></trkpt><trkpt lat="42.3165867" lon="13.3129562"><ele>832.0</ele><time>2026-05-02T16:49:16.602Z</time></trkpt><trkpt lat="42.3166559" lon="13.3130049"><ele>832.0</ele><time>2026-05-02T16:49:17.6Z</time></trkpt><trkpt lat="42.3167268" lon="13.313058"><ele>832.0</ele><time>2026-05-02T16:49:18.602Z</time></trkpt><trkpt lat="42.3167987" lon="13.3130977"><ele>834.2857142857142</ele><time>2026-05-02T16:49:19.6Z</time></trkpt><trkpt lat="42.3168714" lon="13.3131298"><ele>836.5714285714287</ele><time>2026-05-02T16:49:20.601Z</time></trkpt><trkpt lat="42.3169442" lon="13.3131572"><ele>838.8571428571429</ele><time>2026-05-02T16:49:21.602Z</time></trkpt><trkpt lat="42.3170157" lon="13.3131655"><ele>841.1428571428571</ele><time>2026-05-02T16:49:22.602Z</time></trkpt><trkpt lat="42.3170882" lon="13.3131559"><ele>843.4285714285713</ele><time>2026-05-02T16:49:23.602Z</time></trkpt><trkpt lat="42.3171581" lon="13.3131481"><ele>845.7142857142858</ele><time>2026-05-02T16:49:24.603Z</time></trkpt><trkpt lat="42.3172213" lon="13.3131569"><ele>848.0</ele><time>2026-05-02T16:49:25.601Z</time></trkpt><trkpt lat="42.3173232" lon="13.3132189"><ele>848.8333333333334</ele><time>2026-05-02T16:49:27.601Z</time></trkpt><trkpt lat="42.3174242" lon="13.3133213"><ele>849.6666666666667</ele><time>2026-05-02T16:49:29.603Z</time></trkpt><trkpt lat="42.3174769" lon="13.3133796"><ele>850.5</ele><time>2026-05-02T16:49:30.602Z</time></trkpt><trkpt lat="42.3175307" lon="13.3134384"><ele>851.3333333333333</ele><time>2026-05-02T16:49:31.602Z</time></trkpt><trkpt lat="42.3175899" lon="13.3135013"><ele>852.1666666666666</ele><time>2026-05-02T16:49:32.603Z</time></trkpt><trkpt lat="42.3176535" lon="13.3135699"><ele>853.0</ele><time>2026-05-02T16:49:33.601Z</time></trkpt><trkpt lat="42.3177177" lon="13.3136375"><ele>852.9999999999999</ele><time>2026-05-02T16:49:34.602Z</time></trkpt><trkpt lat="42.3177754" lon="13.3136978"><ele>853.0</ele><time>2026-05-02T16:49:35.602Z</time></trkpt><trkpt lat="42.3178318" lon="13.3137549"><ele>853.0</ele><time>2026-05-02T16:49:36.602Z</time></trkpt><trkpt lat="42.3178858" lon="13.3138046"><ele>853.0</ele><time>2026-05-02T16:49:37.602Z</time></trkpt><trkpt lat="42.3179876" lon="13.3139076"><ele>852.9999999999999</ele><time>2026-05-02T16:49:39.602Z</time></trkpt><trkpt lat="42.3180481" lon="13.3139573"><ele>853.0</ele><time>2026-05-02T16:49:40.602Z</time></trkpt><trkpt lat="42.3181551" lon="13.3140215"><ele>852.8333333333333</ele><time>2026-05-02T16:49:42.602Z</time></trkpt><trkpt lat="42.318245" lon="13.314067"><ele>852.6666666666666</ele><time>2026-05-02T16:49:44.599Z</time></trkpt><trkpt lat="42.3183178" lon="13.3140997"><ele>852.5</ele><time>2026-05-02T16:49:48.6Z</time></trkpt><trkpt lat="42.3184051" lon="13.314068"><ele>852.3333333333333</ele><time>2026-05-02T16:49:50.602Z</time></trkpt><trkpt lat="42.3184575" lon="13.3139968"><ele>852.1666666666666</ele><time>2026-05-02T16:49:51.602Z</time></trkpt><trkpt lat="42.3185121" lon="13.3139211"><ele>852.0</ele><time>2026-05-02T16:49:52.602Z</time></trkpt><trkpt lat="42.3185606" lon="13.3138403"><ele>852.0</ele><time>2026-05-02T16:49:53.6Z</time></trkpt><trkpt lat="42.3186062" lon="13.3137665"><ele>852.0</ele><time>2026-05-02T16:49:54.602Z</time></trkpt><trkpt lat="42.318721" lon="13.3137173"><ele>852.0</ele><time>2026-05-02T16:49:56.602Z</time></trkpt><trkpt lat="42.3187819" lon="13.3137402"><ele>852.0</ele><time>2026-05-02T16:49:57.602Z</time></trkpt><trkpt lat="42.3188443" lon="13.3137824"><ele>852.0</ele><time>2026-05-02T16:49:58.602Z</time></trkpt><trkpt lat="42.3189119" lon="13.3138251"><ele>852.0</ele><time>2026-05-02T16:49:59.602Z</time></trkpt><trkpt lat="42.3189797" lon="13.313873"><ele>851.1666666666666</ele><time>2026-05-02T16:50:00.603Z</time></trkpt><trkpt lat="42.3190487" lon="13.313929"><ele>850.3333333333333</ele><time>2026-05-02T16:50:01.6Z</time></trkpt><trkpt lat="42.3191165" lon="13.3139908"><ele>849.5</ele><time>2026-05-02T16:50:02.603Z</time></trkpt><trkpt lat="42.3191879" lon="13.3140535"><ele>848.6666666666666</ele><time>2026-05-02T16:50:03.602Z</time></trkpt><trkpt lat="42.3192676" lon="13.3141206"><ele>847.8333333333333</ele><time>2026-05-02T16:50:04.602Z</time></trkpt><trkpt lat="42.3193447" lon="13.3141838"><ele>847.0</ele><time>2026-05-02T16:50:05.601Z</time></trkpt><trkpt lat="42.3194307" lon="13.3142529"><ele>847.0</ele><time>2026-05-02T16:50:06.602Z</time></trkpt><trkpt lat="42.3195328" lon="13.314327"><ele>847.0</ele><time>2026-05-02T16:50:07.603Z</time></trkpt><trkpt lat="42.3196348" lon="13.3144088"><ele>847.0</ele><time>2026-05-02T16:50:08.6Z</time></trkpt><trkpt lat="42.3197359" lon="13.314494"><ele>847.0</ele><time>2026-05-02T16:50:09.6Z</time></trkpt><trkpt lat="42.3198393" lon="13.3145762"><ele>845.5</ele><time>2026-05-02T16:50:10.601Z</time></trkpt><trkpt lat="42.319942" lon="13.3146582"><ele>844.0</ele><time>2026-05-02T16:50:11.603Z</time></trkpt><trkpt lat="42.32004" lon="13.314733"><ele>842.5</ele><time>2026-05-02T16:50:12.602Z</time></trkpt><trkpt lat="42.3201418" lon="13.3148146"><ele>841.0</ele><time>2026-05-02T16:50:13.603Z</time></trkpt><trkpt lat="42.3202408" lon="13.314896"><ele>840.4999999999999</ele><time>2026-05-02T16:50:14.601Z</time></trkpt><trkpt lat="42.3203242" lon="13.3149648"><ele>840.0</ele><time>2026-05-02T16:50:15.603Z</time></trkpt><trkpt lat="42.3203801" lon="13.3150232"><ele>839.5</ele><time>2026-05-02T16:50:16.602Z</time></trkpt><trkpt lat="42.3204211" lon="13.315093"><ele>839.0</ele><time>2026-05-02T16:50:17.602Z</time></trkpt><trkpt lat="42.3204328" lon="13.3152719"><ele>838.4999999999999</ele><time>2026-05-02T16:50:19.602Z</time></trkpt><trkpt lat="42.3204187" lon="13.3153691"><ele>838.0</ele><time>2026-05-02T16:50:20.602Z</time></trkpt><trkpt lat="42.3203886" lon="13.3154649"><ele>837.9999999999999</ele><time>2026-05-02T16:50:21.602Z</time></trkpt><trkpt lat="42.3203409" lon="13.3155391"><ele>838.0</ele><time>2026-05-02T16:50:22.603Z</time></trkpt><trkpt lat="42.3203035" lon="13.3156217"><ele>838.0</ele><time>2026-05-02T16:50:23.603Z</time></trkpt><trkpt lat="42.3202848" lon="13.3157365"><ele>838.0</ele><time>2026-05-02T16:50:24.602Z</time></trkpt><trkpt lat="42.3202668" lon="13.3158602"><ele>837.9999999999999</ele><time>2026-05-02T16:50:25.603Z</time></trkpt><trkpt lat="42.3202498" lon="13.3159661"><ele>838.0</ele><time>2026-05-02T16:50:26.603Z</time></trkpt><trkpt lat="42.3202183" lon="13.3161032"><ele>837.8333333333333</ele><time>2026-05-02T16:50:28.602Z</time></trkpt><trkpt lat="42.3202031" lon="13.3162002"><ele>837.6666666666666</ele><time>2026-05-02T16:50:30.603Z</time></trkpt><trkpt lat="42.3201803" lon="13.3163252"><ele>837.5</ele><time>2026-05-02T16:50:32.601Z</time></trkpt><trkpt lat="42.3201763" lon="13.3164103"><ele>837.3333333333333</ele><time>2026-05-02T16:50:34.603Z</time></trkpt><trkpt lat="42.3201943" lon="13.3162894"><ele>837.1666666666666</ele><time>2026-05-02T16:50:45.6Z</time></trkpt><trkpt lat="42.3202138" lon="13.3161934"><ele>837.0</ele><time>2026-05-02T16:50:46.599Z</time></trkpt><trkpt lat="42.3202337" lon="13.3160797"><ele>837.0</ele><time>2026-05-02T16:50:47.602Z</time></trkpt><trkpt lat="42.3202474" lon="13.3159608"><ele>837.0</ele><time>2026-05-02T16:50:48.599Z</time></trkpt><trkpt lat="42.3202636" lon="13.3158517"><ele>837.0</ele><time>2026-05-02T16:50:49.602Z</time></trkpt><trkpt lat="42.3202746" lon="13.3157441"><ele>837.0</ele><time>2026-05-02T16:50:50.599Z</time></trkpt><trkpt lat="42.3202973" lon="13.3156455"><ele>837.0</ele><time>2026-05-02T16:50:51.6Z</time></trkpt><trkpt lat="42.3203333" lon="13.3155738"><ele>837.0</ele><time>2026-05-02T16:50:52.602Z</time></trkpt><trkpt lat="42.3203876" lon="13.3155208"><ele>837.0</ele><time>2026-05-02T16:50:54.602Z</time></trkpt><trkpt lat="42.3204898" lon="13.315582"><ele>837.0</ele><time>2026-05-02T16:50:56.601Z</time></trkpt><trkpt lat="42.3205573" lon="13.315637"><ele>837.0</ele><time>2026-05-02T16:50:57.603Z</time></trkpt><trkpt lat="42.3206131" lon="13.3156776"><ele>837.0</ele><time>2026-05-02T16:50:58.602Z</time></trkpt><trkpt lat="42.3207077" lon="13.315739"><ele>837.0</ele><time>2026-05-02T16:51:00.602Z</time></trkpt><trkpt lat="42.3207373" lon="13.31582"><ele>837.0</ele><time>2026-05-02T16:51:02.603Z</time></trkpt><trkpt lat="42.3207631" lon="13.3159325"><ele>835.4000000000001</ele><time>2026-05-02T16:51:04.602Z</time></trkpt><trkpt lat="42.3208364" lon="13.3160313"><ele>833.8000000000001</ele><time>2026-05-02T16:51:06.603Z</time></trkpt><trkpt lat="42.3209225" lon="13.3160707"><ele>832.2</ele><time>2026-05-02T16:51:08.602Z</time></trkpt><trkpt lat="42.3210476" lon="13.3160771"><ele>830.6</ele><time>2026-05-02T16:51:10.602Z</time></trkpt><trkpt lat="42.3211303" lon="13.3160671"><ele>829.0</ele><time>2026-05-02T16:51:11.602Z</time></trkpt><trkpt lat="42.3212047" lon="13.3160675"><ele>828.9999999999999</ele><time>2026-05-02T16:51:12.602Z</time></trkpt><trkpt lat="42.321274" lon="13.3160761"><ele>829.0</ele><time>2026-05-02T16:51:13.602Z</time></trkpt><trkpt lat="42.3213408" lon="13.3160939"><ele>829.0</ele><time>2026-05-02T16:51:14.602Z</time></trkpt><trkpt lat="42.321403" lon="13.3161247"><ele>829.0</ele><time>2026-05-02T16:51:15.602Z</time></trkpt><trkpt lat="42.3215162" lon="13.3161784"><ele>828.9999999999999</ele><time>2026-05-02T16:51:17.602Z</time></trkpt><trkpt lat="42.3216295" lon="13.3161948"><ele>829.0</ele><time>2026-05-02T16:51:19.602Z</time></trkpt><trkpt lat="42.3216929" lon="13.3161997"><ele>828.1666666666666</ele><time>2026-05-02T16:51:20.602Z</time></trkpt><trkpt lat="42.321822" lon="13.3162081"><ele>827.3333333333333</ele><time>2026-05-02T16:51:22.603Z</time></trkpt><trkpt lat="42.3218929" lon="13.3162191"><ele>826.5</ele><time>2026-05-02T16:51:23.602Z</time></trkpt><trkpt lat="42.3219715" lon="13.3162425"><ele>825.6666666666667</ele><time>2026-05-02T16:51:24.602Z</time></trkpt><trkpt lat="42.322054" lon="13.316265"><ele>824.8333333333334</ele><time>2026-05-02T16:51:25.602Z</time></trkpt><trkpt lat="42.3221321" lon="13.3162856"><ele>824.0</ele><time>2026-05-02T16:51:26.603Z</time></trkpt><trkpt lat="42.3222115" lon="13.3163187"><ele>823.1666666666667</ele><time>2026-05-02T16:51:27.6Z</time></trkpt><trkpt lat="42.3222959" lon="13.3163584"><ele>822.3333333333334</ele><time>2026-05-02T16:51:28.602Z</time></trkpt><trkpt lat="42.322374" lon="13.3163954"><ele>821.5</ele><time>2026-05-02T16:51:29.601Z</time></trkpt><trkpt lat="42.3224492" lon="13.3164296"><ele>820.6666666666667</ele><time>2026-05-02T16:51:30.6Z</time></trkpt><trkpt lat="42.3225201" lon="13.3164634"><ele>819.8333333333334</ele><time>2026-05-02T16:51:31.6Z</time></trkpt><trkpt lat="42.3225853" lon="13.3165001"><ele>819.0</ele><time>2026-05-02T16:51:32.603Z</time></trkpt><trkpt lat="42.3226903" lon="13.3165638"><ele>819.0</ele><time>2026-05-02T16:51:34.603Z</time></trkpt><trkpt lat="42.3227672" lon="13.3165762"><ele>819.0</ele><time>2026-05-02T16:51:36.602Z</time></trkpt><trkpt lat="42.3227835" lon="13.3164874"><ele>819.0</ele><time>2026-05-02T16:51:42.602Z</time></trkpt><trkpt lat="42.3228136" lon="13.3163817"><ele>819.0</ele><time>2026-05-02T16:51:44.601Z</time></trkpt><trkpt lat="42.3228541" lon="13.3162987"><ele>819.0</ele><time>2026-05-02T16:51:46.601Z</time></trkpt><trkpt lat="42.3228915" lon="13.316201"><ele>819.0</ele><time>2026-05-02T16:51:48.602Z</time></trkpt><trkpt lat="42.3228828" lon="13.3161052"><ele>818.0</ele><time>2026-05-02T16:51:50.602Z</time></trkpt><trkpt lat="42.3229397" lon="13.3159985"><ele>817.0</ele><time>2026-05-02T16:51:53.601Z</time></trkpt><trkpt lat="42.3230335" lon="13.3160002"><ele>816.0</ele><time>2026-05-02T16:51:55.598Z</time></trkpt><trkpt lat="42.3231561" lon="13.3160518"><ele>815.0</ele><time>2026-05-02T16:51:57.6Z</time></trkpt><trkpt lat="42.3232364" lon="13.3160774"><ele>814.0</ele><time>2026-05-02T16:51:58.602Z</time></trkpt><trkpt lat="42.323323" lon="13.3161023"><ele>812.6666666666666</ele><time>2026-05-02T16:51:59.603Z</time></trkpt><trkpt lat="42.3234133" lon="13.3161306"><ele>811.3333333333333</ele><time>2026-05-02T16:52:00.602Z</time></trkpt><trkpt lat="42.3234994" lon="13.316148"><ele>810.0</ele><time>2026-05-02T16:52:01.599Z</time></trkpt><trkpt lat="42.3235871" lon="13.3161661"><ele>808.6666666666667</ele><time>2026-05-02T16:52:02.601Z</time></trkpt><trkpt lat="42.3236771" lon="13.3161893"><ele>807.3333333333334</ele><time>2026-05-02T16:52:03.602Z</time></trkpt><trkpt lat="42.3237595" lon="13.3162145"><ele>806.0</ele><time>2026-05-02T16:52:04.602Z</time></trkpt><trkpt lat="42.3238427" lon="13.3162444"><ele>806.6666666666667</ele><time>2026-05-02T16:52:05.602Z</time></trkpt><trkpt lat="42.3239217" lon="13.3162767"><ele>807.3333333333334</ele><time>2026-05-02T16:52:06.602Z</time></trkpt><trkpt lat="42.3239955" lon="13.3163067"><ele>808.0</ele><time>2026-05-02T16:52:07.598Z</time></trkpt><trkpt lat="42.3240695" lon="13.3163386"><ele>808.6666666666667</ele><time>2026-05-02T16:52:08.601Z</time></trkpt><trkpt lat="42.3241402" lon="13.3163703"><ele>809.3333333333334</ele><time>2026-05-02T16:52:09.601Z</time></trkpt><trkpt lat="42.3242128" lon="13.3163973"><ele>810.0</ele><time>2026-05-02T16:52:10.602Z</time></trkpt><trkpt lat="42.3242843" lon="13.3164241"><ele>810.0</ele><time>2026-05-02T16:52:11.601Z</time></trkpt><trkpt lat="42.3243502" lon="13.3164542"><ele>810.0</ele><time>2026-05-02T16:52:12.603Z</time></trkpt><trkpt lat="42.3244103" lon="13.316482"><ele>810.0</ele><time>2026-05-02T16:52:13.599Z</time></trkpt><trkpt lat="42.3245201" lon="13.3165115"><ele>810.0</ele><time>2026-05-02T16:52:15.601Z</time></trkpt><trkpt lat="42.3246223" lon="13.3165187"><ele>810.0</ele><time>2026-05-02T16:52:17.602Z</time></trkpt><trkpt lat="42.3247242" lon="13.3165369"><ele>809.5</ele><time>2026-05-02T16:52:19.602Z</time></trkpt><trkpt lat="42.3248353" lon="13.3165536"><ele>809.0</ele><time>2026-05-02T16:52:21.6Z</time></trkpt><trkpt lat="42.3249003" lon="13.3165642"><ele>808.5</ele><time>2026-05-02T16:52:22.6Z</time></trkpt><trkpt lat="42.3250197" lon="13.3165716"><ele>808.0</ele><time>2026-05-02T16:52:24.602Z</time></trkpt><trkpt lat="42.3250917" lon="13.3165671"><ele>807.5</ele><time>2026-05-02T16:52:25.602Z</time></trkpt><trkpt lat="42.3251552" lon="13.3165658"><ele>807.0</ele><time>2026-05-02T16:52:26.601Z</time></trkpt><trkpt lat="42.3252692" lon="13.3165597"><ele>807.0</ele><time>2026-05-02T16:52:28.601Z</time></trkpt><trkpt lat="42.3253818" lon="13.3165139"><ele>807.0</ele><time>2026-05-02T16:52:30.602Z</time></trkpt><trkpt lat="42.3254867" lon="13.3164359"><ele>807.0</ele><time>2026-05-02T16:52:32.602Z</time></trkpt><trkpt lat="42.3255907" lon="13.3163487"><ele>807.0</ele><time>2026-05-02T16:52:34.602Z</time></trkpt><trkpt lat="42.3256479" lon="13.3163069"><ele>807.0</ele><time>2026-05-02T16:52:35.603Z</time></trkpt><trkpt lat="42.3257071" lon="13.3162654"><ele>805.2857142857143</ele><time>2026-05-02T16:52:36.602Z</time></trkpt><trkpt lat="42.3257688" lon="13.3162256"><ele>803.5714285714286</ele><time>2026-05-02T16:52:37.602Z</time></trkpt><trkpt lat="42.3258301" lon="13.3161876"><ele>801.8571428571429</ele><time>2026-05-02T16:52:38.602Z</time></trkpt><trkpt lat="42.3258944" lon="13.31615"><ele>800.1428571428571</ele><time>2026-05-02T16:52:39.602Z</time></trkpt><trkpt lat="42.3259572" lon="13.3161158"><ele>798.4285714285714</ele><time>2026-05-02T16:52:40.602Z</time></trkpt><trkpt lat="42.3260234" lon="13.3160871"><ele>796.7142857142858</ele><time>2026-05-02T16:52:41.601Z</time></trkpt><trkpt lat="42.3261006" lon="13.3160709"><ele>795.0</ele><time>2026-05-02T16:52:42.602Z</time></trkpt><trkpt lat="42.3261777" lon="13.3160636"><ele>795.0</ele><time>2026-05-02T16:52:43.602Z</time></trkpt><trkpt lat="42.3262504" lon="13.3160587"><ele>795.0</ele><time>2026-05-02T16:52:44.603Z</time></trkpt><trkpt lat="42.32632" lon="13.3160537"><ele>795.0</ele><time>2026-05-02T16:52:45.602Z</time></trkpt><trkpt lat="42.3263846" lon="13.3160393"><ele>795.0</ele><time>2026-05-02T16:52:46.602Z</time></trkpt><trkpt lat="42.3264969" lon="13.3159858"><ele>795.0</ele><time>2026-05-02T16:52:48.603Z</time></trkpt><trkpt lat="42.3265993" lon="13.3159276"><ele>795.0</ele><time>2026-05-02T16:52:50.6Z</time></trkpt><trkpt lat="42.3267096" lon="13.3159032"><ele>795.0</ele><time>2026-05-02T16:52:52.599Z</time></trkpt><trkpt lat="42.3267762" lon="13.3159096"><ele>795.0</ele><time>2026-05-02T16:52:53.602Z</time></trkpt><trkpt lat="42.3268492" lon="13.3159201"><ele>795.0</ele><time>2026-05-02T16:52:54.603Z</time></trkpt><trkpt lat="42.3269269" lon="13.315932"><ele>795.0</ele><time>2026-05-02T16:52:55.602Z</time></trkpt><trkpt lat="42.3270038" lon="13.3159357"><ele>795.0</ele><time>2026-05-02T16:52:56.602Z</time></trkpt><trkpt lat="42.3270828" lon="13.3159375"><ele>795.0</ele><time>2026-05-02T16:52:57.602Z</time></trkpt><trkpt lat="42.3271645" lon="13.3159406"><ele>794.3333333333334</ele><time>2026-05-02T16:52:58.602Z</time></trkpt><trkpt lat="42.3272511" lon="13.315946"><ele>793.6666666666667</ele><time>2026-05-02T16:52:59.602Z</time></trkpt><trkpt lat="42.3273367" lon="13.3159581"><ele>793.0</ele><time>2026-05-02T16:53:00.602Z</time></trkpt><trkpt lat="42.3274199" lon="13.315973"><ele>792.3333333333334</ele><time>2026-05-02T16:53:01.602Z</time></trkpt><trkpt lat="42.3274953" lon="13.3159832"><ele>791.6666666666667</ele><time>2026-05-02T16:53:02.602Z</time></trkpt><trkpt lat="42.3275673" lon="13.3159855"><ele>791.0</ele><time>2026-05-02T16:53:03.603Z</time></trkpt><trkpt lat="42.3276345" lon="13.3159824"><ele>791.0000000000001</ele><time>2026-05-02T16:53:04.602Z</time></trkpt><trkpt lat="42.3277079" lon="13.3159804"><ele>791.0</ele><time>2026-05-02T16:53:05.603Z</time></trkpt><trkpt lat="42.3277896" lon="13.3159885"><ele>791.0</ele><time>2026-05-02T16:53:06.602Z</time></trkpt><trkpt lat="42.3278758" lon="13.3160085"><ele>791.0</ele><time>2026-05-02T16:53:07.602Z</time></trkpt><trkpt lat="42.3279675" lon="13.3160375"><ele>791.0000000000001</ele><time>2026-05-02T16:53:08.602Z</time></trkpt><trkpt lat="42.3280613" lon="13.3160703"><ele>791.0</ele><time>2026-05-02T16:53:09.602Z</time></trkpt><trkpt lat="42.3281462" lon="13.3161047"><ele>789.6666666666667</ele><time>2026-05-02T16:53:10.602Z</time></trkpt><trkpt lat="42.328225" lon="13.3161398"><ele>788.3333333333334</ele><time>2026-05-02T16:53:11.602Z</time></trkpt><trkpt lat="42.3282976" lon="13.3161746"><ele>787.0</ele><time>2026-05-02T16:53:12.603Z</time></trkpt><trkpt lat="42.3283655" lon="13.3162138"><ele>785.6666666666667</ele><time>2026-05-02T16:53:13.602Z</time></trkpt><trkpt lat="42.3284388" lon="13.3162624"><ele>784.3333333333334</ele><time>2026-05-02T16:53:14.602Z</time></trkpt><trkpt lat="42.3285055" lon="13.3163132"><ele>783.0</ele><time>2026-05-02T16:53:15.602Z</time></trkpt><trkpt lat="42.3285718" lon="13.3163528"><ele>783.0</ele><time>2026-05-02T16:53:16.601Z</time></trkpt><trkpt lat="42.3286345" lon="13.3163884"><ele>783.0</ele><time>2026-05-02T16:53:17.602Z</time></trkpt><trkpt lat="42.3286935" lon="13.3164275"><ele>783.0</ele><time>2026-05-02T16:53:18.601Z</time></trkpt><trkpt lat="42.3288202" lon="13.3164922"><ele>783.0</ele><time>2026-05-02T16:53:20.601Z</time></trkpt><trkpt lat="42.328894" lon="13.3165111"><ele>783.0</ele><time>2026-05-02T16:53:21.602Z</time></trkpt><trkpt lat="42.3289606" lon="13.3165163"><ele>783.0</ele><time>2026-05-02T16:53:22.6Z</time></trkpt><trkpt lat="42.3290329" lon="13.3165201"><ele>784.1428571428571</ele><time>2026-05-02T16:53:23.602Z</time></trkpt><trkpt lat="42.3290972" lon="13.3165163"><ele>785.2857142857143</ele><time>2026-05-02T16:53:24.601Z</time></trkpt><trkpt lat="42.329163" lon="13.3165194"><ele>786.4285714285714</ele><time>2026-05-02T16:53:25.602Z</time></trkpt><trkpt lat="42.3292269" lon="13.3165231"><ele>787.5714285714286</ele><time>2026-05-02T16:53:26.602Z</time></trkpt><trkpt lat="42.3292958" lon="13.3165213"><ele>788.7142857142858</ele><time>2026-05-02T16:53:27.599Z</time></trkpt><trkpt lat="42.3293641" lon="13.3165168"><ele>789.8571428571429</ele><time>2026-05-02T16:53:28.598Z</time></trkpt><trkpt lat="42.3294372" lon="13.3165138"><ele>791.0</ele><time>2026-05-02T16:53:29.598Z</time></trkpt><trkpt lat="42.3295145" lon="13.3165157"><ele>791.0000000000001</ele><time>2026-05-02T16:53:30.6Z</time></trkpt><trkpt lat="42.3295976" lon="13.3165235"><ele>791.0</ele><time>2026-05-02T16:53:31.602Z</time></trkpt><trkpt lat="42.3296801" lon="13.3165289"><ele>791.0</ele><time>2026-05-02T16:53:32.602Z</time></trkpt><trkpt lat="42.32976" lon="13.316527"><ele>791.0</ele><time>2026-05-02T16:53:33.602Z</time></trkpt><trkpt lat="42.3298365" lon="13.3165265"><ele>791.0000000000001</ele><time>2026-05-02T16:53:34.602Z</time></trkpt><trkpt lat="42.3299111" lon="13.316524"><ele>791.0</ele><time>2026-05-02T16:53:35.602Z</time></trkpt><trkpt lat="42.3299854" lon="13.3165231"><ele>790.4285714285714</ele><time>2026-05-02T16:53:36.602Z</time></trkpt><trkpt lat="42.3300581" lon="13.3165195"><ele>789.8571428571429</ele><time>2026-05-02T16:53:37.603Z</time></trkpt><trkpt lat="42.3301329" lon="13.3165199"><ele>789.2857142857142</ele><time>2026-05-02T16:53:38.603Z</time></trkpt><trkpt lat="42.3302018" lon="13.3165138"><ele>788.7142857142858</ele><time>2026-05-02T16:53:39.602Z</time></trkpt><trkpt lat="42.3302756" lon="13.3165098"><ele>788.1428571428571</ele><time>2026-05-02T16:53:40.6Z</time></trkpt><trkpt lat="42.3303488" lon="13.3165023"><ele>787.5714285714286</ele><time>2026-05-02T16:53:41.602Z</time></trkpt><trkpt lat="42.3304203" lon="13.3164987"><ele>787.0</ele><time>2026-05-02T16:53:42.602Z</time></trkpt><trkpt lat="42.330488" lon="13.3164963"><ele>786.8</ele><time>2026-05-02T16:53:43.602Z</time></trkpt><trkpt lat="42.3306144" lon="13.316481"><ele>786.6</ele><time>2026-05-02T16:53:45.602Z</time></trkpt><trkpt lat="42.3306819" lon="13.3164725"><ele>786.4</ele><time>2026-05-02T16:53:46.603Z</time></trkpt><trkpt lat="42.330754" lon="13.3164654"><ele>786.1999999999999</ele><time>2026-05-02T16:53:47.602Z</time></trkpt><trkpt lat="42.3308832" lon="13.3164562"><ele>786.0</ele><time>2026-05-02T16:53:49.602Z</time></trkpt><trkpt lat="42.331002" lon="13.3164482"><ele>786.0</ele><time>2026-05-02T16:53:51.602Z</time></trkpt><trkpt lat="42.3310935" lon="13.3164207"><ele>786.0</ele><time>2026-05-02T16:53:53.602Z</time></trkpt><trkpt lat="42.331183" lon="13.3163853"><ele>786.0</ele><time>2026-05-02T16:53:55.602Z</time></trkpt><trkpt lat="42.3312855" lon="13.3163287"><ele>786.0</ele><time>2026-05-02T16:53:57.603Z</time></trkpt><trkpt lat="42.3313832" lon="13.3162642"><ele>786.0</ele><time>2026-05-02T16:53:59.598Z</time></trkpt><trkpt lat="42.3314851" lon="13.3162029"><ele>784.0</ele><time>2026-05-02T16:54:01.598Z</time></trkpt><trkpt lat="42.3315939" lon="13.3161494"><ele>782.0</ele><time>2026-05-02T16:54:03.602Z</time></trkpt><trkpt lat="42.3316993" lon="13.3160947"><ele>780.0</ele><time>2026-05-02T16:54:05.6Z</time></trkpt><trkpt lat="42.3318088" lon="13.316052"><ele>778.0</ele><time>2026-05-02T16:54:07.601Z</time></trkpt><trkpt lat="42.3319369" lon="13.3160871"><ele>777.9999999999999</ele><time>2026-05-02T16:54:09.603Z</time></trkpt><trkpt lat="42.3320151" lon="13.3161239"><ele>778.0</ele><time>2026-05-02T16:54:10.602Z</time></trkpt><trkpt lat="42.3321163" lon="13.3161648"><ele>778.0</ele><time>2026-05-02T16:54:11.602Z</time></trkpt><trkpt lat="42.3321916" lon="13.3161982"><ele>778.0</ele><time>2026-05-02T16:54:12.602Z</time></trkpt><trkpt lat="42.3322708" lon="13.3162277"><ele>777.9999999999999</ele><time>2026-05-02T16:54:13.602Z</time></trkpt><trkpt lat="42.3323467" lon="13.3162462"><ele>778.0</ele><time>2026-05-02T16:54:14.598Z</time></trkpt><trkpt lat="42.3324293" lon="13.3162599"><ele>777.3333333333333</ele><time>2026-05-02T16:54:15.599Z</time></trkpt><trkpt lat="42.3325154" lon="13.3162522"><ele>776.6666666666666</ele><time>2026-05-02T16:54:16.599Z</time></trkpt><trkpt lat="42.3325972" lon="13.3162355"><ele>776.0</ele><time>2026-05-02T16:54:17.602Z</time></trkpt><trkpt lat="42.3326797" lon="13.3162213"><ele>775.3333333333333</ele><time>2026-05-02T16:54:18.602Z</time></trkpt><trkpt lat="42.3327445" lon="13.3162151"><ele>774.6666666666666</ele><time>2026-05-02T16:54:19.6Z</time></trkpt><trkpt lat="42.3328121" lon="13.3162104"><ele>774.0</ele><time>2026-05-02T16:54:20.599Z</time></trkpt><trkpt lat="42.3328777" lon="13.3162168"><ele>774.0</ele><time>2026-05-02T16:54:21.599Z</time></trkpt><trkpt lat="42.3329456" lon="13.3162242"><ele>774.0</ele><time>2026-05-02T16:54:22.603Z</time></trkpt><trkpt lat="42.3330136" lon="13.3162406"><ele>774.0</ele><time>2026-05-02T16:54:23.603Z</time></trkpt><trkpt lat="42.3330985" lon="13.3162638"><ele>774.0</ele><time>2026-05-02T16:54:24.602Z</time></trkpt><trkpt lat="42.333178" lon="13.3162803"><ele>774.0</ele><time>2026-05-02T16:54:25.603Z</time></trkpt><trkpt lat="42.333262" lon="13.3162949"><ele>774.0</ele><time>2026-05-02T16:54:26.601Z</time></trkpt><trkpt lat="42.3333447" lon="13.3163039"><ele>773.1666666666666</ele><time>2026-05-02T16:54:27.602Z</time></trkpt><trkpt lat="42.3334305" lon="13.3163084"><ele>772.3333333333333</ele><time>2026-05-02T16:54:28.602Z</time></trkpt><trkpt lat="42.33352" lon="13.3163207"><ele>771.5</ele><time>2026-05-02T16:54:29.602Z</time></trkpt><trkpt lat="42.3336108" lon="13.3163321"><ele>770.6666666666666</ele><time>2026-05-02T16:54:30.6Z</time></trkpt><trkpt lat="42.333697" lon="13.3163412"><ele>769.8333333333333</ele><time>2026-05-02T16:54:31.601Z</time></trkpt><trkpt lat="42.333787" lon="13.3163411"><ele>769.0</ele><time>2026-05-02T16:54:32.599Z</time></trkpt><trkpt lat="42.3338794" lon="13.3163322"><ele>766.9999999999999</ele><time>2026-05-02T16:54:33.6Z</time></trkpt><trkpt lat="42.3339753" lon="13.3163227"><ele>765.0</ele><time>2026-05-02T16:54:34.602Z</time></trkpt><trkpt lat="42.3340633" lon="13.3163192"><ele>763.0</ele><time>2026-05-02T16:54:35.603Z</time></trkpt><trkpt lat="42.3341463" lon="13.3163181"><ele>761.0</ele><time>2026-05-02T16:54:36.602Z</time></trkpt><trkpt lat="42.3342257" lon="13.3163221"><ele>759.0</ele><time>2026-05-02T16:54:37.601Z</time></trkpt><trkpt lat="42.3343024" lon="13.3163134"><ele>757.0</ele><time>2026-05-02T16:54:38.602Z</time></trkpt><trkpt lat="42.3343842" lon="13.31629"><ele>757.0</ele><time>2026-05-02T16:54:39.602Z</time></trkpt><trkpt lat="42.3344661" lon="13.3162525"><ele>757.0</ele><time>2026-05-02T16:54:40.602Z</time></trkpt><trkpt lat="42.3345466" lon="13.3162181"><ele>757.0</ele><time>2026-05-02T16:54:41.602Z</time></trkpt><trkpt lat="42.3346245" lon="13.3161933"><ele>757.0</ele><time>2026-05-02T16:54:42.602Z</time></trkpt><trkpt lat="42.3347035" lon="13.3161674"><ele>757.0</ele><time>2026-05-02T16:54:43.602Z</time></trkpt><trkpt lat="42.3347836" lon="13.3161522"><ele>757.0</ele><time>2026-05-02T16:54:44.602Z</time></trkpt><trkpt lat="42.3348729" lon="13.3161363"><ele>757.0</ele><time>2026-05-02T16:54:45.602Z</time></trkpt><trkpt lat="42.3349558" lon="13.316119"><ele>757.0</ele><time>2026-05-02T16:54:46.602Z</time></trkpt><trkpt lat="42.3350527" lon="13.3161018"><ele>757.0</ele><time>2026-05-02T16:54:47.602Z</time></trkpt><trkpt lat="42.3351293" lon="13.3160821"><ele>757.0</ele><time>2026-05-02T16:54:48.601Z</time></trkpt><trkpt lat="42.3352161" lon="13.3160694"><ele>757.0</ele><time>2026-05-02T16:54:49.603Z</time></trkpt><trkpt lat="42.3353014" lon="13.3160682"><ele>757.0</ele><time>2026-05-02T16:54:50.602Z</time></trkpt><trkpt lat="42.3353947" lon="13.3160649"><ele>757.0</ele><time>2026-05-02T16:54:51.601Z</time></trkpt><trkpt lat="42.3354784" lon="13.3160631"><ele>757.0</ele><time>2026-05-02T16:54:52.602Z</time></trkpt><trkpt lat="42.3355691" lon="13.3160591"><ele>757.0</ele><time>2026-05-02T16:54:53.599Z</time></trkpt><trkpt lat="42.3356544" lon="13.316057"><ele>757.0</ele><time>2026-05-02T16:54:54.602Z</time></trkpt><trkpt lat="42.3357293" lon="13.3160565"><ele>757.0</ele><time>2026-05-02T16:54:55.603Z</time></trkpt><trkpt lat="42.3358044" lon="13.3160597"><ele>757.0</ele><time>2026-05-02T16:54:56.602Z</time></trkpt><trkpt lat="42.3358867" lon="13.3160602"><ele>757.2</ele><time>2026-05-02T16:54:57.602Z</time></trkpt><trkpt lat="42.3359795" lon="13.316049"><ele>757.4000000000001</ele><time>2026-05-02T16:54:58.602Z</time></trkpt><trkpt lat="42.3360752" lon="13.3160316"><ele>757.5999999999999</ele><time>2026-05-02T16:54:59.602Z</time></trkpt><trkpt lat="42.3362009" lon="13.3160244"><ele>757.8</ele><time>2026-05-02T16:55:00.602Z</time></trkpt><trkpt lat="42.3362931" lon="13.3160015"><ele>758.0</ele><time>2026-05-02T16:55:01.602Z</time></trkpt><trkpt lat="42.3363791" lon="13.315994"><ele>757.8</ele><time>2026-05-02T16:55:02.602Z</time></trkpt><trkpt lat="42.3364659" lon="13.315998"><ele>757.5999999999999</ele><time>2026-05-02T16:55:03.602Z</time></trkpt><trkpt lat="42.3365613" lon="13.3160112"><ele>757.4000000000001</ele><time>2026-05-02T16:55:04.603Z</time></trkpt><trkpt lat="42.3366549" lon="13.3160265"><ele>757.2</ele><time>2026-05-02T16:55:05.599Z</time></trkpt><trkpt lat="42.3367481" lon="13.316032"><ele>757.0</ele><time>2026-05-02T16:55:06.598Z</time></trkpt><trkpt lat="42.3368316" lon="13.3160385"><ele>757.0</ele><time>2026-05-02T16:55:07.599Z</time></trkpt><trkpt lat="42.3369121" lon="13.3160416"><ele>757.0</ele><time>2026-05-02T16:55:08.599Z</time></trkpt><trkpt lat="42.3369988" lon="13.316039"><ele>757.0</ele><time>2026-05-02T16:55:09.599Z</time></trkpt><trkpt lat="42.3370917" lon="13.3160306"><ele>757.0</ele><time>2026-05-02T16:55:10.599Z</time></trkpt><trkpt lat="42.3371836" lon="13.3160188"><ele>757.0</ele><time>2026-05-02T16:55:11.602Z</time></trkpt><trkpt lat="42.3372683" lon="13.3160068"><ele>757.0</ele><time>2026-05-02T16:55:12.603Z</time></trkpt><trkpt lat="42.337364" lon="13.3159847"><ele>757.6</ele><time>2026-05-02T16:55:13.601Z</time></trkpt><trkpt lat="42.3374549" lon="13.3159671"><ele>758.2</ele><time>2026-05-02T16:55:14.599Z</time></trkpt><trkpt lat="42.3375488" lon="13.3159542"><ele>758.8</ele><time>2026-05-02T16:55:15.599Z</time></trkpt><trkpt lat="42.3376338" lon="13.3159272"><ele>759.4</ele><time>2026-05-02T16:55:16.601Z</time></trkpt><trkpt lat="42.3377258" lon="13.3159067"><ele>760.0</ele><time>2026-05-02T16:55:17.602Z</time></trkpt><trkpt lat="42.3378151" lon="13.3158876"><ele>760.0</ele><time>2026-05-02T16:55:18.602Z</time></trkpt><trkpt lat="42.3379002" lon="13.3158712"><ele>760.0</ele><time>2026-05-02T16:55:19.599Z</time></trkpt><trkpt lat="42.3379925" lon="13.3158539"><ele>760.0</ele><time>2026-05-02T16:55:20.602Z</time></trkpt><trkpt lat="42.3381015" lon="13.3158249"><ele>760.0</ele><time>2026-05-02T16:55:21.602Z</time></trkpt><trkpt lat="42.3381941" lon="13.3157967"><ele>760.0</ele><time>2026-05-02T16:55:22.603Z</time></trkpt><trkpt lat="42.3382908" lon="13.3157709"><ele>760.3333333333334</ele><time>2026-05-02T16:55:23.602Z</time></trkpt><trkpt lat="42.3383818" lon="13.3157575"><ele>760.6666666666667</ele><time>2026-05-02T16:55:24.602Z</time></trkpt><trkpt lat="42.3384699" lon="13.3157469"><ele>761.0</ele><time>2026-05-02T16:55:25.601Z</time></trkpt><trkpt lat="42.3385633" lon="13.315735"><ele>761.3333333333334</ele><time>2026-05-02T16:55:26.6Z</time></trkpt><trkpt lat="42.3386516" lon="13.3157295"><ele>761.6666666666666</ele><time>2026-05-02T16:55:27.601Z</time></trkpt><trkpt lat="42.3387379" lon="13.315725"><ele>762.0</ele><time>2026-05-02T16:55:28.602Z</time></trkpt><trkpt lat="42.3388197" lon="13.3157225"><ele>761.5</ele><time>2026-05-02T16:55:29.602Z</time></trkpt><trkpt lat="42.3388976" lon="13.3157237"><ele>761.0</ele><time>2026-05-02T16:55:30.603Z</time></trkpt><trkpt lat="42.3389735" lon="13.3157314"><ele>760.5</ele><time>2026-05-02T16:55:31.602Z</time></trkpt><trkpt lat="42.3390387" lon="13.3157423"><ele>760.0</ele><time>2026-05-02T16:55:32.601Z</time></trkpt><trkpt lat="42.3391403" lon="13.315761"><ele>759.5</ele><time>2026-05-02T16:55:34.602Z</time></trkpt><trkpt lat="42.339206" lon="13.3157668"><ele>759.0</ele><time>2026-05-02T16:55:36.602Z</time></trkpt><trkpt lat="42.3392909" lon="13.3157751"><ele>759.0</ele><time>2026-05-02T16:55:38.6Z</time></trkpt><trkpt lat="42.3394286" lon="13.3157928"><ele>759.0</ele><time>2026-05-02T16:55:40.602Z</time></trkpt><trkpt lat="42.3395056" lon="13.3157994"><ele>759.0</ele><time>2026-05-02T16:55:41.603Z</time></trkpt><trkpt lat="42.339582" lon="13.3158037"><ele>759.0</ele><time>2026-05-02T16:55:42.601Z</time></trkpt><trkpt lat="42.3396602" lon="13.3158091"><ele>759.0</ele><time>2026-05-02T16:55:43.602Z</time></trkpt><trkpt lat="42.3397432" lon="13.3158085"><ele>758.1666666666666</ele><time>2026-05-02T16:55:44.601Z</time></trkpt><trkpt lat="42.339821" lon="13.3158105"><ele>757.3333333333334</ele><time>2026-05-02T16:55:45.603Z</time></trkpt><trkpt lat="42.3398973" lon="13.3158091"><ele>756.5</ele><time>2026-05-02T16:55:46.602Z</time></trkpt><trkpt lat="42.3399782" lon="13.3158"><ele>755.6666666666667</ele><time>2026-05-02T16:55:47.602Z</time></trkpt><trkpt lat="42.34005" lon="13.3157962"><ele>754.8333333333334</ele><time>2026-05-02T16:55:48.602Z</time></trkpt><trkpt lat="42.3401289" lon="13.3157981"><ele>754.0</ele><time>2026-05-02T16:55:49.602Z</time></trkpt><trkpt lat="42.340205" lon="13.3158033"><ele>753.9999999999999</ele><time>2026-05-02T16:55:50.602Z</time></trkpt><trkpt lat="42.3402769" lon="13.3158111"><ele>754.0</ele><time>2026-05-02T16:55:51.602Z</time></trkpt><trkpt lat="42.3403456" lon="13.3158219"><ele>754.0</ele><time>2026-05-02T16:55:52.601Z</time></trkpt><trkpt lat="42.3404187" lon="13.3158279"><ele>754.0</ele><time>2026-05-02T16:55:53.602Z</time></trkpt><trkpt lat="42.3404897" lon="13.315842"><ele>754.0</ele><time>2026-05-02T16:55:54.603Z</time></trkpt><trkpt lat="42.3405566" lon="13.3158607"><ele>753.9999999999999</ele><time>2026-05-02T16:55:55.599Z</time></trkpt><trkpt lat="42.3406229" lon="13.3158802"><ele>754.0</ele><time>2026-05-02T16:55:56.603Z</time></trkpt><trkpt lat="42.340686" lon="13.3158967"><ele>753.5</ele><time>2026-05-02T16:55:57.599Z</time></trkpt><trkpt lat="42.3407511" lon="13.3159082"><ele>753.0</ele><time>2026-05-02T16:55:58.602Z</time></trkpt><trkpt lat="42.3408227" lon="13.3159185"><ele>752.5</ele><time>2026-05-02T16:55:59.6Z</time></trkpt><trkpt lat="42.3408994" lon="13.3159337"><ele>752.0</ele><time>2026-05-02T16:56:00.603Z</time></trkpt><trkpt lat="42.3409894" lon="13.3159404"><ele>751.5</ele><time>2026-05-02T16:56:01.602Z</time></trkpt><trkpt lat="42.3410712" lon="13.3159487"><ele>751.0</ele><time>2026-05-02T16:56:02.6Z</time></trkpt><trkpt lat="42.3411502" lon="13.3159472"><ele>751.0</ele><time>2026-05-02T16:56:03.599Z</time></trkpt><trkpt lat="42.3412309" lon="13.3159465"><ele>751.0</ele><time>2026-05-02T16:56:04.602Z</time></trkpt><trkpt lat="42.3413074" lon="13.3159496"><ele>751.0</ele><time>2026-05-02T16:56:05.602Z</time></trkpt><trkpt lat="42.3413808" lon="13.3159665"><ele>751.0</ele><time>2026-05-02T16:56:06.599Z</time></trkpt><trkpt lat="42.3414555" lon="13.3159767"><ele>751.0</ele><time>2026-05-02T16:56:07.602Z</time></trkpt><trkpt lat="42.3415323" lon="13.3159825"><ele>751.0</ele><time>2026-05-02T16:56:08.599Z</time></trkpt><trkpt lat="42.3416172" lon="13.3159769"><ele>749.1666666666667</ele><time>2026-05-02T16:56:09.599Z</time></trkpt><trkpt lat="42.341703" lon="13.3159695"><ele>747.3333333333334</ele><time>2026-05-02T16:56:10.601Z</time></trkpt><trkpt lat="42.3417901" lon="13.315966"><ele>745.5</ele><time>2026-05-02T16:56:11.602Z</time></trkpt><trkpt lat="42.3418723" lon="13.3159672"><ele>743.6666666666666</ele><time>2026-05-02T16:56:12.602Z</time></trkpt><trkpt lat="42.3419511" lon="13.3159692"><ele>741.8333333333333</ele><time>2026-05-02T16:56:13.602Z</time></trkpt><trkpt lat="42.3420264" lon="13.3159761"><ele>740.0</ele><time>2026-05-02T16:56:14.597Z</time></trkpt><trkpt lat="42.3420968" lon="13.3159847"><ele>740.0</ele><time>2026-05-02T16:56:15.6Z</time></trkpt><trkpt lat="42.3421648" lon="13.3159931"><ele>740.0</ele><time>2026-05-02T16:56:16.599Z</time></trkpt><trkpt lat="42.3422289" lon="13.3160159"><ele>740.0</ele><time>2026-05-02T16:56:17.601Z</time></trkpt><trkpt lat="42.3422965" lon="13.3160284"><ele>740.0</ele><time>2026-05-02T16:56:18.601Z</time></trkpt><trkpt lat="42.3424182" lon="13.3159991"><ele>740.0</ele><time>2026-05-02T16:56:20.603Z</time></trkpt><trkpt lat="42.3424786" lon="13.315955"><ele>740.0</ele><time>2026-05-02T16:56:21.601Z</time></trkpt><trkpt lat="42.3425361" lon="13.3158992"><ele>739.5</ele><time>2026-05-02T16:56:22.603Z</time></trkpt><trkpt lat="42.3425902" lon="13.3158374"><ele>739.0</ele><time>2026-05-02T16:56:23.601Z</time></trkpt><trkpt lat="42.3426422" lon="13.3157753"><ele>738.5</ele><time>2026-05-02T16:56:24.602Z</time></trkpt><trkpt lat="42.3427054" lon="13.3157195"><ele>738.0</ele><time>2026-05-02T16:56:25.602Z</time></trkpt><trkpt lat="42.3427738" lon="13.3156716"><ele>737.5</ele><time>2026-05-02T16:56:26.6Z</time></trkpt><trkpt lat="42.3428377" lon="13.315624"><ele>737.0</ele><time>2026-05-02T16:56:27.6Z</time></trkpt><trkpt lat="42.3429521" lon="13.3155444"><ele>735.4000000000001</ele><time>2026-05-02T16:56:29.599Z</time></trkpt><trkpt lat="42.3430154" lon="13.3155029"><ele>733.8000000000001</ele><time>2026-05-02T16:56:30.602Z</time></trkpt><trkpt lat="42.3430755" lon="13.3154723"><ele>732.2</ele><time>2026-05-02T16:56:31.602Z</time></trkpt><trkpt lat="42.3431826" lon="13.3154173"><ele>730.6</ele><time>2026-05-02T16:56:33.603Z</time></trkpt><trkpt lat="42.3432994" lon="13.3153949"><ele>729.0</ele><time>2026-05-02T16:56:35.602Z</time></trkpt><trkpt lat="42.3434094" lon="13.3154207"><ele>729.0</ele><time>2026-05-02T16:56:37.602Z</time></trkpt><trkpt lat="42.3435199" lon="13.3154461"><ele>729.0</ele><time>2026-05-02T16:56:39.601Z</time></trkpt><trkpt lat="42.3435841" lon="13.3154634"><ele>729.0</ele><time>2026-05-02T16:56:40.602Z</time></trkpt><trkpt lat="42.3436978" lon="13.3154955"><ele>729.0</ele><time>2026-05-02T16:56:42.598Z</time></trkpt><trkpt lat="42.3438149" lon="13.3155239"><ele>729.0</ele><time>2026-05-02T16:56:44.599Z</time></trkpt><trkpt lat="42.343933" lon="13.3155324"><ele>727.8333333333334</ele><time>2026-05-02T16:56:46.599Z</time></trkpt><trkpt lat="42.3440323" lon="13.3155402"><ele>726.6666666666666</ele><time>2026-05-02T16:56:48.6Z</time></trkpt><trkpt lat="42.3441514" lon="13.3155409"><ele>725.5</ele><time>2026-05-02T16:56:50.601Z</time></trkpt><trkpt lat="42.3442219" lon="13.3155375"><ele>724.3333333333333</ele><time>2026-05-02T16:56:51.599Z</time></trkpt><trkpt lat="42.3443032" lon="13.3155329"><ele>723.1666666666666</ele><time>2026-05-02T16:56:52.599Z</time></trkpt><trkpt lat="42.3443782" lon="13.3155316"><ele>722.0</ele><time>2026-05-02T16:56:53.597Z</time></trkpt><trkpt lat="42.3444564" lon="13.3155313"><ele>722.0</ele><time>2026-05-02T16:56:54.602Z</time></trkpt><trkpt lat="42.3445234" lon="13.3155326"><ele>722.0</ele><time>2026-05-02T16:56:55.6Z</time></trkpt><trkpt lat="42.3445947" lon="13.3155278"><ele>722.0</ele><time>2026-05-02T16:56:56.599Z</time></trkpt><trkpt lat="42.3446596" lon="13.3155263"><ele>722.0</ele><time>2026-05-02T16:56:57.6Z</time></trkpt><trkpt lat="42.344785" lon="13.3155131"><ele>722.0</ele><time>2026-05-02T16:56:59.6Z</time></trkpt><trkpt lat="42.3448602" lon="13.3155036"><ele>722.0</ele><time>2026-05-02T16:57:00.599Z</time></trkpt><trkpt lat="42.3449397" lon="13.3154792"><ele>721.0</ele><time>2026-05-02T16:57:01.601Z</time></trkpt><trkpt lat="42.3450253" lon="13.3154546"><ele>720.0</ele><time>2026-05-02T16:57:02.601Z</time></trkpt><trkpt lat="42.3451106" lon="13.3154368"><ele>719.0</ele><time>2026-05-02T16:57:03.6Z</time></trkpt><trkpt lat="42.3451899" lon="13.3154186"><ele>718.0</ele><time>2026-05-02T16:57:04.601Z</time></trkpt><trkpt lat="42.3452664" lon="13.3154102"><ele>717.0</ele><time>2026-05-02T16:57:05.603Z</time></trkpt><trkpt lat="42.3453634" lon="13.3153865"><ele>716.0</ele><time>2026-05-02T16:57:07.603Z</time></trkpt><trkpt lat="42.3454456" lon="13.3153808"><ele>716.0</ele><time>2026-05-02T16:57:09.603Z</time></trkpt><trkpt lat="42.3455296" lon="13.3153972"><ele>716.0</ele><time>2026-05-02T16:57:11.602Z</time></trkpt><trkpt lat="42.3456339" lon="13.3154592"><ele>716.0</ele><time>2026-05-02T16:57:13.602Z</time></trkpt><trkpt lat="42.3457359" lon="13.3155137"><ele>716.0</ele><time>2026-05-02T16:57:15.602Z</time></trkpt><trkpt lat="42.3458177" lon="13.3155439"><ele>716.0</ele><time>2026-05-02T16:57:17.602Z</time></trkpt><trkpt lat="42.345922" lon="13.3155728"><ele>717.0</ele><time>2026-05-02T16:57:25.603Z</time></trkpt><trkpt lat="42.3460834" lon="13.3156018"><ele>718.0</ele><time>2026-05-02T16:57:27.602Z</time></trkpt><trkpt lat="42.3462054" lon="13.3156205"><ele>719.0</ele><time>2026-05-02T16:57:28.6Z</time></trkpt><trkpt lat="42.3463265" lon="13.3156373"><ele>720.0</ele><time>2026-05-02T16:57:29.598Z</time></trkpt><trkpt lat="42.3464493" lon="13.315658"><ele>720.3333333333334</ele><time>2026-05-02T16:57:30.601Z</time></trkpt><trkpt lat="42.3465472" lon="13.3156776"><ele>720.6666666666666</ele><time>2026-05-02T16:57:31.599Z</time></trkpt><trkpt lat="42.3466402" lon="13.3156991"><ele>721.0</ele><time>2026-05-02T16:57:32.6Z</time></trkpt><trkpt lat="42.3467389" lon="13.3157102"><ele>721.3333333333333</ele><time>2026-05-02T16:57:33.599Z</time></trkpt><trkpt lat="42.3467958" lon="13.3157485"><ele>721.6666666666666</ele><time>2026-05-02T16:57:34.602Z</time></trkpt><trkpt lat="42.346864" lon="13.3157892"><ele>722.0</ele><time>2026-05-02T16:57:35.6Z</time></trkpt><trkpt lat="42.3469368" lon="13.3158456"><ele>722.0</ele><time>2026-05-02T16:57:36.599Z</time></trkpt><trkpt lat="42.3470197" lon="13.3159185"><ele>722.0</ele><time>2026-05-02T16:57:37.6Z</time></trkpt><trkpt lat="42.3470971" lon="13.3159972"><ele>722.0</ele><time>2026-05-02T16:57:38.603Z</time></trkpt><trkpt lat="42.3471657" lon="13.3160739"><ele>722.0</ele><time>2026-05-02T16:57:39.6Z</time></trkpt><trkpt lat="42.3472261" lon="13.3161503"><ele>722.0</ele><time>2026-05-02T16:57:40.603Z</time></trkpt><trkpt lat="42.3472802" lon="13.3162174"><ele>722.0</ele><time>2026-05-02T16:57:41.602Z</time></trkpt><trkpt lat="42.3473354" lon="13.3162813"><ele>721.5714285714286</ele><time>2026-05-02T16:57:42.601Z</time></trkpt><trkpt lat="42.3473953" lon="13.3163411"><ele>721.1428571428571</ele><time>2026-05-02T16:57:43.602Z</time></trkpt><trkpt lat="42.347452" lon="13.3163796"><ele>720.7142857142857</ele><time>2026-05-02T16:57:44.601Z</time></trkpt><trkpt lat="42.347514" lon="13.3164163"><ele>720.2857142857142</ele><time>2026-05-02T16:57:45.603Z</time></trkpt><trkpt lat="42.3475846" lon="13.3164439"><ele>719.8571428571429</ele><time>2026-05-02T16:57:46.602Z</time></trkpt><trkpt lat="42.3476631" lon="13.3164623"><ele>719.4285714285713</ele><time>2026-05-02T16:57:47.601Z</time></trkpt><trkpt lat="42.3477342" lon="13.3164768"><ele>719.0</ele><time>2026-05-02T16:57:48.602Z</time></trkpt><trkpt lat="42.3477958" lon="13.3164997"><ele>718.9999999999999</ele><time>2026-05-02T16:57:49.6Z</time></trkpt><trkpt lat="42.3478654" lon="13.316532"><ele>719.0</ele><time>2026-05-02T16:57:50.598Z</time></trkpt><trkpt lat="42.3479317" lon="13.3165747"><ele>719.0</ele><time>2026-05-02T16:57:51.601Z</time></trkpt><trkpt lat="42.3479934" lon="13.3166218"><ele>719.0</ele><time>2026-05-02T16:57:52.598Z</time></trkpt><trkpt lat="42.3480549" lon="13.3166712"><ele>719.0</ele><time>2026-05-02T16:57:53.602Z</time></trkpt><trkpt lat="42.3481165" lon="13.3167178"><ele>718.9999999999999</ele><time>2026-05-02T16:57:54.602Z</time></trkpt><trkpt lat="42.3481798" lon="13.3167689"><ele>719.0</ele><time>2026-05-02T16:57:55.6Z</time></trkpt><trkpt lat="42.348248" lon="13.3168129"><ele>718.6666666666666</ele><time>2026-05-02T16:57:56.598Z</time></trkpt><trkpt lat="42.3483163" lon="13.3168587"><ele>718.3333333333333</ele><time>2026-05-02T16:57:57.6Z</time></trkpt><trkpt lat="42.3483858" lon="13.3169003"><ele>718.0</ele><time>2026-05-02T16:57:58.598Z</time></trkpt><trkpt lat="42.3484665" lon="13.3169145"><ele>717.6666666666666</ele><time>2026-05-02T16:57:59.599Z</time></trkpt><trkpt lat="42.3485447" lon="13.3169306"><ele>717.3333333333334</ele><time>2026-05-02T16:58:00.602Z</time></trkpt><trkpt lat="42.3486337" lon="13.3169259"><ele>717.0</ele><time>2026-05-02T16:58:01.6Z</time></trkpt><trkpt lat="42.3487169" lon="13.3169346"><ele>717.0</ele><time>2026-05-02T16:58:02.599Z</time></trkpt><trkpt lat="42.3488036" lon="13.3169395"><ele>717.0</ele><time>2026-05-02T16:58:03.598Z</time></trkpt><trkpt lat="42.3489083" lon="13.3169366"><ele>717.0</ele><time>2026-05-02T16:58:05.601Z</time></trkpt><trkpt lat="42.3489887" lon="13.3169656"><ele>717.0</ele><time>2026-05-02T16:58:08.602Z</time></trkpt><trkpt lat="42.3490155" lon="13.3168526"><ele>717.0</ele><time>2026-05-02T16:58:12.6Z</time></trkpt><trkpt lat="42.3489974" lon="13.3167179"><ele>715.0</ele><time>2026-05-02T16:58:14.603Z</time></trkpt><trkpt lat="42.3490589" lon="13.3166663"><ele>713.0</ele><time>2026-05-02T16:58:17.601Z</time></trkpt><trkpt lat="42.3491141" lon="13.316762"><ele>711.0</ele><time>2026-05-02T16:58:19.602Z</time></trkpt><trkpt lat="42.3491709" lon="13.3168398"><ele>709.0</ele><time>2026-05-02T16:58:20.602Z</time></trkpt><trkpt lat="42.349252" lon="13.3169157"><ele>707.0</ele><time>2026-05-02T16:58:21.601Z</time></trkpt><trkpt lat="42.3493444" lon="13.3169838"><ele>705.0</ele><time>2026-05-02T16:58:22.603Z</time></trkpt><trkpt lat="42.349436" lon="13.3170411"><ele>705.0</ele><time>2026-05-02T16:58:23.603Z</time></trkpt><trkpt lat="42.3495257" lon="13.3171022"><ele>705.0</ele><time>2026-05-02T16:58:24.603Z</time></trkpt><trkpt lat="42.3496254" lon="13.3171798"><ele>705.0</ele><time>2026-05-02T16:58:25.603Z</time></trkpt><trkpt lat="42.3497301" lon="13.317269"><ele>705.0</ele><time>2026-05-02T16:58:26.598Z</time></trkpt><trkpt lat="42.3498303" lon="13.3173751"><ele>702.75</ele><time>2026-05-02T16:58:27.602Z</time></trkpt><trkpt lat="42.3499291" lon="13.3174971"><ele>700.5</ele><time>2026-05-02T16:58:28.601Z</time></trkpt><trkpt lat="42.3500323" lon="13.3176369"><ele>698.25</ele><time>2026-05-02T16:58:29.602Z</time></trkpt><trkpt lat="42.3501411" lon="13.317787"><ele>696.0</ele><time>2026-05-02T16:58:30.603Z</time></trkpt><trkpt lat="42.3502552" lon="13.3179514"><ele>696.3333333333334</ele><time>2026-05-02T16:58:31.602Z</time></trkpt><trkpt lat="42.3503749" lon="13.3181244"><ele>696.6666666666667</ele><time>2026-05-02T16:58:32.601Z</time></trkpt><trkpt lat="42.3504937" lon="13.3182933"><ele>697.0</ele><time>2026-05-02T16:58:33.601Z</time></trkpt><trkpt lat="42.3506074" lon="13.3184565"><ele>693.3333333333334</ele><time>2026-05-02T16:58:34.603Z</time></trkpt><trkpt lat="42.3507193" lon="13.3186106"><ele>689.6666666666666</ele><time>2026-05-02T16:58:35.598Z</time></trkpt><trkpt lat="42.3508274" lon="13.3187608"><ele>686.0</ele><time>2026-05-02T16:58:36.599Z</time></trkpt><trkpt lat="42.3509326" lon="13.3189023"><ele>685.25</ele><time>2026-05-02T16:58:37.598Z</time></trkpt><trkpt lat="42.3510338" lon="13.319041"><ele>684.5</ele><time>2026-05-02T16:58:38.602Z</time></trkpt><trkpt lat="42.3511283" lon="13.3191781"><ele>683.75</ele><time>2026-05-02T16:58:39.602Z</time></trkpt><trkpt lat="42.3512223" lon="13.3193118"><ele>683.0</ele><time>2026-05-02T16:58:40.602Z</time></trkpt><trkpt lat="42.3513248" lon="13.3194357"><ele>683.0</ele><time>2026-05-02T16:58:41.602Z</time></trkpt><trkpt lat="42.3514439" lon="13.3195542"><ele>683.0</ele><time>2026-05-02T16:58:42.603Z</time></trkpt><trkpt lat="42.351574" lon="13.3196628"><ele>683.0</ele><time>2026-05-02T16:58:43.6Z</time></trkpt><trkpt lat="42.35171" lon="13.3197741"><ele>683.0</ele><time>2026-05-02T16:58:44.602Z</time></trkpt><trkpt lat="42.3518455" lon="13.3198837"><ele>683.0</ele><time>2026-05-02T16:58:45.603Z</time></trkpt><trkpt lat="42.3519755" lon="13.3199965"><ele>683.0</ele><time>2026-05-02T16:58:46.602Z</time></trkpt><trkpt lat="42.3521036" lon="13.3201116"><ele>681.0</ele><time>2026-05-02T16:58:47.602Z</time></trkpt><trkpt lat="42.3522264" lon="13.3202281"><ele>679.0</ele><time>2026-05-02T16:58:48.602Z</time></trkpt><trkpt lat="42.3523482" lon="13.3203433"><ele>677.0</ele><time>2026-05-02T16:58:49.602Z</time></trkpt><trkpt lat="42.3524662" lon="13.3204573"><ele>675.0</ele><time>2026-05-02T16:58:50.603Z</time></trkpt><trkpt lat="42.3525689" lon="13.3205543"><ele>675.2</ele><time>2026-05-02T16:58:51.602Z</time></trkpt><trkpt lat="42.3526585" lon="13.3206279"><ele>675.4</ele><time>2026-05-02T16:58:52.602Z</time></trkpt><trkpt lat="42.3527265" lon="13.3206867"><ele>675.5999999999999</ele><time>2026-05-02T16:58:53.602Z</time></trkpt><trkpt lat="42.3528153" lon="13.3207624"><ele>675.8</ele><time>2026-05-02T16:58:55.603Z</time></trkpt><trkpt lat="42.352852" lon="13.3208473"><ele>676.0</ele><time>2026-05-02T16:58:57.602Z</time></trkpt><trkpt lat="42.3528563" lon="13.3210471"><ele>676.0</ele><time>2026-05-02T16:58:59.603Z</time></trkpt><trkpt lat="42.3528584" lon="13.3212086"><ele>676.0</ele><time>2026-05-02T16:59:00.601Z</time></trkpt><trkpt lat="42.3528685" lon="13.3214042"><ele>676.0</ele><time>2026-05-02T16:59:01.601Z</time></trkpt><trkpt lat="42.3528889" lon="13.3216075"><ele>676.0</ele><time>2026-05-02T16:59:02.6Z</time></trkpt><trkpt lat="42.3529334" lon="13.3218167"><ele>674.5</ele><time>2026-05-02T16:59:03.6Z</time></trkpt><trkpt lat="42.3529949" lon="13.3220112"><ele>673.0</ele><time>2026-05-02T16:59:04.602Z</time></trkpt><trkpt lat="42.3530626" lon="13.3221915"><ele>671.5</ele><time>2026-05-02T16:59:05.602Z</time></trkpt><trkpt lat="42.3531223" lon="13.3223603"><ele>670.0</ele><time>2026-05-02T16:59:06.602Z</time></trkpt><trkpt lat="42.3531654" lon="13.3225002"><ele>669.1666666666667</ele><time>2026-05-02T16:59:07.602Z</time></trkpt><trkpt lat="42.3531985" lon="13.3226186"><ele>668.3333333333334</ele><time>2026-05-02T16:59:08.602Z</time></trkpt><trkpt lat="42.3532137" lon="13.3227305"><ele>667.5</ele><time>2026-05-02T16:59:09.602Z</time></trkpt><trkpt lat="42.3532274" lon="13.3228177"><ele>666.6666666666666</ele><time>2026-05-02T16:59:10.602Z</time></trkpt><trkpt lat="42.3532624" lon="13.3229193"><ele>665.8333333333333</ele><time>2026-05-02T16:59:11.601Z</time></trkpt><trkpt lat="42.3533306" lon="13.3230263"><ele>665.0</ele><time>2026-05-02T16:59:12.599Z</time></trkpt><trkpt lat="42.3534127" lon="13.3231728"><ele>664.0</ele><time>2026-05-02T16:59:13.602Z</time></trkpt><trkpt lat="42.3535026" lon="13.3233615"><ele>663.0</ele><time>2026-05-02T16:59:14.603Z</time></trkpt><trkpt lat="42.3536016" lon="13.323577"><ele>662.0</ele><time>2026-05-02T16:59:15.602Z</time></trkpt><trkpt lat="42.3537007" lon="13.3237983"><ele>661.6666666666666</ele><time>2026-05-02T16:59:16.602Z</time></trkpt><trkpt lat="42.3538058" lon="13.3240339"><ele>661.3333333333334</ele><time>2026-05-02T16:59:17.602Z</time></trkpt><trkpt lat="42.3539069" lon="13.3242468"><ele>661.0</ele><time>2026-05-02T16:59:18.602Z</time></trkpt><trkpt lat="42.354007" lon="13.3244509"><ele>661.0</ele><time>2026-05-02T16:59:19.602Z</time></trkpt><trkpt lat="42.3541048" lon="13.3246586"><ele>661.0</ele><time>2026-05-02T16:59:20.603Z</time></trkpt><trkpt lat="42.3541983" lon="13.3248646"><ele>661.0</ele><time>2026-05-02T16:59:21.602Z</time></trkpt><trkpt lat="42.3542938" lon="13.3250564"><ele>659.6666666666667</ele><time>2026-05-02T16:59:22.602Z</time></trkpt><trkpt lat="42.3543939" lon="13.3252451"><ele>658.3333333333334</ele><time>2026-05-02T16:59:23.602Z</time></trkpt><trkpt lat="42.3544908" lon="13.3254204"><ele>657.0</ele><time>2026-05-02T16:59:24.602Z</time></trkpt><trkpt lat="42.3545851" lon="13.3255849"><ele>656.5</ele><time>2026-05-02T16:59:25.601Z</time></trkpt><trkpt lat="42.3546725" lon="13.3257413"><ele>656.0</ele><time>2026-05-02T16:59:26.601Z</time></trkpt><trkpt lat="42.3547497" lon="13.3258936"><ele>655.5</ele><time>2026-05-02T16:59:27.602Z</time></trkpt><trkpt lat="42.3548202" lon="13.3260446"><ele>655.0</ele><time>2026-05-02T16:59:28.602Z</time></trkpt><trkpt lat="42.3549005" lon="13.3262009"><ele>655.0</ele><time>2026-05-02T16:59:29.602Z</time></trkpt><trkpt lat="42.3550006" lon="13.326385"><ele>655.0</ele><time>2026-05-02T16:59:30.602Z</time></trkpt><trkpt lat="42.3551155" lon="13.3265942"><ele>655.0</ele><time>2026-05-02T16:59:31.602Z</time></trkpt><trkpt lat="42.3552474" lon="13.3268245"><ele>655.0</ele><time>2026-05-02T16:59:32.602Z</time></trkpt><trkpt lat="42.3553908" lon="13.3270654"><ele>655.0</ele><time>2026-05-02T16:59:33.603Z</time></trkpt><trkpt lat="42.3555352" lon="13.3273105"><ele>654.3333333333334</ele><time>2026-05-02T16:59:34.602Z</time></trkpt><trkpt lat="42.3556708" lon="13.327563"><ele>653.6666666666666</ele><time>2026-05-02T16:59:35.6Z</time></trkpt><trkpt lat="42.3557976" lon="13.3278036"><ele>653.0</ele><time>2026-05-02T16:59:36.602Z</time></trkpt><trkpt lat="42.3559201" lon="13.3280294"><ele>652.6666666666666</ele><time>2026-05-02T16:59:37.602Z</time></trkpt><trkpt lat="42.3560323" lon="13.3282455"><ele>652.3333333333334</ele><time>2026-05-02T16:59:38.601Z</time></trkpt><trkpt lat="42.3561343" lon="13.3284534"><ele>652.0</ele><time>2026-05-02T16:59:39.603Z</time></trkpt><trkpt lat="42.3562066" lon="13.3286371"><ele>652.0</ele><time>2026-05-02T16:59:40.602Z</time></trkpt><trkpt lat="42.3562463" lon="13.3288146"><ele>652.0</ele><time>2026-05-02T16:59:41.602Z</time></trkpt><trkpt lat="42.3562532" lon="13.3290159"><ele>652.0</ele><time>2026-05-02T16:59:42.602Z</time></trkpt><trkpt lat="42.3562301" lon="13.3292412"><ele>652.0</ele><time>2026-05-02T16:59:43.602Z</time></trkpt><trkpt lat="42.3561829" lon="13.3294891"><ele>652.0</ele><time>2026-05-02T16:59:44.603Z</time></trkpt><trkpt lat="42.3561311" lon="13.3297617"><ele>652.0</ele><time>2026-05-02T16:59:45.602Z</time></trkpt><trkpt lat="42.3560753" lon="13.3300499"><ele>652.0</ele><time>2026-05-02T16:59:46.602Z</time></trkpt><trkpt lat="42.3560121" lon="13.3303487"><ele>652.0</ele><time>2026-05-02T16:59:47.602Z</time></trkpt><trkpt lat="42.3559493" lon="13.3306518"><ele>652.5</ele><time>2026-05-02T16:59:48.602Z</time></trkpt><trkpt lat="42.3559009" lon="13.3309546"><ele>653.0</ele><time>2026-05-02T16:59:49.6Z</time></trkpt><trkpt lat="42.3558687" lon="13.331283"><ele>652.5</ele><time>2026-05-02T16:59:50.603Z</time></trkpt><trkpt lat="42.3558438" lon="13.331639"><ele>652.0</ele><time>2026-05-02T16:59:51.602Z</time></trkpt><trkpt lat="42.3558218" lon="13.3320088"><ele>650.0</ele><time>2026-05-02T16:59:52.602Z</time></trkpt><trkpt lat="42.3557984" lon="13.3323659"><ele>648.0</ele><time>2026-05-02T16:59:53.602Z</time></trkpt><trkpt lat="42.3557742" lon="13.3327152"><ele>648.0</ele><time>2026-05-02T16:59:54.602Z</time></trkpt><trkpt lat="42.3557521" lon="13.3330432"><ele>648.0</ele><time>2026-05-02T16:59:55.602Z</time></trkpt><trkpt lat="42.3557313" lon="13.3333538"><ele>647.6666666666666</ele><time>2026-05-02T16:59:56.602Z</time></trkpt><trkpt lat="42.3557128" lon="13.3336557"><ele>647.3333333333333</ele><time>2026-05-02T16:59:57.602Z</time></trkpt><trkpt lat="42.3556951" lon="13.3339508"><ele>647.0</ele><time>2026-05-02T16:59:58.603Z</time></trkpt><trkpt lat="42.3556797" lon="13.3342163"><ele>646.6666666666666</ele><time>2026-05-02T16:59:59.598Z</time></trkpt><trkpt lat="42.3556874" lon="13.3344556"><ele>646.3333333333334</ele><time>2026-05-02T17:00:00.599Z</time></trkpt><trkpt lat="42.3557182" lon="13.3346833"><ele>646.0</ele><time>2026-05-02T17:00:01.6Z</time></trkpt><trkpt lat="42.3557524" lon="13.334866"><ele>645.3333333333334</ele><time>2026-05-02T17:00:02.599Z</time></trkpt><trkpt lat="42.3557832" lon="13.3350032"><ele>644.6666666666667</ele><time>2026-05-02T17:00:03.598Z</time></trkpt><trkpt lat="42.3558071" lon="13.335108"><ele>644.0</ele><time>2026-05-02T17:00:04.601Z</time></trkpt><trkpt lat="42.3558274" lon="13.3351987"><ele>643.3333333333334</ele><time>2026-05-02T17:00:05.6Z</time></trkpt><trkpt lat="42.3558526" lon="13.3353166"><ele>642.6666666666666</ele><time>2026-05-02T17:00:07.602Z</time></trkpt><trkpt lat="42.3559036" lon="13.3353874"><ele>642.0</ele><time>2026-05-02T17:00:09.601Z</time></trkpt><trkpt lat="42.3560106" lon="13.335428"><ele>641.9999999999999</ele><time>2026-05-02T17:00:11.602Z</time></trkpt><trkpt lat="42.3560698" lon="13.3354643"><ele>642.0</ele><time>2026-05-02T17:00:12.602Z</time></trkpt><trkpt lat="42.3561242" lon="13.3355143"><ele>642.0</ele><time>2026-05-02T17:00:13.602Z</time></trkpt><trkpt lat="42.3561779" lon="13.335567"><ele>642.0</ele><time>2026-05-02T17:00:14.602Z</time></trkpt><trkpt lat="42.3562385" lon="13.3356263"><ele>642.0</ele><time>2026-05-02T17:00:15.602Z</time></trkpt><trkpt lat="42.3563075" lon="13.3356828"><ele>641.9999999999999</ele><time>2026-05-02T17:00:16.602Z</time></trkpt><trkpt lat="42.3563817" lon="13.3357425"><ele>642.0</ele><time>2026-05-02T17:00:17.603Z</time></trkpt><trkpt lat="42.3564476" lon="13.3358067"><ele>641.3333333333334</ele><time>2026-05-02T17:00:18.602Z</time></trkpt><trkpt lat="42.3565145" lon="13.3358756"><ele>640.6666666666666</ele><time>2026-05-02T17:00:19.602Z</time></trkpt><trkpt lat="42.3565849" lon="13.3359422"><ele>640.0</ele><time>2026-05-02T17:00:20.601Z</time></trkpt><trkpt lat="42.3566545" lon="13.3360059"><ele>639.3333333333333</ele><time>2026-05-02T17:00:21.602Z</time></trkpt><trkpt lat="42.3567243" lon="13.33607"><ele>638.6666666666666</ele><time>2026-05-02T17:00:22.6Z</time></trkpt><trkpt lat="42.3567965" lon="13.3361365"><ele>638.0</ele><time>2026-05-02T17:00:23.603Z</time></trkpt><trkpt lat="42.3568694" lon="13.3362016"><ele>638.0</ele><time>2026-05-02T17:00:24.602Z</time></trkpt><trkpt lat="42.3569379" lon="13.336266"><ele>638.0</ele><time>2026-05-02T17:00:25.603Z</time></trkpt><trkpt lat="42.3569958" lon="13.3363353"><ele>638.0</ele><time>2026-05-02T17:00:26.602Z</time></trkpt><trkpt lat="42.3570374" lon="13.3364156"><ele>638.0</ele><time>2026-05-02T17:00:27.601Z</time></trkpt><trkpt lat="42.3570564" lon="13.3365082"><ele>638.0</ele><time>2026-05-02T17:00:28.602Z</time></trkpt><trkpt lat="42.3570528" lon="13.3366273"><ele>638.0</ele><time>2026-05-02T17:00:29.603Z</time></trkpt><trkpt lat="42.3570267" lon="13.3367813"><ele>639.0</ele><time>2026-05-02T17:00:30.602Z</time></trkpt><trkpt lat="42.3569876" lon="13.3369761"><ele>640.0</ele><time>2026-05-02T17:00:31.602Z</time></trkpt><trkpt lat="42.3569394" lon="13.3372109"><ele>641.0</ele><time>2026-05-02T17:00:32.603Z</time></trkpt><trkpt lat="42.3568857" lon="13.3374725"><ele>641.3333333333333</ele><time>2026-05-02T17:00:33.602Z</time></trkpt><trkpt lat="42.3568305" lon="13.3377618"><ele>641.6666666666666</ele><time>2026-05-02T17:00:34.603Z</time></trkpt><trkpt lat="42.3567758" lon="13.338053"><ele>642.0</ele><time>2026-05-02T17:00:35.603Z</time></trkpt><trkpt lat="42.3567149" lon="13.3383747"><ele>642.5</ele><time>2026-05-02T17:00:36.602Z</time></trkpt><trkpt lat="42.3566486" lon="13.3387166"><ele>643.0</ele><time>2026-05-02T17:00:37.602Z</time></trkpt><trkpt lat="42.356582" lon="13.3390583"><ele>643.0</ele><time>2026-05-02T17:00:38.602Z</time></trkpt><trkpt lat="42.3565142" lon="13.3394068"><ele>643.0</ele><time>2026-05-02T17:00:39.603Z</time></trkpt><trkpt lat="42.3564465" lon="13.3397603"><ele>643.5</ele><time>2026-05-02T17:00:40.603Z</time></trkpt><trkpt lat="42.3563794" lon="13.340109"><ele>644.0</ele><time>2026-05-02T17:00:41.602Z</time></trkpt><trkpt lat="42.3563111" lon="13.3404613"><ele>641.5</ele><time>2026-05-02T17:00:42.601Z</time></trkpt><trkpt lat="42.3562452" lon="13.340801"><ele>639.0</ele><time>2026-05-02T17:00:43.599Z</time></trkpt><trkpt lat="42.3561802" lon="13.3411372"><ele>639.0</ele><time>2026-05-02T17:00:44.598Z</time></trkpt><trkpt lat="42.356115" lon="13.3414652"><ele>639.0</ele><time>2026-05-02T17:00:45.601Z</time></trkpt><trkpt lat="42.3560527" lon="13.3417871"><ele>639.0</ele><time>2026-05-02T17:00:46.602Z</time></trkpt><trkpt lat="42.3559912" lon="13.3421043"><ele>639.0</ele><time>2026-05-02T17:00:47.603Z</time></trkpt><trkpt lat="42.3559301" lon="13.3424156"><ele>638.6666666666666</ele><time>2026-05-02T17:00:48.601Z</time></trkpt><trkpt lat="42.3558706" lon="13.3427179"><ele>638.3333333333333</ele><time>2026-05-02T17:00:49.602Z</time></trkpt><trkpt lat="42.3558187" lon="13.3430033"><ele>638.0</ele><time>2026-05-02T17:00:50.602Z</time></trkpt><trkpt lat="42.3557832" lon="13.3432807"><ele>638.0</ele><time>2026-05-02T17:00:51.602Z</time></trkpt><trkpt lat="42.3557695" lon="13.343572"><ele>638.0</ele><time>2026-05-02T17:00:52.601Z</time></trkpt><trkpt lat="42.3557845" lon="13.3438759"><ele>638.0</ele><time>2026-05-02T17:00:53.602Z</time></trkpt><trkpt lat="42.3558255" lon="13.3441906"><ele>636.5</ele><time>2026-05-02T17:00:54.602Z</time></trkpt><trkpt lat="42.355888" lon="13.3445191"><ele>635.0</ele><time>2026-05-02T17:00:55.603Z</time></trkpt><trkpt lat="42.3559631" lon="13.3448597"><ele>633.5</ele><time>2026-05-02T17:00:56.602Z</time></trkpt><trkpt lat="42.3560417" lon="13.3452065"><ele>632.0</ele><time>2026-05-02T17:00:57.602Z</time></trkpt><trkpt lat="42.3561215" lon="13.3455518"><ele>632.0</ele><time>2026-05-02T17:00:58.603Z</time></trkpt><trkpt lat="42.3562026" lon="13.3458957"><ele>632.0</ele><time>2026-05-02T17:00:59.6Z</time></trkpt><trkpt lat="42.3562834" lon="13.3462351"><ele>632.0</ele><time>2026-05-02T17:01:00.602Z</time></trkpt><trkpt lat="42.3563618" lon="13.3465593"><ele>632.0</ele><time>2026-05-02T17:01:01.6Z</time></trkpt><trkpt lat="42.356436" lon="13.3468681"><ele>634.5</ele><time>2026-05-02T17:01:02.6Z</time></trkpt><trkpt lat="42.3565069" lon="13.3471707"><ele>637.0</ele><time>2026-05-02T17:01:03.603Z</time></trkpt><trkpt lat="42.3565718" lon="13.3474542"><ele>637.0</ele><time>2026-05-02T17:01:04.601Z</time></trkpt><trkpt lat="42.3566351" lon="13.3477232"><ele>637.0</ele><time>2026-05-02T17:01:05.602Z</time></trkpt><trkpt lat="42.3566975" lon="13.3479763"><ele>637.0</ele><time>2026-05-02T17:01:06.603Z</time></trkpt><trkpt lat="42.356759" lon="13.3482155"><ele>636.0</ele><time>2026-05-02T17:01:07.602Z</time></trkpt><trkpt lat="42.3568222" lon="13.3484413"><ele>635.0</ele><time>2026-05-02T17:01:08.602Z</time></trkpt><trkpt lat="42.356877" lon="13.3486518"><ele>634.0</ele><time>2026-05-02T17:01:09.603Z</time></trkpt><trkpt lat="42.3569103" lon="13.348836"><ele>633.8333333333334</ele><time>2026-05-02T17:01:10.602Z</time></trkpt><trkpt lat="42.3569314" lon="13.3489745"><ele>633.6666666666667</ele><time>2026-05-02T17:01:11.602Z</time></trkpt><trkpt lat="42.3569549" lon="13.3490994"><ele>633.5</ele><time>2026-05-02T17:01:12.603Z</time></trkpt><trkpt lat="42.356979" lon="13.3491911"><ele>633.3333333333334</ele><time>2026-05-02T17:01:13.603Z</time></trkpt><trkpt lat="42.3569994" lon="13.3492733"><ele>633.1666666666666</ele><time>2026-05-02T17:01:14.603Z</time></trkpt><trkpt lat="42.3570155" lon="13.349381"><ele>633.0</ele><time>2026-05-02T17:01:16.603Z</time></trkpt><trkpt lat="42.3570144" lon="13.3494748"><ele>633.0</ele><time>2026-05-02T17:01:19.601Z</time></trkpt><trkpt lat="42.3569701" lon="13.3496319"><ele>633.0</ele><time>2026-05-02T17:01:21.602Z</time></trkpt><trkpt lat="42.3569353" lon="13.3497402"><ele>633.0</ele><time>2026-05-02T17:01:22.601Z</time></trkpt><trkpt lat="42.3569279" lon="13.3498585"><ele>633.0</ele><time>2026-05-02T17:01:23.602Z</time></trkpt><trkpt lat="42.3569472" lon="13.3499775"><ele>633.0</ele><time>2026-05-02T17:01:24.602Z</time></trkpt><trkpt lat="42.3569862" lon="13.3500735"><ele>633.1999999999999</ele><time>2026-05-02T17:01:25.602Z</time></trkpt><trkpt lat="42.3570476" lon="13.3501553"><ele>633.4</ele><time>2026-05-02T17:01:26.602Z</time></trkpt><trkpt lat="42.3571297" lon="13.3502125"><ele>633.5999999999999</ele><time>2026-05-02T17:01:27.601Z</time></trkpt><trkpt lat="42.3572244" lon="13.3502437"><ele>633.8</ele><time>2026-05-02T17:01:28.602Z</time></trkpt><trkpt lat="42.3573264" lon="13.3502629"><ele>634.0</ele><time>2026-05-02T17:01:29.602Z</time></trkpt><trkpt lat="42.3574303" lon="13.35029"><ele>634.0</ele><time>2026-05-02T17:01:30.603Z</time></trkpt><trkpt lat="42.3575389" lon="13.3503296"><ele>634.0</ele><time>2026-05-02T17:01:31.602Z</time></trkpt><trkpt lat="42.3576413" lon="13.3503886"><ele>634.0</ele><time>2026-05-02T17:01:32.602Z</time></trkpt><trkpt lat="42.3577315" lon="13.3504637"><ele>634.0</ele><time>2026-05-02T17:01:33.601Z</time></trkpt><trkpt lat="42.3578191" lon="13.3505422"><ele>634.0</ele><time>2026-05-02T17:01:34.602Z</time></trkpt><trkpt lat="42.3579155" lon="13.3506421"><ele>633.0</ele><time>2026-05-02T17:01:35.602Z</time></trkpt><trkpt lat="42.3580206" lon="13.3507829"><ele>632.0</ele><time>2026-05-02T17:01:36.603Z</time></trkpt><trkpt lat="42.3581316" lon="13.3509485"><ele>631.0</ele><time>2026-05-02T17:01:37.602Z</time></trkpt><trkpt lat="42.3582386" lon="13.3511282"><ele>630.3333333333334</ele><time>2026-05-02T17:01:38.602Z</time></trkpt><trkpt lat="42.3583339" lon="13.3513047"><ele>629.6666666666666</ele><time>2026-05-02T17:01:39.601Z</time></trkpt><trkpt lat="42.3584279" lon="13.351481"><ele>629.0</ele><time>2026-05-02T17:01:40.603Z</time></trkpt><trkpt lat="42.3585109" lon="13.3516482"><ele>628.75</ele><time>2026-05-02T17:01:41.602Z</time></trkpt><trkpt lat="42.3585864" lon="13.3518058"><ele>628.5</ele><time>2026-05-02T17:01:42.602Z</time></trkpt><trkpt lat="42.3586482" lon="13.3519587"><ele>628.25</ele><time>2026-05-02T17:01:43.602Z</time></trkpt><trkpt lat="42.3586854" lon="13.3521067"><ele>628.0</ele><time>2026-05-02T17:01:44.601Z</time></trkpt><trkpt lat="42.3587016" lon="13.3522515"><ele>628.0</ele><time>2026-05-02T17:01:45.602Z</time></trkpt><trkpt lat="42.3587176" lon="13.3523846"><ele>628.0</ele><time>2026-05-02T17:01:46.602Z</time></trkpt><trkpt lat="42.3587437" lon="13.3524889"><ele>628.0</ele><time>2026-05-02T17:01:47.603Z</time></trkpt><trkpt lat="42.3587767" lon="13.3525836"><ele>628.0</ele><time>2026-05-02T17:01:48.602Z</time></trkpt><trkpt lat="42.3588167" lon="13.3526724"><ele>628.0</ele><time>2026-05-02T17:01:49.603Z</time></trkpt><trkpt lat="42.3588639" lon="13.3527717"><ele>628.0</ele><time>2026-05-02T17:01:50.602Z</time></trkpt><trkpt lat="42.358917" lon="13.3528949"><ele>628.5</ele><time>2026-05-02T17:01:51.602Z</time></trkpt><trkpt lat="42.3589753" lon="13.3530552"><ele>629.0</ele><time>2026-05-02T17:01:52.603Z</time></trkpt><trkpt lat="42.3590354" lon="13.353249"><ele>629.5</ele><time>2026-05-02T17:01:53.602Z</time></trkpt><trkpt lat="42.3590912" lon="13.353455"><ele>630.0</ele><time>2026-05-02T17:01:54.602Z</time></trkpt><trkpt lat="42.3591614" lon="13.3536969"><ele>629.3333333333334</ele><time>2026-05-02T17:01:55.602Z</time></trkpt><trkpt lat="42.3592253" lon="13.3539291"><ele>628.6666666666667</ele><time>2026-05-02T17:01:56.602Z</time></trkpt><trkpt lat="42.3592792" lon="13.3541477"><ele>628.0</ele><time>2026-05-02T17:01:57.602Z</time></trkpt><trkpt lat="42.3593383" lon="13.354359"><ele>628.0</ele><time>2026-05-02T17:01:58.602Z</time></trkpt><trkpt lat="42.3594058" lon="13.3545824"><ele>628.0</ele><time>2026-05-02T17:01:59.601Z</time></trkpt><trkpt lat="42.3594679" lon="13.3548106"><ele>628.0</ele><time>2026-05-02T17:02:00.602Z</time></trkpt><trkpt lat="42.3595198" lon="13.3550422"><ele>628.0</ele><time>2026-05-02T17:02:01.602Z</time></trkpt><trkpt lat="42.3595774" lon="13.3552733"><ele>628.0</ele><time>2026-05-02T17:02:02.603Z</time></trkpt><trkpt lat="42.3596373" lon="13.3554891"><ele>628.0</ele><time>2026-05-02T17:02:03.602Z</time></trkpt><trkpt lat="42.3596965" lon="13.3556921"><ele>627.5</ele><time>2026-05-02T17:02:04.602Z</time></trkpt><trkpt lat="42.3597501" lon="13.3558821"><ele>627.0</ele><time>2026-05-02T17:02:05.603Z</time></trkpt><trkpt lat="42.3597975" lon="13.3560618"><ele>626.5</ele><time>2026-05-02T17:02:06.602Z</time></trkpt><trkpt lat="42.3598434" lon="13.3562337"><ele>626.0</ele><time>2026-05-02T17:02:07.603Z</time></trkpt><trkpt lat="42.3599009" lon="13.356416"><ele>626.0</ele><time>2026-05-02T17:02:08.599Z</time></trkpt><trkpt lat="42.3599573" lon="13.3566295"><ele>626.0</ele><time>2026-05-02T17:02:09.602Z</time></trkpt><trkpt lat="42.3599915" lon="13.3568745"><ele>626.0</ele><time>2026-05-02T17:02:10.602Z</time></trkpt><trkpt lat="42.3600181" lon="13.3571381"><ele>626.3333333333333</ele><time>2026-05-02T17:02:11.602Z</time></trkpt><trkpt lat="42.36003" lon="13.3574027"><ele>626.6666666666666</ele><time>2026-05-02T17:02:12.6Z</time></trkpt><trkpt lat="42.3600264" lon="13.3576741"><ele>627.0</ele><time>2026-05-02T17:02:13.602Z</time></trkpt><trkpt lat="42.360013" lon="13.3579423"><ele>626.6666666666666</ele><time>2026-05-02T17:02:14.602Z</time></trkpt><trkpt lat="42.3599873" lon="13.3582082"><ele>626.3333333333333</ele><time>2026-05-02T17:02:15.602Z</time></trkpt><trkpt lat="42.3599459" lon="13.3584759"><ele>626.0</ele><time>2026-05-02T17:02:16.602Z</time></trkpt><trkpt lat="42.3598883" lon="13.3587427"><ele>625.3333333333333</ele><time>2026-05-02T17:02:17.602Z</time></trkpt><trkpt lat="42.3598222" lon="13.3590066"><ele>624.6666666666666</ele><time>2026-05-02T17:02:18.602Z</time></trkpt><trkpt lat="42.3597543" lon="13.3592681"><ele>624.0</ele><time>2026-05-02T17:02:19.599Z</time></trkpt><trkpt lat="42.3596834" lon="13.3595322"><ele>625.0</ele><time>2026-05-02T17:02:20.602Z</time></trkpt><trkpt lat="42.3596" lon="13.3598138"><ele>626.0</ele><time>2026-05-02T17:02:21.6Z</time></trkpt><trkpt lat="42.3595149" lon="13.3600807"><ele>627.0</ele><time>2026-05-02T17:02:22.598Z</time></trkpt><trkpt lat="42.3594337" lon="13.3603474"><ele>627.3333333333334</ele><time>2026-05-02T17:02:23.602Z</time></trkpt><trkpt lat="42.3593519" lon="13.3606203"><ele>627.6666666666667</ele><time>2026-05-02T17:02:24.602Z</time></trkpt><trkpt lat="42.3592746" lon="13.3608881"><ele>628.0</ele><time>2026-05-02T17:02:25.602Z</time></trkpt><trkpt lat="42.3592024" lon="13.3611375"><ele>630.0</ele><time>2026-05-02T17:02:26.602Z</time></trkpt><trkpt lat="42.35913" lon="13.3613868"><ele>632.0</ele><time>2026-05-02T17:02:27.602Z</time></trkpt><trkpt lat="42.3590617" lon="13.3616245"><ele>634.0</ele><time>2026-05-02T17:02:28.602Z</time></trkpt><trkpt lat="42.3589905" lon="13.3618655"><ele>634.0</ele><time>2026-05-02T17:02:29.601Z</time></trkpt><trkpt lat="42.3589207" lon="13.3621046"><ele>634.0</ele><time>2026-05-02T17:02:30.602Z</time></trkpt><trkpt lat="42.3588542" lon="13.3623283"><ele>634.0</ele><time>2026-05-02T17:02:31.602Z</time></trkpt><trkpt lat="42.3587921" lon="13.3625448"><ele>632.0</ele><time>2026-05-02T17:02:32.602Z</time></trkpt><trkpt lat="42.3587342" lon="13.3627511"><ele>630.0</ele><time>2026-05-02T17:02:33.602Z</time></trkpt><trkpt lat="42.3586803" lon="13.3629477"><ele>628.0</ele><time>2026-05-02T17:02:34.602Z</time></trkpt><trkpt lat="42.358627" lon="13.3631323"><ele>628.0</ele><time>2026-05-02T17:02:35.602Z</time></trkpt><trkpt lat="42.3585701" lon="13.363314"><ele>628.0</ele><time>2026-05-02T17:02:36.599Z</time></trkpt><trkpt lat="42.358517" lon="13.3634877"><ele>628.0</ele><time>2026-05-02T17:02:37.602Z</time></trkpt><trkpt lat="42.3584637" lon="13.3636647"><ele>628.0</ele><time>2026-05-02T17:02:38.599Z</time></trkpt><trkpt lat="42.3584169" lon="13.3638478"><ele>628.5</ele><time>2026-05-02T17:02:39.6Z</time></trkpt><trkpt lat="42.3583745" lon="13.3640311"><ele>629.0</ele><time>2026-05-02T17:02:40.601Z</time></trkpt><trkpt lat="42.3583338" lon="13.3642184"><ele>629.5</ele><time>2026-05-02T17:02:41.603Z</time></trkpt><trkpt lat="42.3582973" lon="13.3644072"><ele>630.0</ele><time>2026-05-02T17:02:42.603Z</time></trkpt><trkpt lat="42.358266" lon="13.3645951"><ele>629.75</ele><time>2026-05-02T17:02:43.602Z</time></trkpt><trkpt lat="42.3582397" lon="13.3647761"><ele>629.5</ele><time>2026-05-02T17:02:44.6Z</time></trkpt><trkpt lat="42.3582218" lon="13.3649487"><ele>629.25</ele><time>2026-05-02T17:02:45.602Z</time></trkpt><trkpt lat="42.3582127" lon="13.3651124"><ele>629.0</ele><time>2026-05-02T17:02:46.603Z</time></trkpt><trkpt lat="42.3582094" lon="13.3652704"><ele>629.0</ele><time>2026-05-02T17:02:47.602Z</time></trkpt><trkpt lat="42.3582117" lon="13.3654211"><ele>629.0</ele><time>2026-05-02T17:02:48.603Z</time></trkpt><trkpt lat="42.3582222" lon="13.3655686"><ele>629.0</ele><time>2026-05-02T17:02:49.602Z</time></trkpt><trkpt lat="42.3582366" lon="13.3657075"><ele>629.0</ele><time>2026-05-02T17:02:50.601Z</time></trkpt><trkpt lat="42.3582572" lon="13.3658408"><ele>629.0</ele><time>2026-05-02T17:02:51.599Z</time></trkpt><trkpt lat="42.3582857" lon="13.3659677"><ele>628.8</ele><time>2026-05-02T17:02:52.599Z</time></trkpt><trkpt lat="42.3583192" lon="13.3660876"><ele>628.5999999999999</ele><time>2026-05-02T17:02:53.602Z</time></trkpt><trkpt lat="42.3583557" lon="13.3662064"><ele>628.4</ele><time>2026-05-02T17:02:54.602Z</time></trkpt><trkpt lat="42.3583968" lon="13.3663192"><ele>628.1999999999999</ele><time>2026-05-02T17:02:55.599Z</time></trkpt><trkpt lat="42.3584414" lon="13.3664312"><ele>628.0</ele><time>2026-05-02T17:02:56.602Z</time></trkpt><trkpt lat="42.358493" lon="13.3665443"><ele>628.0</ele><time>2026-05-02T17:02:57.601Z</time></trkpt><trkpt lat="42.3585458" lon="13.3666589"><ele>628.0</ele><time>2026-05-02T17:02:58.602Z</time></trkpt><trkpt lat="42.3586009" lon="13.3667715"><ele>628.0</ele><time>2026-05-02T17:02:59.602Z</time></trkpt><trkpt lat="42.358663" lon="13.3668982"><ele>628.0</ele><time>2026-05-02T17:03:00.6Z</time></trkpt><trkpt lat="42.3587254" lon="13.3670375"><ele>628.0</ele><time>2026-05-02T17:03:01.602Z</time></trkpt><trkpt lat="42.358779" lon="13.3671789"><ele>628.1999999999999</ele><time>2026-05-02T17:03:02.6Z</time></trkpt><trkpt lat="42.3588259" lon="13.3673143"><ele>628.4</ele><time>2026-05-02T17:03:03.601Z</time></trkpt><trkpt lat="42.3588737" lon="13.3674414"><ele>628.5999999999999</ele><time>2026-05-02T17:03:04.602Z</time></trkpt><trkpt lat="42.3589194" lon="13.3675581"><ele>628.8</ele><time>2026-05-02T17:03:05.602Z</time></trkpt><trkpt lat="42.3589559" lon="13.3676556"><ele>629.0</ele><time>2026-05-02T17:03:06.6Z</time></trkpt><trkpt lat="42.3589832" lon="13.367735"><ele>629.0</ele><time>2026-05-02T17:03:07.601Z</time></trkpt><trkpt lat="42.3590075" lon="13.3678354"><ele>629.0</ele><time>2026-05-02T17:03:09.603Z</time></trkpt><trkpt lat="42.3590161" lon="13.367933"><ele>629.0</ele><time>2026-05-02T17:03:11.602Z</time></trkpt><trkpt lat="42.359043" lon="13.3681021"><ele>629.0</ele><time>2026-05-02T17:03:13.602Z</time></trkpt><trkpt lat="42.3590806" lon="13.3682305"><ele>629.0</ele><time>2026-05-02T17:03:14.602Z</time></trkpt><trkpt lat="42.3591189" lon="13.3684039"><ele>629.0</ele><time>2026-05-02T17:03:15.602Z</time></trkpt><trkpt lat="42.3591432" lon="13.368579"><ele>629.0</ele><time>2026-05-02T17:03:16.602Z</time></trkpt><trkpt lat="42.3591728" lon="13.368782"><ele>629.0</ele><time>2026-05-02T17:03:17.602Z</time></trkpt><trkpt lat="42.3592078" lon="13.3689971"><ele>629.0</ele><time>2026-05-02T17:03:18.6Z</time></trkpt><trkpt lat="42.3592426" lon="13.3692135"><ele>629.3333333333333</ele><time>2026-05-02T17:03:19.601Z</time></trkpt><trkpt lat="42.3592765" lon="13.369436"><ele>629.6666666666666</ele><time>2026-05-02T17:03:20.602Z</time></trkpt><trkpt lat="42.3593106" lon="13.369654"><ele>630.0</ele><time>2026-05-02T17:03:21.6Z</time></trkpt><trkpt lat="42.3593419" lon="13.369864"><ele>630.5</ele><time>2026-05-02T17:03:22.602Z</time></trkpt><trkpt lat="42.3593736" lon="13.3700644"><ele>631.0</ele><time>2026-05-02T17:03:23.603Z</time></trkpt><trkpt lat="42.3594026" lon="13.3702527"><ele>631.5</ele><time>2026-05-02T17:03:24.603Z</time></trkpt><trkpt lat="42.3594297" lon="13.370435"><ele>632.0</ele><time>2026-05-02T17:03:25.601Z</time></trkpt><trkpt lat="42.3594565" lon="13.3706137"><ele>633.25</ele><time>2026-05-02T17:03:26.602Z</time></trkpt><trkpt lat="42.3594812" lon="13.3707815"><ele>634.5</ele><time>2026-05-02T17:03:27.603Z</time></trkpt><trkpt lat="42.3595075" lon="13.3709499"><ele>635.75</ele><time>2026-05-02T17:03:28.6Z</time></trkpt><trkpt lat="42.3595304" lon="13.3710961"><ele>637.0</ele><time>2026-05-02T17:03:29.603Z</time></trkpt><trkpt lat="42.359549" lon="13.3712218"><ele>637.0</ele><time>2026-05-02T17:03:30.6Z</time></trkpt><trkpt lat="42.3595665" lon="13.3713379"><ele>637.0</ele><time>2026-05-02T17:03:31.6Z</time></trkpt><trkpt lat="42.3595846" lon="13.3714603"><ele>637.0</ele><time>2026-05-02T17:03:32.6Z</time></trkpt><trkpt lat="42.3596036" lon="13.3715826"><ele>637.0</ele><time>2026-05-02T17:03:33.602Z</time></trkpt><trkpt lat="42.3596215" lon="13.3717005"><ele>637.0</ele><time>2026-05-02T17:03:34.602Z</time></trkpt><trkpt lat="42.359639" lon="13.3718156"><ele>637.0</ele><time>2026-05-02T17:03:35.602Z</time></trkpt><trkpt lat="42.3596572" lon="13.3719349"><ele>637.2</ele><time>2026-05-02T17:03:36.602Z</time></trkpt><trkpt lat="42.359676" lon="13.3720564"><ele>637.4000000000001</ele><time>2026-05-02T17:03:37.601Z</time></trkpt><trkpt lat="42.3596944" lon="13.3721825"><ele>637.5999999999999</ele><time>2026-05-02T17:03:38.602Z</time></trkpt><trkpt lat="42.3597137" lon="13.3723052"><ele>637.8</ele><time>2026-05-02T17:03:39.602Z</time></trkpt><trkpt lat="42.3597328" lon="13.3724227"><ele>638.0</ele><time>2026-05-02T17:03:40.603Z</time></trkpt><trkpt lat="42.3597514" lon="13.3725437"><ele>638.5999999999999</ele><time>2026-05-02T17:03:41.602Z</time></trkpt><trkpt lat="42.3597695" lon="13.3726639"><ele>639.1999999999999</ele><time>2026-05-02T17:03:42.603Z</time></trkpt><trkpt lat="42.3597882" lon="13.372787"><ele>639.8</ele><time>2026-05-02T17:03:43.601Z</time></trkpt><trkpt lat="42.3598072" lon="13.3729113"><ele>640.4</ele><time>2026-05-02T17:03:44.602Z</time></trkpt><trkpt lat="42.3598265" lon="13.3730442"><ele>641.0</ele><time>2026-05-02T17:03:45.601Z</time></trkpt><trkpt lat="42.3598502" lon="13.3731937"><ele>641.5</ele><time>2026-05-02T17:03:46.602Z</time></trkpt><trkpt lat="42.3598779" lon="13.3733429"><ele>642.0</ele><time>2026-05-02T17:03:47.602Z</time></trkpt><trkpt lat="42.3599052" lon="13.3734737"><ele>642.5</ele><time>2026-05-02T17:03:48.602Z</time></trkpt><trkpt lat="42.3599253" lon="13.3735722"><ele>643.0</ele><time>2026-05-02T17:03:49.601Z</time></trkpt><trkpt lat="42.3599451" lon="13.3736617"><ele>643.5</ele><time>2026-05-02T17:03:50.602Z</time></trkpt><trkpt lat="42.3599666" lon="13.3737694"><ele>644.0</ele><time>2026-05-02T17:03:51.602Z</time></trkpt><trkpt lat="42.3599832" lon="13.3739261"><ele>644.3333333333333</ele><time>2026-05-02T17:03:52.602Z</time></trkpt><trkpt lat="42.3600022" lon="13.3741266"><ele>644.6666666666666</ele><time>2026-05-02T17:03:53.601Z</time></trkpt><trkpt lat="42.3600296" lon="13.3743503"><ele>645.0</ele><time>2026-05-02T17:03:54.603Z</time></trkpt><trkpt lat="42.3600599" lon="13.3745752"><ele>645.3333333333334</ele><time>2026-05-02T17:03:55.602Z</time></trkpt><trkpt lat="42.3600929" lon="13.3748127"><ele>645.6666666666667</ele><time>2026-05-02T17:03:56.602Z</time></trkpt><trkpt lat="42.3601265" lon="13.3750528"><ele>646.0</ele><time>2026-05-02T17:03:57.599Z</time></trkpt><trkpt lat="42.3601571" lon="13.3752801"><ele>646.0</ele><time>2026-05-02T17:03:58.602Z</time></trkpt><trkpt lat="42.3601853" lon="13.3754908"><ele>646.0</ele><time>2026-05-02T17:03:59.602Z</time></trkpt><trkpt lat="42.3602112" lon="13.3756975"><ele>646.0</ele><time>2026-05-02T17:04:00.603Z</time></trkpt><trkpt lat="42.3602383" lon="13.3759037"><ele>646.5</ele><time>2026-05-02T17:04:01.602Z</time></trkpt><trkpt lat="42.3602633" lon="13.3760938"><ele>647.0</ele><time>2026-05-02T17:04:02.602Z</time></trkpt><trkpt lat="42.3602892" lon="13.3762866"><ele>647.5</ele><time>2026-05-02T17:04:03.597Z</time></trkpt><trkpt lat="42.3603174" lon="13.3764775"><ele>648.0</ele><time>2026-05-02T17:04:04.598Z</time></trkpt><trkpt lat="42.3603397" lon="13.3766535"><ele>648.5</ele><time>2026-05-02T17:04:05.6Z</time></trkpt><trkpt lat="42.3603605" lon="13.3768331"><ele>649.0</ele><time>2026-05-02T17:04:06.603Z</time></trkpt><trkpt lat="42.360378" lon="13.377014"><ele>649.5</ele><time>2026-05-02T17:04:07.603Z</time></trkpt><trkpt lat="42.3603817" lon="13.3771789"><ele>650.0</ele><time>2026-05-02T17:04:08.603Z</time></trkpt><trkpt lat="42.3603797" lon="13.3773351"><ele>650.0</ele><time>2026-05-02T17:04:09.6Z</time></trkpt><trkpt lat="42.3603786" lon="13.3774908"><ele>650.0</ele><time>2026-05-02T17:04:10.603Z</time></trkpt><trkpt lat="42.3603745" lon="13.3776488"><ele>650.0</ele><time>2026-05-02T17:04:11.602Z</time></trkpt><trkpt lat="42.3603699" lon="13.3778065"><ele>650.0</ele><time>2026-05-02T17:04:12.602Z</time></trkpt><trkpt lat="42.3603677" lon="13.3779514"><ele>650.2</ele><time>2026-05-02T17:04:13.602Z</time></trkpt><trkpt lat="42.3603627" lon="13.3780869"><ele>650.4</ele><time>2026-05-02T17:04:14.603Z</time></trkpt><trkpt lat="42.3603555" lon="13.3782148"><ele>650.5999999999999</ele><time>2026-05-02T17:04:15.603Z</time></trkpt><trkpt lat="42.3603437" lon="13.3783493"><ele>650.8</ele><time>2026-05-02T17:04:16.603Z</time></trkpt><trkpt lat="42.3603215" lon="13.3785075"><ele>651.0</ele><time>2026-05-02T17:04:17.6Z</time></trkpt><trkpt lat="42.3602735" lon="13.3786978"><ele>651.25</ele><time>2026-05-02T17:04:18.603Z</time></trkpt><trkpt lat="42.3602264" lon="13.378902"><ele>651.5</ele><time>2026-05-02T17:04:19.602Z</time></trkpt><trkpt lat="42.3601864" lon="13.3790947"><ele>651.75</ele><time>2026-05-02T17:04:20.602Z</time></trkpt><trkpt lat="42.3601309" lon="13.3792656"><ele>652.0</ele><time>2026-05-02T17:04:21.602Z</time></trkpt><trkpt lat="42.3600809" lon="13.3793919"><ele>652.0</ele><time>2026-05-02T17:04:22.599Z</time></trkpt><trkpt lat="42.3600301" lon="13.379489"><ele>652.0</ele><time>2026-05-02T17:04:23.601Z</time></trkpt><trkpt lat="42.3599821" lon="13.3795603"><ele>652.0</ele><time>2026-05-02T17:04:24.599Z</time></trkpt><trkpt lat="42.3599392" lon="13.3796277"><ele>652.0</ele><time>2026-05-02T17:04:25.602Z</time></trkpt><trkpt lat="42.3599053" lon="13.379707"><ele>652.0</ele><time>2026-05-02T17:04:26.599Z</time></trkpt><trkpt lat="42.359896" lon="13.3798024"><ele>652.0</ele><time>2026-05-02T17:04:27.602Z</time></trkpt><trkpt lat="42.3599002" lon="13.3799159"><ele>652.0</ele><time>2026-05-02T17:04:28.599Z</time></trkpt><trkpt lat="42.3598926" lon="13.3800425"><ele>651.75</ele><time>2026-05-02T17:04:29.602Z</time></trkpt><trkpt lat="42.3598636" lon="13.3801783"><ele>651.5</ele><time>2026-05-02T17:04:30.601Z</time></trkpt><trkpt lat="42.3598151" lon="13.3803137"><ele>651.25</ele><time>2026-05-02T17:04:31.602Z</time></trkpt><trkpt lat="42.3597412" lon="13.380459"><ele>651.0</ele><time>2026-05-02T17:04:32.603Z</time></trkpt><trkpt lat="42.3596509" lon="13.380646"><ele>650.6666666666666</ele><time>2026-05-02T17:04:33.602Z</time></trkpt><trkpt lat="42.3595653" lon="13.3808551"><ele>650.3333333333333</ele><time>2026-05-02T17:04:34.602Z</time></trkpt><trkpt lat="42.3594638" lon="13.3810919"><ele>650.0</ele><time>2026-05-02T17:04:35.602Z</time></trkpt><trkpt lat="42.3593601" lon="13.3813178"><ele>649.6666666666666</ele><time>2026-05-02T17:04:36.599Z</time></trkpt><trkpt lat="42.3592568" lon="13.3815453"><ele>649.3333333333334</ele><time>2026-05-02T17:04:37.602Z</time></trkpt><trkpt lat="42.3591573" lon="13.3817675"><ele>649.0</ele><time>2026-05-02T17:04:38.602Z</time></trkpt><trkpt lat="42.3590583" lon="13.3819897"><ele>649.6666666666667</ele><time>2026-05-02T17:04:39.599Z</time></trkpt><trkpt lat="42.3589577" lon="13.3822127"><ele>650.3333333333334</ele><time>2026-05-02T17:04:40.603Z</time></trkpt><trkpt lat="42.3588604" lon="13.3824269"><ele>651.0</ele><time>2026-05-02T17:04:41.598Z</time></trkpt><trkpt lat="42.3587644" lon="13.3826262"><ele>651.0</ele><time>2026-05-02T17:04:42.602Z</time></trkpt><trkpt lat="42.3586696" lon="13.3828241"><ele>651.0</ele><time>2026-05-02T17:04:43.599Z</time></trkpt><trkpt lat="42.3585801" lon="13.3830246"><ele>651.0</ele><time>2026-05-02T17:04:44.602Z</time></trkpt><trkpt lat="42.3584896" lon="13.383222"><ele>650.3333333333334</ele><time>2026-05-02T17:04:45.602Z</time></trkpt><trkpt lat="42.358389" lon="13.3834137"><ele>649.6666666666667</ele><time>2026-05-02T17:04:46.602Z</time></trkpt><trkpt lat="42.358287" lon="13.3836084"><ele>649.0</ele><time>2026-05-02T17:04:47.602Z</time></trkpt><trkpt lat="42.358193" lon="13.3838118"><ele>649.3333333333334</ele><time>2026-05-02T17:04:48.602Z</time></trkpt><trkpt lat="42.3581054" lon="13.3840156"><ele>649.6666666666666</ele><time>2026-05-02T17:04:49.602Z</time></trkpt><trkpt lat="42.3580258" lon="13.3842162"><ele>650.0</ele><time>2026-05-02T17:04:50.6Z</time></trkpt><trkpt lat="42.3579581" lon="13.3844074"><ele>649.75</ele><time>2026-05-02T17:04:51.602Z</time></trkpt><trkpt lat="42.3579025" lon="13.3845926"><ele>649.5</ele><time>2026-05-02T17:04:52.602Z</time></trkpt><trkpt lat="42.3578534" lon="13.3847689"><ele>649.25</ele><time>2026-05-02T17:04:53.603Z</time></trkpt><trkpt lat="42.3577972" lon="13.3849218"><ele>649.0</ele><time>2026-05-02T17:04:54.602Z</time></trkpt><trkpt lat="42.3577448" lon="13.3850413"><ele>649.0</ele><time>2026-05-02T17:04:55.602Z</time></trkpt><trkpt lat="42.3576865" lon="13.3851483"><ele>649.0</ele><time>2026-05-02T17:04:56.601Z</time></trkpt><trkpt lat="42.3576128" lon="13.3852572"><ele>649.0</ele><time>2026-05-02T17:04:57.602Z</time></trkpt><trkpt lat="42.3575386" lon="13.3853668"><ele>649.0</ele><time>2026-05-02T17:04:58.601Z</time></trkpt><trkpt lat="42.3574724" lon="13.3854843"><ele>649.0</ele><time>2026-05-02T17:04:59.601Z</time></trkpt><trkpt lat="42.3574118" lon="13.3855974"><ele>649.0</ele><time>2026-05-02T17:05:00.602Z</time></trkpt><trkpt lat="42.3573435" lon="13.3857075"><ele>649.0</ele><time>2026-05-02T17:05:01.601Z</time></trkpt><trkpt lat="42.3572754" lon="13.3858098"><ele>649.0</ele><time>2026-05-02T17:05:02.602Z</time></trkpt><trkpt lat="42.3572033" lon="13.3859128"><ele>649.0</ele><time>2026-05-02T17:05:03.601Z</time></trkpt><trkpt lat="42.3571177" lon="13.3860344"><ele>649.0</ele><time>2026-05-02T17:05:04.602Z</time></trkpt><trkpt lat="42.3570206" lon="13.3861771"><ele>648.6666666666667</ele><time>2026-05-02T17:05:05.602Z</time></trkpt><trkpt lat="42.356911" lon="13.3863431"><ele>648.3333333333334</ele><time>2026-05-02T17:05:06.601Z</time></trkpt><trkpt lat="42.3567912" lon="13.3865373"><ele>648.0</ele><time>2026-05-02T17:05:07.602Z</time></trkpt><trkpt lat="42.3566664" lon="13.386758"><ele>648.0</ele><time>2026-05-02T17:05:08.601Z</time></trkpt><trkpt lat="42.3565408" lon="13.3869816"><ele>648.0</ele><time>2026-05-02T17:05:09.6Z</time></trkpt><trkpt lat="42.3564165" lon="13.3871961"><ele>648.0</ele><time>2026-05-02T17:05:10.6Z</time></trkpt><trkpt lat="42.3563032" lon="13.3873963"><ele>647.3333333333334</ele><time>2026-05-02T17:05:11.602Z</time></trkpt><trkpt lat="42.3561984" lon="13.3875836"><ele>646.6666666666667</ele><time>2026-05-02T17:05:12.601Z</time></trkpt><trkpt lat="42.356101" lon="13.3877571"><ele>646.0</ele><time>2026-05-02T17:05:13.602Z</time></trkpt><trkpt lat="42.3560068" lon="13.3879099"><ele>647.1999999999999</ele><time>2026-05-02T17:05:14.602Z</time></trkpt><trkpt lat="42.3559158" lon="13.3880304"><ele>648.4</ele><time>2026-05-02T17:05:15.602Z</time></trkpt><trkpt lat="42.3558254" lon="13.3881188"><ele>649.6</ele><time>2026-05-02T17:05:16.599Z</time></trkpt><trkpt lat="42.3557363" lon="13.3881826"><ele>650.8</ele><time>2026-05-02T17:05:17.601Z</time></trkpt><trkpt lat="42.3556525" lon="13.3882174"><ele>652.0</ele><time>2026-05-02T17:05:18.601Z</time></trkpt><trkpt lat="42.3555547" lon="13.388286"><ele>652.0</ele><time>2026-05-02T17:05:20.602Z</time></trkpt><trkpt lat="42.3555043" lon="13.3884022"><ele>652.0</ele><time>2026-05-02T17:05:22.601Z</time></trkpt><trkpt lat="42.3555178" lon="13.3885468"><ele>652.0</ele><time>2026-05-02T17:05:24.602Z</time></trkpt><trkpt lat="42.3556188" lon="13.3886807"><ele>652.0</ele><time>2026-05-02T17:05:26.602Z</time></trkpt><trkpt lat="42.3557006" lon="13.3887766"><ele>653.25</ele><time>2026-05-02T17:05:27.602Z</time></trkpt><trkpt lat="42.3557876" lon="13.3889019"><ele>654.5</ele><time>2026-05-02T17:05:28.602Z</time></trkpt><trkpt lat="42.3558753" lon="13.3890239"><ele>655.75</ele><time>2026-05-02T17:05:29.602Z</time></trkpt><trkpt lat="42.3559724" lon="13.3892162"><ele>657.0</ele><time>2026-05-02T17:05:30.599Z</time></trkpt><trkpt lat="42.3560673" lon="13.3893977"><ele>657.0</ele><time>2026-05-02T17:05:31.599Z</time></trkpt><trkpt lat="42.3561607" lon="13.3895804"><ele>657.0</ele><time>2026-05-02T17:05:32.599Z</time></trkpt><trkpt lat="42.3562532" lon="13.3897572"><ele>657.0</ele><time>2026-05-02T17:05:33.603Z</time></trkpt><trkpt lat="42.3563423" lon="13.389914"><ele>656.0</ele><time>2026-05-02T17:05:34.601Z</time></trkpt><trkpt lat="42.3564315" lon="13.3900526"><ele>655.0</ele><time>2026-05-02T17:05:35.603Z</time></trkpt><trkpt lat="42.3565208" lon="13.3901688"><ele>654.0</ele><time>2026-05-02T17:05:36.601Z</time></trkpt><trkpt lat="42.3566116" lon="13.3902757"><ele>653.0</ele><time>2026-05-02T17:05:37.6Z</time></trkpt><trkpt lat="42.3566804" lon="13.3903804"><ele>653.0</ele><time>2026-05-02T17:05:38.6Z</time></trkpt><trkpt lat="42.3567385" lon="13.3904902"><ele>653.0</ele><time>2026-05-02T17:05:39.601Z</time></trkpt><trkpt lat="42.356773" lon="13.3906019"><ele>653.0</ele><time>2026-05-02T17:05:40.603Z</time></trkpt><trkpt lat="42.3567839" lon="13.3907251"><ele>653.0</ele><time>2026-05-02T17:05:41.602Z</time></trkpt><trkpt lat="42.3567698" lon="13.3908676"><ele>653.0</ele><time>2026-05-02T17:05:42.601Z</time></trkpt><trkpt lat="42.3567373" lon="13.3910461"><ele>653.3333333333333</ele><time>2026-05-02T17:05:43.603Z</time></trkpt><trkpt lat="42.3567073" lon="13.3912531"><ele>653.6666666666666</ele><time>2026-05-02T17:05:44.599Z</time></trkpt><trkpt lat="42.3566832" lon="13.3914692"><ele>654.0</ele><time>2026-05-02T17:05:45.602Z</time></trkpt><trkpt lat="42.3566677" lon="13.3916872"><ele>655.25</ele><time>2026-05-02T17:05:46.603Z</time></trkpt><trkpt lat="42.3566568" lon="13.3919017"><ele>656.5</ele><time>2026-05-02T17:05:47.6Z</time></trkpt><trkpt lat="42.3566528" lon="13.3920942"><ele>657.75</ele><time>2026-05-02T17:05:48.6Z</time></trkpt><trkpt lat="42.3566491" lon="13.3922557"><ele>659.0</ele><time>2026-05-02T17:05:49.599Z</time></trkpt><trkpt lat="42.3566479" lon="13.3923933"><ele>660.2</ele><time>2026-05-02T17:05:50.601Z</time></trkpt><trkpt lat="42.3566489" lon="13.392511"><ele>661.4000000000001</ele><time>2026-05-02T17:05:51.597Z</time></trkpt><trkpt lat="42.3566471" lon="13.3926214"><ele>662.6</ele><time>2026-05-02T17:05:52.602Z</time></trkpt><trkpt lat="42.3566472" lon="13.3927504"><ele>663.8</ele><time>2026-05-02T17:05:53.602Z</time></trkpt><trkpt lat="42.3566482" lon="13.3929056"><ele>665.0</ele><time>2026-05-02T17:05:54.602Z</time></trkpt><trkpt lat="42.3566442" lon="13.3930933"><ele>666.3333333333333</ele><time>2026-05-02T17:05:55.603Z</time></trkpt><trkpt lat="42.3566324" lon="13.3933005"><ele>667.6666666666666</ele><time>2026-05-02T17:05:56.603Z</time></trkpt><trkpt lat="42.356622" lon="13.393504"><ele>669.0</ele><time>2026-05-02T17:05:57.603Z</time></trkpt><trkpt lat="42.3566123" lon="13.3937002"><ele>670.5</ele><time>2026-05-02T17:05:58.602Z</time></trkpt><trkpt lat="42.3566078" lon="13.3938831"><ele>672.0</ele><time>2026-05-02T17:05:59.602Z</time></trkpt><trkpt lat="42.35661" lon="13.3940656"><ele>673.5</ele><time>2026-05-02T17:06:00.603Z</time></trkpt><trkpt lat="42.3566122" lon="13.3942463"><ele>675.0</ele><time>2026-05-02T17:06:01.602Z</time></trkpt><trkpt lat="42.3566112" lon="13.394414"><ele>675.0</ele><time>2026-05-02T17:06:02.602Z</time></trkpt><trkpt lat="42.3566106" lon="13.394577"><ele>675.0</ele><time>2026-05-02T17:06:03.6Z</time></trkpt><trkpt lat="42.3566105" lon="13.3947413"><ele>675.0</ele><time>2026-05-02T17:06:04.597Z</time></trkpt><trkpt lat="42.3566078" lon="13.3949074"><ele>675.0</ele><time>2026-05-02T17:06:05.602Z</time></trkpt><trkpt lat="42.3566013" lon="13.3950707"><ele>675.25</ele><time>2026-05-02T17:06:06.601Z</time></trkpt><trkpt lat="42.356598" lon="13.3952301"><ele>675.5</ele><time>2026-05-02T17:06:07.602Z</time></trkpt><trkpt lat="42.3565939" lon="13.3953946"><ele>675.75</ele><time>2026-05-02T17:06:08.601Z</time></trkpt><trkpt lat="42.3565906" lon="13.3955566"><ele>676.0</ele><time>2026-05-02T17:06:09.602Z</time></trkpt><trkpt lat="42.3565892" lon="13.3957197"><ele>675.5999999999999</ele><time>2026-05-02T17:06:10.598Z</time></trkpt><trkpt lat="42.3565855" lon="13.3958696"><ele>675.2</ele><time>2026-05-02T17:06:11.599Z</time></trkpt><trkpt lat="42.3565839" lon="13.3959991"><ele>674.8</ele><time>2026-05-02T17:06:12.602Z</time></trkpt><trkpt lat="42.3565817" lon="13.3961308"><ele>674.4000000000001</ele><time>2026-05-02T17:06:13.601Z</time></trkpt><trkpt lat="42.3565759" lon="13.3962847"><ele>674.0</ele><time>2026-05-02T17:06:14.602Z</time></trkpt><trkpt lat="42.3565684" lon="13.3964416"><ele>675.25</ele><time>2026-05-02T17:06:15.599Z</time></trkpt><trkpt lat="42.3565679" lon="13.3966016"><ele>676.5</ele><time>2026-05-02T17:06:16.6Z</time></trkpt><trkpt lat="42.3565596" lon="13.3967987"><ele>677.75</ele><time>2026-05-02T17:06:17.602Z</time></trkpt><trkpt lat="42.3565394" lon="13.397015"><ele>679.0</ele><time>2026-05-02T17:06:18.602Z</time></trkpt><trkpt lat="42.3565197" lon="13.3972355"><ele>682.0</ele><time>2026-05-02T17:06:19.602Z</time></trkpt><trkpt lat="42.3565197" lon="13.3974554"><ele>685.0</ele><time>2026-05-02T17:06:20.599Z</time></trkpt><trkpt lat="42.3565485" lon="13.3976715"><ele>688.0</ele><time>2026-05-02T17:06:21.601Z</time></trkpt><trkpt lat="42.3566036" lon="13.3978843"><ele>688.3333333333334</ele><time>2026-05-02T17:06:22.602Z</time></trkpt><trkpt lat="42.3566799" lon="13.398095"><ele>688.6666666666666</ele><time>2026-05-02T17:06:23.601Z</time></trkpt><trkpt lat="42.3567704" lon="13.3982946"><ele>689.0</ele><time>2026-05-02T17:06:24.602Z</time></trkpt><trkpt lat="42.3568619" lon="13.3984886"><ele>689.0</ele><time>2026-05-02T17:06:25.602Z</time></trkpt><trkpt lat="42.3569312" lon="13.3987029"><ele>689.0</ele><time>2026-05-02T17:06:26.601Z</time></trkpt><trkpt lat="42.3569781" lon="13.3989317"><ele>689.0</ele><time>2026-05-02T17:06:27.601Z</time></trkpt><trkpt lat="42.3570053" lon="13.3991709"><ele>690.6666666666666</ele><time>2026-05-02T17:06:28.6Z</time></trkpt><trkpt lat="42.3570172" lon="13.3994154"><ele>692.3333333333334</ele><time>2026-05-02T17:06:29.602Z</time></trkpt><trkpt lat="42.3570232" lon="13.3996435"><ele>694.0</ele><time>2026-05-02T17:06:30.598Z</time></trkpt><trkpt lat="42.3570262" lon="13.399843"><ele>695.5</ele><time>2026-05-02T17:06:31.6Z</time></trkpt><trkpt lat="42.3570313" lon="13.3999919"><ele>697.0</ele><time>2026-05-02T17:06:32.6Z</time></trkpt><trkpt lat="42.3570376" lon="13.4001313"><ele>698.5</ele><time>2026-05-02T17:06:33.602Z</time></trkpt><trkpt lat="42.3570374" lon="13.4002849"><ele>700.0</ele><time>2026-05-02T17:06:34.597Z</time></trkpt><trkpt lat="42.357034" lon="13.4004676"><ele>701.0</ele><time>2026-05-02T17:06:35.598Z</time></trkpt><trkpt lat="42.3570332" lon="13.4006485"><ele>702.0</ele><time>2026-05-02T17:06:36.597Z</time></trkpt><trkpt lat="42.3570331" lon="13.4008312"><ele>703.0</ele><time>2026-05-02T17:06:37.603Z</time></trkpt><trkpt lat="42.3570352" lon="13.401057"><ele>704.0</ele><time>2026-05-02T17:06:38.599Z</time></trkpt><trkpt lat="42.3570389" lon="13.4013025"><ele>703.6666666666666</ele><time>2026-05-02T17:06:39.602Z</time></trkpt><trkpt lat="42.3570419" lon="13.4015338"><ele>703.3333333333334</ele><time>2026-05-02T17:06:40.602Z</time></trkpt><trkpt lat="42.3570423" lon="13.4017473"><ele>703.0</ele><time>2026-05-02T17:06:41.6Z</time></trkpt><trkpt lat="42.3570424" lon="13.4019569"><ele>701.3333333333334</ele><time>2026-05-02T17:06:42.599Z</time></trkpt><trkpt lat="42.3570453" lon="13.4021704"><ele>699.6666666666666</ele><time>2026-05-02T17:06:43.601Z</time></trkpt><trkpt lat="42.3570513" lon="13.4023812"><ele>698.0</ele><time>2026-05-02T17:06:44.602Z</time></trkpt><trkpt lat="42.3570653" lon="13.4025889"><ele>698.0</ele><time>2026-05-02T17:06:45.599Z</time></trkpt><trkpt lat="42.3570919" lon="13.4027919"><ele>698.0</ele><time>2026-05-02T17:06:46.598Z</time></trkpt><trkpt lat="42.3571343" lon="13.402982"><ele>698.0</ele><time>2026-05-02T17:06:47.599Z</time></trkpt><trkpt lat="42.3571894" lon="13.4031513"><ele>698.0</ele><time>2026-05-02T17:06:48.602Z</time></trkpt><trkpt lat="42.3572484" lon="13.4032971"><ele>698.8</ele><time>2026-05-02T17:06:49.599Z</time></trkpt><trkpt lat="42.3573044" lon="13.403436"><ele>699.5999999999999</ele><time>2026-05-02T17:06:50.597Z</time></trkpt><trkpt lat="42.3573546" lon="13.403565"><ele>700.4000000000001</ele><time>2026-05-02T17:06:51.597Z</time></trkpt><trkpt lat="42.3574005" lon="13.4036832"><ele>701.2</ele><time>2026-05-02T17:06:52.601Z</time></trkpt><trkpt lat="42.3574448" lon="13.4037982"><ele>702.0</ele><time>2026-05-02T17:06:53.6Z</time></trkpt><trkpt lat="42.3574932" lon="13.4039102"><ele>702.0</ele><time>2026-05-02T17:06:54.602Z</time></trkpt><trkpt lat="42.3575419" lon="13.4040229"><ele>702.0</ele><time>2026-05-02T17:06:55.602Z</time></trkpt><trkpt lat="42.3575855" lon="13.4041402"><ele>702.0</ele><time>2026-05-02T17:06:56.602Z</time></trkpt><trkpt lat="42.357618" lon="13.4042581"><ele>702.0</ele><time>2026-05-02T17:06:57.602Z</time></trkpt><trkpt lat="42.3576428" lon="13.4043673"><ele>702.0</ele><time>2026-05-02T17:06:58.601Z</time></trkpt><trkpt lat="42.357654" lon="13.4044731"><ele>702.0</ele><time>2026-05-02T17:06:59.602Z</time></trkpt><trkpt lat="42.357647" lon="13.4045757"><ele>702.0</ele><time>2026-05-02T17:07:00.6Z</time></trkpt><trkpt lat="42.3576184" lon="13.4046739"><ele>702.0</ele><time>2026-05-02T17:07:01.602Z</time></trkpt><trkpt lat="42.3575728" lon="13.4047634"><ele>702.0</ele><time>2026-05-02T17:07:02.601Z</time></trkpt><trkpt lat="42.3575145" lon="13.4048336"><ele>702.0</ele><time>2026-05-02T17:07:03.602Z</time></trkpt><trkpt lat="42.3574446" lon="13.4048904"><ele>702.0</ele><time>2026-05-02T17:07:04.6Z</time></trkpt><trkpt lat="42.3573557" lon="13.4049295"><ele>703.0</ele><time>2026-05-02T17:07:05.602Z</time></trkpt><trkpt lat="42.3572587" lon="13.4049514"><ele>704.0</ele><time>2026-05-02T17:07:06.602Z</time></trkpt><trkpt lat="42.3571664" lon="13.4049625"><ele>705.0</ele><time>2026-05-02T17:07:07.602Z</time></trkpt><trkpt lat="42.3570819" lon="13.4049764"><ele>706.0</ele><time>2026-05-02T17:07:08.6Z</time></trkpt><trkpt lat="42.3570021" lon="13.4049889"><ele>707.0</ele><time>2026-05-02T17:07:09.602Z</time></trkpt><trkpt lat="42.35692" lon="13.4050011"><ele>708.0</ele><time>2026-05-02T17:07:10.601Z</time></trkpt><trkpt lat="42.3568377" lon="13.4050217"><ele>708.0</ele><time>2026-05-02T17:07:11.601Z</time></trkpt><trkpt lat="42.3567579" lon="13.4050528"><ele>708.0</ele><time>2026-05-02T17:07:12.602Z</time></trkpt><trkpt lat="42.3566824" lon="13.4050987"><ele>708.0</ele><time>2026-05-02T17:07:13.601Z</time></trkpt><trkpt lat="42.3566096" lon="13.4051583"><ele>708.0</ele><time>2026-05-02T17:07:14.602Z</time></trkpt><trkpt lat="42.3565374" lon="13.4052225"><ele>708.0</ele><time>2026-05-02T17:07:15.602Z</time></trkpt><trkpt lat="42.356466" lon="13.4052907"><ele>708.0</ele><time>2026-05-02T17:07:16.603Z</time></trkpt><trkpt lat="42.3563986" lon="13.4053538"><ele>708.5</ele><time>2026-05-02T17:07:17.601Z</time></trkpt><trkpt lat="42.3563338" lon="13.4054096"><ele>709.0</ele><time>2026-05-02T17:07:18.602Z</time></trkpt><trkpt lat="42.356273" lon="13.4054618"><ele>709.5</ele><time>2026-05-02T17:07:19.602Z</time></trkpt><trkpt lat="42.3562191" lon="13.4055081"><ele>710.0</ele><time>2026-05-02T17:07:20.602Z</time></trkpt><trkpt lat="42.3561236" lon="13.4055838"><ele>710.5</ele><time>2026-05-02T17:07:22.601Z</time></trkpt><trkpt lat="42.3560532" lon="13.4056209"><ele>711.0</ele><time>2026-05-02T17:07:24.598Z</time></trkpt><trkpt lat="42.3559881" lon="13.4056419"><ele>711.0</ele><time>2026-05-02T17:07:26.599Z</time></trkpt><trkpt lat="42.355916" lon="13.4056388"><ele>711.0</ele><time>2026-05-02T17:07:28.602Z</time></trkpt><trkpt lat="42.3558344" lon="13.4055786"><ele>711.0</ele><time>2026-05-02T17:07:30.598Z</time></trkpt><trkpt lat="42.3557799" lon="13.4054632"><ele>711.0</ele><time>2026-05-02T17:07:32.598Z</time></trkpt><trkpt lat="42.3557383" lon="13.4053171"><ele>711.0</ele><time>2026-05-02T17:07:34.599Z</time></trkpt><trkpt lat="42.3557018" lon="13.4051842"><ele>711.0</ele><time>2026-05-02T17:07:36.6Z</time></trkpt><trkpt lat="42.3556694" lon="13.4050378"><ele>711.0</ele><time>2026-05-02T17:07:38.603Z</time></trkpt><trkpt lat="42.3556383" lon="13.4048863"><ele>711.0</ele><time>2026-05-02T17:07:40.602Z</time></trkpt><trkpt lat="42.355612" lon="13.404775"><ele>711.0</ele><time>2026-05-02T17:07:42.598Z</time></trkpt><trkpt lat="42.355592" lon="13.404682"><ele>711.0</ele><time>2026-05-02T17:07:45.601Z</time></trkpt><trkpt lat="42.3555613" lon="13.404563"><ele>714.8</ele><time>2026-05-02T17:07:50.602Z</time></trkpt><trkpt lat="42.3555254" lon="13.4043986"><ele>718.5999999999999</ele><time>2026-05-02T17:07:52.603Z</time></trkpt><trkpt lat="42.3555066" lon="13.4042875"><ele>722.4</ele><time>2026-05-02T17:07:53.599Z</time></trkpt><trkpt lat="42.3554773" lon="13.404156"><ele>726.2</ele><time>2026-05-02T17:07:54.602Z</time></trkpt><trkpt lat="42.3554463" lon="13.4040171"><ele>730.0</ele><time>2026-05-02T17:07:55.599Z</time></trkpt><trkpt lat="42.3554132" lon="13.4038726"><ele>728.25</ele><time>2026-05-02T17:07:56.602Z</time></trkpt><trkpt lat="42.3553818" lon="13.4037215"><ele>726.5</ele><time>2026-05-02T17:07:57.602Z</time></trkpt><trkpt lat="42.3553468" lon="13.4035708"><ele>724.75</ele><time>2026-05-02T17:07:58.602Z</time></trkpt><trkpt lat="42.3553064" lon="13.4034227"><ele>723.0</ele><time>2026-05-02T17:07:59.602Z</time></trkpt><trkpt lat="42.3552562" lon="13.4032762"><ele>723.0</ele><time>2026-05-02T17:08:00.602Z</time></trkpt><trkpt lat="42.3551957" lon="13.4031348"><ele>723.0</ele><time>2026-05-02T17:08:01.599Z</time></trkpt><trkpt lat="42.3551272" lon="13.4030022"><ele>723.0</ele><time>2026-05-02T17:08:02.602Z</time></trkpt><trkpt lat="42.3550518" lon="13.4028881"><ele>723.0</ele><time>2026-05-02T17:08:03.601Z</time></trkpt><trkpt lat="42.3549717" lon="13.4027853"><ele>721.25</ele><time>2026-05-02T17:08:04.602Z</time></trkpt><trkpt lat="42.3548879" lon="13.4026905"><ele>719.5</ele><time>2026-05-02T17:08:05.599Z</time></trkpt><trkpt lat="42.3547979" lon="13.4025822"><ele>717.75</ele><time>2026-05-02T17:08:06.599Z</time></trkpt><trkpt lat="42.3547097" lon="13.4024658"><ele>716.0</ele><time>2026-05-02T17:08:07.597Z</time></trkpt><trkpt lat="42.3546165" lon="13.402352"><ele>718.4</ele><time>2026-05-02T17:08:08.602Z</time></trkpt><trkpt lat="42.3545274" lon="13.4022405"><ele>720.8</ele><time>2026-05-02T17:08:09.601Z</time></trkpt><trkpt lat="42.354439" lon="13.4021361"><ele>723.1999999999999</ele><time>2026-05-02T17:08:10.6Z</time></trkpt><trkpt lat="42.354367" lon="13.4020351"><ele>725.5999999999999</ele><time>2026-05-02T17:08:11.597Z</time></trkpt><trkpt lat="42.3543236" lon="13.4019228"><ele>728.0</ele><time>2026-05-02T17:08:12.597Z</time></trkpt><trkpt lat="42.3543056" lon="13.4018111"><ele>728.0</ele><time>2026-05-02T17:08:13.599Z</time></trkpt><trkpt lat="42.3543155" lon="13.4017034"><ele>728.0</ele><time>2026-05-02T17:08:14.597Z</time></trkpt><trkpt lat="42.3543388" lon="13.401609"><ele>728.0</ele><time>2026-05-02T17:08:15.6Z</time></trkpt><trkpt lat="42.3543406" lon="13.4014643"><ele>728.0</ele><time>2026-05-02T17:08:17.602Z</time></trkpt><trkpt lat="42.3542892" lon="13.4014012"><ele>728.0</ele><time>2026-05-02T17:08:19.598Z</time></trkpt><trkpt lat="42.3542154" lon="13.4013739"><ele>728.0</ele><time>2026-05-02T17:08:21.602Z</time></trkpt><trkpt lat="42.3541508" lon="13.4013698"><ele>728.0</ele><time>2026-05-02T17:08:23.603Z</time></trkpt><trkpt lat="42.3540844" lon="13.40135"><ele>728.0</ele><time>2026-05-02T17:08:26.598Z</time></trkpt><trkpt lat="42.3540267" lon="13.4012939"><ele>728.0</ele><time>2026-05-02T17:08:31.602Z</time></trkpt><trkpt lat="42.353956" lon="13.4012505"><ele>728.0</ele><time>2026-05-02T17:08:36.602Z</time></trkpt><trkpt lat="42.3538793" lon="13.4011975"><ele>728.0</ele><time>2026-05-02T17:08:39.602Z</time></trkpt><trkpt lat="42.3538146" lon="13.4012028"><ele>728.0</ele><time>2026-05-02T17:08:41.603Z</time></trkpt><trkpt lat="42.3537319" lon="13.4012707"><ele>729.0</ele><time>2026-05-02T17:08:44.602Z</time></trkpt><trkpt lat="42.3536915" lon="13.4013741"><ele>730.0</ele><time>2026-05-02T17:08:46.6Z</time></trkpt><trkpt lat="42.3536619" lon="13.4014524"><ele>731.0</ele><time>2026-05-02T17:08:48.601Z</time></trkpt><trkpt lat="42.3536472" lon="13.4015409"><ele>732.0</ele><time>2026-05-02T17:08:50.602Z</time></trkpt><trkpt lat="42.353639" lon="13.4016259"><ele>733.0</ele><time>2026-05-02T17:08:53.598Z</time></trkpt><trkpt lat="42.3536696" lon="13.4017133"><ele>734.0</ele><time>2026-05-02T17:08:57.602Z</time></trkpt><trkpt lat="42.3537091" lon="13.4018387"><ele>734.0</ele><time>2026-05-02T17:09:00.602Z</time></trkpt><trkpt lat="42.3537307" lon="13.401976"><ele>734.0</ele><time>2026-05-02T17:09:02.602Z</time></trkpt><trkpt lat="42.3537405" lon="13.4020826"><ele>734.0</ele><time>2026-05-02T17:09:04.603Z</time></trkpt><trkpt lat="42.3537357" lon="13.4022022"><ele>734.0</ele><time>2026-05-02T17:09:07.602Z</time></trkpt><trkpt lat="42.3537434" lon="13.4023107"><ele>734.0</ele><time>2026-05-02T17:09:10.597Z</time></trkpt><trkpt lat="42.3537786" lon="13.402385"><ele>734.0</ele><time>2026-05-02T17:09:14.602Z</time></trkpt><trkpt lat="42.3538519" lon="13.4023418"><ele>735.0</ele><time>2026-05-02T17:09:18.599Z</time></trkpt></trkseg></trk></gpx>